<?xml version="1.0" encoding="UTF-8" standalone="no" ?>
<gpx xmlns="http://www.topografix.com/GPX/1/1" xmlns:xsi="http://www.w3.org/2001/XMLSchema-instance" xsi:schemaLocation="http://www.topografix.com/GPX/1/1 http://www.topografix.com/GPX/1/1/gpx.xsd" version="1.1" creator="VisuGPX - https://www.visugpx.com">
  <metadata>
    <name>Chaponost Croix P. Yzeron</name>
    <desc><![CDATA[Belle sortie sur des petites routes, ça monte pas mal mais c’est sympa !]]></desc>
  </metadata>
  <trk>
    <name><![CDATA[Chaponost Cyclisme sur route_1]]></name>
    <extensions>
      <line xmlns="http://www.topografix.com/GPX/gpx_style/0/2">
        <color>0000FF</color>
        <width>4</width>
      </line>
    </extensions>
    <trkseg>
      <trkpt lat="45.71075" lon="4.75542">
        <ele>317.8</ele>
        <time>2026-08-26T07:35:56Z</time>
      </trkpt>
      <trkpt lat="45.71074" lon="4.75541">
        <ele>317.8</ele>
        <time>2026-08-26T07:35:57Z</time>
      </trkpt>
      <trkpt lat="45.71061" lon="4.7554">
        <ele>317</ele>
        <time>2026-08-26T07:36:07Z</time>
      </trkpt>
      <trkpt lat="45.71058" lon="4.75539">
        <ele>316.8</ele>
        <time>2026-08-26T07:36:08Z</time>
      </trkpt>
      <trkpt lat="45.71056" lon="4.75536">
        <ele>316.4</ele>
        <time>2026-08-26T07:36:09Z</time>
      </trkpt>
      <trkpt lat="45.71055" lon="4.75531">
        <ele>316.2</ele>
        <time>2026-08-26T07:36:10Z</time>
      </trkpt>
      <trkpt lat="45.71054" lon="4.75525">
        <ele>315.8</ele>
        <time>2026-08-26T07:36:11Z</time>
      </trkpt>
      <trkpt lat="45.71054" lon="4.75519">
        <ele>315.6</ele>
        <time>2026-08-26T07:36:12Z</time>
      </trkpt>
      <trkpt lat="45.71054" lon="4.75513">
        <ele>315.4</ele>
        <time>2026-08-26T07:36:13Z</time>
      </trkpt>
      <trkpt lat="45.71054" lon="4.75507">
        <ele>315.4</ele>
        <time>2026-08-26T07:36:14Z</time>
      </trkpt>
      <trkpt lat="45.71054" lon="4.75501">
        <ele>315.2</ele>
        <time>2026-08-26T07:36:15Z</time>
      </trkpt>
      <trkpt lat="45.71054" lon="4.75495">
        <ele>315.2</ele>
        <time>2026-08-26T07:36:16Z</time>
      </trkpt>
      <trkpt lat="45.71054" lon="4.75489">
        <ele>315.2</ele>
        <time>2026-08-26T07:36:17Z</time>
      </trkpt>
      <trkpt lat="45.71054" lon="4.75483">
        <ele>315.2</ele>
        <time>2026-08-26T07:36:18Z</time>
      </trkpt>
      <trkpt lat="45.71054" lon="4.75477">
        <ele>315.2</ele>
        <time>2026-08-26T07:36:19Z</time>
      </trkpt>
      <trkpt lat="45.71054" lon="4.75471">
        <ele>315.2</ele>
        <time>2026-08-26T07:36:20Z</time>
      </trkpt>
      <trkpt lat="45.71055" lon="4.75465">
        <ele>315.2</ele>
        <time>2026-08-26T07:36:21Z</time>
      </trkpt>
      <trkpt lat="45.71055" lon="4.75459">
        <ele>315.2</ele>
        <time>2026-08-26T07:36:22Z</time>
      </trkpt>
      <trkpt lat="45.71055" lon="4.75453">
        <ele>315.4</ele>
        <time>2026-08-26T07:36:23Z</time>
      </trkpt>
      <trkpt lat="45.71055" lon="4.75447">
        <ele>315.4</ele>
        <time>2026-08-26T07:36:24Z</time>
      </trkpt>
      <trkpt lat="45.71056" lon="4.75441">
        <ele>315.4</ele>
        <time>2026-08-26T07:36:25Z</time>
      </trkpt>
      <trkpt lat="45.71056" lon="4.75436">
        <ele>315.6</ele>
        <time>2026-08-26T07:36:26Z</time>
      </trkpt>
      <trkpt lat="45.71056" lon="4.75431">
        <ele>315.6</ele>
        <time>2026-08-26T07:36:27Z</time>
      </trkpt>
      <trkpt lat="45.71056" lon="4.75426">
        <ele>315.8</ele>
        <time>2026-08-26T07:36:28Z</time>
      </trkpt>
      <trkpt lat="45.71057" lon="4.75418">
        <ele>316</ele>
        <time>2026-08-26T07:36:29Z</time>
      </trkpt>
      <trkpt lat="45.71058" lon="4.75413">
        <ele>316.2</ele>
        <time>2026-08-26T07:36:30Z</time>
      </trkpt>
      <trkpt lat="45.71059" lon="4.75408">
        <ele>316.2</ele>
        <time>2026-08-26T07:36:31Z</time>
      </trkpt>
      <trkpt lat="45.7106" lon="4.75402">
        <ele>316.4</ele>
        <time>2026-08-26T07:36:32Z</time>
      </trkpt>
      <trkpt lat="45.71061" lon="4.75396">
        <ele>316.4</ele>
        <time>2026-08-26T07:36:33Z</time>
      </trkpt>
      <trkpt lat="45.71062" lon="4.75391">
        <ele>316.2</ele>
        <time>2026-08-26T07:36:34Z</time>
      </trkpt>
      <trkpt lat="45.71064" lon="4.75385">
        <ele>316.2</ele>
        <time>2026-08-26T07:36:35Z</time>
      </trkpt>
      <trkpt lat="45.71066" lon="4.75378">
        <ele>315.8</ele>
        <time>2026-08-26T07:36:36Z</time>
      </trkpt>
      <trkpt lat="45.71068" lon="4.75371">
        <ele>315.6</ele>
        <time>2026-08-26T07:36:37Z</time>
      </trkpt>
      <trkpt lat="45.7107" lon="4.75363">
        <ele>315.2</ele>
        <time>2026-08-26T07:36:38Z</time>
      </trkpt>
      <trkpt lat="45.71072" lon="4.75356">
        <ele>314.8</ele>
        <time>2026-08-26T07:36:39Z</time>
      </trkpt>
      <trkpt lat="45.71074" lon="4.75348">
        <ele>314.2</ele>
        <time>2026-08-26T07:36:40Z</time>
      </trkpt>
      <trkpt lat="45.71077" lon="4.7534">
        <ele>313.4</ele>
        <time>2026-08-26T07:36:41Z</time>
      </trkpt>
      <trkpt lat="45.7108" lon="4.75331">
        <ele>312.6</ele>
        <time>2026-08-26T07:36:42Z</time>
      </trkpt>
      <trkpt lat="45.71083" lon="4.75321">
        <ele>311.6</ele>
        <time>2026-08-26T07:36:43Z</time>
      </trkpt>
      <trkpt lat="45.71087" lon="4.75309">
        <ele>310.4</ele>
        <time>2026-08-26T07:36:44Z</time>
      </trkpt>
      <trkpt lat="45.71091" lon="4.75297">
        <ele>309</ele>
        <time>2026-08-26T07:36:45Z</time>
      </trkpt>
      <trkpt lat="45.71096" lon="4.75284">
        <ele>307.6</ele>
        <time>2026-08-26T07:36:46Z</time>
      </trkpt>
      <trkpt lat="45.71102" lon="4.7527">
        <ele>306</ele>
        <time>2026-08-26T07:36:47Z</time>
      </trkpt>
      <trkpt lat="45.71107" lon="4.75255">
        <ele>304.6</ele>
        <time>2026-08-26T07:36:48Z</time>
      </trkpt>
      <trkpt lat="45.71111" lon="4.7524">
        <ele>303.2</ele>
        <time>2026-08-26T07:36:49Z</time>
      </trkpt>
      <trkpt lat="45.71115" lon="4.75225">
        <ele>302</ele>
        <time>2026-08-26T07:36:50Z</time>
      </trkpt>
      <trkpt lat="45.71116" lon="4.7521">
        <ele>301.2</ele>
        <time>2026-08-26T07:36:51Z</time>
      </trkpt>
      <trkpt lat="45.71116" lon="4.75196">
        <ele>300.6</ele>
        <time>2026-08-26T07:36:52Z</time>
      </trkpt>
      <trkpt lat="45.71115" lon="4.75182">
        <ele>300.4</ele>
        <time>2026-08-26T07:36:53Z</time>
      </trkpt>
      <trkpt lat="45.71113" lon="4.75166">
        <ele>300.6</ele>
        <time>2026-08-26T07:36:54Z</time>
      </trkpt>
      <trkpt lat="45.71111" lon="4.75157">
        <ele>300.8</ele>
        <time>2026-08-26T07:36:55Z</time>
      </trkpt>
      <trkpt lat="45.71108" lon="4.75144">
        <ele>301.4</ele>
        <time>2026-08-26T07:36:56Z</time>
      </trkpt>
      <trkpt lat="45.71106" lon="4.75135">
        <ele>302</ele>
        <time>2026-08-26T07:36:57Z</time>
      </trkpt>
      <trkpt lat="45.71105" lon="4.75126">
        <ele>302.8</ele>
        <time>2026-08-26T07:36:58Z</time>
      </trkpt>
      <trkpt lat="45.71104" lon="4.75119">
        <ele>303.6</ele>
        <time>2026-08-26T07:36:59Z</time>
      </trkpt>
      <trkpt lat="45.71105" lon="4.7511">
        <ele>304.6</ele>
        <time>2026-08-26T07:37:00Z</time>
      </trkpt>
      <trkpt lat="45.71105" lon="4.75104">
        <ele>305.4</ele>
        <time>2026-08-26T07:37:01Z</time>
      </trkpt>
      <trkpt lat="45.71106" lon="4.75101">
        <ele>306.2</ele>
        <time>2026-08-26T07:37:02Z</time>
      </trkpt>
      <trkpt lat="45.71107" lon="4.75096">
        <ele>307.2</ele>
        <time>2026-08-26T07:37:03Z</time>
      </trkpt>
      <trkpt lat="45.71107" lon="4.75093">
        <ele>308</ele>
        <time>2026-08-26T07:37:04Z</time>
      </trkpt>
      <trkpt lat="45.71108" lon="4.75089">
        <ele>308.6</ele>
        <time>2026-08-26T07:37:05Z</time>
      </trkpt>
      <trkpt lat="45.71108" lon="4.75086">
        <ele>309</ele>
        <time>2026-08-26T07:37:06Z</time>
      </trkpt>
      <trkpt lat="45.71108" lon="4.75082">
        <ele>309.6</ele>
        <time>2026-08-26T07:37:07Z</time>
      </trkpt>
      <trkpt lat="45.71109" lon="4.75079">
        <ele>309.8</ele>
        <time>2026-08-26T07:37:08Z</time>
      </trkpt>
      <trkpt lat="45.7111" lon="4.75076">
        <ele>310.2</ele>
        <time>2026-08-26T07:37:09Z</time>
      </trkpt>
      <trkpt lat="45.71111" lon="4.75073">
        <ele>310.4</ele>
        <time>2026-08-26T07:37:10Z</time>
      </trkpt>
      <trkpt lat="45.71112" lon="4.75071">
        <ele>310.8</ele>
        <time>2026-08-26T07:37:11Z</time>
      </trkpt>
      <trkpt lat="45.71113" lon="4.75069">
        <ele>311.2</ele>
        <time>2026-08-26T07:37:12Z</time>
      </trkpt>
      <trkpt lat="45.71114" lon="4.75066">
        <ele>311.4</ele>
        <time>2026-08-26T07:37:13Z</time>
      </trkpt>
      <trkpt lat="45.71115" lon="4.75063">
        <ele>311.8</ele>
        <time>2026-08-26T07:37:14Z</time>
      </trkpt>
      <trkpt lat="45.71116" lon="4.7506">
        <ele>312</ele>
        <time>2026-08-26T07:37:15Z</time>
      </trkpt>
      <trkpt lat="45.71118" lon="4.75057">
        <ele>312.4</ele>
        <time>2026-08-26T07:37:16Z</time>
      </trkpt>
      <trkpt lat="45.71119" lon="4.75054">
        <ele>312.6</ele>
        <time>2026-08-26T07:37:17Z</time>
      </trkpt>
      <trkpt lat="45.71121" lon="4.75051">
        <ele>312.8</ele>
        <time>2026-08-26T07:37:18Z</time>
      </trkpt>
      <trkpt lat="45.71122" lon="4.75047">
        <ele>313</ele>
        <time>2026-08-26T07:37:19Z</time>
      </trkpt>
      <trkpt lat="45.71124" lon="4.75044">
        <ele>313.4</ele>
        <time>2026-08-26T07:37:20Z</time>
      </trkpt>
      <trkpt lat="45.71125" lon="4.7504">
        <ele>313.6</ele>
        <time>2026-08-26T07:37:21Z</time>
      </trkpt>
      <trkpt lat="45.71126" lon="4.75036">
        <ele>313.8</ele>
        <time>2026-08-26T07:37:22Z</time>
      </trkpt>
      <trkpt lat="45.71127" lon="4.75033">
        <ele>314.2</ele>
        <time>2026-08-26T07:37:23Z</time>
      </trkpt>
      <trkpt lat="45.71129" lon="4.75029">
        <ele>314.4</ele>
        <time>2026-08-26T07:37:24Z</time>
      </trkpt>
      <trkpt lat="45.7113" lon="4.75025">
        <ele>314.6</ele>
        <time>2026-08-26T07:37:25Z</time>
      </trkpt>
      <trkpt lat="45.71131" lon="4.75021">
        <ele>314.8</ele>
        <time>2026-08-26T07:37:26Z</time>
      </trkpt>
      <trkpt lat="45.71131" lon="4.75017">
        <ele>315.2</ele>
        <time>2026-08-26T07:37:27Z</time>
      </trkpt>
      <trkpt lat="45.71132" lon="4.75013">
        <ele>315.4</ele>
        <time>2026-08-26T07:37:28Z</time>
      </trkpt>
      <trkpt lat="45.71133" lon="4.75009">
        <ele>315.8</ele>
        <time>2026-08-26T07:37:29Z</time>
      </trkpt>
      <trkpt lat="45.71133" lon="4.75005">
        <ele>316</ele>
        <time>2026-08-26T07:37:30Z</time>
      </trkpt>
      <trkpt lat="45.71134" lon="4.75001">
        <ele>316.2</ele>
        <time>2026-08-26T07:37:31Z</time>
      </trkpt>
      <trkpt lat="45.71134" lon="4.74997">
        <ele>316.4</ele>
        <time>2026-08-26T07:37:32Z</time>
      </trkpt>
      <trkpt lat="45.71135" lon="4.74993">
        <ele>316.6</ele>
        <time>2026-08-26T07:37:33Z</time>
      </trkpt>
      <trkpt lat="45.71136" lon="4.74989">
        <ele>316.8</ele>
        <time>2026-08-26T07:37:34Z</time>
      </trkpt>
      <trkpt lat="45.71137" lon="4.74985">
        <ele>317</ele>
        <time>2026-08-26T07:37:35Z</time>
      </trkpt>
      <trkpt lat="45.71138" lon="4.74981">
        <ele>317.2</ele>
        <time>2026-08-26T07:37:36Z</time>
      </trkpt>
      <trkpt lat="45.71138" lon="4.74977">
        <ele>317.2</ele>
        <time>2026-08-26T07:37:37Z</time>
      </trkpt>
      <trkpt lat="45.71139" lon="4.74973">
        <ele>317.4</ele>
        <time>2026-08-26T07:37:38Z</time>
      </trkpt>
      <trkpt lat="45.71141" lon="4.7497">
        <ele>317.6</ele>
        <time>2026-08-26T07:37:39Z</time>
      </trkpt>
      <trkpt lat="45.71143" lon="4.74968">
        <ele>317.8</ele>
        <time>2026-08-26T07:37:40Z</time>
      </trkpt>
      <trkpt lat="45.71146" lon="4.74966">
        <ele>318</ele>
        <time>2026-08-26T07:37:41Z</time>
      </trkpt>
      <trkpt lat="45.71149" lon="4.74964">
        <ele>318.2</ele>
        <time>2026-08-26T07:37:42Z</time>
      </trkpt>
      <trkpt lat="45.71151" lon="4.74963">
        <ele>318.2</ele>
        <time>2026-08-26T07:37:43Z</time>
      </trkpt>
      <trkpt lat="45.71154" lon="4.74961">
        <ele>318.4</ele>
        <time>2026-08-26T07:37:44Z</time>
      </trkpt>
      <trkpt lat="45.71157" lon="4.74959">
        <ele>318.4</ele>
        <time>2026-08-26T07:37:45Z</time>
      </trkpt>
      <trkpt lat="45.7116" lon="4.74958">
        <ele>318.6</ele>
        <time>2026-08-26T07:37:46Z</time>
      </trkpt>
      <trkpt lat="45.71163" lon="4.74957">
        <ele>318.6</ele>
        <time>2026-08-26T07:37:47Z</time>
      </trkpt>
      <trkpt lat="45.71166" lon="4.74956">
        <ele>318.8</ele>
        <time>2026-08-26T07:37:48Z</time>
      </trkpt>
      <trkpt lat="45.71169" lon="4.74954">
        <ele>318.8</ele>
        <time>2026-08-26T07:37:49Z</time>
      </trkpt>
      <trkpt lat="45.71172" lon="4.74952">
        <ele>319</ele>
        <time>2026-08-26T07:37:50Z</time>
      </trkpt>
      <trkpt lat="45.71176" lon="4.74951">
        <ele>319</ele>
        <time>2026-08-26T07:37:51Z</time>
      </trkpt>
      <trkpt lat="45.71179" lon="4.74949">
        <ele>319.2</ele>
        <time>2026-08-26T07:37:52Z</time>
      </trkpt>
      <trkpt lat="45.71183" lon="4.74947">
        <ele>319.4</ele>
        <time>2026-08-26T07:37:53Z</time>
      </trkpt>
      <trkpt lat="45.71186" lon="4.74945">
        <ele>319.4</ele>
        <time>2026-08-26T07:37:54Z</time>
      </trkpt>
      <trkpt lat="45.7119" lon="4.74943">
        <ele>319.6</ele>
        <time>2026-08-26T07:37:55Z</time>
      </trkpt>
      <trkpt lat="45.71193" lon="4.74941">
        <ele>319.8</ele>
        <time>2026-08-26T07:37:56Z</time>
      </trkpt>
      <trkpt lat="45.71197" lon="4.7494">
        <ele>320</ele>
        <time>2026-08-26T07:37:57Z</time>
      </trkpt>
      <trkpt lat="45.712" lon="4.74938">
        <ele>320</ele>
        <time>2026-08-26T07:37:58Z</time>
      </trkpt>
      <trkpt lat="45.71203" lon="4.74935">
        <ele>320.2</ele>
        <time>2026-08-26T07:37:59Z</time>
      </trkpt>
      <trkpt lat="45.71206" lon="4.74933">
        <ele>320.4</ele>
        <time>2026-08-26T07:38:00Z</time>
      </trkpt>
      <trkpt lat="45.71209" lon="4.74931">
        <ele>320.6</ele>
        <time>2026-08-26T07:38:01Z</time>
      </trkpt>
      <trkpt lat="45.71212" lon="4.74928">
        <ele>320.8</ele>
        <time>2026-08-26T07:38:02Z</time>
      </trkpt>
      <trkpt lat="45.71214" lon="4.74926">
        <ele>320.8</ele>
        <time>2026-08-26T07:38:03Z</time>
      </trkpt>
      <trkpt lat="45.71217" lon="4.74925">
        <ele>321</ele>
        <time>2026-08-26T07:38:04Z</time>
      </trkpt>
      <trkpt lat="45.7122" lon="4.74924">
        <ele>321</ele>
        <time>2026-08-26T07:38:05Z</time>
      </trkpt>
      <trkpt lat="45.71223" lon="4.74922">
        <ele>321.2</ele>
        <time>2026-08-26T07:38:06Z</time>
      </trkpt>
      <trkpt lat="45.71226" lon="4.74919">
        <ele>321.2</ele>
        <time>2026-08-26T07:38:07Z</time>
      </trkpt>
      <trkpt lat="45.71227" lon="4.74915">
        <ele>321.2</ele>
        <time>2026-08-26T07:38:08Z</time>
      </trkpt>
      <trkpt lat="45.71229" lon="4.7491">
        <ele>321.2</ele>
        <time>2026-08-26T07:38:09Z</time>
      </trkpt>
      <trkpt lat="45.7123" lon="4.74904">
        <ele>321</ele>
        <time>2026-08-26T07:38:10Z</time>
      </trkpt>
      <trkpt lat="45.71231" lon="4.74898">
        <ele>321</ele>
        <time>2026-08-26T07:38:11Z</time>
      </trkpt>
      <trkpt lat="45.71232" lon="4.74892">
        <ele>320.8</ele>
        <time>2026-08-26T07:38:12Z</time>
      </trkpt>
      <trkpt lat="45.71234" lon="4.74886">
        <ele>320.4</ele>
        <time>2026-08-26T07:38:13Z</time>
      </trkpt>
      <trkpt lat="45.71235" lon="4.74878">
        <ele>320</ele>
        <time>2026-08-26T07:38:14Z</time>
      </trkpt>
      <trkpt lat="45.71235" lon="4.7487">
        <ele>319.6</ele>
        <time>2026-08-26T07:38:15Z</time>
      </trkpt>
      <trkpt lat="45.71236" lon="4.74861">
        <ele>319.2</ele>
        <time>2026-08-26T07:38:16Z</time>
      </trkpt>
      <trkpt lat="45.71236" lon="4.74853">
        <ele>318.8</ele>
        <time>2026-08-26T07:38:17Z</time>
      </trkpt>
      <trkpt lat="45.71235" lon="4.74844">
        <ele>318.6</ele>
        <time>2026-08-26T07:38:18Z</time>
      </trkpt>
      <trkpt lat="45.71234" lon="4.74836">
        <ele>318.2</ele>
        <time>2026-08-26T07:38:19Z</time>
      </trkpt>
      <trkpt lat="45.71231" lon="4.74828">
        <ele>318</ele>
        <time>2026-08-26T07:38:20Z</time>
      </trkpt>
      <trkpt lat="45.71228" lon="4.7482">
        <ele>317.8</ele>
        <time>2026-08-26T07:38:21Z</time>
      </trkpt>
      <trkpt lat="45.71226" lon="4.74812">
        <ele>317.8</ele>
        <time>2026-08-26T07:38:22Z</time>
      </trkpt>
      <trkpt lat="45.71223" lon="4.74805">
        <ele>317.6</ele>
        <time>2026-08-26T07:38:23Z</time>
      </trkpt>
      <trkpt lat="45.7122" lon="4.74798">
        <ele>317.6</ele>
        <time>2026-08-26T07:38:24Z</time>
      </trkpt>
      <trkpt lat="45.71218" lon="4.7479">
        <ele>317.6</ele>
        <time>2026-08-26T07:38:25Z</time>
      </trkpt>
      <trkpt lat="45.71216" lon="4.74783">
        <ele>317.6</ele>
        <time>2026-08-26T07:38:26Z</time>
      </trkpt>
      <trkpt lat="45.71214" lon="4.74776">
        <ele>317.6</ele>
        <time>2026-08-26T07:38:27Z</time>
      </trkpt>
      <trkpt lat="45.71213" lon="4.7477">
        <ele>317.8</ele>
        <time>2026-08-26T07:38:28Z</time>
      </trkpt>
      <trkpt lat="45.71212" lon="4.74763">
        <ele>317.8</ele>
        <time>2026-08-26T07:38:29Z</time>
      </trkpt>
      <trkpt lat="45.7121" lon="4.74756">
        <ele>318</ele>
        <time>2026-08-26T07:38:30Z</time>
      </trkpt>
      <trkpt lat="45.71209" lon="4.74749">
        <ele>318.2</ele>
        <time>2026-08-26T07:38:31Z</time>
      </trkpt>
      <trkpt lat="45.71208" lon="4.74743">
        <ele>318.2</ele>
        <time>2026-08-26T07:38:32Z</time>
      </trkpt>
      <trkpt lat="45.71207" lon="4.74737">
        <ele>318.4</ele>
        <time>2026-08-26T07:38:33Z</time>
      </trkpt>
      <trkpt lat="45.71205" lon="4.7473">
        <ele>318.4</ele>
        <time>2026-08-26T07:38:34Z</time>
      </trkpt>
      <trkpt lat="45.71205" lon="4.74724">
        <ele>318.6</ele>
        <time>2026-08-26T07:38:35Z</time>
      </trkpt>
      <trkpt lat="45.71204" lon="4.74718">
        <ele>318.8</ele>
        <time>2026-08-26T07:38:36Z</time>
      </trkpt>
      <trkpt lat="45.71204" lon="4.74712">
        <ele>319</ele>
        <time>2026-08-26T07:38:37Z</time>
      </trkpt>
      <trkpt lat="45.71204" lon="4.74706">
        <ele>319.2</ele>
        <time>2026-08-26T07:38:38Z</time>
      </trkpt>
      <trkpt lat="45.71204" lon="4.747">
        <ele>319.2</ele>
        <time>2026-08-26T07:38:39Z</time>
      </trkpt>
      <trkpt lat="45.71205" lon="4.74694">
        <ele>319.2</ele>
        <time>2026-08-26T07:38:40Z</time>
      </trkpt>
      <trkpt lat="45.71205" lon="4.74689">
        <ele>319.4</ele>
        <time>2026-08-26T07:38:41Z</time>
      </trkpt>
      <trkpt lat="45.71205" lon="4.74683">
        <ele>319.4</ele>
        <time>2026-08-26T07:38:42Z</time>
      </trkpt>
      <trkpt lat="45.71205" lon="4.74677">
        <ele>319.4</ele>
        <time>2026-08-26T07:38:43Z</time>
      </trkpt>
      <trkpt lat="45.71205" lon="4.74671">
        <ele>319.6</ele>
        <time>2026-08-26T07:38:44Z</time>
      </trkpt>
      <trkpt lat="45.71205" lon="4.74665">
        <ele>319.8</ele>
        <time>2026-08-26T07:38:45Z</time>
      </trkpt>
      <trkpt lat="45.71206" lon="4.74659">
        <ele>319.8</ele>
        <time>2026-08-26T07:38:46Z</time>
      </trkpt>
      <trkpt lat="45.71206" lon="4.74653">
        <ele>320</ele>
        <time>2026-08-26T07:38:47Z</time>
      </trkpt>
      <trkpt lat="45.71206" lon="4.74646">
        <ele>320.2</ele>
        <time>2026-08-26T07:38:48Z</time>
      </trkpt>
      <trkpt lat="45.71206" lon="4.74639">
        <ele>320.4</ele>
        <time>2026-08-26T07:38:49Z</time>
      </trkpt>
      <trkpt lat="45.71206" lon="4.74633">
        <ele>320.4</ele>
        <time>2026-08-26T07:38:50Z</time>
      </trkpt>
      <trkpt lat="45.71206" lon="4.74626">
        <ele>320.4</ele>
        <time>2026-08-26T07:38:51Z</time>
      </trkpt>
      <trkpt lat="45.71206" lon="4.74619">
        <ele>320.4</ele>
        <time>2026-08-26T07:38:52Z</time>
      </trkpt>
      <trkpt lat="45.71206" lon="4.74613">
        <ele>320.4</ele>
        <time>2026-08-26T07:38:53Z</time>
      </trkpt>
      <trkpt lat="45.71206" lon="4.74606">
        <ele>320.6</ele>
        <time>2026-08-26T07:38:54Z</time>
      </trkpt>
      <trkpt lat="45.71206" lon="4.74599">
        <ele>320.6</ele>
        <time>2026-08-26T07:38:55Z</time>
      </trkpt>
      <trkpt lat="45.71207" lon="4.74593">
        <ele>320.8</ele>
        <time>2026-08-26T07:38:56Z</time>
      </trkpt>
      <trkpt lat="45.71208" lon="4.74586">
        <ele>320.8</ele>
        <time>2026-08-26T07:38:57Z</time>
      </trkpt>
      <trkpt lat="45.7121" lon="4.7458">
        <ele>321</ele>
        <time>2026-08-26T07:38:58Z</time>
      </trkpt>
      <trkpt lat="45.71211" lon="4.74574">
        <ele>321</ele>
        <time>2026-08-26T07:38:59Z</time>
      </trkpt>
      <trkpt lat="45.71212" lon="4.74568">
        <ele>321.2</ele>
        <time>2026-08-26T07:39:00Z</time>
      </trkpt>
      <trkpt lat="45.71214" lon="4.74562">
        <ele>321.2</ele>
        <time>2026-08-26T07:39:01Z</time>
      </trkpt>
      <trkpt lat="45.71215" lon="4.74556">
        <ele>321.4</ele>
        <time>2026-08-26T07:39:02Z</time>
      </trkpt>
      <trkpt lat="45.71216" lon="4.7455">
        <ele>321.6</ele>
        <time>2026-08-26T07:39:03Z</time>
      </trkpt>
      <trkpt lat="45.71218" lon="4.74544">
        <ele>321.8</ele>
        <time>2026-08-26T07:39:04Z</time>
      </trkpt>
      <trkpt lat="45.71219" lon="4.74538">
        <ele>321.8</ele>
        <time>2026-08-26T07:39:05Z</time>
      </trkpt>
      <trkpt lat="45.7122" lon="4.74531">
        <ele>322</ele>
        <time>2026-08-26T07:39:06Z</time>
      </trkpt>
      <trkpt lat="45.71221" lon="4.74525">
        <ele>322</ele>
        <time>2026-08-26T07:39:07Z</time>
      </trkpt>
      <trkpt lat="45.71221" lon="4.74518">
        <ele>322</ele>
        <time>2026-08-26T07:39:08Z</time>
      </trkpt>
      <trkpt lat="45.71222" lon="4.74511">
        <ele>322.2</ele>
        <time>2026-08-26T07:39:09Z</time>
      </trkpt>
      <trkpt lat="45.71223" lon="4.74505">
        <ele>322.2</ele>
        <time>2026-08-26T07:39:10Z</time>
      </trkpt>
      <trkpt lat="45.71224" lon="4.74498">
        <ele>322.4</ele>
        <time>2026-08-26T07:39:11Z</time>
      </trkpt>
      <trkpt lat="45.71224" lon="4.74492">
        <ele>322.6</ele>
        <time>2026-08-26T07:39:12Z</time>
      </trkpt>
      <trkpt lat="45.71225" lon="4.74485">
        <ele>322.6</ele>
        <time>2026-08-26T07:39:13Z</time>
      </trkpt>
      <trkpt lat="45.71225" lon="4.74478">
        <ele>322.8</ele>
        <time>2026-08-26T07:39:14Z</time>
      </trkpt>
      <trkpt lat="45.71225" lon="4.74471">
        <ele>322.8</ele>
        <time>2026-08-26T07:39:15Z</time>
      </trkpt>
      <trkpt lat="45.71225" lon="4.74465">
        <ele>322.6</ele>
        <time>2026-08-26T07:39:16Z</time>
      </trkpt>
      <trkpt lat="45.71226" lon="4.74458">
        <ele>322.6</ele>
        <time>2026-08-26T07:39:17Z</time>
      </trkpt>
      <trkpt lat="45.71226" lon="4.74451">
        <ele>322.6</ele>
        <time>2026-08-26T07:39:18Z</time>
      </trkpt>
      <trkpt lat="45.71226" lon="4.74443">
        <ele>322.4</ele>
        <time>2026-08-26T07:39:19Z</time>
      </trkpt>
      <trkpt lat="45.71226" lon="4.74436">
        <ele>322.2</ele>
        <time>2026-08-26T07:39:20Z</time>
      </trkpt>
      <trkpt lat="45.71227" lon="4.74428">
        <ele>322.2</ele>
        <time>2026-08-26T07:39:21Z</time>
      </trkpt>
      <trkpt lat="45.71227" lon="4.7442">
        <ele>322</ele>
        <time>2026-08-26T07:39:22Z</time>
      </trkpt>
      <trkpt lat="45.71227" lon="4.74411">
        <ele>321.6</ele>
        <time>2026-08-26T07:39:23Z</time>
      </trkpt>
      <trkpt lat="45.71227" lon="4.74403">
        <ele>321.4</ele>
        <time>2026-08-26T07:39:24Z</time>
      </trkpt>
      <trkpt lat="45.71226" lon="4.74394">
        <ele>321</ele>
        <time>2026-08-26T07:39:25Z</time>
      </trkpt>
      <trkpt lat="45.71225" lon="4.74385">
        <ele>320.6</ele>
        <time>2026-08-26T07:39:26Z</time>
      </trkpt>
      <trkpt lat="45.71224" lon="4.74376">
        <ele>320.2</ele>
        <time>2026-08-26T07:39:27Z</time>
      </trkpt>
      <trkpt lat="45.71222" lon="4.74367">
        <ele>319.8</ele>
        <time>2026-08-26T07:39:28Z</time>
      </trkpt>
      <trkpt lat="45.7122" lon="4.74357">
        <ele>319.4</ele>
        <time>2026-08-26T07:39:29Z</time>
      </trkpt>
      <trkpt lat="45.71218" lon="4.74348">
        <ele>319.2</ele>
        <time>2026-08-26T07:39:30Z</time>
      </trkpt>
      <trkpt lat="45.71217" lon="4.74339">
        <ele>319</ele>
        <time>2026-08-26T07:39:31Z</time>
      </trkpt>
      <trkpt lat="45.71214" lon="4.7433">
        <ele>318.6</ele>
        <time>2026-08-26T07:39:32Z</time>
      </trkpt>
      <trkpt lat="45.71212" lon="4.74321">
        <ele>318.2</ele>
        <time>2026-08-26T07:39:33Z</time>
      </trkpt>
      <trkpt lat="45.7121" lon="4.74312">
        <ele>318</ele>
        <time>2026-08-26T07:39:34Z</time>
      </trkpt>
      <trkpt lat="45.71208" lon="4.74303">
        <ele>317.8</ele>
        <time>2026-08-26T07:39:35Z</time>
      </trkpt>
      <trkpt lat="45.71206" lon="4.74295">
        <ele>317.6</ele>
        <time>2026-08-26T07:39:36Z</time>
      </trkpt>
      <trkpt lat="45.71203" lon="4.74285">
        <ele>317.4</ele>
        <time>2026-08-26T07:39:37Z</time>
      </trkpt>
      <trkpt lat="45.71201" lon="4.74277">
        <ele>317.2</ele>
        <time>2026-08-26T07:39:38Z</time>
      </trkpt>
      <trkpt lat="45.71199" lon="4.74269">
        <ele>317.2</ele>
        <time>2026-08-26T07:39:39Z</time>
      </trkpt>
      <trkpt lat="45.71196" lon="4.7426">
        <ele>317.2</ele>
        <time>2026-08-26T07:39:40Z</time>
      </trkpt>
      <trkpt lat="45.71194" lon="4.74252">
        <ele>317.4</ele>
        <time>2026-08-26T07:39:41Z</time>
      </trkpt>
      <trkpt lat="45.71192" lon="4.74245">
        <ele>317.8</ele>
        <time>2026-08-26T07:39:42Z</time>
      </trkpt>
      <trkpt lat="45.71191" lon="4.74237">
        <ele>318</ele>
        <time>2026-08-26T07:39:43Z</time>
      </trkpt>
      <trkpt lat="45.7119" lon="4.74229">
        <ele>318.2</ele>
        <time>2026-08-26T07:39:44Z</time>
      </trkpt>
      <trkpt lat="45.71188" lon="4.74221">
        <ele>318.4</ele>
        <time>2026-08-26T07:39:45Z</time>
      </trkpt>
      <trkpt lat="45.71187" lon="4.74214">
        <ele>318.6</ele>
        <time>2026-08-26T07:39:46Z</time>
      </trkpt>
      <trkpt lat="45.71186" lon="4.74206">
        <ele>318.6</ele>
        <time>2026-08-26T07:39:47Z</time>
      </trkpt>
      <trkpt lat="45.71185" lon="4.74199">
        <ele>318.6</ele>
        <time>2026-08-26T07:39:48Z</time>
      </trkpt>
      <trkpt lat="45.71184" lon="4.74193">
        <ele>318.8</ele>
        <time>2026-08-26T07:39:49Z</time>
      </trkpt>
      <trkpt lat="45.71183" lon="4.74186">
        <ele>319</ele>
        <time>2026-08-26T07:39:50Z</time>
      </trkpt>
      <trkpt lat="45.71183" lon="4.74179">
        <ele>319</ele>
        <time>2026-08-26T07:39:51Z</time>
      </trkpt>
      <trkpt lat="45.71181" lon="4.74172">
        <ele>319.2</ele>
        <time>2026-08-26T07:39:52Z</time>
      </trkpt>
      <trkpt lat="45.7118" lon="4.74165">
        <ele>319.4</ele>
        <time>2026-08-26T07:39:53Z</time>
      </trkpt>
      <trkpt lat="45.71178" lon="4.74158">
        <ele>319.6</ele>
        <time>2026-08-26T07:39:54Z</time>
      </trkpt>
      <trkpt lat="45.71177" lon="4.74151">
        <ele>319.8</ele>
        <time>2026-08-26T07:39:55Z</time>
      </trkpt>
      <trkpt lat="45.71175" lon="4.74144">
        <ele>319.8</ele>
        <time>2026-08-26T07:39:56Z</time>
      </trkpt>
      <trkpt lat="45.71174" lon="4.74137">
        <ele>320.2</ele>
        <time>2026-08-26T07:39:57Z</time>
      </trkpt>
      <trkpt lat="45.71172" lon="4.7413">
        <ele>320.2</ele>
        <time>2026-08-26T07:39:58Z</time>
      </trkpt>
      <trkpt lat="45.71171" lon="4.74123">
        <ele>320.4</ele>
        <time>2026-08-26T07:39:59Z</time>
      </trkpt>
      <trkpt lat="45.7117" lon="4.74116">
        <ele>320.6</ele>
        <time>2026-08-26T07:40:00Z</time>
      </trkpt>
      <trkpt lat="45.71169" lon="4.7411">
        <ele>320.6</ele>
        <time>2026-08-26T07:40:01Z</time>
      </trkpt>
      <trkpt lat="45.71168" lon="4.74103">
        <ele>320.8</ele>
        <time>2026-08-26T07:40:02Z</time>
      </trkpt>
      <trkpt lat="45.71167" lon="4.74097">
        <ele>321</ele>
        <time>2026-08-26T07:40:03Z</time>
      </trkpt>
      <trkpt lat="45.71166" lon="4.7409">
        <ele>321.2</ele>
        <time>2026-08-26T07:40:04Z</time>
      </trkpt>
      <trkpt lat="45.71165" lon="4.74084">
        <ele>321.2</ele>
        <time>2026-08-26T07:40:05Z</time>
      </trkpt>
      <trkpt lat="45.71164" lon="4.74077">
        <ele>321.4</ele>
        <time>2026-08-26T07:40:06Z</time>
      </trkpt>
      <trkpt lat="45.71164" lon="4.74071">
        <ele>321.6</ele>
        <time>2026-08-26T07:40:07Z</time>
      </trkpt>
      <trkpt lat="45.71164" lon="4.74064">
        <ele>321.8</ele>
        <time>2026-08-26T07:40:08Z</time>
      </trkpt>
      <trkpt lat="45.71164" lon="4.74058">
        <ele>322.2</ele>
        <time>2026-08-26T07:40:09Z</time>
      </trkpt>
      <trkpt lat="45.71165" lon="4.74052">
        <ele>322.4</ele>
        <time>2026-08-26T07:40:10Z</time>
      </trkpt>
      <trkpt lat="45.71166" lon="4.74045">
        <ele>322.6</ele>
        <time>2026-08-26T07:40:11Z</time>
      </trkpt>
      <trkpt lat="45.71167" lon="4.74038">
        <ele>322.6</ele>
        <time>2026-08-26T07:40:12Z</time>
      </trkpt>
      <trkpt lat="45.71167" lon="4.74031">
        <ele>322.8</ele>
        <time>2026-08-26T07:40:13Z</time>
      </trkpt>
      <trkpt lat="45.71168" lon="4.74025">
        <ele>322.8</ele>
        <time>2026-08-26T07:40:14Z</time>
      </trkpt>
      <trkpt lat="45.71169" lon="4.74018">
        <ele>322.8</ele>
        <time>2026-08-26T07:40:15Z</time>
      </trkpt>
      <trkpt lat="45.71169" lon="4.74012">
        <ele>322.8</ele>
        <time>2026-08-26T07:40:16Z</time>
      </trkpt>
      <trkpt lat="45.7117" lon="4.74005">
        <ele>322.8</ele>
        <time>2026-08-26T07:40:17Z</time>
      </trkpt>
      <trkpt lat="45.71171" lon="4.73999">
        <ele>323</ele>
        <time>2026-08-26T07:40:18Z</time>
      </trkpt>
      <trkpt lat="45.71172" lon="4.73993">
        <ele>323</ele>
        <time>2026-08-26T07:40:19Z</time>
      </trkpt>
      <trkpt lat="45.71173" lon="4.73987">
        <ele>323</ele>
        <time>2026-08-26T07:40:20Z</time>
      </trkpt>
      <trkpt lat="45.71173" lon="4.7398">
        <ele>323</ele>
        <time>2026-08-26T07:40:21Z</time>
      </trkpt>
      <trkpt lat="45.71174" lon="4.73975">
        <ele>323</ele>
        <time>2026-08-26T07:40:22Z</time>
      </trkpt>
      <trkpt lat="45.71175" lon="4.73969">
        <ele>323</ele>
        <time>2026-08-26T07:40:23Z</time>
      </trkpt>
      <trkpt lat="45.71175" lon="4.73964">
        <ele>323</ele>
        <time>2026-08-26T07:40:24Z</time>
      </trkpt>
      <trkpt lat="45.71174" lon="4.73959">
        <ele>323</ele>
        <time>2026-08-26T07:40:25Z</time>
      </trkpt>
      <trkpt lat="45.71172" lon="4.73955">
        <ele>322.8</ele>
        <time>2026-08-26T07:40:26Z</time>
      </trkpt>
      <trkpt lat="45.71168" lon="4.73951">
        <ele>322.8</ele>
        <time>2026-08-26T07:40:27Z</time>
      </trkpt>
      <trkpt lat="45.71164" lon="4.73947">
        <ele>322.6</ele>
        <time>2026-08-26T07:40:28Z</time>
      </trkpt>
      <trkpt lat="45.7116" lon="4.73943">
        <ele>322.4</ele>
        <time>2026-08-26T07:40:29Z</time>
      </trkpt>
      <trkpt lat="45.71155" lon="4.7394">
        <ele>322.4</ele>
        <time>2026-08-26T07:40:30Z</time>
      </trkpt>
      <trkpt lat="45.71151" lon="4.73936">
        <ele>322.4</ele>
        <time>2026-08-26T07:40:31Z</time>
      </trkpt>
      <trkpt lat="45.71146" lon="4.73932">
        <ele>322.2</ele>
        <time>2026-08-26T07:40:32Z</time>
      </trkpt>
      <trkpt lat="45.71142" lon="4.73929">
        <ele>322.2</ele>
        <time>2026-08-26T07:40:33Z</time>
      </trkpt>
      <trkpt lat="45.71138" lon="4.73925">
        <ele>322.2</ele>
        <time>2026-08-26T07:40:34Z</time>
      </trkpt>
      <trkpt lat="45.71134" lon="4.73922">
        <ele>322.2</ele>
        <time>2026-08-26T07:40:35Z</time>
      </trkpt>
      <trkpt lat="45.71131" lon="4.73918">
        <ele>322.2</ele>
        <time>2026-08-26T07:40:36Z</time>
      </trkpt>
      <trkpt lat="45.71127" lon="4.73914">
        <ele>322.2</ele>
        <time>2026-08-26T07:40:37Z</time>
      </trkpt>
      <trkpt lat="45.71123" lon="4.7391">
        <ele>322.2</ele>
        <time>2026-08-26T07:40:38Z</time>
      </trkpt>
      <trkpt lat="45.71119" lon="4.73907">
        <ele>322</ele>
        <time>2026-08-26T07:40:39Z</time>
      </trkpt>
      <trkpt lat="45.71114" lon="4.73903">
        <ele>321.8</ele>
        <time>2026-08-26T07:40:40Z</time>
      </trkpt>
      <trkpt lat="45.71109" lon="4.73901">
        <ele>321.6</ele>
        <time>2026-08-26T07:40:41Z</time>
      </trkpt>
      <trkpt lat="45.71104" lon="4.73899">
        <ele>321.4</ele>
        <time>2026-08-26T07:40:42Z</time>
      </trkpt>
      <trkpt lat="45.71099" lon="4.73896">
        <ele>321.2</ele>
        <time>2026-08-26T07:40:43Z</time>
      </trkpt>
      <trkpt lat="45.71095" lon="4.73893">
        <ele>321</ele>
        <time>2026-08-26T07:40:44Z</time>
      </trkpt>
      <trkpt lat="45.71092" lon="4.73888">
        <ele>321</ele>
        <time>2026-08-26T07:40:45Z</time>
      </trkpt>
      <trkpt lat="45.71089" lon="4.73882">
        <ele>321</ele>
        <time>2026-08-26T07:40:46Z</time>
      </trkpt>
      <trkpt lat="45.71086" lon="4.73876">
        <ele>321</ele>
        <time>2026-08-26T07:40:47Z</time>
      </trkpt>
      <trkpt lat="45.71084" lon="4.7387">
        <ele>320.8</ele>
        <time>2026-08-26T07:40:48Z</time>
      </trkpt>
      <trkpt lat="45.7108" lon="4.73866">
        <ele>320.6</ele>
        <time>2026-08-26T07:40:49Z</time>
      </trkpt>
      <trkpt lat="45.71075" lon="4.73863">
        <ele>320.6</ele>
        <time>2026-08-26T07:40:50Z</time>
      </trkpt>
      <trkpt lat="45.7107" lon="4.73861">
        <ele>320.2</ele>
        <time>2026-08-26T07:40:51Z</time>
      </trkpt>
      <trkpt lat="45.71065" lon="4.73858">
        <ele>320</ele>
        <time>2026-08-26T07:40:52Z</time>
      </trkpt>
      <trkpt lat="45.7106" lon="4.73854">
        <ele>319.8</ele>
        <time>2026-08-26T07:40:53Z</time>
      </trkpt>
      <trkpt lat="45.71055" lon="4.7385">
        <ele>319.8</ele>
        <time>2026-08-26T07:40:54Z</time>
      </trkpt>
      <trkpt lat="45.7105" lon="4.73846">
        <ele>319.6</ele>
        <time>2026-08-26T07:40:55Z</time>
      </trkpt>
      <trkpt lat="45.71045" lon="4.73841">
        <ele>319.4</ele>
        <time>2026-08-26T07:40:56Z</time>
      </trkpt>
      <trkpt lat="45.7104" lon="4.73836">
        <ele>319.2</ele>
        <time>2026-08-26T07:40:57Z</time>
      </trkpt>
      <trkpt lat="45.71035" lon="4.7383">
        <ele>319</ele>
        <time>2026-08-26T07:40:58Z</time>
      </trkpt>
      <trkpt lat="45.7103" lon="4.73825">
        <ele>318.8</ele>
        <time>2026-08-26T07:40:59Z</time>
      </trkpt>
      <trkpt lat="45.71025" lon="4.7382">
        <ele>318.6</ele>
        <time>2026-08-26T07:41:00Z</time>
      </trkpt>
      <trkpt lat="45.7102" lon="4.73814">
        <ele>318.4</ele>
        <time>2026-08-26T07:41:01Z</time>
      </trkpt>
      <trkpt lat="45.71015" lon="4.73808">
        <ele>318.2</ele>
        <time>2026-08-26T07:41:02Z</time>
      </trkpt>
      <trkpt lat="45.7101" lon="4.73803">
        <ele>318</ele>
        <time>2026-08-26T07:41:03Z</time>
      </trkpt>
      <trkpt lat="45.71005" lon="4.73797">
        <ele>317.8</ele>
        <time>2026-08-26T07:41:04Z</time>
      </trkpt>
      <trkpt lat="45.71" lon="4.73791">
        <ele>317.8</ele>
        <time>2026-08-26T07:41:05Z</time>
      </trkpt>
      <trkpt lat="45.70994" lon="4.73785">
        <ele>317.6</ele>
        <time>2026-08-26T07:41:06Z</time>
      </trkpt>
      <trkpt lat="45.70989" lon="4.73778">
        <ele>317.4</ele>
        <time>2026-08-26T07:41:07Z</time>
      </trkpt>
      <trkpt lat="45.70984" lon="4.73772">
        <ele>317.2</ele>
        <time>2026-08-26T07:41:08Z</time>
      </trkpt>
      <trkpt lat="45.70979" lon="4.73765">
        <ele>316.8</ele>
        <time>2026-08-26T07:41:09Z</time>
      </trkpt>
      <trkpt lat="45.70973" lon="4.73759">
        <ele>316.6</ele>
        <time>2026-08-26T07:41:10Z</time>
      </trkpt>
      <trkpt lat="45.70968" lon="4.73752">
        <ele>316.4</ele>
        <time>2026-08-26T07:41:11Z</time>
      </trkpt>
      <trkpt lat="45.70962" lon="4.73746">
        <ele>316.4</ele>
        <time>2026-08-26T07:41:12Z</time>
      </trkpt>
      <trkpt lat="45.70957" lon="4.73739">
        <ele>316.2</ele>
        <time>2026-08-26T07:41:13Z</time>
      </trkpt>
      <trkpt lat="45.70952" lon="4.73733">
        <ele>316</ele>
        <time>2026-08-26T07:41:14Z</time>
      </trkpt>
      <trkpt lat="45.70946" lon="4.73726">
        <ele>316</ele>
        <time>2026-08-26T07:41:15Z</time>
      </trkpt>
      <trkpt lat="45.70941" lon="4.7372">
        <ele>315.8</ele>
        <time>2026-08-26T07:41:16Z</time>
      </trkpt>
      <trkpt lat="45.70935" lon="4.73713">
        <ele>315.4</ele>
        <time>2026-08-26T07:41:17Z</time>
      </trkpt>
      <trkpt lat="45.7093" lon="4.73707">
        <ele>315.2</ele>
        <time>2026-08-26T07:41:18Z</time>
      </trkpt>
      <trkpt lat="45.70924" lon="4.73701">
        <ele>315</ele>
        <time>2026-08-26T07:41:19Z</time>
      </trkpt>
      <trkpt lat="45.70919" lon="4.73694">
        <ele>315</ele>
        <time>2026-08-26T07:41:20Z</time>
      </trkpt>
      <trkpt lat="45.70913" lon="4.73688">
        <ele>314.8</ele>
        <time>2026-08-26T07:41:21Z</time>
      </trkpt>
      <trkpt lat="45.70907" lon="4.73683">
        <ele>314.8</ele>
        <time>2026-08-26T07:41:22Z</time>
      </trkpt>
      <trkpt lat="45.70901" lon="4.73679">
        <ele>314.8</ele>
        <time>2026-08-26T07:41:23Z</time>
      </trkpt>
      <trkpt lat="45.70895" lon="4.73675">
        <ele>314.8</ele>
        <time>2026-08-26T07:41:24Z</time>
      </trkpt>
      <trkpt lat="45.7089" lon="4.73671">
        <ele>314.8</ele>
        <time>2026-08-26T07:41:25Z</time>
      </trkpt>
      <trkpt lat="45.70885" lon="4.73665">
        <ele>314.8</ele>
        <time>2026-08-26T07:41:26Z</time>
      </trkpt>
      <trkpt lat="45.70881" lon="4.73658">
        <ele>314.8</ele>
        <time>2026-08-26T07:41:27Z</time>
      </trkpt>
      <trkpt lat="45.70877" lon="4.73652">
        <ele>314.6</ele>
        <time>2026-08-26T07:41:28Z</time>
      </trkpt>
      <trkpt lat="45.70872" lon="4.73646">
        <ele>314.6</ele>
        <time>2026-08-26T07:41:29Z</time>
      </trkpt>
      <trkpt lat="45.70868" lon="4.7364">
        <ele>314.8</ele>
        <time>2026-08-26T07:41:30Z</time>
      </trkpt>
      <trkpt lat="45.70863" lon="4.73634">
        <ele>314.8</ele>
        <time>2026-08-26T07:41:31Z</time>
      </trkpt>
      <trkpt lat="45.70858" lon="4.73629">
        <ele>314.8</ele>
        <time>2026-08-26T07:41:32Z</time>
      </trkpt>
      <trkpt lat="45.70853" lon="4.73624">
        <ele>314.8</ele>
        <time>2026-08-26T07:41:33Z</time>
      </trkpt>
      <trkpt lat="45.70848" lon="4.73618">
        <ele>314.8</ele>
        <time>2026-08-26T07:41:34Z</time>
      </trkpt>
      <trkpt lat="45.70843" lon="4.73613">
        <ele>314.8</ele>
        <time>2026-08-26T07:41:35Z</time>
      </trkpt>
      <trkpt lat="45.70838" lon="4.73608">
        <ele>314.8</ele>
        <time>2026-08-26T07:41:36Z</time>
      </trkpt>
      <trkpt lat="45.70832" lon="4.73603">
        <ele>314.6</ele>
        <time>2026-08-26T07:41:37Z</time>
      </trkpt>
      <trkpt lat="45.70827" lon="4.73598">
        <ele>314.6</ele>
        <time>2026-08-26T07:41:38Z</time>
      </trkpt>
      <trkpt lat="45.70822" lon="4.73593">
        <ele>314.6</ele>
        <time>2026-08-26T07:41:39Z</time>
      </trkpt>
      <trkpt lat="45.70817" lon="4.73588">
        <ele>314.6</ele>
        <time>2026-08-26T07:41:40Z</time>
      </trkpt>
      <trkpt lat="45.70812" lon="4.73583">
        <ele>314.6</ele>
        <time>2026-08-26T07:41:41Z</time>
      </trkpt>
      <trkpt lat="45.70807" lon="4.73578">
        <ele>314.8</ele>
        <time>2026-08-26T07:41:42Z</time>
      </trkpt>
      <trkpt lat="45.70802" lon="4.73573">
        <ele>315</ele>
        <time>2026-08-26T07:41:43Z</time>
      </trkpt>
      <trkpt lat="45.70797" lon="4.73568">
        <ele>315</ele>
        <time>2026-08-26T07:41:44Z</time>
      </trkpt>
      <trkpt lat="45.70792" lon="4.73563">
        <ele>315</ele>
        <time>2026-08-26T07:41:45Z</time>
      </trkpt>
      <trkpt lat="45.70787" lon="4.73558">
        <ele>315</ele>
        <time>2026-08-26T07:41:46Z</time>
      </trkpt>
      <trkpt lat="45.70782" lon="4.73553">
        <ele>315</ele>
        <time>2026-08-26T07:41:47Z</time>
      </trkpt>
      <trkpt lat="45.70777" lon="4.73549">
        <ele>315</ele>
        <time>2026-08-26T07:41:48Z</time>
      </trkpt>
      <trkpt lat="45.70772" lon="4.73544">
        <ele>314.8</ele>
        <time>2026-08-26T07:41:49Z</time>
      </trkpt>
      <trkpt lat="45.70767" lon="4.73539">
        <ele>314.8</ele>
        <time>2026-08-26T07:41:50Z</time>
      </trkpt>
      <trkpt lat="45.70762" lon="4.73534">
        <ele>314.8</ele>
        <time>2026-08-26T07:41:51Z</time>
      </trkpt>
      <trkpt lat="45.70757" lon="4.73529">
        <ele>314.6</ele>
        <time>2026-08-26T07:41:52Z</time>
      </trkpt>
      <trkpt lat="45.70752" lon="4.73523">
        <ele>314.4</ele>
        <time>2026-08-26T07:41:53Z</time>
      </trkpt>
      <trkpt lat="45.70747" lon="4.73518">
        <ele>314.4</ele>
        <time>2026-08-26T07:41:54Z</time>
      </trkpt>
      <trkpt lat="45.70742" lon="4.73512">
        <ele>314.2</ele>
        <time>2026-08-26T07:41:55Z</time>
      </trkpt>
      <trkpt lat="45.70737" lon="4.73507">
        <ele>314</ele>
        <time>2026-08-26T07:41:56Z</time>
      </trkpt>
      <trkpt lat="45.70732" lon="4.73501">
        <ele>314</ele>
        <time>2026-08-26T07:41:57Z</time>
      </trkpt>
      <trkpt lat="45.70726" lon="4.73496">
        <ele>313.8</ele>
        <time>2026-08-26T07:41:58Z</time>
      </trkpt>
      <trkpt lat="45.70721" lon="4.73491">
        <ele>313.6</ele>
        <time>2026-08-26T07:41:59Z</time>
      </trkpt>
      <trkpt lat="45.70716" lon="4.73486">
        <ele>313.6</ele>
        <time>2026-08-26T07:42:00Z</time>
      </trkpt>
      <trkpt lat="45.70711" lon="4.73481">
        <ele>313.6</ele>
        <time>2026-08-26T07:42:01Z</time>
      </trkpt>
      <trkpt lat="45.70705" lon="4.73476">
        <ele>313.8</ele>
        <time>2026-08-26T07:42:02Z</time>
      </trkpt>
      <trkpt lat="45.707" lon="4.73471">
        <ele>313.6</ele>
        <time>2026-08-26T07:42:03Z</time>
      </trkpt>
      <trkpt lat="45.70695" lon="4.73465">
        <ele>313.6</ele>
        <time>2026-08-26T07:42:04Z</time>
      </trkpt>
      <trkpt lat="45.7069" lon="4.73459">
        <ele>313.6</ele>
        <time>2026-08-26T07:42:05Z</time>
      </trkpt>
      <trkpt lat="45.70686" lon="4.73454">
        <ele>313.4</ele>
        <time>2026-08-26T07:42:06Z</time>
      </trkpt>
      <trkpt lat="45.70681" lon="4.73448">
        <ele>313.4</ele>
        <time>2026-08-26T07:42:07Z</time>
      </trkpt>
      <trkpt lat="45.70676" lon="4.73442">
        <ele>313.2</ele>
        <time>2026-08-26T07:42:08Z</time>
      </trkpt>
      <trkpt lat="45.70671" lon="4.73436">
        <ele>313</ele>
        <time>2026-08-26T07:42:09Z</time>
      </trkpt>
      <trkpt lat="45.70667" lon="4.7343">
        <ele>312.8</ele>
        <time>2026-08-26T07:42:10Z</time>
      </trkpt>
      <trkpt lat="45.70662" lon="4.73423">
        <ele>312.8</ele>
        <time>2026-08-26T07:42:11Z</time>
      </trkpt>
      <trkpt lat="45.70657" lon="4.73417">
        <ele>312.6</ele>
        <time>2026-08-26T07:42:12Z</time>
      </trkpt>
      <trkpt lat="45.70653" lon="4.73411">
        <ele>312.4</ele>
        <time>2026-08-26T07:42:13Z</time>
      </trkpt>
      <trkpt lat="45.70648" lon="4.73404">
        <ele>312.2</ele>
        <time>2026-08-26T07:42:14Z</time>
      </trkpt>
      <trkpt lat="45.70644" lon="4.73398">
        <ele>312</ele>
        <time>2026-08-26T07:42:15Z</time>
      </trkpt>
      <trkpt lat="45.70639" lon="4.73391">
        <ele>311.8</ele>
        <time>2026-08-26T07:42:16Z</time>
      </trkpt>
      <trkpt lat="45.70634" lon="4.73385">
        <ele>311.8</ele>
        <time>2026-08-26T07:42:17Z</time>
      </trkpt>
      <trkpt lat="45.7063" lon="4.73378">
        <ele>311.6</ele>
        <time>2026-08-26T07:42:18Z</time>
      </trkpt>
      <trkpt lat="45.70625" lon="4.73371">
        <ele>311.4</ele>
        <time>2026-08-26T07:42:19Z</time>
      </trkpt>
      <trkpt lat="45.70621" lon="4.73364">
        <ele>311.4</ele>
        <time>2026-08-26T07:42:20Z</time>
      </trkpt>
      <trkpt lat="45.70617" lon="4.73357">
        <ele>311.2</ele>
        <time>2026-08-26T07:42:21Z</time>
      </trkpt>
      <trkpt lat="45.70613" lon="4.7335">
        <ele>311</ele>
        <time>2026-08-26T07:42:22Z</time>
      </trkpt>
      <trkpt lat="45.70609" lon="4.73343">
        <ele>311</ele>
        <time>2026-08-26T07:42:23Z</time>
      </trkpt>
      <trkpt lat="45.70604" lon="4.73336">
        <ele>310.8</ele>
        <time>2026-08-26T07:42:24Z</time>
      </trkpt>
      <trkpt lat="45.70599" lon="4.73329">
        <ele>310.8</ele>
        <time>2026-08-26T07:42:25Z</time>
      </trkpt>
      <trkpt lat="45.70594" lon="4.73322">
        <ele>310.8</ele>
        <time>2026-08-26T07:42:26Z</time>
      </trkpt>
      <trkpt lat="45.7059" lon="4.73315">
        <ele>310.8</ele>
        <time>2026-08-26T07:42:27Z</time>
      </trkpt>
      <trkpt lat="45.70585" lon="4.73309">
        <ele>310.8</ele>
        <time>2026-08-26T07:42:28Z</time>
      </trkpt>
      <trkpt lat="45.7058" lon="4.73303">
        <ele>310.8</ele>
        <time>2026-08-26T07:42:29Z</time>
      </trkpt>
      <trkpt lat="45.70575" lon="4.73297">
        <ele>310.6</ele>
        <time>2026-08-26T07:42:30Z</time>
      </trkpt>
      <trkpt lat="45.7057" lon="4.73291">
        <ele>310.6</ele>
        <time>2026-08-26T07:42:31Z</time>
      </trkpt>
      <trkpt lat="45.70565" lon="4.73286">
        <ele>310.6</ele>
        <time>2026-08-26T07:42:32Z</time>
      </trkpt>
      <trkpt lat="45.70559" lon="4.73281">
        <ele>310.6</ele>
        <time>2026-08-26T07:42:33Z</time>
      </trkpt>
      <trkpt lat="45.70554" lon="4.73276">
        <ele>310.4</ele>
        <time>2026-08-26T07:42:34Z</time>
      </trkpt>
      <trkpt lat="45.70549" lon="4.73271">
        <ele>310.6</ele>
        <time>2026-08-26T07:42:35Z</time>
      </trkpt>
      <trkpt lat="45.70543" lon="4.73267">
        <ele>310.6</ele>
        <time>2026-08-26T07:42:36Z</time>
      </trkpt>
      <trkpt lat="45.70538" lon="4.73262">
        <ele>310.4</ele>
        <time>2026-08-26T07:42:37Z</time>
      </trkpt>
      <trkpt lat="45.70532" lon="4.73258">
        <ele>310.4</ele>
        <time>2026-08-26T07:42:38Z</time>
      </trkpt>
      <trkpt lat="45.70526" lon="4.73254">
        <ele>310.6</ele>
        <time>2026-08-26T07:42:39Z</time>
      </trkpt>
      <trkpt lat="45.70521" lon="4.73249">
        <ele>310.6</ele>
        <time>2026-08-26T07:42:40Z</time>
      </trkpt>
      <trkpt lat="45.70515" lon="4.73245">
        <ele>310.4</ele>
        <time>2026-08-26T07:42:41Z</time>
      </trkpt>
      <trkpt lat="45.70509" lon="4.73241">
        <ele>310.6</ele>
        <time>2026-08-26T07:42:42Z</time>
      </trkpt>
      <trkpt lat="45.70503" lon="4.73237">
        <ele>310.6</ele>
        <time>2026-08-26T07:42:43Z</time>
      </trkpt>
      <trkpt lat="45.70498" lon="4.73234">
        <ele>310.6</ele>
        <time>2026-08-26T07:42:44Z</time>
      </trkpt>
      <trkpt lat="45.70492" lon="4.7323">
        <ele>310.8</ele>
        <time>2026-08-26T07:42:45Z</time>
      </trkpt>
      <trkpt lat="45.70487" lon="4.73227">
        <ele>310.8</ele>
        <time>2026-08-26T07:42:46Z</time>
      </trkpt>
      <trkpt lat="45.70481" lon="4.73223">
        <ele>310.8</ele>
        <time>2026-08-26T07:42:47Z</time>
      </trkpt>
      <trkpt lat="45.70476" lon="4.73219">
        <ele>310.8</ele>
        <time>2026-08-26T07:42:48Z</time>
      </trkpt>
      <trkpt lat="45.70471" lon="4.73215">
        <ele>311</ele>
        <time>2026-08-26T07:42:49Z</time>
      </trkpt>
      <trkpt lat="45.70466" lon="4.73212">
        <ele>311</ele>
        <time>2026-08-26T07:42:50Z</time>
      </trkpt>
      <trkpt lat="45.7046" lon="4.73208">
        <ele>311.2</ele>
        <time>2026-08-26T07:42:51Z</time>
      </trkpt>
      <trkpt lat="45.70455" lon="4.73205">
        <ele>311.2</ele>
        <time>2026-08-26T07:42:52Z</time>
      </trkpt>
      <trkpt lat="45.7045" lon="4.73201">
        <ele>311.4</ele>
        <time>2026-08-26T07:42:53Z</time>
      </trkpt>
      <trkpt lat="45.70445" lon="4.73198">
        <ele>311.4</ele>
        <time>2026-08-26T07:42:54Z</time>
      </trkpt>
      <trkpt lat="45.70439" lon="4.73194">
        <ele>311.4</ele>
        <time>2026-08-26T07:42:55Z</time>
      </trkpt>
      <trkpt lat="45.70434" lon="4.73191">
        <ele>311.4</ele>
        <time>2026-08-26T07:42:56Z</time>
      </trkpt>
      <trkpt lat="45.70429" lon="4.73187">
        <ele>311.6</ele>
        <time>2026-08-26T07:42:57Z</time>
      </trkpt>
      <trkpt lat="45.70424" lon="4.73183">
        <ele>311.4</ele>
        <time>2026-08-26T07:42:58Z</time>
      </trkpt>
      <trkpt lat="45.70418" lon="4.73179">
        <ele>311.4</ele>
        <time>2026-08-26T07:42:59Z</time>
      </trkpt>
      <trkpt lat="45.70413" lon="4.73176">
        <ele>311.4</ele>
        <time>2026-08-26T07:43:00Z</time>
      </trkpt>
      <trkpt lat="45.70408" lon="4.73172">
        <ele>311.4</ele>
        <time>2026-08-26T07:43:01Z</time>
      </trkpt>
      <trkpt lat="45.70403" lon="4.73169">
        <ele>311.4</ele>
        <time>2026-08-26T07:43:02Z</time>
      </trkpt>
      <trkpt lat="45.70398" lon="4.73165">
        <ele>311.4</ele>
        <time>2026-08-26T07:43:03Z</time>
      </trkpt>
      <trkpt lat="45.70393" lon="4.73161">
        <ele>311.4</ele>
        <time>2026-08-26T07:43:04Z</time>
      </trkpt>
      <trkpt lat="45.70388" lon="4.73157">
        <ele>311.4</ele>
        <time>2026-08-26T07:43:05Z</time>
      </trkpt>
      <trkpt lat="45.70383" lon="4.73153">
        <ele>311.2</ele>
        <time>2026-08-26T07:43:06Z</time>
      </trkpt>
      <trkpt lat="45.70378" lon="4.73149">
        <ele>311.2</ele>
        <time>2026-08-26T07:43:07Z</time>
      </trkpt>
      <trkpt lat="45.70373" lon="4.73144">
        <ele>311.2</ele>
        <time>2026-08-26T07:43:08Z</time>
      </trkpt>
      <trkpt lat="45.70369" lon="4.73139">
        <ele>311.2</ele>
        <time>2026-08-26T07:43:09Z</time>
      </trkpt>
      <trkpt lat="45.70364" lon="4.73134">
        <ele>311.2</ele>
        <time>2026-08-26T07:43:10Z</time>
      </trkpt>
      <trkpt lat="45.70359" lon="4.7313">
        <ele>311.2</ele>
        <time>2026-08-26T07:43:11Z</time>
      </trkpt>
      <trkpt lat="45.70355" lon="4.73125">
        <ele>311.2</ele>
        <time>2026-08-26T07:43:12Z</time>
      </trkpt>
      <trkpt lat="45.70351" lon="4.7312">
        <ele>311.2</ele>
        <time>2026-08-26T07:43:13Z</time>
      </trkpt>
      <trkpt lat="45.70348" lon="4.73114">
        <ele>311</ele>
        <time>2026-08-26T07:43:14Z</time>
      </trkpt>
      <trkpt lat="45.70344" lon="4.73109">
        <ele>311.2</ele>
        <time>2026-08-26T07:43:15Z</time>
      </trkpt>
      <trkpt lat="45.7034" lon="4.73104">
        <ele>311.2</ele>
        <time>2026-08-26T07:43:16Z</time>
      </trkpt>
      <trkpt lat="45.70337" lon="4.73099">
        <ele>311.4</ele>
        <time>2026-08-26T07:43:17Z</time>
      </trkpt>
      <trkpt lat="45.70334" lon="4.73095">
        <ele>311.4</ele>
        <time>2026-08-26T07:43:18Z</time>
      </trkpt>
      <trkpt lat="45.70331" lon="4.73092">
        <ele>311.6</ele>
        <time>2026-08-26T07:43:19Z</time>
      </trkpt>
      <trkpt lat="45.7033" lon="4.73089">
        <ele>311.8</ele>
        <time>2026-08-26T07:43:20Z</time>
      </trkpt>
      <trkpt lat="45.70329" lon="4.73087">
        <ele>312</ele>
        <time>2026-08-26T07:43:21Z</time>
      </trkpt>
      <trkpt lat="45.70328" lon="4.73085">
        <ele>312.2</ele>
        <time>2026-08-26T07:43:22Z</time>
      </trkpt>
      <trkpt lat="45.70328" lon="4.73084">
        <ele>312.2</ele>
        <time>2026-08-26T07:43:23Z</time>
      </trkpt>
      <trkpt lat="45.70328" lon="4.73082">
        <ele>312.4</ele>
        <time>2026-08-26T07:43:24Z</time>
      </trkpt>
      <trkpt lat="45.70328" lon="4.73081">
        <ele>312.4</ele>
        <time>2026-08-26T07:43:25Z</time>
      </trkpt>
      <trkpt lat="45.70327" lon="4.7308">
        <ele>312.6</ele>
        <time>2026-08-26T07:43:26Z</time>
      </trkpt>
      <trkpt lat="45.70327" lon="4.7308">
        <ele>312.6</ele>
        <time>2026-08-26T07:43:27Z</time>
      </trkpt>
      <trkpt lat="45.70329" lon="4.73075">
        <ele>312.8</ele>
        <time>2026-08-26T07:43:44Z</time>
      </trkpt>
      <trkpt lat="45.7033" lon="4.73071">
        <ele>312.6</ele>
        <time>2026-08-26T07:43:45Z</time>
      </trkpt>
      <trkpt lat="45.70331" lon="4.73067">
        <ele>312.6</ele>
        <time>2026-08-26T07:43:46Z</time>
      </trkpt>
      <trkpt lat="45.70332" lon="4.73062">
        <ele>312.6</ele>
        <time>2026-08-26T07:43:47Z</time>
      </trkpt>
      <trkpt lat="45.70333" lon="4.73057">
        <ele>312.4</ele>
        <time>2026-08-26T07:43:48Z</time>
      </trkpt>
      <trkpt lat="45.70335" lon="4.73051">
        <ele>312.2</ele>
        <time>2026-08-26T07:43:49Z</time>
      </trkpt>
      <trkpt lat="45.70337" lon="4.73045">
        <ele>312.2</ele>
        <time>2026-08-26T07:43:50Z</time>
      </trkpt>
      <trkpt lat="45.70339" lon="4.73039">
        <ele>312</ele>
        <time>2026-08-26T07:43:51Z</time>
      </trkpt>
      <trkpt lat="45.70341" lon="4.73032">
        <ele>311.8</ele>
        <time>2026-08-26T07:43:52Z</time>
      </trkpt>
      <trkpt lat="45.70343" lon="4.73026">
        <ele>311.6</ele>
        <time>2026-08-26T07:43:53Z</time>
      </trkpt>
      <trkpt lat="45.70346" lon="4.73019">
        <ele>311.4</ele>
        <time>2026-08-26T07:43:54Z</time>
      </trkpt>
      <trkpt lat="45.70349" lon="4.73013">
        <ele>311.2</ele>
        <time>2026-08-26T07:43:55Z</time>
      </trkpt>
      <trkpt lat="45.70351" lon="4.73007">
        <ele>311.2</ele>
        <time>2026-08-26T07:43:56Z</time>
      </trkpt>
      <trkpt lat="45.70354" lon="4.73">
        <ele>311.4</ele>
        <time>2026-08-26T07:43:57Z</time>
      </trkpt>
      <trkpt lat="45.70357" lon="4.72993">
        <ele>311.4</ele>
        <time>2026-08-26T07:43:58Z</time>
      </trkpt>
      <trkpt lat="45.7036" lon="4.72986">
        <ele>311.4</ele>
        <time>2026-08-26T07:43:59Z</time>
      </trkpt>
      <trkpt lat="45.70363" lon="4.72979">
        <ele>311.4</ele>
        <time>2026-08-26T07:44:00Z</time>
      </trkpt>
      <trkpt lat="45.70366" lon="4.72972">
        <ele>311.4</ele>
        <time>2026-08-26T07:44:01Z</time>
      </trkpt>
      <trkpt lat="45.70369" lon="4.72965">
        <ele>311.4</ele>
        <time>2026-08-26T07:44:02Z</time>
      </trkpt>
      <trkpt lat="45.70372" lon="4.72958">
        <ele>311.2</ele>
        <time>2026-08-26T07:44:03Z</time>
      </trkpt>
      <trkpt lat="45.70375" lon="4.7295">
        <ele>311.2</ele>
        <time>2026-08-26T07:44:04Z</time>
      </trkpt>
      <trkpt lat="45.70378" lon="4.72943">
        <ele>311.2</ele>
        <time>2026-08-26T07:44:05Z</time>
      </trkpt>
      <trkpt lat="45.70381" lon="4.72936">
        <ele>311</ele>
        <time>2026-08-26T07:44:06Z</time>
      </trkpt>
      <trkpt lat="45.70385" lon="4.72928">
        <ele>311</ele>
        <time>2026-08-26T07:44:07Z</time>
      </trkpt>
      <trkpt lat="45.70388" lon="4.72921">
        <ele>311</ele>
        <time>2026-08-26T07:44:08Z</time>
      </trkpt>
      <trkpt lat="45.70392" lon="4.72914">
        <ele>311</ele>
        <time>2026-08-26T07:44:09Z</time>
      </trkpt>
      <trkpt lat="45.70396" lon="4.72907">
        <ele>310.8</ele>
        <time>2026-08-26T07:44:10Z</time>
      </trkpt>
      <trkpt lat="45.70399" lon="4.729">
        <ele>310.8</ele>
        <time>2026-08-26T07:44:11Z</time>
      </trkpt>
      <trkpt lat="45.70403" lon="4.72894">
        <ele>310.6</ele>
        <time>2026-08-26T07:44:12Z</time>
      </trkpt>
      <trkpt lat="45.70407" lon="4.72887">
        <ele>310.6</ele>
        <time>2026-08-26T07:44:13Z</time>
      </trkpt>
      <trkpt lat="45.7041" lon="4.72881">
        <ele>310.6</ele>
        <time>2026-08-26T07:44:14Z</time>
      </trkpt>
      <trkpt lat="45.70414" lon="4.72874">
        <ele>310.8</ele>
        <time>2026-08-26T07:44:15Z</time>
      </trkpt>
      <trkpt lat="45.70417" lon="4.72867">
        <ele>310.8</ele>
        <time>2026-08-26T07:44:16Z</time>
      </trkpt>
      <trkpt lat="45.70421" lon="4.7286">
        <ele>311</ele>
        <time>2026-08-26T07:44:17Z</time>
      </trkpt>
      <trkpt lat="45.70424" lon="4.72854">
        <ele>311.2</ele>
        <time>2026-08-26T07:44:18Z</time>
      </trkpt>
      <trkpt lat="45.70427" lon="4.72846">
        <ele>311.2</ele>
        <time>2026-08-26T07:44:19Z</time>
      </trkpt>
      <trkpt lat="45.7043" lon="4.72839">
        <ele>311.2</ele>
        <time>2026-08-26T07:44:20Z</time>
      </trkpt>
      <trkpt lat="45.70433" lon="4.72831">
        <ele>311.2</ele>
        <time>2026-08-26T07:44:21Z</time>
      </trkpt>
      <trkpt lat="45.70435" lon="4.72824">
        <ele>311.2</ele>
        <time>2026-08-26T07:44:22Z</time>
      </trkpt>
      <trkpt lat="45.70438" lon="4.72816">
        <ele>311</ele>
        <time>2026-08-26T07:44:23Z</time>
      </trkpt>
      <trkpt lat="45.7044" lon="4.72808">
        <ele>311</ele>
        <time>2026-08-26T07:44:24Z</time>
      </trkpt>
      <trkpt lat="45.70441" lon="4.728">
        <ele>311.2</ele>
        <time>2026-08-26T07:44:25Z</time>
      </trkpt>
      <trkpt lat="45.70442" lon="4.72792">
        <ele>311.2</ele>
        <time>2026-08-26T07:44:26Z</time>
      </trkpt>
      <trkpt lat="45.70442" lon="4.72784">
        <ele>311.2</ele>
        <time>2026-08-26T07:44:27Z</time>
      </trkpt>
      <trkpt lat="45.70441" lon="4.72776">
        <ele>311.4</ele>
        <time>2026-08-26T07:44:28Z</time>
      </trkpt>
      <trkpt lat="45.7044" lon="4.72768">
        <ele>311.4</ele>
        <time>2026-08-26T07:44:29Z</time>
      </trkpt>
      <trkpt lat="45.70438" lon="4.7276">
        <ele>311.4</ele>
        <time>2026-08-26T07:44:30Z</time>
      </trkpt>
      <trkpt lat="45.70437" lon="4.72752">
        <ele>311.4</ele>
        <time>2026-08-26T07:44:31Z</time>
      </trkpt>
      <trkpt lat="45.70436" lon="4.72745">
        <ele>311.4</ele>
        <time>2026-08-26T07:44:32Z</time>
      </trkpt>
      <trkpt lat="45.70435" lon="4.72737">
        <ele>311.4</ele>
        <time>2026-08-26T07:44:33Z</time>
      </trkpt>
      <trkpt lat="45.70433" lon="4.7273">
        <ele>311.4</ele>
        <time>2026-08-26T07:44:34Z</time>
      </trkpt>
      <trkpt lat="45.70432" lon="4.72722">
        <ele>311.6</ele>
        <time>2026-08-26T07:44:35Z</time>
      </trkpt>
      <trkpt lat="45.70431" lon="4.72715">
        <ele>311.6</ele>
        <time>2026-08-26T07:44:36Z</time>
      </trkpt>
      <trkpt lat="45.7043" lon="4.72707">
        <ele>311.6</ele>
        <time>2026-08-26T07:44:37Z</time>
      </trkpt>
      <trkpt lat="45.70429" lon="4.727">
        <ele>311.8</ele>
        <time>2026-08-26T07:44:38Z</time>
      </trkpt>
      <trkpt lat="45.70427" lon="4.72693">
        <ele>311.8</ele>
        <time>2026-08-26T07:44:39Z</time>
      </trkpt>
      <trkpt lat="45.70426" lon="4.72686">
        <ele>311.8</ele>
        <time>2026-08-26T07:44:40Z</time>
      </trkpt>
      <trkpt lat="45.70425" lon="4.72678">
        <ele>311.8</ele>
        <time>2026-08-26T07:44:41Z</time>
      </trkpt>
      <trkpt lat="45.70424" lon="4.72671">
        <ele>311.8</ele>
        <time>2026-08-26T07:44:42Z</time>
      </trkpt>
      <trkpt lat="45.70423" lon="4.72663">
        <ele>312</ele>
        <time>2026-08-26T07:44:43Z</time>
      </trkpt>
      <trkpt lat="45.70422" lon="4.72656">
        <ele>312</ele>
        <time>2026-08-26T07:44:44Z</time>
      </trkpt>
      <trkpt lat="45.70421" lon="4.72649">
        <ele>312.2</ele>
        <time>2026-08-26T07:44:45Z</time>
      </trkpt>
      <trkpt lat="45.7042" lon="4.72641">
        <ele>312.4</ele>
        <time>2026-08-26T07:44:46Z</time>
      </trkpt>
      <trkpt lat="45.70419" lon="4.72634">
        <ele>312.4</ele>
        <time>2026-08-26T07:44:47Z</time>
      </trkpt>
      <trkpt lat="45.70418" lon="4.72626">
        <ele>312.4</ele>
        <time>2026-08-26T07:44:48Z</time>
      </trkpt>
      <trkpt lat="45.70417" lon="4.72619">
        <ele>312.6</ele>
        <time>2026-08-26T07:44:49Z</time>
      </trkpt>
      <trkpt lat="45.70416" lon="4.72611">
        <ele>312.6</ele>
        <time>2026-08-26T07:44:50Z</time>
      </trkpt>
      <trkpt lat="45.70415" lon="4.72604">
        <ele>312.8</ele>
        <time>2026-08-26T07:44:51Z</time>
      </trkpt>
      <trkpt lat="45.70413" lon="4.72597">
        <ele>312.8</ele>
        <time>2026-08-26T07:44:52Z</time>
      </trkpt>
      <trkpt lat="45.70412" lon="4.72589">
        <ele>313</ele>
        <time>2026-08-26T07:44:53Z</time>
      </trkpt>
      <trkpt lat="45.70411" lon="4.72582">
        <ele>313</ele>
        <time>2026-08-26T07:44:54Z</time>
      </trkpt>
      <trkpt lat="45.70409" lon="4.72575">
        <ele>313.2</ele>
        <time>2026-08-26T07:44:55Z</time>
      </trkpt>
      <trkpt lat="45.70408" lon="4.72568">
        <ele>313.2</ele>
        <time>2026-08-26T07:44:56Z</time>
      </trkpt>
      <trkpt lat="45.70407" lon="4.7256">
        <ele>313.4</ele>
        <time>2026-08-26T07:44:57Z</time>
      </trkpt>
      <trkpt lat="45.70405" lon="4.72553">
        <ele>313.4</ele>
        <time>2026-08-26T07:44:58Z</time>
      </trkpt>
      <trkpt lat="45.70404" lon="4.72546">
        <ele>313.6</ele>
        <time>2026-08-26T07:44:59Z</time>
      </trkpt>
      <trkpt lat="45.70403" lon="4.72539">
        <ele>313.6</ele>
        <time>2026-08-26T07:45:00Z</time>
      </trkpt>
      <trkpt lat="45.70402" lon="4.72532">
        <ele>313.6</ele>
        <time>2026-08-26T07:45:01Z</time>
      </trkpt>
      <trkpt lat="45.70401" lon="4.72525">
        <ele>313.8</ele>
        <time>2026-08-26T07:45:02Z</time>
      </trkpt>
      <trkpt lat="45.704" lon="4.72518">
        <ele>314</ele>
        <time>2026-08-26T07:45:03Z</time>
      </trkpt>
      <trkpt lat="45.70399" lon="4.72511">
        <ele>314</ele>
        <time>2026-08-26T07:45:04Z</time>
      </trkpt>
      <trkpt lat="45.70397" lon="4.72503">
        <ele>314.2</ele>
        <time>2026-08-26T07:45:05Z</time>
      </trkpt>
      <trkpt lat="45.70396" lon="4.72496">
        <ele>314.4</ele>
        <time>2026-08-26T07:45:06Z</time>
      </trkpt>
      <trkpt lat="45.70395" lon="4.72489">
        <ele>314.4</ele>
        <time>2026-08-26T07:45:07Z</time>
      </trkpt>
      <trkpt lat="45.70394" lon="4.72482">
        <ele>314.4</ele>
        <time>2026-08-26T07:45:08Z</time>
      </trkpt>
      <trkpt lat="45.70393" lon="4.72474">
        <ele>314.4</ele>
        <time>2026-08-26T07:45:09Z</time>
      </trkpt>
      <trkpt lat="45.70392" lon="4.72467">
        <ele>314.4</ele>
        <time>2026-08-26T07:45:10Z</time>
      </trkpt>
      <trkpt lat="45.70391" lon="4.7246">
        <ele>314.6</ele>
        <time>2026-08-26T07:45:11Z</time>
      </trkpt>
      <trkpt lat="45.70389" lon="4.72453">
        <ele>314.4</ele>
        <time>2026-08-26T07:45:12Z</time>
      </trkpt>
      <trkpt lat="45.70388" lon="4.72445">
        <ele>314.6</ele>
        <time>2026-08-26T07:45:13Z</time>
      </trkpt>
      <trkpt lat="45.70387" lon="4.72438">
        <ele>314.6</ele>
        <time>2026-08-26T07:45:14Z</time>
      </trkpt>
      <trkpt lat="45.70386" lon="4.72431">
        <ele>314.6</ele>
        <time>2026-08-26T07:45:15Z</time>
      </trkpt>
      <trkpt lat="45.70385" lon="4.72423">
        <ele>314.8</ele>
        <time>2026-08-26T07:45:16Z</time>
      </trkpt>
      <trkpt lat="45.70384" lon="4.72416">
        <ele>314.8</ele>
        <time>2026-08-26T07:45:17Z</time>
      </trkpt>
      <trkpt lat="45.70383" lon="4.72408">
        <ele>314.8</ele>
        <time>2026-08-26T07:45:18Z</time>
      </trkpt>
      <trkpt lat="45.70382" lon="4.724">
        <ele>314.8</ele>
        <time>2026-08-26T07:45:19Z</time>
      </trkpt>
      <trkpt lat="45.70381" lon="4.72393">
        <ele>314.8</ele>
        <time>2026-08-26T07:45:20Z</time>
      </trkpt>
      <trkpt lat="45.7038" lon="4.72385">
        <ele>314.8</ele>
        <time>2026-08-26T07:45:21Z</time>
      </trkpt>
      <trkpt lat="45.70379" lon="4.72377">
        <ele>314.8</ele>
        <time>2026-08-26T07:45:22Z</time>
      </trkpt>
      <trkpt lat="45.70378" lon="4.7237">
        <ele>314.8</ele>
        <time>2026-08-26T07:45:23Z</time>
      </trkpt>
      <trkpt lat="45.70378" lon="4.72362">
        <ele>314.8</ele>
        <time>2026-08-26T07:45:24Z</time>
      </trkpt>
      <trkpt lat="45.70377" lon="4.72355">
        <ele>314.8</ele>
        <time>2026-08-26T07:45:25Z</time>
      </trkpt>
      <trkpt lat="45.70376" lon="4.72347">
        <ele>314.8</ele>
        <time>2026-08-26T07:45:26Z</time>
      </trkpt>
      <trkpt lat="45.70375" lon="4.72339">
        <ele>314.8</ele>
        <time>2026-08-26T07:45:27Z</time>
      </trkpt>
      <trkpt lat="45.70375" lon="4.72332">
        <ele>315</ele>
        <time>2026-08-26T07:45:28Z</time>
      </trkpt>
      <trkpt lat="45.70374" lon="4.72324">
        <ele>314.8</ele>
        <time>2026-08-26T07:45:29Z</time>
      </trkpt>
      <trkpt lat="45.70374" lon="4.72316">
        <ele>314.8</ele>
        <time>2026-08-26T07:45:30Z</time>
      </trkpt>
      <trkpt lat="45.70374" lon="4.72308">
        <ele>314.8</ele>
        <time>2026-08-26T07:45:31Z</time>
      </trkpt>
      <trkpt lat="45.70373" lon="4.72301">
        <ele>314.8</ele>
        <time>2026-08-26T07:45:32Z</time>
      </trkpt>
      <trkpt lat="45.70373" lon="4.72293">
        <ele>314.8</ele>
        <time>2026-08-26T07:45:33Z</time>
      </trkpt>
      <trkpt lat="45.70373" lon="4.72285">
        <ele>314.8</ele>
        <time>2026-08-26T07:45:34Z</time>
      </trkpt>
      <trkpt lat="45.70373" lon="4.72278">
        <ele>314.8</ele>
        <time>2026-08-26T07:45:35Z</time>
      </trkpt>
      <trkpt lat="45.70373" lon="4.7227">
        <ele>314.8</ele>
        <time>2026-08-26T07:45:36Z</time>
      </trkpt>
      <trkpt lat="45.70373" lon="4.72262">
        <ele>315</ele>
        <time>2026-08-26T07:45:37Z</time>
      </trkpt>
      <trkpt lat="45.70373" lon="4.72254">
        <ele>315</ele>
        <time>2026-08-26T07:45:38Z</time>
      </trkpt>
      <trkpt lat="45.70373" lon="4.72247">
        <ele>315.2</ele>
        <time>2026-08-26T07:45:39Z</time>
      </trkpt>
      <trkpt lat="45.70373" lon="4.72239">
        <ele>315.2</ele>
        <time>2026-08-26T07:45:40Z</time>
      </trkpt>
      <trkpt lat="45.70372" lon="4.72232">
        <ele>315.4</ele>
        <time>2026-08-26T07:45:41Z</time>
      </trkpt>
      <trkpt lat="45.70373" lon="4.72224">
        <ele>315.4</ele>
        <time>2026-08-26T07:45:42Z</time>
      </trkpt>
      <trkpt lat="45.70373" lon="4.72216">
        <ele>315.6</ele>
        <time>2026-08-26T07:45:43Z</time>
      </trkpt>
      <trkpt lat="45.70372" lon="4.72208">
        <ele>315.6</ele>
        <time>2026-08-26T07:45:44Z</time>
      </trkpt>
      <trkpt lat="45.70372" lon="4.722">
        <ele>315.6</ele>
        <time>2026-08-26T07:45:45Z</time>
      </trkpt>
      <trkpt lat="45.70373" lon="4.72192">
        <ele>315.6</ele>
        <time>2026-08-26T07:45:46Z</time>
      </trkpt>
      <trkpt lat="45.70373" lon="4.72184">
        <ele>315.6</ele>
        <time>2026-08-26T07:45:47Z</time>
      </trkpt>
      <trkpt lat="45.70373" lon="4.72176">
        <ele>315.8</ele>
        <time>2026-08-26T07:45:48Z</time>
      </trkpt>
      <trkpt lat="45.70372" lon="4.72168">
        <ele>315.6</ele>
        <time>2026-08-26T07:45:49Z</time>
      </trkpt>
      <trkpt lat="45.70372" lon="4.7216">
        <ele>315.6</ele>
        <time>2026-08-26T07:45:50Z</time>
      </trkpt>
      <trkpt lat="45.70373" lon="4.72152">
        <ele>315.8</ele>
        <time>2026-08-26T07:45:51Z</time>
      </trkpt>
      <trkpt lat="45.70373" lon="4.72144">
        <ele>315.8</ele>
        <time>2026-08-26T07:45:52Z</time>
      </trkpt>
      <trkpt lat="45.70373" lon="4.72136">
        <ele>315.6</ele>
        <time>2026-08-26T07:45:53Z</time>
      </trkpt>
      <trkpt lat="45.70373" lon="4.72127">
        <ele>315.8</ele>
        <time>2026-08-26T07:45:54Z</time>
      </trkpt>
      <trkpt lat="45.70373" lon="4.72119">
        <ele>316</ele>
        <time>2026-08-26T07:45:55Z</time>
      </trkpt>
      <trkpt lat="45.70373" lon="4.72111">
        <ele>316</ele>
        <time>2026-08-26T07:45:56Z</time>
      </trkpt>
      <trkpt lat="45.70373" lon="4.72103">
        <ele>316</ele>
        <time>2026-08-26T07:45:57Z</time>
      </trkpt>
      <trkpt lat="45.70374" lon="4.72095">
        <ele>316.2</ele>
        <time>2026-08-26T07:45:58Z</time>
      </trkpt>
      <trkpt lat="45.70374" lon="4.72087">
        <ele>316.2</ele>
        <time>2026-08-26T07:45:59Z</time>
      </trkpt>
      <trkpt lat="45.70374" lon="4.72079">
        <ele>316.2</ele>
        <time>2026-08-26T07:46:00Z</time>
      </trkpt>
      <trkpt lat="45.70375" lon="4.72071">
        <ele>316</ele>
        <time>2026-08-26T07:46:01Z</time>
      </trkpt>
      <trkpt lat="45.70375" lon="4.72063">
        <ele>316.2</ele>
        <time>2026-08-26T07:46:02Z</time>
      </trkpt>
      <trkpt lat="45.70375" lon="4.72055">
        <ele>316.2</ele>
        <time>2026-08-26T07:46:03Z</time>
      </trkpt>
      <trkpt lat="45.70376" lon="4.72048">
        <ele>316.4</ele>
        <time>2026-08-26T07:46:04Z</time>
      </trkpt>
      <trkpt lat="45.70377" lon="4.7204">
        <ele>316.4</ele>
        <time>2026-08-26T07:46:05Z</time>
      </trkpt>
      <trkpt lat="45.70379" lon="4.72033">
        <ele>316.8</ele>
        <time>2026-08-26T07:46:06Z</time>
      </trkpt>
      <trkpt lat="45.7038" lon="4.72026">
        <ele>316.8</ele>
        <time>2026-08-26T07:46:07Z</time>
      </trkpt>
      <trkpt lat="45.70381" lon="4.7202">
        <ele>317</ele>
        <time>2026-08-26T07:46:08Z</time>
      </trkpt>
      <trkpt lat="45.70383" lon="4.72014">
        <ele>317.2</ele>
        <time>2026-08-26T07:46:09Z</time>
      </trkpt>
      <trkpt lat="45.70384" lon="4.72008">
        <ele>317.4</ele>
        <time>2026-08-26T07:46:10Z</time>
      </trkpt>
      <trkpt lat="45.70385" lon="4.72002">
        <ele>317.4</ele>
        <time>2026-08-26T07:46:11Z</time>
      </trkpt>
      <trkpt lat="45.70387" lon="4.71996">
        <ele>317.6</ele>
        <time>2026-08-26T07:46:12Z</time>
      </trkpt>
      <trkpt lat="45.70388" lon="4.7199">
        <ele>317.8</ele>
        <time>2026-08-26T07:46:13Z</time>
      </trkpt>
      <trkpt lat="45.70389" lon="4.71984">
        <ele>318</ele>
        <time>2026-08-26T07:46:14Z</time>
      </trkpt>
      <trkpt lat="45.7039" lon="4.71977">
        <ele>318.2</ele>
        <time>2026-08-26T07:46:15Z</time>
      </trkpt>
      <trkpt lat="45.70392" lon="4.71971">
        <ele>318.2</ele>
        <time>2026-08-26T07:46:16Z</time>
      </trkpt>
      <trkpt lat="45.70393" lon="4.71964">
        <ele>318.2</ele>
        <time>2026-08-26T07:46:17Z</time>
      </trkpt>
      <trkpt lat="45.70394" lon="4.71957">
        <ele>318.4</ele>
        <time>2026-08-26T07:46:18Z</time>
      </trkpt>
      <trkpt lat="45.70395" lon="4.7195">
        <ele>318.4</ele>
        <time>2026-08-26T07:46:19Z</time>
      </trkpt>
      <trkpt lat="45.70396" lon="4.71943">
        <ele>318.4</ele>
        <time>2026-08-26T07:46:20Z</time>
      </trkpt>
      <trkpt lat="45.70396" lon="4.71936">
        <ele>318.4</ele>
        <time>2026-08-26T07:46:21Z</time>
      </trkpt>
      <trkpt lat="45.70397" lon="4.71929">
        <ele>318.6</ele>
        <time>2026-08-26T07:46:22Z</time>
      </trkpt>
      <trkpt lat="45.70398" lon="4.71922">
        <ele>318.8</ele>
        <time>2026-08-26T07:46:23Z</time>
      </trkpt>
      <trkpt lat="45.70398" lon="4.71915">
        <ele>318.8</ele>
        <time>2026-08-26T07:46:24Z</time>
      </trkpt>
      <trkpt lat="45.70399" lon="4.71907">
        <ele>318.8</ele>
        <time>2026-08-26T07:46:25Z</time>
      </trkpt>
      <trkpt lat="45.70399" lon="4.719">
        <ele>319</ele>
        <time>2026-08-26T07:46:26Z</time>
      </trkpt>
      <trkpt lat="45.704" lon="4.71893">
        <ele>319</ele>
        <time>2026-08-26T07:46:27Z</time>
      </trkpt>
      <trkpt lat="45.70401" lon="4.71886">
        <ele>319.2</ele>
        <time>2026-08-26T07:46:28Z</time>
      </trkpt>
      <trkpt lat="45.70401" lon="4.71879">
        <ele>319.4</ele>
        <time>2026-08-26T07:46:29Z</time>
      </trkpt>
      <trkpt lat="45.70402" lon="4.71872">
        <ele>319.4</ele>
        <time>2026-08-26T07:46:30Z</time>
      </trkpt>
      <trkpt lat="45.70402" lon="4.71864">
        <ele>319.6</ele>
        <time>2026-08-26T07:46:31Z</time>
      </trkpt>
      <trkpt lat="45.70403" lon="4.71857">
        <ele>320</ele>
        <time>2026-08-26T07:46:32Z</time>
      </trkpt>
      <trkpt lat="45.70404" lon="4.71851">
        <ele>320</ele>
        <time>2026-08-26T07:46:33Z</time>
      </trkpt>
      <trkpt lat="45.70404" lon="4.71844">
        <ele>320.2</ele>
        <time>2026-08-26T07:46:34Z</time>
      </trkpt>
      <trkpt lat="45.70405" lon="4.71837">
        <ele>320.4</ele>
        <time>2026-08-26T07:46:35Z</time>
      </trkpt>
      <trkpt lat="45.70405" lon="4.7183">
        <ele>320.6</ele>
        <time>2026-08-26T07:46:36Z</time>
      </trkpt>
      <trkpt lat="45.70405" lon="4.71823">
        <ele>320.8</ele>
        <time>2026-08-26T07:46:37Z</time>
      </trkpt>
      <trkpt lat="45.70406" lon="4.71816">
        <ele>321</ele>
        <time>2026-08-26T07:46:38Z</time>
      </trkpt>
      <trkpt lat="45.70407" lon="4.7181">
        <ele>321.2</ele>
        <time>2026-08-26T07:46:39Z</time>
      </trkpt>
      <trkpt lat="45.70407" lon="4.71804">
        <ele>321.4</ele>
        <time>2026-08-26T07:46:40Z</time>
      </trkpt>
      <trkpt lat="45.70408" lon="4.71798">
        <ele>321.6</ele>
        <time>2026-08-26T07:46:41Z</time>
      </trkpt>
      <trkpt lat="45.70409" lon="4.71792">
        <ele>321.8</ele>
        <time>2026-08-26T07:46:42Z</time>
      </trkpt>
      <trkpt lat="45.70409" lon="4.71785">
        <ele>322</ele>
        <time>2026-08-26T07:46:43Z</time>
      </trkpt>
      <trkpt lat="45.70409" lon="4.71779">
        <ele>322.2</ele>
        <time>2026-08-26T07:46:44Z</time>
      </trkpt>
      <trkpt lat="45.7041" lon="4.71772">
        <ele>322.4</ele>
        <time>2026-08-26T07:46:45Z</time>
      </trkpt>
      <trkpt lat="45.70411" lon="4.71766">
        <ele>322.6</ele>
        <time>2026-08-26T07:46:46Z</time>
      </trkpt>
      <trkpt lat="45.70411" lon="4.7176">
        <ele>323</ele>
        <time>2026-08-26T07:46:47Z</time>
      </trkpt>
      <trkpt lat="45.70412" lon="4.71754">
        <ele>323.2</ele>
        <time>2026-08-26T07:46:48Z</time>
      </trkpt>
      <trkpt lat="45.70413" lon="4.71748">
        <ele>323.4</ele>
        <time>2026-08-26T07:46:49Z</time>
      </trkpt>
      <trkpt lat="45.70413" lon="4.71741">
        <ele>323.6</ele>
        <time>2026-08-26T07:46:50Z</time>
      </trkpt>
      <trkpt lat="45.70414" lon="4.71735">
        <ele>323.8</ele>
        <time>2026-08-26T07:46:51Z</time>
      </trkpt>
      <trkpt lat="45.70415" lon="4.71728">
        <ele>323.8</ele>
        <time>2026-08-26T07:46:52Z</time>
      </trkpt>
      <trkpt lat="45.70415" lon="4.71722">
        <ele>324</ele>
        <time>2026-08-26T07:46:53Z</time>
      </trkpt>
      <trkpt lat="45.70416" lon="4.71716">
        <ele>324</ele>
        <time>2026-08-26T07:46:54Z</time>
      </trkpt>
      <trkpt lat="45.70416" lon="4.71709">
        <ele>324</ele>
        <time>2026-08-26T07:46:55Z</time>
      </trkpt>
      <trkpt lat="45.70417" lon="4.71703">
        <ele>324.2</ele>
        <time>2026-08-26T07:46:56Z</time>
      </trkpt>
      <trkpt lat="45.70417" lon="4.71696">
        <ele>324.4</ele>
        <time>2026-08-26T07:46:57Z</time>
      </trkpt>
      <trkpt lat="45.70417" lon="4.71689">
        <ele>324.4</ele>
        <time>2026-08-26T07:46:58Z</time>
      </trkpt>
      <trkpt lat="45.70418" lon="4.71681">
        <ele>324.4</ele>
        <time>2026-08-26T07:46:59Z</time>
      </trkpt>
      <trkpt lat="45.70418" lon="4.71674">
        <ele>324.6</ele>
        <time>2026-08-26T07:47:00Z</time>
      </trkpt>
      <trkpt lat="45.70419" lon="4.71667">
        <ele>324.4</ele>
        <time>2026-08-26T07:47:01Z</time>
      </trkpt>
      <trkpt lat="45.70419" lon="4.7166">
        <ele>324.4</ele>
        <time>2026-08-26T07:47:02Z</time>
      </trkpt>
      <trkpt lat="45.7042" lon="4.71654">
        <ele>324.2</ele>
        <time>2026-08-26T07:47:03Z</time>
      </trkpt>
      <trkpt lat="45.7042" lon="4.71647">
        <ele>324.2</ele>
        <time>2026-08-26T07:47:04Z</time>
      </trkpt>
      <trkpt lat="45.70421" lon="4.7164">
        <ele>324.2</ele>
        <time>2026-08-26T07:47:05Z</time>
      </trkpt>
      <trkpt lat="45.70421" lon="4.71634">
        <ele>324.2</ele>
        <time>2026-08-26T07:47:06Z</time>
      </trkpt>
      <trkpt lat="45.70422" lon="4.71627">
        <ele>324.2</ele>
        <time>2026-08-26T07:47:07Z</time>
      </trkpt>
      <trkpt lat="45.70423" lon="4.7162">
        <ele>324.2</ele>
        <time>2026-08-26T07:47:08Z</time>
      </trkpt>
      <trkpt lat="45.70424" lon="4.71613">
        <ele>324.4</ele>
        <time>2026-08-26T07:47:09Z</time>
      </trkpt>
      <trkpt lat="45.70425" lon="4.71606">
        <ele>324.4</ele>
        <time>2026-08-26T07:47:10Z</time>
      </trkpt>
      <trkpt lat="45.70426" lon="4.71598">
        <ele>324.2</ele>
        <time>2026-08-26T07:47:11Z</time>
      </trkpt>
      <trkpt lat="45.70427" lon="4.71591">
        <ele>324.2</ele>
        <time>2026-08-26T07:47:12Z</time>
      </trkpt>
      <trkpt lat="45.70428" lon="4.71583">
        <ele>324.2</ele>
        <time>2026-08-26T07:47:13Z</time>
      </trkpt>
      <trkpt lat="45.70429" lon="4.71575">
        <ele>324</ele>
        <time>2026-08-26T07:47:14Z</time>
      </trkpt>
      <trkpt lat="45.70431" lon="4.71567">
        <ele>324</ele>
        <time>2026-08-26T07:47:15Z</time>
      </trkpt>
      <trkpt lat="45.70433" lon="4.71559">
        <ele>323.8</ele>
        <time>2026-08-26T07:47:16Z</time>
      </trkpt>
      <trkpt lat="45.70435" lon="4.71551">
        <ele>323.6</ele>
        <time>2026-08-26T07:47:17Z</time>
      </trkpt>
      <trkpt lat="45.70437" lon="4.71543">
        <ele>323.4</ele>
        <time>2026-08-26T07:47:18Z</time>
      </trkpt>
      <trkpt lat="45.70439" lon="4.71534">
        <ele>323.2</ele>
        <time>2026-08-26T07:47:19Z</time>
      </trkpt>
      <trkpt lat="45.70441" lon="4.71525">
        <ele>322.8</ele>
        <time>2026-08-26T07:47:20Z</time>
      </trkpt>
      <trkpt lat="45.70444" lon="4.71516">
        <ele>322.4</ele>
        <time>2026-08-26T07:47:21Z</time>
      </trkpt>
      <trkpt lat="45.70446" lon="4.71507">
        <ele>322</ele>
        <time>2026-08-26T07:47:22Z</time>
      </trkpt>
      <trkpt lat="45.70448" lon="4.71498">
        <ele>321.8</ele>
        <time>2026-08-26T07:47:23Z</time>
      </trkpt>
      <trkpt lat="45.7045" lon="4.71488">
        <ele>321.4</ele>
        <time>2026-08-26T07:47:24Z</time>
      </trkpt>
      <trkpt lat="45.70453" lon="4.71479">
        <ele>321</ele>
        <time>2026-08-26T07:47:25Z</time>
      </trkpt>
      <trkpt lat="45.70455" lon="4.7147">
        <ele>320.6</ele>
        <time>2026-08-26T07:47:26Z</time>
      </trkpt>
      <trkpt lat="45.70457" lon="4.7146">
        <ele>320.2</ele>
        <time>2026-08-26T07:47:27Z</time>
      </trkpt>
      <trkpt lat="45.7046" lon="4.71451">
        <ele>319.8</ele>
        <time>2026-08-26T07:47:28Z</time>
      </trkpt>
      <trkpt lat="45.70463" lon="4.71442">
        <ele>319.4</ele>
        <time>2026-08-26T07:47:29Z</time>
      </trkpt>
      <trkpt lat="45.70465" lon="4.71433">
        <ele>319.2</ele>
        <time>2026-08-26T07:47:30Z</time>
      </trkpt>
      <trkpt lat="45.70468" lon="4.71424">
        <ele>319</ele>
        <time>2026-08-26T07:47:31Z</time>
      </trkpt>
      <trkpt lat="45.7047" lon="4.71414">
        <ele>319</ele>
        <time>2026-08-26T07:47:32Z</time>
      </trkpt>
      <trkpt lat="45.70473" lon="4.71405">
        <ele>318.8</ele>
        <time>2026-08-26T07:47:33Z</time>
      </trkpt>
      <trkpt lat="45.70477" lon="4.71396">
        <ele>318.8</ele>
        <time>2026-08-26T07:47:34Z</time>
      </trkpt>
      <trkpt lat="45.7048" lon="4.71387">
        <ele>318.6</ele>
        <time>2026-08-26T07:47:35Z</time>
      </trkpt>
      <trkpt lat="45.70483" lon="4.71378">
        <ele>318.2</ele>
        <time>2026-08-26T07:47:36Z</time>
      </trkpt>
      <trkpt lat="45.70487" lon="4.71369">
        <ele>317.8</ele>
        <time>2026-08-26T07:47:37Z</time>
      </trkpt>
      <trkpt lat="45.70491" lon="4.71359">
        <ele>317.4</ele>
        <time>2026-08-26T07:47:38Z</time>
      </trkpt>
      <trkpt lat="45.70495" lon="4.7135">
        <ele>317</ele>
        <time>2026-08-26T07:47:39Z</time>
      </trkpt>
      <trkpt lat="45.70499" lon="4.7134">
        <ele>316.4</ele>
        <time>2026-08-26T07:47:40Z</time>
      </trkpt>
      <trkpt lat="45.70502" lon="4.71329">
        <ele>315.8</ele>
        <time>2026-08-26T07:47:41Z</time>
      </trkpt>
      <trkpt lat="45.70506" lon="4.71319">
        <ele>315.4</ele>
        <time>2026-08-26T07:47:42Z</time>
      </trkpt>
      <trkpt lat="45.70509" lon="4.71308">
        <ele>314.8</ele>
        <time>2026-08-26T07:47:43Z</time>
      </trkpt>
      <trkpt lat="45.70512" lon="4.71297">
        <ele>314.2</ele>
        <time>2026-08-26T07:47:44Z</time>
      </trkpt>
      <trkpt lat="45.70516" lon="4.71286">
        <ele>313.8</ele>
        <time>2026-08-26T07:47:45Z</time>
      </trkpt>
      <trkpt lat="45.70519" lon="4.71276">
        <ele>313.4</ele>
        <time>2026-08-26T07:47:46Z</time>
      </trkpt>
      <trkpt lat="45.70522" lon="4.71265">
        <ele>312.8</ele>
        <time>2026-08-26T07:47:47Z</time>
      </trkpt>
      <trkpt lat="45.70525" lon="4.71254">
        <ele>312.4</ele>
        <time>2026-08-26T07:47:48Z</time>
      </trkpt>
      <trkpt lat="45.70528" lon="4.71242">
        <ele>312</ele>
        <time>2026-08-26T07:47:49Z</time>
      </trkpt>
      <trkpt lat="45.70531" lon="4.71231">
        <ele>311.6</ele>
        <time>2026-08-26T07:47:50Z</time>
      </trkpt>
      <trkpt lat="45.70534" lon="4.7122">
        <ele>311.2</ele>
        <time>2026-08-26T07:47:51Z</time>
      </trkpt>
      <trkpt lat="45.70537" lon="4.71209">
        <ele>311</ele>
        <time>2026-08-26T07:47:52Z</time>
      </trkpt>
      <trkpt lat="45.70539" lon="4.71198">
        <ele>310.8</ele>
        <time>2026-08-26T07:47:53Z</time>
      </trkpt>
      <trkpt lat="45.70542" lon="4.71187">
        <ele>310.6</ele>
        <time>2026-08-26T07:47:54Z</time>
      </trkpt>
      <trkpt lat="45.70544" lon="4.71175">
        <ele>310.4</ele>
        <time>2026-08-26T07:47:55Z</time>
      </trkpt>
      <trkpt lat="45.70546" lon="4.71164">
        <ele>310.2</ele>
        <time>2026-08-26T07:47:56Z</time>
      </trkpt>
      <trkpt lat="45.70548" lon="4.71153">
        <ele>310.2</ele>
        <time>2026-08-26T07:47:57Z</time>
      </trkpt>
      <trkpt lat="45.70549" lon="4.71142">
        <ele>310</ele>
        <time>2026-08-26T07:47:58Z</time>
      </trkpt>
      <trkpt lat="45.7055" lon="4.7113">
        <ele>310</ele>
        <time>2026-08-26T07:47:59Z</time>
      </trkpt>
      <trkpt lat="45.7055" lon="4.71119">
        <ele>309.8</ele>
        <time>2026-08-26T07:48:00Z</time>
      </trkpt>
      <trkpt lat="45.70549" lon="4.71107">
        <ele>309.6</ele>
        <time>2026-08-26T07:48:01Z</time>
      </trkpt>
      <trkpt lat="45.70548" lon="4.71096">
        <ele>309.4</ele>
        <time>2026-08-26T07:48:02Z</time>
      </trkpt>
      <trkpt lat="45.70546" lon="4.71084">
        <ele>309.2</ele>
        <time>2026-08-26T07:48:03Z</time>
      </trkpt>
      <trkpt lat="45.70545" lon="4.71073">
        <ele>309</ele>
        <time>2026-08-26T07:48:04Z</time>
      </trkpt>
      <trkpt lat="45.70543" lon="4.71063">
        <ele>309</ele>
        <time>2026-08-26T07:48:05Z</time>
      </trkpt>
      <trkpt lat="45.70541" lon="4.71052">
        <ele>308.8</ele>
        <time>2026-08-26T07:48:06Z</time>
      </trkpt>
      <trkpt lat="45.7054" lon="4.71042">
        <ele>308.8</ele>
        <time>2026-08-26T07:48:07Z</time>
      </trkpt>
      <trkpt lat="45.7054" lon="4.71031">
        <ele>308.6</ele>
        <time>2026-08-26T07:48:08Z</time>
      </trkpt>
      <trkpt lat="45.7054" lon="4.71021">
        <ele>308.4</ele>
        <time>2026-08-26T07:48:09Z</time>
      </trkpt>
      <trkpt lat="45.70541" lon="4.7101">
        <ele>308.4</ele>
        <time>2026-08-26T07:48:10Z</time>
      </trkpt>
      <trkpt lat="45.70542" lon="4.71">
        <ele>308.4</ele>
        <time>2026-08-26T07:48:11Z</time>
      </trkpt>
      <trkpt lat="45.70544" lon="4.7099">
        <ele>308.4</ele>
        <time>2026-08-26T07:48:12Z</time>
      </trkpt>
      <trkpt lat="45.70545" lon="4.70979">
        <ele>308.6</ele>
        <time>2026-08-26T07:48:13Z</time>
      </trkpt>
      <trkpt lat="45.70546" lon="4.7097">
        <ele>308.6</ele>
        <time>2026-08-26T07:48:14Z</time>
      </trkpt>
      <trkpt lat="45.70547" lon="4.7096">
        <ele>308.6</ele>
        <time>2026-08-26T07:48:15Z</time>
      </trkpt>
      <trkpt lat="45.70548" lon="4.7095">
        <ele>308.6</ele>
        <time>2026-08-26T07:48:16Z</time>
      </trkpt>
      <trkpt lat="45.7055" lon="4.70941">
        <ele>308.6</ele>
        <time>2026-08-26T07:48:17Z</time>
      </trkpt>
      <trkpt lat="45.70551" lon="4.70932">
        <ele>308.6</ele>
        <time>2026-08-26T07:48:18Z</time>
      </trkpt>
      <trkpt lat="45.70553" lon="4.70924">
        <ele>308.8</ele>
        <time>2026-08-26T07:48:19Z</time>
      </trkpt>
      <trkpt lat="45.70554" lon="4.70915">
        <ele>309</ele>
        <time>2026-08-26T07:48:20Z</time>
      </trkpt>
      <trkpt lat="45.70556" lon="4.70907">
        <ele>309.2</ele>
        <time>2026-08-26T07:48:21Z</time>
      </trkpt>
      <trkpt lat="45.70557" lon="4.709">
        <ele>309.4</ele>
        <time>2026-08-26T07:48:22Z</time>
      </trkpt>
      <trkpt lat="45.70557" lon="4.70892">
        <ele>309.4</ele>
        <time>2026-08-26T07:48:23Z</time>
      </trkpt>
      <trkpt lat="45.70555" lon="4.70885">
        <ele>309.6</ele>
        <time>2026-08-26T07:48:24Z</time>
      </trkpt>
      <trkpt lat="45.70552" lon="4.70878">
        <ele>309.6</ele>
        <time>2026-08-26T07:48:25Z</time>
      </trkpt>
      <trkpt lat="45.70549" lon="4.70871">
        <ele>309.6</ele>
        <time>2026-08-26T07:48:26Z</time>
      </trkpt>
      <trkpt lat="45.70547" lon="4.70863">
        <ele>309.6</ele>
        <time>2026-08-26T07:48:27Z</time>
      </trkpt>
      <trkpt lat="45.70546" lon="4.70855">
        <ele>309.6</ele>
        <time>2026-08-26T07:48:28Z</time>
      </trkpt>
      <trkpt lat="45.70545" lon="4.70847">
        <ele>309.4</ele>
        <time>2026-08-26T07:48:29Z</time>
      </trkpt>
      <trkpt lat="45.70544" lon="4.70838">
        <ele>309.6</ele>
        <time>2026-08-26T07:48:30Z</time>
      </trkpt>
      <trkpt lat="45.70544" lon="4.7083">
        <ele>309.6</ele>
        <time>2026-08-26T07:48:31Z</time>
      </trkpt>
      <trkpt lat="45.70543" lon="4.70821">
        <ele>309.6</ele>
        <time>2026-08-26T07:48:32Z</time>
      </trkpt>
      <trkpt lat="45.70542" lon="4.70813">
        <ele>309.6</ele>
        <time>2026-08-26T07:48:33Z</time>
      </trkpt>
      <trkpt lat="45.70542" lon="4.70804">
        <ele>309.6</ele>
        <time>2026-08-26T07:48:34Z</time>
      </trkpt>
      <trkpt lat="45.70542" lon="4.70796">
        <ele>309.8</ele>
        <time>2026-08-26T07:48:35Z</time>
      </trkpt>
      <trkpt lat="45.70542" lon="4.70787">
        <ele>309.4</ele>
        <time>2026-08-26T07:48:36Z</time>
      </trkpt>
      <trkpt lat="45.70542" lon="4.70779">
        <ele>309.6</ele>
        <time>2026-08-26T07:48:37Z</time>
      </trkpt>
      <trkpt lat="45.70541" lon="4.7077">
        <ele>309.8</ele>
        <time>2026-08-26T07:48:38Z</time>
      </trkpt>
      <trkpt lat="45.70541" lon="4.70762">
        <ele>309.8</ele>
        <time>2026-08-26T07:48:39Z</time>
      </trkpt>
      <trkpt lat="45.70541" lon="4.70754">
        <ele>309.8</ele>
        <time>2026-08-26T07:48:40Z</time>
      </trkpt>
      <trkpt lat="45.7054" lon="4.70746">
        <ele>310</ele>
        <time>2026-08-26T07:48:41Z</time>
      </trkpt>
      <trkpt lat="45.70539" lon="4.70738">
        <ele>310</ele>
        <time>2026-08-26T07:48:42Z</time>
      </trkpt>
      <trkpt lat="45.70538" lon="4.70731">
        <ele>310</ele>
        <time>2026-08-26T07:48:43Z</time>
      </trkpt>
      <trkpt lat="45.70537" lon="4.70723">
        <ele>310</ele>
        <time>2026-08-26T07:48:44Z</time>
      </trkpt>
      <trkpt lat="45.70536" lon="4.70716">
        <ele>310.2</ele>
        <time>2026-08-26T07:48:45Z</time>
      </trkpt>
      <trkpt lat="45.70535" lon="4.7071">
        <ele>310.6</ele>
        <time>2026-08-26T07:48:46Z</time>
      </trkpt>
      <trkpt lat="45.70534" lon="4.70703">
        <ele>311</ele>
        <time>2026-08-26T07:48:47Z</time>
      </trkpt>
      <trkpt lat="45.70532" lon="4.70697">
        <ele>311.2</ele>
        <time>2026-08-26T07:48:48Z</time>
      </trkpt>
      <trkpt lat="45.70531" lon="4.70691">
        <ele>311.6</ele>
        <time>2026-08-26T07:48:49Z</time>
      </trkpt>
      <trkpt lat="45.7053" lon="4.70684">
        <ele>311.8</ele>
        <time>2026-08-26T07:48:50Z</time>
      </trkpt>
      <trkpt lat="45.70529" lon="4.70678">
        <ele>312.2</ele>
        <time>2026-08-26T07:48:51Z</time>
      </trkpt>
      <trkpt lat="45.70528" lon="4.70672">
        <ele>312.2</ele>
        <time>2026-08-26T07:48:52Z</time>
      </trkpt>
      <trkpt lat="45.70528" lon="4.70666">
        <ele>312.4</ele>
        <time>2026-08-26T07:48:53Z</time>
      </trkpt>
      <trkpt lat="45.70527" lon="4.7066">
        <ele>312.6</ele>
        <time>2026-08-26T07:48:54Z</time>
      </trkpt>
      <trkpt lat="45.70527" lon="4.70654">
        <ele>312.8</ele>
        <time>2026-08-26T07:48:55Z</time>
      </trkpt>
      <trkpt lat="45.70526" lon="4.70648">
        <ele>313</ele>
        <time>2026-08-26T07:48:56Z</time>
      </trkpt>
      <trkpt lat="45.70525" lon="4.70643">
        <ele>313.4</ele>
        <time>2026-08-26T07:48:57Z</time>
      </trkpt>
      <trkpt lat="45.70525" lon="4.70637">
        <ele>313.8</ele>
        <time>2026-08-26T07:48:58Z</time>
      </trkpt>
      <trkpt lat="45.70524" lon="4.70632">
        <ele>314</ele>
        <time>2026-08-26T07:48:59Z</time>
      </trkpt>
      <trkpt lat="45.70524" lon="4.70627">
        <ele>314.2</ele>
        <time>2026-08-26T07:49:00Z</time>
      </trkpt>
      <trkpt lat="45.70524" lon="4.70621">
        <ele>314.6</ele>
        <time>2026-08-26T07:49:01Z</time>
      </trkpt>
      <trkpt lat="45.70523" lon="4.70616">
        <ele>314.8</ele>
        <time>2026-08-26T07:49:02Z</time>
      </trkpt>
      <trkpt lat="45.70523" lon="4.7061">
        <ele>315</ele>
        <time>2026-08-26T07:49:03Z</time>
      </trkpt>
      <trkpt lat="45.70522" lon="4.70605">
        <ele>315.2</ele>
        <time>2026-08-26T07:49:04Z</time>
      </trkpt>
      <trkpt lat="45.70522" lon="4.70599">
        <ele>315.4</ele>
        <time>2026-08-26T07:49:05Z</time>
      </trkpt>
      <trkpt lat="45.70522" lon="4.70594">
        <ele>315.6</ele>
        <time>2026-08-26T07:49:06Z</time>
      </trkpt>
      <trkpt lat="45.70522" lon="4.70589">
        <ele>315.8</ele>
        <time>2026-08-26T07:49:07Z</time>
      </trkpt>
      <trkpt lat="45.70521" lon="4.70583">
        <ele>316.2</ele>
        <time>2026-08-26T07:49:08Z</time>
      </trkpt>
      <trkpt lat="45.70521" lon="4.70579">
        <ele>316.4</ele>
        <time>2026-08-26T07:49:09Z</time>
      </trkpt>
      <trkpt lat="45.70521" lon="4.70574">
        <ele>316.6</ele>
        <time>2026-08-26T07:49:10Z</time>
      </trkpt>
      <trkpt lat="45.70521" lon="4.70569">
        <ele>316.8</ele>
        <time>2026-08-26T07:49:11Z</time>
      </trkpt>
      <trkpt lat="45.70521" lon="4.70563">
        <ele>317</ele>
        <time>2026-08-26T07:49:12Z</time>
      </trkpt>
      <trkpt lat="45.70521" lon="4.70558">
        <ele>317</ele>
        <time>2026-08-26T07:49:13Z</time>
      </trkpt>
      <trkpt lat="45.70521" lon="4.70552">
        <ele>317.2</ele>
        <time>2026-08-26T07:49:14Z</time>
      </trkpt>
      <trkpt lat="45.70521" lon="4.70547">
        <ele>317.4</ele>
        <time>2026-08-26T07:49:15Z</time>
      </trkpt>
      <trkpt lat="45.7052" lon="4.70541">
        <ele>317.4</ele>
        <time>2026-08-26T07:49:16Z</time>
      </trkpt>
      <trkpt lat="45.7052" lon="4.70534">
        <ele>317.6</ele>
        <time>2026-08-26T07:49:17Z</time>
      </trkpt>
      <trkpt lat="45.7052" lon="4.70528">
        <ele>317.8</ele>
        <time>2026-08-26T07:49:18Z</time>
      </trkpt>
      <trkpt lat="45.7052" lon="4.70522">
        <ele>317.8</ele>
        <time>2026-08-26T07:49:19Z</time>
      </trkpt>
      <trkpt lat="45.7052" lon="4.70516">
        <ele>317.8</ele>
        <time>2026-08-26T07:49:20Z</time>
      </trkpt>
      <trkpt lat="45.70521" lon="4.7051">
        <ele>317.8</ele>
        <time>2026-08-26T07:49:21Z</time>
      </trkpt>
      <trkpt lat="45.70521" lon="4.70504">
        <ele>317.8</ele>
        <time>2026-08-26T07:49:22Z</time>
      </trkpt>
      <trkpt lat="45.70521" lon="4.70497">
        <ele>317.8</ele>
        <time>2026-08-26T07:49:23Z</time>
      </trkpt>
      <trkpt lat="45.70521" lon="4.70491">
        <ele>317.8</ele>
        <time>2026-08-26T07:49:24Z</time>
      </trkpt>
      <trkpt lat="45.70521" lon="4.70484">
        <ele>317.8</ele>
        <time>2026-08-26T07:49:25Z</time>
      </trkpt>
      <trkpt lat="45.70521" lon="4.70477">
        <ele>317.8</ele>
        <time>2026-08-26T07:49:26Z</time>
      </trkpt>
      <trkpt lat="45.70521" lon="4.70471">
        <ele>317.8</ele>
        <time>2026-08-26T07:49:27Z</time>
      </trkpt>
      <trkpt lat="45.70521" lon="4.70464">
        <ele>317.8</ele>
        <time>2026-08-26T07:49:28Z</time>
      </trkpt>
      <trkpt lat="45.7052" lon="4.70457">
        <ele>317.8</ele>
        <time>2026-08-26T07:49:29Z</time>
      </trkpt>
      <trkpt lat="45.7052" lon="4.7045">
        <ele>317.6</ele>
        <time>2026-08-26T07:49:30Z</time>
      </trkpt>
      <trkpt lat="45.70519" lon="4.70443">
        <ele>317.6</ele>
        <time>2026-08-26T07:49:31Z</time>
      </trkpt>
      <trkpt lat="45.70519" lon="4.70435">
        <ele>317.4</ele>
        <time>2026-08-26T07:49:32Z</time>
      </trkpt>
      <trkpt lat="45.70518" lon="4.70428">
        <ele>317.4</ele>
        <time>2026-08-26T07:49:33Z</time>
      </trkpt>
      <trkpt lat="45.70517" lon="4.7042">
        <ele>317.2</ele>
        <time>2026-08-26T07:49:34Z</time>
      </trkpt>
      <trkpt lat="45.70516" lon="4.70412">
        <ele>317</ele>
        <time>2026-08-26T07:49:35Z</time>
      </trkpt>
      <trkpt lat="45.70515" lon="4.70405">
        <ele>316.6</ele>
        <time>2026-08-26T07:49:36Z</time>
      </trkpt>
      <trkpt lat="45.70514" lon="4.70397">
        <ele>316.4</ele>
        <time>2026-08-26T07:49:37Z</time>
      </trkpt>
      <trkpt lat="45.70513" lon="4.70388">
        <ele>316</ele>
        <time>2026-08-26T07:49:38Z</time>
      </trkpt>
      <trkpt lat="45.70511" lon="4.7038">
        <ele>315.6</ele>
        <time>2026-08-26T07:49:39Z</time>
      </trkpt>
      <trkpt lat="45.7051" lon="4.70371">
        <ele>315.2</ele>
        <time>2026-08-26T07:49:40Z</time>
      </trkpt>
      <trkpt lat="45.70508" lon="4.70362">
        <ele>315</ele>
        <time>2026-08-26T07:49:41Z</time>
      </trkpt>
      <trkpt lat="45.70507" lon="4.70352">
        <ele>314.6</ele>
        <time>2026-08-26T07:49:42Z</time>
      </trkpt>
      <trkpt lat="45.70507" lon="4.70342">
        <ele>314.2</ele>
        <time>2026-08-26T07:49:43Z</time>
      </trkpt>
      <trkpt lat="45.70507" lon="4.70332">
        <ele>313.6</ele>
        <time>2026-08-26T07:49:44Z</time>
      </trkpt>
      <trkpt lat="45.70508" lon="4.70321">
        <ele>313</ele>
        <time>2026-08-26T07:49:45Z</time>
      </trkpt>
      <trkpt lat="45.7051" lon="4.70311">
        <ele>312.4</ele>
        <time>2026-08-26T07:49:46Z</time>
      </trkpt>
      <trkpt lat="45.70512" lon="4.703">
        <ele>311.6</ele>
        <time>2026-08-26T07:49:47Z</time>
      </trkpt>
      <trkpt lat="45.70513" lon="4.7029">
        <ele>311.4</ele>
        <time>2026-08-26T07:49:48Z</time>
      </trkpt>
      <trkpt lat="45.70515" lon="4.70279">
        <ele>310.8</ele>
        <time>2026-08-26T07:49:49Z</time>
      </trkpt>
      <trkpt lat="45.70517" lon="4.70269">
        <ele>310.2</ele>
        <time>2026-08-26T07:49:50Z</time>
      </trkpt>
      <trkpt lat="45.70519" lon="4.70258">
        <ele>309.6</ele>
        <time>2026-08-26T07:49:51Z</time>
      </trkpt>
      <trkpt lat="45.7052" lon="4.70248">
        <ele>309.2</ele>
        <time>2026-08-26T07:49:52Z</time>
      </trkpt>
      <trkpt lat="45.70522" lon="4.70239">
        <ele>308.4</ele>
        <time>2026-08-26T07:49:53Z</time>
      </trkpt>
      <trkpt lat="45.70523" lon="4.70229">
        <ele>307.8</ele>
        <time>2026-08-26T07:49:54Z</time>
      </trkpt>
      <trkpt lat="45.70525" lon="4.70219">
        <ele>307.6</ele>
        <time>2026-08-26T07:49:55Z</time>
      </trkpt>
      <trkpt lat="45.70526" lon="4.70211">
        <ele>307.2</ele>
        <time>2026-08-26T07:49:56Z</time>
      </trkpt>
      <trkpt lat="45.70527" lon="4.70204">
        <ele>307</ele>
        <time>2026-08-26T07:49:57Z</time>
      </trkpt>
      <trkpt lat="45.70528" lon="4.70197">
        <ele>306.6</ele>
        <time>2026-08-26T07:49:58Z</time>
      </trkpt>
      <trkpt lat="45.7053" lon="4.70189">
        <ele>306.2</ele>
        <time>2026-08-26T07:49:59Z</time>
      </trkpt>
      <trkpt lat="45.70532" lon="4.70181">
        <ele>305.6</ele>
        <time>2026-08-26T07:50:00Z</time>
      </trkpt>
      <trkpt lat="45.70535" lon="4.70172">
        <ele>304.8</ele>
        <time>2026-08-26T07:50:01Z</time>
      </trkpt>
      <trkpt lat="45.70538" lon="4.70163">
        <ele>304.2</ele>
        <time>2026-08-26T07:50:02Z</time>
      </trkpt>
      <trkpt lat="45.70542" lon="4.70154">
        <ele>303.4</ele>
        <time>2026-08-26T07:50:03Z</time>
      </trkpt>
      <trkpt lat="45.70546" lon="4.70145">
        <ele>302.6</ele>
        <time>2026-08-26T07:50:04Z</time>
      </trkpt>
      <trkpt lat="45.70551" lon="4.70136">
        <ele>302</ele>
        <time>2026-08-26T07:50:05Z</time>
      </trkpt>
      <trkpt lat="45.70555" lon="4.70126">
        <ele>301.6</ele>
        <time>2026-08-26T07:50:06Z</time>
      </trkpt>
      <trkpt lat="45.70558" lon="4.70116">
        <ele>301</ele>
        <time>2026-08-26T07:50:07Z</time>
      </trkpt>
      <trkpt lat="45.70562" lon="4.70107">
        <ele>300.6</ele>
        <time>2026-08-26T07:50:08Z</time>
      </trkpt>
      <trkpt lat="45.70566" lon="4.70097">
        <ele>300.4</ele>
        <time>2026-08-26T07:50:09Z</time>
      </trkpt>
      <trkpt lat="45.70569" lon="4.70088">
        <ele>300.2</ele>
        <time>2026-08-26T07:50:10Z</time>
      </trkpt>
      <trkpt lat="45.70573" lon="4.70079">
        <ele>299.8</ele>
        <time>2026-08-26T07:50:11Z</time>
      </trkpt>
      <trkpt lat="45.70577" lon="4.7007">
        <ele>299.8</ele>
        <time>2026-08-26T07:50:12Z</time>
      </trkpt>
      <trkpt lat="45.7058" lon="4.70061">
        <ele>299.8</ele>
        <time>2026-08-26T07:50:13Z</time>
      </trkpt>
      <trkpt lat="45.70584" lon="4.70053">
        <ele>299.6</ele>
        <time>2026-08-26T07:50:14Z</time>
      </trkpt>
      <trkpt lat="45.70588" lon="4.70044">
        <ele>299.8</ele>
        <time>2026-08-26T07:50:15Z</time>
      </trkpt>
      <trkpt lat="45.70591" lon="4.70037">
        <ele>299.8</ele>
        <time>2026-08-26T07:50:16Z</time>
      </trkpt>
      <trkpt lat="45.70595" lon="4.7003">
        <ele>299.6</ele>
        <time>2026-08-26T07:50:17Z</time>
      </trkpt>
      <trkpt lat="45.706" lon="4.70024">
        <ele>299.4</ele>
        <time>2026-08-26T07:50:18Z</time>
      </trkpt>
      <trkpt lat="45.70604" lon="4.70018">
        <ele>299.2</ele>
        <time>2026-08-26T07:50:19Z</time>
      </trkpt>
      <trkpt lat="45.70609" lon="4.7001">
        <ele>299</ele>
        <time>2026-08-26T07:50:20Z</time>
      </trkpt>
      <trkpt lat="45.70614" lon="4.70002">
        <ele>298.6</ele>
        <time>2026-08-26T07:50:21Z</time>
      </trkpt>
      <trkpt lat="45.70618" lon="4.69992">
        <ele>298.2</ele>
        <time>2026-08-26T07:50:22Z</time>
      </trkpt>
      <trkpt lat="45.70622" lon="4.69982">
        <ele>297.6</ele>
        <time>2026-08-26T07:50:23Z</time>
      </trkpt>
      <trkpt lat="45.70624" lon="4.6997">
        <ele>296.4</ele>
        <time>2026-08-26T07:50:24Z</time>
      </trkpt>
      <trkpt lat="45.70625" lon="4.69958">
        <ele>294.8</ele>
        <time>2026-08-26T07:50:25Z</time>
      </trkpt>
      <trkpt lat="45.70626" lon="4.69945">
        <ele>294.4</ele>
        <time>2026-08-26T07:50:26Z</time>
      </trkpt>
      <trkpt lat="45.70626" lon="4.69932">
        <ele>292.6</ele>
        <time>2026-08-26T07:50:27Z</time>
      </trkpt>
      <trkpt lat="45.70625" lon="4.6992">
        <ele>291</ele>
        <time>2026-08-26T07:50:28Z</time>
      </trkpt>
      <trkpt lat="45.70622" lon="4.6991">
        <ele>290</ele>
        <time>2026-08-26T07:50:29Z</time>
      </trkpt>
      <trkpt lat="45.70618" lon="4.69901">
        <ele>289</ele>
        <time>2026-08-26T07:50:30Z</time>
      </trkpt>
      <trkpt lat="45.70612" lon="4.69892">
        <ele>288.6</ele>
        <time>2026-08-26T07:50:31Z</time>
      </trkpt>
      <trkpt lat="45.70606" lon="4.69886">
        <ele>288.4</ele>
        <time>2026-08-26T07:50:32Z</time>
      </trkpt>
      <trkpt lat="45.70599" lon="4.6988">
        <ele>288</ele>
        <time>2026-08-26T07:50:33Z</time>
      </trkpt>
      <trkpt lat="45.70592" lon="4.69876">
        <ele>288.2</ele>
        <time>2026-08-26T07:50:34Z</time>
      </trkpt>
      <trkpt lat="45.70586" lon="4.69871">
        <ele>288.2</ele>
        <time>2026-08-26T07:50:35Z</time>
      </trkpt>
      <trkpt lat="45.7058" lon="4.69867">
        <ele>288.4</ele>
        <time>2026-08-26T07:50:36Z</time>
      </trkpt>
      <trkpt lat="45.70573" lon="4.69863">
        <ele>288.6</ele>
        <time>2026-08-26T07:50:37Z</time>
      </trkpt>
      <trkpt lat="45.70568" lon="4.69861">
        <ele>289</ele>
        <time>2026-08-26T07:50:38Z</time>
      </trkpt>
      <trkpt lat="45.70562" lon="4.6986">
        <ele>289.2</ele>
        <time>2026-08-26T07:50:39Z</time>
      </trkpt>
      <trkpt lat="45.70557" lon="4.69859">
        <ele>289.8</ele>
        <time>2026-08-26T07:50:40Z</time>
      </trkpt>
      <trkpt lat="45.70552" lon="4.69859">
        <ele>290.4</ele>
        <time>2026-08-26T07:50:41Z</time>
      </trkpt>
      <trkpt lat="45.70547" lon="4.69858">
        <ele>291</ele>
        <time>2026-08-26T07:50:42Z</time>
      </trkpt>
      <trkpt lat="45.70544" lon="4.69858">
        <ele>291.6</ele>
        <time>2026-08-26T07:50:43Z</time>
      </trkpt>
      <trkpt lat="45.7054" lon="4.69857">
        <ele>292.2</ele>
        <time>2026-08-26T07:50:44Z</time>
      </trkpt>
      <trkpt lat="45.70537" lon="4.69856">
        <ele>292.8</ele>
        <time>2026-08-26T07:50:45Z</time>
      </trkpt>
      <trkpt lat="45.70533" lon="4.69855">
        <ele>293.2</ele>
        <time>2026-08-26T07:50:46Z</time>
      </trkpt>
      <trkpt lat="45.7053" lon="4.69853">
        <ele>293.8</ele>
        <time>2026-08-26T07:50:47Z</time>
      </trkpt>
      <trkpt lat="45.70527" lon="4.69851">
        <ele>294.2</ele>
        <time>2026-08-26T07:50:48Z</time>
      </trkpt>
      <trkpt lat="45.70524" lon="4.69849">
        <ele>294.6</ele>
        <time>2026-08-26T07:50:49Z</time>
      </trkpt>
      <trkpt lat="45.70521" lon="4.69847">
        <ele>295</ele>
        <time>2026-08-26T07:50:50Z</time>
      </trkpt>
      <trkpt lat="45.70518" lon="4.69846">
        <ele>295.4</ele>
        <time>2026-08-26T07:50:51Z</time>
      </trkpt>
      <trkpt lat="45.70516" lon="4.69844">
        <ele>295.8</ele>
        <time>2026-08-26T07:50:52Z</time>
      </trkpt>
      <trkpt lat="45.70513" lon="4.69843">
        <ele>296.2</ele>
        <time>2026-08-26T07:50:53Z</time>
      </trkpt>
      <trkpt lat="45.7051" lon="4.69842">
        <ele>296.4</ele>
        <time>2026-08-26T07:50:54Z</time>
      </trkpt>
      <trkpt lat="45.70508" lon="4.69841">
        <ele>296.8</ele>
        <time>2026-08-26T07:50:55Z</time>
      </trkpt>
      <trkpt lat="45.70505" lon="4.6984">
        <ele>297.2</ele>
        <time>2026-08-26T07:50:56Z</time>
      </trkpt>
      <trkpt lat="45.70502" lon="4.69839">
        <ele>297.4</ele>
        <time>2026-08-26T07:50:57Z</time>
      </trkpt>
      <trkpt lat="45.705" lon="4.69837">
        <ele>297.8</ele>
        <time>2026-08-26T07:50:58Z</time>
      </trkpt>
      <trkpt lat="45.70498" lon="4.69835">
        <ele>298.2</ele>
        <time>2026-08-26T07:50:59Z</time>
      </trkpt>
      <trkpt lat="45.70495" lon="4.69833">
        <ele>298.4</ele>
        <time>2026-08-26T07:51:00Z</time>
      </trkpt>
      <trkpt lat="45.70493" lon="4.6983">
        <ele>298.8</ele>
        <time>2026-08-26T07:51:01Z</time>
      </trkpt>
      <trkpt lat="45.70491" lon="4.69828">
        <ele>299.2</ele>
        <time>2026-08-26T07:51:02Z</time>
      </trkpt>
      <trkpt lat="45.70489" lon="4.69825">
        <ele>299.4</ele>
        <time>2026-08-26T07:51:03Z</time>
      </trkpt>
      <trkpt lat="45.70487" lon="4.69823">
        <ele>299.6</ele>
        <time>2026-08-26T07:51:04Z</time>
      </trkpt>
      <trkpt lat="45.70485" lon="4.69821">
        <ele>299.8</ele>
        <time>2026-08-26T07:51:05Z</time>
      </trkpt>
      <trkpt lat="45.70483" lon="4.69819">
        <ele>300</ele>
        <time>2026-08-26T07:51:06Z</time>
      </trkpt>
      <trkpt lat="45.70481" lon="4.69817">
        <ele>300.2</ele>
        <time>2026-08-26T07:51:07Z</time>
      </trkpt>
      <trkpt lat="45.7048" lon="4.69815">
        <ele>300.4</ele>
        <time>2026-08-26T07:51:08Z</time>
      </trkpt>
      <trkpt lat="45.70478" lon="4.69813">
        <ele>300.8</ele>
        <time>2026-08-26T07:51:09Z</time>
      </trkpt>
      <trkpt lat="45.70476" lon="4.6981">
        <ele>301</ele>
        <time>2026-08-26T07:51:10Z</time>
      </trkpt>
      <trkpt lat="45.70474" lon="4.69808">
        <ele>301.2</ele>
        <time>2026-08-26T07:51:11Z</time>
      </trkpt>
      <trkpt lat="45.70472" lon="4.69805">
        <ele>301.4</ele>
        <time>2026-08-26T07:51:12Z</time>
      </trkpt>
      <trkpt lat="45.7047" lon="4.69803">
        <ele>301.8</ele>
        <time>2026-08-26T07:51:13Z</time>
      </trkpt>
      <trkpt lat="45.70468" lon="4.698">
        <ele>302</ele>
        <time>2026-08-26T07:51:14Z</time>
      </trkpt>
      <trkpt lat="45.70467" lon="4.69798">
        <ele>302.2</ele>
        <time>2026-08-26T07:51:15Z</time>
      </trkpt>
      <trkpt lat="45.70465" lon="4.69797">
        <ele>302.4</ele>
        <time>2026-08-26T07:51:16Z</time>
      </trkpt>
      <trkpt lat="45.70463" lon="4.69795">
        <ele>302.8</ele>
        <time>2026-08-26T07:51:17Z</time>
      </trkpt>
      <trkpt lat="45.70461" lon="4.69793">
        <ele>303</ele>
        <time>2026-08-26T07:51:18Z</time>
      </trkpt>
      <trkpt lat="45.70459" lon="4.69791">
        <ele>303.2</ele>
        <time>2026-08-26T07:51:19Z</time>
      </trkpt>
      <trkpt lat="45.70458" lon="4.69789">
        <ele>303.4</ele>
        <time>2026-08-26T07:51:20Z</time>
      </trkpt>
      <trkpt lat="45.70456" lon="4.69787">
        <ele>303.8</ele>
        <time>2026-08-26T07:51:21Z</time>
      </trkpt>
      <trkpt lat="45.70454" lon="4.69785">
        <ele>304</ele>
        <time>2026-08-26T07:51:22Z</time>
      </trkpt>
      <trkpt lat="45.70452" lon="4.69783">
        <ele>304.4</ele>
        <time>2026-08-26T07:51:23Z</time>
      </trkpt>
      <trkpt lat="45.70451" lon="4.69781">
        <ele>304.6</ele>
        <time>2026-08-26T07:51:24Z</time>
      </trkpt>
      <trkpt lat="45.70449" lon="4.69779">
        <ele>304.8</ele>
        <time>2026-08-26T07:51:25Z</time>
      </trkpt>
      <trkpt lat="45.70448" lon="4.69777">
        <ele>305</ele>
        <time>2026-08-26T07:51:26Z</time>
      </trkpt>
      <trkpt lat="45.70446" lon="4.69774">
        <ele>305.2</ele>
        <time>2026-08-26T07:51:27Z</time>
      </trkpt>
      <trkpt lat="45.70444" lon="4.69772">
        <ele>305.4</ele>
        <time>2026-08-26T07:51:28Z</time>
      </trkpt>
      <trkpt lat="45.70442" lon="4.69769">
        <ele>305.6</ele>
        <time>2026-08-26T07:51:29Z</time>
      </trkpt>
      <trkpt lat="45.70439" lon="4.69767">
        <ele>305.8</ele>
        <time>2026-08-26T07:51:30Z</time>
      </trkpt>
      <trkpt lat="45.70437" lon="4.69765">
        <ele>306</ele>
        <time>2026-08-26T07:51:31Z</time>
      </trkpt>
      <trkpt lat="45.70435" lon="4.69763">
        <ele>306.2</ele>
        <time>2026-08-26T07:51:32Z</time>
      </trkpt>
      <trkpt lat="45.70433" lon="4.6976">
        <ele>306.4</ele>
        <time>2026-08-26T07:51:33Z</time>
      </trkpt>
      <trkpt lat="45.70431" lon="4.69758">
        <ele>306.4</ele>
        <time>2026-08-26T07:51:34Z</time>
      </trkpt>
      <trkpt lat="45.70429" lon="4.69755">
        <ele>306.8</ele>
        <time>2026-08-26T07:51:35Z</time>
      </trkpt>
      <trkpt lat="45.70427" lon="4.69753">
        <ele>307</ele>
        <time>2026-08-26T07:51:36Z</time>
      </trkpt>
      <trkpt lat="45.70426" lon="4.6975">
        <ele>307.2</ele>
        <time>2026-08-26T07:51:37Z</time>
      </trkpt>
      <trkpt lat="45.70424" lon="4.69748">
        <ele>307.2</ele>
        <time>2026-08-26T07:51:38Z</time>
      </trkpt>
      <trkpt lat="45.70422" lon="4.69745">
        <ele>307.4</ele>
        <time>2026-08-26T07:51:39Z</time>
      </trkpt>
      <trkpt lat="45.7042" lon="4.69742">
        <ele>307.6</ele>
        <time>2026-08-26T07:51:40Z</time>
      </trkpt>
      <trkpt lat="45.70418" lon="4.6974">
        <ele>307.6</ele>
        <time>2026-08-26T07:51:41Z</time>
      </trkpt>
      <trkpt lat="45.70416" lon="4.69737">
        <ele>307.8</ele>
        <time>2026-08-26T07:51:42Z</time>
      </trkpt>
      <trkpt lat="45.70414" lon="4.69734">
        <ele>307.8</ele>
        <time>2026-08-26T07:51:43Z</time>
      </trkpt>
      <trkpt lat="45.70412" lon="4.69731">
        <ele>307.8</ele>
        <time>2026-08-26T07:51:44Z</time>
      </trkpt>
      <trkpt lat="45.7041" lon="4.69728">
        <ele>308</ele>
        <time>2026-08-26T07:51:45Z</time>
      </trkpt>
      <trkpt lat="45.70407" lon="4.69725">
        <ele>308</ele>
        <time>2026-08-26T07:51:46Z</time>
      </trkpt>
      <trkpt lat="45.70404" lon="4.69722">
        <ele>308</ele>
        <time>2026-08-26T07:51:47Z</time>
      </trkpt>
      <trkpt lat="45.70401" lon="4.69719">
        <ele>308.2</ele>
        <time>2026-08-26T07:51:48Z</time>
      </trkpt>
      <trkpt lat="45.70399" lon="4.69716">
        <ele>308.2</ele>
        <time>2026-08-26T07:51:49Z</time>
      </trkpt>
      <trkpt lat="45.70396" lon="4.69713">
        <ele>308.4</ele>
        <time>2026-08-26T07:51:50Z</time>
      </trkpt>
      <trkpt lat="45.70393" lon="4.6971">
        <ele>308.4</ele>
        <time>2026-08-26T07:51:51Z</time>
      </trkpt>
      <trkpt lat="45.7039" lon="4.69707">
        <ele>308.4</ele>
        <time>2026-08-26T07:51:52Z</time>
      </trkpt>
      <trkpt lat="45.70387" lon="4.69703">
        <ele>308.4</ele>
        <time>2026-08-26T07:51:53Z</time>
      </trkpt>
      <trkpt lat="45.70384" lon="4.697">
        <ele>308.4</ele>
        <time>2026-08-26T07:51:54Z</time>
      </trkpt>
      <trkpt lat="45.70381" lon="4.69697">
        <ele>308.4</ele>
        <time>2026-08-26T07:51:55Z</time>
      </trkpt>
      <trkpt lat="45.70379" lon="4.69693">
        <ele>308.6</ele>
        <time>2026-08-26T07:51:56Z</time>
      </trkpt>
      <trkpt lat="45.70376" lon="4.6969">
        <ele>308.6</ele>
        <time>2026-08-26T07:51:57Z</time>
      </trkpt>
      <trkpt lat="45.70373" lon="4.69687">
        <ele>308.8</ele>
        <time>2026-08-26T07:51:58Z</time>
      </trkpt>
      <trkpt lat="45.7037" lon="4.69684">
        <ele>308.8</ele>
        <time>2026-08-26T07:51:59Z</time>
      </trkpt>
      <trkpt lat="45.70367" lon="4.69681">
        <ele>309</ele>
        <time>2026-08-26T07:52:00Z</time>
      </trkpt>
      <trkpt lat="45.70364" lon="4.69677">
        <ele>309.2</ele>
        <time>2026-08-26T07:52:01Z</time>
      </trkpt>
      <trkpt lat="45.70361" lon="4.69674">
        <ele>309.2</ele>
        <time>2026-08-26T07:52:02Z</time>
      </trkpt>
      <trkpt lat="45.70358" lon="4.69671">
        <ele>309.4</ele>
        <time>2026-08-26T07:52:03Z</time>
      </trkpt>
      <trkpt lat="45.70355" lon="4.69668">
        <ele>309.4</ele>
        <time>2026-08-26T07:52:04Z</time>
      </trkpt>
      <trkpt lat="45.70351" lon="4.69665">
        <ele>309.6</ele>
        <time>2026-08-26T07:52:05Z</time>
      </trkpt>
      <trkpt lat="45.70348" lon="4.69661">
        <ele>309.6</ele>
        <time>2026-08-26T07:52:06Z</time>
      </trkpt>
      <trkpt lat="45.70345" lon="4.69658">
        <ele>309.6</ele>
        <time>2026-08-26T07:52:07Z</time>
      </trkpt>
      <trkpt lat="45.70342" lon="4.69654">
        <ele>309.6</ele>
        <time>2026-08-26T07:52:08Z</time>
      </trkpt>
      <trkpt lat="45.70339" lon="4.69651">
        <ele>309.8</ele>
        <time>2026-08-26T07:52:09Z</time>
      </trkpt>
      <trkpt lat="45.70335" lon="4.69647">
        <ele>309.8</ele>
        <time>2026-08-26T07:52:10Z</time>
      </trkpt>
      <trkpt lat="45.70332" lon="4.69643">
        <ele>310</ele>
        <time>2026-08-26T07:52:11Z</time>
      </trkpt>
      <trkpt lat="45.70329" lon="4.6964">
        <ele>310.2</ele>
        <time>2026-08-26T07:52:12Z</time>
      </trkpt>
      <trkpt lat="45.70326" lon="4.69637">
        <ele>310.2</ele>
        <time>2026-08-26T07:52:13Z</time>
      </trkpt>
      <trkpt lat="45.70323" lon="4.69633">
        <ele>310.4</ele>
        <time>2026-08-26T07:52:14Z</time>
      </trkpt>
      <trkpt lat="45.70319" lon="4.6963">
        <ele>310.4</ele>
        <time>2026-08-26T07:52:15Z</time>
      </trkpt>
      <trkpt lat="45.70316" lon="4.69627">
        <ele>310.6</ele>
        <time>2026-08-26T07:52:16Z</time>
      </trkpt>
      <trkpt lat="45.70313" lon="4.69623">
        <ele>310.6</ele>
        <time>2026-08-26T07:52:17Z</time>
      </trkpt>
      <trkpt lat="45.70309" lon="4.6962">
        <ele>310.6</ele>
        <time>2026-08-26T07:52:18Z</time>
      </trkpt>
      <trkpt lat="45.70306" lon="4.69616">
        <ele>310.6</ele>
        <time>2026-08-26T07:52:19Z</time>
      </trkpt>
      <trkpt lat="45.70303" lon="4.69612">
        <ele>310.6</ele>
        <time>2026-08-26T07:52:20Z</time>
      </trkpt>
      <trkpt lat="45.70299" lon="4.69608">
        <ele>310.6</ele>
        <time>2026-08-26T07:52:21Z</time>
      </trkpt>
      <trkpt lat="45.70296" lon="4.69604">
        <ele>310.8</ele>
        <time>2026-08-26T07:52:22Z</time>
      </trkpt>
      <trkpt lat="45.70293" lon="4.69601">
        <ele>310.8</ele>
        <time>2026-08-26T07:52:23Z</time>
      </trkpt>
      <trkpt lat="45.70289" lon="4.69597">
        <ele>310.8</ele>
        <time>2026-08-26T07:52:24Z</time>
      </trkpt>
      <trkpt lat="45.70285" lon="4.69593">
        <ele>311</ele>
        <time>2026-08-26T07:52:25Z</time>
      </trkpt>
      <trkpt lat="45.70282" lon="4.69589">
        <ele>311</ele>
        <time>2026-08-26T07:52:26Z</time>
      </trkpt>
      <trkpt lat="45.70278" lon="4.69585">
        <ele>311</ele>
        <time>2026-08-26T07:52:27Z</time>
      </trkpt>
      <trkpt lat="45.70274" lon="4.6958">
        <ele>311</ele>
        <time>2026-08-26T07:52:28Z</time>
      </trkpt>
      <trkpt lat="45.70271" lon="4.69576">
        <ele>311</ele>
        <time>2026-08-26T07:52:29Z</time>
      </trkpt>
      <trkpt lat="45.70267" lon="4.69571">
        <ele>311</ele>
        <time>2026-08-26T07:52:30Z</time>
      </trkpt>
      <trkpt lat="45.70263" lon="4.69567">
        <ele>311</ele>
        <time>2026-08-26T07:52:31Z</time>
      </trkpt>
      <trkpt lat="45.70259" lon="4.69562">
        <ele>311.2</ele>
        <time>2026-08-26T07:52:32Z</time>
      </trkpt>
      <trkpt lat="45.70255" lon="4.69558">
        <ele>311.2</ele>
        <time>2026-08-26T07:52:33Z</time>
      </trkpt>
      <trkpt lat="45.70252" lon="4.69553">
        <ele>311.2</ele>
        <time>2026-08-26T07:52:34Z</time>
      </trkpt>
      <trkpt lat="45.70248" lon="4.69548">
        <ele>311.2</ele>
        <time>2026-08-26T07:52:35Z</time>
      </trkpt>
      <trkpt lat="45.70245" lon="4.69543">
        <ele>311.2</ele>
        <time>2026-08-26T07:52:36Z</time>
      </trkpt>
      <trkpt lat="45.70241" lon="4.69537">
        <ele>311.2</ele>
        <time>2026-08-26T07:52:37Z</time>
      </trkpt>
      <trkpt lat="45.70238" lon="4.69531">
        <ele>311.2</ele>
        <time>2026-08-26T07:52:38Z</time>
      </trkpt>
      <trkpt lat="45.70234" lon="4.69526">
        <ele>311</ele>
        <time>2026-08-26T07:52:39Z</time>
      </trkpt>
      <trkpt lat="45.7023" lon="4.6952">
        <ele>311</ele>
        <time>2026-08-26T07:52:40Z</time>
      </trkpt>
      <trkpt lat="45.70227" lon="4.69515">
        <ele>311</ele>
        <time>2026-08-26T07:52:41Z</time>
      </trkpt>
      <trkpt lat="45.70223" lon="4.69509">
        <ele>310.8</ele>
        <time>2026-08-26T07:52:42Z</time>
      </trkpt>
      <trkpt lat="45.70219" lon="4.69503">
        <ele>310.8</ele>
        <time>2026-08-26T07:52:43Z</time>
      </trkpt>
      <trkpt lat="45.70216" lon="4.69497">
        <ele>310.6</ele>
        <time>2026-08-26T07:52:44Z</time>
      </trkpt>
      <trkpt lat="45.70212" lon="4.69491">
        <ele>310.4</ele>
        <time>2026-08-26T07:52:45Z</time>
      </trkpt>
      <trkpt lat="45.70208" lon="4.69485">
        <ele>310.4</ele>
        <time>2026-08-26T07:52:46Z</time>
      </trkpt>
      <trkpt lat="45.70204" lon="4.69479">
        <ele>310.2</ele>
        <time>2026-08-26T07:52:47Z</time>
      </trkpt>
      <trkpt lat="45.70199" lon="4.69472">
        <ele>310</ele>
        <time>2026-08-26T07:52:48Z</time>
      </trkpt>
      <trkpt lat="45.70195" lon="4.69466">
        <ele>310</ele>
        <time>2026-08-26T07:52:49Z</time>
      </trkpt>
      <trkpt lat="45.70191" lon="4.69459">
        <ele>309.6</ele>
        <time>2026-08-26T07:52:50Z</time>
      </trkpt>
      <trkpt lat="45.70186" lon="4.69452">
        <ele>309.4</ele>
        <time>2026-08-26T07:52:51Z</time>
      </trkpt>
      <trkpt lat="45.70182" lon="4.69445">
        <ele>309</ele>
        <time>2026-08-26T07:52:52Z</time>
      </trkpt>
      <trkpt lat="45.70177" lon="4.69438">
        <ele>308.8</ele>
        <time>2026-08-26T07:52:53Z</time>
      </trkpt>
      <trkpt lat="45.70172" lon="4.6943">
        <ele>308.2</ele>
        <time>2026-08-26T07:52:54Z</time>
      </trkpt>
      <trkpt lat="45.70167" lon="4.69423">
        <ele>307.8</ele>
        <time>2026-08-26T07:52:55Z</time>
      </trkpt>
      <trkpt lat="45.70162" lon="4.69415">
        <ele>307.6</ele>
        <time>2026-08-26T07:52:56Z</time>
      </trkpt>
      <trkpt lat="45.70156" lon="4.69408">
        <ele>307.2</ele>
        <time>2026-08-26T07:52:57Z</time>
      </trkpt>
      <trkpt lat="45.70151" lon="4.694">
        <ele>306.8</ele>
        <time>2026-08-26T07:52:58Z</time>
      </trkpt>
      <trkpt lat="45.70145" lon="4.69393">
        <ele>306.6</ele>
        <time>2026-08-26T07:52:59Z</time>
      </trkpt>
      <trkpt lat="45.70139" lon="4.69386">
        <ele>306.2</ele>
        <time>2026-08-26T07:53:00Z</time>
      </trkpt>
      <trkpt lat="45.70134" lon="4.69378">
        <ele>306</ele>
        <time>2026-08-26T07:53:01Z</time>
      </trkpt>
      <trkpt lat="45.7013" lon="4.69369">
        <ele>305.6</ele>
        <time>2026-08-26T07:53:02Z</time>
      </trkpt>
      <trkpt lat="45.70126" lon="4.6936">
        <ele>305.4</ele>
        <time>2026-08-26T07:53:03Z</time>
      </trkpt>
      <trkpt lat="45.70125" lon="4.6935">
        <ele>305.2</ele>
        <time>2026-08-26T07:53:04Z</time>
      </trkpt>
      <trkpt lat="45.70125" lon="4.69342">
        <ele>305</ele>
        <time>2026-08-26T07:53:05Z</time>
      </trkpt>
      <trkpt lat="45.70127" lon="4.69333">
        <ele>304.8</ele>
        <time>2026-08-26T07:53:06Z</time>
      </trkpt>
      <trkpt lat="45.70129" lon="4.69325">
        <ele>304.8</ele>
        <time>2026-08-26T07:53:07Z</time>
      </trkpt>
      <trkpt lat="45.70129" lon="4.69317">
        <ele>304.8</ele>
        <time>2026-08-26T07:53:08Z</time>
      </trkpt>
      <trkpt lat="45.70127" lon="4.69309">
        <ele>304.8</ele>
        <time>2026-08-26T07:53:09Z</time>
      </trkpt>
      <trkpt lat="45.70124" lon="4.69302">
        <ele>304.8</ele>
        <time>2026-08-26T07:53:10Z</time>
      </trkpt>
      <trkpt lat="45.70118" lon="4.69298">
        <ele>304.8</ele>
        <time>2026-08-26T07:53:11Z</time>
      </trkpt>
      <trkpt lat="45.70112" lon="4.69297">
        <ele>304.8</ele>
        <time>2026-08-26T07:53:12Z</time>
      </trkpt>
      <trkpt lat="45.70106" lon="4.69296">
        <ele>304.6</ele>
        <time>2026-08-26T07:53:13Z</time>
      </trkpt>
      <trkpt lat="45.701" lon="4.69293">
        <ele>304.4</ele>
        <time>2026-08-26T07:53:14Z</time>
      </trkpt>
      <trkpt lat="45.70095" lon="4.69288">
        <ele>304.2</ele>
        <time>2026-08-26T07:53:15Z</time>
      </trkpt>
      <trkpt lat="45.70089" lon="4.69282">
        <ele>304</ele>
        <time>2026-08-26T07:53:16Z</time>
      </trkpt>
      <trkpt lat="45.70084" lon="4.69276">
        <ele>303.8</ele>
        <time>2026-08-26T07:53:17Z</time>
      </trkpt>
      <trkpt lat="45.70078" lon="4.69269">
        <ele>303.4</ele>
        <time>2026-08-26T07:53:18Z</time>
      </trkpt>
      <trkpt lat="45.70073" lon="4.69262">
        <ele>303.2</ele>
        <time>2026-08-26T07:53:19Z</time>
      </trkpt>
      <trkpt lat="45.70069" lon="4.69255">
        <ele>303.2</ele>
        <time>2026-08-26T07:53:20Z</time>
      </trkpt>
      <trkpt lat="45.70064" lon="4.69247">
        <ele>303.2</ele>
        <time>2026-08-26T07:53:21Z</time>
      </trkpt>
      <trkpt lat="45.7006" lon="4.6924">
        <ele>303.2</ele>
        <time>2026-08-26T07:53:22Z</time>
      </trkpt>
      <trkpt lat="45.70056" lon="4.69233">
        <ele>303.2</ele>
        <time>2026-08-26T07:53:23Z</time>
      </trkpt>
      <trkpt lat="45.70052" lon="4.69225">
        <ele>303.4</ele>
        <time>2026-08-26T07:53:24Z</time>
      </trkpt>
      <trkpt lat="45.7005" lon="4.69216">
        <ele>303.4</ele>
        <time>2026-08-26T07:53:25Z</time>
      </trkpt>
      <trkpt lat="45.70048" lon="4.69207">
        <ele>303.4</ele>
        <time>2026-08-26T07:53:26Z</time>
      </trkpt>
      <trkpt lat="45.70046" lon="4.69198">
        <ele>303.6</ele>
        <time>2026-08-26T07:53:27Z</time>
      </trkpt>
      <trkpt lat="45.70043" lon="4.6919">
        <ele>304</ele>
        <time>2026-08-26T07:53:28Z</time>
      </trkpt>
      <trkpt lat="45.70039" lon="4.69183">
        <ele>304.2</ele>
        <time>2026-08-26T07:53:29Z</time>
      </trkpt>
      <trkpt lat="45.70036" lon="4.69176">
        <ele>304.4</ele>
        <time>2026-08-26T07:53:30Z</time>
      </trkpt>
      <trkpt lat="45.70033" lon="4.69169">
        <ele>304.8</ele>
        <time>2026-08-26T07:53:31Z</time>
      </trkpt>
      <trkpt lat="45.7003" lon="4.69161">
        <ele>304.8</ele>
        <time>2026-08-26T07:53:32Z</time>
      </trkpt>
      <trkpt lat="45.70027" lon="4.69154">
        <ele>305</ele>
        <time>2026-08-26T07:53:33Z</time>
      </trkpt>
      <trkpt lat="45.70024" lon="4.69146">
        <ele>305.2</ele>
        <time>2026-08-26T07:53:34Z</time>
      </trkpt>
      <trkpt lat="45.70021" lon="4.69139">
        <ele>305.2</ele>
        <time>2026-08-26T07:53:35Z</time>
      </trkpt>
      <trkpt lat="45.70019" lon="4.69131">
        <ele>305.4</ele>
        <time>2026-08-26T07:53:36Z</time>
      </trkpt>
      <trkpt lat="45.70016" lon="4.69123">
        <ele>305.4</ele>
        <time>2026-08-26T07:53:37Z</time>
      </trkpt>
      <trkpt lat="45.70014" lon="4.69116">
        <ele>305.4</ele>
        <time>2026-08-26T07:53:38Z</time>
      </trkpt>
      <trkpt lat="45.70012" lon="4.69108">
        <ele>305.6</ele>
        <time>2026-08-26T07:53:39Z</time>
      </trkpt>
      <trkpt lat="45.7001" lon="4.691">
        <ele>305.8</ele>
        <time>2026-08-26T07:53:40Z</time>
      </trkpt>
      <trkpt lat="45.70008" lon="4.69092">
        <ele>305.8</ele>
        <time>2026-08-26T07:53:41Z</time>
      </trkpt>
      <trkpt lat="45.70006" lon="4.69085">
        <ele>306</ele>
        <time>2026-08-26T07:53:42Z</time>
      </trkpt>
      <trkpt lat="45.70004" lon="4.69077">
        <ele>306.2</ele>
        <time>2026-08-26T07:53:43Z</time>
      </trkpt>
      <trkpt lat="45.70003" lon="4.69069">
        <ele>306.2</ele>
        <time>2026-08-26T07:53:44Z</time>
      </trkpt>
      <trkpt lat="45.70001" lon="4.69062">
        <ele>306.4</ele>
        <time>2026-08-26T07:53:45Z</time>
      </trkpt>
      <trkpt lat="45.69999" lon="4.69055">
        <ele>306.6</ele>
        <time>2026-08-26T07:53:46Z</time>
      </trkpt>
      <trkpt lat="45.69997" lon="4.69047">
        <ele>306.8</ele>
        <time>2026-08-26T07:53:47Z</time>
      </trkpt>
      <trkpt lat="45.69996" lon="4.6904">
        <ele>307</ele>
        <time>2026-08-26T07:53:48Z</time>
      </trkpt>
      <trkpt lat="45.69993" lon="4.69033">
        <ele>307</ele>
        <time>2026-08-26T07:53:49Z</time>
      </trkpt>
      <trkpt lat="45.69991" lon="4.69026">
        <ele>307.2</ele>
        <time>2026-08-26T07:53:50Z</time>
      </trkpt>
      <trkpt lat="45.69989" lon="4.69019">
        <ele>307.4</ele>
        <time>2026-08-26T07:53:51Z</time>
      </trkpt>
      <trkpt lat="45.69988" lon="4.69012">
        <ele>307.6</ele>
        <time>2026-08-26T07:53:52Z</time>
      </trkpt>
      <trkpt lat="45.69986" lon="4.69005">
        <ele>307.8</ele>
        <time>2026-08-26T07:53:53Z</time>
      </trkpt>
      <trkpt lat="45.69984" lon="4.68998">
        <ele>308</ele>
        <time>2026-08-26T07:53:54Z</time>
      </trkpt>
      <trkpt lat="45.69982" lon="4.68991">
        <ele>308.2</ele>
        <time>2026-08-26T07:53:55Z</time>
      </trkpt>
      <trkpt lat="45.6998" lon="4.68984">
        <ele>308.4</ele>
        <time>2026-08-26T07:53:56Z</time>
      </trkpt>
      <trkpt lat="45.69978" lon="4.68977">
        <ele>308.6</ele>
        <time>2026-08-26T07:53:57Z</time>
      </trkpt>
      <trkpt lat="45.69977" lon="4.6897">
        <ele>308.8</ele>
        <time>2026-08-26T07:53:58Z</time>
      </trkpt>
      <trkpt lat="45.69975" lon="4.68964">
        <ele>309</ele>
        <time>2026-08-26T07:53:59Z</time>
      </trkpt>
      <trkpt lat="45.69974" lon="4.68958">
        <ele>309</ele>
        <time>2026-08-26T07:54:00Z</time>
      </trkpt>
      <trkpt lat="45.69972" lon="4.68952">
        <ele>309</ele>
        <time>2026-08-26T07:54:01Z</time>
      </trkpt>
      <trkpt lat="45.6997" lon="4.68946">
        <ele>309.2</ele>
        <time>2026-08-26T07:54:02Z</time>
      </trkpt>
      <trkpt lat="45.69967" lon="4.68939">
        <ele>309.2</ele>
        <time>2026-08-26T07:54:03Z</time>
      </trkpt>
      <trkpt lat="45.69965" lon="4.68933">
        <ele>309.4</ele>
        <time>2026-08-26T07:54:04Z</time>
      </trkpt>
      <trkpt lat="45.69962" lon="4.68928">
        <ele>309.6</ele>
        <time>2026-08-26T07:54:05Z</time>
      </trkpt>
      <trkpt lat="45.69959" lon="4.68922">
        <ele>309.6</ele>
        <time>2026-08-26T07:54:06Z</time>
      </trkpt>
      <trkpt lat="45.69956" lon="4.68917">
        <ele>309.8</ele>
        <time>2026-08-26T07:54:07Z</time>
      </trkpt>
      <trkpt lat="45.69954" lon="4.68912">
        <ele>310</ele>
        <time>2026-08-26T07:54:08Z</time>
      </trkpt>
      <trkpt lat="45.69951" lon="4.68906">
        <ele>310.2</ele>
        <time>2026-08-26T07:54:09Z</time>
      </trkpt>
      <trkpt lat="45.69948" lon="4.68901">
        <ele>310.4</ele>
        <time>2026-08-26T07:54:10Z</time>
      </trkpt>
      <trkpt lat="45.69946" lon="4.68896">
        <ele>310.4</ele>
        <time>2026-08-26T07:54:11Z</time>
      </trkpt>
      <trkpt lat="45.69944" lon="4.6889">
        <ele>310.6</ele>
        <time>2026-08-26T07:54:12Z</time>
      </trkpt>
      <trkpt lat="45.69942" lon="4.68885">
        <ele>310.8</ele>
        <time>2026-08-26T07:54:13Z</time>
      </trkpt>
      <trkpt lat="45.6994" lon="4.6888">
        <ele>311</ele>
        <time>2026-08-26T07:54:14Z</time>
      </trkpt>
      <trkpt lat="45.69938" lon="4.68875">
        <ele>311.2</ele>
        <time>2026-08-26T07:54:15Z</time>
      </trkpt>
      <trkpt lat="45.69936" lon="4.6887">
        <ele>311.4</ele>
        <time>2026-08-26T07:54:16Z</time>
      </trkpt>
      <trkpt lat="45.69934" lon="4.68865">
        <ele>311.6</ele>
        <time>2026-08-26T07:54:17Z</time>
      </trkpt>
      <trkpt lat="45.69931" lon="4.68861">
        <ele>311.8</ele>
        <time>2026-08-26T07:54:18Z</time>
      </trkpt>
      <trkpt lat="45.69929" lon="4.68857">
        <ele>312</ele>
        <time>2026-08-26T07:54:19Z</time>
      </trkpt>
      <trkpt lat="45.69926" lon="4.68853">
        <ele>312.2</ele>
        <time>2026-08-26T07:54:20Z</time>
      </trkpt>
      <trkpt lat="45.69924" lon="4.68849">
        <ele>312.6</ele>
        <time>2026-08-26T07:54:21Z</time>
      </trkpt>
      <trkpt lat="45.69922" lon="4.68846">
        <ele>312.8</ele>
        <time>2026-08-26T07:54:22Z</time>
      </trkpt>
      <trkpt lat="45.6992" lon="4.68843">
        <ele>313</ele>
        <time>2026-08-26T07:54:23Z</time>
      </trkpt>
      <trkpt lat="45.69917" lon="4.6884">
        <ele>313.4</ele>
        <time>2026-08-26T07:54:24Z</time>
      </trkpt>
      <trkpt lat="45.69915" lon="4.68837">
        <ele>313.6</ele>
        <time>2026-08-26T07:54:25Z</time>
      </trkpt>
      <trkpt lat="45.69912" lon="4.68834">
        <ele>314</ele>
        <time>2026-08-26T07:54:26Z</time>
      </trkpt>
      <trkpt lat="45.6991" lon="4.68832">
        <ele>314.2</ele>
        <time>2026-08-26T07:54:27Z</time>
      </trkpt>
      <trkpt lat="45.69908" lon="4.68829">
        <ele>314.4</ele>
        <time>2026-08-26T07:54:28Z</time>
      </trkpt>
      <trkpt lat="45.69907" lon="4.68825">
        <ele>314.6</ele>
        <time>2026-08-26T07:54:29Z</time>
      </trkpt>
      <trkpt lat="45.69907" lon="4.6882">
        <ele>314.8</ele>
        <time>2026-08-26T07:54:30Z</time>
      </trkpt>
      <trkpt lat="45.69907" lon="4.68816">
        <ele>315</ele>
        <time>2026-08-26T07:54:31Z</time>
      </trkpt>
      <trkpt lat="45.69907" lon="4.68812">
        <ele>315</ele>
        <time>2026-08-26T07:54:32Z</time>
      </trkpt>
      <trkpt lat="45.69908" lon="4.68808">
        <ele>315.2</ele>
        <time>2026-08-26T07:54:33Z</time>
      </trkpt>
      <trkpt lat="45.69908" lon="4.68803">
        <ele>315.4</ele>
        <time>2026-08-26T07:54:34Z</time>
      </trkpt>
      <trkpt lat="45.69908" lon="4.68799">
        <ele>315.6</ele>
        <time>2026-08-26T07:54:35Z</time>
      </trkpt>
      <trkpt lat="45.69909" lon="4.68795">
        <ele>315.6</ele>
        <time>2026-08-26T07:54:36Z</time>
      </trkpt>
      <trkpt lat="45.69909" lon="4.6879">
        <ele>315.8</ele>
        <time>2026-08-26T07:54:37Z</time>
      </trkpt>
      <trkpt lat="45.69909" lon="4.68786">
        <ele>316</ele>
        <time>2026-08-26T07:54:38Z</time>
      </trkpt>
      <trkpt lat="45.69909" lon="4.68781">
        <ele>316</ele>
        <time>2026-08-26T07:54:39Z</time>
      </trkpt>
      <trkpt lat="45.6991" lon="4.68777">
        <ele>316.2</ele>
        <time>2026-08-26T07:54:40Z</time>
      </trkpt>
      <trkpt lat="45.6991" lon="4.68772">
        <ele>316.4</ele>
        <time>2026-08-26T07:54:41Z</time>
      </trkpt>
      <trkpt lat="45.69911" lon="4.68768">
        <ele>316.8</ele>
        <time>2026-08-26T07:54:42Z</time>
      </trkpt>
      <trkpt lat="45.69911" lon="4.68763">
        <ele>317</ele>
        <time>2026-08-26T07:54:43Z</time>
      </trkpt>
      <trkpt lat="45.69912" lon="4.68759">
        <ele>317.2</ele>
        <time>2026-08-26T07:54:44Z</time>
      </trkpt>
      <trkpt lat="45.69913" lon="4.68755">
        <ele>317.4</ele>
        <time>2026-08-26T07:54:45Z</time>
      </trkpt>
      <trkpt lat="45.69914" lon="4.68752">
        <ele>317.6</ele>
        <time>2026-08-26T07:54:46Z</time>
      </trkpt>
      <trkpt lat="45.69915" lon="4.68748">
        <ele>317.8</ele>
        <time>2026-08-26T07:54:47Z</time>
      </trkpt>
      <trkpt lat="45.69917" lon="4.68745">
        <ele>318</ele>
        <time>2026-08-26T07:54:48Z</time>
      </trkpt>
      <trkpt lat="45.69918" lon="4.68741">
        <ele>318.2</ele>
        <time>2026-08-26T07:54:49Z</time>
      </trkpt>
      <trkpt lat="45.6992" lon="4.68738">
        <ele>318.2</ele>
        <time>2026-08-26T07:54:50Z</time>
      </trkpt>
      <trkpt lat="45.69922" lon="4.68734">
        <ele>318.2</ele>
        <time>2026-08-26T07:54:51Z</time>
      </trkpt>
      <trkpt lat="45.69924" lon="4.6873">
        <ele>318.2</ele>
        <time>2026-08-26T07:54:52Z</time>
      </trkpt>
      <trkpt lat="45.69926" lon="4.68725">
        <ele>318.2</ele>
        <time>2026-08-26T07:54:53Z</time>
      </trkpt>
      <trkpt lat="45.69927" lon="4.68721">
        <ele>318.4</ele>
        <time>2026-08-26T07:54:54Z</time>
      </trkpt>
      <trkpt lat="45.69929" lon="4.68717">
        <ele>318.4</ele>
        <time>2026-08-26T07:54:55Z</time>
      </trkpt>
      <trkpt lat="45.6993" lon="4.68713">
        <ele>318.6</ele>
        <time>2026-08-26T07:54:56Z</time>
      </trkpt>
      <trkpt lat="45.69932" lon="4.68709">
        <ele>318.8</ele>
        <time>2026-08-26T07:54:57Z</time>
      </trkpt>
      <trkpt lat="45.69934" lon="4.68706">
        <ele>318.8</ele>
        <time>2026-08-26T07:54:58Z</time>
      </trkpt>
      <trkpt lat="45.69937" lon="4.68703">
        <ele>318.8</ele>
        <time>2026-08-26T07:54:59Z</time>
      </trkpt>
      <trkpt lat="45.69939" lon="4.687">
        <ele>318.8</ele>
        <time>2026-08-26T07:55:00Z</time>
      </trkpt>
      <trkpt lat="45.69942" lon="4.68697">
        <ele>318.8</ele>
        <time>2026-08-26T07:55:01Z</time>
      </trkpt>
      <trkpt lat="45.69945" lon="4.68694">
        <ele>318.8</ele>
        <time>2026-08-26T07:55:02Z</time>
      </trkpt>
      <trkpt lat="45.69947" lon="4.68692">
        <ele>319</ele>
        <time>2026-08-26T07:55:03Z</time>
      </trkpt>
      <trkpt lat="45.6995" lon="4.68688">
        <ele>319</ele>
        <time>2026-08-26T07:55:04Z</time>
      </trkpt>
      <trkpt lat="45.69951" lon="4.68684">
        <ele>319.2</ele>
        <time>2026-08-26T07:55:05Z</time>
      </trkpt>
      <trkpt lat="45.69952" lon="4.6868">
        <ele>319.2</ele>
        <time>2026-08-26T07:55:06Z</time>
      </trkpt>
      <trkpt lat="45.69954" lon="4.68676">
        <ele>319.4</ele>
        <time>2026-08-26T07:55:07Z</time>
      </trkpt>
      <trkpt lat="45.69955" lon="4.68673">
        <ele>319.6</ele>
        <time>2026-08-26T07:55:08Z</time>
      </trkpt>
      <trkpt lat="45.69956" lon="4.6867">
        <ele>319.8</ele>
        <time>2026-08-26T07:55:09Z</time>
      </trkpt>
      <trkpt lat="45.69957" lon="4.68668">
        <ele>320</ele>
        <time>2026-08-26T07:55:10Z</time>
      </trkpt>
      <trkpt lat="45.69957" lon="4.68666">
        <ele>320.2</ele>
        <time>2026-08-26T07:55:11Z</time>
      </trkpt>
      <trkpt lat="45.69955" lon="4.68665">
        <ele>320.2</ele>
        <time>2026-08-26T07:55:12Z</time>
      </trkpt>
      <trkpt lat="45.69954" lon="4.68666">
        <ele>320.2</ele>
        <time>2026-08-26T07:55:13Z</time>
      </trkpt>
      <trkpt lat="45.69953" lon="4.68669">
        <ele>320.4</ele>
        <time>2026-08-26T07:55:14Z</time>
      </trkpt>
      <trkpt lat="45.69953" lon="4.68672">
        <ele>320.4</ele>
        <time>2026-08-26T07:55:15Z</time>
      </trkpt>
      <trkpt lat="45.69952" lon="4.68676">
        <ele>320.2</ele>
        <time>2026-08-26T07:55:16Z</time>
      </trkpt>
      <trkpt lat="45.69952" lon="4.6868">
        <ele>320.2</ele>
        <time>2026-08-26T07:55:17Z</time>
      </trkpt>
      <trkpt lat="45.69951" lon="4.68685">
        <ele>320.2</ele>
        <time>2026-08-26T07:55:18Z</time>
      </trkpt>
      <trkpt lat="45.69949" lon="4.68689">
        <ele>320</ele>
        <time>2026-08-26T07:55:19Z</time>
      </trkpt>
      <trkpt lat="45.69947" lon="4.68693">
        <ele>319.8</ele>
        <time>2026-08-26T07:55:20Z</time>
      </trkpt>
      <trkpt lat="45.69943" lon="4.68696">
        <ele>319.8</ele>
        <time>2026-08-26T07:55:21Z</time>
      </trkpt>
      <trkpt lat="45.6994" lon="4.68699">
        <ele>319.6</ele>
        <time>2026-08-26T07:55:22Z</time>
      </trkpt>
      <trkpt lat="45.69936" lon="4.68702">
        <ele>319.6</ele>
        <time>2026-08-26T07:55:23Z</time>
      </trkpt>
      <trkpt lat="45.69933" lon="4.68706">
        <ele>319.4</ele>
        <time>2026-08-26T07:55:24Z</time>
      </trkpt>
      <trkpt lat="45.69931" lon="4.6871">
        <ele>319.2</ele>
        <time>2026-08-26T07:55:25Z</time>
      </trkpt>
      <trkpt lat="45.69929" lon="4.68715">
        <ele>319</ele>
        <time>2026-08-26T07:55:26Z</time>
      </trkpt>
      <trkpt lat="45.69926" lon="4.6872">
        <ele>318.8</ele>
        <time>2026-08-26T07:55:27Z</time>
      </trkpt>
      <trkpt lat="45.69925" lon="4.68725">
        <ele>318.6</ele>
        <time>2026-08-26T07:55:28Z</time>
      </trkpt>
      <trkpt lat="45.69923" lon="4.68729">
        <ele>318.6</ele>
        <time>2026-08-26T07:55:29Z</time>
      </trkpt>
      <trkpt lat="45.69919" lon="4.68733">
        <ele>318.4</ele>
        <time>2026-08-26T07:55:30Z</time>
      </trkpt>
      <trkpt lat="45.69915" lon="4.68734">
        <ele>318.4</ele>
        <time>2026-08-26T07:55:31Z</time>
      </trkpt>
      <trkpt lat="45.69912" lon="4.68733">
        <ele>318.4</ele>
        <time>2026-08-26T07:55:32Z</time>
      </trkpt>
      <trkpt lat="45.69908" lon="4.68731">
        <ele>318.2</ele>
        <time>2026-08-26T07:55:33Z</time>
      </trkpt>
      <trkpt lat="45.69904" lon="4.68728">
        <ele>318.2</ele>
        <time>2026-08-26T07:55:34Z</time>
      </trkpt>
      <trkpt lat="45.69901" lon="4.68725">
        <ele>318.2</ele>
        <time>2026-08-26T07:55:35Z</time>
      </trkpt>
      <trkpt lat="45.69897" lon="4.68721">
        <ele>318.2</ele>
        <time>2026-08-26T07:55:36Z</time>
      </trkpt>
      <trkpt lat="45.69893" lon="4.68717">
        <ele>318.2</ele>
        <time>2026-08-26T07:55:37Z</time>
      </trkpt>
      <trkpt lat="45.6989" lon="4.68714">
        <ele>318.2</ele>
        <time>2026-08-26T07:55:38Z</time>
      </trkpt>
      <trkpt lat="45.69887" lon="4.6871">
        <ele>318.2</ele>
        <time>2026-08-26T07:55:39Z</time>
      </trkpt>
      <trkpt lat="45.69883" lon="4.68707">
        <ele>318.2</ele>
        <time>2026-08-26T07:55:40Z</time>
      </trkpt>
      <trkpt lat="45.6988" lon="4.68704">
        <ele>318.4</ele>
        <time>2026-08-26T07:55:41Z</time>
      </trkpt>
      <trkpt lat="45.69877" lon="4.68701">
        <ele>318.4</ele>
        <time>2026-08-26T07:55:42Z</time>
      </trkpt>
      <trkpt lat="45.69874" lon="4.68697">
        <ele>318.6</ele>
        <time>2026-08-26T07:55:43Z</time>
      </trkpt>
      <trkpt lat="45.69871" lon="4.68693">
        <ele>318.8</ele>
        <time>2026-08-26T07:55:44Z</time>
      </trkpt>
      <trkpt lat="45.69868" lon="4.68688">
        <ele>318.8</ele>
        <time>2026-08-26T07:55:45Z</time>
      </trkpt>
      <trkpt lat="45.69865" lon="4.68684">
        <ele>319</ele>
        <time>2026-08-26T07:55:46Z</time>
      </trkpt>
      <trkpt lat="45.69862" lon="4.6868">
        <ele>319</ele>
        <time>2026-08-26T07:55:47Z</time>
      </trkpt>
      <trkpt lat="45.69859" lon="4.68676">
        <ele>319</ele>
        <time>2026-08-26T07:55:48Z</time>
      </trkpt>
      <trkpt lat="45.69856" lon="4.68671">
        <ele>319</ele>
        <time>2026-08-26T07:55:49Z</time>
      </trkpt>
      <trkpt lat="45.69853" lon="4.68667">
        <ele>319</ele>
        <time>2026-08-26T07:55:50Z</time>
      </trkpt>
      <trkpt lat="45.6985" lon="4.68661">
        <ele>319</ele>
        <time>2026-08-26T07:55:51Z</time>
      </trkpt>
      <trkpt lat="45.69846" lon="4.68656">
        <ele>319</ele>
        <time>2026-08-26T07:55:52Z</time>
      </trkpt>
      <trkpt lat="45.69843" lon="4.68651">
        <ele>318.8</ele>
        <time>2026-08-26T07:55:53Z</time>
      </trkpt>
      <trkpt lat="45.69839" lon="4.68646">
        <ele>318.6</ele>
        <time>2026-08-26T07:55:54Z</time>
      </trkpt>
      <trkpt lat="45.69835" lon="4.68641">
        <ele>318.4</ele>
        <time>2026-08-26T07:55:55Z</time>
      </trkpt>
      <trkpt lat="45.6983" lon="4.68638">
        <ele>318.2</ele>
        <time>2026-08-26T07:55:56Z</time>
      </trkpt>
      <trkpt lat="45.69826" lon="4.68634">
        <ele>318</ele>
        <time>2026-08-26T07:55:57Z</time>
      </trkpt>
      <trkpt lat="45.69821" lon="4.68631">
        <ele>318</ele>
        <time>2026-08-26T07:55:58Z</time>
      </trkpt>
      <trkpt lat="45.69816" lon="4.68628">
        <ele>318</ele>
        <time>2026-08-26T07:55:59Z</time>
      </trkpt>
      <trkpt lat="45.69811" lon="4.68625">
        <ele>318</ele>
        <time>2026-08-26T07:56:00Z</time>
      </trkpt>
      <trkpt lat="45.69806" lon="4.68623">
        <ele>318</ele>
        <time>2026-08-26T07:56:01Z</time>
      </trkpt>
      <trkpt lat="45.698" lon="4.6862">
        <ele>318</ele>
        <time>2026-08-26T07:56:02Z</time>
      </trkpt>
      <trkpt lat="45.69795" lon="4.68618">
        <ele>317.8</ele>
        <time>2026-08-26T07:56:03Z</time>
      </trkpt>
      <trkpt lat="45.69789" lon="4.68615">
        <ele>317.8</ele>
        <time>2026-08-26T07:56:04Z</time>
      </trkpt>
      <trkpt lat="45.69784" lon="4.68612">
        <ele>317.6</ele>
        <time>2026-08-26T07:56:05Z</time>
      </trkpt>
      <trkpt lat="45.69778" lon="4.68609">
        <ele>317.6</ele>
        <time>2026-08-26T07:56:06Z</time>
      </trkpt>
      <trkpt lat="45.69773" lon="4.68607">
        <ele>317.6</ele>
        <time>2026-08-26T07:56:07Z</time>
      </trkpt>
      <trkpt lat="45.69767" lon="4.68604">
        <ele>317.6</ele>
        <time>2026-08-26T07:56:08Z</time>
      </trkpt>
      <trkpt lat="45.69762" lon="4.68601">
        <ele>317.6</ele>
        <time>2026-08-26T07:56:09Z</time>
      </trkpt>
      <trkpt lat="45.69757" lon="4.68599">
        <ele>317.6</ele>
        <time>2026-08-26T07:56:10Z</time>
      </trkpt>
      <trkpt lat="45.69752" lon="4.68596">
        <ele>317.8</ele>
        <time>2026-08-26T07:56:11Z</time>
      </trkpt>
      <trkpt lat="45.69748" lon="4.68593">
        <ele>318</ele>
        <time>2026-08-26T07:56:12Z</time>
      </trkpt>
      <trkpt lat="45.69744" lon="4.68588">
        <ele>318.2</ele>
        <time>2026-08-26T07:56:13Z</time>
      </trkpt>
      <trkpt lat="45.69742" lon="4.68581">
        <ele>318.2</ele>
        <time>2026-08-26T07:56:14Z</time>
      </trkpt>
      <trkpt lat="45.69739" lon="4.68574">
        <ele>318.4</ele>
        <time>2026-08-26T07:56:15Z</time>
      </trkpt>
      <trkpt lat="45.69737" lon="4.68567">
        <ele>318.4</ele>
        <time>2026-08-26T07:56:16Z</time>
      </trkpt>
      <trkpt lat="45.69735" lon="4.6856">
        <ele>318.4</ele>
        <time>2026-08-26T07:56:17Z</time>
      </trkpt>
      <trkpt lat="45.69734" lon="4.68553">
        <ele>318.6</ele>
        <time>2026-08-26T07:56:18Z</time>
      </trkpt>
      <trkpt lat="45.69732" lon="4.68546">
        <ele>318.6</ele>
        <time>2026-08-26T07:56:19Z</time>
      </trkpt>
      <trkpt lat="45.69731" lon="4.68539">
        <ele>318.8</ele>
        <time>2026-08-26T07:56:20Z</time>
      </trkpt>
      <trkpt lat="45.6973" lon="4.68532">
        <ele>319</ele>
        <time>2026-08-26T07:56:21Z</time>
      </trkpt>
      <trkpt lat="45.69729" lon="4.68525">
        <ele>319.2</ele>
        <time>2026-08-26T07:56:22Z</time>
      </trkpt>
      <trkpt lat="45.69728" lon="4.68518">
        <ele>319.4</ele>
        <time>2026-08-26T07:56:23Z</time>
      </trkpt>
      <trkpt lat="45.69727" lon="4.68512">
        <ele>319.6</ele>
        <time>2026-08-26T07:56:24Z</time>
      </trkpt>
      <trkpt lat="45.69726" lon="4.68505">
        <ele>320</ele>
        <time>2026-08-26T07:56:25Z</time>
      </trkpt>
      <trkpt lat="45.69725" lon="4.68498">
        <ele>320</ele>
        <time>2026-08-26T07:56:26Z</time>
      </trkpt>
      <trkpt lat="45.69723" lon="4.68492">
        <ele>320.2</ele>
        <time>2026-08-26T07:56:27Z</time>
      </trkpt>
      <trkpt lat="45.69723" lon="4.68487">
        <ele>320.4</ele>
        <time>2026-08-26T07:56:28Z</time>
      </trkpt>
      <trkpt lat="45.69722" lon="4.6848">
        <ele>320.6</ele>
        <time>2026-08-26T07:56:29Z</time>
      </trkpt>
      <trkpt lat="45.6972" lon="4.68472">
        <ele>320.8</ele>
        <time>2026-08-26T07:56:30Z</time>
      </trkpt>
      <trkpt lat="45.69718" lon="4.68466">
        <ele>321</ele>
        <time>2026-08-26T07:56:31Z</time>
      </trkpt>
      <trkpt lat="45.69717" lon="4.68459">
        <ele>321.2</ele>
        <time>2026-08-26T07:56:32Z</time>
      </trkpt>
      <trkpt lat="45.69716" lon="4.68453">
        <ele>321.2</ele>
        <time>2026-08-26T07:56:33Z</time>
      </trkpt>
      <trkpt lat="45.69714" lon="4.68447">
        <ele>321.4</ele>
        <time>2026-08-26T07:56:34Z</time>
      </trkpt>
      <trkpt lat="45.69713" lon="4.68441">
        <ele>321.4</ele>
        <time>2026-08-26T07:56:35Z</time>
      </trkpt>
      <trkpt lat="45.69711" lon="4.68435">
        <ele>321.6</ele>
        <time>2026-08-26T07:56:36Z</time>
      </trkpt>
      <trkpt lat="45.6971" lon="4.68429">
        <ele>321.8</ele>
        <time>2026-08-26T07:56:37Z</time>
      </trkpt>
      <trkpt lat="45.69708" lon="4.68423">
        <ele>321.8</ele>
        <time>2026-08-26T07:56:38Z</time>
      </trkpt>
      <trkpt lat="45.69707" lon="4.68418">
        <ele>322</ele>
        <time>2026-08-26T07:56:39Z</time>
      </trkpt>
      <trkpt lat="45.69706" lon="4.68412">
        <ele>322.4</ele>
        <time>2026-08-26T07:56:40Z</time>
      </trkpt>
      <trkpt lat="45.69704" lon="4.68407">
        <ele>322.6</ele>
        <time>2026-08-26T07:56:41Z</time>
      </trkpt>
      <trkpt lat="45.69703" lon="4.68402">
        <ele>322.8</ele>
        <time>2026-08-26T07:56:42Z</time>
      </trkpt>
      <trkpt lat="45.69701" lon="4.68397">
        <ele>323</ele>
        <time>2026-08-26T07:56:43Z</time>
      </trkpt>
      <trkpt lat="45.697" lon="4.68392">
        <ele>323.4</ele>
        <time>2026-08-26T07:56:44Z</time>
      </trkpt>
      <trkpt lat="45.69698" lon="4.68388">
        <ele>323.6</ele>
        <time>2026-08-26T07:56:45Z</time>
      </trkpt>
      <trkpt lat="45.69697" lon="4.68383">
        <ele>323.8</ele>
        <time>2026-08-26T07:56:46Z</time>
      </trkpt>
      <trkpt lat="45.69695" lon="4.68378">
        <ele>324.2</ele>
        <time>2026-08-26T07:56:47Z</time>
      </trkpt>
      <trkpt lat="45.69693" lon="4.68373">
        <ele>324.4</ele>
        <time>2026-08-26T07:56:48Z</time>
      </trkpt>
      <trkpt lat="45.69692" lon="4.68369">
        <ele>324.6</ele>
        <time>2026-08-26T07:56:49Z</time>
      </trkpt>
      <trkpt lat="45.6969" lon="4.68364">
        <ele>324.6</ele>
        <time>2026-08-26T07:56:50Z</time>
      </trkpt>
      <trkpt lat="45.69689" lon="4.68359">
        <ele>324.8</ele>
        <time>2026-08-26T07:56:51Z</time>
      </trkpt>
      <trkpt lat="45.69687" lon="4.68354">
        <ele>324.8</ele>
        <time>2026-08-26T07:56:52Z</time>
      </trkpt>
      <trkpt lat="45.69686" lon="4.68349">
        <ele>325</ele>
        <time>2026-08-26T07:56:53Z</time>
      </trkpt>
      <trkpt lat="45.69684" lon="4.68344">
        <ele>325.2</ele>
        <time>2026-08-26T07:56:54Z</time>
      </trkpt>
      <trkpt lat="45.69683" lon="4.68339">
        <ele>325.4</ele>
        <time>2026-08-26T07:56:55Z</time>
      </trkpt>
      <trkpt lat="45.69681" lon="4.68334">
        <ele>325.8</ele>
        <time>2026-08-26T07:56:56Z</time>
      </trkpt>
      <trkpt lat="45.6968" lon="4.68329">
        <ele>326</ele>
        <time>2026-08-26T07:56:57Z</time>
      </trkpt>
      <trkpt lat="45.69678" lon="4.68324">
        <ele>326</ele>
        <time>2026-08-26T07:56:58Z</time>
      </trkpt>
      <trkpt lat="45.69677" lon="4.68319">
        <ele>326.2</ele>
        <time>2026-08-26T07:56:59Z</time>
      </trkpt>
      <trkpt lat="45.69676" lon="4.68313">
        <ele>326.4</ele>
        <time>2026-08-26T07:57:00Z</time>
      </trkpt>
      <trkpt lat="45.69676" lon="4.68308">
        <ele>326.4</ele>
        <time>2026-08-26T07:57:01Z</time>
      </trkpt>
      <trkpt lat="45.69675" lon="4.68302">
        <ele>326.6</ele>
        <time>2026-08-26T07:57:02Z</time>
      </trkpt>
      <trkpt lat="45.69674" lon="4.68296">
        <ele>326.8</ele>
        <time>2026-08-26T07:57:03Z</time>
      </trkpt>
      <trkpt lat="45.69673" lon="4.6829">
        <ele>326.8</ele>
        <time>2026-08-26T07:57:04Z</time>
      </trkpt>
      <trkpt lat="45.69672" lon="4.68284">
        <ele>327</ele>
        <time>2026-08-26T07:57:05Z</time>
      </trkpt>
      <trkpt lat="45.69671" lon="4.68279">
        <ele>327</ele>
        <time>2026-08-26T07:57:06Z</time>
      </trkpt>
      <trkpt lat="45.69671" lon="4.68273">
        <ele>327</ele>
        <time>2026-08-26T07:57:07Z</time>
      </trkpt>
      <trkpt lat="45.6967" lon="4.68267">
        <ele>327</ele>
        <time>2026-08-26T07:57:08Z</time>
      </trkpt>
      <trkpt lat="45.6967" lon="4.68261">
        <ele>327.2</ele>
        <time>2026-08-26T07:57:09Z</time>
      </trkpt>
      <trkpt lat="45.6967" lon="4.68255">
        <ele>327.2</ele>
        <time>2026-08-26T07:57:10Z</time>
      </trkpt>
      <trkpt lat="45.6967" lon="4.68249">
        <ele>327.4</ele>
        <time>2026-08-26T07:57:11Z</time>
      </trkpt>
      <trkpt lat="45.6967" lon="4.68243">
        <ele>327.4</ele>
        <time>2026-08-26T07:57:12Z</time>
      </trkpt>
      <trkpt lat="45.69671" lon="4.68237">
        <ele>327.4</ele>
        <time>2026-08-26T07:57:13Z</time>
      </trkpt>
      <trkpt lat="45.69671" lon="4.68232">
        <ele>327.4</ele>
        <time>2026-08-26T07:57:14Z</time>
      </trkpt>
      <trkpt lat="45.69671" lon="4.68226">
        <ele>327.6</ele>
        <time>2026-08-26T07:57:15Z</time>
      </trkpt>
      <trkpt lat="45.69671" lon="4.68221">
        <ele>327.6</ele>
        <time>2026-08-26T07:57:16Z</time>
      </trkpt>
      <trkpt lat="45.69672" lon="4.68215">
        <ele>327.8</ele>
        <time>2026-08-26T07:57:17Z</time>
      </trkpt>
      <trkpt lat="45.69673" lon="4.6821">
        <ele>328.2</ele>
        <time>2026-08-26T07:57:18Z</time>
      </trkpt>
      <trkpt lat="45.69673" lon="4.68205">
        <ele>328.4</ele>
        <time>2026-08-26T07:57:19Z</time>
      </trkpt>
      <trkpt lat="45.69674" lon="4.682">
        <ele>328.6</ele>
        <time>2026-08-26T07:57:20Z</time>
      </trkpt>
      <trkpt lat="45.69674" lon="4.68194">
        <ele>328.8</ele>
        <time>2026-08-26T07:57:21Z</time>
      </trkpt>
      <trkpt lat="45.69675" lon="4.68189">
        <ele>329</ele>
        <time>2026-08-26T07:57:22Z</time>
      </trkpt>
      <trkpt lat="45.69676" lon="4.68184">
        <ele>329.2</ele>
        <time>2026-08-26T07:57:23Z</time>
      </trkpt>
      <trkpt lat="45.69677" lon="4.68179">
        <ele>329.2</ele>
        <time>2026-08-26T07:57:24Z</time>
      </trkpt>
      <trkpt lat="45.69678" lon="4.68173">
        <ele>329.4</ele>
        <time>2026-08-26T07:57:25Z</time>
      </trkpt>
      <trkpt lat="45.69678" lon="4.68168">
        <ele>329.6</ele>
        <time>2026-08-26T07:57:26Z</time>
      </trkpt>
      <trkpt lat="45.69679" lon="4.68163">
        <ele>329.8</ele>
        <time>2026-08-26T07:57:27Z</time>
      </trkpt>
      <trkpt lat="45.69679" lon="4.68158">
        <ele>330</ele>
        <time>2026-08-26T07:57:28Z</time>
      </trkpt>
      <trkpt lat="45.6968" lon="4.68153">
        <ele>330</ele>
        <time>2026-08-26T07:57:29Z</time>
      </trkpt>
      <trkpt lat="45.6968" lon="4.68148">
        <ele>330.2</ele>
        <time>2026-08-26T07:57:30Z</time>
      </trkpt>
      <trkpt lat="45.69681" lon="4.68143">
        <ele>330.4</ele>
        <time>2026-08-26T07:57:31Z</time>
      </trkpt>
      <trkpt lat="45.69681" lon="4.68138">
        <ele>330.4</ele>
        <time>2026-08-26T07:57:32Z</time>
      </trkpt>
      <trkpt lat="45.69682" lon="4.68133">
        <ele>330.6</ele>
        <time>2026-08-26T07:57:33Z</time>
      </trkpt>
      <trkpt lat="45.69683" lon="4.68128">
        <ele>330.8</ele>
        <time>2026-08-26T07:57:34Z</time>
      </trkpt>
      <trkpt lat="45.69683" lon="4.68123">
        <ele>331.2</ele>
        <time>2026-08-26T07:57:35Z</time>
      </trkpt>
      <trkpt lat="45.69684" lon="4.68118">
        <ele>331.4</ele>
        <time>2026-08-26T07:57:36Z</time>
      </trkpt>
      <trkpt lat="45.69685" lon="4.68113">
        <ele>331.6</ele>
        <time>2026-08-26T07:57:37Z</time>
      </trkpt>
      <trkpt lat="45.69685" lon="4.68108">
        <ele>331.8</ele>
        <time>2026-08-26T07:57:38Z</time>
      </trkpt>
      <trkpt lat="45.69686" lon="4.68102">
        <ele>331.8</ele>
        <time>2026-08-26T07:57:39Z</time>
      </trkpt>
      <trkpt lat="45.69686" lon="4.68097">
        <ele>332</ele>
        <time>2026-08-26T07:57:40Z</time>
      </trkpt>
      <trkpt lat="45.69687" lon="4.68093">
        <ele>332.2</ele>
        <time>2026-08-26T07:57:41Z</time>
      </trkpt>
      <trkpt lat="45.69687" lon="4.68088">
        <ele>332.4</ele>
        <time>2026-08-26T07:57:42Z</time>
      </trkpt>
      <trkpt lat="45.69688" lon="4.68083">
        <ele>332.6</ele>
        <time>2026-08-26T07:57:43Z</time>
      </trkpt>
      <trkpt lat="45.69689" lon="4.68079">
        <ele>332.8</ele>
        <time>2026-08-26T07:57:44Z</time>
      </trkpt>
      <trkpt lat="45.69689" lon="4.68074">
        <ele>332.8</ele>
        <time>2026-08-26T07:57:45Z</time>
      </trkpt>
      <trkpt lat="45.69689" lon="4.68069">
        <ele>333</ele>
        <time>2026-08-26T07:57:46Z</time>
      </trkpt>
      <trkpt lat="45.6969" lon="4.68065">
        <ele>333.2</ele>
        <time>2026-08-26T07:57:47Z</time>
      </trkpt>
      <trkpt lat="45.69691" lon="4.6806">
        <ele>333.4</ele>
        <time>2026-08-26T07:57:48Z</time>
      </trkpt>
      <trkpt lat="45.69691" lon="4.68055">
        <ele>333.6</ele>
        <time>2026-08-26T07:57:49Z</time>
      </trkpt>
      <trkpt lat="45.69692" lon="4.68051">
        <ele>333.8</ele>
        <time>2026-08-26T07:57:50Z</time>
      </trkpt>
      <trkpt lat="45.69692" lon="4.68046">
        <ele>334</ele>
        <time>2026-08-26T07:57:51Z</time>
      </trkpt>
      <trkpt lat="45.69693" lon="4.68041">
        <ele>334</ele>
        <time>2026-08-26T07:57:52Z</time>
      </trkpt>
      <trkpt lat="45.69694" lon="4.68036">
        <ele>334.2</ele>
        <time>2026-08-26T07:57:53Z</time>
      </trkpt>
      <trkpt lat="45.69694" lon="4.68031">
        <ele>334.4</ele>
        <time>2026-08-26T07:57:54Z</time>
      </trkpt>
      <trkpt lat="45.69695" lon="4.68027">
        <ele>334.6</ele>
        <time>2026-08-26T07:57:55Z</time>
      </trkpt>
      <trkpt lat="45.69695" lon="4.68022">
        <ele>334.8</ele>
        <time>2026-08-26T07:57:56Z</time>
      </trkpt>
      <trkpt lat="45.69696" lon="4.68017">
        <ele>334.8</ele>
        <time>2026-08-26T07:57:57Z</time>
      </trkpt>
      <trkpt lat="45.69696" lon="4.68012">
        <ele>335</ele>
        <time>2026-08-26T07:57:58Z</time>
      </trkpt>
      <trkpt lat="45.69697" lon="4.68007">
        <ele>335.2</ele>
        <time>2026-08-26T07:57:59Z</time>
      </trkpt>
      <trkpt lat="45.69697" lon="4.68003">
        <ele>335.4</ele>
        <time>2026-08-26T07:58:00Z</time>
      </trkpt>
      <trkpt lat="45.69698" lon="4.67998">
        <ele>335.4</ele>
        <time>2026-08-26T07:58:01Z</time>
      </trkpt>
      <trkpt lat="45.69698" lon="4.67994">
        <ele>335.6</ele>
        <time>2026-08-26T07:58:02Z</time>
      </trkpt>
      <trkpt lat="45.69699" lon="4.67989">
        <ele>335.8</ele>
        <time>2026-08-26T07:58:03Z</time>
      </trkpt>
      <trkpt lat="45.697" lon="4.67985">
        <ele>336</ele>
        <time>2026-08-26T07:58:04Z</time>
      </trkpt>
      <trkpt lat="45.69701" lon="4.67981">
        <ele>336.2</ele>
        <time>2026-08-26T07:58:05Z</time>
      </trkpt>
      <trkpt lat="45.69701" lon="4.67977">
        <ele>336.4</ele>
        <time>2026-08-26T07:58:06Z</time>
      </trkpt>
      <trkpt lat="45.69702" lon="4.67973">
        <ele>336.6</ele>
        <time>2026-08-26T07:58:07Z</time>
      </trkpt>
      <trkpt lat="45.69703" lon="4.67969">
        <ele>336.8</ele>
        <time>2026-08-26T07:58:08Z</time>
      </trkpt>
      <trkpt lat="45.69704" lon="4.67965">
        <ele>337</ele>
        <time>2026-08-26T07:58:09Z</time>
      </trkpt>
      <trkpt lat="45.69705" lon="4.67961">
        <ele>337</ele>
        <time>2026-08-26T07:58:10Z</time>
      </trkpt>
      <trkpt lat="45.69706" lon="4.67957">
        <ele>337.2</ele>
        <time>2026-08-26T07:58:11Z</time>
      </trkpt>
      <trkpt lat="45.69707" lon="4.67953">
        <ele>337.4</ele>
        <time>2026-08-26T07:58:12Z</time>
      </trkpt>
      <trkpt lat="45.69707" lon="4.67949">
        <ele>337.6</ele>
        <time>2026-08-26T07:58:13Z</time>
      </trkpt>
      <trkpt lat="45.69708" lon="4.67945">
        <ele>337.8</ele>
        <time>2026-08-26T07:58:14Z</time>
      </trkpt>
      <trkpt lat="45.69709" lon="4.67941">
        <ele>338.2</ele>
        <time>2026-08-26T07:58:15Z</time>
      </trkpt>
      <trkpt lat="45.6971" lon="4.67937">
        <ele>338.4</ele>
        <time>2026-08-26T07:58:16Z</time>
      </trkpt>
      <trkpt lat="45.69711" lon="4.67933">
        <ele>338.6</ele>
        <time>2026-08-26T07:58:17Z</time>
      </trkpt>
      <trkpt lat="45.69711" lon="4.6793">
        <ele>338.8</ele>
        <time>2026-08-26T07:58:18Z</time>
      </trkpt>
      <trkpt lat="45.69712" lon="4.67926">
        <ele>339</ele>
        <time>2026-08-26T07:58:19Z</time>
      </trkpt>
      <trkpt lat="45.69713" lon="4.67922">
        <ele>339</ele>
        <time>2026-08-26T07:58:20Z</time>
      </trkpt>
      <trkpt lat="45.69714" lon="4.67918">
        <ele>339.2</ele>
        <time>2026-08-26T07:58:21Z</time>
      </trkpt>
      <trkpt lat="45.69714" lon="4.67914">
        <ele>339.4</ele>
        <time>2026-08-26T07:58:22Z</time>
      </trkpt>
      <trkpt lat="45.69715" lon="4.6791">
        <ele>339.6</ele>
        <time>2026-08-26T07:58:23Z</time>
      </trkpt>
      <trkpt lat="45.69716" lon="4.67907">
        <ele>339.8</ele>
        <time>2026-08-26T07:58:24Z</time>
      </trkpt>
      <trkpt lat="45.69717" lon="4.67903">
        <ele>340</ele>
        <time>2026-08-26T07:58:25Z</time>
      </trkpt>
      <trkpt lat="45.69718" lon="4.67899">
        <ele>340</ele>
        <time>2026-08-26T07:58:26Z</time>
      </trkpt>
      <trkpt lat="45.69719" lon="4.67895">
        <ele>340.4</ele>
        <time>2026-08-26T07:58:27Z</time>
      </trkpt>
      <trkpt lat="45.6972" lon="4.67892">
        <ele>340.6</ele>
        <time>2026-08-26T07:58:28Z</time>
      </trkpt>
      <trkpt lat="45.69721" lon="4.67888">
        <ele>340.8</ele>
        <time>2026-08-26T07:58:29Z</time>
      </trkpt>
      <trkpt lat="45.69721" lon="4.67885">
        <ele>341</ele>
        <time>2026-08-26T07:58:30Z</time>
      </trkpt>
      <trkpt lat="45.69722" lon="4.67881">
        <ele>341.2</ele>
        <time>2026-08-26T07:58:31Z</time>
      </trkpt>
      <trkpt lat="45.69723" lon="4.67878">
        <ele>341.4</ele>
        <time>2026-08-26T07:58:32Z</time>
      </trkpt>
      <trkpt lat="45.69723" lon="4.67874">
        <ele>341.6</ele>
        <time>2026-08-26T07:58:33Z</time>
      </trkpt>
      <trkpt lat="45.69723" lon="4.6787">
        <ele>341.8</ele>
        <time>2026-08-26T07:58:34Z</time>
      </trkpt>
      <trkpt lat="45.69724" lon="4.67866">
        <ele>342</ele>
        <time>2026-08-26T07:58:35Z</time>
      </trkpt>
      <trkpt lat="45.69724" lon="4.67862">
        <ele>342</ele>
        <time>2026-08-26T07:58:36Z</time>
      </trkpt>
      <trkpt lat="45.69725" lon="4.67858">
        <ele>342.2</ele>
        <time>2026-08-26T07:58:37Z</time>
      </trkpt>
      <trkpt lat="45.69725" lon="4.67854">
        <ele>342.4</ele>
        <time>2026-08-26T07:58:38Z</time>
      </trkpt>
      <trkpt lat="45.69725" lon="4.67849">
        <ele>342.4</ele>
        <time>2026-08-26T07:58:39Z</time>
      </trkpt>
      <trkpt lat="45.69725" lon="4.67845">
        <ele>342.6</ele>
        <time>2026-08-26T07:58:40Z</time>
      </trkpt>
      <trkpt lat="45.69725" lon="4.67841">
        <ele>342.8</ele>
        <time>2026-08-26T07:58:41Z</time>
      </trkpt>
      <trkpt lat="45.69725" lon="4.67837">
        <ele>342.8</ele>
        <time>2026-08-26T07:58:42Z</time>
      </trkpt>
      <trkpt lat="45.69725" lon="4.67833">
        <ele>343</ele>
        <time>2026-08-26T07:58:43Z</time>
      </trkpt>
      <trkpt lat="45.69726" lon="4.67829">
        <ele>343</ele>
        <time>2026-08-26T07:58:44Z</time>
      </trkpt>
      <trkpt lat="45.69726" lon="4.67825">
        <ele>343.2</ele>
        <time>2026-08-26T07:58:45Z</time>
      </trkpt>
      <trkpt lat="45.69726" lon="4.67822">
        <ele>343.4</ele>
        <time>2026-08-26T07:58:46Z</time>
      </trkpt>
      <trkpt lat="45.69726" lon="4.67818">
        <ele>343.4</ele>
        <time>2026-08-26T07:58:47Z</time>
      </trkpt>
      <trkpt lat="45.69726" lon="4.67814">
        <ele>343.6</ele>
        <time>2026-08-26T07:58:48Z</time>
      </trkpt>
      <trkpt lat="45.69726" lon="4.6781">
        <ele>343.8</ele>
        <time>2026-08-26T07:58:49Z</time>
      </trkpt>
      <trkpt lat="45.69726" lon="4.67806">
        <ele>344</ele>
        <time>2026-08-26T07:58:50Z</time>
      </trkpt>
      <trkpt lat="45.69726" lon="4.67802">
        <ele>344</ele>
        <time>2026-08-26T07:58:51Z</time>
      </trkpt>
      <trkpt lat="45.69726" lon="4.67799">
        <ele>344.2</ele>
        <time>2026-08-26T07:58:52Z</time>
      </trkpt>
      <trkpt lat="45.69726" lon="4.67795">
        <ele>344.4</ele>
        <time>2026-08-26T07:58:53Z</time>
      </trkpt>
      <trkpt lat="45.69726" lon="4.67791">
        <ele>344.6</ele>
        <time>2026-08-26T07:58:54Z</time>
      </trkpt>
      <trkpt lat="45.69726" lon="4.67787">
        <ele>344.8</ele>
        <time>2026-08-26T07:58:55Z</time>
      </trkpt>
      <trkpt lat="45.69726" lon="4.67783">
        <ele>344.8</ele>
        <time>2026-08-26T07:58:56Z</time>
      </trkpt>
      <trkpt lat="45.69726" lon="4.6778">
        <ele>345</ele>
        <time>2026-08-26T07:58:57Z</time>
      </trkpt>
      <trkpt lat="45.69726" lon="4.67776">
        <ele>345.2</ele>
        <time>2026-08-26T07:58:58Z</time>
      </trkpt>
      <trkpt lat="45.69726" lon="4.67773">
        <ele>345.4</ele>
        <time>2026-08-26T07:58:59Z</time>
      </trkpt>
      <trkpt lat="45.69726" lon="4.67769">
        <ele>345.6</ele>
        <time>2026-08-26T07:59:00Z</time>
      </trkpt>
      <trkpt lat="45.69726" lon="4.67765">
        <ele>345.8</ele>
        <time>2026-08-26T07:59:01Z</time>
      </trkpt>
      <trkpt lat="45.69727" lon="4.67762">
        <ele>345.8</ele>
        <time>2026-08-26T07:59:02Z</time>
      </trkpt>
      <trkpt lat="45.69727" lon="4.67758">
        <ele>346</ele>
        <time>2026-08-26T07:59:03Z</time>
      </trkpt>
      <trkpt lat="45.69727" lon="4.67754">
        <ele>346.2</ele>
        <time>2026-08-26T07:59:04Z</time>
      </trkpt>
      <trkpt lat="45.69727" lon="4.67751">
        <ele>346.4</ele>
        <time>2026-08-26T07:59:05Z</time>
      </trkpt>
      <trkpt lat="45.69727" lon="4.67747">
        <ele>346.6</ele>
        <time>2026-08-26T07:59:06Z</time>
      </trkpt>
      <trkpt lat="45.69728" lon="4.67743">
        <ele>346.8</ele>
        <time>2026-08-26T07:59:07Z</time>
      </trkpt>
      <trkpt lat="45.69728" lon="4.67739">
        <ele>346.8</ele>
        <time>2026-08-26T07:59:08Z</time>
      </trkpt>
      <trkpt lat="45.69728" lon="4.67735">
        <ele>347</ele>
        <time>2026-08-26T07:59:09Z</time>
      </trkpt>
      <trkpt lat="45.69728" lon="4.67731">
        <ele>347.2</ele>
        <time>2026-08-26T07:59:10Z</time>
      </trkpt>
      <trkpt lat="45.69728" lon="4.67726">
        <ele>347.2</ele>
        <time>2026-08-26T07:59:11Z</time>
      </trkpt>
      <trkpt lat="45.69729" lon="4.67722">
        <ele>347.4</ele>
        <time>2026-08-26T07:59:12Z</time>
      </trkpt>
      <trkpt lat="45.69729" lon="4.67718">
        <ele>347.6</ele>
        <time>2026-08-26T07:59:13Z</time>
      </trkpt>
      <trkpt lat="45.69729" lon="4.67714">
        <ele>347.6</ele>
        <time>2026-08-26T07:59:14Z</time>
      </trkpt>
      <trkpt lat="45.69729" lon="4.6771">
        <ele>347.8</ele>
        <time>2026-08-26T07:59:15Z</time>
      </trkpt>
      <trkpt lat="45.6973" lon="4.67706">
        <ele>348</ele>
        <time>2026-08-26T07:59:16Z</time>
      </trkpt>
      <trkpt lat="45.6973" lon="4.67702">
        <ele>348</ele>
        <time>2026-08-26T07:59:17Z</time>
      </trkpt>
      <trkpt lat="45.69731" lon="4.67698">
        <ele>348.2</ele>
        <time>2026-08-26T07:59:18Z</time>
      </trkpt>
      <trkpt lat="45.69731" lon="4.67693">
        <ele>348.2</ele>
        <time>2026-08-26T07:59:19Z</time>
      </trkpt>
      <trkpt lat="45.69732" lon="4.67689">
        <ele>348.4</ele>
        <time>2026-08-26T07:59:20Z</time>
      </trkpt>
      <trkpt lat="45.69733" lon="4.67685">
        <ele>348.6</ele>
        <time>2026-08-26T07:59:21Z</time>
      </trkpt>
      <trkpt lat="45.69734" lon="4.67681">
        <ele>348.8</ele>
        <time>2026-08-26T07:59:22Z</time>
      </trkpt>
      <trkpt lat="45.69735" lon="4.67678">
        <ele>349</ele>
        <time>2026-08-26T07:59:23Z</time>
      </trkpt>
      <trkpt lat="45.69736" lon="4.67674">
        <ele>349</ele>
        <time>2026-08-26T07:59:24Z</time>
      </trkpt>
      <trkpt lat="45.69738" lon="4.6767">
        <ele>349.2</ele>
        <time>2026-08-26T07:59:25Z</time>
      </trkpt>
      <trkpt lat="45.69739" lon="4.67666">
        <ele>349.4</ele>
        <time>2026-08-26T07:59:26Z</time>
      </trkpt>
      <trkpt lat="45.69741" lon="4.67663">
        <ele>349.6</ele>
        <time>2026-08-26T07:59:27Z</time>
      </trkpt>
      <trkpt lat="45.69742" lon="4.6766">
        <ele>349.8</ele>
        <time>2026-08-26T07:59:28Z</time>
      </trkpt>
      <trkpt lat="45.69744" lon="4.67657">
        <ele>350</ele>
        <time>2026-08-26T07:59:29Z</time>
      </trkpt>
      <trkpt lat="45.69746" lon="4.67653">
        <ele>350.2</ele>
        <time>2026-08-26T07:59:30Z</time>
      </trkpt>
      <trkpt lat="45.69747" lon="4.6765">
        <ele>350.4</ele>
        <time>2026-08-26T07:59:31Z</time>
      </trkpt>
      <trkpt lat="45.69749" lon="4.67647">
        <ele>350.6</ele>
        <time>2026-08-26T07:59:32Z</time>
      </trkpt>
      <trkpt lat="45.6975" lon="4.67644">
        <ele>350.6</ele>
        <time>2026-08-26T07:59:33Z</time>
      </trkpt>
      <trkpt lat="45.69752" lon="4.6764">
        <ele>350.8</ele>
        <time>2026-08-26T07:59:34Z</time>
      </trkpt>
      <trkpt lat="45.69753" lon="4.67637">
        <ele>351</ele>
        <time>2026-08-26T07:59:35Z</time>
      </trkpt>
      <trkpt lat="45.69754" lon="4.67634">
        <ele>351.2</ele>
        <time>2026-08-26T07:59:36Z</time>
      </trkpt>
      <trkpt lat="45.69756" lon="4.6763">
        <ele>351.4</ele>
        <time>2026-08-26T07:59:37Z</time>
      </trkpt>
      <trkpt lat="45.69757" lon="4.67627">
        <ele>351.6</ele>
        <time>2026-08-26T07:59:38Z</time>
      </trkpt>
      <trkpt lat="45.69759" lon="4.67624">
        <ele>351.8</ele>
        <time>2026-08-26T07:59:39Z</time>
      </trkpt>
      <trkpt lat="45.69761" lon="4.67621">
        <ele>352</ele>
        <time>2026-08-26T07:59:40Z</time>
      </trkpt>
      <trkpt lat="45.69762" lon="4.67618">
        <ele>352.2</ele>
        <time>2026-08-26T07:59:41Z</time>
      </trkpt>
      <trkpt lat="45.69764" lon="4.67615">
        <ele>352.4</ele>
        <time>2026-08-26T07:59:42Z</time>
      </trkpt>
      <trkpt lat="45.69765" lon="4.67612">
        <ele>352.6</ele>
        <time>2026-08-26T07:59:43Z</time>
      </trkpt>
      <trkpt lat="45.69767" lon="4.67609">
        <ele>352.8</ele>
        <time>2026-08-26T07:59:44Z</time>
      </trkpt>
      <trkpt lat="45.69768" lon="4.67606">
        <ele>352.8</ele>
        <time>2026-08-26T07:59:45Z</time>
      </trkpt>
      <trkpt lat="45.6977" lon="4.67603">
        <ele>353</ele>
        <time>2026-08-26T07:59:46Z</time>
      </trkpt>
      <trkpt lat="45.69771" lon="4.676">
        <ele>353.2</ele>
        <time>2026-08-26T07:59:47Z</time>
      </trkpt>
      <trkpt lat="45.69772" lon="4.67597">
        <ele>353.4</ele>
        <time>2026-08-26T07:59:48Z</time>
      </trkpt>
      <trkpt lat="45.69773" lon="4.67594">
        <ele>353.6</ele>
        <time>2026-08-26T07:59:49Z</time>
      </trkpt>
      <trkpt lat="45.69774" lon="4.6759">
        <ele>353.6</ele>
        <time>2026-08-26T07:59:50Z</time>
      </trkpt>
      <trkpt lat="45.69775" lon="4.67587">
        <ele>353.8</ele>
        <time>2026-08-26T07:59:51Z</time>
      </trkpt>
      <trkpt lat="45.69776" lon="4.67583">
        <ele>354</ele>
        <time>2026-08-26T07:59:52Z</time>
      </trkpt>
      <trkpt lat="45.69776" lon="4.67579">
        <ele>354.2</ele>
        <time>2026-08-26T07:59:53Z</time>
      </trkpt>
      <trkpt lat="45.69777" lon="4.67575">
        <ele>354.2</ele>
        <time>2026-08-26T07:59:54Z</time>
      </trkpt>
      <trkpt lat="45.69777" lon="4.67571">
        <ele>354.4</ele>
        <time>2026-08-26T07:59:55Z</time>
      </trkpt>
      <trkpt lat="45.69778" lon="4.67567">
        <ele>354.6</ele>
        <time>2026-08-26T07:59:56Z</time>
      </trkpt>
      <trkpt lat="45.69778" lon="4.67563">
        <ele>354.6</ele>
        <time>2026-08-26T07:59:57Z</time>
      </trkpt>
      <trkpt lat="45.69779" lon="4.67559">
        <ele>354.8</ele>
        <time>2026-08-26T07:59:58Z</time>
      </trkpt>
      <trkpt lat="45.69779" lon="4.67556">
        <ele>355</ele>
        <time>2026-08-26T07:59:59Z</time>
      </trkpt>
      <trkpt lat="45.6978" lon="4.67552">
        <ele>355.2</ele>
        <time>2026-08-26T08:00:00Z</time>
      </trkpt>
      <trkpt lat="45.6978" lon="4.67548">
        <ele>355.4</ele>
        <time>2026-08-26T08:00:01Z</time>
      </trkpt>
      <trkpt lat="45.6978" lon="4.67543">
        <ele>355.6</ele>
        <time>2026-08-26T08:00:02Z</time>
      </trkpt>
      <trkpt lat="45.69781" lon="4.67539">
        <ele>355.8</ele>
        <time>2026-08-26T08:00:03Z</time>
      </trkpt>
      <trkpt lat="45.69781" lon="4.67536">
        <ele>356</ele>
        <time>2026-08-26T08:00:04Z</time>
      </trkpt>
      <trkpt lat="45.69781" lon="4.67532">
        <ele>356</ele>
        <time>2026-08-26T08:00:05Z</time>
      </trkpt>
      <trkpt lat="45.69782" lon="4.67528">
        <ele>356.2</ele>
        <time>2026-08-26T08:00:06Z</time>
      </trkpt>
      <trkpt lat="45.69782" lon="4.67524">
        <ele>356.2</ele>
        <time>2026-08-26T08:00:07Z</time>
      </trkpt>
      <trkpt lat="45.69783" lon="4.6752">
        <ele>356.4</ele>
        <time>2026-08-26T08:00:08Z</time>
      </trkpt>
      <trkpt lat="45.69783" lon="4.67516">
        <ele>356.6</ele>
        <time>2026-08-26T08:00:09Z</time>
      </trkpt>
      <trkpt lat="45.69784" lon="4.67512">
        <ele>356.6</ele>
        <time>2026-08-26T08:00:10Z</time>
      </trkpt>
      <trkpt lat="45.69784" lon="4.67508">
        <ele>357</ele>
        <time>2026-08-26T08:00:11Z</time>
      </trkpt>
      <trkpt lat="45.69784" lon="4.67504">
        <ele>357</ele>
        <time>2026-08-26T08:00:12Z</time>
      </trkpt>
      <trkpt lat="45.69785" lon="4.675">
        <ele>357.2</ele>
        <time>2026-08-26T08:00:13Z</time>
      </trkpt>
      <trkpt lat="45.69785" lon="4.67496">
        <ele>357.4</ele>
        <time>2026-08-26T08:00:14Z</time>
      </trkpt>
      <trkpt lat="45.69785" lon="4.67492">
        <ele>357.4</ele>
        <time>2026-08-26T08:00:15Z</time>
      </trkpt>
      <trkpt lat="45.69785" lon="4.67489">
        <ele>357.6</ele>
        <time>2026-08-26T08:00:16Z</time>
      </trkpt>
      <trkpt lat="45.69785" lon="4.67485">
        <ele>357.8</ele>
        <time>2026-08-26T08:00:17Z</time>
      </trkpt>
      <trkpt lat="45.69785" lon="4.67482">
        <ele>357.8</ele>
        <time>2026-08-26T08:00:18Z</time>
      </trkpt>
      <trkpt lat="45.69785" lon="4.67478">
        <ele>358</ele>
        <time>2026-08-26T08:00:19Z</time>
      </trkpt>
      <trkpt lat="45.69785" lon="4.67474">
        <ele>358.2</ele>
        <time>2026-08-26T08:00:20Z</time>
      </trkpt>
      <trkpt lat="45.69786" lon="4.6747">
        <ele>358.4</ele>
        <time>2026-08-26T08:00:21Z</time>
      </trkpt>
      <trkpt lat="45.69786" lon="4.67467">
        <ele>358.6</ele>
        <time>2026-08-26T08:00:22Z</time>
      </trkpt>
      <trkpt lat="45.69787" lon="4.67464">
        <ele>358.8</ele>
        <time>2026-08-26T08:00:23Z</time>
      </trkpt>
      <trkpt lat="45.69787" lon="4.67461">
        <ele>359</ele>
        <time>2026-08-26T08:00:24Z</time>
      </trkpt>
      <trkpt lat="45.69787" lon="4.67459">
        <ele>359.2</ele>
        <time>2026-08-26T08:00:25Z</time>
      </trkpt>
      <trkpt lat="45.69788" lon="4.67457">
        <ele>359.4</ele>
        <time>2026-08-26T08:00:26Z</time>
      </trkpt>
      <trkpt lat="45.69787" lon="4.67455">
        <ele>359.6</ele>
        <time>2026-08-26T08:00:27Z</time>
      </trkpt>
      <trkpt lat="45.69786" lon="4.67455">
        <ele>359.8</ele>
        <time>2026-08-26T08:00:28Z</time>
      </trkpt>
      <trkpt lat="45.69784" lon="4.67455">
        <ele>359.8</ele>
        <time>2026-08-26T08:00:29Z</time>
      </trkpt>
      <trkpt lat="45.69781" lon="4.67454">
        <ele>359.8</ele>
        <time>2026-08-26T08:00:30Z</time>
      </trkpt>
      <trkpt lat="45.69778" lon="4.67454">
        <ele>359.8</ele>
        <time>2026-08-26T08:00:31Z</time>
      </trkpt>
      <trkpt lat="45.69775" lon="4.67453">
        <ele>360</ele>
        <time>2026-08-26T08:00:32Z</time>
      </trkpt>
      <trkpt lat="45.69772" lon="4.67453">
        <ele>360</ele>
        <time>2026-08-26T08:00:33Z</time>
      </trkpt>
      <trkpt lat="45.6977" lon="4.67452">
        <ele>360.2</ele>
        <time>2026-08-26T08:00:34Z</time>
      </trkpt>
      <trkpt lat="45.69767" lon="4.67453">
        <ele>360.2</ele>
        <time>2026-08-26T08:00:35Z</time>
      </trkpt>
      <trkpt lat="45.69765" lon="4.67452">
        <ele>360.4</ele>
        <time>2026-08-26T08:00:36Z</time>
      </trkpt>
      <trkpt lat="45.69763" lon="4.67452">
        <ele>360.4</ele>
        <time>2026-08-26T08:00:37Z</time>
      </trkpt>
      <trkpt lat="45.6976" lon="4.67452">
        <ele>360.4</ele>
        <time>2026-08-26T08:00:38Z</time>
      </trkpt>
      <trkpt lat="45.69758" lon="4.6745">
        <ele>360.6</ele>
        <time>2026-08-26T08:00:39Z</time>
      </trkpt>
      <trkpt lat="45.69756" lon="4.67448">
        <ele>360.6</ele>
        <time>2026-08-26T08:00:40Z</time>
      </trkpt>
      <trkpt lat="45.69754" lon="4.67447">
        <ele>360.8</ele>
        <time>2026-08-26T08:00:41Z</time>
      </trkpt>
      <trkpt lat="45.69753" lon="4.67444">
        <ele>360.8</ele>
        <time>2026-08-26T08:00:42Z</time>
      </trkpt>
      <trkpt lat="45.69752" lon="4.67441">
        <ele>361</ele>
        <time>2026-08-26T08:00:43Z</time>
      </trkpt>
      <trkpt lat="45.69751" lon="4.67438">
        <ele>361</ele>
        <time>2026-08-26T08:00:44Z</time>
      </trkpt>
      <trkpt lat="45.69751" lon="4.67435">
        <ele>361</ele>
        <time>2026-08-26T08:00:45Z</time>
      </trkpt>
      <trkpt lat="45.69752" lon="4.67431">
        <ele>361</ele>
        <time>2026-08-26T08:00:46Z</time>
      </trkpt>
      <trkpt lat="45.69752" lon="4.67429">
        <ele>361</ele>
        <time>2026-08-26T08:00:47Z</time>
      </trkpt>
      <trkpt lat="45.69751" lon="4.67426">
        <ele>361.2</ele>
        <time>2026-08-26T08:00:48Z</time>
      </trkpt>
      <trkpt lat="45.69751" lon="4.67423">
        <ele>361.2</ele>
        <time>2026-08-26T08:00:49Z</time>
      </trkpt>
      <trkpt lat="45.69751" lon="4.67419">
        <ele>361.4</ele>
        <time>2026-08-26T08:00:50Z</time>
      </trkpt>
      <trkpt lat="45.69751" lon="4.67417">
        <ele>361.6</ele>
        <time>2026-08-26T08:00:51Z</time>
      </trkpt>
      <trkpt lat="45.69751" lon="4.67414">
        <ele>361.8</ele>
        <time>2026-08-26T08:00:52Z</time>
      </trkpt>
      <trkpt lat="45.69751" lon="4.67411">
        <ele>361.8</ele>
        <time>2026-08-26T08:00:53Z</time>
      </trkpt>
      <trkpt lat="45.69752" lon="4.67408">
        <ele>361.8</ele>
        <time>2026-08-26T08:00:54Z</time>
      </trkpt>
      <trkpt lat="45.69752" lon="4.67405">
        <ele>362</ele>
        <time>2026-08-26T08:00:55Z</time>
      </trkpt>
      <trkpt lat="45.69752" lon="4.67401">
        <ele>362</ele>
        <time>2026-08-26T08:00:56Z</time>
      </trkpt>
      <trkpt lat="45.69753" lon="4.67397">
        <ele>362.2</ele>
        <time>2026-08-26T08:00:57Z</time>
      </trkpt>
      <trkpt lat="45.69753" lon="4.67393">
        <ele>362.4</ele>
        <time>2026-08-26T08:00:58Z</time>
      </trkpt>
      <trkpt lat="45.69753" lon="4.67389">
        <ele>362.6</ele>
        <time>2026-08-26T08:00:59Z</time>
      </trkpt>
      <trkpt lat="45.69753" lon="4.67385">
        <ele>362.8</ele>
        <time>2026-08-26T08:01:00Z</time>
      </trkpt>
      <trkpt lat="45.69753" lon="4.67382">
        <ele>363.2</ele>
        <time>2026-08-26T08:01:01Z</time>
      </trkpt>
      <trkpt lat="45.69752" lon="4.67378">
        <ele>363.2</ele>
        <time>2026-08-26T08:01:02Z</time>
      </trkpt>
      <trkpt lat="45.69751" lon="4.67375">
        <ele>363.4</ele>
        <time>2026-08-26T08:01:03Z</time>
      </trkpt>
      <trkpt lat="45.69751" lon="4.67372">
        <ele>363.6</ele>
        <time>2026-08-26T08:01:04Z</time>
      </trkpt>
      <trkpt lat="45.69751" lon="4.67369">
        <ele>363.8</ele>
        <time>2026-08-26T08:01:05Z</time>
      </trkpt>
      <trkpt lat="45.69752" lon="4.67367">
        <ele>363.8</ele>
        <time>2026-08-26T08:01:06Z</time>
      </trkpt>
      <trkpt lat="45.69752" lon="4.67364">
        <ele>364</ele>
        <time>2026-08-26T08:01:07Z</time>
      </trkpt>
      <trkpt lat="45.69753" lon="4.67361">
        <ele>364</ele>
        <time>2026-08-26T08:01:08Z</time>
      </trkpt>
      <trkpt lat="45.69756" lon="4.6736">
        <ele>364.2</ele>
        <time>2026-08-26T08:01:09Z</time>
      </trkpt>
      <trkpt lat="45.69758" lon="4.6736">
        <ele>364.2</ele>
        <time>2026-08-26T08:01:10Z</time>
      </trkpt>
      <trkpt lat="45.69759" lon="4.6736">
        <ele>364.2</ele>
        <time>2026-08-26T08:01:11Z</time>
      </trkpt>
      <trkpt lat="45.69759" lon="4.6736">
        <ele>364.4</ele>
        <time>2026-08-26T08:01:12Z</time>
      </trkpt>
      <trkpt lat="45.69759" lon="4.6736">
        <ele>364.6</ele>
        <time>2026-08-26T08:01:13Z</time>
      </trkpt>
      <trkpt lat="45.69766" lon="4.67361">
        <ele>365</ele>
        <time>2026-08-26T08:01:22Z</time>
      </trkpt>
      <trkpt lat="45.69768" lon="4.6736">
        <ele>365</ele>
        <time>2026-08-26T08:01:23Z</time>
      </trkpt>
      <trkpt lat="45.6977" lon="4.6736">
        <ele>365</ele>
        <time>2026-08-26T08:01:24Z</time>
      </trkpt>
      <trkpt lat="45.69773" lon="4.67359">
        <ele>365</ele>
        <time>2026-08-26T08:01:25Z</time>
      </trkpt>
      <trkpt lat="45.69775" lon="4.67359">
        <ele>365</ele>
        <time>2026-08-26T08:01:26Z</time>
      </trkpt>
      <trkpt lat="45.69778" lon="4.67359">
        <ele>365</ele>
        <time>2026-08-26T08:01:27Z</time>
      </trkpt>
      <trkpt lat="45.69781" lon="4.67358">
        <ele>365</ele>
        <time>2026-08-26T08:01:28Z</time>
      </trkpt>
      <trkpt lat="45.69783" lon="4.67358">
        <ele>365.2</ele>
        <time>2026-08-26T08:01:29Z</time>
      </trkpt>
      <trkpt lat="45.69786" lon="4.67358">
        <ele>365.2</ele>
        <time>2026-08-26T08:01:30Z</time>
      </trkpt>
      <trkpt lat="45.69789" lon="4.67359">
        <ele>365.2</ele>
        <time>2026-08-26T08:01:31Z</time>
      </trkpt>
      <trkpt lat="45.69791" lon="4.67358">
        <ele>365.4</ele>
        <time>2026-08-26T08:01:32Z</time>
      </trkpt>
      <trkpt lat="45.69793" lon="4.67358">
        <ele>365.4</ele>
        <time>2026-08-26T08:01:33Z</time>
      </trkpt>
      <trkpt lat="45.69796" lon="4.67356">
        <ele>365.4</ele>
        <time>2026-08-26T08:01:34Z</time>
      </trkpt>
      <trkpt lat="45.69797" lon="4.67355">
        <ele>365.4</ele>
        <time>2026-08-26T08:01:35Z</time>
      </trkpt>
      <trkpt lat="45.69798" lon="4.67354">
        <ele>365.6</ele>
        <time>2026-08-26T08:01:36Z</time>
      </trkpt>
      <trkpt lat="45.69798" lon="4.67354">
        <ele>365.6</ele>
        <time>2026-08-26T08:01:37Z</time>
      </trkpt>
      <trkpt lat="45.69798" lon="4.67354">
        <ele>365.6</ele>
        <time>2026-08-26T08:01:38Z</time>
      </trkpt>
      <trkpt lat="45.69802" lon="4.67353">
        <ele>365.6</ele>
        <time>2026-08-26T08:01:59Z</time>
      </trkpt>
      <trkpt lat="45.69804" lon="4.67351">
        <ele>365.6</ele>
        <time>2026-08-26T08:02:00Z</time>
      </trkpt>
      <trkpt lat="45.69805" lon="4.67349">
        <ele>365.4</ele>
        <time>2026-08-26T08:02:01Z</time>
      </trkpt>
      <trkpt lat="45.69806" lon="4.67345">
        <ele>365.4</ele>
        <time>2026-08-26T08:02:02Z</time>
      </trkpt>
      <trkpt lat="45.69807" lon="4.67341">
        <ele>365.4</ele>
        <time>2026-08-26T08:02:03Z</time>
      </trkpt>
      <trkpt lat="45.69807" lon="4.67337">
        <ele>365.4</ele>
        <time>2026-08-26T08:02:04Z</time>
      </trkpt>
      <trkpt lat="45.69808" lon="4.67332">
        <ele>365.4</ele>
        <time>2026-08-26T08:02:05Z</time>
      </trkpt>
      <trkpt lat="45.69808" lon="4.67328">
        <ele>365.6</ele>
        <time>2026-08-26T08:02:06Z</time>
      </trkpt>
      <trkpt lat="45.69809" lon="4.67323">
        <ele>365.8</ele>
        <time>2026-08-26T08:02:07Z</time>
      </trkpt>
      <trkpt lat="45.6981" lon="4.67319">
        <ele>366</ele>
        <time>2026-08-26T08:02:08Z</time>
      </trkpt>
      <trkpt lat="45.6981" lon="4.67314">
        <ele>366.2</ele>
        <time>2026-08-26T08:02:09Z</time>
      </trkpt>
      <trkpt lat="45.69811" lon="4.67309">
        <ele>366.4</ele>
        <time>2026-08-26T08:02:10Z</time>
      </trkpt>
      <trkpt lat="45.69811" lon="4.67304">
        <ele>366.6</ele>
        <time>2026-08-26T08:02:11Z</time>
      </trkpt>
      <trkpt lat="45.69812" lon="4.67299">
        <ele>366.8</ele>
        <time>2026-08-26T08:02:12Z</time>
      </trkpt>
      <trkpt lat="45.69813" lon="4.67294">
        <ele>367</ele>
        <time>2026-08-26T08:02:13Z</time>
      </trkpt>
      <trkpt lat="45.69813" lon="4.67289">
        <ele>367.2</ele>
        <time>2026-08-26T08:02:14Z</time>
      </trkpt>
      <trkpt lat="45.69814" lon="4.67284">
        <ele>367.4</ele>
        <time>2026-08-26T08:02:15Z</time>
      </trkpt>
      <trkpt lat="45.69815" lon="4.67279">
        <ele>367.6</ele>
        <time>2026-08-26T08:02:16Z</time>
      </trkpt>
      <trkpt lat="45.69816" lon="4.67274">
        <ele>367.8</ele>
        <time>2026-08-26T08:02:17Z</time>
      </trkpt>
      <trkpt lat="45.69817" lon="4.6727">
        <ele>367.8</ele>
        <time>2026-08-26T08:02:18Z</time>
      </trkpt>
      <trkpt lat="45.69818" lon="4.67265">
        <ele>368</ele>
        <time>2026-08-26T08:02:19Z</time>
      </trkpt>
      <trkpt lat="45.69819" lon="4.67261">
        <ele>368.2</ele>
        <time>2026-08-26T08:02:20Z</time>
      </trkpt>
      <trkpt lat="45.6982" lon="4.67257">
        <ele>368.4</ele>
        <time>2026-08-26T08:02:21Z</time>
      </trkpt>
      <trkpt lat="45.69821" lon="4.67252">
        <ele>368.6</ele>
        <time>2026-08-26T08:02:22Z</time>
      </trkpt>
      <trkpt lat="45.69822" lon="4.67247">
        <ele>368.8</ele>
        <time>2026-08-26T08:02:23Z</time>
      </trkpt>
      <trkpt lat="45.69823" lon="4.67243">
        <ele>369</ele>
        <time>2026-08-26T08:02:24Z</time>
      </trkpt>
      <trkpt lat="45.69824" lon="4.67238">
        <ele>369.2</ele>
        <time>2026-08-26T08:02:25Z</time>
      </trkpt>
      <trkpt lat="45.69826" lon="4.67234">
        <ele>369.4</ele>
        <time>2026-08-26T08:02:26Z</time>
      </trkpt>
      <trkpt lat="45.69827" lon="4.6723">
        <ele>369.8</ele>
        <time>2026-08-26T08:02:27Z</time>
      </trkpt>
      <trkpt lat="45.69828" lon="4.67226">
        <ele>370</ele>
        <time>2026-08-26T08:02:28Z</time>
      </trkpt>
      <trkpt lat="45.6983" lon="4.67222">
        <ele>370.4</ele>
        <time>2026-08-26T08:02:29Z</time>
      </trkpt>
      <trkpt lat="45.69831" lon="4.67218">
        <ele>370.6</ele>
        <time>2026-08-26T08:02:30Z</time>
      </trkpt>
      <trkpt lat="45.69833" lon="4.67214">
        <ele>371</ele>
        <time>2026-08-26T08:02:31Z</time>
      </trkpt>
      <trkpt lat="45.69834" lon="4.6721">
        <ele>371.2</ele>
        <time>2026-08-26T08:02:32Z</time>
      </trkpt>
      <trkpt lat="45.69835" lon="4.67205">
        <ele>371.4</ele>
        <time>2026-08-26T08:02:33Z</time>
      </trkpt>
      <trkpt lat="45.69837" lon="4.67201">
        <ele>371.6</ele>
        <time>2026-08-26T08:02:34Z</time>
      </trkpt>
      <trkpt lat="45.69838" lon="4.67197">
        <ele>371.8</ele>
        <time>2026-08-26T08:02:35Z</time>
      </trkpt>
      <trkpt lat="45.69839" lon="4.67193">
        <ele>372</ele>
        <time>2026-08-26T08:02:36Z</time>
      </trkpt>
      <trkpt lat="45.6984" lon="4.67188">
        <ele>372.2</ele>
        <time>2026-08-26T08:02:37Z</time>
      </trkpt>
      <trkpt lat="45.69842" lon="4.67184">
        <ele>372.4</ele>
        <time>2026-08-26T08:02:38Z</time>
      </trkpt>
      <trkpt lat="45.69843" lon="4.67181">
        <ele>372.4</ele>
        <time>2026-08-26T08:02:39Z</time>
      </trkpt>
      <trkpt lat="45.69844" lon="4.67176">
        <ele>372.8</ele>
        <time>2026-08-26T08:02:40Z</time>
      </trkpt>
      <trkpt lat="45.69846" lon="4.67172">
        <ele>373</ele>
        <time>2026-08-26T08:02:41Z</time>
      </trkpt>
      <trkpt lat="45.69847" lon="4.67168">
        <ele>373</ele>
        <time>2026-08-26T08:02:42Z</time>
      </trkpt>
      <trkpt lat="45.69848" lon="4.67164">
        <ele>373.2</ele>
        <time>2026-08-26T08:02:43Z</time>
      </trkpt>
      <trkpt lat="45.69849" lon="4.6716">
        <ele>373.4</ele>
        <time>2026-08-26T08:02:44Z</time>
      </trkpt>
      <trkpt lat="45.69851" lon="4.67156">
        <ele>373.6</ele>
        <time>2026-08-26T08:02:45Z</time>
      </trkpt>
      <trkpt lat="45.69853" lon="4.67152">
        <ele>373.8</ele>
        <time>2026-08-26T08:02:46Z</time>
      </trkpt>
      <trkpt lat="45.69854" lon="4.67149">
        <ele>374</ele>
        <time>2026-08-26T08:02:47Z</time>
      </trkpt>
      <trkpt lat="45.69855" lon="4.67146">
        <ele>374.2</ele>
        <time>2026-08-26T08:02:48Z</time>
      </trkpt>
      <trkpt lat="45.69856" lon="4.67142">
        <ele>374.4</ele>
        <time>2026-08-26T08:02:49Z</time>
      </trkpt>
      <trkpt lat="45.69857" lon="4.67138">
        <ele>374.6</ele>
        <time>2026-08-26T08:02:50Z</time>
      </trkpt>
      <trkpt lat="45.69859" lon="4.67134">
        <ele>374.8</ele>
        <time>2026-08-26T08:02:51Z</time>
      </trkpt>
      <trkpt lat="45.6986" lon="4.6713">
        <ele>374.8</ele>
        <time>2026-08-26T08:02:52Z</time>
      </trkpt>
      <trkpt lat="45.69862" lon="4.67126">
        <ele>375</ele>
        <time>2026-08-26T08:02:53Z</time>
      </trkpt>
      <trkpt lat="45.69863" lon="4.67123">
        <ele>375.2</ele>
        <time>2026-08-26T08:02:54Z</time>
      </trkpt>
      <trkpt lat="45.69865" lon="4.67121">
        <ele>375.2</ele>
        <time>2026-08-26T08:02:55Z</time>
      </trkpt>
      <trkpt lat="45.69865" lon="4.67121">
        <ele>375.4</ele>
        <time>2026-08-26T08:02:56Z</time>
      </trkpt>
      <trkpt lat="45.69865" lon="4.67121">
        <ele>375.6</ele>
        <time>2026-08-26T08:02:57Z</time>
      </trkpt>
      <trkpt lat="45.69869" lon="4.67112">
        <ele>376.2</ele>
        <time>2026-08-26T08:04:53Z</time>
      </trkpt>
      <trkpt lat="45.6987" lon="4.67108">
        <ele>376.2</ele>
        <time>2026-08-26T08:04:54Z</time>
      </trkpt>
      <trkpt lat="45.69872" lon="4.67104">
        <ele>376.2</ele>
        <time>2026-08-26T08:04:55Z</time>
      </trkpt>
      <trkpt lat="45.69874" lon="4.671">
        <ele>376.2</ele>
        <time>2026-08-26T08:04:56Z</time>
      </trkpt>
      <trkpt lat="45.69877" lon="4.67097">
        <ele>376.2</ele>
        <time>2026-08-26T08:04:57Z</time>
      </trkpt>
      <trkpt lat="45.69879" lon="4.67093">
        <ele>376.2</ele>
        <time>2026-08-26T08:04:58Z</time>
      </trkpt>
      <trkpt lat="45.69882" lon="4.67089">
        <ele>376.2</ele>
        <time>2026-08-26T08:04:59Z</time>
      </trkpt>
      <trkpt lat="45.69886" lon="4.67086">
        <ele>376.2</ele>
        <time>2026-08-26T08:05:00Z</time>
      </trkpt>
      <trkpt lat="45.69889" lon="4.67082">
        <ele>376.2</ele>
        <time>2026-08-26T08:05:01Z</time>
      </trkpt>
      <trkpt lat="45.69892" lon="4.67079">
        <ele>376.2</ele>
        <time>2026-08-26T08:05:02Z</time>
      </trkpt>
      <trkpt lat="45.69895" lon="4.67076">
        <ele>376.4</ele>
        <time>2026-08-26T08:05:03Z</time>
      </trkpt>
      <trkpt lat="45.69898" lon="4.67072">
        <ele>376.4</ele>
        <time>2026-08-26T08:05:04Z</time>
      </trkpt>
      <trkpt lat="45.69901" lon="4.67069">
        <ele>376.4</ele>
        <time>2026-08-26T08:05:05Z</time>
      </trkpt>
      <trkpt lat="45.69904" lon="4.67065">
        <ele>376.4</ele>
        <time>2026-08-26T08:05:06Z</time>
      </trkpt>
      <trkpt lat="45.69907" lon="4.67062">
        <ele>376.6</ele>
        <time>2026-08-26T08:05:07Z</time>
      </trkpt>
      <trkpt lat="45.69911" lon="4.67059">
        <ele>376.6</ele>
        <time>2026-08-26T08:05:08Z</time>
      </trkpt>
      <trkpt lat="45.69914" lon="4.67056">
        <ele>376.8</ele>
        <time>2026-08-26T08:05:09Z</time>
      </trkpt>
      <trkpt lat="45.69917" lon="4.67052">
        <ele>377</ele>
        <time>2026-08-26T08:05:10Z</time>
      </trkpt>
      <trkpt lat="45.69919" lon="4.67049">
        <ele>377</ele>
        <time>2026-08-26T08:05:11Z</time>
      </trkpt>
      <trkpt lat="45.69922" lon="4.67046">
        <ele>377.2</ele>
        <time>2026-08-26T08:05:12Z</time>
      </trkpt>
      <trkpt lat="45.69925" lon="4.67042">
        <ele>377.2</ele>
        <time>2026-08-26T08:05:13Z</time>
      </trkpt>
      <trkpt lat="45.69928" lon="4.67039">
        <ele>377.4</ele>
        <time>2026-08-26T08:05:14Z</time>
      </trkpt>
      <trkpt lat="45.69932" lon="4.67035">
        <ele>377.4</ele>
        <time>2026-08-26T08:05:15Z</time>
      </trkpt>
      <trkpt lat="45.69935" lon="4.67032">
        <ele>377.4</ele>
        <time>2026-08-26T08:05:16Z</time>
      </trkpt>
      <trkpt lat="45.69938" lon="4.67028">
        <ele>377.6</ele>
        <time>2026-08-26T08:05:17Z</time>
      </trkpt>
      <trkpt lat="45.69941" lon="4.67024">
        <ele>377.6</ele>
        <time>2026-08-26T08:05:18Z</time>
      </trkpt>
      <trkpt lat="45.69943" lon="4.6702">
        <ele>377.6</ele>
        <time>2026-08-26T08:05:19Z</time>
      </trkpt>
      <trkpt lat="45.69946" lon="4.67016">
        <ele>377.8</ele>
        <time>2026-08-26T08:05:20Z</time>
      </trkpt>
      <trkpt lat="45.69949" lon="4.67013">
        <ele>377.8</ele>
        <time>2026-08-26T08:05:21Z</time>
      </trkpt>
      <trkpt lat="45.69952" lon="4.67009">
        <ele>377.8</ele>
        <time>2026-08-26T08:05:22Z</time>
      </trkpt>
      <trkpt lat="45.69954" lon="4.67005">
        <ele>378</ele>
        <time>2026-08-26T08:05:23Z</time>
      </trkpt>
      <trkpt lat="45.69957" lon="4.67002">
        <ele>378</ele>
        <time>2026-08-26T08:05:24Z</time>
      </trkpt>
      <trkpt lat="45.69959" lon="4.66998">
        <ele>378.2</ele>
        <time>2026-08-26T08:05:25Z</time>
      </trkpt>
      <trkpt lat="45.69962" lon="4.66994">
        <ele>378.2</ele>
        <time>2026-08-26T08:05:26Z</time>
      </trkpt>
      <trkpt lat="45.69964" lon="4.6699">
        <ele>378.4</ele>
        <time>2026-08-26T08:05:27Z</time>
      </trkpt>
      <trkpt lat="45.69966" lon="4.66986">
        <ele>378.6</ele>
        <time>2026-08-26T08:05:28Z</time>
      </trkpt>
      <trkpt lat="45.69968" lon="4.66982">
        <ele>378.6</ele>
        <time>2026-08-26T08:05:29Z</time>
      </trkpt>
      <trkpt lat="45.6997" lon="4.66978">
        <ele>378.8</ele>
        <time>2026-08-26T08:05:30Z</time>
      </trkpt>
      <trkpt lat="45.69972" lon="4.66974">
        <ele>379</ele>
        <time>2026-08-26T08:05:31Z</time>
      </trkpt>
      <trkpt lat="45.69975" lon="4.6697">
        <ele>379</ele>
        <time>2026-08-26T08:05:32Z</time>
      </trkpt>
      <trkpt lat="45.69976" lon="4.66966">
        <ele>379.2</ele>
        <time>2026-08-26T08:05:33Z</time>
      </trkpt>
      <trkpt lat="45.69978" lon="4.66962">
        <ele>379.4</ele>
        <time>2026-08-26T08:05:34Z</time>
      </trkpt>
      <trkpt lat="45.6998" lon="4.66958">
        <ele>379.6</ele>
        <time>2026-08-26T08:05:35Z</time>
      </trkpt>
      <trkpt lat="45.69982" lon="4.66954">
        <ele>379.8</ele>
        <time>2026-08-26T08:05:36Z</time>
      </trkpt>
      <trkpt lat="45.69983" lon="4.66949">
        <ele>380</ele>
        <time>2026-08-26T08:05:37Z</time>
      </trkpt>
      <trkpt lat="45.69985" lon="4.66945">
        <ele>380.2</ele>
        <time>2026-08-26T08:05:38Z</time>
      </trkpt>
      <trkpt lat="45.69986" lon="4.66941">
        <ele>380.4</ele>
        <time>2026-08-26T08:05:39Z</time>
      </trkpt>
      <trkpt lat="45.69988" lon="4.66937">
        <ele>380.6</ele>
        <time>2026-08-26T08:05:40Z</time>
      </trkpt>
      <trkpt lat="45.69989" lon="4.66933">
        <ele>380.8</ele>
        <time>2026-08-26T08:05:41Z</time>
      </trkpt>
      <trkpt lat="45.69991" lon="4.66929">
        <ele>381</ele>
        <time>2026-08-26T08:05:42Z</time>
      </trkpt>
      <trkpt lat="45.69993" lon="4.66925">
        <ele>381.2</ele>
        <time>2026-08-26T08:05:43Z</time>
      </trkpt>
      <trkpt lat="45.69995" lon="4.66921">
        <ele>381.4</ele>
        <time>2026-08-26T08:05:44Z</time>
      </trkpt>
      <trkpt lat="45.69996" lon="4.66917">
        <ele>381.6</ele>
        <time>2026-08-26T08:05:45Z</time>
      </trkpt>
      <trkpt lat="45.69998" lon="4.66914">
        <ele>381.6</ele>
        <time>2026-08-26T08:05:46Z</time>
      </trkpt>
      <trkpt lat="45.69999" lon="4.6691">
        <ele>382</ele>
        <time>2026-08-26T08:05:47Z</time>
      </trkpt>
      <trkpt lat="45.70001" lon="4.66906">
        <ele>382</ele>
        <time>2026-08-26T08:05:48Z</time>
      </trkpt>
      <trkpt lat="45.70003" lon="4.66902">
        <ele>382.2</ele>
        <time>2026-08-26T08:05:49Z</time>
      </trkpt>
      <trkpt lat="45.70004" lon="4.66898">
        <ele>382.4</ele>
        <time>2026-08-26T08:05:50Z</time>
      </trkpt>
      <trkpt lat="45.70006" lon="4.66895">
        <ele>382.6</ele>
        <time>2026-08-26T08:05:51Z</time>
      </trkpt>
      <trkpt lat="45.70007" lon="4.66891">
        <ele>382.8</ele>
        <time>2026-08-26T08:05:52Z</time>
      </trkpt>
      <trkpt lat="45.70008" lon="4.66888">
        <ele>383</ele>
        <time>2026-08-26T08:05:53Z</time>
      </trkpt>
      <trkpt lat="45.70009" lon="4.66884">
        <ele>383.2</ele>
        <time>2026-08-26T08:05:54Z</time>
      </trkpt>
      <trkpt lat="45.7001" lon="4.6688">
        <ele>383.4</ele>
        <time>2026-08-26T08:05:55Z</time>
      </trkpt>
      <trkpt lat="45.7001" lon="4.66877">
        <ele>383.4</ele>
        <time>2026-08-26T08:05:56Z</time>
      </trkpt>
      <trkpt lat="45.7001" lon="4.66873">
        <ele>383.6</ele>
        <time>2026-08-26T08:05:57Z</time>
      </trkpt>
      <trkpt lat="45.7001" lon="4.66869">
        <ele>383.8</ele>
        <time>2026-08-26T08:05:58Z</time>
      </trkpt>
      <trkpt lat="45.7001" lon="4.66865">
        <ele>384</ele>
        <time>2026-08-26T08:05:59Z</time>
      </trkpt>
      <trkpt lat="45.70009" lon="4.66861">
        <ele>384.2</ele>
        <time>2026-08-26T08:06:00Z</time>
      </trkpt>
      <trkpt lat="45.70008" lon="4.66858">
        <ele>384.4</ele>
        <time>2026-08-26T08:06:01Z</time>
      </trkpt>
      <trkpt lat="45.70007" lon="4.66854">
        <ele>384.6</ele>
        <time>2026-08-26T08:06:02Z</time>
      </trkpt>
      <trkpt lat="45.70006" lon="4.66851">
        <ele>384.8</ele>
        <time>2026-08-26T08:06:03Z</time>
      </trkpt>
      <trkpt lat="45.70005" lon="4.66847">
        <ele>385</ele>
        <time>2026-08-26T08:06:04Z</time>
      </trkpt>
      <trkpt lat="45.70005" lon="4.66843">
        <ele>385.2</ele>
        <time>2026-08-26T08:06:05Z</time>
      </trkpt>
      <trkpt lat="45.70004" lon="4.66839">
        <ele>385.4</ele>
        <time>2026-08-26T08:06:06Z</time>
      </trkpt>
      <trkpt lat="45.70003" lon="4.66835">
        <ele>385.6</ele>
        <time>2026-08-26T08:06:07Z</time>
      </trkpt>
      <trkpt lat="45.70003" lon="4.66831">
        <ele>385.8</ele>
        <time>2026-08-26T08:06:08Z</time>
      </trkpt>
      <trkpt lat="45.70002" lon="4.66828">
        <ele>386</ele>
        <time>2026-08-26T08:06:09Z</time>
      </trkpt>
      <trkpt lat="45.70001" lon="4.66824">
        <ele>386.2</ele>
        <time>2026-08-26T08:06:10Z</time>
      </trkpt>
      <trkpt lat="45.7" lon="4.66821">
        <ele>386.4</ele>
        <time>2026-08-26T08:06:11Z</time>
      </trkpt>
      <trkpt lat="45.69999" lon="4.66817">
        <ele>386.6</ele>
        <time>2026-08-26T08:06:12Z</time>
      </trkpt>
      <trkpt lat="45.69998" lon="4.66814">
        <ele>386.6</ele>
        <time>2026-08-26T08:06:13Z</time>
      </trkpt>
      <trkpt lat="45.69998" lon="4.6681">
        <ele>386.8</ele>
        <time>2026-08-26T08:06:14Z</time>
      </trkpt>
      <trkpt lat="45.69997" lon="4.66807">
        <ele>387</ele>
        <time>2026-08-26T08:06:15Z</time>
      </trkpt>
      <trkpt lat="45.69996" lon="4.66803">
        <ele>387.2</ele>
        <time>2026-08-26T08:06:16Z</time>
      </trkpt>
      <trkpt lat="45.69995" lon="4.668">
        <ele>387.4</ele>
        <time>2026-08-26T08:06:17Z</time>
      </trkpt>
      <trkpt lat="45.69995" lon="4.66796">
        <ele>387.4</ele>
        <time>2026-08-26T08:06:18Z</time>
      </trkpt>
      <trkpt lat="45.69994" lon="4.66792">
        <ele>387.6</ele>
        <time>2026-08-26T08:06:19Z</time>
      </trkpt>
      <trkpt lat="45.69994" lon="4.66788">
        <ele>387.8</ele>
        <time>2026-08-26T08:06:20Z</time>
      </trkpt>
      <trkpt lat="45.69993" lon="4.66784">
        <ele>387.8</ele>
        <time>2026-08-26T08:06:21Z</time>
      </trkpt>
      <trkpt lat="45.69992" lon="4.6678">
        <ele>388</ele>
        <time>2026-08-26T08:06:22Z</time>
      </trkpt>
      <trkpt lat="45.69991" lon="4.66776">
        <ele>388.2</ele>
        <time>2026-08-26T08:06:23Z</time>
      </trkpt>
      <trkpt lat="45.6999" lon="4.66773">
        <ele>388.2</ele>
        <time>2026-08-26T08:06:24Z</time>
      </trkpt>
      <trkpt lat="45.69989" lon="4.66769">
        <ele>388.4</ele>
        <time>2026-08-26T08:06:25Z</time>
      </trkpt>
      <trkpt lat="45.69988" lon="4.66765">
        <ele>388.4</ele>
        <time>2026-08-26T08:06:26Z</time>
      </trkpt>
      <trkpt lat="45.69988" lon="4.6676">
        <ele>388.6</ele>
        <time>2026-08-26T08:06:27Z</time>
      </trkpt>
      <trkpt lat="45.69987" lon="4.66756">
        <ele>388.8</ele>
        <time>2026-08-26T08:06:28Z</time>
      </trkpt>
      <trkpt lat="45.69986" lon="4.66753">
        <ele>388.8</ele>
        <time>2026-08-26T08:06:29Z</time>
      </trkpt>
      <trkpt lat="45.69985" lon="4.66749">
        <ele>389</ele>
        <time>2026-08-26T08:06:30Z</time>
      </trkpt>
      <trkpt lat="45.69984" lon="4.66745">
        <ele>389.2</ele>
        <time>2026-08-26T08:06:31Z</time>
      </trkpt>
      <trkpt lat="45.69983" lon="4.66742">
        <ele>389.2</ele>
        <time>2026-08-26T08:06:32Z</time>
      </trkpt>
      <trkpt lat="45.69983" lon="4.66738">
        <ele>389.4</ele>
        <time>2026-08-26T08:06:33Z</time>
      </trkpt>
      <trkpt lat="45.69982" lon="4.66735">
        <ele>389.6</ele>
        <time>2026-08-26T08:06:34Z</time>
      </trkpt>
      <trkpt lat="45.69981" lon="4.66731">
        <ele>389.8</ele>
        <time>2026-08-26T08:06:35Z</time>
      </trkpt>
      <trkpt lat="45.6998" lon="4.66728">
        <ele>390</ele>
        <time>2026-08-26T08:06:36Z</time>
      </trkpt>
      <trkpt lat="45.69979" lon="4.66724">
        <ele>390</ele>
        <time>2026-08-26T08:06:37Z</time>
      </trkpt>
      <trkpt lat="45.69978" lon="4.66721">
        <ele>390.2</ele>
        <time>2026-08-26T08:06:38Z</time>
      </trkpt>
      <trkpt lat="45.69978" lon="4.66717">
        <ele>390.2</ele>
        <time>2026-08-26T08:06:39Z</time>
      </trkpt>
      <trkpt lat="45.69977" lon="4.66713">
        <ele>390.4</ele>
        <time>2026-08-26T08:06:40Z</time>
      </trkpt>
      <trkpt lat="45.69976" lon="4.66709">
        <ele>390.4</ele>
        <time>2026-08-26T08:06:41Z</time>
      </trkpt>
      <trkpt lat="45.69975" lon="4.66705">
        <ele>390.6</ele>
        <time>2026-08-26T08:06:42Z</time>
      </trkpt>
      <trkpt lat="45.69974" lon="4.66702">
        <ele>390.6</ele>
        <time>2026-08-26T08:06:43Z</time>
      </trkpt>
      <trkpt lat="45.69973" lon="4.66698">
        <ele>390.8</ele>
        <time>2026-08-26T08:06:44Z</time>
      </trkpt>
      <trkpt lat="45.69972" lon="4.66694">
        <ele>390.8</ele>
        <time>2026-08-26T08:06:45Z</time>
      </trkpt>
      <trkpt lat="45.69971" lon="4.6669">
        <ele>390.8</ele>
        <time>2026-08-26T08:06:46Z</time>
      </trkpt>
      <trkpt lat="45.69971" lon="4.66687">
        <ele>391</ele>
        <time>2026-08-26T08:06:47Z</time>
      </trkpt>
      <trkpt lat="45.6997" lon="4.66683">
        <ele>391</ele>
        <time>2026-08-26T08:06:48Z</time>
      </trkpt>
      <trkpt lat="45.69969" lon="4.66679">
        <ele>391</ele>
        <time>2026-08-26T08:06:49Z</time>
      </trkpt>
      <trkpt lat="45.69968" lon="4.66675">
        <ele>391.2</ele>
        <time>2026-08-26T08:06:50Z</time>
      </trkpt>
      <trkpt lat="45.69967" lon="4.66671">
        <ele>391.4</ele>
        <time>2026-08-26T08:06:51Z</time>
      </trkpt>
      <trkpt lat="45.69966" lon="4.66667">
        <ele>391.4</ele>
        <time>2026-08-26T08:06:52Z</time>
      </trkpt>
      <trkpt lat="45.69965" lon="4.66663">
        <ele>391.6</ele>
        <time>2026-08-26T08:06:53Z</time>
      </trkpt>
      <trkpt lat="45.69964" lon="4.66659">
        <ele>391.6</ele>
        <time>2026-08-26T08:06:54Z</time>
      </trkpt>
      <trkpt lat="45.69963" lon="4.66656">
        <ele>391.8</ele>
        <time>2026-08-26T08:06:55Z</time>
      </trkpt>
      <trkpt lat="45.69962" lon="4.66652">
        <ele>391.8</ele>
        <time>2026-08-26T08:06:56Z</time>
      </trkpt>
      <trkpt lat="45.69962" lon="4.66648">
        <ele>392</ele>
        <time>2026-08-26T08:06:57Z</time>
      </trkpt>
      <trkpt lat="45.69962" lon="4.66644">
        <ele>392</ele>
        <time>2026-08-26T08:06:58Z</time>
      </trkpt>
      <trkpt lat="45.69961" lon="4.6664">
        <ele>392.2</ele>
        <time>2026-08-26T08:06:59Z</time>
      </trkpt>
      <trkpt lat="45.6996" lon="4.66637">
        <ele>392.4</ele>
        <time>2026-08-26T08:07:00Z</time>
      </trkpt>
      <trkpt lat="45.69959" lon="4.66633">
        <ele>392.4</ele>
        <time>2026-08-26T08:07:01Z</time>
      </trkpt>
      <trkpt lat="45.69958" lon="4.6663">
        <ele>392.6</ele>
        <time>2026-08-26T08:07:02Z</time>
      </trkpt>
      <trkpt lat="45.69957" lon="4.66626">
        <ele>392.8</ele>
        <time>2026-08-26T08:07:03Z</time>
      </trkpt>
      <trkpt lat="45.69957" lon="4.66622">
        <ele>393</ele>
        <time>2026-08-26T08:07:04Z</time>
      </trkpt>
      <trkpt lat="45.69956" lon="4.66618">
        <ele>393</ele>
        <time>2026-08-26T08:07:05Z</time>
      </trkpt>
      <trkpt lat="45.69955" lon="4.66615">
        <ele>393.2</ele>
        <time>2026-08-26T08:07:06Z</time>
      </trkpt>
      <trkpt lat="45.69954" lon="4.6661">
        <ele>393.2</ele>
        <time>2026-08-26T08:07:07Z</time>
      </trkpt>
      <trkpt lat="45.69953" lon="4.66606">
        <ele>393.4</ele>
        <time>2026-08-26T08:07:08Z</time>
      </trkpt>
      <trkpt lat="45.69952" lon="4.66603">
        <ele>393.4</ele>
        <time>2026-08-26T08:07:09Z</time>
      </trkpt>
      <trkpt lat="45.69952" lon="4.66599">
        <ele>393.6</ele>
        <time>2026-08-26T08:07:10Z</time>
      </trkpt>
      <trkpt lat="45.69951" lon="4.66595">
        <ele>393.8</ele>
        <time>2026-08-26T08:07:11Z</time>
      </trkpt>
      <trkpt lat="45.6995" lon="4.66591">
        <ele>394</ele>
        <time>2026-08-26T08:07:12Z</time>
      </trkpt>
      <trkpt lat="45.69949" lon="4.66587">
        <ele>394.2</ele>
        <time>2026-08-26T08:07:13Z</time>
      </trkpt>
      <trkpt lat="45.69948" lon="4.66583">
        <ele>394.2</ele>
        <time>2026-08-26T08:07:14Z</time>
      </trkpt>
      <trkpt lat="45.69947" lon="4.66578">
        <ele>394.4</ele>
        <time>2026-08-26T08:07:15Z</time>
      </trkpt>
      <trkpt lat="45.69946" lon="4.66574">
        <ele>394.6</ele>
        <time>2026-08-26T08:07:16Z</time>
      </trkpt>
      <trkpt lat="45.69945" lon="4.6657">
        <ele>394.8</ele>
        <time>2026-08-26T08:07:17Z</time>
      </trkpt>
      <trkpt lat="45.69944" lon="4.66566">
        <ele>394.8</ele>
        <time>2026-08-26T08:07:18Z</time>
      </trkpt>
      <trkpt lat="45.69943" lon="4.66562">
        <ele>395</ele>
        <time>2026-08-26T08:07:19Z</time>
      </trkpt>
      <trkpt lat="45.69942" lon="4.66559">
        <ele>395.2</ele>
        <time>2026-08-26T08:07:20Z</time>
      </trkpt>
      <trkpt lat="45.69942" lon="4.66555">
        <ele>395.4</ele>
        <time>2026-08-26T08:07:21Z</time>
      </trkpt>
      <trkpt lat="45.69942" lon="4.66551">
        <ele>395.6</ele>
        <time>2026-08-26T08:07:22Z</time>
      </trkpt>
      <trkpt lat="45.69941" lon="4.66547">
        <ele>395.8</ele>
        <time>2026-08-26T08:07:23Z</time>
      </trkpt>
      <trkpt lat="45.6994" lon="4.66543">
        <ele>396</ele>
        <time>2026-08-26T08:07:24Z</time>
      </trkpt>
      <trkpt lat="45.69938" lon="4.66539">
        <ele>396</ele>
        <time>2026-08-26T08:07:25Z</time>
      </trkpt>
      <trkpt lat="45.69937" lon="4.66535">
        <ele>396.2</ele>
        <time>2026-08-26T08:07:26Z</time>
      </trkpt>
      <trkpt lat="45.69936" lon="4.66531">
        <ele>396.4</ele>
        <time>2026-08-26T08:07:27Z</time>
      </trkpt>
      <trkpt lat="45.69935" lon="4.66527">
        <ele>396.6</ele>
        <time>2026-08-26T08:07:28Z</time>
      </trkpt>
      <trkpt lat="45.69934" lon="4.66522">
        <ele>396.8</ele>
        <time>2026-08-26T08:07:29Z</time>
      </trkpt>
      <trkpt lat="45.69934" lon="4.66518">
        <ele>397</ele>
        <time>2026-08-26T08:07:30Z</time>
      </trkpt>
      <trkpt lat="45.69933" lon="4.66514">
        <ele>397.2</ele>
        <time>2026-08-26T08:07:31Z</time>
      </trkpt>
      <trkpt lat="45.69933" lon="4.66509">
        <ele>397.4</ele>
        <time>2026-08-26T08:07:32Z</time>
      </trkpt>
      <trkpt lat="45.69932" lon="4.66505">
        <ele>397.6</ele>
        <time>2026-08-26T08:07:33Z</time>
      </trkpt>
      <trkpt lat="45.69932" lon="4.66501">
        <ele>397.8</ele>
        <time>2026-08-26T08:07:34Z</time>
      </trkpt>
      <trkpt lat="45.69931" lon="4.66498">
        <ele>398.2</ele>
        <time>2026-08-26T08:07:35Z</time>
      </trkpt>
      <trkpt lat="45.6993" lon="4.66494">
        <ele>398.4</ele>
        <time>2026-08-26T08:07:36Z</time>
      </trkpt>
      <trkpt lat="45.69929" lon="4.6649">
        <ele>398.6</ele>
        <time>2026-08-26T08:07:37Z</time>
      </trkpt>
      <trkpt lat="45.69928" lon="4.66486">
        <ele>398.8</ele>
        <time>2026-08-26T08:07:38Z</time>
      </trkpt>
      <trkpt lat="45.69927" lon="4.66482">
        <ele>399</ele>
        <time>2026-08-26T08:07:39Z</time>
      </trkpt>
      <trkpt lat="45.69927" lon="4.66478">
        <ele>399.2</ele>
        <time>2026-08-26T08:07:40Z</time>
      </trkpt>
      <trkpt lat="45.69926" lon="4.66474">
        <ele>399.6</ele>
        <time>2026-08-26T08:07:41Z</time>
      </trkpt>
      <trkpt lat="45.69925" lon="4.6647">
        <ele>399.8</ele>
        <time>2026-08-26T08:07:42Z</time>
      </trkpt>
      <trkpt lat="45.69924" lon="4.66466">
        <ele>400</ele>
        <time>2026-08-26T08:07:43Z</time>
      </trkpt>
      <trkpt lat="45.69923" lon="4.66461">
        <ele>400.2</ele>
        <time>2026-08-26T08:07:44Z</time>
      </trkpt>
      <trkpt lat="45.69922" lon="4.66457">
        <ele>400.4</ele>
        <time>2026-08-26T08:07:45Z</time>
      </trkpt>
      <trkpt lat="45.69921" lon="4.66453">
        <ele>400.6</ele>
        <time>2026-08-26T08:07:46Z</time>
      </trkpt>
      <trkpt lat="45.69921" lon="4.66449">
        <ele>400.8</ele>
        <time>2026-08-26T08:07:47Z</time>
      </trkpt>
      <trkpt lat="45.69919" lon="4.66445">
        <ele>401</ele>
        <time>2026-08-26T08:07:48Z</time>
      </trkpt>
      <trkpt lat="45.69918" lon="4.66441">
        <ele>401.2</ele>
        <time>2026-08-26T08:07:49Z</time>
      </trkpt>
      <trkpt lat="45.69917" lon="4.66437">
        <ele>401.4</ele>
        <time>2026-08-26T08:07:50Z</time>
      </trkpt>
      <trkpt lat="45.69916" lon="4.66432">
        <ele>401.4</ele>
        <time>2026-08-26T08:07:51Z</time>
      </trkpt>
      <trkpt lat="45.69915" lon="4.66428">
        <ele>401.6</ele>
        <time>2026-08-26T08:07:52Z</time>
      </trkpt>
      <trkpt lat="45.69914" lon="4.66424">
        <ele>401.6</ele>
        <time>2026-08-26T08:07:53Z</time>
      </trkpt>
      <trkpt lat="45.69913" lon="4.66419">
        <ele>401.8</ele>
        <time>2026-08-26T08:07:54Z</time>
      </trkpt>
      <trkpt lat="45.69912" lon="4.66415">
        <ele>402</ele>
        <time>2026-08-26T08:07:55Z</time>
      </trkpt>
      <trkpt lat="45.6991" lon="4.66411">
        <ele>402</ele>
        <time>2026-08-26T08:07:56Z</time>
      </trkpt>
      <trkpt lat="45.69909" lon="4.66407">
        <ele>402.2</ele>
        <time>2026-08-26T08:07:57Z</time>
      </trkpt>
      <trkpt lat="45.69908" lon="4.66402">
        <ele>402.2</ele>
        <time>2026-08-26T08:07:58Z</time>
      </trkpt>
      <trkpt lat="45.69907" lon="4.66397">
        <ele>402.2</ele>
        <time>2026-08-26T08:07:59Z</time>
      </trkpt>
      <trkpt lat="45.69905" lon="4.66393">
        <ele>402.4</ele>
        <time>2026-08-26T08:08:00Z</time>
      </trkpt>
      <trkpt lat="45.69904" lon="4.66388">
        <ele>402.4</ele>
        <time>2026-08-26T08:08:01Z</time>
      </trkpt>
      <trkpt lat="45.69902" lon="4.66383">
        <ele>402.4</ele>
        <time>2026-08-26T08:08:02Z</time>
      </trkpt>
      <trkpt lat="45.69901" lon="4.66378">
        <ele>402.6</ele>
        <time>2026-08-26T08:08:03Z</time>
      </trkpt>
      <trkpt lat="45.699" lon="4.66373">
        <ele>402.6</ele>
        <time>2026-08-26T08:08:04Z</time>
      </trkpt>
      <trkpt lat="45.69898" lon="4.66368">
        <ele>402.6</ele>
        <time>2026-08-26T08:08:05Z</time>
      </trkpt>
      <trkpt lat="45.69896" lon="4.66363">
        <ele>402.8</ele>
        <time>2026-08-26T08:08:06Z</time>
      </trkpt>
      <trkpt lat="45.69895" lon="4.66359">
        <ele>402.8</ele>
        <time>2026-08-26T08:08:07Z</time>
      </trkpt>
      <trkpt lat="45.69893" lon="4.66354">
        <ele>403</ele>
        <time>2026-08-26T08:08:08Z</time>
      </trkpt>
      <trkpt lat="45.69892" lon="4.66349">
        <ele>403.2</ele>
        <time>2026-08-26T08:08:09Z</time>
      </trkpt>
      <trkpt lat="45.6989" lon="4.66344">
        <ele>403.2</ele>
        <time>2026-08-26T08:08:10Z</time>
      </trkpt>
      <trkpt lat="45.69888" lon="4.66339">
        <ele>403.4</ele>
        <time>2026-08-26T08:08:11Z</time>
      </trkpt>
      <trkpt lat="45.69886" lon="4.66334">
        <ele>403.6</ele>
        <time>2026-08-26T08:08:12Z</time>
      </trkpt>
      <trkpt lat="45.69884" lon="4.6633">
        <ele>403.8</ele>
        <time>2026-08-26T08:08:13Z</time>
      </trkpt>
      <trkpt lat="45.69883" lon="4.66325">
        <ele>403.8</ele>
        <time>2026-08-26T08:08:14Z</time>
      </trkpt>
      <trkpt lat="45.69881" lon="4.6632">
        <ele>404</ele>
        <time>2026-08-26T08:08:15Z</time>
      </trkpt>
      <trkpt lat="45.69879" lon="4.66316">
        <ele>404.2</ele>
        <time>2026-08-26T08:08:16Z</time>
      </trkpt>
      <trkpt lat="45.69878" lon="4.66311">
        <ele>404.4</ele>
        <time>2026-08-26T08:08:17Z</time>
      </trkpt>
      <trkpt lat="45.69876" lon="4.66307">
        <ele>404.6</ele>
        <time>2026-08-26T08:08:18Z</time>
      </trkpt>
      <trkpt lat="45.69874" lon="4.66302">
        <ele>404.8</ele>
        <time>2026-08-26T08:08:19Z</time>
      </trkpt>
      <trkpt lat="45.69872" lon="4.66298">
        <ele>404.8</ele>
        <time>2026-08-26T08:08:20Z</time>
      </trkpt>
      <trkpt lat="45.6987" lon="4.66293">
        <ele>405</ele>
        <time>2026-08-26T08:08:21Z</time>
      </trkpt>
      <trkpt lat="45.69869" lon="4.66288">
        <ele>405</ele>
        <time>2026-08-26T08:08:22Z</time>
      </trkpt>
      <trkpt lat="45.69867" lon="4.66282">
        <ele>405.2</ele>
        <time>2026-08-26T08:08:23Z</time>
      </trkpt>
      <trkpt lat="45.69866" lon="4.66277">
        <ele>405.2</ele>
        <time>2026-08-26T08:08:24Z</time>
      </trkpt>
      <trkpt lat="45.69864" lon="4.66272">
        <ele>405.4</ele>
        <time>2026-08-26T08:08:25Z</time>
      </trkpt>
      <trkpt lat="45.69862" lon="4.66267">
        <ele>405.4</ele>
        <time>2026-08-26T08:08:26Z</time>
      </trkpt>
      <trkpt lat="45.6986" lon="4.66262">
        <ele>405.4</ele>
        <time>2026-08-26T08:08:27Z</time>
      </trkpt>
      <trkpt lat="45.69858" lon="4.66257">
        <ele>405.6</ele>
        <time>2026-08-26T08:08:28Z</time>
      </trkpt>
      <trkpt lat="45.69857" lon="4.66252">
        <ele>405.6</ele>
        <time>2026-08-26T08:08:29Z</time>
      </trkpt>
      <trkpt lat="45.69855" lon="4.66246">
        <ele>405.6</ele>
        <time>2026-08-26T08:08:30Z</time>
      </trkpt>
      <trkpt lat="45.69853" lon="4.66241">
        <ele>405.8</ele>
        <time>2026-08-26T08:08:31Z</time>
      </trkpt>
      <trkpt lat="45.69852" lon="4.66236">
        <ele>405.8</ele>
        <time>2026-08-26T08:08:32Z</time>
      </trkpt>
      <trkpt lat="45.6985" lon="4.66231">
        <ele>406</ele>
        <time>2026-08-26T08:08:33Z</time>
      </trkpt>
      <trkpt lat="45.69848" lon="4.66226">
        <ele>406.2</ele>
        <time>2026-08-26T08:08:34Z</time>
      </trkpt>
      <trkpt lat="45.69847" lon="4.66221">
        <ele>406.2</ele>
        <time>2026-08-26T08:08:35Z</time>
      </trkpt>
      <trkpt lat="45.69845" lon="4.66216">
        <ele>406.4</ele>
        <time>2026-08-26T08:08:36Z</time>
      </trkpt>
      <trkpt lat="45.69843" lon="4.66212">
        <ele>406.6</ele>
        <time>2026-08-26T08:08:37Z</time>
      </trkpt>
      <trkpt lat="45.6984" lon="4.66207">
        <ele>406.6</ele>
        <time>2026-08-26T08:08:38Z</time>
      </trkpt>
      <trkpt lat="45.69838" lon="4.66203">
        <ele>406.8</ele>
        <time>2026-08-26T08:08:39Z</time>
      </trkpt>
      <trkpt lat="45.69835" lon="4.66199">
        <ele>406.8</ele>
        <time>2026-08-26T08:08:40Z</time>
      </trkpt>
      <trkpt lat="45.69832" lon="4.66195">
        <ele>406.8</ele>
        <time>2026-08-26T08:08:41Z</time>
      </trkpt>
      <trkpt lat="45.6983" lon="4.6619">
        <ele>406.8</ele>
        <time>2026-08-26T08:08:42Z</time>
      </trkpt>
      <trkpt lat="45.69826" lon="4.66186">
        <ele>406.8</ele>
        <time>2026-08-26T08:08:43Z</time>
      </trkpt>
      <trkpt lat="45.69823" lon="4.66182">
        <ele>406.8</ele>
        <time>2026-08-26T08:08:44Z</time>
      </trkpt>
      <trkpt lat="45.69821" lon="4.66177">
        <ele>406.8</ele>
        <time>2026-08-26T08:08:45Z</time>
      </trkpt>
      <trkpt lat="45.69818" lon="4.66173">
        <ele>406.8</ele>
        <time>2026-08-26T08:08:46Z</time>
      </trkpt>
      <trkpt lat="45.69815" lon="4.66168">
        <ele>406.8</ele>
        <time>2026-08-26T08:08:47Z</time>
      </trkpt>
      <trkpt lat="45.69811" lon="4.66163">
        <ele>406.8</ele>
        <time>2026-08-26T08:08:48Z</time>
      </trkpt>
      <trkpt lat="45.69808" lon="4.66159">
        <ele>406.8</ele>
        <time>2026-08-26T08:08:49Z</time>
      </trkpt>
      <trkpt lat="45.69805" lon="4.66154">
        <ele>406.8</ele>
        <time>2026-08-26T08:08:50Z</time>
      </trkpt>
      <trkpt lat="45.69802" lon="4.66149">
        <ele>406.8</ele>
        <time>2026-08-26T08:08:51Z</time>
      </trkpt>
      <trkpt lat="45.69799" lon="4.66145">
        <ele>406.8</ele>
        <time>2026-08-26T08:08:52Z</time>
      </trkpt>
      <trkpt lat="45.69796" lon="4.6614">
        <ele>407</ele>
        <time>2026-08-26T08:08:53Z</time>
      </trkpt>
      <trkpt lat="45.69793" lon="4.66135">
        <ele>407</ele>
        <time>2026-08-26T08:08:54Z</time>
      </trkpt>
      <trkpt lat="45.6979" lon="4.66131">
        <ele>407</ele>
        <time>2026-08-26T08:08:55Z</time>
      </trkpt>
      <trkpt lat="45.69787" lon="4.66126">
        <ele>407</ele>
        <time>2026-08-26T08:08:56Z</time>
      </trkpt>
      <trkpt lat="45.69784" lon="4.66123">
        <ele>407.2</ele>
        <time>2026-08-26T08:08:57Z</time>
      </trkpt>
      <trkpt lat="45.6978" lon="4.66119">
        <ele>407.4</ele>
        <time>2026-08-26T08:08:58Z</time>
      </trkpt>
      <trkpt lat="45.69778" lon="4.66115">
        <ele>407.4</ele>
        <time>2026-08-26T08:08:59Z</time>
      </trkpt>
      <trkpt lat="45.69775" lon="4.66112">
        <ele>407.8</ele>
        <time>2026-08-26T08:09:00Z</time>
      </trkpt>
      <trkpt lat="45.69772" lon="4.66109">
        <ele>408</ele>
        <time>2026-08-26T08:09:01Z</time>
      </trkpt>
      <trkpt lat="45.69768" lon="4.66106">
        <ele>408.2</ele>
        <time>2026-08-26T08:09:02Z</time>
      </trkpt>
      <trkpt lat="45.69766" lon="4.66104">
        <ele>408.4</ele>
        <time>2026-08-26T08:09:03Z</time>
      </trkpt>
      <trkpt lat="45.69763" lon="4.66101">
        <ele>408.6</ele>
        <time>2026-08-26T08:09:04Z</time>
      </trkpt>
      <trkpt lat="45.6976" lon="4.66098">
        <ele>408.8</ele>
        <time>2026-08-26T08:09:05Z</time>
      </trkpt>
      <trkpt lat="45.69757" lon="4.66095">
        <ele>409</ele>
        <time>2026-08-26T08:09:06Z</time>
      </trkpt>
      <trkpt lat="45.69755" lon="4.66093">
        <ele>409.2</ele>
        <time>2026-08-26T08:09:07Z</time>
      </trkpt>
      <trkpt lat="45.69752" lon="4.6609">
        <ele>409.4</ele>
        <time>2026-08-26T08:09:08Z</time>
      </trkpt>
      <trkpt lat="45.6975" lon="4.66088">
        <ele>409.8</ele>
        <time>2026-08-26T08:09:09Z</time>
      </trkpt>
      <trkpt lat="45.69747" lon="4.66085">
        <ele>410</ele>
        <time>2026-08-26T08:09:10Z</time>
      </trkpt>
      <trkpt lat="45.69745" lon="4.66083">
        <ele>410.2</ele>
        <time>2026-08-26T08:09:11Z</time>
      </trkpt>
      <trkpt lat="45.69743" lon="4.6608">
        <ele>410.4</ele>
        <time>2026-08-26T08:09:12Z</time>
      </trkpt>
      <trkpt lat="45.6974" lon="4.66077">
        <ele>410.6</ele>
        <time>2026-08-26T08:09:13Z</time>
      </trkpt>
      <trkpt lat="45.69737" lon="4.66075">
        <ele>410.8</ele>
        <time>2026-08-26T08:09:14Z</time>
      </trkpt>
      <trkpt lat="45.69735" lon="4.66073">
        <ele>411</ele>
        <time>2026-08-26T08:09:15Z</time>
      </trkpt>
      <trkpt lat="45.69732" lon="4.66071">
        <ele>411.2</ele>
        <time>2026-08-26T08:09:16Z</time>
      </trkpt>
      <trkpt lat="45.69729" lon="4.66068">
        <ele>411.4</ele>
        <time>2026-08-26T08:09:17Z</time>
      </trkpt>
      <trkpt lat="45.69727" lon="4.66065">
        <ele>411.6</ele>
        <time>2026-08-26T08:09:18Z</time>
      </trkpt>
      <trkpt lat="45.69724" lon="4.66062">
        <ele>411.8</ele>
        <time>2026-08-26T08:09:19Z</time>
      </trkpt>
      <trkpt lat="45.69721" lon="4.66059">
        <ele>412</ele>
        <time>2026-08-26T08:09:20Z</time>
      </trkpt>
      <trkpt lat="45.69719" lon="4.66057">
        <ele>412.2</ele>
        <time>2026-08-26T08:09:21Z</time>
      </trkpt>
      <trkpt lat="45.69716" lon="4.66054">
        <ele>412.2</ele>
        <time>2026-08-26T08:09:22Z</time>
      </trkpt>
      <trkpt lat="45.69713" lon="4.66052">
        <ele>412.4</ele>
        <time>2026-08-26T08:09:23Z</time>
      </trkpt>
      <trkpt lat="45.69711" lon="4.66048">
        <ele>412.6</ele>
        <time>2026-08-26T08:09:24Z</time>
      </trkpt>
      <trkpt lat="45.69708" lon="4.66046">
        <ele>412.6</ele>
        <time>2026-08-26T08:09:25Z</time>
      </trkpt>
      <trkpt lat="45.69706" lon="4.66044">
        <ele>412.8</ele>
        <time>2026-08-26T08:09:26Z</time>
      </trkpt>
      <trkpt lat="45.69703" lon="4.66041">
        <ele>413</ele>
        <time>2026-08-26T08:09:27Z</time>
      </trkpt>
      <trkpt lat="45.697" lon="4.66039">
        <ele>413.4</ele>
        <time>2026-08-26T08:09:28Z</time>
      </trkpt>
      <trkpt lat="45.69698" lon="4.66036">
        <ele>413.6</ele>
        <time>2026-08-26T08:09:29Z</time>
      </trkpt>
      <trkpt lat="45.69695" lon="4.66033">
        <ele>413.8</ele>
        <time>2026-08-26T08:09:30Z</time>
      </trkpt>
      <trkpt lat="45.69692" lon="4.6603">
        <ele>413.8</ele>
        <time>2026-08-26T08:09:31Z</time>
      </trkpt>
      <trkpt lat="45.6969" lon="4.66027">
        <ele>414</ele>
        <time>2026-08-26T08:09:32Z</time>
      </trkpt>
      <trkpt lat="45.69687" lon="4.66025">
        <ele>414.2</ele>
        <time>2026-08-26T08:09:33Z</time>
      </trkpt>
      <trkpt lat="45.69684" lon="4.66022">
        <ele>414.4</ele>
        <time>2026-08-26T08:09:34Z</time>
      </trkpt>
      <trkpt lat="45.69682" lon="4.6602">
        <ele>414.6</ele>
        <time>2026-08-26T08:09:35Z</time>
      </trkpt>
      <trkpt lat="45.69679" lon="4.66018">
        <ele>414.8</ele>
        <time>2026-08-26T08:09:36Z</time>
      </trkpt>
      <trkpt lat="45.69676" lon="4.66015">
        <ele>415</ele>
        <time>2026-08-26T08:09:37Z</time>
      </trkpt>
      <trkpt lat="45.69674" lon="4.66012">
        <ele>415.2</ele>
        <time>2026-08-26T08:09:38Z</time>
      </trkpt>
      <trkpt lat="45.69671" lon="4.6601">
        <ele>415.4</ele>
        <time>2026-08-26T08:09:39Z</time>
      </trkpt>
      <trkpt lat="45.69669" lon="4.66007">
        <ele>415.8</ele>
        <time>2026-08-26T08:09:40Z</time>
      </trkpt>
      <trkpt lat="45.69667" lon="4.66005">
        <ele>416</ele>
        <time>2026-08-26T08:09:41Z</time>
      </trkpt>
      <trkpt lat="45.69664" lon="4.66003">
        <ele>416.2</ele>
        <time>2026-08-26T08:09:42Z</time>
      </trkpt>
      <trkpt lat="45.69662" lon="4.66001">
        <ele>416.6</ele>
        <time>2026-08-26T08:09:43Z</time>
      </trkpt>
      <trkpt lat="45.69659" lon="4.65999">
        <ele>416.8</ele>
        <time>2026-08-26T08:09:44Z</time>
      </trkpt>
      <trkpt lat="45.69657" lon="4.65997">
        <ele>417</ele>
        <time>2026-08-26T08:09:45Z</time>
      </trkpt>
      <trkpt lat="45.69655" lon="4.65995">
        <ele>417.4</ele>
        <time>2026-08-26T08:09:46Z</time>
      </trkpt>
      <trkpt lat="45.69653" lon="4.65992">
        <ele>417.6</ele>
        <time>2026-08-26T08:09:47Z</time>
      </trkpt>
      <trkpt lat="45.69652" lon="4.65989">
        <ele>417.8</ele>
        <time>2026-08-26T08:09:48Z</time>
      </trkpt>
      <trkpt lat="45.6965" lon="4.65987">
        <ele>418</ele>
        <time>2026-08-26T08:09:49Z</time>
      </trkpt>
      <trkpt lat="45.69648" lon="4.65985">
        <ele>418.2</ele>
        <time>2026-08-26T08:09:50Z</time>
      </trkpt>
      <trkpt lat="45.69646" lon="4.65983">
        <ele>418.4</ele>
        <time>2026-08-26T08:09:51Z</time>
      </trkpt>
      <trkpt lat="45.69643" lon="4.65982">
        <ele>418.6</ele>
        <time>2026-08-26T08:09:52Z</time>
      </trkpt>
      <trkpt lat="45.69641" lon="4.6598">
        <ele>418.8</ele>
        <time>2026-08-26T08:09:53Z</time>
      </trkpt>
      <trkpt lat="45.69638" lon="4.65978">
        <ele>419</ele>
        <time>2026-08-26T08:09:54Z</time>
      </trkpt>
      <trkpt lat="45.69636" lon="4.65976">
        <ele>419.2</ele>
        <time>2026-08-26T08:09:55Z</time>
      </trkpt>
      <trkpt lat="45.69635" lon="4.65973">
        <ele>419.4</ele>
        <time>2026-08-26T08:09:56Z</time>
      </trkpt>
      <trkpt lat="45.69633" lon="4.65971">
        <ele>419.4</ele>
        <time>2026-08-26T08:09:57Z</time>
      </trkpt>
      <trkpt lat="45.69631" lon="4.65969">
        <ele>419.6</ele>
        <time>2026-08-26T08:09:58Z</time>
      </trkpt>
      <trkpt lat="45.69628" lon="4.65968">
        <ele>420</ele>
        <time>2026-08-26T08:09:59Z</time>
      </trkpt>
      <trkpt lat="45.69626" lon="4.65966">
        <ele>420.2</ele>
        <time>2026-08-26T08:10:00Z</time>
      </trkpt>
      <trkpt lat="45.69624" lon="4.65964">
        <ele>420.4</ele>
        <time>2026-08-26T08:10:01Z</time>
      </trkpt>
      <trkpt lat="45.69622" lon="4.65962">
        <ele>420.4</ele>
        <time>2026-08-26T08:10:02Z</time>
      </trkpt>
      <trkpt lat="45.69621" lon="4.65959">
        <ele>420.6</ele>
        <time>2026-08-26T08:10:03Z</time>
      </trkpt>
      <trkpt lat="45.6962" lon="4.65956">
        <ele>420.8</ele>
        <time>2026-08-26T08:10:04Z</time>
      </trkpt>
      <trkpt lat="45.69618" lon="4.65953">
        <ele>420.8</ele>
        <time>2026-08-26T08:10:05Z</time>
      </trkpt>
      <trkpt lat="45.69616" lon="4.65951">
        <ele>421</ele>
        <time>2026-08-26T08:10:06Z</time>
      </trkpt>
      <trkpt lat="45.69614" lon="4.65948">
        <ele>421.2</ele>
        <time>2026-08-26T08:10:07Z</time>
      </trkpt>
      <trkpt lat="45.69611" lon="4.65945">
        <ele>421.2</ele>
        <time>2026-08-26T08:10:08Z</time>
      </trkpt>
      <trkpt lat="45.69609" lon="4.65942">
        <ele>421.4</ele>
        <time>2026-08-26T08:10:09Z</time>
      </trkpt>
      <trkpt lat="45.69607" lon="4.65938">
        <ele>421.4</ele>
        <time>2026-08-26T08:10:10Z</time>
      </trkpt>
      <trkpt lat="45.69605" lon="4.65934">
        <ele>421.2</ele>
        <time>2026-08-26T08:10:11Z</time>
      </trkpt>
      <trkpt lat="45.69602" lon="4.65929">
        <ele>421.2</ele>
        <time>2026-08-26T08:10:12Z</time>
      </trkpt>
      <trkpt lat="45.696" lon="4.65925">
        <ele>421.2</ele>
        <time>2026-08-26T08:10:13Z</time>
      </trkpt>
      <trkpt lat="45.69598" lon="4.6592">
        <ele>421.2</ele>
        <time>2026-08-26T08:10:14Z</time>
      </trkpt>
      <trkpt lat="45.69595" lon="4.65915">
        <ele>421.2</ele>
        <time>2026-08-26T08:10:15Z</time>
      </trkpt>
      <trkpt lat="45.69592" lon="4.65911">
        <ele>421.2</ele>
        <time>2026-08-26T08:10:16Z</time>
      </trkpt>
      <trkpt lat="45.6959" lon="4.65906">
        <ele>421.2</ele>
        <time>2026-08-26T08:10:17Z</time>
      </trkpt>
      <trkpt lat="45.69587" lon="4.65901">
        <ele>421.2</ele>
        <time>2026-08-26T08:10:18Z</time>
      </trkpt>
      <trkpt lat="45.69585" lon="4.65897">
        <ele>421.2</ele>
        <time>2026-08-26T08:10:19Z</time>
      </trkpt>
      <trkpt lat="45.69582" lon="4.65892">
        <ele>421.2</ele>
        <time>2026-08-26T08:10:20Z</time>
      </trkpt>
      <trkpt lat="45.6958" lon="4.65886">
        <ele>421</ele>
        <time>2026-08-26T08:10:21Z</time>
      </trkpt>
      <trkpt lat="45.69577" lon="4.65881">
        <ele>421</ele>
        <time>2026-08-26T08:10:22Z</time>
      </trkpt>
      <trkpt lat="45.69574" lon="4.65875">
        <ele>420.8</ele>
        <time>2026-08-26T08:10:23Z</time>
      </trkpt>
      <trkpt lat="45.69571" lon="4.65868">
        <ele>420.4</ele>
        <time>2026-08-26T08:10:24Z</time>
      </trkpt>
      <trkpt lat="45.69568" lon="4.65862">
        <ele>420.2</ele>
        <time>2026-08-26T08:10:25Z</time>
      </trkpt>
      <trkpt lat="45.69564" lon="4.65855">
        <ele>420</ele>
        <time>2026-08-26T08:10:26Z</time>
      </trkpt>
      <trkpt lat="45.69561" lon="4.65848">
        <ele>419.8</ele>
        <time>2026-08-26T08:10:27Z</time>
      </trkpt>
      <trkpt lat="45.69558" lon="4.65841">
        <ele>419.6</ele>
        <time>2026-08-26T08:10:28Z</time>
      </trkpt>
      <trkpt lat="45.69555" lon="4.65835">
        <ele>419.2</ele>
        <time>2026-08-26T08:10:29Z</time>
      </trkpt>
      <trkpt lat="45.69551" lon="4.65828">
        <ele>419</ele>
        <time>2026-08-26T08:10:30Z</time>
      </trkpt>
      <trkpt lat="45.69548" lon="4.65821">
        <ele>418.8</ele>
        <time>2026-08-26T08:10:31Z</time>
      </trkpt>
      <trkpt lat="45.69545" lon="4.65815">
        <ele>418.6</ele>
        <time>2026-08-26T08:10:32Z</time>
      </trkpt>
      <trkpt lat="45.69541" lon="4.65808">
        <ele>418.6</ele>
        <time>2026-08-26T08:10:33Z</time>
      </trkpt>
      <trkpt lat="45.69537" lon="4.65802">
        <ele>418.4</ele>
        <time>2026-08-26T08:10:34Z</time>
      </trkpt>
      <trkpt lat="45.69533" lon="4.65796">
        <ele>418.6</ele>
        <time>2026-08-26T08:10:35Z</time>
      </trkpt>
      <trkpt lat="45.69529" lon="4.65791">
        <ele>418.8</ele>
        <time>2026-08-26T08:10:36Z</time>
      </trkpt>
      <trkpt lat="45.69526" lon="4.65787">
        <ele>419</ele>
        <time>2026-08-26T08:10:37Z</time>
      </trkpt>
      <trkpt lat="45.69523" lon="4.65783">
        <ele>419.4</ele>
        <time>2026-08-26T08:10:38Z</time>
      </trkpt>
      <trkpt lat="45.69519" lon="4.6578">
        <ele>420</ele>
        <time>2026-08-26T08:10:39Z</time>
      </trkpt>
      <trkpt lat="45.69516" lon="4.65778">
        <ele>420.6</ele>
        <time>2026-08-26T08:10:40Z</time>
      </trkpt>
      <trkpt lat="45.69514" lon="4.65775">
        <ele>421.2</ele>
        <time>2026-08-26T08:10:41Z</time>
      </trkpt>
      <trkpt lat="45.69511" lon="4.65772">
        <ele>421.6</ele>
        <time>2026-08-26T08:10:42Z</time>
      </trkpt>
      <trkpt lat="45.69508" lon="4.65769">
        <ele>422.2</ele>
        <time>2026-08-26T08:10:43Z</time>
      </trkpt>
      <trkpt lat="45.69505" lon="4.65767">
        <ele>422.4</ele>
        <time>2026-08-26T08:10:44Z</time>
      </trkpt>
      <trkpt lat="45.69502" lon="4.65765">
        <ele>422.8</ele>
        <time>2026-08-26T08:10:45Z</time>
      </trkpt>
      <trkpt lat="45.69499" lon="4.65762">
        <ele>423</ele>
        <time>2026-08-26T08:10:46Z</time>
      </trkpt>
      <trkpt lat="45.69496" lon="4.65759">
        <ele>423.2</ele>
        <time>2026-08-26T08:10:47Z</time>
      </trkpt>
      <trkpt lat="45.69494" lon="4.65757">
        <ele>423.6</ele>
        <time>2026-08-26T08:10:48Z</time>
      </trkpt>
      <trkpt lat="45.69491" lon="4.65754">
        <ele>423.8</ele>
        <time>2026-08-26T08:10:49Z</time>
      </trkpt>
      <trkpt lat="45.69488" lon="4.65751">
        <ele>423.8</ele>
        <time>2026-08-26T08:10:50Z</time>
      </trkpt>
      <trkpt lat="45.69485" lon="4.65749">
        <ele>424</ele>
        <time>2026-08-26T08:10:51Z</time>
      </trkpt>
      <trkpt lat="45.69482" lon="4.65746">
        <ele>424.2</ele>
        <time>2026-08-26T08:10:52Z</time>
      </trkpt>
      <trkpt lat="45.69479" lon="4.65743">
        <ele>424.2</ele>
        <time>2026-08-26T08:10:53Z</time>
      </trkpt>
      <trkpt lat="45.69476" lon="4.6574">
        <ele>424.4</ele>
        <time>2026-08-26T08:10:54Z</time>
      </trkpt>
      <trkpt lat="45.69473" lon="4.65737">
        <ele>424.6</ele>
        <time>2026-08-26T08:10:55Z</time>
      </trkpt>
      <trkpt lat="45.69471" lon="4.65734">
        <ele>424.8</ele>
        <time>2026-08-26T08:10:56Z</time>
      </trkpt>
      <trkpt lat="45.69468" lon="4.65731">
        <ele>425</ele>
        <time>2026-08-26T08:10:57Z</time>
      </trkpt>
      <trkpt lat="45.69466" lon="4.65728">
        <ele>425.2</ele>
        <time>2026-08-26T08:10:58Z</time>
      </trkpt>
      <trkpt lat="45.69463" lon="4.65725">
        <ele>425.4</ele>
        <time>2026-08-26T08:10:59Z</time>
      </trkpt>
      <trkpt lat="45.6946" lon="4.65723">
        <ele>425.6</ele>
        <time>2026-08-26T08:11:00Z</time>
      </trkpt>
      <trkpt lat="45.69457" lon="4.6572">
        <ele>425.8</ele>
        <time>2026-08-26T08:11:01Z</time>
      </trkpt>
      <trkpt lat="45.69455" lon="4.65717">
        <ele>426</ele>
        <time>2026-08-26T08:11:02Z</time>
      </trkpt>
      <trkpt lat="45.69452" lon="4.65714">
        <ele>426.4</ele>
        <time>2026-08-26T08:11:03Z</time>
      </trkpt>
      <trkpt lat="45.69449" lon="4.65711">
        <ele>426.6</ele>
        <time>2026-08-26T08:11:04Z</time>
      </trkpt>
      <trkpt lat="45.69446" lon="4.65708">
        <ele>426.6</ele>
        <time>2026-08-26T08:11:05Z</time>
      </trkpt>
      <trkpt lat="45.69443" lon="4.65705">
        <ele>426.8</ele>
        <time>2026-08-26T08:11:06Z</time>
      </trkpt>
      <trkpt lat="45.6944" lon="4.65702">
        <ele>427</ele>
        <time>2026-08-26T08:11:07Z</time>
      </trkpt>
      <trkpt lat="45.69437" lon="4.65699">
        <ele>427.2</ele>
        <time>2026-08-26T08:11:08Z</time>
      </trkpt>
      <trkpt lat="45.69434" lon="4.65696">
        <ele>427.2</ele>
        <time>2026-08-26T08:11:09Z</time>
      </trkpt>
      <trkpt lat="45.69431" lon="4.65693">
        <ele>427.4</ele>
        <time>2026-08-26T08:11:10Z</time>
      </trkpt>
      <trkpt lat="45.69428" lon="4.6569">
        <ele>427.6</ele>
        <time>2026-08-26T08:11:11Z</time>
      </trkpt>
      <trkpt lat="45.69425" lon="4.65687">
        <ele>427.8</ele>
        <time>2026-08-26T08:11:12Z</time>
      </trkpt>
      <trkpt lat="45.69422" lon="4.65684">
        <ele>428</ele>
        <time>2026-08-26T08:11:13Z</time>
      </trkpt>
      <trkpt lat="45.6942" lon="4.65682">
        <ele>428</ele>
        <time>2026-08-26T08:11:14Z</time>
      </trkpt>
      <trkpt lat="45.69416" lon="4.6568">
        <ele>428.2</ele>
        <time>2026-08-26T08:11:15Z</time>
      </trkpt>
      <trkpt lat="45.69413" lon="4.65678">
        <ele>428.4</ele>
        <time>2026-08-26T08:11:16Z</time>
      </trkpt>
      <trkpt lat="45.6941" lon="4.65676">
        <ele>428.6</ele>
        <time>2026-08-26T08:11:17Z</time>
      </trkpt>
      <trkpt lat="45.69406" lon="4.65673">
        <ele>428.8</ele>
        <time>2026-08-26T08:11:18Z</time>
      </trkpt>
      <trkpt lat="45.69403" lon="4.65671">
        <ele>428.8</ele>
        <time>2026-08-26T08:11:19Z</time>
      </trkpt>
      <trkpt lat="45.69399" lon="4.65669">
        <ele>429</ele>
        <time>2026-08-26T08:11:20Z</time>
      </trkpt>
      <trkpt lat="45.69396" lon="4.65668">
        <ele>429.2</ele>
        <time>2026-08-26T08:11:21Z</time>
      </trkpt>
      <trkpt lat="45.69392" lon="4.65666">
        <ele>429.2</ele>
        <time>2026-08-26T08:11:22Z</time>
      </trkpt>
      <trkpt lat="45.69389" lon="4.65664">
        <ele>429.2</ele>
        <time>2026-08-26T08:11:23Z</time>
      </trkpt>
      <trkpt lat="45.69385" lon="4.65662">
        <ele>429.4</ele>
        <time>2026-08-26T08:11:24Z</time>
      </trkpt>
      <trkpt lat="45.69382" lon="4.6566">
        <ele>429.4</ele>
        <time>2026-08-26T08:11:25Z</time>
      </trkpt>
      <trkpt lat="45.69378" lon="4.65658">
        <ele>429.4</ele>
        <time>2026-08-26T08:11:26Z</time>
      </trkpt>
      <trkpt lat="45.69374" lon="4.65656">
        <ele>429.4</ele>
        <time>2026-08-26T08:11:27Z</time>
      </trkpt>
      <trkpt lat="45.6937" lon="4.65654">
        <ele>429.6</ele>
        <time>2026-08-26T08:11:28Z</time>
      </trkpt>
      <trkpt lat="45.69366" lon="4.65652">
        <ele>429.6</ele>
        <time>2026-08-26T08:11:29Z</time>
      </trkpt>
      <trkpt lat="45.69362" lon="4.6565">
        <ele>429.8</ele>
        <time>2026-08-26T08:11:30Z</time>
      </trkpt>
      <trkpt lat="45.69359" lon="4.65647">
        <ele>429.8</ele>
        <time>2026-08-26T08:11:31Z</time>
      </trkpt>
      <trkpt lat="45.69355" lon="4.65645">
        <ele>429.8</ele>
        <time>2026-08-26T08:11:32Z</time>
      </trkpt>
      <trkpt lat="45.69351" lon="4.65643">
        <ele>430</ele>
        <time>2026-08-26T08:11:33Z</time>
      </trkpt>
      <trkpt lat="45.69347" lon="4.65641">
        <ele>430</ele>
        <time>2026-08-26T08:11:34Z</time>
      </trkpt>
      <trkpt lat="45.69343" lon="4.65638">
        <ele>430</ele>
        <time>2026-08-26T08:11:35Z</time>
      </trkpt>
      <trkpt lat="45.69339" lon="4.65635">
        <ele>430</ele>
        <time>2026-08-26T08:11:36Z</time>
      </trkpt>
      <trkpt lat="45.69335" lon="4.65632">
        <ele>430.2</ele>
        <time>2026-08-26T08:11:37Z</time>
      </trkpt>
      <trkpt lat="45.69331" lon="4.65629">
        <ele>430.2</ele>
        <time>2026-08-26T08:11:38Z</time>
      </trkpt>
      <trkpt lat="45.69327" lon="4.65626">
        <ele>430.4</ele>
        <time>2026-08-26T08:11:39Z</time>
      </trkpt>
      <trkpt lat="45.69323" lon="4.65623">
        <ele>430.4</ele>
        <time>2026-08-26T08:11:40Z</time>
      </trkpt>
      <trkpt lat="45.6932" lon="4.6562">
        <ele>430.6</ele>
        <time>2026-08-26T08:11:41Z</time>
      </trkpt>
      <trkpt lat="45.69316" lon="4.65616">
        <ele>430.6</ele>
        <time>2026-08-26T08:11:42Z</time>
      </trkpt>
      <trkpt lat="45.69312" lon="4.65613">
        <ele>430.8</ele>
        <time>2026-08-26T08:11:43Z</time>
      </trkpt>
      <trkpt lat="45.69309" lon="4.65609">
        <ele>430.8</ele>
        <time>2026-08-26T08:11:44Z</time>
      </trkpt>
      <trkpt lat="45.69305" lon="4.65605">
        <ele>430.8</ele>
        <time>2026-08-26T08:11:45Z</time>
      </trkpt>
      <trkpt lat="45.69301" lon="4.65601">
        <ele>430.8</ele>
        <time>2026-08-26T08:11:46Z</time>
      </trkpt>
      <trkpt lat="45.69297" lon="4.65597">
        <ele>430.8</ele>
        <time>2026-08-26T08:11:47Z</time>
      </trkpt>
      <trkpt lat="45.69293" lon="4.65594">
        <ele>430.8</ele>
        <time>2026-08-26T08:11:48Z</time>
      </trkpt>
      <trkpt lat="45.6929" lon="4.6559">
        <ele>430.8</ele>
        <time>2026-08-26T08:11:49Z</time>
      </trkpt>
      <trkpt lat="45.69286" lon="4.65586">
        <ele>430.8</ele>
        <time>2026-08-26T08:11:50Z</time>
      </trkpt>
      <trkpt lat="45.69282" lon="4.65583">
        <ele>430.8</ele>
        <time>2026-08-26T08:11:51Z</time>
      </trkpt>
      <trkpt lat="45.69278" lon="4.65579">
        <ele>430.8</ele>
        <time>2026-08-26T08:11:52Z</time>
      </trkpt>
      <trkpt lat="45.69274" lon="4.65574">
        <ele>430.6</ele>
        <time>2026-08-26T08:11:53Z</time>
      </trkpt>
      <trkpt lat="45.69271" lon="4.65569">
        <ele>430.6</ele>
        <time>2026-08-26T08:11:54Z</time>
      </trkpt>
      <trkpt lat="45.69267" lon="4.65565">
        <ele>430.6</ele>
        <time>2026-08-26T08:11:55Z</time>
      </trkpt>
      <trkpt lat="45.69263" lon="4.6556">
        <ele>430.6</ele>
        <time>2026-08-26T08:11:56Z</time>
      </trkpt>
      <trkpt lat="45.6926" lon="4.65556">
        <ele>430.6</ele>
        <time>2026-08-26T08:11:57Z</time>
      </trkpt>
      <trkpt lat="45.69257" lon="4.65552">
        <ele>430.6</ele>
        <time>2026-08-26T08:11:58Z</time>
      </trkpt>
      <trkpt lat="45.69254" lon="4.65547">
        <ele>430.8</ele>
        <time>2026-08-26T08:11:59Z</time>
      </trkpt>
      <trkpt lat="45.6925" lon="4.65543">
        <ele>430.8</ele>
        <time>2026-08-26T08:12:00Z</time>
      </trkpt>
      <trkpt lat="45.69247" lon="4.65538">
        <ele>431</ele>
        <time>2026-08-26T08:12:01Z</time>
      </trkpt>
      <trkpt lat="45.69244" lon="4.65534">
        <ele>431.2</ele>
        <time>2026-08-26T08:12:02Z</time>
      </trkpt>
      <trkpt lat="45.69241" lon="4.65529">
        <ele>431.2</ele>
        <time>2026-08-26T08:12:03Z</time>
      </trkpt>
      <trkpt lat="45.69237" lon="4.65524">
        <ele>431.4</ele>
        <time>2026-08-26T08:12:04Z</time>
      </trkpt>
      <trkpt lat="45.69234" lon="4.6552">
        <ele>431.4</ele>
        <time>2026-08-26T08:12:05Z</time>
      </trkpt>
      <trkpt lat="45.6923" lon="4.65515">
        <ele>431.4</ele>
        <time>2026-08-26T08:12:06Z</time>
      </trkpt>
      <trkpt lat="45.69227" lon="4.6551">
        <ele>431.4</ele>
        <time>2026-08-26T08:12:07Z</time>
      </trkpt>
      <trkpt lat="45.69224" lon="4.65505">
        <ele>431.4</ele>
        <time>2026-08-26T08:12:08Z</time>
      </trkpt>
      <trkpt lat="45.69221" lon="4.65501">
        <ele>431.6</ele>
        <time>2026-08-26T08:12:09Z</time>
      </trkpt>
      <trkpt lat="45.69217" lon="4.65496">
        <ele>431.6</ele>
        <time>2026-08-26T08:12:10Z</time>
      </trkpt>
      <trkpt lat="45.69214" lon="4.65491">
        <ele>431.6</ele>
        <time>2026-08-26T08:12:11Z</time>
      </trkpt>
      <trkpt lat="45.69211" lon="4.65486">
        <ele>431.6</ele>
        <time>2026-08-26T08:12:12Z</time>
      </trkpt>
      <trkpt lat="45.69208" lon="4.65482">
        <ele>431.6</ele>
        <time>2026-08-26T08:12:13Z</time>
      </trkpt>
      <trkpt lat="45.69205" lon="4.65477">
        <ele>431.6</ele>
        <time>2026-08-26T08:12:14Z</time>
      </trkpt>
      <trkpt lat="45.69202" lon="4.65472">
        <ele>431.6</ele>
        <time>2026-08-26T08:12:15Z</time>
      </trkpt>
      <trkpt lat="45.69199" lon="4.65469">
        <ele>431.6</ele>
        <time>2026-08-26T08:12:16Z</time>
      </trkpt>
      <trkpt lat="45.69195" lon="4.65466">
        <ele>431.6</ele>
        <time>2026-08-26T08:12:17Z</time>
      </trkpt>
      <trkpt lat="45.69191" lon="4.65464">
        <ele>431.4</ele>
        <time>2026-08-26T08:12:18Z</time>
      </trkpt>
      <trkpt lat="45.69186" lon="4.65462">
        <ele>431.2</ele>
        <time>2026-08-26T08:12:19Z</time>
      </trkpt>
      <trkpt lat="45.69181" lon="4.6546">
        <ele>431</ele>
        <time>2026-08-26T08:12:20Z</time>
      </trkpt>
      <trkpt lat="45.69176" lon="4.65459">
        <ele>430.6</ele>
        <time>2026-08-26T08:12:21Z</time>
      </trkpt>
      <trkpt lat="45.69171" lon="4.65455">
        <ele>430.4</ele>
        <time>2026-08-26T08:12:22Z</time>
      </trkpt>
      <trkpt lat="45.69167" lon="4.65449">
        <ele>430</ele>
        <time>2026-08-26T08:12:23Z</time>
      </trkpt>
      <trkpt lat="45.69165" lon="4.65441">
        <ele>429.6</ele>
        <time>2026-08-26T08:12:24Z</time>
      </trkpt>
      <trkpt lat="45.69163" lon="4.65433">
        <ele>429.4</ele>
        <time>2026-08-26T08:12:25Z</time>
      </trkpt>
      <trkpt lat="45.69161" lon="4.65425">
        <ele>429.2</ele>
        <time>2026-08-26T08:12:26Z</time>
      </trkpt>
      <trkpt lat="45.6916" lon="4.65417">
        <ele>429</ele>
        <time>2026-08-26T08:12:27Z</time>
      </trkpt>
      <trkpt lat="45.69159" lon="4.65409">
        <ele>429</ele>
        <time>2026-08-26T08:12:28Z</time>
      </trkpt>
      <trkpt lat="45.69157" lon="4.65402">
        <ele>428.8</ele>
        <time>2026-08-26T08:12:29Z</time>
      </trkpt>
      <trkpt lat="45.69156" lon="4.65394">
        <ele>428.8</ele>
        <time>2026-08-26T08:12:30Z</time>
      </trkpt>
      <trkpt lat="45.69155" lon="4.65386">
        <ele>429</ele>
        <time>2026-08-26T08:12:31Z</time>
      </trkpt>
      <trkpt lat="45.69153" lon="4.65379">
        <ele>429</ele>
        <time>2026-08-26T08:12:32Z</time>
      </trkpt>
      <trkpt lat="45.69152" lon="4.65372">
        <ele>429.2</ele>
        <time>2026-08-26T08:12:33Z</time>
      </trkpt>
      <trkpt lat="45.6915" lon="4.65364">
        <ele>429.2</ele>
        <time>2026-08-26T08:12:34Z</time>
      </trkpt>
      <trkpt lat="45.69149" lon="4.65357">
        <ele>429.2</ele>
        <time>2026-08-26T08:12:35Z</time>
      </trkpt>
      <trkpt lat="45.69147" lon="4.65349">
        <ele>429.2</ele>
        <time>2026-08-26T08:12:36Z</time>
      </trkpt>
      <trkpt lat="45.69146" lon="4.65341">
        <ele>429.2</ele>
        <time>2026-08-26T08:12:37Z</time>
      </trkpt>
      <trkpt lat="45.69145" lon="4.65333">
        <ele>429.2</ele>
        <time>2026-08-26T08:12:38Z</time>
      </trkpt>
      <trkpt lat="45.69143" lon="4.65325">
        <ele>429.2</ele>
        <time>2026-08-26T08:12:39Z</time>
      </trkpt>
      <trkpt lat="45.69142" lon="4.65317">
        <ele>429.2</ele>
        <time>2026-08-26T08:12:40Z</time>
      </trkpt>
      <trkpt lat="45.6914" lon="4.65309">
        <ele>429.2</ele>
        <time>2026-08-26T08:12:41Z</time>
      </trkpt>
      <trkpt lat="45.69139" lon="4.65302">
        <ele>429.4</ele>
        <time>2026-08-26T08:12:42Z</time>
      </trkpt>
      <trkpt lat="45.69138" lon="4.65294">
        <ele>429.4</ele>
        <time>2026-08-26T08:12:43Z</time>
      </trkpt>
      <trkpt lat="45.69137" lon="4.65285">
        <ele>429.4</ele>
        <time>2026-08-26T08:12:44Z</time>
      </trkpt>
      <trkpt lat="45.69137" lon="4.65277">
        <ele>429.4</ele>
        <time>2026-08-26T08:12:45Z</time>
      </trkpt>
      <trkpt lat="45.69137" lon="4.65269">
        <ele>429.4</ele>
        <time>2026-08-26T08:12:46Z</time>
      </trkpt>
      <trkpt lat="45.69138" lon="4.6526">
        <ele>429.2</ele>
        <time>2026-08-26T08:12:47Z</time>
      </trkpt>
      <trkpt lat="45.69139" lon="4.6525">
        <ele>428.8</ele>
        <time>2026-08-26T08:12:48Z</time>
      </trkpt>
      <trkpt lat="45.69141" lon="4.6524">
        <ele>428.2</ele>
        <time>2026-08-26T08:12:49Z</time>
      </trkpt>
      <trkpt lat="45.69141" lon="4.65228">
        <ele>427.4</ele>
        <time>2026-08-26T08:12:50Z</time>
      </trkpt>
      <trkpt lat="45.69141" lon="4.65215">
        <ele>426.4</ele>
        <time>2026-08-26T08:12:51Z</time>
      </trkpt>
      <trkpt lat="45.6914" lon="4.65203">
        <ele>425.6</ele>
        <time>2026-08-26T08:12:52Z</time>
      </trkpt>
      <trkpt lat="45.69138" lon="4.65192">
        <ele>424.8</ele>
        <time>2026-08-26T08:12:53Z</time>
      </trkpt>
      <trkpt lat="45.69135" lon="4.65181">
        <ele>424.2</ele>
        <time>2026-08-26T08:12:54Z</time>
      </trkpt>
      <trkpt lat="45.69132" lon="4.65171">
        <ele>424.2</ele>
        <time>2026-08-26T08:12:55Z</time>
      </trkpt>
      <trkpt lat="45.69129" lon="4.65162">
        <ele>424.2</ele>
        <time>2026-08-26T08:12:56Z</time>
      </trkpt>
      <trkpt lat="45.69125" lon="4.65154">
        <ele>424.4</ele>
        <time>2026-08-26T08:12:57Z</time>
      </trkpt>
      <trkpt lat="45.69122" lon="4.65146">
        <ele>425</ele>
        <time>2026-08-26T08:12:58Z</time>
      </trkpt>
      <trkpt lat="45.69119" lon="4.6514">
        <ele>425.4</ele>
        <time>2026-08-26T08:12:59Z</time>
      </trkpt>
      <trkpt lat="45.69116" lon="4.65134">
        <ele>426</ele>
        <time>2026-08-26T08:13:00Z</time>
      </trkpt>
      <trkpt lat="45.69112" lon="4.65128">
        <ele>426.4</ele>
        <time>2026-08-26T08:13:01Z</time>
      </trkpt>
      <trkpt lat="45.69109" lon="4.65123">
        <ele>426.8</ele>
        <time>2026-08-26T08:13:02Z</time>
      </trkpt>
      <trkpt lat="45.69105" lon="4.65119">
        <ele>427</ele>
        <time>2026-08-26T08:13:03Z</time>
      </trkpt>
      <trkpt lat="45.69101" lon="4.65115">
        <ele>427.2</ele>
        <time>2026-08-26T08:13:04Z</time>
      </trkpt>
      <trkpt lat="45.69096" lon="4.65112">
        <ele>427.2</ele>
        <time>2026-08-26T08:13:05Z</time>
      </trkpt>
      <trkpt lat="45.69091" lon="4.65109">
        <ele>427.2</ele>
        <time>2026-08-26T08:13:06Z</time>
      </trkpt>
      <trkpt lat="45.69086" lon="4.65105">
        <ele>427.2</ele>
        <time>2026-08-26T08:13:07Z</time>
      </trkpt>
      <trkpt lat="45.69081" lon="4.65102">
        <ele>427</ele>
        <time>2026-08-26T08:13:08Z</time>
      </trkpt>
      <trkpt lat="45.69076" lon="4.65097">
        <ele>427</ele>
        <time>2026-08-26T08:13:09Z</time>
      </trkpt>
      <trkpt lat="45.6907" lon="4.65092">
        <ele>426.8</ele>
        <time>2026-08-26T08:13:10Z</time>
      </trkpt>
      <trkpt lat="45.69066" lon="4.65087">
        <ele>426.6</ele>
        <time>2026-08-26T08:13:11Z</time>
      </trkpt>
      <trkpt lat="45.69061" lon="4.65081">
        <ele>426.4</ele>
        <time>2026-08-26T08:13:12Z</time>
      </trkpt>
      <trkpt lat="45.69056" lon="4.65074">
        <ele>426.2</ele>
        <time>2026-08-26T08:13:13Z</time>
      </trkpt>
      <trkpt lat="45.69052" lon="4.65068">
        <ele>426</ele>
        <time>2026-08-26T08:13:14Z</time>
      </trkpt>
      <trkpt lat="45.69049" lon="4.65061">
        <ele>425.8</ele>
        <time>2026-08-26T08:13:15Z</time>
      </trkpt>
      <trkpt lat="45.69045" lon="4.65054">
        <ele>425.8</ele>
        <time>2026-08-26T08:13:16Z</time>
      </trkpt>
      <trkpt lat="45.69041" lon="4.65047">
        <ele>425.6</ele>
        <time>2026-08-26T08:13:17Z</time>
      </trkpt>
      <trkpt lat="45.69037" lon="4.6504">
        <ele>425.4</ele>
        <time>2026-08-26T08:13:18Z</time>
      </trkpt>
      <trkpt lat="45.69034" lon="4.65033">
        <ele>425.4</ele>
        <time>2026-08-26T08:13:19Z</time>
      </trkpt>
      <trkpt lat="45.69031" lon="4.65027">
        <ele>425.4</ele>
        <time>2026-08-26T08:13:20Z</time>
      </trkpt>
      <trkpt lat="45.69027" lon="4.65022">
        <ele>425.6</ele>
        <time>2026-08-26T08:13:21Z</time>
      </trkpt>
      <trkpt lat="45.69024" lon="4.65017">
        <ele>425.8</ele>
        <time>2026-08-26T08:13:22Z</time>
      </trkpt>
      <trkpt lat="45.69021" lon="4.65011">
        <ele>426</ele>
        <time>2026-08-26T08:13:23Z</time>
      </trkpt>
      <trkpt lat="45.69018" lon="4.65005">
        <ele>426.2</ele>
        <time>2026-08-26T08:13:24Z</time>
      </trkpt>
      <trkpt lat="45.69015" lon="4.64999">
        <ele>426.4</ele>
        <time>2026-08-26T08:13:25Z</time>
      </trkpt>
      <trkpt lat="45.69012" lon="4.64994">
        <ele>426.4</ele>
        <time>2026-08-26T08:13:26Z</time>
      </trkpt>
      <trkpt lat="45.69009" lon="4.64987">
        <ele>426.4</ele>
        <time>2026-08-26T08:13:27Z</time>
      </trkpt>
      <trkpt lat="45.69005" lon="4.64981">
        <ele>426.2</ele>
        <time>2026-08-26T08:13:28Z</time>
      </trkpt>
      <trkpt lat="45.69002" lon="4.64975">
        <ele>426.2</ele>
        <time>2026-08-26T08:13:29Z</time>
      </trkpt>
      <trkpt lat="45.68999" lon="4.64969">
        <ele>426.2</ele>
        <time>2026-08-26T08:13:30Z</time>
      </trkpt>
      <trkpt lat="45.68996" lon="4.64963">
        <ele>426</ele>
        <time>2026-08-26T08:13:31Z</time>
      </trkpt>
      <trkpt lat="45.68993" lon="4.64957">
        <ele>426</ele>
        <time>2026-08-26T08:13:32Z</time>
      </trkpt>
      <trkpt lat="45.6899" lon="4.64951">
        <ele>425.8</ele>
        <time>2026-08-26T08:13:33Z</time>
      </trkpt>
      <trkpt lat="45.68987" lon="4.64945">
        <ele>425.8</ele>
        <time>2026-08-26T08:13:34Z</time>
      </trkpt>
      <trkpt lat="45.68983" lon="4.64939">
        <ele>425.6</ele>
        <time>2026-08-26T08:13:35Z</time>
      </trkpt>
      <trkpt lat="45.6898" lon="4.64933">
        <ele>425.4</ele>
        <time>2026-08-26T08:13:36Z</time>
      </trkpt>
      <trkpt lat="45.68975" lon="4.64929">
        <ele>425.4</ele>
        <time>2026-08-26T08:13:37Z</time>
      </trkpt>
      <trkpt lat="45.6897" lon="4.64925">
        <ele>425.2</ele>
        <time>2026-08-26T08:13:38Z</time>
      </trkpt>
      <trkpt lat="45.68965" lon="4.6492">
        <ele>424.8</ele>
        <time>2026-08-26T08:13:39Z</time>
      </trkpt>
      <trkpt lat="45.6896" lon="4.64915">
        <ele>424.4</ele>
        <time>2026-08-26T08:13:40Z</time>
      </trkpt>
      <trkpt lat="45.68955" lon="4.64908">
        <ele>423.8</ele>
        <time>2026-08-26T08:13:41Z</time>
      </trkpt>
      <trkpt lat="45.68951" lon="4.64901">
        <ele>423.8</ele>
        <time>2026-08-26T08:13:42Z</time>
      </trkpt>
      <trkpt lat="45.68946" lon="4.64894">
        <ele>423.6</ele>
        <time>2026-08-26T08:13:43Z</time>
      </trkpt>
      <trkpt lat="45.68942" lon="4.64886">
        <ele>423.2</ele>
        <time>2026-08-26T08:13:44Z</time>
      </trkpt>
      <trkpt lat="45.68938" lon="4.64878">
        <ele>423</ele>
        <time>2026-08-26T08:13:45Z</time>
      </trkpt>
      <trkpt lat="45.68934" lon="4.6487">
        <ele>422.6</ele>
        <time>2026-08-26T08:13:46Z</time>
      </trkpt>
      <trkpt lat="45.6893" lon="4.64862">
        <ele>422.4</ele>
        <time>2026-08-26T08:13:47Z</time>
      </trkpt>
      <trkpt lat="45.68926" lon="4.64853">
        <ele>422</ele>
        <time>2026-08-26T08:13:48Z</time>
      </trkpt>
      <trkpt lat="45.68922" lon="4.64845">
        <ele>421.6</ele>
        <time>2026-08-26T08:13:49Z</time>
      </trkpt>
      <trkpt lat="45.68918" lon="4.64835">
        <ele>421</ele>
        <time>2026-08-26T08:13:50Z</time>
      </trkpt>
      <trkpt lat="45.68913" lon="4.64826">
        <ele>420.6</ele>
        <time>2026-08-26T08:13:51Z</time>
      </trkpt>
      <trkpt lat="45.68909" lon="4.64817">
        <ele>420.2</ele>
        <time>2026-08-26T08:13:52Z</time>
      </trkpt>
      <trkpt lat="45.68904" lon="4.64807">
        <ele>419.6</ele>
        <time>2026-08-26T08:13:53Z</time>
      </trkpt>
      <trkpt lat="45.68899" lon="4.64797">
        <ele>419</ele>
        <time>2026-08-26T08:13:54Z</time>
      </trkpt>
      <trkpt lat="45.68895" lon="4.64786">
        <ele>418.6</ele>
        <time>2026-08-26T08:13:55Z</time>
      </trkpt>
      <trkpt lat="45.68889" lon="4.64776">
        <ele>417.8</ele>
        <time>2026-08-26T08:13:56Z</time>
      </trkpt>
      <trkpt lat="45.68882" lon="4.64767">
        <ele>417</ele>
        <time>2026-08-26T08:13:57Z</time>
      </trkpt>
      <trkpt lat="45.68874" lon="4.64759">
        <ele>416</ele>
        <time>2026-08-26T08:13:58Z</time>
      </trkpt>
      <trkpt lat="45.68865" lon="4.64751">
        <ele>414.8</ele>
        <time>2026-08-26T08:13:59Z</time>
      </trkpt>
      <trkpt lat="45.68856" lon="4.64744">
        <ele>413.4</ele>
        <time>2026-08-26T08:14:00Z</time>
      </trkpt>
      <trkpt lat="45.68847" lon="4.64737">
        <ele>412.2</ele>
        <time>2026-08-26T08:14:01Z</time>
      </trkpt>
      <trkpt lat="45.68839" lon="4.64731">
        <ele>410.8</ele>
        <time>2026-08-26T08:14:02Z</time>
      </trkpt>
      <trkpt lat="45.68831" lon="4.64725">
        <ele>409.6</ele>
        <time>2026-08-26T08:14:03Z</time>
      </trkpt>
      <trkpt lat="45.68823" lon="4.64719">
        <ele>408.6</ele>
        <time>2026-08-26T08:14:04Z</time>
      </trkpt>
      <trkpt lat="45.68816" lon="4.64714">
        <ele>407.8</ele>
        <time>2026-08-26T08:14:05Z</time>
      </trkpt>
      <trkpt lat="45.68809" lon="4.64709">
        <ele>407</ele>
        <time>2026-08-26T08:14:06Z</time>
      </trkpt>
      <trkpt lat="45.68802" lon="4.64704">
        <ele>406</ele>
        <time>2026-08-26T08:14:07Z</time>
      </trkpt>
      <trkpt lat="45.68796" lon="4.647">
        <ele>405.2</ele>
        <time>2026-08-26T08:14:08Z</time>
      </trkpt>
      <trkpt lat="45.6879" lon="4.64696">
        <ele>404.6</ele>
        <time>2026-08-26T08:14:09Z</time>
      </trkpt>
      <trkpt lat="45.68784" lon="4.64693">
        <ele>403.8</ele>
        <time>2026-08-26T08:14:10Z</time>
      </trkpt>
      <trkpt lat="45.68778" lon="4.6469">
        <ele>403</ele>
        <time>2026-08-26T08:14:11Z</time>
      </trkpt>
      <trkpt lat="45.68771" lon="4.64689">
        <ele>402</ele>
        <time>2026-08-26T08:14:12Z</time>
      </trkpt>
      <trkpt lat="45.68764" lon="4.64691">
        <ele>401</ele>
        <time>2026-08-26T08:14:13Z</time>
      </trkpt>
      <trkpt lat="45.68759" lon="4.64696">
        <ele>400.2</ele>
        <time>2026-08-26T08:14:14Z</time>
      </trkpt>
      <trkpt lat="45.68754" lon="4.64701">
        <ele>399.2</ele>
        <time>2026-08-26T08:14:15Z</time>
      </trkpt>
      <trkpt lat="45.68751" lon="4.64705">
        <ele>398.6</ele>
        <time>2026-08-26T08:14:16Z</time>
      </trkpt>
      <trkpt lat="45.68748" lon="4.64708">
        <ele>398.2</ele>
        <time>2026-08-26T08:14:17Z</time>
      </trkpt>
      <trkpt lat="45.68747" lon="4.64709">
        <ele>398.2</ele>
        <time>2026-08-26T08:14:18Z</time>
      </trkpt>
      <trkpt lat="45.68746" lon="4.64709">
        <ele>398</ele>
        <time>2026-08-26T08:14:19Z</time>
      </trkpt>
      <trkpt lat="45.68746" lon="4.64709">
        <ele>398</ele>
        <time>2026-08-26T08:14:20Z</time>
      </trkpt>
      <trkpt lat="45.68746" lon="4.64703">
        <ele>397.4</ele>
        <time>2026-08-26T08:14:55Z</time>
      </trkpt>
      <trkpt lat="45.68746" lon="4.64697">
        <ele>397.2</ele>
        <time>2026-08-26T08:14:56Z</time>
      </trkpt>
      <trkpt lat="45.68747" lon="4.64691">
        <ele>397</ele>
        <time>2026-08-26T08:14:57Z</time>
      </trkpt>
      <trkpt lat="45.68747" lon="4.64683">
        <ele>396.4</ele>
        <time>2026-08-26T08:14:58Z</time>
      </trkpt>
      <trkpt lat="45.68748" lon="4.64674">
        <ele>395.8</ele>
        <time>2026-08-26T08:14:59Z</time>
      </trkpt>
      <trkpt lat="45.6875" lon="4.64665">
        <ele>394.8</ele>
        <time>2026-08-26T08:15:00Z</time>
      </trkpt>
      <trkpt lat="45.68753" lon="4.64654">
        <ele>393.8</ele>
        <time>2026-08-26T08:15:01Z</time>
      </trkpt>
      <trkpt lat="45.68757" lon="4.64643">
        <ele>392.6</ele>
        <time>2026-08-26T08:15:02Z</time>
      </trkpt>
      <trkpt lat="45.68762" lon="4.64631">
        <ele>391.2</ele>
        <time>2026-08-26T08:15:03Z</time>
      </trkpt>
      <trkpt lat="45.68766" lon="4.64618">
        <ele>389.8</ele>
        <time>2026-08-26T08:15:04Z</time>
      </trkpt>
      <trkpt lat="45.68771" lon="4.64606">
        <ele>388.6</ele>
        <time>2026-08-26T08:15:05Z</time>
      </trkpt>
      <trkpt lat="45.68775" lon="4.64594">
        <ele>387.6</ele>
        <time>2026-08-26T08:15:06Z</time>
      </trkpt>
      <trkpt lat="45.68781" lon="4.64583">
        <ele>386.8</ele>
        <time>2026-08-26T08:15:07Z</time>
      </trkpt>
      <trkpt lat="45.68786" lon="4.64571">
        <ele>386.2</ele>
        <time>2026-08-26T08:15:08Z</time>
      </trkpt>
      <trkpt lat="45.68791" lon="4.6456">
        <ele>385.8</ele>
        <time>2026-08-26T08:15:09Z</time>
      </trkpt>
      <trkpt lat="45.68797" lon="4.64548">
        <ele>385.2</ele>
        <time>2026-08-26T08:15:10Z</time>
      </trkpt>
      <trkpt lat="45.68803" lon="4.64536">
        <ele>384.6</ele>
        <time>2026-08-26T08:15:11Z</time>
      </trkpt>
      <trkpt lat="45.68808" lon="4.64524">
        <ele>383.8</ele>
        <time>2026-08-26T08:15:12Z</time>
      </trkpt>
      <trkpt lat="45.68814" lon="4.64511">
        <ele>383</ele>
        <time>2026-08-26T08:15:13Z</time>
      </trkpt>
      <trkpt lat="45.68819" lon="4.64499">
        <ele>382.2</ele>
        <time>2026-08-26T08:15:14Z</time>
      </trkpt>
      <trkpt lat="45.68824" lon="4.64486">
        <ele>381.4</ele>
        <time>2026-08-26T08:15:15Z</time>
      </trkpt>
      <trkpt lat="45.6883" lon="4.64473">
        <ele>380.6</ele>
        <time>2026-08-26T08:15:16Z</time>
      </trkpt>
      <trkpt lat="45.68836" lon="4.64461">
        <ele>380</ele>
        <time>2026-08-26T08:15:17Z</time>
      </trkpt>
      <trkpt lat="45.68841" lon="4.64448">
        <ele>379.4</ele>
        <time>2026-08-26T08:15:18Z</time>
      </trkpt>
      <trkpt lat="45.68847" lon="4.64435">
        <ele>379</ele>
        <time>2026-08-26T08:15:19Z</time>
      </trkpt>
      <trkpt lat="45.68852" lon="4.64423">
        <ele>378.6</ele>
        <time>2026-08-26T08:15:20Z</time>
      </trkpt>
      <trkpt lat="45.68858" lon="4.6441">
        <ele>378.2</ele>
        <time>2026-08-26T08:15:21Z</time>
      </trkpt>
      <trkpt lat="45.68863" lon="4.64399">
        <ele>378.2</ele>
        <time>2026-08-26T08:15:22Z</time>
      </trkpt>
      <trkpt lat="45.68868" lon="4.64389">
        <ele>378</ele>
        <time>2026-08-26T08:15:23Z</time>
      </trkpt>
      <trkpt lat="45.68871" lon="4.64379">
        <ele>378.2</ele>
        <time>2026-08-26T08:15:24Z</time>
      </trkpt>
      <trkpt lat="45.68873" lon="4.64371">
        <ele>378.4</ele>
        <time>2026-08-26T08:15:25Z</time>
      </trkpt>
      <trkpt lat="45.68873" lon="4.64366">
        <ele>378.8</ele>
        <time>2026-08-26T08:15:26Z</time>
      </trkpt>
      <trkpt lat="45.68874" lon="4.64363">
        <ele>379.2</ele>
        <time>2026-08-26T08:15:27Z</time>
      </trkpt>
      <trkpt lat="45.68873" lon="4.64361">
        <ele>379.6</ele>
        <time>2026-08-26T08:15:28Z</time>
      </trkpt>
      <trkpt lat="45.68873" lon="4.64359">
        <ele>380</ele>
        <time>2026-08-26T08:15:29Z</time>
      </trkpt>
      <trkpt lat="45.68872" lon="4.64357">
        <ele>380.2</ele>
        <time>2026-08-26T08:15:30Z</time>
      </trkpt>
      <trkpt lat="45.68871" lon="4.64356">
        <ele>380.4</ele>
        <time>2026-08-26T08:15:31Z</time>
      </trkpt>
      <trkpt lat="45.68871" lon="4.64355">
        <ele>380.4</ele>
        <time>2026-08-26T08:15:32Z</time>
      </trkpt>
      <trkpt lat="45.68871" lon="4.64355">
        <ele>380.6</ele>
        <time>2026-08-26T08:15:33Z</time>
      </trkpt>
      <trkpt lat="45.68871" lon="4.64355">
        <ele>380.6</ele>
        <time>2026-08-26T08:15:34Z</time>
      </trkpt>
      <trkpt lat="45.68863" lon="4.64358">
        <ele>380.4</ele>
        <time>2026-08-26T08:16:03Z</time>
      </trkpt>
      <trkpt lat="45.6886" lon="4.6436">
        <ele>380.2</ele>
        <time>2026-08-26T08:16:04Z</time>
      </trkpt>
      <trkpt lat="45.68857" lon="4.64363">
        <ele>380.2</ele>
        <time>2026-08-26T08:16:05Z</time>
      </trkpt>
      <trkpt lat="45.68853" lon="4.64366">
        <ele>380.2</ele>
        <time>2026-08-26T08:16:06Z</time>
      </trkpt>
      <trkpt lat="45.6885" lon="4.6437">
        <ele>380.2</ele>
        <time>2026-08-26T08:16:07Z</time>
      </trkpt>
      <trkpt lat="45.68846" lon="4.64374">
        <ele>380.2</ele>
        <time>2026-08-26T08:16:08Z</time>
      </trkpt>
      <trkpt lat="45.68843" lon="4.64378">
        <ele>380.2</ele>
        <time>2026-08-26T08:16:09Z</time>
      </trkpt>
      <trkpt lat="45.68839" lon="4.64382">
        <ele>380.2</ele>
        <time>2026-08-26T08:16:10Z</time>
      </trkpt>
      <trkpt lat="45.68836" lon="4.64386">
        <ele>380.2</ele>
        <time>2026-08-26T08:16:11Z</time>
      </trkpt>
      <trkpt lat="45.68832" lon="4.6439">
        <ele>380.4</ele>
        <time>2026-08-26T08:16:12Z</time>
      </trkpt>
      <trkpt lat="45.68828" lon="4.64393">
        <ele>380.4</ele>
        <time>2026-08-26T08:16:13Z</time>
      </trkpt>
      <trkpt lat="45.68824" lon="4.64397">
        <ele>380.6</ele>
        <time>2026-08-26T08:16:14Z</time>
      </trkpt>
      <trkpt lat="45.6882" lon="4.644">
        <ele>380.8</ele>
        <time>2026-08-26T08:16:15Z</time>
      </trkpt>
      <trkpt lat="45.68816" lon="4.64403">
        <ele>381</ele>
        <time>2026-08-26T08:16:16Z</time>
      </trkpt>
      <trkpt lat="45.68812" lon="4.64406">
        <ele>381.2</ele>
        <time>2026-08-26T08:16:17Z</time>
      </trkpt>
      <trkpt lat="45.68808" lon="4.6441">
        <ele>381.4</ele>
        <time>2026-08-26T08:16:18Z</time>
      </trkpt>
      <trkpt lat="45.68803" lon="4.64413">
        <ele>381.6</ele>
        <time>2026-08-26T08:16:19Z</time>
      </trkpt>
      <trkpt lat="45.688" lon="4.64416">
        <ele>381.8</ele>
        <time>2026-08-26T08:16:20Z</time>
      </trkpt>
      <trkpt lat="45.68795" lon="4.64418">
        <ele>382.2</ele>
        <time>2026-08-26T08:16:21Z</time>
      </trkpt>
      <trkpt lat="45.68792" lon="4.6442">
        <ele>382.4</ele>
        <time>2026-08-26T08:16:22Z</time>
      </trkpt>
      <trkpt lat="45.68788" lon="4.64421">
        <ele>382.8</ele>
        <time>2026-08-26T08:16:23Z</time>
      </trkpt>
      <trkpt lat="45.68785" lon="4.64422">
        <ele>383</ele>
        <time>2026-08-26T08:16:24Z</time>
      </trkpt>
      <trkpt lat="45.68782" lon="4.64423">
        <ele>383.4</ele>
        <time>2026-08-26T08:16:25Z</time>
      </trkpt>
      <trkpt lat="45.68779" lon="4.64423">
        <ele>383.8</ele>
        <time>2026-08-26T08:16:26Z</time>
      </trkpt>
      <trkpt lat="45.68776" lon="4.64423">
        <ele>384.2</ele>
        <time>2026-08-26T08:16:27Z</time>
      </trkpt>
      <trkpt lat="45.68773" lon="4.64422">
        <ele>384.6</ele>
        <time>2026-08-26T08:16:28Z</time>
      </trkpt>
      <trkpt lat="45.68772" lon="4.64421">
        <ele>385</ele>
        <time>2026-08-26T08:16:29Z</time>
      </trkpt>
      <trkpt lat="45.6877" lon="4.64421">
        <ele>385.4</ele>
        <time>2026-08-26T08:16:30Z</time>
      </trkpt>
      <trkpt lat="45.68768" lon="4.64421">
        <ele>385.8</ele>
        <time>2026-08-26T08:16:31Z</time>
      </trkpt>
      <trkpt lat="45.68766" lon="4.6442">
        <ele>386.2</ele>
        <time>2026-08-26T08:16:32Z</time>
      </trkpt>
      <trkpt lat="45.68764" lon="4.64419">
        <ele>386.6</ele>
        <time>2026-08-26T08:16:33Z</time>
      </trkpt>
      <trkpt lat="45.68762" lon="4.64418">
        <ele>387</ele>
        <time>2026-08-26T08:16:34Z</time>
      </trkpt>
      <trkpt lat="45.68761" lon="4.64417">
        <ele>387.4</ele>
        <time>2026-08-26T08:16:35Z</time>
      </trkpt>
      <trkpt lat="45.68759" lon="4.64416">
        <ele>387.8</ele>
        <time>2026-08-26T08:16:36Z</time>
      </trkpt>
      <trkpt lat="45.68758" lon="4.64416">
        <ele>388.2</ele>
        <time>2026-08-26T08:16:37Z</time>
      </trkpt>
      <trkpt lat="45.68756" lon="4.64415">
        <ele>388.4</ele>
        <time>2026-08-26T08:16:38Z</time>
      </trkpt>
      <trkpt lat="45.68755" lon="4.64414">
        <ele>388.8</ele>
        <time>2026-08-26T08:16:39Z</time>
      </trkpt>
      <trkpt lat="45.68753" lon="4.64413">
        <ele>389</ele>
        <time>2026-08-26T08:16:40Z</time>
      </trkpt>
      <trkpt lat="45.68752" lon="4.64411">
        <ele>389.4</ele>
        <time>2026-08-26T08:16:41Z</time>
      </trkpt>
      <trkpt lat="45.6875" lon="4.6441">
        <ele>389.8</ele>
        <time>2026-08-26T08:16:42Z</time>
      </trkpt>
      <trkpt lat="45.68749" lon="4.64409">
        <ele>390</ele>
        <time>2026-08-26T08:16:43Z</time>
      </trkpt>
      <trkpt lat="45.68747" lon="4.64409">
        <ele>390.2</ele>
        <time>2026-08-26T08:16:44Z</time>
      </trkpt>
      <trkpt lat="45.68745" lon="4.64408">
        <ele>390.6</ele>
        <time>2026-08-26T08:16:45Z</time>
      </trkpt>
      <trkpt lat="45.68743" lon="4.64408">
        <ele>390.8</ele>
        <time>2026-08-26T08:16:46Z</time>
      </trkpt>
      <trkpt lat="45.68741" lon="4.64406">
        <ele>391</ele>
        <time>2026-08-26T08:16:47Z</time>
      </trkpt>
      <trkpt lat="45.6874" lon="4.64405">
        <ele>391.4</ele>
        <time>2026-08-26T08:16:48Z</time>
      </trkpt>
      <trkpt lat="45.68738" lon="4.64405">
        <ele>391.6</ele>
        <time>2026-08-26T08:16:49Z</time>
      </trkpt>
      <trkpt lat="45.68736" lon="4.64404">
        <ele>392</ele>
        <time>2026-08-26T08:16:50Z</time>
      </trkpt>
      <trkpt lat="45.68734" lon="4.64403">
        <ele>392.2</ele>
        <time>2026-08-26T08:16:51Z</time>
      </trkpt>
      <trkpt lat="45.68733" lon="4.64402">
        <ele>392.4</ele>
        <time>2026-08-26T08:16:52Z</time>
      </trkpt>
      <trkpt lat="45.6873" lon="4.64402">
        <ele>392.6</ele>
        <time>2026-08-26T08:16:53Z</time>
      </trkpt>
      <trkpt lat="45.68729" lon="4.64401">
        <ele>392.8</ele>
        <time>2026-08-26T08:16:54Z</time>
      </trkpt>
      <trkpt lat="45.68727" lon="4.644">
        <ele>393</ele>
        <time>2026-08-26T08:16:55Z</time>
      </trkpt>
      <trkpt lat="45.68726" lon="4.644">
        <ele>393.6</ele>
        <time>2026-08-26T08:16:56Z</time>
      </trkpt>
      <trkpt lat="45.68725" lon="4.64398">
        <ele>394.2</ele>
        <time>2026-08-26T08:16:57Z</time>
      </trkpt>
      <trkpt lat="45.68724" lon="4.64397">
        <ele>394.6</ele>
        <time>2026-08-26T08:16:58Z</time>
      </trkpt>
      <trkpt lat="45.68722" lon="4.64396">
        <ele>394.8</ele>
        <time>2026-08-26T08:16:59Z</time>
      </trkpt>
      <trkpt lat="45.6872" lon="4.64395">
        <ele>394.8</ele>
        <time>2026-08-26T08:17:00Z</time>
      </trkpt>
      <trkpt lat="45.68719" lon="4.64394">
        <ele>395</ele>
        <time>2026-08-26T08:17:01Z</time>
      </trkpt>
      <trkpt lat="45.68718" lon="4.64393">
        <ele>395</ele>
        <time>2026-08-26T08:17:02Z</time>
      </trkpt>
      <trkpt lat="45.68716" lon="4.64393">
        <ele>395.2</ele>
        <time>2026-08-26T08:17:03Z</time>
      </trkpt>
      <trkpt lat="45.68715" lon="4.64392">
        <ele>395.2</ele>
        <time>2026-08-26T08:17:04Z</time>
      </trkpt>
      <trkpt lat="45.68713" lon="4.64391">
        <ele>395.4</ele>
        <time>2026-08-26T08:17:05Z</time>
      </trkpt>
      <trkpt lat="45.68712" lon="4.6439">
        <ele>395.6</ele>
        <time>2026-08-26T08:17:06Z</time>
      </trkpt>
      <trkpt lat="45.6871" lon="4.6439">
        <ele>395.8</ele>
        <time>2026-08-26T08:17:07Z</time>
      </trkpt>
      <trkpt lat="45.68708" lon="4.64389">
        <ele>396</ele>
        <time>2026-08-26T08:17:08Z</time>
      </trkpt>
      <trkpt lat="45.68707" lon="4.64388">
        <ele>396.2</ele>
        <time>2026-08-26T08:17:09Z</time>
      </trkpt>
      <trkpt lat="45.68705" lon="4.64387">
        <ele>396.4</ele>
        <time>2026-08-26T08:17:10Z</time>
      </trkpt>
      <trkpt lat="45.68703" lon="4.64386">
        <ele>396.8</ele>
        <time>2026-08-26T08:17:11Z</time>
      </trkpt>
      <trkpt lat="45.68702" lon="4.64385">
        <ele>397</ele>
        <time>2026-08-26T08:17:12Z</time>
      </trkpt>
      <trkpt lat="45.687" lon="4.64384">
        <ele>397.2</ele>
        <time>2026-08-26T08:17:13Z</time>
      </trkpt>
      <trkpt lat="45.68699" lon="4.64384">
        <ele>397.4</ele>
        <time>2026-08-26T08:17:14Z</time>
      </trkpt>
      <trkpt lat="45.68697" lon="4.64383">
        <ele>397.6</ele>
        <time>2026-08-26T08:17:15Z</time>
      </trkpt>
      <trkpt lat="45.68696" lon="4.64383">
        <ele>397.8</ele>
        <time>2026-08-26T08:17:16Z</time>
      </trkpt>
      <trkpt lat="45.68694" lon="4.64382">
        <ele>398</ele>
        <time>2026-08-26T08:17:17Z</time>
      </trkpt>
      <trkpt lat="45.68692" lon="4.6438">
        <ele>398.2</ele>
        <time>2026-08-26T08:17:18Z</time>
      </trkpt>
      <trkpt lat="45.6869" lon="4.64379">
        <ele>398.2</ele>
        <time>2026-08-26T08:17:19Z</time>
      </trkpt>
      <trkpt lat="45.68688" lon="4.64379">
        <ele>398.4</ele>
        <time>2026-08-26T08:17:20Z</time>
      </trkpt>
      <trkpt lat="45.68686" lon="4.64378">
        <ele>398.6</ele>
        <time>2026-08-26T08:17:21Z</time>
      </trkpt>
      <trkpt lat="45.68685" lon="4.64378">
        <ele>398.8</ele>
        <time>2026-08-26T08:17:22Z</time>
      </trkpt>
      <trkpt lat="45.68683" lon="4.64377">
        <ele>399</ele>
        <time>2026-08-26T08:17:23Z</time>
      </trkpt>
      <trkpt lat="45.68681" lon="4.64376">
        <ele>399.2</ele>
        <time>2026-08-26T08:17:24Z</time>
      </trkpt>
      <trkpt lat="45.68679" lon="4.64375">
        <ele>399.4</ele>
        <time>2026-08-26T08:17:25Z</time>
      </trkpt>
      <trkpt lat="45.68677" lon="4.64374">
        <ele>399.6</ele>
        <time>2026-08-26T08:17:26Z</time>
      </trkpt>
      <trkpt lat="45.68675" lon="4.64372">
        <ele>399.6</ele>
        <time>2026-08-26T08:17:27Z</time>
      </trkpt>
      <trkpt lat="45.68673" lon="4.64371">
        <ele>399.8</ele>
        <time>2026-08-26T08:17:28Z</time>
      </trkpt>
      <trkpt lat="45.68671" lon="4.6437">
        <ele>400</ele>
        <time>2026-08-26T08:17:29Z</time>
      </trkpt>
      <trkpt lat="45.68669" lon="4.6437">
        <ele>400</ele>
        <time>2026-08-26T08:17:30Z</time>
      </trkpt>
      <trkpt lat="45.68667" lon="4.6437">
        <ele>400.2</ele>
        <time>2026-08-26T08:17:31Z</time>
      </trkpt>
      <trkpt lat="45.68665" lon="4.64369">
        <ele>400.4</ele>
        <time>2026-08-26T08:17:32Z</time>
      </trkpt>
      <trkpt lat="45.68662" lon="4.64368">
        <ele>400.6</ele>
        <time>2026-08-26T08:17:33Z</time>
      </trkpt>
      <trkpt lat="45.68661" lon="4.64367">
        <ele>400.8</ele>
        <time>2026-08-26T08:17:34Z</time>
      </trkpt>
      <trkpt lat="45.68659" lon="4.64365">
        <ele>400.8</ele>
        <time>2026-08-26T08:17:35Z</time>
      </trkpt>
      <trkpt lat="45.68657" lon="4.64364">
        <ele>401</ele>
        <time>2026-08-26T08:17:36Z</time>
      </trkpt>
      <trkpt lat="45.68654" lon="4.64363">
        <ele>401.2</ele>
        <time>2026-08-26T08:17:37Z</time>
      </trkpt>
      <trkpt lat="45.68652" lon="4.64362">
        <ele>401.2</ele>
        <time>2026-08-26T08:17:38Z</time>
      </trkpt>
      <trkpt lat="45.6865" lon="4.64361">
        <ele>401.4</ele>
        <time>2026-08-26T08:17:39Z</time>
      </trkpt>
      <trkpt lat="45.68648" lon="4.6436">
        <ele>401.6</ele>
        <time>2026-08-26T08:17:40Z</time>
      </trkpt>
      <trkpt lat="45.68645" lon="4.64359">
        <ele>401.6</ele>
        <time>2026-08-26T08:17:41Z</time>
      </trkpt>
      <trkpt lat="45.68643" lon="4.64358">
        <ele>401.8</ele>
        <time>2026-08-26T08:17:42Z</time>
      </trkpt>
      <trkpt lat="45.68641" lon="4.64357">
        <ele>401.8</ele>
        <time>2026-08-26T08:17:43Z</time>
      </trkpt>
      <trkpt lat="45.68639" lon="4.64356">
        <ele>402</ele>
        <time>2026-08-26T08:17:44Z</time>
      </trkpt>
      <trkpt lat="45.68636" lon="4.64356">
        <ele>402</ele>
        <time>2026-08-26T08:17:45Z</time>
      </trkpt>
      <trkpt lat="45.68634" lon="4.64355">
        <ele>402.2</ele>
        <time>2026-08-26T08:17:46Z</time>
      </trkpt>
      <trkpt lat="45.68632" lon="4.64354">
        <ele>402.2</ele>
        <time>2026-08-26T08:17:47Z</time>
      </trkpt>
      <trkpt lat="45.68629" lon="4.64352">
        <ele>402.4</ele>
        <time>2026-08-26T08:17:48Z</time>
      </trkpt>
      <trkpt lat="45.68627" lon="4.64351">
        <ele>402.4</ele>
        <time>2026-08-26T08:17:49Z</time>
      </trkpt>
      <trkpt lat="45.68624" lon="4.6435">
        <ele>402.4</ele>
        <time>2026-08-26T08:17:50Z</time>
      </trkpt>
      <trkpt lat="45.68622" lon="4.64348">
        <ele>402.4</ele>
        <time>2026-08-26T08:17:51Z</time>
      </trkpt>
      <trkpt lat="45.68619" lon="4.64346">
        <ele>402.6</ele>
        <time>2026-08-26T08:17:52Z</time>
      </trkpt>
      <trkpt lat="45.68617" lon="4.64345">
        <ele>402.6</ele>
        <time>2026-08-26T08:17:53Z</time>
      </trkpt>
      <trkpt lat="45.68614" lon="4.64343">
        <ele>402.8</ele>
        <time>2026-08-26T08:17:54Z</time>
      </trkpt>
      <trkpt lat="45.68612" lon="4.6434">
        <ele>402.8</ele>
        <time>2026-08-26T08:17:55Z</time>
      </trkpt>
      <trkpt lat="45.6861" lon="4.64338">
        <ele>402.8</ele>
        <time>2026-08-26T08:17:56Z</time>
      </trkpt>
      <trkpt lat="45.68608" lon="4.64334">
        <ele>403</ele>
        <time>2026-08-26T08:17:57Z</time>
      </trkpt>
      <trkpt lat="45.68606" lon="4.64331">
        <ele>403</ele>
        <time>2026-08-26T08:17:58Z</time>
      </trkpt>
      <trkpt lat="45.68604" lon="4.64328">
        <ele>403.2</ele>
        <time>2026-08-26T08:17:59Z</time>
      </trkpt>
      <trkpt lat="45.68602" lon="4.64325">
        <ele>403.4</ele>
        <time>2026-08-26T08:18:00Z</time>
      </trkpt>
      <trkpt lat="45.686" lon="4.64321">
        <ele>403.4</ele>
        <time>2026-08-26T08:18:01Z</time>
      </trkpt>
      <trkpt lat="45.68598" lon="4.64318">
        <ele>403.6</ele>
        <time>2026-08-26T08:18:02Z</time>
      </trkpt>
      <trkpt lat="45.68596" lon="4.64314">
        <ele>403.8</ele>
        <time>2026-08-26T08:18:03Z</time>
      </trkpt>
      <trkpt lat="45.68594" lon="4.64311">
        <ele>403.8</ele>
        <time>2026-08-26T08:18:04Z</time>
      </trkpt>
      <trkpt lat="45.68592" lon="4.64308">
        <ele>404</ele>
        <time>2026-08-26T08:18:05Z</time>
      </trkpt>
      <trkpt lat="45.6859" lon="4.64305">
        <ele>404.2</ele>
        <time>2026-08-26T08:18:06Z</time>
      </trkpt>
      <trkpt lat="45.68587" lon="4.64302">
        <ele>404.2</ele>
        <time>2026-08-26T08:18:07Z</time>
      </trkpt>
      <trkpt lat="45.68585" lon="4.64298">
        <ele>404.2</ele>
        <time>2026-08-26T08:18:08Z</time>
      </trkpt>
      <trkpt lat="45.68583" lon="4.64295">
        <ele>404.2</ele>
        <time>2026-08-26T08:18:09Z</time>
      </trkpt>
      <trkpt lat="45.68581" lon="4.64291">
        <ele>404.4</ele>
        <time>2026-08-26T08:18:10Z</time>
      </trkpt>
      <trkpt lat="45.68579" lon="4.64288">
        <ele>404.4</ele>
        <time>2026-08-26T08:18:11Z</time>
      </trkpt>
      <trkpt lat="45.68576" lon="4.64284">
        <ele>404.4</ele>
        <time>2026-08-26T08:18:12Z</time>
      </trkpt>
      <trkpt lat="45.68574" lon="4.6428">
        <ele>404.2</ele>
        <time>2026-08-26T08:18:13Z</time>
      </trkpt>
      <trkpt lat="45.68571" lon="4.64276">
        <ele>404</ele>
        <time>2026-08-26T08:18:14Z</time>
      </trkpt>
      <trkpt lat="45.68568" lon="4.64271">
        <ele>404</ele>
        <time>2026-08-26T08:18:15Z</time>
      </trkpt>
      <trkpt lat="45.68565" lon="4.64265">
        <ele>403.6</ele>
        <time>2026-08-26T08:18:16Z</time>
      </trkpt>
      <trkpt lat="45.68562" lon="4.6426">
        <ele>403.4</ele>
        <time>2026-08-26T08:18:17Z</time>
      </trkpt>
      <trkpt lat="45.68559" lon="4.64253">
        <ele>403</ele>
        <time>2026-08-26T08:18:18Z</time>
      </trkpt>
      <trkpt lat="45.68556" lon="4.64246">
        <ele>402.6</ele>
        <time>2026-08-26T08:18:19Z</time>
      </trkpt>
      <trkpt lat="45.68553" lon="4.64238">
        <ele>402.2</ele>
        <time>2026-08-26T08:18:20Z</time>
      </trkpt>
      <trkpt lat="45.6855" lon="4.6423">
        <ele>401.8</ele>
        <time>2026-08-26T08:18:21Z</time>
      </trkpt>
      <trkpt lat="45.68547" lon="4.64222">
        <ele>401.2</ele>
        <time>2026-08-26T08:18:22Z</time>
      </trkpt>
      <trkpt lat="45.68545" lon="4.64215">
        <ele>400.8</ele>
        <time>2026-08-26T08:18:23Z</time>
      </trkpt>
      <trkpt lat="45.68544" lon="4.6421">
        <ele>400.6</ele>
        <time>2026-08-26T08:18:24Z</time>
      </trkpt>
      <trkpt lat="45.68543" lon="4.64206">
        <ele>400.4</ele>
        <time>2026-08-26T08:18:25Z</time>
      </trkpt>
      <trkpt lat="45.68542" lon="4.64203">
        <ele>400.4</ele>
        <time>2026-08-26T08:18:26Z</time>
      </trkpt>
      <trkpt lat="45.68541" lon="4.64201">
        <ele>400.4</ele>
        <time>2026-08-26T08:18:27Z</time>
      </trkpt>
      <trkpt lat="45.6854" lon="4.642">
        <ele>400.4</ele>
        <time>2026-08-26T08:18:28Z</time>
      </trkpt>
      <trkpt lat="45.68539" lon="4.64198">
        <ele>400.4</ele>
        <time>2026-08-26T08:18:29Z</time>
      </trkpt>
      <trkpt lat="45.68537" lon="4.64196">
        <ele>400.2</ele>
        <time>2026-08-26T08:18:30Z</time>
      </trkpt>
      <trkpt lat="45.68534" lon="4.64194">
        <ele>400</ele>
        <time>2026-08-26T08:18:31Z</time>
      </trkpt>
      <trkpt lat="45.68532" lon="4.64192">
        <ele>399.6</ele>
        <time>2026-08-26T08:18:32Z</time>
      </trkpt>
      <trkpt lat="45.68528" lon="4.6419">
        <ele>399.2</ele>
        <time>2026-08-26T08:18:33Z</time>
      </trkpt>
      <trkpt lat="45.68523" lon="4.64188">
        <ele>398.6</ele>
        <time>2026-08-26T08:18:34Z</time>
      </trkpt>
      <trkpt lat="45.68517" lon="4.64185">
        <ele>397.8</ele>
        <time>2026-08-26T08:18:35Z</time>
      </trkpt>
      <trkpt lat="45.68511" lon="4.64181">
        <ele>397.2</ele>
        <time>2026-08-26T08:18:36Z</time>
      </trkpt>
      <trkpt lat="45.68504" lon="4.64176">
        <ele>396.2</ele>
        <time>2026-08-26T08:18:37Z</time>
      </trkpt>
      <trkpt lat="45.68496" lon="4.64172">
        <ele>395.2</ele>
        <time>2026-08-26T08:18:38Z</time>
      </trkpt>
      <trkpt lat="45.68487" lon="4.64167">
        <ele>393.8</ele>
        <time>2026-08-26T08:18:39Z</time>
      </trkpt>
      <trkpt lat="45.68478" lon="4.64162">
        <ele>392.6</ele>
        <time>2026-08-26T08:18:40Z</time>
      </trkpt>
      <trkpt lat="45.68468" lon="4.64157">
        <ele>391.2</ele>
        <time>2026-08-26T08:18:41Z</time>
      </trkpt>
      <trkpt lat="45.68459" lon="4.64153">
        <ele>389.4</ele>
        <time>2026-08-26T08:18:42Z</time>
      </trkpt>
      <trkpt lat="45.6845" lon="4.64149">
        <ele>387.6</ele>
        <time>2026-08-26T08:18:43Z</time>
      </trkpt>
      <trkpt lat="45.6844" lon="4.64144">
        <ele>385.6</ele>
        <time>2026-08-26T08:18:44Z</time>
      </trkpt>
      <trkpt lat="45.68431" lon="4.64141">
        <ele>383.8</ele>
        <time>2026-08-26T08:18:45Z</time>
      </trkpt>
      <trkpt lat="45.68423" lon="4.64138">
        <ele>382.8</ele>
        <time>2026-08-26T08:18:46Z</time>
      </trkpt>
      <trkpt lat="45.68415" lon="4.64136">
        <ele>381.4</ele>
        <time>2026-08-26T08:18:47Z</time>
      </trkpt>
      <trkpt lat="45.68408" lon="4.64138">
        <ele>380.2</ele>
        <time>2026-08-26T08:18:48Z</time>
      </trkpt>
      <trkpt lat="45.684" lon="4.64141">
        <ele>379</ele>
        <time>2026-08-26T08:18:49Z</time>
      </trkpt>
      <trkpt lat="45.68393" lon="4.64144">
        <ele>377.8</ele>
        <time>2026-08-26T08:18:50Z</time>
      </trkpt>
      <trkpt lat="45.68386" lon="4.64147">
        <ele>376.8</ele>
        <time>2026-08-26T08:18:51Z</time>
      </trkpt>
      <trkpt lat="45.68379" lon="4.6415">
        <ele>375.8</ele>
        <time>2026-08-26T08:18:52Z</time>
      </trkpt>
      <trkpt lat="45.68372" lon="4.64152">
        <ele>375.2</ele>
        <time>2026-08-26T08:18:53Z</time>
      </trkpt>
      <trkpt lat="45.68365" lon="4.64153">
        <ele>374.4</ele>
        <time>2026-08-26T08:18:54Z</time>
      </trkpt>
      <trkpt lat="45.68359" lon="4.64152">
        <ele>373.8</ele>
        <time>2026-08-26T08:18:55Z</time>
      </trkpt>
      <trkpt lat="45.68353" lon="4.64148">
        <ele>373.4</ele>
        <time>2026-08-26T08:18:56Z</time>
      </trkpt>
      <trkpt lat="45.68348" lon="4.64141">
        <ele>372.8</ele>
        <time>2026-08-26T08:18:57Z</time>
      </trkpt>
      <trkpt lat="45.68343" lon="4.64133">
        <ele>372.2</ele>
        <time>2026-08-26T08:18:58Z</time>
      </trkpt>
      <trkpt lat="45.68337" lon="4.64127">
        <ele>371.6</ele>
        <time>2026-08-26T08:18:59Z</time>
      </trkpt>
      <trkpt lat="45.6833" lon="4.64123">
        <ele>371</ele>
        <time>2026-08-26T08:19:00Z</time>
      </trkpt>
      <trkpt lat="45.68324" lon="4.64121">
        <ele>370.8</ele>
        <time>2026-08-26T08:19:01Z</time>
      </trkpt>
      <trkpt lat="45.68317" lon="4.64121">
        <ele>370.8</ele>
        <time>2026-08-26T08:19:02Z</time>
      </trkpt>
      <trkpt lat="45.6831" lon="4.64121">
        <ele>370.8</ele>
        <time>2026-08-26T08:19:03Z</time>
      </trkpt>
      <trkpt lat="45.68304" lon="4.64122">
        <ele>371.2</ele>
        <time>2026-08-26T08:19:04Z</time>
      </trkpt>
      <trkpt lat="45.68298" lon="4.64124">
        <ele>371.6</ele>
        <time>2026-08-26T08:19:05Z</time>
      </trkpt>
      <trkpt lat="45.68292" lon="4.64126">
        <ele>372</ele>
        <time>2026-08-26T08:19:06Z</time>
      </trkpt>
      <trkpt lat="45.68287" lon="4.64127">
        <ele>372.4</ele>
        <time>2026-08-26T08:19:07Z</time>
      </trkpt>
      <trkpt lat="45.68282" lon="4.64129">
        <ele>372.8</ele>
        <time>2026-08-26T08:19:08Z</time>
      </trkpt>
      <trkpt lat="45.68277" lon="4.64131">
        <ele>373.4</ele>
        <time>2026-08-26T08:19:09Z</time>
      </trkpt>
      <trkpt lat="45.68272" lon="4.64132">
        <ele>373.8</ele>
        <time>2026-08-26T08:19:10Z</time>
      </trkpt>
      <trkpt lat="45.68268" lon="4.64132">
        <ele>374.2</ele>
        <time>2026-08-26T08:19:11Z</time>
      </trkpt>
      <trkpt lat="45.68264" lon="4.64131">
        <ele>374.8</ele>
        <time>2026-08-26T08:19:12Z</time>
      </trkpt>
      <trkpt lat="45.6826" lon="4.64128">
        <ele>375.2</ele>
        <time>2026-08-26T08:19:13Z</time>
      </trkpt>
      <trkpt lat="45.68257" lon="4.64125">
        <ele>375.6</ele>
        <time>2026-08-26T08:19:14Z</time>
      </trkpt>
      <trkpt lat="45.68255" lon="4.64121">
        <ele>375.8</ele>
        <time>2026-08-26T08:19:15Z</time>
      </trkpt>
      <trkpt lat="45.68253" lon="4.64117">
        <ele>376.4</ele>
        <time>2026-08-26T08:19:16Z</time>
      </trkpt>
      <trkpt lat="45.68251" lon="4.64114">
        <ele>376.8</ele>
        <time>2026-08-26T08:19:17Z</time>
      </trkpt>
      <trkpt lat="45.68249" lon="4.6411">
        <ele>377.2</ele>
        <time>2026-08-26T08:19:18Z</time>
      </trkpt>
      <trkpt lat="45.68247" lon="4.64107">
        <ele>377.6</ele>
        <time>2026-08-26T08:19:19Z</time>
      </trkpt>
      <trkpt lat="45.68245" lon="4.64104">
        <ele>377.8</ele>
        <time>2026-08-26T08:19:20Z</time>
      </trkpt>
      <trkpt lat="45.68243" lon="4.641">
        <ele>378</ele>
        <time>2026-08-26T08:19:21Z</time>
      </trkpt>
      <trkpt lat="45.68242" lon="4.64096">
        <ele>378.2</ele>
        <time>2026-08-26T08:19:22Z</time>
      </trkpt>
      <trkpt lat="45.6824" lon="4.64092">
        <ele>378.4</ele>
        <time>2026-08-26T08:19:23Z</time>
      </trkpt>
      <trkpt lat="45.68238" lon="4.64089">
        <ele>378.6</ele>
        <time>2026-08-26T08:19:24Z</time>
      </trkpt>
      <trkpt lat="45.68237" lon="4.64086">
        <ele>378.8</ele>
        <time>2026-08-26T08:19:25Z</time>
      </trkpt>
      <trkpt lat="45.68235" lon="4.64083">
        <ele>379</ele>
        <time>2026-08-26T08:19:26Z</time>
      </trkpt>
      <trkpt lat="45.68234" lon="4.6408">
        <ele>379.2</ele>
        <time>2026-08-26T08:19:27Z</time>
      </trkpt>
      <trkpt lat="45.68232" lon="4.64076">
        <ele>379.4</ele>
        <time>2026-08-26T08:19:28Z</time>
      </trkpt>
      <trkpt lat="45.6823" lon="4.64073">
        <ele>379.6</ele>
        <time>2026-08-26T08:19:29Z</time>
      </trkpt>
      <trkpt lat="45.68228" lon="4.6407">
        <ele>379.8</ele>
        <time>2026-08-26T08:19:30Z</time>
      </trkpt>
      <trkpt lat="45.68227" lon="4.64067">
        <ele>380</ele>
        <time>2026-08-26T08:19:31Z</time>
      </trkpt>
      <trkpt lat="45.68225" lon="4.64063">
        <ele>380.2</ele>
        <time>2026-08-26T08:19:32Z</time>
      </trkpt>
      <trkpt lat="45.68224" lon="4.64059">
        <ele>380.4</ele>
        <time>2026-08-26T08:19:33Z</time>
      </trkpt>
      <trkpt lat="45.68223" lon="4.64056">
        <ele>380.6</ele>
        <time>2026-08-26T08:19:34Z</time>
      </trkpt>
      <trkpt lat="45.68221" lon="4.64052">
        <ele>380.8</ele>
        <time>2026-08-26T08:19:35Z</time>
      </trkpt>
      <trkpt lat="45.68219" lon="4.64048">
        <ele>380.8</ele>
        <time>2026-08-26T08:19:36Z</time>
      </trkpt>
      <trkpt lat="45.68217" lon="4.64044">
        <ele>380.8</ele>
        <time>2026-08-26T08:19:37Z</time>
      </trkpt>
      <trkpt lat="45.68216" lon="4.6404">
        <ele>381</ele>
        <time>2026-08-26T08:19:38Z</time>
      </trkpt>
      <trkpt lat="45.68214" lon="4.64036">
        <ele>381</ele>
        <time>2026-08-26T08:19:39Z</time>
      </trkpt>
      <trkpt lat="45.68213" lon="4.64032">
        <ele>381</ele>
        <time>2026-08-26T08:19:40Z</time>
      </trkpt>
      <trkpt lat="45.68211" lon="4.64028">
        <ele>381.2</ele>
        <time>2026-08-26T08:19:41Z</time>
      </trkpt>
      <trkpt lat="45.6821" lon="4.64024">
        <ele>381.2</ele>
        <time>2026-08-26T08:19:42Z</time>
      </trkpt>
      <trkpt lat="45.68209" lon="4.64019">
        <ele>381.2</ele>
        <time>2026-08-26T08:19:43Z</time>
      </trkpt>
      <trkpt lat="45.68209" lon="4.64014">
        <ele>381.4</ele>
        <time>2026-08-26T08:19:44Z</time>
      </trkpt>
      <trkpt lat="45.68211" lon="4.6401">
        <ele>381.6</ele>
        <time>2026-08-26T08:19:45Z</time>
      </trkpt>
      <trkpt lat="45.68212" lon="4.64007">
        <ele>381.6</ele>
        <time>2026-08-26T08:19:46Z</time>
      </trkpt>
      <trkpt lat="45.68214" lon="4.64004">
        <ele>382</ele>
        <time>2026-08-26T08:19:47Z</time>
      </trkpt>
      <trkpt lat="45.68216" lon="4.64002">
        <ele>382.2</ele>
        <time>2026-08-26T08:19:48Z</time>
      </trkpt>
      <trkpt lat="45.68217" lon="4.64">
        <ele>382.4</ele>
        <time>2026-08-26T08:19:49Z</time>
      </trkpt>
      <trkpt lat="45.68219" lon="4.63998">
        <ele>382.6</ele>
        <time>2026-08-26T08:19:50Z</time>
      </trkpt>
      <trkpt lat="45.6822" lon="4.63996">
        <ele>382.8</ele>
        <time>2026-08-26T08:19:51Z</time>
      </trkpt>
      <trkpt lat="45.68221" lon="4.63993">
        <ele>383</ele>
        <time>2026-08-26T08:19:52Z</time>
      </trkpt>
      <trkpt lat="45.68221" lon="4.6399">
        <ele>383.2</ele>
        <time>2026-08-26T08:19:53Z</time>
      </trkpt>
      <trkpt lat="45.68223" lon="4.63988">
        <ele>383.4</ele>
        <time>2026-08-26T08:19:54Z</time>
      </trkpt>
      <trkpt lat="45.68225" lon="4.63986">
        <ele>383.6</ele>
        <time>2026-08-26T08:19:55Z</time>
      </trkpt>
      <trkpt lat="45.68227" lon="4.63983">
        <ele>383.8</ele>
        <time>2026-08-26T08:19:56Z</time>
      </trkpt>
      <trkpt lat="45.68229" lon="4.63982">
        <ele>384</ele>
        <time>2026-08-26T08:19:57Z</time>
      </trkpt>
      <trkpt lat="45.68231" lon="4.6398">
        <ele>384.4</ele>
        <time>2026-08-26T08:19:58Z</time>
      </trkpt>
      <trkpt lat="45.68233" lon="4.63978">
        <ele>384.6</ele>
        <time>2026-08-26T08:19:59Z</time>
      </trkpt>
      <trkpt lat="45.68236" lon="4.63977">
        <ele>384.8</ele>
        <time>2026-08-26T08:20:00Z</time>
      </trkpt>
      <trkpt lat="45.68238" lon="4.63974">
        <ele>385</ele>
        <time>2026-08-26T08:20:01Z</time>
      </trkpt>
      <trkpt lat="45.68239" lon="4.6397">
        <ele>385.2</ele>
        <time>2026-08-26T08:20:02Z</time>
      </trkpt>
      <trkpt lat="45.68241" lon="4.63967">
        <ele>385.2</ele>
        <time>2026-08-26T08:20:03Z</time>
      </trkpt>
      <trkpt lat="45.68242" lon="4.63964">
        <ele>385.4</ele>
        <time>2026-08-26T08:20:04Z</time>
      </trkpt>
      <trkpt lat="45.68242" lon="4.6396">
        <ele>385.6</ele>
        <time>2026-08-26T08:20:05Z</time>
      </trkpt>
      <trkpt lat="45.68243" lon="4.63956">
        <ele>385.8</ele>
        <time>2026-08-26T08:20:06Z</time>
      </trkpt>
      <trkpt lat="45.68244" lon="4.63952">
        <ele>386</ele>
        <time>2026-08-26T08:20:07Z</time>
      </trkpt>
      <trkpt lat="45.68245" lon="4.63949">
        <ele>386.2</ele>
        <time>2026-08-26T08:20:08Z</time>
      </trkpt>
      <trkpt lat="45.68246" lon="4.63945">
        <ele>386.4</ele>
        <time>2026-08-26T08:20:09Z</time>
      </trkpt>
      <trkpt lat="45.68247" lon="4.63942">
        <ele>386.6</ele>
        <time>2026-08-26T08:20:10Z</time>
      </trkpt>
      <trkpt lat="45.68248" lon="4.6394">
        <ele>386.8</ele>
        <time>2026-08-26T08:20:11Z</time>
      </trkpt>
      <trkpt lat="45.68249" lon="4.63937">
        <ele>387</ele>
        <time>2026-08-26T08:20:12Z</time>
      </trkpt>
      <trkpt lat="45.6825" lon="4.63934">
        <ele>387.2</ele>
        <time>2026-08-26T08:20:13Z</time>
      </trkpt>
      <trkpt lat="45.6825" lon="4.63931">
        <ele>387.4</ele>
        <time>2026-08-26T08:20:14Z</time>
      </trkpt>
      <trkpt lat="45.68251" lon="4.63928">
        <ele>387.4</ele>
        <time>2026-08-26T08:20:15Z</time>
      </trkpt>
      <trkpt lat="45.68252" lon="4.63925">
        <ele>387.6</ele>
        <time>2026-08-26T08:20:16Z</time>
      </trkpt>
      <trkpt lat="45.68253" lon="4.63921">
        <ele>387.8</ele>
        <time>2026-08-26T08:20:17Z</time>
      </trkpt>
      <trkpt lat="45.68253" lon="4.63918">
        <ele>388</ele>
        <time>2026-08-26T08:20:18Z</time>
      </trkpt>
      <trkpt lat="45.68254" lon="4.63914">
        <ele>388</ele>
        <time>2026-08-26T08:20:19Z</time>
      </trkpt>
      <trkpt lat="45.68254" lon="4.6391">
        <ele>388.2</ele>
        <time>2026-08-26T08:20:20Z</time>
      </trkpt>
      <trkpt lat="45.68254" lon="4.63906">
        <ele>388.2</ele>
        <time>2026-08-26T08:20:21Z</time>
      </trkpt>
      <trkpt lat="45.68254" lon="4.63902">
        <ele>388.2</ele>
        <time>2026-08-26T08:20:22Z</time>
      </trkpt>
      <trkpt lat="45.68255" lon="4.63898">
        <ele>388.2</ele>
        <time>2026-08-26T08:20:23Z</time>
      </trkpt>
      <trkpt lat="45.68255" lon="4.63895">
        <ele>388.2</ele>
        <time>2026-08-26T08:20:24Z</time>
      </trkpt>
      <trkpt lat="45.68255" lon="4.63891">
        <ele>388.4</ele>
        <time>2026-08-26T08:20:25Z</time>
      </trkpt>
      <trkpt lat="45.68255" lon="4.63887">
        <ele>388.4</ele>
        <time>2026-08-26T08:20:26Z</time>
      </trkpt>
      <trkpt lat="45.68255" lon="4.63882">
        <ele>388.6</ele>
        <time>2026-08-26T08:20:27Z</time>
      </trkpt>
      <trkpt lat="45.68256" lon="4.63878">
        <ele>388.6</ele>
        <time>2026-08-26T08:20:28Z</time>
      </trkpt>
      <trkpt lat="45.68256" lon="4.63874">
        <ele>388.8</ele>
        <time>2026-08-26T08:20:29Z</time>
      </trkpt>
      <trkpt lat="45.68256" lon="4.6387">
        <ele>388.8</ele>
        <time>2026-08-26T08:20:30Z</time>
      </trkpt>
      <trkpt lat="45.68256" lon="4.63865">
        <ele>388.8</ele>
        <time>2026-08-26T08:20:31Z</time>
      </trkpt>
      <trkpt lat="45.68256" lon="4.63861">
        <ele>388.8</ele>
        <time>2026-08-26T08:20:32Z</time>
      </trkpt>
      <trkpt lat="45.68256" lon="4.63857">
        <ele>389</ele>
        <time>2026-08-26T08:20:33Z</time>
      </trkpt>
      <trkpt lat="45.68255" lon="4.63852">
        <ele>389</ele>
        <time>2026-08-26T08:20:34Z</time>
      </trkpt>
      <trkpt lat="45.68254" lon="4.63848">
        <ele>389.2</ele>
        <time>2026-08-26T08:20:35Z</time>
      </trkpt>
      <trkpt lat="45.68253" lon="4.63843">
        <ele>389.2</ele>
        <time>2026-08-26T08:20:36Z</time>
      </trkpt>
      <trkpt lat="45.68253" lon="4.63839">
        <ele>389.4</ele>
        <time>2026-08-26T08:20:37Z</time>
      </trkpt>
      <trkpt lat="45.68252" lon="4.63835">
        <ele>389.6</ele>
        <time>2026-08-26T08:20:38Z</time>
      </trkpt>
      <trkpt lat="45.6825" lon="4.63831">
        <ele>389.6</ele>
        <time>2026-08-26T08:20:39Z</time>
      </trkpt>
      <trkpt lat="45.68249" lon="4.63827">
        <ele>389.6</ele>
        <time>2026-08-26T08:20:40Z</time>
      </trkpt>
      <trkpt lat="45.68248" lon="4.63823">
        <ele>389.6</ele>
        <time>2026-08-26T08:20:41Z</time>
      </trkpt>
      <trkpt lat="45.68247" lon="4.63819">
        <ele>389.8</ele>
        <time>2026-08-26T08:20:42Z</time>
      </trkpt>
      <trkpt lat="45.68246" lon="4.63815">
        <ele>390</ele>
        <time>2026-08-26T08:20:43Z</time>
      </trkpt>
      <trkpt lat="45.68245" lon="4.63811">
        <ele>390</ele>
        <time>2026-08-26T08:20:44Z</time>
      </trkpt>
      <trkpt lat="45.68244" lon="4.63807">
        <ele>390.2</ele>
        <time>2026-08-26T08:20:45Z</time>
      </trkpt>
      <trkpt lat="45.68242" lon="4.63803">
        <ele>390.4</ele>
        <time>2026-08-26T08:20:46Z</time>
      </trkpt>
      <trkpt lat="45.68241" lon="4.63799">
        <ele>390.6</ele>
        <time>2026-08-26T08:20:47Z</time>
      </trkpt>
      <trkpt lat="45.6824" lon="4.63795">
        <ele>390.8</ele>
        <time>2026-08-26T08:20:48Z</time>
      </trkpt>
      <trkpt lat="45.68239" lon="4.6379">
        <ele>391</ele>
        <time>2026-08-26T08:20:49Z</time>
      </trkpt>
      <trkpt lat="45.68238" lon="4.63786">
        <ele>391.2</ele>
        <time>2026-08-26T08:20:50Z</time>
      </trkpt>
      <trkpt lat="45.68237" lon="4.63782">
        <ele>391.2</ele>
        <time>2026-08-26T08:20:51Z</time>
      </trkpt>
      <trkpt lat="45.68235" lon="4.63777">
        <ele>391.2</ele>
        <time>2026-08-26T08:20:52Z</time>
      </trkpt>
      <trkpt lat="45.68234" lon="4.63773">
        <ele>391.4</ele>
        <time>2026-08-26T08:20:53Z</time>
      </trkpt>
      <trkpt lat="45.68233" lon="4.63769">
        <ele>391.4</ele>
        <time>2026-08-26T08:20:54Z</time>
      </trkpt>
      <trkpt lat="45.68232" lon="4.63764">
        <ele>391.6</ele>
        <time>2026-08-26T08:20:55Z</time>
      </trkpt>
      <trkpt lat="45.68231" lon="4.6376">
        <ele>391.6</ele>
        <time>2026-08-26T08:20:56Z</time>
      </trkpt>
      <trkpt lat="45.68229" lon="4.63756">
        <ele>391.6</ele>
        <time>2026-08-26T08:20:57Z</time>
      </trkpt>
      <trkpt lat="45.68228" lon="4.63751">
        <ele>391.6</ele>
        <time>2026-08-26T08:20:58Z</time>
      </trkpt>
      <trkpt lat="45.68226" lon="4.63746">
        <ele>391.8</ele>
        <time>2026-08-26T08:20:59Z</time>
      </trkpt>
      <trkpt lat="45.68225" lon="4.63742">
        <ele>391.8</ele>
        <time>2026-08-26T08:21:00Z</time>
      </trkpt>
      <trkpt lat="45.68224" lon="4.63737">
        <ele>391.8</ele>
        <time>2026-08-26T08:21:01Z</time>
      </trkpt>
      <trkpt lat="45.68223" lon="4.63732">
        <ele>392</ele>
        <time>2026-08-26T08:21:02Z</time>
      </trkpt>
      <trkpt lat="45.68221" lon="4.63727">
        <ele>392</ele>
        <time>2026-08-26T08:21:03Z</time>
      </trkpt>
      <trkpt lat="45.6822" lon="4.63722">
        <ele>392</ele>
        <time>2026-08-26T08:21:04Z</time>
      </trkpt>
      <trkpt lat="45.68218" lon="4.63717">
        <ele>392.2</ele>
        <time>2026-08-26T08:21:05Z</time>
      </trkpt>
      <trkpt lat="45.68217" lon="4.63712">
        <ele>392.2</ele>
        <time>2026-08-26T08:21:06Z</time>
      </trkpt>
      <trkpt lat="45.68215" lon="4.63707">
        <ele>392.2</ele>
        <time>2026-08-26T08:21:07Z</time>
      </trkpt>
      <trkpt lat="45.68214" lon="4.63702">
        <ele>392.2</ele>
        <time>2026-08-26T08:21:08Z</time>
      </trkpt>
      <trkpt lat="45.68212" lon="4.63697">
        <ele>392.2</ele>
        <time>2026-08-26T08:21:09Z</time>
      </trkpt>
      <trkpt lat="45.68211" lon="4.63692">
        <ele>392.2</ele>
        <time>2026-08-26T08:21:10Z</time>
      </trkpt>
      <trkpt lat="45.6821" lon="4.63687">
        <ele>392.2</ele>
        <time>2026-08-26T08:21:11Z</time>
      </trkpt>
      <trkpt lat="45.68209" lon="4.63681">
        <ele>392.2</ele>
        <time>2026-08-26T08:21:12Z</time>
      </trkpt>
      <trkpt lat="45.68208" lon="4.63675">
        <ele>392.2</ele>
        <time>2026-08-26T08:21:13Z</time>
      </trkpt>
      <trkpt lat="45.68206" lon="4.63669">
        <ele>392.4</ele>
        <time>2026-08-26T08:21:14Z</time>
      </trkpt>
      <trkpt lat="45.68205" lon="4.63663">
        <ele>392.4</ele>
        <time>2026-08-26T08:21:15Z</time>
      </trkpt>
      <trkpt lat="45.68204" lon="4.63657">
        <ele>392.2</ele>
        <time>2026-08-26T08:21:16Z</time>
      </trkpt>
      <trkpt lat="45.68203" lon="4.63651">
        <ele>392.2</ele>
        <time>2026-08-26T08:21:17Z</time>
      </trkpt>
      <trkpt lat="45.68202" lon="4.63645">
        <ele>392.2</ele>
        <time>2026-08-26T08:21:18Z</time>
      </trkpt>
      <trkpt lat="45.68202" lon="4.63639">
        <ele>392</ele>
        <time>2026-08-26T08:21:19Z</time>
      </trkpt>
      <trkpt lat="45.68201" lon="4.63632">
        <ele>392</ele>
        <time>2026-08-26T08:21:20Z</time>
      </trkpt>
      <trkpt lat="45.682" lon="4.63625">
        <ele>392</ele>
        <time>2026-08-26T08:21:21Z</time>
      </trkpt>
      <trkpt lat="45.682" lon="4.63619">
        <ele>392</ele>
        <time>2026-08-26T08:21:22Z</time>
      </trkpt>
      <trkpt lat="45.68199" lon="4.63613">
        <ele>392</ele>
        <time>2026-08-26T08:21:23Z</time>
      </trkpt>
      <trkpt lat="45.68198" lon="4.63607">
        <ele>392</ele>
        <time>2026-08-26T08:21:24Z</time>
      </trkpt>
      <trkpt lat="45.68198" lon="4.636">
        <ele>392</ele>
        <time>2026-08-26T08:21:25Z</time>
      </trkpt>
      <trkpt lat="45.68198" lon="4.63594">
        <ele>392</ele>
        <time>2026-08-26T08:21:26Z</time>
      </trkpt>
      <trkpt lat="45.68198" lon="4.63587">
        <ele>392</ele>
        <time>2026-08-26T08:21:27Z</time>
      </trkpt>
      <trkpt lat="45.68198" lon="4.63581">
        <ele>392</ele>
        <time>2026-08-26T08:21:28Z</time>
      </trkpt>
      <trkpt lat="45.68198" lon="4.63574">
        <ele>392</ele>
        <time>2026-08-26T08:21:29Z</time>
      </trkpt>
      <trkpt lat="45.68198" lon="4.63568">
        <ele>392.2</ele>
        <time>2026-08-26T08:21:30Z</time>
      </trkpt>
      <trkpt lat="45.68198" lon="4.63561">
        <ele>392.2</ele>
        <time>2026-08-26T08:21:31Z</time>
      </trkpt>
      <trkpt lat="45.68199" lon="4.63555">
        <ele>392</ele>
        <time>2026-08-26T08:21:32Z</time>
      </trkpt>
      <trkpt lat="45.68199" lon="4.63548">
        <ele>392.2</ele>
        <time>2026-08-26T08:21:33Z</time>
      </trkpt>
      <trkpt lat="45.68199" lon="4.63542">
        <ele>392.2</ele>
        <time>2026-08-26T08:21:34Z</time>
      </trkpt>
      <trkpt lat="45.682" lon="4.63536">
        <ele>392.2</ele>
        <time>2026-08-26T08:21:35Z</time>
      </trkpt>
      <trkpt lat="45.682" lon="4.6353">
        <ele>392.2</ele>
        <time>2026-08-26T08:21:36Z</time>
      </trkpt>
      <trkpt lat="45.68201" lon="4.63524">
        <ele>392.2</ele>
        <time>2026-08-26T08:21:37Z</time>
      </trkpt>
      <trkpt lat="45.68201" lon="4.63518">
        <ele>392.2</ele>
        <time>2026-08-26T08:21:38Z</time>
      </trkpt>
      <trkpt lat="45.68201" lon="4.63511">
        <ele>392.2</ele>
        <time>2026-08-26T08:21:39Z</time>
      </trkpt>
      <trkpt lat="45.68202" lon="4.63505">
        <ele>392.2</ele>
        <time>2026-08-26T08:21:40Z</time>
      </trkpt>
      <trkpt lat="45.68202" lon="4.63499">
        <ele>392.2</ele>
        <time>2026-08-26T08:21:41Z</time>
      </trkpt>
      <trkpt lat="45.68203" lon="4.63493">
        <ele>392.2</ele>
        <time>2026-08-26T08:21:42Z</time>
      </trkpt>
      <trkpt lat="45.68204" lon="4.63486">
        <ele>392</ele>
        <time>2026-08-26T08:21:43Z</time>
      </trkpt>
      <trkpt lat="45.68205" lon="4.63479">
        <ele>391.8</ele>
        <time>2026-08-26T08:21:44Z</time>
      </trkpt>
      <trkpt lat="45.68206" lon="4.63473">
        <ele>391.6</ele>
        <time>2026-08-26T08:21:45Z</time>
      </trkpt>
      <trkpt lat="45.68207" lon="4.63465">
        <ele>391.4</ele>
        <time>2026-08-26T08:21:46Z</time>
      </trkpt>
      <trkpt lat="45.68208" lon="4.63458">
        <ele>391.2</ele>
        <time>2026-08-26T08:21:47Z</time>
      </trkpt>
      <trkpt lat="45.6821" lon="4.6345">
        <ele>391</ele>
        <time>2026-08-26T08:21:48Z</time>
      </trkpt>
      <trkpt lat="45.68211" lon="4.63442">
        <ele>390.6</ele>
        <time>2026-08-26T08:21:49Z</time>
      </trkpt>
      <trkpt lat="45.68213" lon="4.63434">
        <ele>390.2</ele>
        <time>2026-08-26T08:21:50Z</time>
      </trkpt>
      <trkpt lat="45.68215" lon="4.63425">
        <ele>389.8</ele>
        <time>2026-08-26T08:21:51Z</time>
      </trkpt>
      <trkpt lat="45.68217" lon="4.63415">
        <ele>389.6</ele>
        <time>2026-08-26T08:21:52Z</time>
      </trkpt>
      <trkpt lat="45.68219" lon="4.63406">
        <ele>389.2</ele>
        <time>2026-08-26T08:21:53Z</time>
      </trkpt>
      <trkpt lat="45.68222" lon="4.63397">
        <ele>388.8</ele>
        <time>2026-08-26T08:21:54Z</time>
      </trkpt>
      <trkpt lat="45.68226" lon="4.63387">
        <ele>388.4</ele>
        <time>2026-08-26T08:21:55Z</time>
      </trkpt>
      <trkpt lat="45.6823" lon="4.63377">
        <ele>388</ele>
        <time>2026-08-26T08:21:56Z</time>
      </trkpt>
      <trkpt lat="45.68234" lon="4.63368">
        <ele>387.4</ele>
        <time>2026-08-26T08:21:57Z</time>
      </trkpt>
      <trkpt lat="45.68239" lon="4.6336">
        <ele>387</ele>
        <time>2026-08-26T08:21:58Z</time>
      </trkpt>
      <trkpt lat="45.68244" lon="4.63351">
        <ele>386.4</ele>
        <time>2026-08-26T08:21:59Z</time>
      </trkpt>
      <trkpt lat="45.6825" lon="4.63342">
        <ele>385.8</ele>
        <time>2026-08-26T08:22:00Z</time>
      </trkpt>
      <trkpt lat="45.68255" lon="4.63333">
        <ele>385.4</ele>
        <time>2026-08-26T08:22:01Z</time>
      </trkpt>
      <trkpt lat="45.6826" lon="4.63324">
        <ele>384.8</ele>
        <time>2026-08-26T08:22:02Z</time>
      </trkpt>
      <trkpt lat="45.68265" lon="4.63313">
        <ele>384.4</ele>
        <time>2026-08-26T08:22:03Z</time>
      </trkpt>
      <trkpt lat="45.68268" lon="4.63303">
        <ele>383.8</ele>
        <time>2026-08-26T08:22:04Z</time>
      </trkpt>
      <trkpt lat="45.68271" lon="4.63291">
        <ele>383.6</ele>
        <time>2026-08-26T08:22:05Z</time>
      </trkpt>
      <trkpt lat="45.68273" lon="4.6328">
        <ele>383.4</ele>
        <time>2026-08-26T08:22:06Z</time>
      </trkpt>
      <trkpt lat="45.68274" lon="4.63269">
        <ele>383.2</ele>
        <time>2026-08-26T08:22:07Z</time>
      </trkpt>
      <trkpt lat="45.68275" lon="4.63258">
        <ele>383.2</ele>
        <time>2026-08-26T08:22:08Z</time>
      </trkpt>
      <trkpt lat="45.68276" lon="4.63247">
        <ele>383.4</ele>
        <time>2026-08-26T08:22:09Z</time>
      </trkpt>
      <trkpt lat="45.68277" lon="4.63236">
        <ele>383.4</ele>
        <time>2026-08-26T08:22:10Z</time>
      </trkpt>
      <trkpt lat="45.68278" lon="4.63225">
        <ele>383.4</ele>
        <time>2026-08-26T08:22:11Z</time>
      </trkpt>
      <trkpt lat="45.68279" lon="4.63213">
        <ele>383.4</ele>
        <time>2026-08-26T08:22:12Z</time>
      </trkpt>
      <trkpt lat="45.68281" lon="4.63202">
        <ele>383.2</ele>
        <time>2026-08-26T08:22:13Z</time>
      </trkpt>
      <trkpt lat="45.68282" lon="4.6319">
        <ele>382.8</ele>
        <time>2026-08-26T08:22:14Z</time>
      </trkpt>
      <trkpt lat="45.68284" lon="4.63178">
        <ele>382.4</ele>
        <time>2026-08-26T08:22:15Z</time>
      </trkpt>
      <trkpt lat="45.68287" lon="4.63166">
        <ele>381.8</ele>
        <time>2026-08-26T08:22:16Z</time>
      </trkpt>
      <trkpt lat="45.68291" lon="4.63155">
        <ele>381.2</ele>
        <time>2026-08-26T08:22:17Z</time>
      </trkpt>
      <trkpt lat="45.68295" lon="4.63143">
        <ele>380.4</ele>
        <time>2026-08-26T08:22:18Z</time>
      </trkpt>
      <trkpt lat="45.683" lon="4.6313">
        <ele>379.8</ele>
        <time>2026-08-26T08:22:19Z</time>
      </trkpt>
      <trkpt lat="45.68305" lon="4.63118">
        <ele>379</ele>
        <time>2026-08-26T08:22:20Z</time>
      </trkpt>
      <trkpt lat="45.68311" lon="4.63106">
        <ele>378</ele>
        <time>2026-08-26T08:22:21Z</time>
      </trkpt>
      <trkpt lat="45.68317" lon="4.63094">
        <ele>377.2</ele>
        <time>2026-08-26T08:22:22Z</time>
      </trkpt>
      <trkpt lat="45.68324" lon="4.63083">
        <ele>376.2</ele>
        <time>2026-08-26T08:22:23Z</time>
      </trkpt>
      <trkpt lat="45.68332" lon="4.63072">
        <ele>375.4</ele>
        <time>2026-08-26T08:22:24Z</time>
      </trkpt>
      <trkpt lat="45.68339" lon="4.63061">
        <ele>374.6</ele>
        <time>2026-08-26T08:22:25Z</time>
      </trkpt>
      <trkpt lat="45.68346" lon="4.6305">
        <ele>373.8</ele>
        <time>2026-08-26T08:22:26Z</time>
      </trkpt>
      <trkpt lat="45.68354" lon="4.63039">
        <ele>373</ele>
        <time>2026-08-26T08:22:27Z</time>
      </trkpt>
      <trkpt lat="45.68362" lon="4.63028">
        <ele>372.2</ele>
        <time>2026-08-26T08:22:28Z</time>
      </trkpt>
      <trkpt lat="45.68369" lon="4.63016">
        <ele>371.4</ele>
        <time>2026-08-26T08:22:29Z</time>
      </trkpt>
      <trkpt lat="45.68377" lon="4.63005">
        <ele>370.6</ele>
        <time>2026-08-26T08:22:30Z</time>
      </trkpt>
      <trkpt lat="45.68385" lon="4.62993">
        <ele>369.8</ele>
        <time>2026-08-26T08:22:31Z</time>
      </trkpt>
      <trkpt lat="45.68392" lon="4.62981">
        <ele>369</ele>
        <time>2026-08-26T08:22:32Z</time>
      </trkpt>
      <trkpt lat="45.68398" lon="4.62969">
        <ele>368.4</ele>
        <time>2026-08-26T08:22:33Z</time>
      </trkpt>
      <trkpt lat="45.68404" lon="4.62956">
        <ele>367.8</ele>
        <time>2026-08-26T08:22:34Z</time>
      </trkpt>
      <trkpt lat="45.6841" lon="4.62942">
        <ele>367.2</ele>
        <time>2026-08-26T08:22:35Z</time>
      </trkpt>
      <trkpt lat="45.68415" lon="4.62929">
        <ele>366.4</ele>
        <time>2026-08-26T08:22:36Z</time>
      </trkpt>
      <trkpt lat="45.68419" lon="4.62915">
        <ele>365.8</ele>
        <time>2026-08-26T08:22:37Z</time>
      </trkpt>
      <trkpt lat="45.68422" lon="4.62901">
        <ele>365.6</ele>
        <time>2026-08-26T08:22:38Z</time>
      </trkpt>
      <trkpt lat="45.68423" lon="4.62886">
        <ele>365.4</ele>
        <time>2026-08-26T08:22:39Z</time>
      </trkpt>
      <trkpt lat="45.68423" lon="4.62872">
        <ele>365.4</ele>
        <time>2026-08-26T08:22:40Z</time>
      </trkpt>
      <trkpt lat="45.68424" lon="4.62859">
        <ele>365.6</ele>
        <time>2026-08-26T08:22:41Z</time>
      </trkpt>
      <trkpt lat="45.68424" lon="4.62847">
        <ele>366</ele>
        <time>2026-08-26T08:22:42Z</time>
      </trkpt>
      <trkpt lat="45.68425" lon="4.62835">
        <ele>366.4</ele>
        <time>2026-08-26T08:22:43Z</time>
      </trkpt>
      <trkpt lat="45.68426" lon="4.62824">
        <ele>367</ele>
        <time>2026-08-26T08:22:44Z</time>
      </trkpt>
      <trkpt lat="45.68428" lon="4.62813">
        <ele>367.4</ele>
        <time>2026-08-26T08:22:45Z</time>
      </trkpt>
      <trkpt lat="45.68429" lon="4.62803">
        <ele>367.8</ele>
        <time>2026-08-26T08:22:46Z</time>
      </trkpt>
      <trkpt lat="45.6843" lon="4.62793">
        <ele>368.2</ele>
        <time>2026-08-26T08:22:47Z</time>
      </trkpt>
      <trkpt lat="45.68431" lon="4.62784">
        <ele>368.6</ele>
        <time>2026-08-26T08:22:48Z</time>
      </trkpt>
      <trkpt lat="45.68432" lon="4.62774">
        <ele>369</ele>
        <time>2026-08-26T08:22:49Z</time>
      </trkpt>
      <trkpt lat="45.68433" lon="4.62765">
        <ele>369.6</ele>
        <time>2026-08-26T08:22:50Z</time>
      </trkpt>
      <trkpt lat="45.68434" lon="4.62756">
        <ele>370</ele>
        <time>2026-08-26T08:22:51Z</time>
      </trkpt>
      <trkpt lat="45.68435" lon="4.62748">
        <ele>370.4</ele>
        <time>2026-08-26T08:22:52Z</time>
      </trkpt>
      <trkpt lat="45.68435" lon="4.62739">
        <ele>370.8</ele>
        <time>2026-08-26T08:22:53Z</time>
      </trkpt>
      <trkpt lat="45.68436" lon="4.62731">
        <ele>371.2</ele>
        <time>2026-08-26T08:22:54Z</time>
      </trkpt>
      <trkpt lat="45.68436" lon="4.62723">
        <ele>371.4</ele>
        <time>2026-08-26T08:22:55Z</time>
      </trkpt>
      <trkpt lat="45.68437" lon="4.62714">
        <ele>371.8</ele>
        <time>2026-08-26T08:22:56Z</time>
      </trkpt>
      <trkpt lat="45.68438" lon="4.62707">
        <ele>372</ele>
        <time>2026-08-26T08:22:57Z</time>
      </trkpt>
      <trkpt lat="45.6844" lon="4.62699">
        <ele>372.2</ele>
        <time>2026-08-26T08:22:58Z</time>
      </trkpt>
      <trkpt lat="45.68441" lon="4.62691">
        <ele>372.4</ele>
        <time>2026-08-26T08:22:59Z</time>
      </trkpt>
      <trkpt lat="45.68443" lon="4.62684">
        <ele>372.6</ele>
        <time>2026-08-26T08:23:00Z</time>
      </trkpt>
      <trkpt lat="45.68444" lon="4.62677">
        <ele>373</ele>
        <time>2026-08-26T08:23:01Z</time>
      </trkpt>
      <trkpt lat="45.68445" lon="4.62669">
        <ele>373.2</ele>
        <time>2026-08-26T08:23:02Z</time>
      </trkpt>
      <trkpt lat="45.68446" lon="4.62662">
        <ele>373.4</ele>
        <time>2026-08-26T08:23:03Z</time>
      </trkpt>
      <trkpt lat="45.68447" lon="4.62655">
        <ele>373.6</ele>
        <time>2026-08-26T08:23:04Z</time>
      </trkpt>
      <trkpt lat="45.68448" lon="4.62648">
        <ele>373.8</ele>
        <time>2026-08-26T08:23:05Z</time>
      </trkpt>
      <trkpt lat="45.6845" lon="4.62641">
        <ele>374.2</ele>
        <time>2026-08-26T08:23:06Z</time>
      </trkpt>
      <trkpt lat="45.68451" lon="4.62635">
        <ele>374.2</ele>
        <time>2026-08-26T08:23:07Z</time>
      </trkpt>
      <trkpt lat="45.68453" lon="4.62628">
        <ele>374.4</ele>
        <time>2026-08-26T08:23:08Z</time>
      </trkpt>
      <trkpt lat="45.68455" lon="4.62622">
        <ele>374.6</ele>
        <time>2026-08-26T08:23:09Z</time>
      </trkpt>
      <trkpt lat="45.68458" lon="4.62616">
        <ele>374.8</ele>
        <time>2026-08-26T08:23:10Z</time>
      </trkpt>
      <trkpt lat="45.6846" lon="4.6261">
        <ele>374.8</ele>
        <time>2026-08-26T08:23:11Z</time>
      </trkpt>
      <trkpt lat="45.68462" lon="4.62604">
        <ele>375</ele>
        <time>2026-08-26T08:23:12Z</time>
      </trkpt>
      <trkpt lat="45.68465" lon="4.62599">
        <ele>375.2</ele>
        <time>2026-08-26T08:23:13Z</time>
      </trkpt>
      <trkpt lat="45.68467" lon="4.62594">
        <ele>375.4</ele>
        <time>2026-08-26T08:23:14Z</time>
      </trkpt>
      <trkpt lat="45.68469" lon="4.62589">
        <ele>375.6</ele>
        <time>2026-08-26T08:23:15Z</time>
      </trkpt>
      <trkpt lat="45.68472" lon="4.62584">
        <ele>375.8</ele>
        <time>2026-08-26T08:23:16Z</time>
      </trkpt>
      <trkpt lat="45.68474" lon="4.62579">
        <ele>376</ele>
        <time>2026-08-26T08:23:17Z</time>
      </trkpt>
      <trkpt lat="45.68476" lon="4.62573">
        <ele>376.2</ele>
        <time>2026-08-26T08:23:18Z</time>
      </trkpt>
      <trkpt lat="45.68478" lon="4.62568">
        <ele>376.4</ele>
        <time>2026-08-26T08:23:19Z</time>
      </trkpt>
      <trkpt lat="45.6848" lon="4.62562">
        <ele>376.6</ele>
        <time>2026-08-26T08:23:20Z</time>
      </trkpt>
      <trkpt lat="45.68482" lon="4.62556">
        <ele>376.6</ele>
        <time>2026-08-26T08:23:21Z</time>
      </trkpt>
      <trkpt lat="45.68483" lon="4.6255">
        <ele>376.8</ele>
        <time>2026-08-26T08:23:22Z</time>
      </trkpt>
      <trkpt lat="45.68484" lon="4.62544">
        <ele>377</ele>
        <time>2026-08-26T08:23:23Z</time>
      </trkpt>
      <trkpt lat="45.68485" lon="4.62539">
        <ele>377.2</ele>
        <time>2026-08-26T08:23:24Z</time>
      </trkpt>
      <trkpt lat="45.68486" lon="4.62533">
        <ele>377.2</ele>
        <time>2026-08-26T08:23:25Z</time>
      </trkpt>
      <trkpt lat="45.68486" lon="4.62527">
        <ele>377.4</ele>
        <time>2026-08-26T08:23:26Z</time>
      </trkpt>
      <trkpt lat="45.68486" lon="4.62521">
        <ele>377.6</ele>
        <time>2026-08-26T08:23:27Z</time>
      </trkpt>
      <trkpt lat="45.68486" lon="4.62515">
        <ele>377.6</ele>
        <time>2026-08-26T08:23:28Z</time>
      </trkpt>
      <trkpt lat="45.68486" lon="4.62508">
        <ele>377.8</ele>
        <time>2026-08-26T08:23:29Z</time>
      </trkpt>
      <trkpt lat="45.68487" lon="4.62502">
        <ele>378</ele>
        <time>2026-08-26T08:23:30Z</time>
      </trkpt>
      <trkpt lat="45.68488" lon="4.62496">
        <ele>378.2</ele>
        <time>2026-08-26T08:23:31Z</time>
      </trkpt>
      <trkpt lat="45.68488" lon="4.62491">
        <ele>378.4</ele>
        <time>2026-08-26T08:23:32Z</time>
      </trkpt>
      <trkpt lat="45.68489" lon="4.62485">
        <ele>378.4</ele>
        <time>2026-08-26T08:23:33Z</time>
      </trkpt>
      <trkpt lat="45.6849" lon="4.6248">
        <ele>378.6</ele>
        <time>2026-08-26T08:23:34Z</time>
      </trkpt>
      <trkpt lat="45.68492" lon="4.62475">
        <ele>378.8</ele>
        <time>2026-08-26T08:23:35Z</time>
      </trkpt>
      <trkpt lat="45.68493" lon="4.62469">
        <ele>378.8</ele>
        <time>2026-08-26T08:23:36Z</time>
      </trkpt>
      <trkpt lat="45.68495" lon="4.62464">
        <ele>379</ele>
        <time>2026-08-26T08:23:37Z</time>
      </trkpt>
      <trkpt lat="45.68496" lon="4.6246">
        <ele>379.2</ele>
        <time>2026-08-26T08:23:38Z</time>
      </trkpt>
      <trkpt lat="45.68498" lon="4.62454">
        <ele>379.4</ele>
        <time>2026-08-26T08:23:39Z</time>
      </trkpt>
      <trkpt lat="45.68499" lon="4.6245">
        <ele>379.6</ele>
        <time>2026-08-26T08:23:40Z</time>
      </trkpt>
      <trkpt lat="45.68501" lon="4.62445">
        <ele>379.8</ele>
        <time>2026-08-26T08:23:41Z</time>
      </trkpt>
      <trkpt lat="45.68502" lon="4.6244">
        <ele>380.2</ele>
        <time>2026-08-26T08:23:42Z</time>
      </trkpt>
      <trkpt lat="45.68503" lon="4.62435">
        <ele>380.4</ele>
        <time>2026-08-26T08:23:43Z</time>
      </trkpt>
      <trkpt lat="45.68504" lon="4.62431">
        <ele>380.6</ele>
        <time>2026-08-26T08:23:44Z</time>
      </trkpt>
      <trkpt lat="45.68505" lon="4.62427">
        <ele>381</ele>
        <time>2026-08-26T08:23:45Z</time>
      </trkpt>
      <trkpt lat="45.68506" lon="4.62422">
        <ele>381</ele>
        <time>2026-08-26T08:23:46Z</time>
      </trkpt>
      <trkpt lat="45.68507" lon="4.62418">
        <ele>381.2</ele>
        <time>2026-08-26T08:23:47Z</time>
      </trkpt>
      <trkpt lat="45.68508" lon="4.62414">
        <ele>381.6</ele>
        <time>2026-08-26T08:23:48Z</time>
      </trkpt>
      <trkpt lat="45.68509" lon="4.6241">
        <ele>381.8</ele>
        <time>2026-08-26T08:23:49Z</time>
      </trkpt>
      <trkpt lat="45.68509" lon="4.62406">
        <ele>382</ele>
        <time>2026-08-26T08:23:50Z</time>
      </trkpt>
      <trkpt lat="45.6851" lon="4.62401">
        <ele>382.2</ele>
        <time>2026-08-26T08:23:51Z</time>
      </trkpt>
      <trkpt lat="45.68511" lon="4.62397">
        <ele>382.4</ele>
        <time>2026-08-26T08:23:52Z</time>
      </trkpt>
      <trkpt lat="45.68513" lon="4.62393">
        <ele>382.6</ele>
        <time>2026-08-26T08:23:53Z</time>
      </trkpt>
      <trkpt lat="45.68514" lon="4.62389">
        <ele>382.8</ele>
        <time>2026-08-26T08:23:54Z</time>
      </trkpt>
      <trkpt lat="45.68515" lon="4.62385">
        <ele>383</ele>
        <time>2026-08-26T08:23:55Z</time>
      </trkpt>
      <trkpt lat="45.68516" lon="4.62381">
        <ele>383.2</ele>
        <time>2026-08-26T08:23:56Z</time>
      </trkpt>
      <trkpt lat="45.68517" lon="4.62377">
        <ele>383.2</ele>
        <time>2026-08-26T08:23:57Z</time>
      </trkpt>
      <trkpt lat="45.68518" lon="4.62372">
        <ele>383.4</ele>
        <time>2026-08-26T08:23:58Z</time>
      </trkpt>
      <trkpt lat="45.68518" lon="4.62367">
        <ele>383.6</ele>
        <time>2026-08-26T08:23:59Z</time>
      </trkpt>
      <trkpt lat="45.68519" lon="4.62363">
        <ele>383.6</ele>
        <time>2026-08-26T08:24:00Z</time>
      </trkpt>
      <trkpt lat="45.6852" lon="4.62358">
        <ele>383.8</ele>
        <time>2026-08-26T08:24:01Z</time>
      </trkpt>
      <trkpt lat="45.68521" lon="4.62353">
        <ele>384</ele>
        <time>2026-08-26T08:24:02Z</time>
      </trkpt>
      <trkpt lat="45.68522" lon="4.62349">
        <ele>384</ele>
        <time>2026-08-26T08:24:03Z</time>
      </trkpt>
      <trkpt lat="45.68523" lon="4.62344">
        <ele>384</ele>
        <time>2026-08-26T08:24:04Z</time>
      </trkpt>
      <trkpt lat="45.68524" lon="4.62339">
        <ele>384.2</ele>
        <time>2026-08-26T08:24:05Z</time>
      </trkpt>
      <trkpt lat="45.68525" lon="4.62334">
        <ele>384.2</ele>
        <time>2026-08-26T08:24:06Z</time>
      </trkpt>
      <trkpt lat="45.68526" lon="4.6233">
        <ele>384.4</ele>
        <time>2026-08-26T08:24:07Z</time>
      </trkpt>
      <trkpt lat="45.68526" lon="4.62325">
        <ele>384.4</ele>
        <time>2026-08-26T08:24:08Z</time>
      </trkpt>
      <trkpt lat="45.68527" lon="4.6232">
        <ele>384.6</ele>
        <time>2026-08-26T08:24:09Z</time>
      </trkpt>
      <trkpt lat="45.68528" lon="4.62315">
        <ele>384.6</ele>
        <time>2026-08-26T08:24:10Z</time>
      </trkpt>
      <trkpt lat="45.68529" lon="4.6231">
        <ele>384.6</ele>
        <time>2026-08-26T08:24:11Z</time>
      </trkpt>
      <trkpt lat="45.68529" lon="4.62304">
        <ele>384.6</ele>
        <time>2026-08-26T08:24:12Z</time>
      </trkpt>
      <trkpt lat="45.6853" lon="4.62299">
        <ele>384.8</ele>
        <time>2026-08-26T08:24:13Z</time>
      </trkpt>
      <trkpt lat="45.6853" lon="4.62294">
        <ele>384.8</ele>
        <time>2026-08-26T08:24:14Z</time>
      </trkpt>
      <trkpt lat="45.6853" lon="4.62288">
        <ele>384.8</ele>
        <time>2026-08-26T08:24:15Z</time>
      </trkpt>
      <trkpt lat="45.6853" lon="4.62283">
        <ele>384.8</ele>
        <time>2026-08-26T08:24:16Z</time>
      </trkpt>
      <trkpt lat="45.6853" lon="4.62277">
        <ele>384.8</ele>
        <time>2026-08-26T08:24:17Z</time>
      </trkpt>
      <trkpt lat="45.6853" lon="4.62271">
        <ele>384.8</ele>
        <time>2026-08-26T08:24:18Z</time>
      </trkpt>
      <trkpt lat="45.6853" lon="4.62265">
        <ele>384.8</ele>
        <time>2026-08-26T08:24:19Z</time>
      </trkpt>
      <trkpt lat="45.68529" lon="4.62259">
        <ele>384.8</ele>
        <time>2026-08-26T08:24:20Z</time>
      </trkpt>
      <trkpt lat="45.68529" lon="4.62253">
        <ele>384.8</ele>
        <time>2026-08-26T08:24:21Z</time>
      </trkpt>
      <trkpt lat="45.68528" lon="4.62247">
        <ele>384.8</ele>
        <time>2026-08-26T08:24:22Z</time>
      </trkpt>
      <trkpt lat="45.68527" lon="4.62242">
        <ele>384.8</ele>
        <time>2026-08-26T08:24:23Z</time>
      </trkpt>
      <trkpt lat="45.68526" lon="4.62236">
        <ele>385</ele>
        <time>2026-08-26T08:24:24Z</time>
      </trkpt>
      <trkpt lat="45.68526" lon="4.6223">
        <ele>385</ele>
        <time>2026-08-26T08:24:25Z</time>
      </trkpt>
      <trkpt lat="45.68525" lon="4.62224">
        <ele>385</ele>
        <time>2026-08-26T08:24:26Z</time>
      </trkpt>
      <trkpt lat="45.68525" lon="4.62219">
        <ele>385</ele>
        <time>2026-08-26T08:24:27Z</time>
      </trkpt>
      <trkpt lat="45.68524" lon="4.62213">
        <ele>385.2</ele>
        <time>2026-08-26T08:24:28Z</time>
      </trkpt>
      <trkpt lat="45.68523" lon="4.62208">
        <ele>385.2</ele>
        <time>2026-08-26T08:24:29Z</time>
      </trkpt>
      <trkpt lat="45.68522" lon="4.62202">
        <ele>385.4</ele>
        <time>2026-08-26T08:24:30Z</time>
      </trkpt>
      <trkpt lat="45.68521" lon="4.62196">
        <ele>385.4</ele>
        <time>2026-08-26T08:24:31Z</time>
      </trkpt>
      <trkpt lat="45.68521" lon="4.6219">
        <ele>385.6</ele>
        <time>2026-08-26T08:24:32Z</time>
      </trkpt>
      <trkpt lat="45.68521" lon="4.62185">
        <ele>385.6</ele>
        <time>2026-08-26T08:24:33Z</time>
      </trkpt>
      <trkpt lat="45.6852" lon="4.62179">
        <ele>385.8</ele>
        <time>2026-08-26T08:24:34Z</time>
      </trkpt>
      <trkpt lat="45.6852" lon="4.62173">
        <ele>385.8</ele>
        <time>2026-08-26T08:24:35Z</time>
      </trkpt>
      <trkpt lat="45.6852" lon="4.62167">
        <ele>386</ele>
        <time>2026-08-26T08:24:36Z</time>
      </trkpt>
      <trkpt lat="45.6852" lon="4.62162">
        <ele>386</ele>
        <time>2026-08-26T08:24:37Z</time>
      </trkpt>
      <trkpt lat="45.6852" lon="4.62156">
        <ele>386.2</ele>
        <time>2026-08-26T08:24:38Z</time>
      </trkpt>
      <trkpt lat="45.68521" lon="4.62151">
        <ele>386.4</ele>
        <time>2026-08-26T08:24:39Z</time>
      </trkpt>
      <trkpt lat="45.68521" lon="4.62146">
        <ele>386.6</ele>
        <time>2026-08-26T08:24:40Z</time>
      </trkpt>
      <trkpt lat="45.68522" lon="4.62141">
        <ele>386.8</ele>
        <time>2026-08-26T08:24:41Z</time>
      </trkpt>
      <trkpt lat="45.68522" lon="4.62136">
        <ele>387</ele>
        <time>2026-08-26T08:24:42Z</time>
      </trkpt>
      <trkpt lat="45.68523" lon="4.62131">
        <ele>387.4</ele>
        <time>2026-08-26T08:24:43Z</time>
      </trkpt>
      <trkpt lat="45.68524" lon="4.62127">
        <ele>387.6</ele>
        <time>2026-08-26T08:24:44Z</time>
      </trkpt>
      <trkpt lat="45.68525" lon="4.62123">
        <ele>387.8</ele>
        <time>2026-08-26T08:24:45Z</time>
      </trkpt>
      <trkpt lat="45.68526" lon="4.62119">
        <ele>388</ele>
        <time>2026-08-26T08:24:46Z</time>
      </trkpt>
      <trkpt lat="45.68527" lon="4.62115">
        <ele>388.4</ele>
        <time>2026-08-26T08:24:47Z</time>
      </trkpt>
      <trkpt lat="45.68527" lon="4.62111">
        <ele>388.6</ele>
        <time>2026-08-26T08:24:48Z</time>
      </trkpt>
      <trkpt lat="45.68528" lon="4.62108">
        <ele>388.8</ele>
        <time>2026-08-26T08:24:49Z</time>
      </trkpt>
      <trkpt lat="45.68529" lon="4.62104">
        <ele>389</ele>
        <time>2026-08-26T08:24:50Z</time>
      </trkpt>
      <trkpt lat="45.6853" lon="4.62101">
        <ele>389</ele>
        <time>2026-08-26T08:24:51Z</time>
      </trkpt>
      <trkpt lat="45.68531" lon="4.62097">
        <ele>389.4</ele>
        <time>2026-08-26T08:24:52Z</time>
      </trkpt>
      <trkpt lat="45.68532" lon="4.62094">
        <ele>389.6</ele>
        <time>2026-08-26T08:24:53Z</time>
      </trkpt>
      <trkpt lat="45.68533" lon="4.62091">
        <ele>389.8</ele>
        <time>2026-08-26T08:24:54Z</time>
      </trkpt>
      <trkpt lat="45.68533" lon="4.62088">
        <ele>390</ele>
        <time>2026-08-26T08:24:55Z</time>
      </trkpt>
      <trkpt lat="45.68534" lon="4.62085">
        <ele>390.2</ele>
        <time>2026-08-26T08:24:56Z</time>
      </trkpt>
      <trkpt lat="45.68534" lon="4.62082">
        <ele>390.4</ele>
        <time>2026-08-26T08:24:57Z</time>
      </trkpt>
      <trkpt lat="45.68534" lon="4.62079">
        <ele>390.8</ele>
        <time>2026-08-26T08:24:58Z</time>
      </trkpt>
      <trkpt lat="45.68535" lon="4.62076">
        <ele>391</ele>
        <time>2026-08-26T08:24:59Z</time>
      </trkpt>
      <trkpt lat="45.68536" lon="4.62073">
        <ele>391.2</ele>
        <time>2026-08-26T08:25:00Z</time>
      </trkpt>
      <trkpt lat="45.68537" lon="4.6207">
        <ele>391.4</ele>
        <time>2026-08-26T08:25:01Z</time>
      </trkpt>
      <trkpt lat="45.68537" lon="4.62066">
        <ele>391.6</ele>
        <time>2026-08-26T08:25:02Z</time>
      </trkpt>
      <trkpt lat="45.68537" lon="4.62063">
        <ele>391.8</ele>
        <time>2026-08-26T08:25:03Z</time>
      </trkpt>
      <trkpt lat="45.68538" lon="4.6206">
        <ele>392</ele>
        <time>2026-08-26T08:25:04Z</time>
      </trkpt>
      <trkpt lat="45.68539" lon="4.62058">
        <ele>392.2</ele>
        <time>2026-08-26T08:25:05Z</time>
      </trkpt>
      <trkpt lat="45.6854" lon="4.62056">
        <ele>392.4</ele>
        <time>2026-08-26T08:25:06Z</time>
      </trkpt>
      <trkpt lat="45.68541" lon="4.62054">
        <ele>392.6</ele>
        <time>2026-08-26T08:25:07Z</time>
      </trkpt>
      <trkpt lat="45.68541" lon="4.62051">
        <ele>392.8</ele>
        <time>2026-08-26T08:25:08Z</time>
      </trkpt>
      <trkpt lat="45.68541" lon="4.62048">
        <ele>393</ele>
        <time>2026-08-26T08:25:09Z</time>
      </trkpt>
      <trkpt lat="45.68542" lon="4.62045">
        <ele>393.2</ele>
        <time>2026-08-26T08:25:10Z</time>
      </trkpt>
      <trkpt lat="45.68543" lon="4.62042">
        <ele>393.4</ele>
        <time>2026-08-26T08:25:11Z</time>
      </trkpt>
      <trkpt lat="45.68544" lon="4.62039">
        <ele>393.6</ele>
        <time>2026-08-26T08:25:12Z</time>
      </trkpt>
      <trkpt lat="45.68545" lon="4.62036">
        <ele>393.8</ele>
        <time>2026-08-26T08:25:13Z</time>
      </trkpt>
      <trkpt lat="45.68546" lon="4.62034">
        <ele>394</ele>
        <time>2026-08-26T08:25:14Z</time>
      </trkpt>
      <trkpt lat="45.68546" lon="4.62031">
        <ele>394.2</ele>
        <time>2026-08-26T08:25:15Z</time>
      </trkpt>
      <trkpt lat="45.68547" lon="4.62028">
        <ele>394.4</ele>
        <time>2026-08-26T08:25:16Z</time>
      </trkpt>
      <trkpt lat="45.68549" lon="4.62024">
        <ele>394.6</ele>
        <time>2026-08-26T08:25:17Z</time>
      </trkpt>
      <trkpt lat="45.6855" lon="4.62022">
        <ele>394.8</ele>
        <time>2026-08-26T08:25:18Z</time>
      </trkpt>
      <trkpt lat="45.68552" lon="4.62019">
        <ele>395</ele>
        <time>2026-08-26T08:25:19Z</time>
      </trkpt>
      <trkpt lat="45.68553" lon="4.62016">
        <ele>395.2</ele>
        <time>2026-08-26T08:25:20Z</time>
      </trkpt>
      <trkpt lat="45.68555" lon="4.62013">
        <ele>395.2</ele>
        <time>2026-08-26T08:25:21Z</time>
      </trkpt>
      <trkpt lat="45.68557" lon="4.62011">
        <ele>395.4</ele>
        <time>2026-08-26T08:25:22Z</time>
      </trkpt>
      <trkpt lat="45.68558" lon="4.62008">
        <ele>395.4</ele>
        <time>2026-08-26T08:25:23Z</time>
      </trkpt>
      <trkpt lat="45.6856" lon="4.62005">
        <ele>395.6</ele>
        <time>2026-08-26T08:25:24Z</time>
      </trkpt>
      <trkpt lat="45.68562" lon="4.62002">
        <ele>395.6</ele>
        <time>2026-08-26T08:25:25Z</time>
      </trkpt>
      <trkpt lat="45.68563" lon="4.61999">
        <ele>395.8</ele>
        <time>2026-08-26T08:25:26Z</time>
      </trkpt>
      <trkpt lat="45.68565" lon="4.61997">
        <ele>395.8</ele>
        <time>2026-08-26T08:25:27Z</time>
      </trkpt>
      <trkpt lat="45.68567" lon="4.61994">
        <ele>395.8</ele>
        <time>2026-08-26T08:25:28Z</time>
      </trkpt>
      <trkpt lat="45.68569" lon="4.6199">
        <ele>396</ele>
        <time>2026-08-26T08:25:29Z</time>
      </trkpt>
      <trkpt lat="45.68571" lon="4.61987">
        <ele>396</ele>
        <time>2026-08-26T08:25:30Z</time>
      </trkpt>
      <trkpt lat="45.68573" lon="4.61984">
        <ele>396.2</ele>
        <time>2026-08-26T08:25:31Z</time>
      </trkpt>
      <trkpt lat="45.68575" lon="4.61981">
        <ele>396.2</ele>
        <time>2026-08-26T08:25:32Z</time>
      </trkpt>
      <trkpt lat="45.68578" lon="4.61978">
        <ele>396.2</ele>
        <time>2026-08-26T08:25:33Z</time>
      </trkpt>
      <trkpt lat="45.6858" lon="4.61975">
        <ele>396.4</ele>
        <time>2026-08-26T08:25:34Z</time>
      </trkpt>
      <trkpt lat="45.68582" lon="4.61972">
        <ele>396.4</ele>
        <time>2026-08-26T08:25:35Z</time>
      </trkpt>
      <trkpt lat="45.68584" lon="4.61969">
        <ele>396.4</ele>
        <time>2026-08-26T08:25:36Z</time>
      </trkpt>
      <trkpt lat="45.68586" lon="4.61965">
        <ele>396.4</ele>
        <time>2026-08-26T08:25:37Z</time>
      </trkpt>
      <trkpt lat="45.68588" lon="4.61961">
        <ele>396.4</ele>
        <time>2026-08-26T08:25:38Z</time>
      </trkpt>
      <trkpt lat="45.6859" lon="4.61956">
        <ele>396.4</ele>
        <time>2026-08-26T08:25:39Z</time>
      </trkpt>
      <trkpt lat="45.68592" lon="4.61951">
        <ele>396.4</ele>
        <time>2026-08-26T08:25:40Z</time>
      </trkpt>
      <trkpt lat="45.68593" lon="4.61946">
        <ele>396.4</ele>
        <time>2026-08-26T08:25:41Z</time>
      </trkpt>
      <trkpt lat="45.68593" lon="4.6194">
        <ele>396.4</ele>
        <time>2026-08-26T08:25:42Z</time>
      </trkpt>
      <trkpt lat="45.68593" lon="4.61935">
        <ele>396.6</ele>
        <time>2026-08-26T08:25:43Z</time>
      </trkpt>
      <trkpt lat="45.68593" lon="4.61929">
        <ele>396.6</ele>
        <time>2026-08-26T08:25:44Z</time>
      </trkpt>
      <trkpt lat="45.68594" lon="4.61924">
        <ele>396.6</ele>
        <time>2026-08-26T08:25:45Z</time>
      </trkpt>
      <trkpt lat="45.68593" lon="4.61918">
        <ele>396.8</ele>
        <time>2026-08-26T08:25:46Z</time>
      </trkpt>
      <trkpt lat="45.68593" lon="4.61912">
        <ele>396.8</ele>
        <time>2026-08-26T08:25:47Z</time>
      </trkpt>
      <trkpt lat="45.68594" lon="4.61906">
        <ele>396.8</ele>
        <time>2026-08-26T08:25:48Z</time>
      </trkpt>
      <trkpt lat="45.68594" lon="4.619">
        <ele>396.8</ele>
        <time>2026-08-26T08:25:49Z</time>
      </trkpt>
      <trkpt lat="45.68595" lon="4.61894">
        <ele>396.8</ele>
        <time>2026-08-26T08:25:50Z</time>
      </trkpt>
      <trkpt lat="45.68595" lon="4.61888">
        <ele>396.8</ele>
        <time>2026-08-26T08:25:51Z</time>
      </trkpt>
      <trkpt lat="45.68595" lon="4.61882">
        <ele>396.8</ele>
        <time>2026-08-26T08:25:52Z</time>
      </trkpt>
      <trkpt lat="45.68596" lon="4.61875">
        <ele>396.8</ele>
        <time>2026-08-26T08:25:53Z</time>
      </trkpt>
      <trkpt lat="45.68597" lon="4.61869">
        <ele>396.6</ele>
        <time>2026-08-26T08:25:54Z</time>
      </trkpt>
      <trkpt lat="45.68598" lon="4.61863">
        <ele>396.6</ele>
        <time>2026-08-26T08:25:55Z</time>
      </trkpt>
      <trkpt lat="45.68599" lon="4.61856">
        <ele>396.6</ele>
        <time>2026-08-26T08:25:56Z</time>
      </trkpt>
      <trkpt lat="45.68601" lon="4.6185">
        <ele>396.6</ele>
        <time>2026-08-26T08:25:57Z</time>
      </trkpt>
      <trkpt lat="45.68601" lon="4.61844">
        <ele>396.6</ele>
        <time>2026-08-26T08:25:58Z</time>
      </trkpt>
      <trkpt lat="45.68602" lon="4.61837">
        <ele>396.6</ele>
        <time>2026-08-26T08:25:59Z</time>
      </trkpt>
      <trkpt lat="45.68604" lon="4.61831">
        <ele>396.6</ele>
        <time>2026-08-26T08:26:00Z</time>
      </trkpt>
      <trkpt lat="45.68605" lon="4.61824">
        <ele>396.8</ele>
        <time>2026-08-26T08:26:01Z</time>
      </trkpt>
      <trkpt lat="45.68606" lon="4.61818">
        <ele>396.8</ele>
        <time>2026-08-26T08:26:02Z</time>
      </trkpt>
      <trkpt lat="45.68607" lon="4.61812">
        <ele>396.8</ele>
        <time>2026-08-26T08:26:03Z</time>
      </trkpt>
      <trkpt lat="45.68608" lon="4.61806">
        <ele>396.8</ele>
        <time>2026-08-26T08:26:04Z</time>
      </trkpt>
      <trkpt lat="45.6861" lon="4.618">
        <ele>396.8</ele>
        <time>2026-08-26T08:26:05Z</time>
      </trkpt>
      <trkpt lat="45.68611" lon="4.61794">
        <ele>396.8</ele>
        <time>2026-08-26T08:26:06Z</time>
      </trkpt>
      <trkpt lat="45.68613" lon="4.61789">
        <ele>397</ele>
        <time>2026-08-26T08:26:07Z</time>
      </trkpt>
      <trkpt lat="45.68615" lon="4.61784">
        <ele>397</ele>
        <time>2026-08-26T08:26:08Z</time>
      </trkpt>
      <trkpt lat="45.68618" lon="4.61779">
        <ele>397</ele>
        <time>2026-08-26T08:26:09Z</time>
      </trkpt>
      <trkpt lat="45.6862" lon="4.61774">
        <ele>397</ele>
        <time>2026-08-26T08:26:10Z</time>
      </trkpt>
      <trkpt lat="45.68623" lon="4.61769">
        <ele>397.2</ele>
        <time>2026-08-26T08:26:11Z</time>
      </trkpt>
      <trkpt lat="45.68626" lon="4.61765">
        <ele>397.2</ele>
        <time>2026-08-26T08:26:12Z</time>
      </trkpt>
      <trkpt lat="45.68629" lon="4.61761">
        <ele>397.4</ele>
        <time>2026-08-26T08:26:13Z</time>
      </trkpt>
      <trkpt lat="45.68632" lon="4.61757">
        <ele>397.4</ele>
        <time>2026-08-26T08:26:14Z</time>
      </trkpt>
      <trkpt lat="45.68635" lon="4.61753">
        <ele>397.6</ele>
        <time>2026-08-26T08:26:15Z</time>
      </trkpt>
      <trkpt lat="45.68638" lon="4.6175">
        <ele>397.6</ele>
        <time>2026-08-26T08:26:16Z</time>
      </trkpt>
      <trkpt lat="45.68642" lon="4.61747">
        <ele>397.8</ele>
        <time>2026-08-26T08:26:17Z</time>
      </trkpt>
      <trkpt lat="45.68645" lon="4.61743">
        <ele>398</ele>
        <time>2026-08-26T08:26:18Z</time>
      </trkpt>
      <trkpt lat="45.68648" lon="4.6174">
        <ele>398.2</ele>
        <time>2026-08-26T08:26:19Z</time>
      </trkpt>
      <trkpt lat="45.68651" lon="4.61737">
        <ele>398.4</ele>
        <time>2026-08-26T08:26:20Z</time>
      </trkpt>
      <trkpt lat="45.68654" lon="4.61734">
        <ele>398.4</ele>
        <time>2026-08-26T08:26:21Z</time>
      </trkpt>
      <trkpt lat="45.68657" lon="4.61731">
        <ele>398.6</ele>
        <time>2026-08-26T08:26:22Z</time>
      </trkpt>
      <trkpt lat="45.68659" lon="4.61727">
        <ele>399</ele>
        <time>2026-08-26T08:26:23Z</time>
      </trkpt>
      <trkpt lat="45.68662" lon="4.61724">
        <ele>399.2</ele>
        <time>2026-08-26T08:26:24Z</time>
      </trkpt>
      <trkpt lat="45.68664" lon="4.6172">
        <ele>399.4</ele>
        <time>2026-08-26T08:26:25Z</time>
      </trkpt>
      <trkpt lat="45.68666" lon="4.61717">
        <ele>399.6</ele>
        <time>2026-08-26T08:26:26Z</time>
      </trkpt>
      <trkpt lat="45.68667" lon="4.61713">
        <ele>400</ele>
        <time>2026-08-26T08:26:27Z</time>
      </trkpt>
      <trkpt lat="45.68669" lon="4.61709">
        <ele>400.2</ele>
        <time>2026-08-26T08:26:28Z</time>
      </trkpt>
      <trkpt lat="45.6867" lon="4.61704">
        <ele>400.4</ele>
        <time>2026-08-26T08:26:29Z</time>
      </trkpt>
      <trkpt lat="45.68671" lon="4.617">
        <ele>400.6</ele>
        <time>2026-08-26T08:26:30Z</time>
      </trkpt>
      <trkpt lat="45.68672" lon="4.61696">
        <ele>400.8</ele>
        <time>2026-08-26T08:26:31Z</time>
      </trkpt>
      <trkpt lat="45.68673" lon="4.61692">
        <ele>400.8</ele>
        <time>2026-08-26T08:26:32Z</time>
      </trkpt>
      <trkpt lat="45.68674" lon="4.61687">
        <ele>401</ele>
        <time>2026-08-26T08:26:33Z</time>
      </trkpt>
      <trkpt lat="45.68675" lon="4.61683">
        <ele>401.2</ele>
        <time>2026-08-26T08:26:34Z</time>
      </trkpt>
      <trkpt lat="45.68676" lon="4.61678">
        <ele>401.4</ele>
        <time>2026-08-26T08:26:35Z</time>
      </trkpt>
      <trkpt lat="45.68677" lon="4.61674">
        <ele>401.4</ele>
        <time>2026-08-26T08:26:36Z</time>
      </trkpt>
      <trkpt lat="45.68678" lon="4.61669">
        <ele>401.6</ele>
        <time>2026-08-26T08:26:37Z</time>
      </trkpt>
      <trkpt lat="45.68679" lon="4.61664">
        <ele>401.8</ele>
        <time>2026-08-26T08:26:38Z</time>
      </trkpt>
      <trkpt lat="45.6868" lon="4.6166">
        <ele>401.8</ele>
        <time>2026-08-26T08:26:39Z</time>
      </trkpt>
      <trkpt lat="45.68681" lon="4.61655">
        <ele>401.8</ele>
        <time>2026-08-26T08:26:40Z</time>
      </trkpt>
      <trkpt lat="45.68682" lon="4.6165">
        <ele>402</ele>
        <time>2026-08-26T08:26:41Z</time>
      </trkpt>
      <trkpt lat="45.68683" lon="4.61645">
        <ele>401.8</ele>
        <time>2026-08-26T08:26:42Z</time>
      </trkpt>
      <trkpt lat="45.68684" lon="4.61639">
        <ele>401.8</ele>
        <time>2026-08-26T08:26:43Z</time>
      </trkpt>
      <trkpt lat="45.68684" lon="4.61634">
        <ele>401.8</ele>
        <time>2026-08-26T08:26:44Z</time>
      </trkpt>
      <trkpt lat="45.68684" lon="4.61628">
        <ele>401.8</ele>
        <time>2026-08-26T08:26:45Z</time>
      </trkpt>
      <trkpt lat="45.68684" lon="4.61622">
        <ele>401.8</ele>
        <time>2026-08-26T08:26:46Z</time>
      </trkpt>
      <trkpt lat="45.68684" lon="4.61616">
        <ele>401.8</ele>
        <time>2026-08-26T08:26:47Z</time>
      </trkpt>
      <trkpt lat="45.68684" lon="4.61611">
        <ele>401.8</ele>
        <time>2026-08-26T08:26:48Z</time>
      </trkpt>
      <trkpt lat="45.68684" lon="4.61605">
        <ele>402</ele>
        <time>2026-08-26T08:26:49Z</time>
      </trkpt>
      <trkpt lat="45.68684" lon="4.61599">
        <ele>402</ele>
        <time>2026-08-26T08:26:50Z</time>
      </trkpt>
      <trkpt lat="45.68685" lon="4.61594">
        <ele>402.2</ele>
        <time>2026-08-26T08:26:51Z</time>
      </trkpt>
      <trkpt lat="45.68685" lon="4.61588">
        <ele>402.4</ele>
        <time>2026-08-26T08:26:52Z</time>
      </trkpt>
      <trkpt lat="45.68685" lon="4.61583">
        <ele>402.4</ele>
        <time>2026-08-26T08:26:53Z</time>
      </trkpt>
      <trkpt lat="45.68686" lon="4.61578">
        <ele>402.6</ele>
        <time>2026-08-26T08:26:54Z</time>
      </trkpt>
      <trkpt lat="45.68688" lon="4.61574">
        <ele>402.8</ele>
        <time>2026-08-26T08:26:55Z</time>
      </trkpt>
      <trkpt lat="45.68689" lon="4.61569">
        <ele>402.8</ele>
        <time>2026-08-26T08:26:56Z</time>
      </trkpt>
      <trkpt lat="45.6869" lon="4.61564">
        <ele>403</ele>
        <time>2026-08-26T08:26:57Z</time>
      </trkpt>
      <trkpt lat="45.68691" lon="4.61559">
        <ele>403.2</ele>
        <time>2026-08-26T08:26:58Z</time>
      </trkpt>
      <trkpt lat="45.68693" lon="4.61555">
        <ele>403.4</ele>
        <time>2026-08-26T08:26:59Z</time>
      </trkpt>
      <trkpt lat="45.68694" lon="4.6155">
        <ele>403.6</ele>
        <time>2026-08-26T08:27:00Z</time>
      </trkpt>
      <trkpt lat="45.68696" lon="4.61545">
        <ele>403.8</ele>
        <time>2026-08-26T08:27:01Z</time>
      </trkpt>
      <trkpt lat="45.68697" lon="4.61541">
        <ele>404</ele>
        <time>2026-08-26T08:27:02Z</time>
      </trkpt>
      <trkpt lat="45.68699" lon="4.61537">
        <ele>404.2</ele>
        <time>2026-08-26T08:27:03Z</time>
      </trkpt>
      <trkpt lat="45.687" lon="4.61532">
        <ele>404.2</ele>
        <time>2026-08-26T08:27:04Z</time>
      </trkpt>
      <trkpt lat="45.68701" lon="4.61527">
        <ele>404.2</ele>
        <time>2026-08-26T08:27:05Z</time>
      </trkpt>
      <trkpt lat="45.68702" lon="4.61522">
        <ele>404.4</ele>
        <time>2026-08-26T08:27:06Z</time>
      </trkpt>
      <trkpt lat="45.68703" lon="4.61517">
        <ele>404.6</ele>
        <time>2026-08-26T08:27:07Z</time>
      </trkpt>
      <trkpt lat="45.68705" lon="4.61512">
        <ele>404.6</ele>
        <time>2026-08-26T08:27:08Z</time>
      </trkpt>
      <trkpt lat="45.68706" lon="4.61508">
        <ele>404.6</ele>
        <time>2026-08-26T08:27:09Z</time>
      </trkpt>
      <trkpt lat="45.68707" lon="4.61503">
        <ele>404.8</ele>
        <time>2026-08-26T08:27:10Z</time>
      </trkpt>
      <trkpt lat="45.68707" lon="4.61498">
        <ele>405</ele>
        <time>2026-08-26T08:27:11Z</time>
      </trkpt>
      <trkpt lat="45.68709" lon="4.61493">
        <ele>405</ele>
        <time>2026-08-26T08:27:12Z</time>
      </trkpt>
      <trkpt lat="45.6871" lon="4.61489">
        <ele>405.2</ele>
        <time>2026-08-26T08:27:13Z</time>
      </trkpt>
      <trkpt lat="45.6871" lon="4.61484">
        <ele>405.4</ele>
        <time>2026-08-26T08:27:14Z</time>
      </trkpt>
      <trkpt lat="45.68711" lon="4.6148">
        <ele>405.4</ele>
        <time>2026-08-26T08:27:15Z</time>
      </trkpt>
      <trkpt lat="45.68712" lon="4.61475">
        <ele>405.6</ele>
        <time>2026-08-26T08:27:16Z</time>
      </trkpt>
      <trkpt lat="45.68712" lon="4.6147">
        <ele>405.8</ele>
        <time>2026-08-26T08:27:17Z</time>
      </trkpt>
      <trkpt lat="45.68713" lon="4.61466">
        <ele>406</ele>
        <time>2026-08-26T08:27:18Z</time>
      </trkpt>
      <trkpt lat="45.68714" lon="4.61461">
        <ele>406.4</ele>
        <time>2026-08-26T08:27:19Z</time>
      </trkpt>
      <trkpt lat="45.68715" lon="4.61457">
        <ele>406.6</ele>
        <time>2026-08-26T08:27:20Z</time>
      </trkpt>
      <trkpt lat="45.68716" lon="4.61452">
        <ele>406.6</ele>
        <time>2026-08-26T08:27:21Z</time>
      </trkpt>
      <trkpt lat="45.68716" lon="4.61448">
        <ele>406.8</ele>
        <time>2026-08-26T08:27:22Z</time>
      </trkpt>
      <trkpt lat="45.68717" lon="4.61443">
        <ele>406.8</ele>
        <time>2026-08-26T08:27:23Z</time>
      </trkpt>
      <trkpt lat="45.68718" lon="4.61438">
        <ele>407</ele>
        <time>2026-08-26T08:27:24Z</time>
      </trkpt>
      <trkpt lat="45.68719" lon="4.61433">
        <ele>407.2</ele>
        <time>2026-08-26T08:27:25Z</time>
      </trkpt>
      <trkpt lat="45.6872" lon="4.61428">
        <ele>407.4</ele>
        <time>2026-08-26T08:27:26Z</time>
      </trkpt>
      <trkpt lat="45.6872" lon="4.61424">
        <ele>407.6</ele>
        <time>2026-08-26T08:27:27Z</time>
      </trkpt>
      <trkpt lat="45.68722" lon="4.6142">
        <ele>407.8</ele>
        <time>2026-08-26T08:27:28Z</time>
      </trkpt>
      <trkpt lat="45.68723" lon="4.61416">
        <ele>408</ele>
        <time>2026-08-26T08:27:29Z</time>
      </trkpt>
      <trkpt lat="45.68724" lon="4.61412">
        <ele>408.2</ele>
        <time>2026-08-26T08:27:30Z</time>
      </trkpt>
      <trkpt lat="45.68725" lon="4.61408">
        <ele>408.4</ele>
        <time>2026-08-26T08:27:31Z</time>
      </trkpt>
      <trkpt lat="45.68726" lon="4.61404">
        <ele>408.6</ele>
        <time>2026-08-26T08:27:32Z</time>
      </trkpt>
      <trkpt lat="45.68726" lon="4.61399">
        <ele>408.6</ele>
        <time>2026-08-26T08:27:33Z</time>
      </trkpt>
      <trkpt lat="45.68727" lon="4.61395">
        <ele>408.8</ele>
        <time>2026-08-26T08:27:34Z</time>
      </trkpt>
      <trkpt lat="45.68727" lon="4.61391">
        <ele>409</ele>
        <time>2026-08-26T08:27:35Z</time>
      </trkpt>
      <trkpt lat="45.68728" lon="4.61387">
        <ele>409</ele>
        <time>2026-08-26T08:27:36Z</time>
      </trkpt>
      <trkpt lat="45.68728" lon="4.61382">
        <ele>409.2</ele>
        <time>2026-08-26T08:27:37Z</time>
      </trkpt>
      <trkpt lat="45.68728" lon="4.61378">
        <ele>409.4</ele>
        <time>2026-08-26T08:27:38Z</time>
      </trkpt>
      <trkpt lat="45.68728" lon="4.61374">
        <ele>409.6</ele>
        <time>2026-08-26T08:27:39Z</time>
      </trkpt>
      <trkpt lat="45.68728" lon="4.61369">
        <ele>409.6</ele>
        <time>2026-08-26T08:27:40Z</time>
      </trkpt>
      <trkpt lat="45.68728" lon="4.61364">
        <ele>409.8</ele>
        <time>2026-08-26T08:27:41Z</time>
      </trkpt>
      <trkpt lat="45.68729" lon="4.6136">
        <ele>409.8</ele>
        <time>2026-08-26T08:27:42Z</time>
      </trkpt>
      <trkpt lat="45.68729" lon="4.61356">
        <ele>410</ele>
        <time>2026-08-26T08:27:43Z</time>
      </trkpt>
      <trkpt lat="45.68729" lon="4.61351">
        <ele>410.2</ele>
        <time>2026-08-26T08:27:44Z</time>
      </trkpt>
      <trkpt lat="45.68729" lon="4.61347">
        <ele>410.4</ele>
        <time>2026-08-26T08:27:45Z</time>
      </trkpt>
      <trkpt lat="45.68729" lon="4.61342">
        <ele>410.4</ele>
        <time>2026-08-26T08:27:46Z</time>
      </trkpt>
      <trkpt lat="45.68728" lon="4.61338">
        <ele>410.6</ele>
        <time>2026-08-26T08:27:47Z</time>
      </trkpt>
      <trkpt lat="45.68728" lon="4.61334">
        <ele>410.6</ele>
        <time>2026-08-26T08:27:48Z</time>
      </trkpt>
      <trkpt lat="45.68728" lon="4.61329">
        <ele>410.6</ele>
        <time>2026-08-26T08:27:49Z</time>
      </trkpt>
      <trkpt lat="45.68728" lon="4.61325">
        <ele>410.8</ele>
        <time>2026-08-26T08:27:50Z</time>
      </trkpt>
      <trkpt lat="45.68728" lon="4.6132">
        <ele>410.8</ele>
        <time>2026-08-26T08:27:51Z</time>
      </trkpt>
      <trkpt lat="45.68728" lon="4.61316">
        <ele>411</ele>
        <time>2026-08-26T08:27:52Z</time>
      </trkpt>
      <trkpt lat="45.68728" lon="4.61311">
        <ele>411</ele>
        <time>2026-08-26T08:27:53Z</time>
      </trkpt>
      <trkpt lat="45.68728" lon="4.61306">
        <ele>411.2</ele>
        <time>2026-08-26T08:27:54Z</time>
      </trkpt>
      <trkpt lat="45.68727" lon="4.61301">
        <ele>411.4</ele>
        <time>2026-08-26T08:27:55Z</time>
      </trkpt>
      <trkpt lat="45.68727" lon="4.61296">
        <ele>411.4</ele>
        <time>2026-08-26T08:27:56Z</time>
      </trkpt>
      <trkpt lat="45.68727" lon="4.61291">
        <ele>411.6</ele>
        <time>2026-08-26T08:27:57Z</time>
      </trkpt>
      <trkpt lat="45.68727" lon="4.61286">
        <ele>411.6</ele>
        <time>2026-08-26T08:27:58Z</time>
      </trkpt>
      <trkpt lat="45.68727" lon="4.6128">
        <ele>411.8</ele>
        <time>2026-08-26T08:27:59Z</time>
      </trkpt>
      <trkpt lat="45.68726" lon="4.61275">
        <ele>411.8</ele>
        <time>2026-08-26T08:28:00Z</time>
      </trkpt>
      <trkpt lat="45.68726" lon="4.6127">
        <ele>412</ele>
        <time>2026-08-26T08:28:01Z</time>
      </trkpt>
      <trkpt lat="45.68726" lon="4.61265">
        <ele>412</ele>
        <time>2026-08-26T08:28:02Z</time>
      </trkpt>
      <trkpt lat="45.68725" lon="4.61259">
        <ele>412</ele>
        <time>2026-08-26T08:28:03Z</time>
      </trkpt>
      <trkpt lat="45.68725" lon="4.61254">
        <ele>412.2</ele>
        <time>2026-08-26T08:28:04Z</time>
      </trkpt>
      <trkpt lat="45.68725" lon="4.61249">
        <ele>412.2</ele>
        <time>2026-08-26T08:28:05Z</time>
      </trkpt>
      <trkpt lat="45.68724" lon="4.61244">
        <ele>412.2</ele>
        <time>2026-08-26T08:28:06Z</time>
      </trkpt>
      <trkpt lat="45.68724" lon="4.61238">
        <ele>412.2</ele>
        <time>2026-08-26T08:28:07Z</time>
      </trkpt>
      <trkpt lat="45.68723" lon="4.61233">
        <ele>412.2</ele>
        <time>2026-08-26T08:28:08Z</time>
      </trkpt>
      <trkpt lat="45.68723" lon="4.61227">
        <ele>412.2</ele>
        <time>2026-08-26T08:28:09Z</time>
      </trkpt>
      <trkpt lat="45.68722" lon="4.61222">
        <ele>412.2</ele>
        <time>2026-08-26T08:28:10Z</time>
      </trkpt>
      <trkpt lat="45.68722" lon="4.61217">
        <ele>412.2</ele>
        <time>2026-08-26T08:28:11Z</time>
      </trkpt>
      <trkpt lat="45.68721" lon="4.61211">
        <ele>412.2</ele>
        <time>2026-08-26T08:28:12Z</time>
      </trkpt>
      <trkpt lat="45.6872" lon="4.61206">
        <ele>412.4</ele>
        <time>2026-08-26T08:28:13Z</time>
      </trkpt>
      <trkpt lat="45.6872" lon="4.61201">
        <ele>412.4</ele>
        <time>2026-08-26T08:28:14Z</time>
      </trkpt>
      <trkpt lat="45.68719" lon="4.61196">
        <ele>412.4</ele>
        <time>2026-08-26T08:28:15Z</time>
      </trkpt>
      <trkpt lat="45.68719" lon="4.61191">
        <ele>412.6</ele>
        <time>2026-08-26T08:28:16Z</time>
      </trkpt>
      <trkpt lat="45.6872" lon="4.61185">
        <ele>412.6</ele>
        <time>2026-08-26T08:28:17Z</time>
      </trkpt>
      <trkpt lat="45.6872" lon="4.6118">
        <ele>412.6</ele>
        <time>2026-08-26T08:28:18Z</time>
      </trkpt>
      <trkpt lat="45.6872" lon="4.61175">
        <ele>412.8</ele>
        <time>2026-08-26T08:28:19Z</time>
      </trkpt>
      <trkpt lat="45.6872" lon="4.6117">
        <ele>413</ele>
        <time>2026-08-26T08:28:20Z</time>
      </trkpt>
      <trkpt lat="45.68721" lon="4.61165">
        <ele>413</ele>
        <time>2026-08-26T08:28:21Z</time>
      </trkpt>
      <trkpt lat="45.68721" lon="4.6116">
        <ele>413.2</ele>
        <time>2026-08-26T08:28:22Z</time>
      </trkpt>
      <trkpt lat="45.68722" lon="4.61155">
        <ele>413.4</ele>
        <time>2026-08-26T08:28:23Z</time>
      </trkpt>
      <trkpt lat="45.68723" lon="4.6115">
        <ele>413.6</ele>
        <time>2026-08-26T08:28:24Z</time>
      </trkpt>
      <trkpt lat="45.68724" lon="4.61145">
        <ele>413.6</ele>
        <time>2026-08-26T08:28:25Z</time>
      </trkpt>
      <trkpt lat="45.68725" lon="4.6114">
        <ele>413.8</ele>
        <time>2026-08-26T08:28:26Z</time>
      </trkpt>
      <trkpt lat="45.68726" lon="4.61135">
        <ele>413.8</ele>
        <time>2026-08-26T08:28:27Z</time>
      </trkpt>
      <trkpt lat="45.68727" lon="4.61131">
        <ele>414</ele>
        <time>2026-08-26T08:28:28Z</time>
      </trkpt>
      <trkpt lat="45.68728" lon="4.61126">
        <ele>414</ele>
        <time>2026-08-26T08:28:29Z</time>
      </trkpt>
      <trkpt lat="45.68729" lon="4.61121">
        <ele>414.2</ele>
        <time>2026-08-26T08:28:30Z</time>
      </trkpt>
      <trkpt lat="45.6873" lon="4.61116">
        <ele>414.2</ele>
        <time>2026-08-26T08:28:31Z</time>
      </trkpt>
      <trkpt lat="45.68732" lon="4.61111">
        <ele>414.4</ele>
        <time>2026-08-26T08:28:32Z</time>
      </trkpt>
      <trkpt lat="45.68733" lon="4.61107">
        <ele>414.6</ele>
        <time>2026-08-26T08:28:33Z</time>
      </trkpt>
      <trkpt lat="45.68735" lon="4.61102">
        <ele>414.6</ele>
        <time>2026-08-26T08:28:34Z</time>
      </trkpt>
      <trkpt lat="45.68737" lon="4.61098">
        <ele>414.8</ele>
        <time>2026-08-26T08:28:35Z</time>
      </trkpt>
      <trkpt lat="45.68739" lon="4.61093">
        <ele>415</ele>
        <time>2026-08-26T08:28:36Z</time>
      </trkpt>
      <trkpt lat="45.68741" lon="4.61089">
        <ele>415.2</ele>
        <time>2026-08-26T08:28:37Z</time>
      </trkpt>
      <trkpt lat="45.68743" lon="4.61084">
        <ele>415.4</ele>
        <time>2026-08-26T08:28:38Z</time>
      </trkpt>
      <trkpt lat="45.68746" lon="4.6108">
        <ele>415.4</ele>
        <time>2026-08-26T08:28:39Z</time>
      </trkpt>
      <trkpt lat="45.68749" lon="4.61076">
        <ele>415.6</ele>
        <time>2026-08-26T08:28:40Z</time>
      </trkpt>
      <trkpt lat="45.68752" lon="4.61072">
        <ele>415.6</ele>
        <time>2026-08-26T08:28:41Z</time>
      </trkpt>
      <trkpt lat="45.68755" lon="4.61068">
        <ele>415.6</ele>
        <time>2026-08-26T08:28:42Z</time>
      </trkpt>
      <trkpt lat="45.68759" lon="4.61065">
        <ele>415.8</ele>
        <time>2026-08-26T08:28:43Z</time>
      </trkpt>
      <trkpt lat="45.68762" lon="4.61062">
        <ele>415.8</ele>
        <time>2026-08-26T08:28:44Z</time>
      </trkpt>
      <trkpt lat="45.68765" lon="4.6106">
        <ele>415.8</ele>
        <time>2026-08-26T08:28:45Z</time>
      </trkpt>
      <trkpt lat="45.68769" lon="4.61057">
        <ele>415.8</ele>
        <time>2026-08-26T08:28:46Z</time>
      </trkpt>
      <trkpt lat="45.68773" lon="4.61055">
        <ele>416</ele>
        <time>2026-08-26T08:28:47Z</time>
      </trkpt>
      <trkpt lat="45.68776" lon="4.61053">
        <ele>416</ele>
        <time>2026-08-26T08:28:48Z</time>
      </trkpt>
      <trkpt lat="45.6878" lon="4.61051">
        <ele>416.2</ele>
        <time>2026-08-26T08:28:49Z</time>
      </trkpt>
      <trkpt lat="45.68783" lon="4.61048">
        <ele>416.4</ele>
        <time>2026-08-26T08:28:50Z</time>
      </trkpt>
      <trkpt lat="45.68786" lon="4.61047">
        <ele>416.4</ele>
        <time>2026-08-26T08:28:51Z</time>
      </trkpt>
      <trkpt lat="45.68789" lon="4.61045">
        <ele>416.4</ele>
        <time>2026-08-26T08:28:52Z</time>
      </trkpt>
      <trkpt lat="45.68792" lon="4.61043">
        <ele>416.6</ele>
        <time>2026-08-26T08:28:53Z</time>
      </trkpt>
      <trkpt lat="45.68795" lon="4.6104">
        <ele>416.6</ele>
        <time>2026-08-26T08:28:54Z</time>
      </trkpt>
      <trkpt lat="45.68799" lon="4.61038">
        <ele>416.6</ele>
        <time>2026-08-26T08:28:55Z</time>
      </trkpt>
      <trkpt lat="45.68802" lon="4.61035">
        <ele>416.4</ele>
        <time>2026-08-26T08:28:56Z</time>
      </trkpt>
      <trkpt lat="45.68807" lon="4.61032">
        <ele>416.4</ele>
        <time>2026-08-26T08:28:57Z</time>
      </trkpt>
      <trkpt lat="45.68811" lon="4.61028">
        <ele>416.2</ele>
        <time>2026-08-26T08:28:58Z</time>
      </trkpt>
      <trkpt lat="45.68814" lon="4.61023">
        <ele>416</ele>
        <time>2026-08-26T08:28:59Z</time>
      </trkpt>
      <trkpt lat="45.68818" lon="4.61018">
        <ele>416</ele>
        <time>2026-08-26T08:29:00Z</time>
      </trkpt>
      <trkpt lat="45.68821" lon="4.61013">
        <ele>416</ele>
        <time>2026-08-26T08:29:01Z</time>
      </trkpt>
      <trkpt lat="45.68824" lon="4.61008">
        <ele>416</ele>
        <time>2026-08-26T08:29:02Z</time>
      </trkpt>
      <trkpt lat="45.68827" lon="4.61003">
        <ele>416</ele>
        <time>2026-08-26T08:29:03Z</time>
      </trkpt>
      <trkpt lat="45.6883" lon="4.60999">
        <ele>416.2</ele>
        <time>2026-08-26T08:29:04Z</time>
      </trkpt>
      <trkpt lat="45.68832" lon="4.60994">
        <ele>416.4</ele>
        <time>2026-08-26T08:29:05Z</time>
      </trkpt>
      <trkpt lat="45.68834" lon="4.6099">
        <ele>416.6</ele>
        <time>2026-08-26T08:29:06Z</time>
      </trkpt>
      <trkpt lat="45.68836" lon="4.60987">
        <ele>417</ele>
        <time>2026-08-26T08:29:07Z</time>
      </trkpt>
      <trkpt lat="45.68838" lon="4.60984">
        <ele>417</ele>
        <time>2026-08-26T08:29:08Z</time>
      </trkpt>
      <trkpt lat="45.6884" lon="4.6098">
        <ele>417.2</ele>
        <time>2026-08-26T08:29:09Z</time>
      </trkpt>
      <trkpt lat="45.68841" lon="4.60976">
        <ele>417.4</ele>
        <time>2026-08-26T08:29:10Z</time>
      </trkpt>
      <trkpt lat="45.68843" lon="4.60972">
        <ele>417.4</ele>
        <time>2026-08-26T08:29:11Z</time>
      </trkpt>
      <trkpt lat="45.68845" lon="4.60969">
        <ele>417.6</ele>
        <time>2026-08-26T08:29:12Z</time>
      </trkpt>
      <trkpt lat="45.68847" lon="4.60966">
        <ele>417.8</ele>
        <time>2026-08-26T08:29:13Z</time>
      </trkpt>
      <trkpt lat="45.68848" lon="4.60962">
        <ele>418</ele>
        <time>2026-08-26T08:29:14Z</time>
      </trkpt>
      <trkpt lat="45.68849" lon="4.60959">
        <ele>418</ele>
        <time>2026-08-26T08:29:15Z</time>
      </trkpt>
      <trkpt lat="45.68851" lon="4.60956">
        <ele>418.2</ele>
        <time>2026-08-26T08:29:16Z</time>
      </trkpt>
      <trkpt lat="45.68852" lon="4.60952">
        <ele>418.4</ele>
        <time>2026-08-26T08:29:17Z</time>
      </trkpt>
      <trkpt lat="45.68854" lon="4.60948">
        <ele>418.4</ele>
        <time>2026-08-26T08:29:18Z</time>
      </trkpt>
      <trkpt lat="45.68856" lon="4.60944">
        <ele>418.6</ele>
        <time>2026-08-26T08:29:19Z</time>
      </trkpt>
      <trkpt lat="45.68857" lon="4.60941">
        <ele>418.6</ele>
        <time>2026-08-26T08:29:20Z</time>
      </trkpt>
      <trkpt lat="45.68859" lon="4.60936">
        <ele>418.8</ele>
        <time>2026-08-26T08:29:21Z</time>
      </trkpt>
      <trkpt lat="45.68861" lon="4.60931">
        <ele>419</ele>
        <time>2026-08-26T08:29:22Z</time>
      </trkpt>
      <trkpt lat="45.68861" lon="4.60926">
        <ele>419</ele>
        <time>2026-08-26T08:29:23Z</time>
      </trkpt>
      <trkpt lat="45.68861" lon="4.60922">
        <ele>419.2</ele>
        <time>2026-08-26T08:29:24Z</time>
      </trkpt>
      <trkpt lat="45.68861" lon="4.60917">
        <ele>419.4</ele>
        <time>2026-08-26T08:29:25Z</time>
      </trkpt>
      <trkpt lat="45.68861" lon="4.60913">
        <ele>419.6</ele>
        <time>2026-08-26T08:29:26Z</time>
      </trkpt>
      <trkpt lat="45.68861" lon="4.6091">
        <ele>419.8</ele>
        <time>2026-08-26T08:29:27Z</time>
      </trkpt>
      <trkpt lat="45.68859" lon="4.60906">
        <ele>420</ele>
        <time>2026-08-26T08:29:28Z</time>
      </trkpt>
      <trkpt lat="45.68859" lon="4.60903">
        <ele>420.2</ele>
        <time>2026-08-26T08:29:29Z</time>
      </trkpt>
      <trkpt lat="45.68858" lon="4.609">
        <ele>420.4</ele>
        <time>2026-08-26T08:29:30Z</time>
      </trkpt>
      <trkpt lat="45.68857" lon="4.60897">
        <ele>420.6</ele>
        <time>2026-08-26T08:29:31Z</time>
      </trkpt>
      <trkpt lat="45.68857" lon="4.60893">
        <ele>420.8</ele>
        <time>2026-08-26T08:29:32Z</time>
      </trkpt>
      <trkpt lat="45.68856" lon="4.6089">
        <ele>421</ele>
        <time>2026-08-26T08:29:33Z</time>
      </trkpt>
      <trkpt lat="45.68856" lon="4.60886">
        <ele>421.2</ele>
        <time>2026-08-26T08:29:34Z</time>
      </trkpt>
      <trkpt lat="45.68857" lon="4.60882">
        <ele>421.4</ele>
        <time>2026-08-26T08:29:35Z</time>
      </trkpt>
      <trkpt lat="45.68858" lon="4.60878">
        <ele>421.8</ele>
        <time>2026-08-26T08:29:36Z</time>
      </trkpt>
      <trkpt lat="45.68859" lon="4.60875">
        <ele>422</ele>
        <time>2026-08-26T08:29:37Z</time>
      </trkpt>
      <trkpt lat="45.6886" lon="4.60871">
        <ele>422.2</ele>
        <time>2026-08-26T08:29:38Z</time>
      </trkpt>
      <trkpt lat="45.68861" lon="4.60868">
        <ele>422.4</ele>
        <time>2026-08-26T08:29:39Z</time>
      </trkpt>
      <trkpt lat="45.68862" lon="4.60865">
        <ele>422.6</ele>
        <time>2026-08-26T08:29:40Z</time>
      </trkpt>
      <trkpt lat="45.68863" lon="4.60864">
        <ele>422.8</ele>
        <time>2026-08-26T08:29:41Z</time>
      </trkpt>
      <trkpt lat="45.68864" lon="4.60862">
        <ele>423</ele>
        <time>2026-08-26T08:29:42Z</time>
      </trkpt>
      <trkpt lat="45.68865" lon="4.6086">
        <ele>423.4</ele>
        <time>2026-08-26T08:29:43Z</time>
      </trkpt>
      <trkpt lat="45.68867" lon="4.60858">
        <ele>423.6</ele>
        <time>2026-08-26T08:29:44Z</time>
      </trkpt>
      <trkpt lat="45.68868" lon="4.60856">
        <ele>423.8</ele>
        <time>2026-08-26T08:29:45Z</time>
      </trkpt>
      <trkpt lat="45.68869" lon="4.60854">
        <ele>424</ele>
        <time>2026-08-26T08:29:46Z</time>
      </trkpt>
      <trkpt lat="45.68871" lon="4.60853">
        <ele>424.2</ele>
        <time>2026-08-26T08:29:47Z</time>
      </trkpt>
      <trkpt lat="45.68872" lon="4.60852">
        <ele>424.6</ele>
        <time>2026-08-26T08:29:48Z</time>
      </trkpt>
      <trkpt lat="45.68874" lon="4.60851">
        <ele>424.8</ele>
        <time>2026-08-26T08:29:49Z</time>
      </trkpt>
      <trkpt lat="45.68876" lon="4.6085">
        <ele>425</ele>
        <time>2026-08-26T08:29:50Z</time>
      </trkpt>
      <trkpt lat="45.68877" lon="4.6085">
        <ele>425.2</ele>
        <time>2026-08-26T08:29:51Z</time>
      </trkpt>
      <trkpt lat="45.68879" lon="4.60849">
        <ele>425.6</ele>
        <time>2026-08-26T08:29:52Z</time>
      </trkpt>
      <trkpt lat="45.6888" lon="4.60848">
        <ele>425.8</ele>
        <time>2026-08-26T08:29:53Z</time>
      </trkpt>
      <trkpt lat="45.68882" lon="4.60847">
        <ele>426</ele>
        <time>2026-08-26T08:29:54Z</time>
      </trkpt>
      <trkpt lat="45.68884" lon="4.60846">
        <ele>426.2</ele>
        <time>2026-08-26T08:29:55Z</time>
      </trkpt>
      <trkpt lat="45.68886" lon="4.60845">
        <ele>426.6</ele>
        <time>2026-08-26T08:29:56Z</time>
      </trkpt>
      <trkpt lat="45.68887" lon="4.60844">
        <ele>426.8</ele>
        <time>2026-08-26T08:29:57Z</time>
      </trkpt>
      <trkpt lat="45.68889" lon="4.60843">
        <ele>427</ele>
        <time>2026-08-26T08:29:58Z</time>
      </trkpt>
      <trkpt lat="45.68891" lon="4.60843">
        <ele>427.2</ele>
        <time>2026-08-26T08:29:59Z</time>
      </trkpt>
      <trkpt lat="45.68894" lon="4.60842">
        <ele>427.4</ele>
        <time>2026-08-26T08:30:00Z</time>
      </trkpt>
      <trkpt lat="45.68896" lon="4.6084">
        <ele>427.6</ele>
        <time>2026-08-26T08:30:01Z</time>
      </trkpt>
      <trkpt lat="45.68897" lon="4.60838">
        <ele>427.8</ele>
        <time>2026-08-26T08:30:02Z</time>
      </trkpt>
      <trkpt lat="45.68899" lon="4.60837">
        <ele>428</ele>
        <time>2026-08-26T08:30:03Z</time>
      </trkpt>
      <trkpt lat="45.68901" lon="4.60835">
        <ele>428.2</ele>
        <time>2026-08-26T08:30:04Z</time>
      </trkpt>
      <trkpt lat="45.68903" lon="4.60834">
        <ele>428.4</ele>
        <time>2026-08-26T08:30:05Z</time>
      </trkpt>
      <trkpt lat="45.68906" lon="4.60832">
        <ele>428.4</ele>
        <time>2026-08-26T08:30:06Z</time>
      </trkpt>
      <trkpt lat="45.68908" lon="4.60829">
        <ele>428.6</ele>
        <time>2026-08-26T08:30:07Z</time>
      </trkpt>
      <trkpt lat="45.68911" lon="4.60826">
        <ele>428.8</ele>
        <time>2026-08-26T08:30:08Z</time>
      </trkpt>
      <trkpt lat="45.68913" lon="4.60823">
        <ele>429</ele>
        <time>2026-08-26T08:30:09Z</time>
      </trkpt>
      <trkpt lat="45.68916" lon="4.6082">
        <ele>429</ele>
        <time>2026-08-26T08:30:10Z</time>
      </trkpt>
      <trkpt lat="45.68919" lon="4.60816">
        <ele>429.2</ele>
        <time>2026-08-26T08:30:11Z</time>
      </trkpt>
      <trkpt lat="45.68921" lon="4.60813">
        <ele>429.4</ele>
        <time>2026-08-26T08:30:12Z</time>
      </trkpt>
      <trkpt lat="45.68923" lon="4.6081">
        <ele>429.4</ele>
        <time>2026-08-26T08:30:13Z</time>
      </trkpt>
      <trkpt lat="45.68924" lon="4.60806">
        <ele>429.6</ele>
        <time>2026-08-26T08:30:14Z</time>
      </trkpt>
      <trkpt lat="45.68926" lon="4.60802">
        <ele>429.8</ele>
        <time>2026-08-26T08:30:15Z</time>
      </trkpt>
      <trkpt lat="45.68928" lon="4.60799">
        <ele>430</ele>
        <time>2026-08-26T08:30:16Z</time>
      </trkpt>
      <trkpt lat="45.68929" lon="4.60794">
        <ele>430</ele>
        <time>2026-08-26T08:30:17Z</time>
      </trkpt>
      <trkpt lat="45.6893" lon="4.6079">
        <ele>430.2</ele>
        <time>2026-08-26T08:30:18Z</time>
      </trkpt>
      <trkpt lat="45.6893" lon="4.60785">
        <ele>430.2</ele>
        <time>2026-08-26T08:30:19Z</time>
      </trkpt>
      <trkpt lat="45.68931" lon="4.60781">
        <ele>430.4</ele>
        <time>2026-08-26T08:30:20Z</time>
      </trkpt>
      <trkpt lat="45.68931" lon="4.60777">
        <ele>430.4</ele>
        <time>2026-08-26T08:30:21Z</time>
      </trkpt>
      <trkpt lat="45.6893" lon="4.60773">
        <ele>430.6</ele>
        <time>2026-08-26T08:30:22Z</time>
      </trkpt>
      <trkpt lat="45.68929" lon="4.6077">
        <ele>430.8</ele>
        <time>2026-08-26T08:30:23Z</time>
      </trkpt>
      <trkpt lat="45.68929" lon="4.60766">
        <ele>431</ele>
        <time>2026-08-26T08:30:24Z</time>
      </trkpt>
      <trkpt lat="45.68928" lon="4.60762">
        <ele>431.2</ele>
        <time>2026-08-26T08:30:25Z</time>
      </trkpt>
      <trkpt lat="45.68926" lon="4.60759">
        <ele>431.4</ele>
        <time>2026-08-26T08:30:26Z</time>
      </trkpt>
      <trkpt lat="45.68925" lon="4.60756">
        <ele>431.6</ele>
        <time>2026-08-26T08:30:27Z</time>
      </trkpt>
      <trkpt lat="45.68923" lon="4.60754">
        <ele>431.8</ele>
        <time>2026-08-26T08:30:28Z</time>
      </trkpt>
      <trkpt lat="45.68921" lon="4.60752">
        <ele>431.8</ele>
        <time>2026-08-26T08:30:29Z</time>
      </trkpt>
      <trkpt lat="45.68919" lon="4.6075">
        <ele>432</ele>
        <time>2026-08-26T08:30:30Z</time>
      </trkpt>
      <trkpt lat="45.68918" lon="4.60747">
        <ele>432.2</ele>
        <time>2026-08-26T08:30:31Z</time>
      </trkpt>
      <trkpt lat="45.68916" lon="4.60745">
        <ele>432.4</ele>
        <time>2026-08-26T08:30:32Z</time>
      </trkpt>
      <trkpt lat="45.68915" lon="4.60743">
        <ele>432.4</ele>
        <time>2026-08-26T08:30:33Z</time>
      </trkpt>
      <trkpt lat="45.68913" lon="4.6074">
        <ele>432.6</ele>
        <time>2026-08-26T08:30:34Z</time>
      </trkpt>
      <trkpt lat="45.68912" lon="4.60737">
        <ele>432.8</ele>
        <time>2026-08-26T08:30:35Z</time>
      </trkpt>
      <trkpt lat="45.68911" lon="4.60734">
        <ele>433</ele>
        <time>2026-08-26T08:30:36Z</time>
      </trkpt>
      <trkpt lat="45.6891" lon="4.6073">
        <ele>433.2</ele>
        <time>2026-08-26T08:30:37Z</time>
      </trkpt>
      <trkpt lat="45.68909" lon="4.60727">
        <ele>433.4</ele>
        <time>2026-08-26T08:30:38Z</time>
      </trkpt>
      <trkpt lat="45.6891" lon="4.60723">
        <ele>433.4</ele>
        <time>2026-08-26T08:30:39Z</time>
      </trkpt>
      <trkpt lat="45.68911" lon="4.6072">
        <ele>433.6</ele>
        <time>2026-08-26T08:30:40Z</time>
      </trkpt>
      <trkpt lat="45.68912" lon="4.60716">
        <ele>433.8</ele>
        <time>2026-08-26T08:30:41Z</time>
      </trkpt>
      <trkpt lat="45.68913" lon="4.60713">
        <ele>433.8</ele>
        <time>2026-08-26T08:30:42Z</time>
      </trkpt>
      <trkpt lat="45.68915" lon="4.6071">
        <ele>434</ele>
        <time>2026-08-26T08:30:43Z</time>
      </trkpt>
      <trkpt lat="45.68917" lon="4.60708">
        <ele>434.2</ele>
        <time>2026-08-26T08:30:44Z</time>
      </trkpt>
      <trkpt lat="45.68918" lon="4.60707">
        <ele>434.2</ele>
        <time>2026-08-26T08:30:45Z</time>
      </trkpt>
      <trkpt lat="45.68921" lon="4.60706">
        <ele>434.4</ele>
        <time>2026-08-26T08:30:46Z</time>
      </trkpt>
      <trkpt lat="45.68923" lon="4.60705">
        <ele>434.6</ele>
        <time>2026-08-26T08:30:47Z</time>
      </trkpt>
      <trkpt lat="45.68925" lon="4.60704">
        <ele>434.6</ele>
        <time>2026-08-26T08:30:48Z</time>
      </trkpt>
      <trkpt lat="45.68928" lon="4.60704">
        <ele>434.8</ele>
        <time>2026-08-26T08:30:49Z</time>
      </trkpt>
      <trkpt lat="45.6893" lon="4.60704">
        <ele>435</ele>
        <time>2026-08-26T08:30:50Z</time>
      </trkpt>
      <trkpt lat="45.68932" lon="4.60704">
        <ele>435.2</ele>
        <time>2026-08-26T08:30:51Z</time>
      </trkpt>
      <trkpt lat="45.68935" lon="4.60704">
        <ele>435.4</ele>
        <time>2026-08-26T08:30:52Z</time>
      </trkpt>
      <trkpt lat="45.68937" lon="4.60703">
        <ele>435.6</ele>
        <time>2026-08-26T08:30:53Z</time>
      </trkpt>
      <trkpt lat="45.68939" lon="4.60702">
        <ele>435.8</ele>
        <time>2026-08-26T08:30:54Z</time>
      </trkpt>
      <trkpt lat="45.68941" lon="4.60701">
        <ele>436</ele>
        <time>2026-08-26T08:30:55Z</time>
      </trkpt>
      <trkpt lat="45.68943" lon="4.607">
        <ele>436.2</ele>
        <time>2026-08-26T08:30:56Z</time>
      </trkpt>
      <trkpt lat="45.68945" lon="4.60699">
        <ele>436.4</ele>
        <time>2026-08-26T08:30:57Z</time>
      </trkpt>
      <trkpt lat="45.68947" lon="4.60698">
        <ele>436.6</ele>
        <time>2026-08-26T08:30:58Z</time>
      </trkpt>
      <trkpt lat="45.68948" lon="4.60696">
        <ele>436.8</ele>
        <time>2026-08-26T08:30:59Z</time>
      </trkpt>
      <trkpt lat="45.6895" lon="4.60695">
        <ele>437</ele>
        <time>2026-08-26T08:31:00Z</time>
      </trkpt>
      <trkpt lat="45.68952" lon="4.60693">
        <ele>437.2</ele>
        <time>2026-08-26T08:31:01Z</time>
      </trkpt>
      <trkpt lat="45.68954" lon="4.60691">
        <ele>437.4</ele>
        <time>2026-08-26T08:31:02Z</time>
      </trkpt>
      <trkpt lat="45.68955" lon="4.6069">
        <ele>437.4</ele>
        <time>2026-08-26T08:31:03Z</time>
      </trkpt>
      <trkpt lat="45.68957" lon="4.60689">
        <ele>437.6</ele>
        <time>2026-08-26T08:31:04Z</time>
      </trkpt>
      <trkpt lat="45.68959" lon="4.60687">
        <ele>437.8</ele>
        <time>2026-08-26T08:31:05Z</time>
      </trkpt>
      <trkpt lat="45.6896" lon="4.60685">
        <ele>438</ele>
        <time>2026-08-26T08:31:06Z</time>
      </trkpt>
      <trkpt lat="45.68962" lon="4.60683">
        <ele>438.2</ele>
        <time>2026-08-26T08:31:07Z</time>
      </trkpt>
      <trkpt lat="45.68963" lon="4.60681">
        <ele>438.4</ele>
        <time>2026-08-26T08:31:08Z</time>
      </trkpt>
      <trkpt lat="45.68965" lon="4.60679">
        <ele>438.6</ele>
        <time>2026-08-26T08:31:09Z</time>
      </trkpt>
      <trkpt lat="45.68966" lon="4.60677">
        <ele>438.8</ele>
        <time>2026-08-26T08:31:10Z</time>
      </trkpt>
      <trkpt lat="45.68966" lon="4.60674">
        <ele>439</ele>
        <time>2026-08-26T08:31:11Z</time>
      </trkpt>
      <trkpt lat="45.68967" lon="4.60672">
        <ele>439.2</ele>
        <time>2026-08-26T08:31:12Z</time>
      </trkpt>
      <trkpt lat="45.68968" lon="4.60669">
        <ele>439.4</ele>
        <time>2026-08-26T08:31:13Z</time>
      </trkpt>
      <trkpt lat="45.68969" lon="4.60667">
        <ele>439.6</ele>
        <time>2026-08-26T08:31:14Z</time>
      </trkpt>
      <trkpt lat="45.68971" lon="4.60665">
        <ele>439.8</ele>
        <time>2026-08-26T08:31:15Z</time>
      </trkpt>
      <trkpt lat="45.68973" lon="4.60663">
        <ele>440</ele>
        <time>2026-08-26T08:31:16Z</time>
      </trkpt>
      <trkpt lat="45.68974" lon="4.60661">
        <ele>440</ele>
        <time>2026-08-26T08:31:17Z</time>
      </trkpt>
      <trkpt lat="45.68975" lon="4.60659">
        <ele>440.2</ele>
        <time>2026-08-26T08:31:18Z</time>
      </trkpt>
      <trkpt lat="45.68977" lon="4.60657">
        <ele>440.4</ele>
        <time>2026-08-26T08:31:19Z</time>
      </trkpt>
      <trkpt lat="45.68978" lon="4.60654">
        <ele>440.6</ele>
        <time>2026-08-26T08:31:20Z</time>
      </trkpt>
      <trkpt lat="45.6898" lon="4.60652">
        <ele>440.6</ele>
        <time>2026-08-26T08:31:21Z</time>
      </trkpt>
      <trkpt lat="45.68981" lon="4.60649">
        <ele>440.8</ele>
        <time>2026-08-26T08:31:22Z</time>
      </trkpt>
      <trkpt lat="45.68982" lon="4.60646">
        <ele>441</ele>
        <time>2026-08-26T08:31:23Z</time>
      </trkpt>
      <trkpt lat="45.68983" lon="4.60644">
        <ele>441.2</ele>
        <time>2026-08-26T08:31:24Z</time>
      </trkpt>
      <trkpt lat="45.68984" lon="4.60642">
        <ele>441.4</ele>
        <time>2026-08-26T08:31:25Z</time>
      </trkpt>
      <trkpt lat="45.68985" lon="4.60639">
        <ele>441.6</ele>
        <time>2026-08-26T08:31:26Z</time>
      </trkpt>
      <trkpt lat="45.68986" lon="4.60637">
        <ele>441.8</ele>
        <time>2026-08-26T08:31:27Z</time>
      </trkpt>
      <trkpt lat="45.68987" lon="4.60635">
        <ele>441.8</ele>
        <time>2026-08-26T08:31:28Z</time>
      </trkpt>
      <trkpt lat="45.68989" lon="4.60632">
        <ele>442</ele>
        <time>2026-08-26T08:31:29Z</time>
      </trkpt>
      <trkpt lat="45.68991" lon="4.6063">
        <ele>442.2</ele>
        <time>2026-08-26T08:31:30Z</time>
      </trkpt>
      <trkpt lat="45.68992" lon="4.60628">
        <ele>442.4</ele>
        <time>2026-08-26T08:31:31Z</time>
      </trkpt>
      <trkpt lat="45.68993" lon="4.60626">
        <ele>442.4</ele>
        <time>2026-08-26T08:31:32Z</time>
      </trkpt>
      <trkpt lat="45.68995" lon="4.60624">
        <ele>442.6</ele>
        <time>2026-08-26T08:31:33Z</time>
      </trkpt>
      <trkpt lat="45.68996" lon="4.60622">
        <ele>442.8</ele>
        <time>2026-08-26T08:31:34Z</time>
      </trkpt>
      <trkpt lat="45.68998" lon="4.6062">
        <ele>443</ele>
        <time>2026-08-26T08:31:35Z</time>
      </trkpt>
      <trkpt lat="45.68999" lon="4.60617">
        <ele>443.2</ele>
        <time>2026-08-26T08:31:36Z</time>
      </trkpt>
      <trkpt lat="45.69001" lon="4.60615">
        <ele>443.4</ele>
        <time>2026-08-26T08:31:37Z</time>
      </trkpt>
      <trkpt lat="45.69002" lon="4.60614">
        <ele>443.6</ele>
        <time>2026-08-26T08:31:38Z</time>
      </trkpt>
      <trkpt lat="45.69004" lon="4.60611">
        <ele>443.8</ele>
        <time>2026-08-26T08:31:39Z</time>
      </trkpt>
      <trkpt lat="45.69005" lon="4.60609">
        <ele>443.8</ele>
        <time>2026-08-26T08:31:40Z</time>
      </trkpt>
      <trkpt lat="45.69006" lon="4.60607">
        <ele>444.2</ele>
        <time>2026-08-26T08:31:41Z</time>
      </trkpt>
      <trkpt lat="45.69007" lon="4.60605">
        <ele>444.4</ele>
        <time>2026-08-26T08:31:42Z</time>
      </trkpt>
      <trkpt lat="45.69009" lon="4.60603">
        <ele>444.6</ele>
        <time>2026-08-26T08:31:43Z</time>
      </trkpt>
      <trkpt lat="45.6901" lon="4.60601">
        <ele>444.6</ele>
        <time>2026-08-26T08:31:44Z</time>
      </trkpt>
      <trkpt lat="45.69011" lon="4.60599">
        <ele>444.8</ele>
        <time>2026-08-26T08:31:45Z</time>
      </trkpt>
      <trkpt lat="45.69013" lon="4.60597">
        <ele>445</ele>
        <time>2026-08-26T08:31:46Z</time>
      </trkpt>
      <trkpt lat="45.69014" lon="4.60595">
        <ele>445.2</ele>
        <time>2026-08-26T08:31:47Z</time>
      </trkpt>
      <trkpt lat="45.69015" lon="4.60593">
        <ele>445.4</ele>
        <time>2026-08-26T08:31:48Z</time>
      </trkpt>
      <trkpt lat="45.69017" lon="4.60591">
        <ele>445.6</ele>
        <time>2026-08-26T08:31:49Z</time>
      </trkpt>
      <trkpt lat="45.69019" lon="4.60589">
        <ele>445.6</ele>
        <time>2026-08-26T08:31:50Z</time>
      </trkpt>
      <trkpt lat="45.6902" lon="4.60587">
        <ele>445.8</ele>
        <time>2026-08-26T08:31:51Z</time>
      </trkpt>
      <trkpt lat="45.69021" lon="4.60585">
        <ele>446</ele>
        <time>2026-08-26T08:31:52Z</time>
      </trkpt>
      <trkpt lat="45.69023" lon="4.60583">
        <ele>446.2</ele>
        <time>2026-08-26T08:31:53Z</time>
      </trkpt>
      <trkpt lat="45.69024" lon="4.60581">
        <ele>446.4</ele>
        <time>2026-08-26T08:31:54Z</time>
      </trkpt>
      <trkpt lat="45.69026" lon="4.60579">
        <ele>446.6</ele>
        <time>2026-08-26T08:31:55Z</time>
      </trkpt>
      <trkpt lat="45.69027" lon="4.60577">
        <ele>446.8</ele>
        <time>2026-08-26T08:31:56Z</time>
      </trkpt>
      <trkpt lat="45.69029" lon="4.60576">
        <ele>447</ele>
        <time>2026-08-26T08:31:57Z</time>
      </trkpt>
      <trkpt lat="45.69031" lon="4.60574">
        <ele>447</ele>
        <time>2026-08-26T08:31:58Z</time>
      </trkpt>
      <trkpt lat="45.69032" lon="4.60573">
        <ele>447.2</ele>
        <time>2026-08-26T08:31:59Z</time>
      </trkpt>
      <trkpt lat="45.69034" lon="4.60571">
        <ele>447.4</ele>
        <time>2026-08-26T08:32:00Z</time>
      </trkpt>
      <trkpt lat="45.69035" lon="4.60569">
        <ele>447.6</ele>
        <time>2026-08-26T08:32:01Z</time>
      </trkpt>
      <trkpt lat="45.69037" lon="4.60566">
        <ele>447.6</ele>
        <time>2026-08-26T08:32:02Z</time>
      </trkpt>
      <trkpt lat="45.69039" lon="4.60564">
        <ele>447.8</ele>
        <time>2026-08-26T08:32:03Z</time>
      </trkpt>
      <trkpt lat="45.6904" lon="4.60563">
        <ele>448</ele>
        <time>2026-08-26T08:32:04Z</time>
      </trkpt>
      <trkpt lat="45.69042" lon="4.60561">
        <ele>448.2</ele>
        <time>2026-08-26T08:32:05Z</time>
      </trkpt>
      <trkpt lat="45.69043" lon="4.60559">
        <ele>448.2</ele>
        <time>2026-08-26T08:32:06Z</time>
      </trkpt>
      <trkpt lat="45.69045" lon="4.60557">
        <ele>448.4</ele>
        <time>2026-08-26T08:32:07Z</time>
      </trkpt>
      <trkpt lat="45.69047" lon="4.60555">
        <ele>448.6</ele>
        <time>2026-08-26T08:32:08Z</time>
      </trkpt>
      <trkpt lat="45.69048" lon="4.60553">
        <ele>448.8</ele>
        <time>2026-08-26T08:32:09Z</time>
      </trkpt>
      <trkpt lat="45.6905" lon="4.60551">
        <ele>449</ele>
        <time>2026-08-26T08:32:10Z</time>
      </trkpt>
      <trkpt lat="45.69052" lon="4.60549">
        <ele>449.2</ele>
        <time>2026-08-26T08:32:11Z</time>
      </trkpt>
      <trkpt lat="45.69053" lon="4.60547">
        <ele>449.4</ele>
        <time>2026-08-26T08:32:12Z</time>
      </trkpt>
      <trkpt lat="45.69055" lon="4.60545">
        <ele>449.4</ele>
        <time>2026-08-26T08:32:13Z</time>
      </trkpt>
      <trkpt lat="45.69056" lon="4.60543">
        <ele>449.6</ele>
        <time>2026-08-26T08:32:14Z</time>
      </trkpt>
      <trkpt lat="45.69058" lon="4.60541">
        <ele>449.8</ele>
        <time>2026-08-26T08:32:15Z</time>
      </trkpt>
      <trkpt lat="45.69059" lon="4.60539">
        <ele>450</ele>
        <time>2026-08-26T08:32:16Z</time>
      </trkpt>
      <trkpt lat="45.6906" lon="4.60537">
        <ele>450.2</ele>
        <time>2026-08-26T08:32:17Z</time>
      </trkpt>
      <trkpt lat="45.69062" lon="4.60536">
        <ele>450.2</ele>
        <time>2026-08-26T08:32:18Z</time>
      </trkpt>
      <trkpt lat="45.69063" lon="4.60534">
        <ele>450.4</ele>
        <time>2026-08-26T08:32:19Z</time>
      </trkpt>
      <trkpt lat="45.69065" lon="4.60533">
        <ele>450.6</ele>
        <time>2026-08-26T08:32:20Z</time>
      </trkpt>
      <trkpt lat="45.69066" lon="4.60531">
        <ele>450.8</ele>
        <time>2026-08-26T08:32:21Z</time>
      </trkpt>
      <trkpt lat="45.69067" lon="4.60529">
        <ele>451</ele>
        <time>2026-08-26T08:32:22Z</time>
      </trkpt>
      <trkpt lat="45.69068" lon="4.60526">
        <ele>451.2</ele>
        <time>2026-08-26T08:32:23Z</time>
      </trkpt>
      <trkpt lat="45.69069" lon="4.60524">
        <ele>451.2</ele>
        <time>2026-08-26T08:32:24Z</time>
      </trkpt>
      <trkpt lat="45.6907" lon="4.60522">
        <ele>451.6</ele>
        <time>2026-08-26T08:32:25Z</time>
      </trkpt>
      <trkpt lat="45.69072" lon="4.6052">
        <ele>451.8</ele>
        <time>2026-08-26T08:32:26Z</time>
      </trkpt>
      <trkpt lat="45.69073" lon="4.60518">
        <ele>451.8</ele>
        <time>2026-08-26T08:32:27Z</time>
      </trkpt>
      <trkpt lat="45.69075" lon="4.60516">
        <ele>452</ele>
        <time>2026-08-26T08:32:28Z</time>
      </trkpt>
      <trkpt lat="45.69076" lon="4.60514">
        <ele>452.2</ele>
        <time>2026-08-26T08:32:29Z</time>
      </trkpt>
      <trkpt lat="45.69078" lon="4.60513">
        <ele>452.4</ele>
        <time>2026-08-26T08:32:30Z</time>
      </trkpt>
      <trkpt lat="45.69079" lon="4.60511">
        <ele>452.6</ele>
        <time>2026-08-26T08:32:31Z</time>
      </trkpt>
      <trkpt lat="45.69081" lon="4.60509">
        <ele>452.8</ele>
        <time>2026-08-26T08:32:32Z</time>
      </trkpt>
      <trkpt lat="45.69082" lon="4.60507">
        <ele>453</ele>
        <time>2026-08-26T08:32:33Z</time>
      </trkpt>
      <trkpt lat="45.69084" lon="4.60505">
        <ele>453.2</ele>
        <time>2026-08-26T08:32:34Z</time>
      </trkpt>
      <trkpt lat="45.69085" lon="4.60503">
        <ele>453.4</ele>
        <time>2026-08-26T08:32:35Z</time>
      </trkpt>
      <trkpt lat="45.69086" lon="4.60501">
        <ele>453.4</ele>
        <time>2026-08-26T08:32:36Z</time>
      </trkpt>
      <trkpt lat="45.69088" lon="4.60498">
        <ele>453.6</ele>
        <time>2026-08-26T08:32:37Z</time>
      </trkpt>
      <trkpt lat="45.69089" lon="4.60496">
        <ele>453.8</ele>
        <time>2026-08-26T08:32:38Z</time>
      </trkpt>
      <trkpt lat="45.6909" lon="4.60495">
        <ele>454</ele>
        <time>2026-08-26T08:32:39Z</time>
      </trkpt>
      <trkpt lat="45.69092" lon="4.60493">
        <ele>454.2</ele>
        <time>2026-08-26T08:32:40Z</time>
      </trkpt>
      <trkpt lat="45.69093" lon="4.60491">
        <ele>454.4</ele>
        <time>2026-08-26T08:32:41Z</time>
      </trkpt>
      <trkpt lat="45.69094" lon="4.60489">
        <ele>454.6</ele>
        <time>2026-08-26T08:32:42Z</time>
      </trkpt>
      <trkpt lat="45.69095" lon="4.60486">
        <ele>454.6</ele>
        <time>2026-08-26T08:32:43Z</time>
      </trkpt>
      <trkpt lat="45.69097" lon="4.60484">
        <ele>454.8</ele>
        <time>2026-08-26T08:32:44Z</time>
      </trkpt>
      <trkpt lat="45.69098" lon="4.60482">
        <ele>455</ele>
        <time>2026-08-26T08:32:45Z</time>
      </trkpt>
      <trkpt lat="45.69099" lon="4.60479">
        <ele>455.2</ele>
        <time>2026-08-26T08:32:46Z</time>
      </trkpt>
      <trkpt lat="45.69101" lon="4.60478">
        <ele>455.4</ele>
        <time>2026-08-26T08:32:47Z</time>
      </trkpt>
      <trkpt lat="45.69102" lon="4.60476">
        <ele>455.6</ele>
        <time>2026-08-26T08:32:48Z</time>
      </trkpt>
      <trkpt lat="45.69103" lon="4.60474">
        <ele>455.8</ele>
        <time>2026-08-26T08:32:49Z</time>
      </trkpt>
      <trkpt lat="45.69104" lon="4.60472">
        <ele>455.8</ele>
        <time>2026-08-26T08:32:50Z</time>
      </trkpt>
      <trkpt lat="45.69106" lon="4.60469">
        <ele>456</ele>
        <time>2026-08-26T08:32:51Z</time>
      </trkpt>
      <trkpt lat="45.69107" lon="4.60467">
        <ele>456.2</ele>
        <time>2026-08-26T08:32:52Z</time>
      </trkpt>
      <trkpt lat="45.69108" lon="4.60465">
        <ele>456.4</ele>
        <time>2026-08-26T08:32:53Z</time>
      </trkpt>
      <trkpt lat="45.69109" lon="4.60463">
        <ele>456.6</ele>
        <time>2026-08-26T08:32:54Z</time>
      </trkpt>
      <trkpt lat="45.6911" lon="4.60461">
        <ele>456.8</ele>
        <time>2026-08-26T08:32:55Z</time>
      </trkpt>
      <trkpt lat="45.69112" lon="4.60459">
        <ele>457</ele>
        <time>2026-08-26T08:32:56Z</time>
      </trkpt>
      <trkpt lat="45.69114" lon="4.60457">
        <ele>457.2</ele>
        <time>2026-08-26T08:32:57Z</time>
      </trkpt>
      <trkpt lat="45.69115" lon="4.60456">
        <ele>457.4</ele>
        <time>2026-08-26T08:32:58Z</time>
      </trkpt>
      <trkpt lat="45.69117" lon="4.60455">
        <ele>457.6</ele>
        <time>2026-08-26T08:32:59Z</time>
      </trkpt>
      <trkpt lat="45.69118" lon="4.60453">
        <ele>457.8</ele>
        <time>2026-08-26T08:33:00Z</time>
      </trkpt>
      <trkpt lat="45.69119" lon="4.6045">
        <ele>458</ele>
        <time>2026-08-26T08:33:01Z</time>
      </trkpt>
      <trkpt lat="45.69121" lon="4.60448">
        <ele>458.2</ele>
        <time>2026-08-26T08:33:02Z</time>
      </trkpt>
      <trkpt lat="45.69122" lon="4.60446">
        <ele>458.4</ele>
        <time>2026-08-26T08:33:03Z</time>
      </trkpt>
      <trkpt lat="45.69123" lon="4.60443">
        <ele>458.4</ele>
        <time>2026-08-26T08:33:04Z</time>
      </trkpt>
      <trkpt lat="45.69124" lon="4.60441">
        <ele>458.6</ele>
        <time>2026-08-26T08:33:05Z</time>
      </trkpt>
      <trkpt lat="45.69125" lon="4.60439">
        <ele>458.8</ele>
        <time>2026-08-26T08:33:06Z</time>
      </trkpt>
      <trkpt lat="45.69127" lon="4.60437">
        <ele>459</ele>
        <time>2026-08-26T08:33:07Z</time>
      </trkpt>
      <trkpt lat="45.69128" lon="4.60435">
        <ele>459.2</ele>
        <time>2026-08-26T08:33:08Z</time>
      </trkpt>
      <trkpt lat="45.6913" lon="4.60433">
        <ele>459.4</ele>
        <time>2026-08-26T08:33:09Z</time>
      </trkpt>
      <trkpt lat="45.69131" lon="4.60431">
        <ele>459.6</ele>
        <time>2026-08-26T08:33:10Z</time>
      </trkpt>
      <trkpt lat="45.69132" lon="4.60428">
        <ele>459.8</ele>
        <time>2026-08-26T08:33:11Z</time>
      </trkpt>
      <trkpt lat="45.69134" lon="4.60426">
        <ele>460</ele>
        <time>2026-08-26T08:33:12Z</time>
      </trkpt>
      <trkpt lat="45.69135" lon="4.60424">
        <ele>460.2</ele>
        <time>2026-08-26T08:33:13Z</time>
      </trkpt>
      <trkpt lat="45.69136" lon="4.60422">
        <ele>460.4</ele>
        <time>2026-08-26T08:33:14Z</time>
      </trkpt>
      <trkpt lat="45.69137" lon="4.6042">
        <ele>460.6</ele>
        <time>2026-08-26T08:33:15Z</time>
      </trkpt>
      <trkpt lat="45.69139" lon="4.60418">
        <ele>460.6</ele>
        <time>2026-08-26T08:33:16Z</time>
      </trkpt>
      <trkpt lat="45.6914" lon="4.60416">
        <ele>460.8</ele>
        <time>2026-08-26T08:33:17Z</time>
      </trkpt>
      <trkpt lat="45.69141" lon="4.60414">
        <ele>461</ele>
        <time>2026-08-26T08:33:18Z</time>
      </trkpt>
      <trkpt lat="45.69142" lon="4.60412">
        <ele>461.2</ele>
        <time>2026-08-26T08:33:19Z</time>
      </trkpt>
      <trkpt lat="45.69144" lon="4.60409">
        <ele>461.4</ele>
        <time>2026-08-26T08:33:20Z</time>
      </trkpt>
      <trkpt lat="45.69145" lon="4.60406">
        <ele>461.6</ele>
        <time>2026-08-26T08:33:21Z</time>
      </trkpt>
      <trkpt lat="45.69146" lon="4.60404">
        <ele>461.8</ele>
        <time>2026-08-26T08:33:22Z</time>
      </trkpt>
      <trkpt lat="45.69147" lon="4.60402">
        <ele>462</ele>
        <time>2026-08-26T08:33:23Z</time>
      </trkpt>
      <trkpt lat="45.69149" lon="4.604">
        <ele>462.2</ele>
        <time>2026-08-26T08:33:24Z</time>
      </trkpt>
      <trkpt lat="45.6915" lon="4.60398">
        <ele>462.4</ele>
        <time>2026-08-26T08:33:25Z</time>
      </trkpt>
      <trkpt lat="45.69151" lon="4.60396">
        <ele>462.6</ele>
        <time>2026-08-26T08:33:26Z</time>
      </trkpt>
      <trkpt lat="45.69152" lon="4.60393">
        <ele>462.6</ele>
        <time>2026-08-26T08:33:27Z</time>
      </trkpt>
      <trkpt lat="45.69153" lon="4.60391">
        <ele>462.8</ele>
        <time>2026-08-26T08:33:28Z</time>
      </trkpt>
      <trkpt lat="45.69154" lon="4.60389">
        <ele>463</ele>
        <time>2026-08-26T08:33:29Z</time>
      </trkpt>
      <trkpt lat="45.69154" lon="4.60386">
        <ele>463.2</ele>
        <time>2026-08-26T08:33:30Z</time>
      </trkpt>
      <trkpt lat="45.69155" lon="4.60384">
        <ele>463.4</ele>
        <time>2026-08-26T08:33:31Z</time>
      </trkpt>
      <trkpt lat="45.69156" lon="4.60381">
        <ele>463.6</ele>
        <time>2026-08-26T08:33:32Z</time>
      </trkpt>
      <trkpt lat="45.69157" lon="4.60379">
        <ele>463.8</ele>
        <time>2026-08-26T08:33:33Z</time>
      </trkpt>
      <trkpt lat="45.69158" lon="4.60377">
        <ele>464</ele>
        <time>2026-08-26T08:33:34Z</time>
      </trkpt>
      <trkpt lat="45.69159" lon="4.60375">
        <ele>464.2</ele>
        <time>2026-08-26T08:33:35Z</time>
      </trkpt>
      <trkpt lat="45.6916" lon="4.60373">
        <ele>464.4</ele>
        <time>2026-08-26T08:33:36Z</time>
      </trkpt>
      <trkpt lat="45.69161" lon="4.60371">
        <ele>464.6</ele>
        <time>2026-08-26T08:33:37Z</time>
      </trkpt>
      <trkpt lat="45.69162" lon="4.60369">
        <ele>464.8</ele>
        <time>2026-08-26T08:33:38Z</time>
      </trkpt>
      <trkpt lat="45.69162" lon="4.60367">
        <ele>465</ele>
        <time>2026-08-26T08:33:39Z</time>
      </trkpt>
      <trkpt lat="45.69163" lon="4.60365">
        <ele>465.2</ele>
        <time>2026-08-26T08:33:40Z</time>
      </trkpt>
      <trkpt lat="45.69164" lon="4.60363">
        <ele>465.6</ele>
        <time>2026-08-26T08:33:41Z</time>
      </trkpt>
      <trkpt lat="45.69165" lon="4.6036">
        <ele>465.8</ele>
        <time>2026-08-26T08:33:42Z</time>
      </trkpt>
      <trkpt lat="45.69165" lon="4.60358">
        <ele>466</ele>
        <time>2026-08-26T08:33:43Z</time>
      </trkpt>
      <trkpt lat="45.69165" lon="4.60356">
        <ele>466.2</ele>
        <time>2026-08-26T08:33:44Z</time>
      </trkpt>
      <trkpt lat="45.69166" lon="4.60354">
        <ele>466.4</ele>
        <time>2026-08-26T08:33:45Z</time>
      </trkpt>
      <trkpt lat="45.69166" lon="4.60352">
        <ele>466.4</ele>
        <time>2026-08-26T08:33:46Z</time>
      </trkpt>
      <trkpt lat="45.69166" lon="4.60349">
        <ele>466.6</ele>
        <time>2026-08-26T08:33:47Z</time>
      </trkpt>
      <trkpt lat="45.69166" lon="4.60347">
        <ele>466.8</ele>
        <time>2026-08-26T08:33:48Z</time>
      </trkpt>
      <trkpt lat="45.69167" lon="4.60344">
        <ele>467</ele>
        <time>2026-08-26T08:33:49Z</time>
      </trkpt>
      <trkpt lat="45.69167" lon="4.60342">
        <ele>467.4</ele>
        <time>2026-08-26T08:33:50Z</time>
      </trkpt>
      <trkpt lat="45.69168" lon="4.6034">
        <ele>467.6</ele>
        <time>2026-08-26T08:33:51Z</time>
      </trkpt>
      <trkpt lat="45.69169" lon="4.60338">
        <ele>467.8</ele>
        <time>2026-08-26T08:33:52Z</time>
      </trkpt>
      <trkpt lat="45.69169" lon="4.60335">
        <ele>468</ele>
        <time>2026-08-26T08:33:53Z</time>
      </trkpt>
      <trkpt lat="45.69169" lon="4.60332">
        <ele>468</ele>
        <time>2026-08-26T08:33:54Z</time>
      </trkpt>
      <trkpt lat="45.69169" lon="4.60329">
        <ele>468.2</ele>
        <time>2026-08-26T08:33:55Z</time>
      </trkpt>
      <trkpt lat="45.69169" lon="4.60327">
        <ele>468.4</ele>
        <time>2026-08-26T08:33:56Z</time>
      </trkpt>
      <trkpt lat="45.69169" lon="4.60324">
        <ele>468.6</ele>
        <time>2026-08-26T08:33:57Z</time>
      </trkpt>
      <trkpt lat="45.69169" lon="4.60321">
        <ele>468.6</ele>
        <time>2026-08-26T08:33:58Z</time>
      </trkpt>
      <trkpt lat="45.69169" lon="4.60319">
        <ele>468.8</ele>
        <time>2026-08-26T08:33:59Z</time>
      </trkpt>
      <trkpt lat="45.69169" lon="4.60316">
        <ele>469</ele>
        <time>2026-08-26T08:34:00Z</time>
      </trkpt>
      <trkpt lat="45.69168" lon="4.60314">
        <ele>469.2</ele>
        <time>2026-08-26T08:34:01Z</time>
      </trkpt>
      <trkpt lat="45.69168" lon="4.60311">
        <ele>469.2</ele>
        <time>2026-08-26T08:34:02Z</time>
      </trkpt>
      <trkpt lat="45.69168" lon="4.60308">
        <ele>469.4</ele>
        <time>2026-08-26T08:34:03Z</time>
      </trkpt>
      <trkpt lat="45.69168" lon="4.60305">
        <ele>469.6</ele>
        <time>2026-08-26T08:34:04Z</time>
      </trkpt>
      <trkpt lat="45.69168" lon="4.60302">
        <ele>469.8</ele>
        <time>2026-08-26T08:34:05Z</time>
      </trkpt>
      <trkpt lat="45.69168" lon="4.60299">
        <ele>470</ele>
        <time>2026-08-26T08:34:06Z</time>
      </trkpt>
      <trkpt lat="45.69168" lon="4.60296">
        <ele>470.2</ele>
        <time>2026-08-26T08:34:07Z</time>
      </trkpt>
      <trkpt lat="45.69169" lon="4.60294">
        <ele>470.4</ele>
        <time>2026-08-26T08:34:08Z</time>
      </trkpt>
      <trkpt lat="45.69169" lon="4.60291">
        <ele>470.4</ele>
        <time>2026-08-26T08:34:09Z</time>
      </trkpt>
      <trkpt lat="45.69169" lon="4.60288">
        <ele>470.6</ele>
        <time>2026-08-26T08:34:10Z</time>
      </trkpt>
      <trkpt lat="45.6917" lon="4.60285">
        <ele>470.8</ele>
        <time>2026-08-26T08:34:11Z</time>
      </trkpt>
      <trkpt lat="45.6917" lon="4.60282">
        <ele>471</ele>
        <time>2026-08-26T08:34:12Z</time>
      </trkpt>
      <trkpt lat="45.69171" lon="4.6028">
        <ele>471.2</ele>
        <time>2026-08-26T08:34:13Z</time>
      </trkpt>
      <trkpt lat="45.69171" lon="4.60277">
        <ele>471.4</ele>
        <time>2026-08-26T08:34:14Z</time>
      </trkpt>
      <trkpt lat="45.69172" lon="4.60274">
        <ele>471.4</ele>
        <time>2026-08-26T08:34:15Z</time>
      </trkpt>
      <trkpt lat="45.69172" lon="4.60271">
        <ele>471.6</ele>
        <time>2026-08-26T08:34:16Z</time>
      </trkpt>
      <trkpt lat="45.69172" lon="4.60268">
        <ele>471.8</ele>
        <time>2026-08-26T08:34:17Z</time>
      </trkpt>
      <trkpt lat="45.69172" lon="4.60265">
        <ele>472</ele>
        <time>2026-08-26T08:34:18Z</time>
      </trkpt>
      <trkpt lat="45.69173" lon="4.60263">
        <ele>472.2</ele>
        <time>2026-08-26T08:34:19Z</time>
      </trkpt>
      <trkpt lat="45.69173" lon="4.6026">
        <ele>472.4</ele>
        <time>2026-08-26T08:34:20Z</time>
      </trkpt>
      <trkpt lat="45.69172" lon="4.60257">
        <ele>472.6</ele>
        <time>2026-08-26T08:34:21Z</time>
      </trkpt>
      <trkpt lat="45.69172" lon="4.60254">
        <ele>472.8</ele>
        <time>2026-08-26T08:34:22Z</time>
      </trkpt>
      <trkpt lat="45.69172" lon="4.60251">
        <ele>472.8</ele>
        <time>2026-08-26T08:34:23Z</time>
      </trkpt>
      <trkpt lat="45.69173" lon="4.60249">
        <ele>473</ele>
        <time>2026-08-26T08:34:24Z</time>
      </trkpt>
      <trkpt lat="45.69173" lon="4.60246">
        <ele>473.2</ele>
        <time>2026-08-26T08:34:25Z</time>
      </trkpt>
      <trkpt lat="45.69173" lon="4.60243">
        <ele>473.4</ele>
        <time>2026-08-26T08:34:26Z</time>
      </trkpt>
      <trkpt lat="45.69173" lon="4.6024">
        <ele>473.6</ele>
        <time>2026-08-26T08:34:27Z</time>
      </trkpt>
      <trkpt lat="45.69173" lon="4.60237">
        <ele>473.8</ele>
        <time>2026-08-26T08:34:28Z</time>
      </trkpt>
      <trkpt lat="45.69173" lon="4.60235">
        <ele>473.8</ele>
        <time>2026-08-26T08:34:29Z</time>
      </trkpt>
      <trkpt lat="45.69173" lon="4.60232">
        <ele>474</ele>
        <time>2026-08-26T08:34:30Z</time>
      </trkpt>
      <trkpt lat="45.69172" lon="4.60229">
        <ele>474.2</ele>
        <time>2026-08-26T08:34:31Z</time>
      </trkpt>
      <trkpt lat="45.69172" lon="4.60227">
        <ele>474.4</ele>
        <time>2026-08-26T08:34:32Z</time>
      </trkpt>
      <trkpt lat="45.69172" lon="4.60224">
        <ele>474.6</ele>
        <time>2026-08-26T08:34:33Z</time>
      </trkpt>
      <trkpt lat="45.69172" lon="4.60221">
        <ele>474.8</ele>
        <time>2026-08-26T08:34:34Z</time>
      </trkpt>
      <trkpt lat="45.69173" lon="4.60218">
        <ele>474.8</ele>
        <time>2026-08-26T08:34:35Z</time>
      </trkpt>
      <trkpt lat="45.69172" lon="4.60216">
        <ele>475</ele>
        <time>2026-08-26T08:34:36Z</time>
      </trkpt>
      <trkpt lat="45.69172" lon="4.60213">
        <ele>475.2</ele>
        <time>2026-08-26T08:34:37Z</time>
      </trkpt>
      <trkpt lat="45.69172" lon="4.6021">
        <ele>475.4</ele>
        <time>2026-08-26T08:34:38Z</time>
      </trkpt>
      <trkpt lat="45.69172" lon="4.60207">
        <ele>475.6</ele>
        <time>2026-08-26T08:34:39Z</time>
      </trkpt>
      <trkpt lat="45.69172" lon="4.60205">
        <ele>475.8</ele>
        <time>2026-08-26T08:34:40Z</time>
      </trkpt>
      <trkpt lat="45.69172" lon="4.60202">
        <ele>476</ele>
        <time>2026-08-26T08:34:41Z</time>
      </trkpt>
      <trkpt lat="45.69172" lon="4.60199">
        <ele>476.2</ele>
        <time>2026-08-26T08:34:42Z</time>
      </trkpt>
      <trkpt lat="45.69171" lon="4.60197">
        <ele>476.4</ele>
        <time>2026-08-26T08:34:43Z</time>
      </trkpt>
      <trkpt lat="45.69171" lon="4.60194">
        <ele>476.4</ele>
        <time>2026-08-26T08:34:44Z</time>
      </trkpt>
      <trkpt lat="45.69171" lon="4.60191">
        <ele>476.6</ele>
        <time>2026-08-26T08:34:45Z</time>
      </trkpt>
      <trkpt lat="45.6917" lon="4.60189">
        <ele>476.8</ele>
        <time>2026-08-26T08:34:46Z</time>
      </trkpt>
      <trkpt lat="45.6917" lon="4.60186">
        <ele>477</ele>
        <time>2026-08-26T08:34:47Z</time>
      </trkpt>
      <trkpt lat="45.6917" lon="4.60183">
        <ele>477.2</ele>
        <time>2026-08-26T08:34:48Z</time>
      </trkpt>
      <trkpt lat="45.69169" lon="4.6018">
        <ele>477.2</ele>
        <time>2026-08-26T08:34:49Z</time>
      </trkpt>
      <trkpt lat="45.69169" lon="4.60178">
        <ele>477.4</ele>
        <time>2026-08-26T08:34:50Z</time>
      </trkpt>
      <trkpt lat="45.69169" lon="4.60175">
        <ele>477.6</ele>
        <time>2026-08-26T08:34:51Z</time>
      </trkpt>
      <trkpt lat="45.69168" lon="4.60173">
        <ele>477.6</ele>
        <time>2026-08-26T08:34:52Z</time>
      </trkpt>
      <trkpt lat="45.69168" lon="4.6017">
        <ele>477.8</ele>
        <time>2026-08-26T08:34:53Z</time>
      </trkpt>
      <trkpt lat="45.69168" lon="4.60168">
        <ele>478.2</ele>
        <time>2026-08-26T08:34:54Z</time>
      </trkpt>
      <trkpt lat="45.69168" lon="4.60165">
        <ele>478.4</ele>
        <time>2026-08-26T08:34:55Z</time>
      </trkpt>
      <trkpt lat="45.69168" lon="4.60163">
        <ele>478.4</ele>
        <time>2026-08-26T08:34:56Z</time>
      </trkpt>
      <trkpt lat="45.69167" lon="4.60162">
        <ele>478.6</ele>
        <time>2026-08-26T08:34:57Z</time>
      </trkpt>
      <trkpt lat="45.69167" lon="4.60162">
        <ele>478.8</ele>
        <time>2026-08-26T08:34:58Z</time>
      </trkpt>
      <trkpt lat="45.69167" lon="4.60162">
        <ele>478.8</ele>
        <time>2026-08-26T08:34:59Z</time>
      </trkpt>
      <trkpt lat="45.69166" lon="4.60154">
        <ele>478.2</ele>
        <time>2026-08-26T08:36:41Z</time>
      </trkpt>
      <trkpt lat="45.69166" lon="4.60151">
        <ele>478.2</ele>
        <time>2026-08-26T08:36:42Z</time>
      </trkpt>
      <trkpt lat="45.69166" lon="4.60149">
        <ele>478.4</ele>
        <time>2026-08-26T08:36:43Z</time>
      </trkpt>
      <trkpt lat="45.69165" lon="4.60146">
        <ele>478.6</ele>
        <time>2026-08-26T08:36:44Z</time>
      </trkpt>
      <trkpt lat="45.69165" lon="4.60143">
        <ele>478.8</ele>
        <time>2026-08-26T08:36:45Z</time>
      </trkpt>
      <trkpt lat="45.69165" lon="4.6014">
        <ele>479</ele>
        <time>2026-08-26T08:36:46Z</time>
      </trkpt>
      <trkpt lat="45.69165" lon="4.60137">
        <ele>479.2</ele>
        <time>2026-08-26T08:36:47Z</time>
      </trkpt>
      <trkpt lat="45.69164" lon="4.60134">
        <ele>479.4</ele>
        <time>2026-08-26T08:36:48Z</time>
      </trkpt>
      <trkpt lat="45.69163" lon="4.60131">
        <ele>479.6</ele>
        <time>2026-08-26T08:36:49Z</time>
      </trkpt>
      <trkpt lat="45.69163" lon="4.60128">
        <ele>479.6</ele>
        <time>2026-08-26T08:36:50Z</time>
      </trkpt>
      <trkpt lat="45.69163" lon="4.60125">
        <ele>479.8</ele>
        <time>2026-08-26T08:36:51Z</time>
      </trkpt>
      <trkpt lat="45.69162" lon="4.60122">
        <ele>480</ele>
        <time>2026-08-26T08:36:52Z</time>
      </trkpt>
      <trkpt lat="45.69161" lon="4.60118">
        <ele>480.2</ele>
        <time>2026-08-26T08:36:53Z</time>
      </trkpt>
      <trkpt lat="45.6916" lon="4.60115">
        <ele>480.6</ele>
        <time>2026-08-26T08:36:54Z</time>
      </trkpt>
      <trkpt lat="45.6916" lon="4.60111">
        <ele>480.6</ele>
        <time>2026-08-26T08:36:55Z</time>
      </trkpt>
      <trkpt lat="45.69159" lon="4.60108">
        <ele>480.8</ele>
        <time>2026-08-26T08:36:56Z</time>
      </trkpt>
      <trkpt lat="45.69158" lon="4.60104">
        <ele>481</ele>
        <time>2026-08-26T08:36:57Z</time>
      </trkpt>
      <trkpt lat="45.69157" lon="4.601">
        <ele>481.2</ele>
        <time>2026-08-26T08:36:58Z</time>
      </trkpt>
      <trkpt lat="45.69156" lon="4.60096">
        <ele>481.4</ele>
        <time>2026-08-26T08:36:59Z</time>
      </trkpt>
      <trkpt lat="45.69155" lon="4.60094">
        <ele>481.4</ele>
        <time>2026-08-26T08:37:00Z</time>
      </trkpt>
      <trkpt lat="45.69155" lon="4.60091">
        <ele>481.6</ele>
        <time>2026-08-26T08:37:01Z</time>
      </trkpt>
      <trkpt lat="45.69154" lon="4.60088">
        <ele>481.8</ele>
        <time>2026-08-26T08:37:02Z</time>
      </trkpt>
      <trkpt lat="45.69154" lon="4.60085">
        <ele>482</ele>
        <time>2026-08-26T08:37:03Z</time>
      </trkpt>
      <trkpt lat="45.69152" lon="4.60082">
        <ele>482.2</ele>
        <time>2026-08-26T08:37:04Z</time>
      </trkpt>
      <trkpt lat="45.69152" lon="4.6008">
        <ele>482.4</ele>
        <time>2026-08-26T08:37:05Z</time>
      </trkpt>
      <trkpt lat="45.69151" lon="4.60077">
        <ele>482.4</ele>
        <time>2026-08-26T08:37:06Z</time>
      </trkpt>
      <trkpt lat="45.6915" lon="4.60073">
        <ele>482.6</ele>
        <time>2026-08-26T08:37:07Z</time>
      </trkpt>
      <trkpt lat="45.69149" lon="4.6007">
        <ele>482.8</ele>
        <time>2026-08-26T08:37:08Z</time>
      </trkpt>
      <trkpt lat="45.69148" lon="4.60068">
        <ele>483</ele>
        <time>2026-08-26T08:37:09Z</time>
      </trkpt>
      <trkpt lat="45.69147" lon="4.60066">
        <ele>483.2</ele>
        <time>2026-08-26T08:37:10Z</time>
      </trkpt>
      <trkpt lat="45.69146" lon="4.60064">
        <ele>483.4</ele>
        <time>2026-08-26T08:37:11Z</time>
      </trkpt>
      <trkpt lat="45.69145" lon="4.60063">
        <ele>483.6</ele>
        <time>2026-08-26T08:37:12Z</time>
      </trkpt>
      <trkpt lat="45.69144" lon="4.60061">
        <ele>483.8</ele>
        <time>2026-08-26T08:37:13Z</time>
      </trkpt>
      <trkpt lat="45.69143" lon="4.6006">
        <ele>484</ele>
        <time>2026-08-26T08:37:14Z</time>
      </trkpt>
      <trkpt lat="45.69143" lon="4.60058">
        <ele>484</ele>
        <time>2026-08-26T08:37:15Z</time>
      </trkpt>
      <trkpt lat="45.69142" lon="4.60055">
        <ele>484.2</ele>
        <time>2026-08-26T08:37:16Z</time>
      </trkpt>
      <trkpt lat="45.6914" lon="4.60053">
        <ele>484.4</ele>
        <time>2026-08-26T08:37:17Z</time>
      </trkpt>
      <trkpt lat="45.69139" lon="4.6005">
        <ele>484.6</ele>
        <time>2026-08-26T08:37:18Z</time>
      </trkpt>
      <trkpt lat="45.69137" lon="4.60048">
        <ele>484.8</ele>
        <time>2026-08-26T08:37:19Z</time>
      </trkpt>
      <trkpt lat="45.69136" lon="4.60046">
        <ele>485</ele>
        <time>2026-08-26T08:37:20Z</time>
      </trkpt>
      <trkpt lat="45.69135" lon="4.60043">
        <ele>485.2</ele>
        <time>2026-08-26T08:37:21Z</time>
      </trkpt>
      <trkpt lat="45.69134" lon="4.60041">
        <ele>485.4</ele>
        <time>2026-08-26T08:37:22Z</time>
      </trkpt>
      <trkpt lat="45.69132" lon="4.60038">
        <ele>485.6</ele>
        <time>2026-08-26T08:37:23Z</time>
      </trkpt>
      <trkpt lat="45.69131" lon="4.60036">
        <ele>485.8</ele>
        <time>2026-08-26T08:37:24Z</time>
      </trkpt>
      <trkpt lat="45.6913" lon="4.60033">
        <ele>486</ele>
        <time>2026-08-26T08:37:25Z</time>
      </trkpt>
      <trkpt lat="45.69129" lon="4.6003">
        <ele>486.2</ele>
        <time>2026-08-26T08:37:26Z</time>
      </trkpt>
      <trkpt lat="45.69128" lon="4.60027">
        <ele>486.4</ele>
        <time>2026-08-26T08:37:27Z</time>
      </trkpt>
      <trkpt lat="45.69127" lon="4.60024">
        <ele>486.6</ele>
        <time>2026-08-26T08:37:28Z</time>
      </trkpt>
      <trkpt lat="45.69126" lon="4.60021">
        <ele>486.6</ele>
        <time>2026-08-26T08:37:29Z</time>
      </trkpt>
      <trkpt lat="45.69125" lon="4.60018">
        <ele>486.8</ele>
        <time>2026-08-26T08:37:30Z</time>
      </trkpt>
      <trkpt lat="45.69125" lon="4.60015">
        <ele>487</ele>
        <time>2026-08-26T08:37:31Z</time>
      </trkpt>
      <trkpt lat="45.69124" lon="4.60012">
        <ele>487.2</ele>
        <time>2026-08-26T08:37:32Z</time>
      </trkpt>
      <trkpt lat="45.69123" lon="4.60009">
        <ele>487.4</ele>
        <time>2026-08-26T08:37:33Z</time>
      </trkpt>
      <trkpt lat="45.69121" lon="4.60005">
        <ele>487.6</ele>
        <time>2026-08-26T08:37:34Z</time>
      </trkpt>
      <trkpt lat="45.6912" lon="4.60002">
        <ele>487.8</ele>
        <time>2026-08-26T08:37:35Z</time>
      </trkpt>
      <trkpt lat="45.6912" lon="4.59999">
        <ele>488</ele>
        <time>2026-08-26T08:37:36Z</time>
      </trkpt>
      <trkpt lat="45.6912" lon="4.59996">
        <ele>488</ele>
        <time>2026-08-26T08:37:37Z</time>
      </trkpt>
      <trkpt lat="45.69119" lon="4.59993">
        <ele>488.2</ele>
        <time>2026-08-26T08:37:38Z</time>
      </trkpt>
      <trkpt lat="45.69119" lon="4.59991">
        <ele>488.4</ele>
        <time>2026-08-26T08:37:39Z</time>
      </trkpt>
      <trkpt lat="45.69118" lon="4.59988">
        <ele>488.6</ele>
        <time>2026-08-26T08:37:40Z</time>
      </trkpt>
      <trkpt lat="45.69117" lon="4.59986">
        <ele>488.6</ele>
        <time>2026-08-26T08:37:41Z</time>
      </trkpt>
      <trkpt lat="45.69116" lon="4.59983">
        <ele>488.8</ele>
        <time>2026-08-26T08:37:42Z</time>
      </trkpt>
      <trkpt lat="45.69115" lon="4.5998">
        <ele>489</ele>
        <time>2026-08-26T08:37:43Z</time>
      </trkpt>
      <trkpt lat="45.69115" lon="4.59977">
        <ele>489.2</ele>
        <time>2026-08-26T08:37:44Z</time>
      </trkpt>
      <trkpt lat="45.69115" lon="4.59974">
        <ele>489.4</ele>
        <time>2026-08-26T08:37:45Z</time>
      </trkpt>
      <trkpt lat="45.69115" lon="4.59971">
        <ele>489.6</ele>
        <time>2026-08-26T08:37:46Z</time>
      </trkpt>
      <trkpt lat="45.69114" lon="4.59968">
        <ele>489.8</ele>
        <time>2026-08-26T08:37:47Z</time>
      </trkpt>
      <trkpt lat="45.69114" lon="4.59966">
        <ele>490</ele>
        <time>2026-08-26T08:37:48Z</time>
      </trkpt>
      <trkpt lat="45.69113" lon="4.59964">
        <ele>490.2</ele>
        <time>2026-08-26T08:37:49Z</time>
      </trkpt>
      <trkpt lat="45.69113" lon="4.59962">
        <ele>490.2</ele>
        <time>2026-08-26T08:37:50Z</time>
      </trkpt>
      <trkpt lat="45.69112" lon="4.5996">
        <ele>490.4</ele>
        <time>2026-08-26T08:37:51Z</time>
      </trkpt>
      <trkpt lat="45.69111" lon="4.59958">
        <ele>490.6</ele>
        <time>2026-08-26T08:37:52Z</time>
      </trkpt>
      <trkpt lat="45.6911" lon="4.59956">
        <ele>490.8</ele>
        <time>2026-08-26T08:37:53Z</time>
      </trkpt>
      <trkpt lat="45.69109" lon="4.59954">
        <ele>491</ele>
        <time>2026-08-26T08:37:54Z</time>
      </trkpt>
      <trkpt lat="45.69109" lon="4.59952">
        <ele>491.2</ele>
        <time>2026-08-26T08:37:55Z</time>
      </trkpt>
      <trkpt lat="45.69108" lon="4.5995">
        <ele>491.4</ele>
        <time>2026-08-26T08:37:56Z</time>
      </trkpt>
      <trkpt lat="45.69107" lon="4.59948">
        <ele>491.6</ele>
        <time>2026-08-26T08:37:57Z</time>
      </trkpt>
      <trkpt lat="45.69106" lon="4.59946">
        <ele>491.8</ele>
        <time>2026-08-26T08:37:58Z</time>
      </trkpt>
      <trkpt lat="45.69104" lon="4.59944">
        <ele>491.8</ele>
        <time>2026-08-26T08:37:59Z</time>
      </trkpt>
      <trkpt lat="45.69104" lon="4.59942">
        <ele>492</ele>
        <time>2026-08-26T08:38:00Z</time>
      </trkpt>
      <trkpt lat="45.69103" lon="4.5994">
        <ele>492.2</ele>
        <time>2026-08-26T08:38:01Z</time>
      </trkpt>
      <trkpt lat="45.69102" lon="4.59938">
        <ele>492.4</ele>
        <time>2026-08-26T08:38:02Z</time>
      </trkpt>
      <trkpt lat="45.69101" lon="4.59936">
        <ele>492.6</ele>
        <time>2026-08-26T08:38:03Z</time>
      </trkpt>
      <trkpt lat="45.691" lon="4.59934">
        <ele>492.8</ele>
        <time>2026-08-26T08:38:04Z</time>
      </trkpt>
      <trkpt lat="45.69099" lon="4.59933">
        <ele>493</ele>
        <time>2026-08-26T08:38:05Z</time>
      </trkpt>
      <trkpt lat="45.69099" lon="4.5993">
        <ele>493.2</ele>
        <time>2026-08-26T08:38:06Z</time>
      </trkpt>
      <trkpt lat="45.69098" lon="4.59928">
        <ele>493.4</ele>
        <time>2026-08-26T08:38:07Z</time>
      </trkpt>
      <trkpt lat="45.69098" lon="4.59925">
        <ele>493.6</ele>
        <time>2026-08-26T08:38:08Z</time>
      </trkpt>
      <trkpt lat="45.69097" lon="4.59923">
        <ele>493.8</ele>
        <time>2026-08-26T08:38:09Z</time>
      </trkpt>
      <trkpt lat="45.69096" lon="4.59921">
        <ele>494</ele>
        <time>2026-08-26T08:38:10Z</time>
      </trkpt>
      <trkpt lat="45.69096" lon="4.59918">
        <ele>494</ele>
        <time>2026-08-26T08:38:11Z</time>
      </trkpt>
      <trkpt lat="45.69095" lon="4.59915">
        <ele>494.2</ele>
        <time>2026-08-26T08:38:12Z</time>
      </trkpt>
      <trkpt lat="45.69094" lon="4.59912">
        <ele>494.2</ele>
        <time>2026-08-26T08:38:13Z</time>
      </trkpt>
      <trkpt lat="45.69094" lon="4.5991">
        <ele>494.4</ele>
        <time>2026-08-26T08:38:14Z</time>
      </trkpt>
      <trkpt lat="45.69094" lon="4.59907">
        <ele>494.6</ele>
        <time>2026-08-26T08:38:15Z</time>
      </trkpt>
      <trkpt lat="45.69094" lon="4.59903">
        <ele>494.8</ele>
        <time>2026-08-26T08:38:16Z</time>
      </trkpt>
      <trkpt lat="45.69094" lon="4.599">
        <ele>495</ele>
        <time>2026-08-26T08:38:17Z</time>
      </trkpt>
      <trkpt lat="45.69094" lon="4.59897">
        <ele>495.2</ele>
        <time>2026-08-26T08:38:18Z</time>
      </trkpt>
      <trkpt lat="45.69094" lon="4.59894">
        <ele>495.4</ele>
        <time>2026-08-26T08:38:19Z</time>
      </trkpt>
      <trkpt lat="45.69094" lon="4.59891">
        <ele>495.4</ele>
        <time>2026-08-26T08:38:20Z</time>
      </trkpt>
      <trkpt lat="45.69094" lon="4.59888">
        <ele>495.6</ele>
        <time>2026-08-26T08:38:21Z</time>
      </trkpt>
      <trkpt lat="45.69095" lon="4.59885">
        <ele>495.8</ele>
        <time>2026-08-26T08:38:22Z</time>
      </trkpt>
      <trkpt lat="45.69095" lon="4.59881">
        <ele>496</ele>
        <time>2026-08-26T08:38:23Z</time>
      </trkpt>
      <trkpt lat="45.69096" lon="4.59878">
        <ele>496</ele>
        <time>2026-08-26T08:38:24Z</time>
      </trkpt>
      <trkpt lat="45.69096" lon="4.59875">
        <ele>496.2</ele>
        <time>2026-08-26T08:38:25Z</time>
      </trkpt>
      <trkpt lat="45.69097" lon="4.59872">
        <ele>496.4</ele>
        <time>2026-08-26T08:38:26Z</time>
      </trkpt>
      <trkpt lat="45.69098" lon="4.5987">
        <ele>496.4</ele>
        <time>2026-08-26T08:38:27Z</time>
      </trkpt>
      <trkpt lat="45.69099" lon="4.59866">
        <ele>496.6</ele>
        <time>2026-08-26T08:38:28Z</time>
      </trkpt>
      <trkpt lat="45.69099" lon="4.59864">
        <ele>496.8</ele>
        <time>2026-08-26T08:38:29Z</time>
      </trkpt>
      <trkpt lat="45.691" lon="4.59862">
        <ele>497</ele>
        <time>2026-08-26T08:38:30Z</time>
      </trkpt>
      <trkpt lat="45.691" lon="4.59859">
        <ele>497</ele>
        <time>2026-08-26T08:38:31Z</time>
      </trkpt>
      <trkpt lat="45.69101" lon="4.59857">
        <ele>497.2</ele>
        <time>2026-08-26T08:38:32Z</time>
      </trkpt>
      <trkpt lat="45.69102" lon="4.59855">
        <ele>497.4</ele>
        <time>2026-08-26T08:38:33Z</time>
      </trkpt>
      <trkpt lat="45.69102" lon="4.59852">
        <ele>497.6</ele>
        <time>2026-08-26T08:38:34Z</time>
      </trkpt>
      <trkpt lat="45.69103" lon="4.5985">
        <ele>497.8</ele>
        <time>2026-08-26T08:38:35Z</time>
      </trkpt>
      <trkpt lat="45.69104" lon="4.59847">
        <ele>498</ele>
        <time>2026-08-26T08:38:36Z</time>
      </trkpt>
      <trkpt lat="45.69105" lon="4.59844">
        <ele>498.2</ele>
        <time>2026-08-26T08:38:37Z</time>
      </trkpt>
      <trkpt lat="45.69105" lon="4.59842">
        <ele>498.4</ele>
        <time>2026-08-26T08:38:38Z</time>
      </trkpt>
      <trkpt lat="45.69106" lon="4.59839">
        <ele>498.6</ele>
        <time>2026-08-26T08:38:39Z</time>
      </trkpt>
      <trkpt lat="45.69107" lon="4.59837">
        <ele>498.6</ele>
        <time>2026-08-26T08:38:40Z</time>
      </trkpt>
      <trkpt lat="45.69107" lon="4.59833">
        <ele>498.8</ele>
        <time>2026-08-26T08:38:41Z</time>
      </trkpt>
      <trkpt lat="45.69108" lon="4.5983">
        <ele>499</ele>
        <time>2026-08-26T08:38:42Z</time>
      </trkpt>
      <trkpt lat="45.69108" lon="4.59827">
        <ele>499.2</ele>
        <time>2026-08-26T08:38:43Z</time>
      </trkpt>
      <trkpt lat="45.69108" lon="4.59824">
        <ele>499.4</ele>
        <time>2026-08-26T08:38:44Z</time>
      </trkpt>
      <trkpt lat="45.69108" lon="4.59821">
        <ele>499.6</ele>
        <time>2026-08-26T08:38:45Z</time>
      </trkpt>
      <trkpt lat="45.69108" lon="4.59819">
        <ele>499.6</ele>
        <time>2026-08-26T08:38:46Z</time>
      </trkpt>
      <trkpt lat="45.69108" lon="4.59816">
        <ele>499.8</ele>
        <time>2026-08-26T08:38:47Z</time>
      </trkpt>
      <trkpt lat="45.69108" lon="4.59813">
        <ele>500</ele>
        <time>2026-08-26T08:38:48Z</time>
      </trkpt>
      <trkpt lat="45.69108" lon="4.5981">
        <ele>500.2</ele>
        <time>2026-08-26T08:38:49Z</time>
      </trkpt>
      <trkpt lat="45.69108" lon="4.59807">
        <ele>500.4</ele>
        <time>2026-08-26T08:38:50Z</time>
      </trkpt>
      <trkpt lat="45.69108" lon="4.59804">
        <ele>500.6</ele>
        <time>2026-08-26T08:38:51Z</time>
      </trkpt>
      <trkpt lat="45.69107" lon="4.59801">
        <ele>500.8</ele>
        <time>2026-08-26T08:38:52Z</time>
      </trkpt>
      <trkpt lat="45.69107" lon="4.59799">
        <ele>500.8</ele>
        <time>2026-08-26T08:38:53Z</time>
      </trkpt>
      <trkpt lat="45.69106" lon="4.59796">
        <ele>501</ele>
        <time>2026-08-26T08:38:54Z</time>
      </trkpt>
      <trkpt lat="45.69106" lon="4.59793">
        <ele>501.2</ele>
        <time>2026-08-26T08:38:55Z</time>
      </trkpt>
      <trkpt lat="45.69106" lon="4.5979">
        <ele>501.4</ele>
        <time>2026-08-26T08:38:56Z</time>
      </trkpt>
      <trkpt lat="45.69105" lon="4.59788">
        <ele>501.6</ele>
        <time>2026-08-26T08:38:57Z</time>
      </trkpt>
      <trkpt lat="45.69105" lon="4.59785">
        <ele>501.8</ele>
        <time>2026-08-26T08:38:58Z</time>
      </trkpt>
      <trkpt lat="45.69105" lon="4.59782">
        <ele>501.8</ele>
        <time>2026-08-26T08:38:59Z</time>
      </trkpt>
      <trkpt lat="45.69106" lon="4.5978">
        <ele>502</ele>
        <time>2026-08-26T08:39:00Z</time>
      </trkpt>
      <trkpt lat="45.69106" lon="4.59778">
        <ele>502.2</ele>
        <time>2026-08-26T08:39:01Z</time>
      </trkpt>
      <trkpt lat="45.69107" lon="4.59775">
        <ele>502.4</ele>
        <time>2026-08-26T08:39:02Z</time>
      </trkpt>
      <trkpt lat="45.69108" lon="4.59773">
        <ele>502.4</ele>
        <time>2026-08-26T08:39:03Z</time>
      </trkpt>
      <trkpt lat="45.6911" lon="4.59772">
        <ele>502.6</ele>
        <time>2026-08-26T08:39:04Z</time>
      </trkpt>
      <trkpt lat="45.69111" lon="4.59769">
        <ele>502.8</ele>
        <time>2026-08-26T08:39:05Z</time>
      </trkpt>
      <trkpt lat="45.69114" lon="4.59767">
        <ele>502.8</ele>
        <time>2026-08-26T08:39:06Z</time>
      </trkpt>
      <trkpt lat="45.69116" lon="4.59766">
        <ele>503</ele>
        <time>2026-08-26T08:39:07Z</time>
      </trkpt>
      <trkpt lat="45.69118" lon="4.59765">
        <ele>503</ele>
        <time>2026-08-26T08:39:08Z</time>
      </trkpt>
      <trkpt lat="45.6912" lon="4.59764">
        <ele>503.2</ele>
        <time>2026-08-26T08:39:09Z</time>
      </trkpt>
      <trkpt lat="45.69123" lon="4.59764">
        <ele>503.2</ele>
        <time>2026-08-26T08:39:10Z</time>
      </trkpt>
      <trkpt lat="45.69125" lon="4.59764">
        <ele>503.4</ele>
        <time>2026-08-26T08:39:11Z</time>
      </trkpt>
      <trkpt lat="45.69127" lon="4.59764">
        <ele>503.4</ele>
        <time>2026-08-26T08:39:12Z</time>
      </trkpt>
      <trkpt lat="45.69129" lon="4.59764">
        <ele>503.6</ele>
        <time>2026-08-26T08:39:13Z</time>
      </trkpt>
      <trkpt lat="45.69132" lon="4.59763">
        <ele>503.6</ele>
        <time>2026-08-26T08:39:14Z</time>
      </trkpt>
      <trkpt lat="45.69134" lon="4.59764">
        <ele>503.8</ele>
        <time>2026-08-26T08:39:15Z</time>
      </trkpt>
      <trkpt lat="45.69136" lon="4.59764">
        <ele>504</ele>
        <time>2026-08-26T08:39:16Z</time>
      </trkpt>
      <trkpt lat="45.69138" lon="4.59764">
        <ele>504</ele>
        <time>2026-08-26T08:39:17Z</time>
      </trkpt>
      <trkpt lat="45.6914" lon="4.59765">
        <ele>504.2</ele>
        <time>2026-08-26T08:39:18Z</time>
      </trkpt>
      <trkpt lat="45.69141" lon="4.59765">
        <ele>504.4</ele>
        <time>2026-08-26T08:39:19Z</time>
      </trkpt>
      <trkpt lat="45.69143" lon="4.59766">
        <ele>504.4</ele>
        <time>2026-08-26T08:39:20Z</time>
      </trkpt>
      <trkpt lat="45.69145" lon="4.59766">
        <ele>504.6</ele>
        <time>2026-08-26T08:39:21Z</time>
      </trkpt>
      <trkpt lat="45.69147" lon="4.59766">
        <ele>504.8</ele>
        <time>2026-08-26T08:39:22Z</time>
      </trkpt>
      <trkpt lat="45.69149" lon="4.59767">
        <ele>504.8</ele>
        <time>2026-08-26T08:39:23Z</time>
      </trkpt>
      <trkpt lat="45.69151" lon="4.59767">
        <ele>505</ele>
        <time>2026-08-26T08:39:24Z</time>
      </trkpt>
      <trkpt lat="45.69153" lon="4.59768">
        <ele>505.2</ele>
        <time>2026-08-26T08:39:25Z</time>
      </trkpt>
      <trkpt lat="45.69155" lon="4.59768">
        <ele>505.4</ele>
        <time>2026-08-26T08:39:26Z</time>
      </trkpt>
      <trkpt lat="45.69157" lon="4.59768">
        <ele>505.6</ele>
        <time>2026-08-26T08:39:27Z</time>
      </trkpt>
      <trkpt lat="45.69159" lon="4.59769">
        <ele>505.6</ele>
        <time>2026-08-26T08:39:28Z</time>
      </trkpt>
      <trkpt lat="45.69161" lon="4.59769">
        <ele>505.8</ele>
        <time>2026-08-26T08:39:29Z</time>
      </trkpt>
      <trkpt lat="45.69163" lon="4.59769">
        <ele>506</ele>
        <time>2026-08-26T08:39:30Z</time>
      </trkpt>
      <trkpt lat="45.69165" lon="4.59769">
        <ele>506.2</ele>
        <time>2026-08-26T08:39:31Z</time>
      </trkpt>
      <trkpt lat="45.69167" lon="4.5977">
        <ele>506.2</ele>
        <time>2026-08-26T08:39:32Z</time>
      </trkpt>
      <trkpt lat="45.69169" lon="4.5977">
        <ele>506.4</ele>
        <time>2026-08-26T08:39:33Z</time>
      </trkpt>
      <trkpt lat="45.69171" lon="4.59771">
        <ele>506.6</ele>
        <time>2026-08-26T08:39:34Z</time>
      </trkpt>
      <trkpt lat="45.69173" lon="4.59771">
        <ele>506.8</ele>
        <time>2026-08-26T08:39:35Z</time>
      </trkpt>
      <trkpt lat="45.69175" lon="4.59772">
        <ele>506.8</ele>
        <time>2026-08-26T08:39:36Z</time>
      </trkpt>
      <trkpt lat="45.69177" lon="4.59772">
        <ele>507</ele>
        <time>2026-08-26T08:39:37Z</time>
      </trkpt>
      <trkpt lat="45.69179" lon="4.59772">
        <ele>507.2</ele>
        <time>2026-08-26T08:39:38Z</time>
      </trkpt>
      <trkpt lat="45.69181" lon="4.59773">
        <ele>507.4</ele>
        <time>2026-08-26T08:39:39Z</time>
      </trkpt>
      <trkpt lat="45.69183" lon="4.59774">
        <ele>507.4</ele>
        <time>2026-08-26T08:39:40Z</time>
      </trkpt>
      <trkpt lat="45.69186" lon="4.59774">
        <ele>507.6</ele>
        <time>2026-08-26T08:39:41Z</time>
      </trkpt>
      <trkpt lat="45.69188" lon="4.59774">
        <ele>507.8</ele>
        <time>2026-08-26T08:39:42Z</time>
      </trkpt>
      <trkpt lat="45.6919" lon="4.59774">
        <ele>508</ele>
        <time>2026-08-26T08:39:43Z</time>
      </trkpt>
      <trkpt lat="45.69192" lon="4.59775">
        <ele>508.2</ele>
        <time>2026-08-26T08:39:44Z</time>
      </trkpt>
      <trkpt lat="45.69194" lon="4.59775">
        <ele>508.4</ele>
        <time>2026-08-26T08:39:45Z</time>
      </trkpt>
      <trkpt lat="45.69196" lon="4.59776">
        <ele>508.4</ele>
        <time>2026-08-26T08:39:46Z</time>
      </trkpt>
      <trkpt lat="45.69198" lon="4.59776">
        <ele>508.6</ele>
        <time>2026-08-26T08:39:47Z</time>
      </trkpt>
      <trkpt lat="45.692" lon="4.59776">
        <ele>508.8</ele>
        <time>2026-08-26T08:39:48Z</time>
      </trkpt>
      <trkpt lat="45.69202" lon="4.59776">
        <ele>508.8</ele>
        <time>2026-08-26T08:39:49Z</time>
      </trkpt>
      <trkpt lat="45.69204" lon="4.59777">
        <ele>509</ele>
        <time>2026-08-26T08:39:50Z</time>
      </trkpt>
      <trkpt lat="45.69207" lon="4.59778">
        <ele>509.2</ele>
        <time>2026-08-26T08:39:51Z</time>
      </trkpt>
      <trkpt lat="45.69209" lon="4.59779">
        <ele>509.4</ele>
        <time>2026-08-26T08:39:52Z</time>
      </trkpt>
      <trkpt lat="45.69211" lon="4.59779">
        <ele>509.4</ele>
        <time>2026-08-26T08:39:53Z</time>
      </trkpt>
      <trkpt lat="45.69213" lon="4.5978">
        <ele>509.6</ele>
        <time>2026-08-26T08:39:54Z</time>
      </trkpt>
      <trkpt lat="45.69215" lon="4.5978">
        <ele>509.6</ele>
        <time>2026-08-26T08:39:55Z</time>
      </trkpt>
      <trkpt lat="45.69217" lon="4.59781">
        <ele>509.8</ele>
        <time>2026-08-26T08:39:56Z</time>
      </trkpt>
      <trkpt lat="45.69219" lon="4.59781">
        <ele>510</ele>
        <time>2026-08-26T08:39:57Z</time>
      </trkpt>
      <trkpt lat="45.69222" lon="4.59782">
        <ele>510.2</ele>
        <time>2026-08-26T08:39:58Z</time>
      </trkpt>
      <trkpt lat="45.69224" lon="4.59782">
        <ele>510.2</ele>
        <time>2026-08-26T08:39:59Z</time>
      </trkpt>
      <trkpt lat="45.69226" lon="4.59782">
        <ele>510.4</ele>
        <time>2026-08-26T08:40:00Z</time>
      </trkpt>
      <trkpt lat="45.69228" lon="4.59783">
        <ele>510.6</ele>
        <time>2026-08-26T08:40:01Z</time>
      </trkpt>
      <trkpt lat="45.6923" lon="4.59783">
        <ele>510.8</ele>
        <time>2026-08-26T08:40:02Z</time>
      </trkpt>
      <trkpt lat="45.69232" lon="4.59784">
        <ele>510.8</ele>
        <time>2026-08-26T08:40:03Z</time>
      </trkpt>
      <trkpt lat="45.69234" lon="4.59784">
        <ele>511</ele>
        <time>2026-08-26T08:40:04Z</time>
      </trkpt>
      <trkpt lat="45.69236" lon="4.59785">
        <ele>511.2</ele>
        <time>2026-08-26T08:40:05Z</time>
      </trkpt>
      <trkpt lat="45.69238" lon="4.59786">
        <ele>511.4</ele>
        <time>2026-08-26T08:40:06Z</time>
      </trkpt>
      <trkpt lat="45.6924" lon="4.59786">
        <ele>511.4</ele>
        <time>2026-08-26T08:40:07Z</time>
      </trkpt>
      <trkpt lat="45.69242" lon="4.59787">
        <ele>511.6</ele>
        <time>2026-08-26T08:40:08Z</time>
      </trkpt>
      <trkpt lat="45.69243" lon="4.59787">
        <ele>511.8</ele>
        <time>2026-08-26T08:40:09Z</time>
      </trkpt>
      <trkpt lat="45.69245" lon="4.59787">
        <ele>511.8</ele>
        <time>2026-08-26T08:40:10Z</time>
      </trkpt>
      <trkpt lat="45.69247" lon="4.59788">
        <ele>512</ele>
        <time>2026-08-26T08:40:11Z</time>
      </trkpt>
      <trkpt lat="45.69248" lon="4.59788">
        <ele>512.2</ele>
        <time>2026-08-26T08:40:12Z</time>
      </trkpt>
      <trkpt lat="45.6925" lon="4.59789">
        <ele>512.4</ele>
        <time>2026-08-26T08:40:13Z</time>
      </trkpt>
      <trkpt lat="45.69252" lon="4.59789">
        <ele>512.6</ele>
        <time>2026-08-26T08:40:14Z</time>
      </trkpt>
      <trkpt lat="45.69254" lon="4.59789">
        <ele>512.6</ele>
        <time>2026-08-26T08:40:15Z</time>
      </trkpt>
      <trkpt lat="45.69257" lon="4.59789">
        <ele>512.8</ele>
        <time>2026-08-26T08:40:16Z</time>
      </trkpt>
      <trkpt lat="45.69259" lon="4.59789">
        <ele>513</ele>
        <time>2026-08-26T08:40:17Z</time>
      </trkpt>
      <trkpt lat="45.69261" lon="4.59788">
        <ele>513.2</ele>
        <time>2026-08-26T08:40:18Z</time>
      </trkpt>
      <trkpt lat="45.69263" lon="4.59788">
        <ele>513.4</ele>
        <time>2026-08-26T08:40:19Z</time>
      </trkpt>
      <trkpt lat="45.69265" lon="4.59786">
        <ele>513.4</ele>
        <time>2026-08-26T08:40:20Z</time>
      </trkpt>
      <trkpt lat="45.69267" lon="4.59785">
        <ele>513.6</ele>
        <time>2026-08-26T08:40:21Z</time>
      </trkpt>
      <trkpt lat="45.69268" lon="4.59784">
        <ele>513.8</ele>
        <time>2026-08-26T08:40:22Z</time>
      </trkpt>
      <trkpt lat="45.6927" lon="4.59782">
        <ele>514</ele>
        <time>2026-08-26T08:40:23Z</time>
      </trkpt>
      <trkpt lat="45.69272" lon="4.59781">
        <ele>514.2</ele>
        <time>2026-08-26T08:40:24Z</time>
      </trkpt>
      <trkpt lat="45.69273" lon="4.59779">
        <ele>514.4</ele>
        <time>2026-08-26T08:40:25Z</time>
      </trkpt>
      <trkpt lat="45.69275" lon="4.59778">
        <ele>514.6</ele>
        <time>2026-08-26T08:40:26Z</time>
      </trkpt>
      <trkpt lat="45.69276" lon="4.59776">
        <ele>514.8</ele>
        <time>2026-08-26T08:40:27Z</time>
      </trkpt>
      <trkpt lat="45.69277" lon="4.59774">
        <ele>515</ele>
        <time>2026-08-26T08:40:28Z</time>
      </trkpt>
      <trkpt lat="45.69278" lon="4.59771">
        <ele>515.2</ele>
        <time>2026-08-26T08:40:29Z</time>
      </trkpt>
      <trkpt lat="45.69279" lon="4.59769">
        <ele>515.4</ele>
        <time>2026-08-26T08:40:30Z</time>
      </trkpt>
      <trkpt lat="45.6928" lon="4.59766">
        <ele>515.6</ele>
        <time>2026-08-26T08:40:31Z</time>
      </trkpt>
      <trkpt lat="45.69281" lon="4.59764">
        <ele>515.6</ele>
        <time>2026-08-26T08:40:32Z</time>
      </trkpt>
      <trkpt lat="45.69282" lon="4.59762">
        <ele>515.8</ele>
        <time>2026-08-26T08:40:33Z</time>
      </trkpt>
      <trkpt lat="45.69283" lon="4.59759">
        <ele>516</ele>
        <time>2026-08-26T08:40:34Z</time>
      </trkpt>
      <trkpt lat="45.69284" lon="4.59757">
        <ele>516.2</ele>
        <time>2026-08-26T08:40:35Z</time>
      </trkpt>
      <trkpt lat="45.69284" lon="4.59754">
        <ele>516.2</ele>
        <time>2026-08-26T08:40:36Z</time>
      </trkpt>
      <trkpt lat="45.69285" lon="4.59751">
        <ele>516.4</ele>
        <time>2026-08-26T08:40:37Z</time>
      </trkpt>
      <trkpt lat="45.69285" lon="4.59748">
        <ele>516.6</ele>
        <time>2026-08-26T08:40:38Z</time>
      </trkpt>
      <trkpt lat="45.69286" lon="4.59746">
        <ele>516.8</ele>
        <time>2026-08-26T08:40:39Z</time>
      </trkpt>
      <trkpt lat="45.69286" lon="4.59743">
        <ele>516.8</ele>
        <time>2026-08-26T08:40:40Z</time>
      </trkpt>
      <trkpt lat="45.69286" lon="4.5974">
        <ele>517</ele>
        <time>2026-08-26T08:40:41Z</time>
      </trkpt>
      <trkpt lat="45.69287" lon="4.59737">
        <ele>517.2</ele>
        <time>2026-08-26T08:40:42Z</time>
      </trkpt>
      <trkpt lat="45.69286" lon="4.59734">
        <ele>517.2</ele>
        <time>2026-08-26T08:40:43Z</time>
      </trkpt>
      <trkpt lat="45.69286" lon="4.59731">
        <ele>517.4</ele>
        <time>2026-08-26T08:40:44Z</time>
      </trkpt>
      <trkpt lat="45.69286" lon="4.59728">
        <ele>517.6</ele>
        <time>2026-08-26T08:40:45Z</time>
      </trkpt>
      <trkpt lat="45.69286" lon="4.59725">
        <ele>517.8</ele>
        <time>2026-08-26T08:40:46Z</time>
      </trkpt>
      <trkpt lat="45.69286" lon="4.59721">
        <ele>517.8</ele>
        <time>2026-08-26T08:40:47Z</time>
      </trkpt>
      <trkpt lat="45.69285" lon="4.59718">
        <ele>518</ele>
        <time>2026-08-26T08:40:48Z</time>
      </trkpt>
      <trkpt lat="45.69285" lon="4.59715">
        <ele>518</ele>
        <time>2026-08-26T08:40:49Z</time>
      </trkpt>
      <trkpt lat="45.69285" lon="4.59712">
        <ele>518.2</ele>
        <time>2026-08-26T08:40:50Z</time>
      </trkpt>
      <trkpt lat="45.69285" lon="4.59709">
        <ele>518.4</ele>
        <time>2026-08-26T08:40:51Z</time>
      </trkpt>
      <trkpt lat="45.69284" lon="4.59706">
        <ele>518.4</ele>
        <time>2026-08-26T08:40:52Z</time>
      </trkpt>
      <trkpt lat="45.69284" lon="4.59703">
        <ele>518.6</ele>
        <time>2026-08-26T08:40:53Z</time>
      </trkpt>
      <trkpt lat="45.69284" lon="4.597">
        <ele>518.8</ele>
        <time>2026-08-26T08:40:54Z</time>
      </trkpt>
      <trkpt lat="45.69284" lon="4.59697">
        <ele>519</ele>
        <time>2026-08-26T08:40:55Z</time>
      </trkpt>
      <trkpt lat="45.69284" lon="4.59694">
        <ele>519</ele>
        <time>2026-08-26T08:40:56Z</time>
      </trkpt>
      <trkpt lat="45.69283" lon="4.59691">
        <ele>519.2</ele>
        <time>2026-08-26T08:40:57Z</time>
      </trkpt>
      <trkpt lat="45.69283" lon="4.59688">
        <ele>519.4</ele>
        <time>2026-08-26T08:40:58Z</time>
      </trkpt>
      <trkpt lat="45.69282" lon="4.59685">
        <ele>519.6</ele>
        <time>2026-08-26T08:40:59Z</time>
      </trkpt>
      <trkpt lat="45.69282" lon="4.59682">
        <ele>519.8</ele>
        <time>2026-08-26T08:41:00Z</time>
      </trkpt>
      <trkpt lat="45.69282" lon="4.5968">
        <ele>519.8</ele>
        <time>2026-08-26T08:41:01Z</time>
      </trkpt>
      <trkpt lat="45.69282" lon="4.59677">
        <ele>520</ele>
        <time>2026-08-26T08:41:02Z</time>
      </trkpt>
      <trkpt lat="45.69282" lon="4.59674">
        <ele>520.2</ele>
        <time>2026-08-26T08:41:03Z</time>
      </trkpt>
      <trkpt lat="45.69282" lon="4.59671">
        <ele>520.4</ele>
        <time>2026-08-26T08:41:04Z</time>
      </trkpt>
      <trkpt lat="45.69282" lon="4.59668">
        <ele>520.4</ele>
        <time>2026-08-26T08:41:05Z</time>
      </trkpt>
      <trkpt lat="45.69281" lon="4.59666">
        <ele>520.6</ele>
        <time>2026-08-26T08:41:06Z</time>
      </trkpt>
      <trkpt lat="45.69281" lon="4.59664">
        <ele>520.8</ele>
        <time>2026-08-26T08:41:07Z</time>
      </trkpt>
      <trkpt lat="45.69281" lon="4.59661">
        <ele>521</ele>
        <time>2026-08-26T08:41:08Z</time>
      </trkpt>
      <trkpt lat="45.69281" lon="4.59658">
        <ele>521</ele>
        <time>2026-08-26T08:41:09Z</time>
      </trkpt>
      <trkpt lat="45.69281" lon="4.59656">
        <ele>521.2</ele>
        <time>2026-08-26T08:41:10Z</time>
      </trkpt>
      <trkpt lat="45.69281" lon="4.59653">
        <ele>521.4</ele>
        <time>2026-08-26T08:41:11Z</time>
      </trkpt>
      <trkpt lat="45.69281" lon="4.5965">
        <ele>521.6</ele>
        <time>2026-08-26T08:41:12Z</time>
      </trkpt>
      <trkpt lat="45.6928" lon="4.59648">
        <ele>521.8</ele>
        <time>2026-08-26T08:41:13Z</time>
      </trkpt>
      <trkpt lat="45.6928" lon="4.59645">
        <ele>522</ele>
        <time>2026-08-26T08:41:14Z</time>
      </trkpt>
      <trkpt lat="45.69279" lon="4.59643">
        <ele>522</ele>
        <time>2026-08-26T08:41:15Z</time>
      </trkpt>
      <trkpt lat="45.6928" lon="4.5964">
        <ele>522.2</ele>
        <time>2026-08-26T08:41:16Z</time>
      </trkpt>
      <trkpt lat="45.6928" lon="4.59637">
        <ele>522.4</ele>
        <time>2026-08-26T08:41:17Z</time>
      </trkpt>
      <trkpt lat="45.6928" lon="4.59635">
        <ele>522.6</ele>
        <time>2026-08-26T08:41:18Z</time>
      </trkpt>
      <trkpt lat="45.6928" lon="4.59632">
        <ele>523</ele>
        <time>2026-08-26T08:41:19Z</time>
      </trkpt>
      <trkpt lat="45.6928" lon="4.5963">
        <ele>523.2</ele>
        <time>2026-08-26T08:41:20Z</time>
      </trkpt>
      <trkpt lat="45.69281" lon="4.59627">
        <ele>523.4</ele>
        <time>2026-08-26T08:41:21Z</time>
      </trkpt>
      <trkpt lat="45.69281" lon="4.59625">
        <ele>523.6</ele>
        <time>2026-08-26T08:41:22Z</time>
      </trkpt>
      <trkpt lat="45.69281" lon="4.59622">
        <ele>523.8</ele>
        <time>2026-08-26T08:41:23Z</time>
      </trkpt>
      <trkpt lat="45.69281" lon="4.5962">
        <ele>524</ele>
        <time>2026-08-26T08:41:24Z</time>
      </trkpt>
      <trkpt lat="45.69282" lon="4.59617">
        <ele>524</ele>
        <time>2026-08-26T08:41:25Z</time>
      </trkpt>
      <trkpt lat="45.69282" lon="4.59614">
        <ele>524.2</ele>
        <time>2026-08-26T08:41:26Z</time>
      </trkpt>
      <trkpt lat="45.69281" lon="4.59612">
        <ele>524.4</ele>
        <time>2026-08-26T08:41:27Z</time>
      </trkpt>
      <trkpt lat="45.69281" lon="4.59609">
        <ele>524.6</ele>
        <time>2026-08-26T08:41:28Z</time>
      </trkpt>
      <trkpt lat="45.69281" lon="4.59607">
        <ele>524.8</ele>
        <time>2026-08-26T08:41:29Z</time>
      </trkpt>
      <trkpt lat="45.69281" lon="4.59604">
        <ele>525</ele>
        <time>2026-08-26T08:41:30Z</time>
      </trkpt>
      <trkpt lat="45.69281" lon="4.59602">
        <ele>525.2</ele>
        <time>2026-08-26T08:41:31Z</time>
      </trkpt>
      <trkpt lat="45.69281" lon="4.59599">
        <ele>525.4</ele>
        <time>2026-08-26T08:41:32Z</time>
      </trkpt>
      <trkpt lat="45.69282" lon="4.59597">
        <ele>525.6</ele>
        <time>2026-08-26T08:41:33Z</time>
      </trkpt>
      <trkpt lat="45.69282" lon="4.59594">
        <ele>525.8</ele>
        <time>2026-08-26T08:41:34Z</time>
      </trkpt>
      <trkpt lat="45.69282" lon="4.59592">
        <ele>526</ele>
        <time>2026-08-26T08:41:35Z</time>
      </trkpt>
      <trkpt lat="45.69282" lon="4.5959">
        <ele>526.2</ele>
        <time>2026-08-26T08:41:36Z</time>
      </trkpt>
      <trkpt lat="45.69282" lon="4.59588">
        <ele>526.4</ele>
        <time>2026-08-26T08:41:37Z</time>
      </trkpt>
      <trkpt lat="45.69282" lon="4.59585">
        <ele>526.4</ele>
        <time>2026-08-26T08:41:38Z</time>
      </trkpt>
      <trkpt lat="45.69282" lon="4.59583">
        <ele>526.6</ele>
        <time>2026-08-26T08:41:39Z</time>
      </trkpt>
      <trkpt lat="45.69282" lon="4.5958">
        <ele>526.8</ele>
        <time>2026-08-26T08:41:40Z</time>
      </trkpt>
      <trkpt lat="45.69282" lon="4.59577">
        <ele>527</ele>
        <time>2026-08-26T08:41:41Z</time>
      </trkpt>
      <trkpt lat="45.69283" lon="4.59575">
        <ele>527.4</ele>
        <time>2026-08-26T08:41:42Z</time>
      </trkpt>
      <trkpt lat="45.69283" lon="4.59572">
        <ele>527.4</ele>
        <time>2026-08-26T08:41:43Z</time>
      </trkpt>
      <trkpt lat="45.69284" lon="4.5957">
        <ele>527.6</ele>
        <time>2026-08-26T08:41:44Z</time>
      </trkpt>
      <trkpt lat="45.69284" lon="4.59567">
        <ele>527.8</ele>
        <time>2026-08-26T08:41:45Z</time>
      </trkpt>
      <trkpt lat="45.69284" lon="4.59565">
        <ele>528</ele>
        <time>2026-08-26T08:41:46Z</time>
      </trkpt>
      <trkpt lat="45.69284" lon="4.59563">
        <ele>528.2</ele>
        <time>2026-08-26T08:41:47Z</time>
      </trkpt>
      <trkpt lat="45.69285" lon="4.59561">
        <ele>528.4</ele>
        <time>2026-08-26T08:41:48Z</time>
      </trkpt>
      <trkpt lat="45.69285" lon="4.59558">
        <ele>528.6</ele>
        <time>2026-08-26T08:41:49Z</time>
      </trkpt>
      <trkpt lat="45.69285" lon="4.59556">
        <ele>528.8</ele>
        <time>2026-08-26T08:41:50Z</time>
      </trkpt>
      <trkpt lat="45.69285" lon="4.59554">
        <ele>529</ele>
        <time>2026-08-26T08:41:51Z</time>
      </trkpt>
      <trkpt lat="45.69285" lon="4.59552">
        <ele>529.2</ele>
        <time>2026-08-26T08:41:52Z</time>
      </trkpt>
      <trkpt lat="45.69285" lon="4.5955">
        <ele>529.2</ele>
        <time>2026-08-26T08:41:53Z</time>
      </trkpt>
      <trkpt lat="45.69285" lon="4.59548">
        <ele>529.4</ele>
        <time>2026-08-26T08:41:54Z</time>
      </trkpt>
      <trkpt lat="45.69285" lon="4.59545">
        <ele>529.6</ele>
        <time>2026-08-26T08:41:55Z</time>
      </trkpt>
      <trkpt lat="45.69285" lon="4.59543">
        <ele>529.8</ele>
        <time>2026-08-26T08:41:56Z</time>
      </trkpt>
      <trkpt lat="45.69285" lon="4.59541">
        <ele>530</ele>
        <time>2026-08-26T08:41:57Z</time>
      </trkpt>
      <trkpt lat="45.69286" lon="4.59539">
        <ele>530.2</ele>
        <time>2026-08-26T08:41:58Z</time>
      </trkpt>
      <trkpt lat="45.69286" lon="4.59536">
        <ele>530.4</ele>
        <time>2026-08-26T08:41:59Z</time>
      </trkpt>
      <trkpt lat="45.69286" lon="4.59534">
        <ele>530.6</ele>
        <time>2026-08-26T08:42:00Z</time>
      </trkpt>
      <trkpt lat="45.69287" lon="4.59532">
        <ele>530.8</ele>
        <time>2026-08-26T08:42:01Z</time>
      </trkpt>
      <trkpt lat="45.69287" lon="4.59531">
        <ele>530.8</ele>
        <time>2026-08-26T08:42:02Z</time>
      </trkpt>
      <trkpt lat="45.69287" lon="4.59528">
        <ele>531</ele>
        <time>2026-08-26T08:42:03Z</time>
      </trkpt>
      <trkpt lat="45.69287" lon="4.59526">
        <ele>531.2</ele>
        <time>2026-08-26T08:42:04Z</time>
      </trkpt>
      <trkpt lat="45.69288" lon="4.59523">
        <ele>531.4</ele>
        <time>2026-08-26T08:42:05Z</time>
      </trkpt>
      <trkpt lat="45.69288" lon="4.59521">
        <ele>531.6</ele>
        <time>2026-08-26T08:42:06Z</time>
      </trkpt>
      <trkpt lat="45.69288" lon="4.59518">
        <ele>531.8</ele>
        <time>2026-08-26T08:42:07Z</time>
      </trkpt>
      <trkpt lat="45.69289" lon="4.59516">
        <ele>531.8</ele>
        <time>2026-08-26T08:42:08Z</time>
      </trkpt>
      <trkpt lat="45.69289" lon="4.59513">
        <ele>532</ele>
        <time>2026-08-26T08:42:09Z</time>
      </trkpt>
      <trkpt lat="45.69288" lon="4.59511">
        <ele>532.2</ele>
        <time>2026-08-26T08:42:10Z</time>
      </trkpt>
      <trkpt lat="45.69288" lon="4.59509">
        <ele>532.4</ele>
        <time>2026-08-26T08:42:11Z</time>
      </trkpt>
      <trkpt lat="45.69289" lon="4.59507">
        <ele>532.6</ele>
        <time>2026-08-26T08:42:12Z</time>
      </trkpt>
      <trkpt lat="45.69289" lon="4.59505">
        <ele>532.8</ele>
        <time>2026-08-26T08:42:13Z</time>
      </trkpt>
      <trkpt lat="45.69289" lon="4.59502">
        <ele>533</ele>
        <time>2026-08-26T08:42:14Z</time>
      </trkpt>
      <trkpt lat="45.6929" lon="4.595">
        <ele>533</ele>
        <time>2026-08-26T08:42:15Z</time>
      </trkpt>
      <trkpt lat="45.69291" lon="4.59497">
        <ele>533.2</ele>
        <time>2026-08-26T08:42:16Z</time>
      </trkpt>
      <trkpt lat="45.69292" lon="4.59494">
        <ele>533.4</ele>
        <time>2026-08-26T08:42:17Z</time>
      </trkpt>
      <trkpt lat="45.69292" lon="4.59492">
        <ele>533.6</ele>
        <time>2026-08-26T08:42:18Z</time>
      </trkpt>
      <trkpt lat="45.69292" lon="4.59489">
        <ele>533.8</ele>
        <time>2026-08-26T08:42:19Z</time>
      </trkpt>
      <trkpt lat="45.69293" lon="4.59487">
        <ele>534</ele>
        <time>2026-08-26T08:42:20Z</time>
      </trkpt>
      <trkpt lat="45.69294" lon="4.59484">
        <ele>534.2</ele>
        <time>2026-08-26T08:42:21Z</time>
      </trkpt>
      <trkpt lat="45.69294" lon="4.59482">
        <ele>534.2</ele>
        <time>2026-08-26T08:42:22Z</time>
      </trkpt>
      <trkpt lat="45.69294" lon="4.59479">
        <ele>534.4</ele>
        <time>2026-08-26T08:42:23Z</time>
      </trkpt>
      <trkpt lat="45.69295" lon="4.59477">
        <ele>534.6</ele>
        <time>2026-08-26T08:42:24Z</time>
      </trkpt>
      <trkpt lat="45.69296" lon="4.59474">
        <ele>534.8</ele>
        <time>2026-08-26T08:42:25Z</time>
      </trkpt>
      <trkpt lat="45.69297" lon="4.59472">
        <ele>535</ele>
        <time>2026-08-26T08:42:26Z</time>
      </trkpt>
      <trkpt lat="45.69298" lon="4.59469">
        <ele>535.2</ele>
        <time>2026-08-26T08:42:27Z</time>
      </trkpt>
      <trkpt lat="45.693" lon="4.59466">
        <ele>535.4</ele>
        <time>2026-08-26T08:42:28Z</time>
      </trkpt>
      <trkpt lat="45.69301" lon="4.59464">
        <ele>535.6</ele>
        <time>2026-08-26T08:42:29Z</time>
      </trkpt>
      <trkpt lat="45.69301" lon="4.5946">
        <ele>535.6</ele>
        <time>2026-08-26T08:42:30Z</time>
      </trkpt>
      <trkpt lat="45.693" lon="4.59458">
        <ele>535.8</ele>
        <time>2026-08-26T08:42:31Z</time>
      </trkpt>
      <trkpt lat="45.69301" lon="4.59456">
        <ele>536</ele>
        <time>2026-08-26T08:42:32Z</time>
      </trkpt>
      <trkpt lat="45.693" lon="4.59454">
        <ele>536.2</ele>
        <time>2026-08-26T08:42:33Z</time>
      </trkpt>
      <trkpt lat="45.69299" lon="4.5945">
        <ele>536.4</ele>
        <time>2026-08-26T08:42:34Z</time>
      </trkpt>
      <trkpt lat="45.69299" lon="4.59447">
        <ele>536.6</ele>
        <time>2026-08-26T08:42:35Z</time>
      </trkpt>
      <trkpt lat="45.693" lon="4.59445">
        <ele>536.8</ele>
        <time>2026-08-26T08:42:36Z</time>
      </trkpt>
      <trkpt lat="45.69301" lon="4.59443">
        <ele>536.8</ele>
        <time>2026-08-26T08:42:37Z</time>
      </trkpt>
      <trkpt lat="45.69303" lon="4.5944">
        <ele>537</ele>
        <time>2026-08-26T08:42:38Z</time>
      </trkpt>
      <trkpt lat="45.69303" lon="4.59438">
        <ele>537.2</ele>
        <time>2026-08-26T08:42:39Z</time>
      </trkpt>
      <trkpt lat="45.69303" lon="4.59435">
        <ele>537.4</ele>
        <time>2026-08-26T08:42:40Z</time>
      </trkpt>
      <trkpt lat="45.69303" lon="4.59433">
        <ele>537.4</ele>
        <time>2026-08-26T08:42:41Z</time>
      </trkpt>
      <trkpt lat="45.69303" lon="4.5943">
        <ele>537.6</ele>
        <time>2026-08-26T08:42:42Z</time>
      </trkpt>
      <trkpt lat="45.69303" lon="4.59427">
        <ele>537.8</ele>
        <time>2026-08-26T08:42:43Z</time>
      </trkpt>
      <trkpt lat="45.69303" lon="4.59425">
        <ele>538</ele>
        <time>2026-08-26T08:42:44Z</time>
      </trkpt>
      <trkpt lat="45.69304" lon="4.59422">
        <ele>538.2</ele>
        <time>2026-08-26T08:42:45Z</time>
      </trkpt>
      <trkpt lat="45.69304" lon="4.5942">
        <ele>538.4</ele>
        <time>2026-08-26T08:42:46Z</time>
      </trkpt>
      <trkpt lat="45.69305" lon="4.59417">
        <ele>538.6</ele>
        <time>2026-08-26T08:42:47Z</time>
      </trkpt>
      <trkpt lat="45.69305" lon="4.59415">
        <ele>538.8</ele>
        <time>2026-08-26T08:42:48Z</time>
      </trkpt>
      <trkpt lat="45.69305" lon="4.59412">
        <ele>538.8</ele>
        <time>2026-08-26T08:42:49Z</time>
      </trkpt>
      <trkpt lat="45.69305" lon="4.5941">
        <ele>539</ele>
        <time>2026-08-26T08:42:50Z</time>
      </trkpt>
      <trkpt lat="45.69304" lon="4.59407">
        <ele>539.2</ele>
        <time>2026-08-26T08:42:51Z</time>
      </trkpt>
      <trkpt lat="45.69304" lon="4.59405">
        <ele>539.4</ele>
        <time>2026-08-26T08:42:52Z</time>
      </trkpt>
      <trkpt lat="45.69303" lon="4.59402">
        <ele>539.6</ele>
        <time>2026-08-26T08:42:53Z</time>
      </trkpt>
      <trkpt lat="45.69302" lon="4.594">
        <ele>539.6</ele>
        <time>2026-08-26T08:42:54Z</time>
      </trkpt>
      <trkpt lat="45.69301" lon="4.59398">
        <ele>539.8</ele>
        <time>2026-08-26T08:42:55Z</time>
      </trkpt>
      <trkpt lat="45.69301" lon="4.59395">
        <ele>540</ele>
        <time>2026-08-26T08:42:56Z</time>
      </trkpt>
      <trkpt lat="45.693" lon="4.59393">
        <ele>540.2</ele>
        <time>2026-08-26T08:42:57Z</time>
      </trkpt>
      <trkpt lat="45.693" lon="4.5939">
        <ele>540.4</ele>
        <time>2026-08-26T08:42:58Z</time>
      </trkpt>
      <trkpt lat="45.693" lon="4.59388">
        <ele>540.6</ele>
        <time>2026-08-26T08:42:59Z</time>
      </trkpt>
      <trkpt lat="45.69301" lon="4.59385">
        <ele>540.8</ele>
        <time>2026-08-26T08:43:00Z</time>
      </trkpt>
      <trkpt lat="45.693" lon="4.59383">
        <ele>541</ele>
        <time>2026-08-26T08:43:01Z</time>
      </trkpt>
      <trkpt lat="45.693" lon="4.5938">
        <ele>541</ele>
        <time>2026-08-26T08:43:02Z</time>
      </trkpt>
      <trkpt lat="45.693" lon="4.59377">
        <ele>541.2</ele>
        <time>2026-08-26T08:43:03Z</time>
      </trkpt>
      <trkpt lat="45.69299" lon="4.59375">
        <ele>541.4</ele>
        <time>2026-08-26T08:43:04Z</time>
      </trkpt>
      <trkpt lat="45.69299" lon="4.59372">
        <ele>541.4</ele>
        <time>2026-08-26T08:43:05Z</time>
      </trkpt>
      <trkpt lat="45.69299" lon="4.5937">
        <ele>541.6</ele>
        <time>2026-08-26T08:43:06Z</time>
      </trkpt>
      <trkpt lat="45.69298" lon="4.59367">
        <ele>541.8</ele>
        <time>2026-08-26T08:43:07Z</time>
      </trkpt>
      <trkpt lat="45.69298" lon="4.59364">
        <ele>542</ele>
        <time>2026-08-26T08:43:08Z</time>
      </trkpt>
      <trkpt lat="45.69299" lon="4.59361">
        <ele>542.2</ele>
        <time>2026-08-26T08:43:09Z</time>
      </trkpt>
      <trkpt lat="45.69299" lon="4.59359">
        <ele>542.2</ele>
        <time>2026-08-26T08:43:10Z</time>
      </trkpt>
      <trkpt lat="45.69299" lon="4.59356">
        <ele>542.4</ele>
        <time>2026-08-26T08:43:11Z</time>
      </trkpt>
      <trkpt lat="45.69299" lon="4.59354">
        <ele>542.6</ele>
        <time>2026-08-26T08:43:12Z</time>
      </trkpt>
      <trkpt lat="45.69299" lon="4.59351">
        <ele>542.8</ele>
        <time>2026-08-26T08:43:13Z</time>
      </trkpt>
      <trkpt lat="45.69299" lon="4.59349">
        <ele>543</ele>
        <time>2026-08-26T08:43:14Z</time>
      </trkpt>
      <trkpt lat="45.69299" lon="4.59346">
        <ele>543.2</ele>
        <time>2026-08-26T08:43:15Z</time>
      </trkpt>
      <trkpt lat="45.69299" lon="4.59344">
        <ele>543.4</ele>
        <time>2026-08-26T08:43:16Z</time>
      </trkpt>
      <trkpt lat="45.69298" lon="4.59342">
        <ele>543.4</ele>
        <time>2026-08-26T08:43:17Z</time>
      </trkpt>
      <trkpt lat="45.69298" lon="4.59339">
        <ele>543.6</ele>
        <time>2026-08-26T08:43:18Z</time>
      </trkpt>
      <trkpt lat="45.69298" lon="4.59337">
        <ele>543.8</ele>
        <time>2026-08-26T08:43:19Z</time>
      </trkpt>
      <trkpt lat="45.69299" lon="4.59334">
        <ele>544</ele>
        <time>2026-08-26T08:43:20Z</time>
      </trkpt>
      <trkpt lat="45.693" lon="4.59332">
        <ele>544.2</ele>
        <time>2026-08-26T08:43:21Z</time>
      </trkpt>
      <trkpt lat="45.693" lon="4.5933">
        <ele>544.4</ele>
        <time>2026-08-26T08:43:22Z</time>
      </trkpt>
      <trkpt lat="45.69301" lon="4.59328">
        <ele>544.6</ele>
        <time>2026-08-26T08:43:23Z</time>
      </trkpt>
      <trkpt lat="45.69301" lon="4.59325">
        <ele>544.8</ele>
        <time>2026-08-26T08:43:24Z</time>
      </trkpt>
      <trkpt lat="45.69302" lon="4.59323">
        <ele>545</ele>
        <time>2026-08-26T08:43:25Z</time>
      </trkpt>
      <trkpt lat="45.69303" lon="4.59321">
        <ele>545.2</ele>
        <time>2026-08-26T08:43:26Z</time>
      </trkpt>
      <trkpt lat="45.69304" lon="4.59319">
        <ele>545.2</ele>
        <time>2026-08-26T08:43:27Z</time>
      </trkpt>
      <trkpt lat="45.69305" lon="4.59318">
        <ele>545.4</ele>
        <time>2026-08-26T08:43:28Z</time>
      </trkpt>
      <trkpt lat="45.69307" lon="4.59317">
        <ele>545.6</ele>
        <time>2026-08-26T08:43:29Z</time>
      </trkpt>
      <trkpt lat="45.69308" lon="4.59316">
        <ele>545.8</ele>
        <time>2026-08-26T08:43:30Z</time>
      </trkpt>
      <trkpt lat="45.6931" lon="4.59315">
        <ele>546</ele>
        <time>2026-08-26T08:43:31Z</time>
      </trkpt>
      <trkpt lat="45.69311" lon="4.59315">
        <ele>546.2</ele>
        <time>2026-08-26T08:43:32Z</time>
      </trkpt>
      <trkpt lat="45.69313" lon="4.59314">
        <ele>546.4</ele>
        <time>2026-08-26T08:43:33Z</time>
      </trkpt>
      <trkpt lat="45.69314" lon="4.59314">
        <ele>546.6</ele>
        <time>2026-08-26T08:43:34Z</time>
      </trkpt>
      <trkpt lat="45.69316" lon="4.59314">
        <ele>546.8</ele>
        <time>2026-08-26T08:43:35Z</time>
      </trkpt>
      <trkpt lat="45.69318" lon="4.59313">
        <ele>547</ele>
        <time>2026-08-26T08:43:36Z</time>
      </trkpt>
      <trkpt lat="45.6932" lon="4.59314">
        <ele>547.2</ele>
        <time>2026-08-26T08:43:37Z</time>
      </trkpt>
      <trkpt lat="45.69321" lon="4.59314">
        <ele>547.4</ele>
        <time>2026-08-26T08:43:38Z</time>
      </trkpt>
      <trkpt lat="45.69323" lon="4.59315">
        <ele>547.6</ele>
        <time>2026-08-26T08:43:39Z</time>
      </trkpt>
      <trkpt lat="45.69325" lon="4.59316">
        <ele>547.8</ele>
        <time>2026-08-26T08:43:40Z</time>
      </trkpt>
      <trkpt lat="45.69327" lon="4.59317">
        <ele>548</ele>
        <time>2026-08-26T08:43:41Z</time>
      </trkpt>
      <trkpt lat="45.69329" lon="4.59317">
        <ele>548.2</ele>
        <time>2026-08-26T08:43:42Z</time>
      </trkpt>
      <trkpt lat="45.69331" lon="4.59318">
        <ele>548.2</ele>
        <time>2026-08-26T08:43:43Z</time>
      </trkpt>
      <trkpt lat="45.69332" lon="4.59319">
        <ele>548.4</ele>
        <time>2026-08-26T08:43:44Z</time>
      </trkpt>
      <trkpt lat="45.69334" lon="4.5932">
        <ele>548.6</ele>
        <time>2026-08-26T08:43:45Z</time>
      </trkpt>
      <trkpt lat="45.69335" lon="4.59321">
        <ele>548.8</ele>
        <time>2026-08-26T08:43:46Z</time>
      </trkpt>
      <trkpt lat="45.69337" lon="4.59321">
        <ele>549</ele>
        <time>2026-08-26T08:43:47Z</time>
      </trkpt>
      <trkpt lat="45.69339" lon="4.59322">
        <ele>549.2</ele>
        <time>2026-08-26T08:43:48Z</time>
      </trkpt>
      <trkpt lat="45.69341" lon="4.59323">
        <ele>549.2</ele>
        <time>2026-08-26T08:43:49Z</time>
      </trkpt>
      <trkpt lat="45.69342" lon="4.59324">
        <ele>549.4</ele>
        <time>2026-08-26T08:43:50Z</time>
      </trkpt>
      <trkpt lat="45.69344" lon="4.59325">
        <ele>549.6</ele>
        <time>2026-08-26T08:43:51Z</time>
      </trkpt>
      <trkpt lat="45.69346" lon="4.59325">
        <ele>549.8</ele>
        <time>2026-08-26T08:43:52Z</time>
      </trkpt>
      <trkpt lat="45.69348" lon="4.59325">
        <ele>550</ele>
        <time>2026-08-26T08:43:53Z</time>
      </trkpt>
      <trkpt lat="45.69349" lon="4.59326">
        <ele>550.2</ele>
        <time>2026-08-26T08:43:54Z</time>
      </trkpt>
      <trkpt lat="45.69351" lon="4.59326">
        <ele>550.4</ele>
        <time>2026-08-26T08:43:55Z</time>
      </trkpt>
      <trkpt lat="45.69353" lon="4.59327">
        <ele>550.6</ele>
        <time>2026-08-26T08:43:56Z</time>
      </trkpt>
      <trkpt lat="45.69355" lon="4.59327">
        <ele>550.6</ele>
        <time>2026-08-26T08:43:57Z</time>
      </trkpt>
      <trkpt lat="45.69357" lon="4.59326">
        <ele>550.8</ele>
        <time>2026-08-26T08:43:58Z</time>
      </trkpt>
      <trkpt lat="45.69358" lon="4.59326">
        <ele>551</ele>
        <time>2026-08-26T08:43:59Z</time>
      </trkpt>
      <trkpt lat="45.6936" lon="4.59325">
        <ele>551.2</ele>
        <time>2026-08-26T08:44:00Z</time>
      </trkpt>
      <trkpt lat="45.69362" lon="4.59325">
        <ele>551.4</ele>
        <time>2026-08-26T08:44:01Z</time>
      </trkpt>
      <trkpt lat="45.69364" lon="4.59324">
        <ele>551.4</ele>
        <time>2026-08-26T08:44:02Z</time>
      </trkpt>
      <trkpt lat="45.69366" lon="4.59324">
        <ele>551.6</ele>
        <time>2026-08-26T08:44:03Z</time>
      </trkpt>
      <trkpt lat="45.69367" lon="4.59324">
        <ele>551.8</ele>
        <time>2026-08-26T08:44:04Z</time>
      </trkpt>
      <trkpt lat="45.69369" lon="4.59323">
        <ele>552</ele>
        <time>2026-08-26T08:44:05Z</time>
      </trkpt>
      <trkpt lat="45.69371" lon="4.59322">
        <ele>552</ele>
        <time>2026-08-26T08:44:06Z</time>
      </trkpt>
      <trkpt lat="45.69372" lon="4.5932">
        <ele>552.2</ele>
        <time>2026-08-26T08:44:07Z</time>
      </trkpt>
      <trkpt lat="45.69374" lon="4.59319">
        <ele>552.4</ele>
        <time>2026-08-26T08:44:08Z</time>
      </trkpt>
      <trkpt lat="45.69375" lon="4.59318">
        <ele>552.6</ele>
        <time>2026-08-26T08:44:09Z</time>
      </trkpt>
      <trkpt lat="45.69377" lon="4.59317">
        <ele>552.8</ele>
        <time>2026-08-26T08:44:10Z</time>
      </trkpt>
      <trkpt lat="45.69378" lon="4.59315">
        <ele>553</ele>
        <time>2026-08-26T08:44:11Z</time>
      </trkpt>
      <trkpt lat="45.6938" lon="4.59314">
        <ele>553</ele>
        <time>2026-08-26T08:44:12Z</time>
      </trkpt>
      <trkpt lat="45.69381" lon="4.59312">
        <ele>553.2</ele>
        <time>2026-08-26T08:44:13Z</time>
      </trkpt>
      <trkpt lat="45.69383" lon="4.59311">
        <ele>553.4</ele>
        <time>2026-08-26T08:44:14Z</time>
      </trkpt>
      <trkpt lat="45.69384" lon="4.59309">
        <ele>553.6</ele>
        <time>2026-08-26T08:44:15Z</time>
      </trkpt>
      <trkpt lat="45.69386" lon="4.59307">
        <ele>553.8</ele>
        <time>2026-08-26T08:44:16Z</time>
      </trkpt>
      <trkpt lat="45.69387" lon="4.59305">
        <ele>554</ele>
        <time>2026-08-26T08:44:17Z</time>
      </trkpt>
      <trkpt lat="45.69389" lon="4.59303">
        <ele>554.2</ele>
        <time>2026-08-26T08:44:18Z</time>
      </trkpt>
      <trkpt lat="45.6939" lon="4.59301">
        <ele>554.4</ele>
        <time>2026-08-26T08:44:19Z</time>
      </trkpt>
      <trkpt lat="45.69391" lon="4.59299">
        <ele>554.6</ele>
        <time>2026-08-26T08:44:20Z</time>
      </trkpt>
      <trkpt lat="45.69392" lon="4.59297">
        <ele>554.8</ele>
        <time>2026-08-26T08:44:21Z</time>
      </trkpt>
      <trkpt lat="45.69393" lon="4.59294">
        <ele>555</ele>
        <time>2026-08-26T08:44:22Z</time>
      </trkpt>
      <trkpt lat="45.69394" lon="4.59292">
        <ele>555</ele>
        <time>2026-08-26T08:44:23Z</time>
      </trkpt>
      <trkpt lat="45.69395" lon="4.5929">
        <ele>555.2</ele>
        <time>2026-08-26T08:44:24Z</time>
      </trkpt>
      <trkpt lat="45.69396" lon="4.59287">
        <ele>555.4</ele>
        <time>2026-08-26T08:44:25Z</time>
      </trkpt>
      <trkpt lat="45.69397" lon="4.59284">
        <ele>555.6</ele>
        <time>2026-08-26T08:44:26Z</time>
      </trkpt>
      <trkpt lat="45.69397" lon="4.59282">
        <ele>555.8</ele>
        <time>2026-08-26T08:44:27Z</time>
      </trkpt>
      <trkpt lat="45.69399" lon="4.5928">
        <ele>555.8</ele>
        <time>2026-08-26T08:44:28Z</time>
      </trkpt>
      <trkpt lat="45.694" lon="4.59277">
        <ele>556</ele>
        <time>2026-08-26T08:44:29Z</time>
      </trkpt>
      <trkpt lat="45.694" lon="4.59275">
        <ele>556.2</ele>
        <time>2026-08-26T08:44:30Z</time>
      </trkpt>
      <trkpt lat="45.69401" lon="4.59272">
        <ele>556.2</ele>
        <time>2026-08-26T08:44:31Z</time>
      </trkpt>
      <trkpt lat="45.69402" lon="4.59269">
        <ele>556.4</ele>
        <time>2026-08-26T08:44:32Z</time>
      </trkpt>
      <trkpt lat="45.69402" lon="4.59267">
        <ele>556.6</ele>
        <time>2026-08-26T08:44:33Z</time>
      </trkpt>
      <trkpt lat="45.69403" lon="4.59264">
        <ele>556.8</ele>
        <time>2026-08-26T08:44:34Z</time>
      </trkpt>
      <trkpt lat="45.69404" lon="4.59262">
        <ele>557</ele>
        <time>2026-08-26T08:44:35Z</time>
      </trkpt>
      <trkpt lat="45.69405" lon="4.5926">
        <ele>557.2</ele>
        <time>2026-08-26T08:44:36Z</time>
      </trkpt>
      <trkpt lat="45.69407" lon="4.59257">
        <ele>557.4</ele>
        <time>2026-08-26T08:44:37Z</time>
      </trkpt>
      <trkpt lat="45.69408" lon="4.59255">
        <ele>557.4</ele>
        <time>2026-08-26T08:44:38Z</time>
      </trkpt>
      <trkpt lat="45.6941" lon="4.59253">
        <ele>557.6</ele>
        <time>2026-08-26T08:44:39Z</time>
      </trkpt>
      <trkpt lat="45.6941" lon="4.5925">
        <ele>557.8</ele>
        <time>2026-08-26T08:44:40Z</time>
      </trkpt>
      <trkpt lat="45.69411" lon="4.59248">
        <ele>558</ele>
        <time>2026-08-26T08:44:41Z</time>
      </trkpt>
      <trkpt lat="45.69411" lon="4.59245">
        <ele>558</ele>
        <time>2026-08-26T08:44:42Z</time>
      </trkpt>
      <trkpt lat="45.69412" lon="4.59242">
        <ele>558.2</ele>
        <time>2026-08-26T08:44:43Z</time>
      </trkpt>
      <trkpt lat="45.69413" lon="4.5924">
        <ele>558.4</ele>
        <time>2026-08-26T08:44:44Z</time>
      </trkpt>
      <trkpt lat="45.69414" lon="4.59238">
        <ele>558.6</ele>
        <time>2026-08-26T08:44:45Z</time>
      </trkpt>
      <trkpt lat="45.69416" lon="4.59236">
        <ele>558.8</ele>
        <time>2026-08-26T08:44:46Z</time>
      </trkpt>
      <trkpt lat="45.69417" lon="4.59234">
        <ele>559</ele>
        <time>2026-08-26T08:44:47Z</time>
      </trkpt>
      <trkpt lat="45.69418" lon="4.59231">
        <ele>559.2</ele>
        <time>2026-08-26T08:44:48Z</time>
      </trkpt>
      <trkpt lat="45.69419" lon="4.59229">
        <ele>559.4</ele>
        <time>2026-08-26T08:44:49Z</time>
      </trkpt>
      <trkpt lat="45.6942" lon="4.59227">
        <ele>559.6</ele>
        <time>2026-08-26T08:44:50Z</time>
      </trkpt>
      <trkpt lat="45.6942" lon="4.59224">
        <ele>559.8</ele>
        <time>2026-08-26T08:44:51Z</time>
      </trkpt>
      <trkpt lat="45.69421" lon="4.59222">
        <ele>560</ele>
        <time>2026-08-26T08:44:52Z</time>
      </trkpt>
      <trkpt lat="45.69422" lon="4.5922">
        <ele>560</ele>
        <time>2026-08-26T08:44:53Z</time>
      </trkpt>
      <trkpt lat="45.69423" lon="4.59218">
        <ele>560.2</ele>
        <time>2026-08-26T08:44:54Z</time>
      </trkpt>
      <trkpt lat="45.69424" lon="4.59215">
        <ele>560.4</ele>
        <time>2026-08-26T08:44:55Z</time>
      </trkpt>
      <trkpt lat="45.69425" lon="4.59213">
        <ele>560.6</ele>
        <time>2026-08-26T08:44:56Z</time>
      </trkpt>
      <trkpt lat="45.69426" lon="4.5921">
        <ele>560.8</ele>
        <time>2026-08-26T08:44:57Z</time>
      </trkpt>
      <trkpt lat="45.69426" lon="4.59208">
        <ele>560.8</ele>
        <time>2026-08-26T08:44:58Z</time>
      </trkpt>
      <trkpt lat="45.69427" lon="4.59206">
        <ele>561</ele>
        <time>2026-08-26T08:44:59Z</time>
      </trkpt>
      <trkpt lat="45.69428" lon="4.59204">
        <ele>561.2</ele>
        <time>2026-08-26T08:45:00Z</time>
      </trkpt>
      <trkpt lat="45.69429" lon="4.59202">
        <ele>561.4</ele>
        <time>2026-08-26T08:45:01Z</time>
      </trkpt>
      <trkpt lat="45.6943" lon="4.59199">
        <ele>561.6</ele>
        <time>2026-08-26T08:45:02Z</time>
      </trkpt>
      <trkpt lat="45.69431" lon="4.59197">
        <ele>561.8</ele>
        <time>2026-08-26T08:45:03Z</time>
      </trkpt>
      <trkpt lat="45.69432" lon="4.59194">
        <ele>561.8</ele>
        <time>2026-08-26T08:45:04Z</time>
      </trkpt>
      <trkpt lat="45.69432" lon="4.59192">
        <ele>562</ele>
        <time>2026-08-26T08:45:05Z</time>
      </trkpt>
      <trkpt lat="45.69433" lon="4.59189">
        <ele>562.2</ele>
        <time>2026-08-26T08:45:06Z</time>
      </trkpt>
      <trkpt lat="45.69434" lon="4.59187">
        <ele>562.4</ele>
        <time>2026-08-26T08:45:07Z</time>
      </trkpt>
      <trkpt lat="45.69434" lon="4.59185">
        <ele>562.4</ele>
        <time>2026-08-26T08:45:08Z</time>
      </trkpt>
      <trkpt lat="45.69434" lon="4.59182">
        <ele>562.6</ele>
        <time>2026-08-26T08:45:09Z</time>
      </trkpt>
      <trkpt lat="45.69435" lon="4.5918">
        <ele>562.8</ele>
        <time>2026-08-26T08:45:10Z</time>
      </trkpt>
      <trkpt lat="45.69435" lon="4.59177">
        <ele>563</ele>
        <time>2026-08-26T08:45:11Z</time>
      </trkpt>
      <trkpt lat="45.69436" lon="4.59175">
        <ele>563.2</ele>
        <time>2026-08-26T08:45:12Z</time>
      </trkpt>
      <trkpt lat="45.69437" lon="4.59173">
        <ele>563.4</ele>
        <time>2026-08-26T08:45:13Z</time>
      </trkpt>
      <trkpt lat="45.69438" lon="4.5917">
        <ele>563.6</ele>
        <time>2026-08-26T08:45:14Z</time>
      </trkpt>
      <trkpt lat="45.69438" lon="4.59168">
        <ele>563.6</ele>
        <time>2026-08-26T08:45:15Z</time>
      </trkpt>
      <trkpt lat="45.69439" lon="4.59166">
        <ele>563.8</ele>
        <time>2026-08-26T08:45:16Z</time>
      </trkpt>
      <trkpt lat="45.69439" lon="4.59164">
        <ele>564</ele>
        <time>2026-08-26T08:45:17Z</time>
      </trkpt>
      <trkpt lat="45.6944" lon="4.59161">
        <ele>564.2</ele>
        <time>2026-08-26T08:45:18Z</time>
      </trkpt>
      <trkpt lat="45.69441" lon="4.59159">
        <ele>564.4</ele>
        <time>2026-08-26T08:45:19Z</time>
      </trkpt>
      <trkpt lat="45.69442" lon="4.59157">
        <ele>564.6</ele>
        <time>2026-08-26T08:45:20Z</time>
      </trkpt>
      <trkpt lat="45.69442" lon="4.59155">
        <ele>564.6</ele>
        <time>2026-08-26T08:45:21Z</time>
      </trkpt>
      <trkpt lat="45.69443" lon="4.59152">
        <ele>564.8</ele>
        <time>2026-08-26T08:45:22Z</time>
      </trkpt>
      <trkpt lat="45.69443" lon="4.5915">
        <ele>565</ele>
        <time>2026-08-26T08:45:23Z</time>
      </trkpt>
      <trkpt lat="45.69444" lon="4.59147">
        <ele>565.2</ele>
        <time>2026-08-26T08:45:24Z</time>
      </trkpt>
      <trkpt lat="45.69445" lon="4.59145">
        <ele>565.4</ele>
        <time>2026-08-26T08:45:25Z</time>
      </trkpt>
      <trkpt lat="45.69445" lon="4.59143">
        <ele>565.6</ele>
        <time>2026-08-26T08:45:26Z</time>
      </trkpt>
      <trkpt lat="45.69445" lon="4.5914">
        <ele>565.6</ele>
        <time>2026-08-26T08:45:27Z</time>
      </trkpt>
      <trkpt lat="45.69445" lon="4.59138">
        <ele>565.8</ele>
        <time>2026-08-26T08:45:28Z</time>
      </trkpt>
      <trkpt lat="45.69445" lon="4.59135">
        <ele>565.8</ele>
        <time>2026-08-26T08:45:29Z</time>
      </trkpt>
      <trkpt lat="45.69445" lon="4.59133">
        <ele>566</ele>
        <time>2026-08-26T08:45:30Z</time>
      </trkpt>
      <trkpt lat="45.69444" lon="4.5913">
        <ele>566.2</ele>
        <time>2026-08-26T08:45:31Z</time>
      </trkpt>
      <trkpt lat="45.69444" lon="4.59127">
        <ele>566.4</ele>
        <time>2026-08-26T08:45:32Z</time>
      </trkpt>
      <trkpt lat="45.69445" lon="4.59125">
        <ele>566.6</ele>
        <time>2026-08-26T08:45:33Z</time>
      </trkpt>
      <trkpt lat="45.69445" lon="4.59122">
        <ele>566.6</ele>
        <time>2026-08-26T08:45:34Z</time>
      </trkpt>
      <trkpt lat="45.69445" lon="4.5912">
        <ele>566.8</ele>
        <time>2026-08-26T08:45:35Z</time>
      </trkpt>
      <trkpt lat="45.69445" lon="4.59117">
        <ele>567</ele>
        <time>2026-08-26T08:45:36Z</time>
      </trkpt>
      <trkpt lat="45.69444" lon="4.59114">
        <ele>567.2</ele>
        <time>2026-08-26T08:45:37Z</time>
      </trkpt>
      <trkpt lat="45.69444" lon="4.59112">
        <ele>567.4</ele>
        <time>2026-08-26T08:45:38Z</time>
      </trkpt>
      <trkpt lat="45.69443" lon="4.59109">
        <ele>567.6</ele>
        <time>2026-08-26T08:45:39Z</time>
      </trkpt>
      <trkpt lat="45.69443" lon="4.59107">
        <ele>567.6</ele>
        <time>2026-08-26T08:45:40Z</time>
      </trkpt>
      <trkpt lat="45.69443" lon="4.59104">
        <ele>567.8</ele>
        <time>2026-08-26T08:45:41Z</time>
      </trkpt>
      <trkpt lat="45.69443" lon="4.59102">
        <ele>568</ele>
        <time>2026-08-26T08:45:42Z</time>
      </trkpt>
      <trkpt lat="45.69443" lon="4.59099">
        <ele>568.2</ele>
        <time>2026-08-26T08:45:43Z</time>
      </trkpt>
      <trkpt lat="45.69443" lon="4.59097">
        <ele>568.4</ele>
        <time>2026-08-26T08:45:44Z</time>
      </trkpt>
      <trkpt lat="45.69442" lon="4.59094">
        <ele>568.4</ele>
        <time>2026-08-26T08:45:45Z</time>
      </trkpt>
      <trkpt lat="45.69442" lon="4.59091">
        <ele>568.6</ele>
        <time>2026-08-26T08:45:46Z</time>
      </trkpt>
      <trkpt lat="45.69441" lon="4.59089">
        <ele>568.8</ele>
        <time>2026-08-26T08:45:47Z</time>
      </trkpt>
      <trkpt lat="45.69441" lon="4.59087">
        <ele>569</ele>
        <time>2026-08-26T08:45:48Z</time>
      </trkpt>
      <trkpt lat="45.6944" lon="4.59084">
        <ele>569</ele>
        <time>2026-08-26T08:45:49Z</time>
      </trkpt>
      <trkpt lat="45.6944" lon="4.59081">
        <ele>569.2</ele>
        <time>2026-08-26T08:45:50Z</time>
      </trkpt>
      <trkpt lat="45.69439" lon="4.59079">
        <ele>569.4</ele>
        <time>2026-08-26T08:45:51Z</time>
      </trkpt>
      <trkpt lat="45.69438" lon="4.59077">
        <ele>569.6</ele>
        <time>2026-08-26T08:45:52Z</time>
      </trkpt>
      <trkpt lat="45.69437" lon="4.59075">
        <ele>569.6</ele>
        <time>2026-08-26T08:45:53Z</time>
      </trkpt>
      <trkpt lat="45.69436" lon="4.59073">
        <ele>569.8</ele>
        <time>2026-08-26T08:45:54Z</time>
      </trkpt>
      <trkpt lat="45.69435" lon="4.59071">
        <ele>570</ele>
        <time>2026-08-26T08:45:55Z</time>
      </trkpt>
      <trkpt lat="45.69435" lon="4.59069">
        <ele>570.2</ele>
        <time>2026-08-26T08:45:56Z</time>
      </trkpt>
      <trkpt lat="45.69434" lon="4.59067">
        <ele>570.4</ele>
        <time>2026-08-26T08:45:57Z</time>
      </trkpt>
      <trkpt lat="45.69433" lon="4.59065">
        <ele>570.6</ele>
        <time>2026-08-26T08:45:58Z</time>
      </trkpt>
      <trkpt lat="45.69431" lon="4.59064">
        <ele>570.8</ele>
        <time>2026-08-26T08:45:59Z</time>
      </trkpt>
      <trkpt lat="45.6943" lon="4.59062">
        <ele>571</ele>
        <time>2026-08-26T08:46:00Z</time>
      </trkpt>
      <trkpt lat="45.69429" lon="4.5906">
        <ele>571.2</ele>
        <time>2026-08-26T08:46:01Z</time>
      </trkpt>
      <trkpt lat="45.69428" lon="4.59057">
        <ele>571.2</ele>
        <time>2026-08-26T08:46:02Z</time>
      </trkpt>
      <trkpt lat="45.69427" lon="4.59055">
        <ele>571.4</ele>
        <time>2026-08-26T08:46:03Z</time>
      </trkpt>
      <trkpt lat="45.69426" lon="4.59053">
        <ele>571.6</ele>
        <time>2026-08-26T08:46:04Z</time>
      </trkpt>
      <trkpt lat="45.69425" lon="4.59051">
        <ele>571.8</ele>
        <time>2026-08-26T08:46:05Z</time>
      </trkpt>
      <trkpt lat="45.69424" lon="4.5905">
        <ele>572</ele>
        <time>2026-08-26T08:46:06Z</time>
      </trkpt>
      <trkpt lat="45.69422" lon="4.59049">
        <ele>572.2</ele>
        <time>2026-08-26T08:46:07Z</time>
      </trkpt>
      <trkpt lat="45.69421" lon="4.59048">
        <ele>572.4</ele>
        <time>2026-08-26T08:46:08Z</time>
      </trkpt>
      <trkpt lat="45.69419" lon="4.59046">
        <ele>572.6</ele>
        <time>2026-08-26T08:46:09Z</time>
      </trkpt>
      <trkpt lat="45.69417" lon="4.59045">
        <ele>572.6</ele>
        <time>2026-08-26T08:46:10Z</time>
      </trkpt>
      <trkpt lat="45.69416" lon="4.59044">
        <ele>572.8</ele>
        <time>2026-08-26T08:46:11Z</time>
      </trkpt>
      <trkpt lat="45.69415" lon="4.59042">
        <ele>573</ele>
        <time>2026-08-26T08:46:12Z</time>
      </trkpt>
      <trkpt lat="45.69413" lon="4.5904">
        <ele>573.2</ele>
        <time>2026-08-26T08:46:13Z</time>
      </trkpt>
      <trkpt lat="45.69412" lon="4.59039">
        <ele>573.2</ele>
        <time>2026-08-26T08:46:14Z</time>
      </trkpt>
      <trkpt lat="45.69411" lon="4.59038">
        <ele>573.4</ele>
        <time>2026-08-26T08:46:15Z</time>
      </trkpt>
      <trkpt lat="45.6941" lon="4.59037">
        <ele>573.6</ele>
        <time>2026-08-26T08:46:16Z</time>
      </trkpt>
      <trkpt lat="45.69408" lon="4.59035">
        <ele>573.8</ele>
        <time>2026-08-26T08:46:17Z</time>
      </trkpt>
      <trkpt lat="45.69407" lon="4.59033">
        <ele>574</ele>
        <time>2026-08-26T08:46:18Z</time>
      </trkpt>
      <trkpt lat="45.69406" lon="4.59032">
        <ele>574.2</ele>
        <time>2026-08-26T08:46:19Z</time>
      </trkpt>
      <trkpt lat="45.69405" lon="4.59031">
        <ele>574.4</ele>
        <time>2026-08-26T08:46:20Z</time>
      </trkpt>
      <trkpt lat="45.69403" lon="4.5903">
        <ele>574.6</ele>
        <time>2026-08-26T08:46:21Z</time>
      </trkpt>
      <trkpt lat="45.69402" lon="4.59029">
        <ele>574.6</ele>
        <time>2026-08-26T08:46:22Z</time>
      </trkpt>
      <trkpt lat="45.694" lon="4.59028">
        <ele>574.8</ele>
        <time>2026-08-26T08:46:23Z</time>
      </trkpt>
      <trkpt lat="45.69399" lon="4.59027">
        <ele>575</ele>
        <time>2026-08-26T08:46:24Z</time>
      </trkpt>
      <trkpt lat="45.69398" lon="4.59027">
        <ele>575.2</ele>
        <time>2026-08-26T08:46:25Z</time>
      </trkpt>
      <trkpt lat="45.69396" lon="4.59026">
        <ele>575.2</ele>
        <time>2026-08-26T08:46:26Z</time>
      </trkpt>
      <trkpt lat="45.69395" lon="4.59026">
        <ele>575.4</ele>
        <time>2026-08-26T08:46:27Z</time>
      </trkpt>
      <trkpt lat="45.69394" lon="4.59024">
        <ele>575.6</ele>
        <time>2026-08-26T08:46:28Z</time>
      </trkpt>
      <trkpt lat="45.69392" lon="4.59022">
        <ele>575.8</ele>
        <time>2026-08-26T08:46:29Z</time>
      </trkpt>
      <trkpt lat="45.69391" lon="4.59021">
        <ele>576</ele>
        <time>2026-08-26T08:46:30Z</time>
      </trkpt>
      <trkpt lat="45.6939" lon="4.5902">
        <ele>576.2</ele>
        <time>2026-08-26T08:46:31Z</time>
      </trkpt>
      <trkpt lat="45.69388" lon="4.59019">
        <ele>576.4</ele>
        <time>2026-08-26T08:46:32Z</time>
      </trkpt>
      <trkpt lat="45.69387" lon="4.59018">
        <ele>576.6</ele>
        <time>2026-08-26T08:46:33Z</time>
      </trkpt>
      <trkpt lat="45.69385" lon="4.59017">
        <ele>576.8</ele>
        <time>2026-08-26T08:46:34Z</time>
      </trkpt>
      <trkpt lat="45.69384" lon="4.59016">
        <ele>576.8</ele>
        <time>2026-08-26T08:46:35Z</time>
      </trkpt>
      <trkpt lat="45.69382" lon="4.59015">
        <ele>577</ele>
        <time>2026-08-26T08:46:36Z</time>
      </trkpt>
      <trkpt lat="45.6938" lon="4.59015">
        <ele>577.2</ele>
        <time>2026-08-26T08:46:37Z</time>
      </trkpt>
      <trkpt lat="45.69379" lon="4.59014">
        <ele>577.4</ele>
        <time>2026-08-26T08:46:38Z</time>
      </trkpt>
      <trkpt lat="45.69377" lon="4.59014">
        <ele>577.6</ele>
        <time>2026-08-26T08:46:39Z</time>
      </trkpt>
      <trkpt lat="45.69376" lon="4.59013">
        <ele>577.8</ele>
        <time>2026-08-26T08:46:40Z</time>
      </trkpt>
      <trkpt lat="45.69375" lon="4.59011">
        <ele>578</ele>
        <time>2026-08-26T08:46:41Z</time>
      </trkpt>
      <trkpt lat="45.69374" lon="4.5901">
        <ele>578.2</ele>
        <time>2026-08-26T08:46:42Z</time>
      </trkpt>
      <trkpt lat="45.69372" lon="4.59008">
        <ele>578.4</ele>
        <time>2026-08-26T08:46:43Z</time>
      </trkpt>
      <trkpt lat="45.69371" lon="4.59006">
        <ele>578.4</ele>
        <time>2026-08-26T08:46:44Z</time>
      </trkpt>
      <trkpt lat="45.6937" lon="4.59004">
        <ele>578.6</ele>
        <time>2026-08-26T08:46:45Z</time>
      </trkpt>
      <trkpt lat="45.69368" lon="4.59003">
        <ele>578.8</ele>
        <time>2026-08-26T08:46:46Z</time>
      </trkpt>
      <trkpt lat="45.69367" lon="4.59001">
        <ele>579</ele>
        <time>2026-08-26T08:46:47Z</time>
      </trkpt>
      <trkpt lat="45.69366" lon="4.58999">
        <ele>579.2</ele>
        <time>2026-08-26T08:46:48Z</time>
      </trkpt>
      <trkpt lat="45.69365" lon="4.58997">
        <ele>579.2</ele>
        <time>2026-08-26T08:46:49Z</time>
      </trkpt>
      <trkpt lat="45.69365" lon="4.58995">
        <ele>579.4</ele>
        <time>2026-08-26T08:46:50Z</time>
      </trkpt>
      <trkpt lat="45.69364" lon="4.58994">
        <ele>579.6</ele>
        <time>2026-08-26T08:46:51Z</time>
      </trkpt>
      <trkpt lat="45.69363" lon="4.58992">
        <ele>579.8</ele>
        <time>2026-08-26T08:46:52Z</time>
      </trkpt>
      <trkpt lat="45.69364" lon="4.5899">
        <ele>580</ele>
        <time>2026-08-26T08:46:53Z</time>
      </trkpt>
      <trkpt lat="45.69364" lon="4.58988">
        <ele>580.2</ele>
        <time>2026-08-26T08:46:54Z</time>
      </trkpt>
      <trkpt lat="45.69363" lon="4.58985">
        <ele>580.2</ele>
        <time>2026-08-26T08:46:55Z</time>
      </trkpt>
      <trkpt lat="45.69363" lon="4.58983">
        <ele>580.4</ele>
        <time>2026-08-26T08:46:56Z</time>
      </trkpt>
      <trkpt lat="45.69363" lon="4.58981">
        <ele>580.6</ele>
        <time>2026-08-26T08:46:57Z</time>
      </trkpt>
      <trkpt lat="45.69364" lon="4.58979">
        <ele>580.8</ele>
        <time>2026-08-26T08:46:58Z</time>
      </trkpt>
      <trkpt lat="45.69364" lon="4.58977">
        <ele>581</ele>
        <time>2026-08-26T08:46:59Z</time>
      </trkpt>
      <trkpt lat="45.69365" lon="4.58976">
        <ele>581.2</ele>
        <time>2026-08-26T08:47:00Z</time>
      </trkpt>
      <trkpt lat="45.69366" lon="4.58975">
        <ele>581.4</ele>
        <time>2026-08-26T08:47:01Z</time>
      </trkpt>
      <trkpt lat="45.69366" lon="4.58974">
        <ele>581.6</ele>
        <time>2026-08-26T08:47:02Z</time>
      </trkpt>
      <trkpt lat="45.69367" lon="4.58973">
        <ele>581.8</ele>
        <time>2026-08-26T08:47:03Z</time>
      </trkpt>
      <trkpt lat="45.69368" lon="4.58971">
        <ele>582</ele>
        <time>2026-08-26T08:47:04Z</time>
      </trkpt>
      <trkpt lat="45.69369" lon="4.5897">
        <ele>582.2</ele>
        <time>2026-08-26T08:47:05Z</time>
      </trkpt>
      <trkpt lat="45.6937" lon="4.58969">
        <ele>582.4</ele>
        <time>2026-08-26T08:47:06Z</time>
      </trkpt>
      <trkpt lat="45.69372" lon="4.58968">
        <ele>582.6</ele>
        <time>2026-08-26T08:47:07Z</time>
      </trkpt>
      <trkpt lat="45.69373" lon="4.58967">
        <ele>582.8</ele>
        <time>2026-08-26T08:47:08Z</time>
      </trkpt>
      <trkpt lat="45.69374" lon="4.58966">
        <ele>582.8</ele>
        <time>2026-08-26T08:47:09Z</time>
      </trkpt>
      <trkpt lat="45.69375" lon="4.58964">
        <ele>583</ele>
        <time>2026-08-26T08:47:10Z</time>
      </trkpt>
      <trkpt lat="45.69377" lon="4.58962">
        <ele>583.2</ele>
        <time>2026-08-26T08:47:11Z</time>
      </trkpt>
      <trkpt lat="45.69378" lon="4.58962">
        <ele>583.4</ele>
        <time>2026-08-26T08:47:12Z</time>
      </trkpt>
      <trkpt lat="45.69379" lon="4.58961">
        <ele>583.6</ele>
        <time>2026-08-26T08:47:13Z</time>
      </trkpt>
      <trkpt lat="45.69381" lon="4.5896">
        <ele>583.8</ele>
        <time>2026-08-26T08:47:14Z</time>
      </trkpt>
      <trkpt lat="45.69382" lon="4.58958">
        <ele>584</ele>
        <time>2026-08-26T08:47:15Z</time>
      </trkpt>
      <trkpt lat="45.69383" lon="4.58956">
        <ele>584.2</ele>
        <time>2026-08-26T08:47:16Z</time>
      </trkpt>
      <trkpt lat="45.69384" lon="4.58955">
        <ele>584.4</ele>
        <time>2026-08-26T08:47:17Z</time>
      </trkpt>
      <trkpt lat="45.69385" lon="4.58953">
        <ele>584.6</ele>
        <time>2026-08-26T08:47:18Z</time>
      </trkpt>
      <trkpt lat="45.69385" lon="4.58951">
        <ele>584.8</ele>
        <time>2026-08-26T08:47:19Z</time>
      </trkpt>
      <trkpt lat="45.69386" lon="4.58949">
        <ele>585</ele>
        <time>2026-08-26T08:47:20Z</time>
      </trkpt>
      <trkpt lat="45.69388" lon="4.58946">
        <ele>585.2</ele>
        <time>2026-08-26T08:47:21Z</time>
      </trkpt>
      <trkpt lat="45.6939" lon="4.58944">
        <ele>585.4</ele>
        <time>2026-08-26T08:47:22Z</time>
      </trkpt>
      <trkpt lat="45.69392" lon="4.58942">
        <ele>585.6</ele>
        <time>2026-08-26T08:47:23Z</time>
      </trkpt>
      <trkpt lat="45.69393" lon="4.58941">
        <ele>585.8</ele>
        <time>2026-08-26T08:47:24Z</time>
      </trkpt>
      <trkpt lat="45.69395" lon="4.58938">
        <ele>586</ele>
        <time>2026-08-26T08:47:25Z</time>
      </trkpt>
      <trkpt lat="45.69397" lon="4.58936">
        <ele>586.2</ele>
        <time>2026-08-26T08:47:26Z</time>
      </trkpt>
      <trkpt lat="45.69399" lon="4.58934">
        <ele>586.2</ele>
        <time>2026-08-26T08:47:27Z</time>
      </trkpt>
      <trkpt lat="45.694" lon="4.58932">
        <ele>586.4</ele>
        <time>2026-08-26T08:47:28Z</time>
      </trkpt>
      <trkpt lat="45.69402" lon="4.58931">
        <ele>586.6</ele>
        <time>2026-08-26T08:47:29Z</time>
      </trkpt>
      <trkpt lat="45.69404" lon="4.58928">
        <ele>586.8</ele>
        <time>2026-08-26T08:47:30Z</time>
      </trkpt>
      <trkpt lat="45.69404" lon="4.58926">
        <ele>587</ele>
        <time>2026-08-26T08:47:31Z</time>
      </trkpt>
      <trkpt lat="45.69406" lon="4.58923">
        <ele>587.2</ele>
        <time>2026-08-26T08:47:32Z</time>
      </trkpt>
      <trkpt lat="45.69408" lon="4.58921">
        <ele>587.4</ele>
        <time>2026-08-26T08:47:33Z</time>
      </trkpt>
      <trkpt lat="45.6941" lon="4.5892">
        <ele>587.6</ele>
        <time>2026-08-26T08:47:34Z</time>
      </trkpt>
      <trkpt lat="45.69411" lon="4.58919">
        <ele>587.8</ele>
        <time>2026-08-26T08:47:35Z</time>
      </trkpt>
      <trkpt lat="45.69412" lon="4.58918">
        <ele>588</ele>
        <time>2026-08-26T08:47:36Z</time>
      </trkpt>
      <trkpt lat="45.69413" lon="4.58917">
        <ele>588.2</ele>
        <time>2026-08-26T08:47:37Z</time>
      </trkpt>
      <trkpt lat="45.69414" lon="4.58915">
        <ele>588.4</ele>
        <time>2026-08-26T08:47:38Z</time>
      </trkpt>
      <trkpt lat="45.69416" lon="4.58914">
        <ele>588.4</ele>
        <time>2026-08-26T08:47:39Z</time>
      </trkpt>
      <trkpt lat="45.69418" lon="4.58913">
        <ele>588.6</ele>
        <time>2026-08-26T08:47:40Z</time>
      </trkpt>
      <trkpt lat="45.6942" lon="4.58912">
        <ele>588.8</ele>
        <time>2026-08-26T08:47:41Z</time>
      </trkpt>
      <trkpt lat="45.69421" lon="4.58911">
        <ele>589</ele>
        <time>2026-08-26T08:47:42Z</time>
      </trkpt>
      <trkpt lat="45.69422" lon="4.5891">
        <ele>589.2</ele>
        <time>2026-08-26T08:47:43Z</time>
      </trkpt>
      <trkpt lat="45.69423" lon="4.58909">
        <ele>589.4</ele>
        <time>2026-08-26T08:47:44Z</time>
      </trkpt>
      <trkpt lat="45.69424" lon="4.58907">
        <ele>589.6</ele>
        <time>2026-08-26T08:47:45Z</time>
      </trkpt>
      <trkpt lat="45.69425" lon="4.58906">
        <ele>589.8</ele>
        <time>2026-08-26T08:47:46Z</time>
      </trkpt>
      <trkpt lat="45.69426" lon="4.58904">
        <ele>590</ele>
        <time>2026-08-26T08:47:47Z</time>
      </trkpt>
      <trkpt lat="45.69428" lon="4.58903">
        <ele>590</ele>
        <time>2026-08-26T08:47:48Z</time>
      </trkpt>
      <trkpt lat="45.69429" lon="4.58902">
        <ele>590.2</ele>
        <time>2026-08-26T08:47:49Z</time>
      </trkpt>
      <trkpt lat="45.69431" lon="4.58901">
        <ele>590.4</ele>
        <time>2026-08-26T08:47:50Z</time>
      </trkpt>
      <trkpt lat="45.69432" lon="4.58899">
        <ele>590.6</ele>
        <time>2026-08-26T08:47:51Z</time>
      </trkpt>
      <trkpt lat="45.69434" lon="4.58897">
        <ele>590.6</ele>
        <time>2026-08-26T08:47:52Z</time>
      </trkpt>
      <trkpt lat="45.69435" lon="4.58896">
        <ele>590.8</ele>
        <time>2026-08-26T08:47:53Z</time>
      </trkpt>
      <trkpt lat="45.69437" lon="4.58894">
        <ele>591</ele>
        <time>2026-08-26T08:47:54Z</time>
      </trkpt>
      <trkpt lat="45.69438" lon="4.58893">
        <ele>591.2</ele>
        <time>2026-08-26T08:47:55Z</time>
      </trkpt>
      <trkpt lat="45.69439" lon="4.58891">
        <ele>591.4</ele>
        <time>2026-08-26T08:47:56Z</time>
      </trkpt>
      <trkpt lat="45.6944" lon="4.58889">
        <ele>591.6</ele>
        <time>2026-08-26T08:47:57Z</time>
      </trkpt>
      <trkpt lat="45.69442" lon="4.58888">
        <ele>591.8</ele>
        <time>2026-08-26T08:47:58Z</time>
      </trkpt>
      <trkpt lat="45.69443" lon="4.58886">
        <ele>591.8</ele>
        <time>2026-08-26T08:47:59Z</time>
      </trkpt>
      <trkpt lat="45.69445" lon="4.58884">
        <ele>592</ele>
        <time>2026-08-26T08:48:00Z</time>
      </trkpt>
      <trkpt lat="45.69446" lon="4.58881">
        <ele>592.2</ele>
        <time>2026-08-26T08:48:01Z</time>
      </trkpt>
      <trkpt lat="45.69448" lon="4.58879">
        <ele>592.4</ele>
        <time>2026-08-26T08:48:02Z</time>
      </trkpt>
      <trkpt lat="45.6945" lon="4.58876">
        <ele>592.6</ele>
        <time>2026-08-26T08:48:03Z</time>
      </trkpt>
      <trkpt lat="45.69451" lon="4.58875">
        <ele>592.6</ele>
        <time>2026-08-26T08:48:04Z</time>
      </trkpt>
      <trkpt lat="45.69453" lon="4.58874">
        <ele>592.8</ele>
        <time>2026-08-26T08:48:05Z</time>
      </trkpt>
      <trkpt lat="45.69454" lon="4.58873">
        <ele>593</ele>
        <time>2026-08-26T08:48:06Z</time>
      </trkpt>
      <trkpt lat="45.69455" lon="4.58871">
        <ele>593.2</ele>
        <time>2026-08-26T08:48:07Z</time>
      </trkpt>
      <trkpt lat="45.69457" lon="4.58869">
        <ele>593.4</ele>
        <time>2026-08-26T08:48:08Z</time>
      </trkpt>
      <trkpt lat="45.69458" lon="4.58868">
        <ele>593.6</ele>
        <time>2026-08-26T08:48:09Z</time>
      </trkpt>
      <trkpt lat="45.6946" lon="4.58867">
        <ele>593.8</ele>
        <time>2026-08-26T08:48:10Z</time>
      </trkpt>
      <trkpt lat="45.69462" lon="4.58865">
        <ele>593.8</ele>
        <time>2026-08-26T08:48:11Z</time>
      </trkpt>
      <trkpt lat="45.69463" lon="4.58864">
        <ele>594</ele>
        <time>2026-08-26T08:48:12Z</time>
      </trkpt>
      <trkpt lat="45.69465" lon="4.58862">
        <ele>594.2</ele>
        <time>2026-08-26T08:48:13Z</time>
      </trkpt>
      <trkpt lat="45.69466" lon="4.58861">
        <ele>594.4</ele>
        <time>2026-08-26T08:48:14Z</time>
      </trkpt>
      <trkpt lat="45.69467" lon="4.58859">
        <ele>594.4</ele>
        <time>2026-08-26T08:48:15Z</time>
      </trkpt>
      <trkpt lat="45.69469" lon="4.58858">
        <ele>594.6</ele>
        <time>2026-08-26T08:48:16Z</time>
      </trkpt>
      <trkpt lat="45.6947" lon="4.58857">
        <ele>594.8</ele>
        <time>2026-08-26T08:48:17Z</time>
      </trkpt>
      <trkpt lat="45.69472" lon="4.58855">
        <ele>595</ele>
        <time>2026-08-26T08:48:18Z</time>
      </trkpt>
      <trkpt lat="45.69473" lon="4.58853">
        <ele>595.2</ele>
        <time>2026-08-26T08:48:19Z</time>
      </trkpt>
      <trkpt lat="45.69475" lon="4.58851">
        <ele>595.2</ele>
        <time>2026-08-26T08:48:20Z</time>
      </trkpt>
      <trkpt lat="45.69476" lon="4.58849">
        <ele>595.4</ele>
        <time>2026-08-26T08:48:21Z</time>
      </trkpt>
      <trkpt lat="45.69477" lon="4.58848">
        <ele>595.4</ele>
        <time>2026-08-26T08:48:22Z</time>
      </trkpt>
      <trkpt lat="45.69479" lon="4.58846">
        <ele>595.6</ele>
        <time>2026-08-26T08:48:23Z</time>
      </trkpt>
      <trkpt lat="45.6948" lon="4.58845">
        <ele>595.8</ele>
        <time>2026-08-26T08:48:24Z</time>
      </trkpt>
      <trkpt lat="45.69482" lon="4.58843">
        <ele>596</ele>
        <time>2026-08-26T08:48:25Z</time>
      </trkpt>
      <trkpt lat="45.69483" lon="4.58841">
        <ele>596.2</ele>
        <time>2026-08-26T08:48:26Z</time>
      </trkpt>
      <trkpt lat="45.69485" lon="4.58841">
        <ele>596.4</ele>
        <time>2026-08-26T08:48:27Z</time>
      </trkpt>
      <trkpt lat="45.69487" lon="4.5884">
        <ele>596.4</ele>
        <time>2026-08-26T08:48:28Z</time>
      </trkpt>
      <trkpt lat="45.69489" lon="4.58838">
        <ele>596.6</ele>
        <time>2026-08-26T08:48:29Z</time>
      </trkpt>
      <trkpt lat="45.6949" lon="4.58837">
        <ele>596.8</ele>
        <time>2026-08-26T08:48:30Z</time>
      </trkpt>
      <trkpt lat="45.69492" lon="4.58835">
        <ele>597</ele>
        <time>2026-08-26T08:48:31Z</time>
      </trkpt>
      <trkpt lat="45.69493" lon="4.58833">
        <ele>597</ele>
        <time>2026-08-26T08:48:32Z</time>
      </trkpt>
      <trkpt lat="45.69495" lon="4.58832">
        <ele>597.2</ele>
        <time>2026-08-26T08:48:33Z</time>
      </trkpt>
      <trkpt lat="45.69496" lon="4.5883">
        <ele>597.4</ele>
        <time>2026-08-26T08:48:34Z</time>
      </trkpt>
      <trkpt lat="45.69498" lon="4.58829">
        <ele>597.4</ele>
        <time>2026-08-26T08:48:35Z</time>
      </trkpt>
      <trkpt lat="45.69499" lon="4.58827">
        <ele>597.6</ele>
        <time>2026-08-26T08:48:36Z</time>
      </trkpt>
      <trkpt lat="45.695" lon="4.58825">
        <ele>597.8</ele>
        <time>2026-08-26T08:48:37Z</time>
      </trkpt>
      <trkpt lat="45.69502" lon="4.58824">
        <ele>597.8</ele>
        <time>2026-08-26T08:48:38Z</time>
      </trkpt>
      <trkpt lat="45.69503" lon="4.58823">
        <ele>598</ele>
        <time>2026-08-26T08:48:39Z</time>
      </trkpt>
      <trkpt lat="45.69505" lon="4.58822">
        <ele>598</ele>
        <time>2026-08-26T08:48:40Z</time>
      </trkpt>
      <trkpt lat="45.69507" lon="4.58821">
        <ele>598.2</ele>
        <time>2026-08-26T08:48:41Z</time>
      </trkpt>
      <trkpt lat="45.69508" lon="4.58819">
        <ele>598.4</ele>
        <time>2026-08-26T08:48:42Z</time>
      </trkpt>
      <trkpt lat="45.6951" lon="4.58818">
        <ele>598.6</ele>
        <time>2026-08-26T08:48:43Z</time>
      </trkpt>
      <trkpt lat="45.69511" lon="4.58816">
        <ele>598.8</ele>
        <time>2026-08-26T08:48:44Z</time>
      </trkpt>
      <trkpt lat="45.69513" lon="4.58814">
        <ele>599</ele>
        <time>2026-08-26T08:48:45Z</time>
      </trkpt>
      <trkpt lat="45.69514" lon="4.58813">
        <ele>599.2</ele>
        <time>2026-08-26T08:48:46Z</time>
      </trkpt>
      <trkpt lat="45.69516" lon="4.58811">
        <ele>599.4</ele>
        <time>2026-08-26T08:48:47Z</time>
      </trkpt>
      <trkpt lat="45.69517" lon="4.5881">
        <ele>599.4</ele>
        <time>2026-08-26T08:48:48Z</time>
      </trkpt>
      <trkpt lat="45.69518" lon="4.58807">
        <ele>599.6</ele>
        <time>2026-08-26T08:48:49Z</time>
      </trkpt>
      <trkpt lat="45.69519" lon="4.58805">
        <ele>599.8</ele>
        <time>2026-08-26T08:48:50Z</time>
      </trkpt>
      <trkpt lat="45.6952" lon="4.58803">
        <ele>600</ele>
        <time>2026-08-26T08:48:51Z</time>
      </trkpt>
      <trkpt lat="45.69521" lon="4.58801">
        <ele>600.2</ele>
        <time>2026-08-26T08:48:52Z</time>
      </trkpt>
      <trkpt lat="45.69522" lon="4.58799">
        <ele>600.4</ele>
        <time>2026-08-26T08:48:53Z</time>
      </trkpt>
      <trkpt lat="45.69523" lon="4.58797">
        <ele>600.6</ele>
        <time>2026-08-26T08:48:54Z</time>
      </trkpt>
      <trkpt lat="45.69524" lon="4.58795">
        <ele>600.6</ele>
        <time>2026-08-26T08:48:55Z</time>
      </trkpt>
      <trkpt lat="45.69524" lon="4.58792">
        <ele>600.8</ele>
        <time>2026-08-26T08:48:56Z</time>
      </trkpt>
      <trkpt lat="45.69524" lon="4.5879">
        <ele>600.8</ele>
        <time>2026-08-26T08:48:57Z</time>
      </trkpt>
      <trkpt lat="45.69525" lon="4.58788">
        <ele>601</ele>
        <time>2026-08-26T08:48:58Z</time>
      </trkpt>
      <trkpt lat="45.69526" lon="4.58786">
        <ele>601.2</ele>
        <time>2026-08-26T08:48:59Z</time>
      </trkpt>
      <trkpt lat="45.69527" lon="4.58784">
        <ele>601.4</ele>
        <time>2026-08-26T08:49:00Z</time>
      </trkpt>
      <trkpt lat="45.69527" lon="4.58781">
        <ele>601.6</ele>
        <time>2026-08-26T08:49:01Z</time>
      </trkpt>
      <trkpt lat="45.69528" lon="4.58779">
        <ele>601.8</ele>
        <time>2026-08-26T08:49:02Z</time>
      </trkpt>
      <trkpt lat="45.69528" lon="4.58777">
        <ele>602</ele>
        <time>2026-08-26T08:49:03Z</time>
      </trkpt>
      <trkpt lat="45.69528" lon="4.58774">
        <ele>602.2</ele>
        <time>2026-08-26T08:49:04Z</time>
      </trkpt>
      <trkpt lat="45.69528" lon="4.58771">
        <ele>602.2</ele>
        <time>2026-08-26T08:49:05Z</time>
      </trkpt>
      <trkpt lat="45.69528" lon="4.58769">
        <ele>602.4</ele>
        <time>2026-08-26T08:49:06Z</time>
      </trkpt>
      <trkpt lat="45.69527" lon="4.58766">
        <ele>602.6</ele>
        <time>2026-08-26T08:49:07Z</time>
      </trkpt>
      <trkpt lat="45.69527" lon="4.58763">
        <ele>602.6</ele>
        <time>2026-08-26T08:49:08Z</time>
      </trkpt>
      <trkpt lat="45.69526" lon="4.58761">
        <ele>602.8</ele>
        <time>2026-08-26T08:49:09Z</time>
      </trkpt>
      <trkpt lat="45.69525" lon="4.58758">
        <ele>603</ele>
        <time>2026-08-26T08:49:10Z</time>
      </trkpt>
      <trkpt lat="45.69524" lon="4.58755">
        <ele>603.2</ele>
        <time>2026-08-26T08:49:11Z</time>
      </trkpt>
      <trkpt lat="45.69524" lon="4.58753">
        <ele>603.4</ele>
        <time>2026-08-26T08:49:12Z</time>
      </trkpt>
      <trkpt lat="45.69523" lon="4.5875">
        <ele>603.6</ele>
        <time>2026-08-26T08:49:13Z</time>
      </trkpt>
      <trkpt lat="45.69523" lon="4.58748">
        <ele>603.8</ele>
        <time>2026-08-26T08:49:14Z</time>
      </trkpt>
      <trkpt lat="45.69522" lon="4.58746">
        <ele>603.8</ele>
        <time>2026-08-26T08:49:15Z</time>
      </trkpt>
      <trkpt lat="45.69522" lon="4.58743">
        <ele>604</ele>
        <time>2026-08-26T08:49:16Z</time>
      </trkpt>
      <trkpt lat="45.69522" lon="4.58741">
        <ele>604</ele>
        <time>2026-08-26T08:49:17Z</time>
      </trkpt>
      <trkpt lat="45.69521" lon="4.58739">
        <ele>604.2</ele>
        <time>2026-08-26T08:49:18Z</time>
      </trkpt>
      <trkpt lat="45.69521" lon="4.58736">
        <ele>604.4</ele>
        <time>2026-08-26T08:49:19Z</time>
      </trkpt>
      <trkpt lat="45.69521" lon="4.58734">
        <ele>604.4</ele>
        <time>2026-08-26T08:49:20Z</time>
      </trkpt>
      <trkpt lat="45.69521" lon="4.58732">
        <ele>604.6</ele>
        <time>2026-08-26T08:49:21Z</time>
      </trkpt>
      <trkpt lat="45.6952" lon="4.58729">
        <ele>604.8</ele>
        <time>2026-08-26T08:49:22Z</time>
      </trkpt>
      <trkpt lat="45.6952" lon="4.58727">
        <ele>605</ele>
        <time>2026-08-26T08:49:23Z</time>
      </trkpt>
      <trkpt lat="45.6952" lon="4.58724">
        <ele>605.2</ele>
        <time>2026-08-26T08:49:24Z</time>
      </trkpt>
      <trkpt lat="45.6952" lon="4.58722">
        <ele>605.4</ele>
        <time>2026-08-26T08:49:25Z</time>
      </trkpt>
      <trkpt lat="45.69519" lon="4.58719">
        <ele>605.4</ele>
        <time>2026-08-26T08:49:26Z</time>
      </trkpt>
      <trkpt lat="45.6952" lon="4.58717">
        <ele>605.6</ele>
        <time>2026-08-26T08:49:27Z</time>
      </trkpt>
      <trkpt lat="45.6952" lon="4.58715">
        <ele>605.8</ele>
        <time>2026-08-26T08:49:28Z</time>
      </trkpt>
      <trkpt lat="45.6952" lon="4.58712">
        <ele>606</ele>
        <time>2026-08-26T08:49:29Z</time>
      </trkpt>
      <trkpt lat="45.6952" lon="4.5871">
        <ele>606.2</ele>
        <time>2026-08-26T08:49:30Z</time>
      </trkpt>
      <trkpt lat="45.6952" lon="4.58708">
        <ele>606.4</ele>
        <time>2026-08-26T08:49:31Z</time>
      </trkpt>
      <trkpt lat="45.69519" lon="4.58705">
        <ele>606.6</ele>
        <time>2026-08-26T08:49:32Z</time>
      </trkpt>
      <trkpt lat="45.69519" lon="4.58703">
        <ele>606.8</ele>
        <time>2026-08-26T08:49:33Z</time>
      </trkpt>
      <trkpt lat="45.69518" lon="4.58701">
        <ele>607</ele>
        <time>2026-08-26T08:49:34Z</time>
      </trkpt>
      <trkpt lat="45.69517" lon="4.58699">
        <ele>607.2</ele>
        <time>2026-08-26T08:49:35Z</time>
      </trkpt>
      <trkpt lat="45.69517" lon="4.58697">
        <ele>607.4</ele>
        <time>2026-08-26T08:49:36Z</time>
      </trkpt>
      <trkpt lat="45.69517" lon="4.58695">
        <ele>607.6</ele>
        <time>2026-08-26T08:49:37Z</time>
      </trkpt>
      <trkpt lat="45.69518" lon="4.58692">
        <ele>607.8</ele>
        <time>2026-08-26T08:49:38Z</time>
      </trkpt>
      <trkpt lat="45.69518" lon="4.5869">
        <ele>608</ele>
        <time>2026-08-26T08:49:39Z</time>
      </trkpt>
      <trkpt lat="45.69517" lon="4.58687">
        <ele>608.2</ele>
        <time>2026-08-26T08:49:40Z</time>
      </trkpt>
      <trkpt lat="45.69516" lon="4.58685">
        <ele>608.4</ele>
        <time>2026-08-26T08:49:41Z</time>
      </trkpt>
      <trkpt lat="45.69516" lon="4.58683">
        <ele>608.6</ele>
        <time>2026-08-26T08:49:42Z</time>
      </trkpt>
      <trkpt lat="45.69515" lon="4.58681">
        <ele>608.8</ele>
        <time>2026-08-26T08:49:43Z</time>
      </trkpt>
      <trkpt lat="45.69515" lon="4.58678">
        <ele>609</ele>
        <time>2026-08-26T08:49:44Z</time>
      </trkpt>
      <trkpt lat="45.69515" lon="4.58676">
        <ele>609.2</ele>
        <time>2026-08-26T08:49:45Z</time>
      </trkpt>
      <trkpt lat="45.69515" lon="4.58673">
        <ele>609.4</ele>
        <time>2026-08-26T08:49:46Z</time>
      </trkpt>
      <trkpt lat="45.69514" lon="4.5867">
        <ele>609.6</ele>
        <time>2026-08-26T08:49:47Z</time>
      </trkpt>
      <trkpt lat="45.69514" lon="4.58668">
        <ele>609.8</ele>
        <time>2026-08-26T08:49:48Z</time>
      </trkpt>
      <trkpt lat="45.69513" lon="4.58666">
        <ele>610</ele>
        <time>2026-08-26T08:49:49Z</time>
      </trkpt>
      <trkpt lat="45.69513" lon="4.58664">
        <ele>610.2</ele>
        <time>2026-08-26T08:49:50Z</time>
      </trkpt>
      <trkpt lat="45.69512" lon="4.58662">
        <ele>610.4</ele>
        <time>2026-08-26T08:49:51Z</time>
      </trkpt>
      <trkpt lat="45.69511" lon="4.5866">
        <ele>610.6</ele>
        <time>2026-08-26T08:49:52Z</time>
      </trkpt>
      <trkpt lat="45.6951" lon="4.58657">
        <ele>610.8</ele>
        <time>2026-08-26T08:49:53Z</time>
      </trkpt>
      <trkpt lat="45.6951" lon="4.58655">
        <ele>611</ele>
        <time>2026-08-26T08:49:54Z</time>
      </trkpt>
      <trkpt lat="45.69509" lon="4.58654">
        <ele>611.2</ele>
        <time>2026-08-26T08:49:55Z</time>
      </trkpt>
      <trkpt lat="45.69508" lon="4.58652">
        <ele>611.4</ele>
        <time>2026-08-26T08:49:56Z</time>
      </trkpt>
      <trkpt lat="45.69508" lon="4.58649">
        <ele>611.4</ele>
        <time>2026-08-26T08:49:57Z</time>
      </trkpt>
      <trkpt lat="45.69508" lon="4.58646">
        <ele>611.6</ele>
        <time>2026-08-26T08:49:58Z</time>
      </trkpt>
      <trkpt lat="45.69508" lon="4.58643">
        <ele>611.8</ele>
        <time>2026-08-26T08:49:59Z</time>
      </trkpt>
      <trkpt lat="45.69508" lon="4.58639">
        <ele>612</ele>
        <time>2026-08-26T08:50:00Z</time>
      </trkpt>
      <trkpt lat="45.69508" lon="4.58636">
        <ele>612.2</ele>
        <time>2026-08-26T08:50:01Z</time>
      </trkpt>
      <trkpt lat="45.69508" lon="4.58633">
        <ele>612.4</ele>
        <time>2026-08-26T08:50:02Z</time>
      </trkpt>
      <trkpt lat="45.69508" lon="4.58629">
        <ele>612.6</ele>
        <time>2026-08-26T08:50:03Z</time>
      </trkpt>
      <trkpt lat="45.69509" lon="4.58627">
        <ele>612.8</ele>
        <time>2026-08-26T08:50:04Z</time>
      </trkpt>
      <trkpt lat="45.6951" lon="4.58624">
        <ele>613</ele>
        <time>2026-08-26T08:50:05Z</time>
      </trkpt>
      <trkpt lat="45.69511" lon="4.58621">
        <ele>613</ele>
        <time>2026-08-26T08:50:06Z</time>
      </trkpt>
      <trkpt lat="45.69512" lon="4.58619">
        <ele>613.2</ele>
        <time>2026-08-26T08:50:07Z</time>
      </trkpt>
      <trkpt lat="45.69513" lon="4.58616">
        <ele>613.4</ele>
        <time>2026-08-26T08:50:08Z</time>
      </trkpt>
      <trkpt lat="45.69514" lon="4.58614">
        <ele>613.6</ele>
        <time>2026-08-26T08:50:09Z</time>
      </trkpt>
      <trkpt lat="45.69514" lon="4.58612">
        <ele>613.8</ele>
        <time>2026-08-26T08:50:10Z</time>
      </trkpt>
      <trkpt lat="45.69516" lon="4.5861">
        <ele>614</ele>
        <time>2026-08-26T08:50:11Z</time>
      </trkpt>
      <trkpt lat="45.69517" lon="4.58608">
        <ele>614.2</ele>
        <time>2026-08-26T08:50:12Z</time>
      </trkpt>
      <trkpt lat="45.69518" lon="4.58606">
        <ele>614.4</ele>
        <time>2026-08-26T08:50:13Z</time>
      </trkpt>
      <trkpt lat="45.6952" lon="4.58604">
        <ele>614.6</ele>
        <time>2026-08-26T08:50:14Z</time>
      </trkpt>
      <trkpt lat="45.69522" lon="4.58603">
        <ele>614.6</ele>
        <time>2026-08-26T08:50:15Z</time>
      </trkpt>
      <trkpt lat="45.69523" lon="4.58602">
        <ele>614.8</ele>
        <time>2026-08-26T08:50:16Z</time>
      </trkpt>
      <trkpt lat="45.69525" lon="4.586">
        <ele>615</ele>
        <time>2026-08-26T08:50:17Z</time>
      </trkpt>
      <trkpt lat="45.69526" lon="4.58599">
        <ele>615.2</ele>
        <time>2026-08-26T08:50:18Z</time>
      </trkpt>
      <trkpt lat="45.69528" lon="4.58598">
        <ele>615.4</ele>
        <time>2026-08-26T08:50:19Z</time>
      </trkpt>
      <trkpt lat="45.69529" lon="4.58597">
        <ele>615.6</ele>
        <time>2026-08-26T08:50:20Z</time>
      </trkpt>
      <trkpt lat="45.69531" lon="4.58596">
        <ele>615.6</ele>
        <time>2026-08-26T08:50:21Z</time>
      </trkpt>
      <trkpt lat="45.69532" lon="4.58595">
        <ele>615.8</ele>
        <time>2026-08-26T08:50:22Z</time>
      </trkpt>
      <trkpt lat="45.69534" lon="4.58594">
        <ele>616</ele>
        <time>2026-08-26T08:50:23Z</time>
      </trkpt>
      <trkpt lat="45.69535" lon="4.58593">
        <ele>616.2</ele>
        <time>2026-08-26T08:50:24Z</time>
      </trkpt>
      <trkpt lat="45.69537" lon="4.58592">
        <ele>616.4</ele>
        <time>2026-08-26T08:50:25Z</time>
      </trkpt>
      <trkpt lat="45.69538" lon="4.58591">
        <ele>616.6</ele>
        <time>2026-08-26T08:50:26Z</time>
      </trkpt>
      <trkpt lat="45.6954" lon="4.5859">
        <ele>616.8</ele>
        <time>2026-08-26T08:50:27Z</time>
      </trkpt>
      <trkpt lat="45.69542" lon="4.58589">
        <ele>616.8</ele>
        <time>2026-08-26T08:50:28Z</time>
      </trkpt>
      <trkpt lat="45.69544" lon="4.5859">
        <ele>617</ele>
        <time>2026-08-26T08:50:29Z</time>
      </trkpt>
      <trkpt lat="45.69545" lon="4.58589">
        <ele>617.2</ele>
        <time>2026-08-26T08:50:30Z</time>
      </trkpt>
      <trkpt lat="45.69547" lon="4.58588">
        <ele>617.4</ele>
        <time>2026-08-26T08:50:31Z</time>
      </trkpt>
      <trkpt lat="45.69549" lon="4.58587">
        <ele>617.4</ele>
        <time>2026-08-26T08:50:32Z</time>
      </trkpt>
      <trkpt lat="45.6955" lon="4.58586">
        <ele>617.6</ele>
        <time>2026-08-26T08:50:33Z</time>
      </trkpt>
      <trkpt lat="45.69552" lon="4.58585">
        <ele>617.8</ele>
        <time>2026-08-26T08:50:34Z</time>
      </trkpt>
      <trkpt lat="45.69554" lon="4.58584">
        <ele>618</ele>
        <time>2026-08-26T08:50:35Z</time>
      </trkpt>
      <trkpt lat="45.69556" lon="4.58584">
        <ele>618.2</ele>
        <time>2026-08-26T08:50:36Z</time>
      </trkpt>
      <trkpt lat="45.69558" lon="4.58585">
        <ele>618.4</ele>
        <time>2026-08-26T08:50:37Z</time>
      </trkpt>
      <trkpt lat="45.6956" lon="4.58585">
        <ele>618.4</ele>
        <time>2026-08-26T08:50:38Z</time>
      </trkpt>
      <trkpt lat="45.69562" lon="4.58585">
        <ele>618.6</ele>
        <time>2026-08-26T08:50:39Z</time>
      </trkpt>
      <trkpt lat="45.69564" lon="4.58585">
        <ele>618.8</ele>
        <time>2026-08-26T08:50:40Z</time>
      </trkpt>
      <trkpt lat="45.69566" lon="4.58585">
        <ele>619</ele>
        <time>2026-08-26T08:50:41Z</time>
      </trkpt>
      <trkpt lat="45.69568" lon="4.58585">
        <ele>619</ele>
        <time>2026-08-26T08:50:42Z</time>
      </trkpt>
      <trkpt lat="45.69569" lon="4.58585">
        <ele>619.2</ele>
        <time>2026-08-26T08:50:43Z</time>
      </trkpt>
      <trkpt lat="45.69571" lon="4.58585">
        <ele>619.4</ele>
        <time>2026-08-26T08:50:44Z</time>
      </trkpt>
      <trkpt lat="45.69573" lon="4.58586">
        <ele>619.6</ele>
        <time>2026-08-26T08:50:45Z</time>
      </trkpt>
      <trkpt lat="45.69575" lon="4.58587">
        <ele>619.8</ele>
        <time>2026-08-26T08:50:46Z</time>
      </trkpt>
      <trkpt lat="45.69576" lon="4.58588">
        <ele>620</ele>
        <time>2026-08-26T08:50:47Z</time>
      </trkpt>
      <trkpt lat="45.69578" lon="4.58588">
        <ele>620.2</ele>
        <time>2026-08-26T08:50:48Z</time>
      </trkpt>
      <trkpt lat="45.6958" lon="4.58589">
        <ele>620.4</ele>
        <time>2026-08-26T08:50:49Z</time>
      </trkpt>
      <trkpt lat="45.69582" lon="4.58589">
        <ele>620.6</ele>
        <time>2026-08-26T08:50:50Z</time>
      </trkpt>
      <trkpt lat="45.69584" lon="4.58589">
        <ele>620.8</ele>
        <time>2026-08-26T08:50:51Z</time>
      </trkpt>
      <trkpt lat="45.69586" lon="4.58589">
        <ele>621</ele>
        <time>2026-08-26T08:50:52Z</time>
      </trkpt>
      <trkpt lat="45.69587" lon="4.58591">
        <ele>621.2</ele>
        <time>2026-08-26T08:50:53Z</time>
      </trkpt>
      <trkpt lat="45.69589" lon="4.58592">
        <ele>621.2</ele>
        <time>2026-08-26T08:50:54Z</time>
      </trkpt>
      <trkpt lat="45.6959" lon="4.58593">
        <ele>621.4</ele>
        <time>2026-08-26T08:50:55Z</time>
      </trkpt>
      <trkpt lat="45.69592" lon="4.58594">
        <ele>621.6</ele>
        <time>2026-08-26T08:50:56Z</time>
      </trkpt>
      <trkpt lat="45.69593" lon="4.58594">
        <ele>621.8</ele>
        <time>2026-08-26T08:50:57Z</time>
      </trkpt>
      <trkpt lat="45.69595" lon="4.58593">
        <ele>622</ele>
        <time>2026-08-26T08:50:58Z</time>
      </trkpt>
      <trkpt lat="45.69597" lon="4.58593">
        <ele>622.2</ele>
        <time>2026-08-26T08:50:59Z</time>
      </trkpt>
      <trkpt lat="45.69599" lon="4.58593">
        <ele>622.4</ele>
        <time>2026-08-26T08:51:00Z</time>
      </trkpt>
      <trkpt lat="45.69601" lon="4.58592">
        <ele>622.4</ele>
        <time>2026-08-26T08:51:01Z</time>
      </trkpt>
      <trkpt lat="45.69603" lon="4.58592">
        <ele>622.6</ele>
        <time>2026-08-26T08:51:02Z</time>
      </trkpt>
      <trkpt lat="45.69605" lon="4.58591">
        <ele>622.8</ele>
        <time>2026-08-26T08:51:03Z</time>
      </trkpt>
      <trkpt lat="45.69607" lon="4.58591">
        <ele>623</ele>
        <time>2026-08-26T08:51:04Z</time>
      </trkpt>
      <trkpt lat="45.69609" lon="4.5859">
        <ele>623.2</ele>
        <time>2026-08-26T08:51:05Z</time>
      </trkpt>
      <trkpt lat="45.69611" lon="4.5859">
        <ele>623.2</ele>
        <time>2026-08-26T08:51:06Z</time>
      </trkpt>
      <trkpt lat="45.69613" lon="4.58589">
        <ele>623.4</ele>
        <time>2026-08-26T08:51:07Z</time>
      </trkpt>
      <trkpt lat="45.69615" lon="4.58589">
        <ele>623.6</ele>
        <time>2026-08-26T08:51:08Z</time>
      </trkpt>
      <trkpt lat="45.69616" lon="4.58588">
        <ele>623.8</ele>
        <time>2026-08-26T08:51:09Z</time>
      </trkpt>
      <trkpt lat="45.69618" lon="4.58587">
        <ele>624</ele>
        <time>2026-08-26T08:51:10Z</time>
      </trkpt>
      <trkpt lat="45.6962" lon="4.58586">
        <ele>624.2</ele>
        <time>2026-08-26T08:51:11Z</time>
      </trkpt>
      <trkpt lat="45.69621" lon="4.58585">
        <ele>624.4</ele>
        <time>2026-08-26T08:51:12Z</time>
      </trkpt>
      <trkpt lat="45.69623" lon="4.58585">
        <ele>624.4</ele>
        <time>2026-08-26T08:51:13Z</time>
      </trkpt>
      <trkpt lat="45.69625" lon="4.58584">
        <ele>624.6</ele>
        <time>2026-08-26T08:51:14Z</time>
      </trkpt>
      <trkpt lat="45.69627" lon="4.58583">
        <ele>624.8</ele>
        <time>2026-08-26T08:51:15Z</time>
      </trkpt>
      <trkpt lat="45.69628" lon="4.58583">
        <ele>624.8</ele>
        <time>2026-08-26T08:51:16Z</time>
      </trkpt>
      <trkpt lat="45.6963" lon="4.58582">
        <ele>625</ele>
        <time>2026-08-26T08:51:17Z</time>
      </trkpt>
      <trkpt lat="45.69632" lon="4.58582">
        <ele>625.2</ele>
        <time>2026-08-26T08:51:18Z</time>
      </trkpt>
      <trkpt lat="45.69634" lon="4.58581">
        <ele>625.4</ele>
        <time>2026-08-26T08:51:19Z</time>
      </trkpt>
      <trkpt lat="45.69636" lon="4.5858">
        <ele>625.4</ele>
        <time>2026-08-26T08:51:20Z</time>
      </trkpt>
      <trkpt lat="45.69637" lon="4.5858">
        <ele>625.6</ele>
        <time>2026-08-26T08:51:21Z</time>
      </trkpt>
      <trkpt lat="45.69639" lon="4.58579">
        <ele>625.8</ele>
        <time>2026-08-26T08:51:22Z</time>
      </trkpt>
      <trkpt lat="45.69641" lon="4.58579">
        <ele>626</ele>
        <time>2026-08-26T08:51:23Z</time>
      </trkpt>
      <trkpt lat="45.69642" lon="4.58578">
        <ele>626</ele>
        <time>2026-08-26T08:51:24Z</time>
      </trkpt>
      <trkpt lat="45.69644" lon="4.58577">
        <ele>626.2</ele>
        <time>2026-08-26T08:51:25Z</time>
      </trkpt>
      <trkpt lat="45.69646" lon="4.58577">
        <ele>626.4</ele>
        <time>2026-08-26T08:51:26Z</time>
      </trkpt>
      <trkpt lat="45.69648" lon="4.58576">
        <ele>626.6</ele>
        <time>2026-08-26T08:51:27Z</time>
      </trkpt>
      <trkpt lat="45.6965" lon="4.58576">
        <ele>626.8</ele>
        <time>2026-08-26T08:51:28Z</time>
      </trkpt>
      <trkpt lat="45.69651" lon="4.58575">
        <ele>627</ele>
        <time>2026-08-26T08:51:29Z</time>
      </trkpt>
      <trkpt lat="45.69653" lon="4.58575">
        <ele>627.2</ele>
        <time>2026-08-26T08:51:30Z</time>
      </trkpt>
      <trkpt lat="45.69655" lon="4.58574">
        <ele>627.4</ele>
        <time>2026-08-26T08:51:31Z</time>
      </trkpt>
      <trkpt lat="45.69656" lon="4.58573">
        <ele>627.6</ele>
        <time>2026-08-26T08:51:32Z</time>
      </trkpt>
      <trkpt lat="45.69658" lon="4.58572">
        <ele>627.8</ele>
        <time>2026-08-26T08:51:33Z</time>
      </trkpt>
      <trkpt lat="45.6966" lon="4.58572">
        <ele>627.8</ele>
        <time>2026-08-26T08:51:34Z</time>
      </trkpt>
      <trkpt lat="45.69662" lon="4.58571">
        <ele>628</ele>
        <time>2026-08-26T08:51:35Z</time>
      </trkpt>
      <trkpt lat="45.69664" lon="4.5857">
        <ele>628.2</ele>
        <time>2026-08-26T08:51:36Z</time>
      </trkpt>
      <trkpt lat="45.69665" lon="4.58569">
        <ele>628.4</ele>
        <time>2026-08-26T08:51:37Z</time>
      </trkpt>
      <trkpt lat="45.69667" lon="4.58568">
        <ele>628.6</ele>
        <time>2026-08-26T08:51:38Z</time>
      </trkpt>
      <trkpt lat="45.69669" lon="4.58567">
        <ele>628.8</ele>
        <time>2026-08-26T08:51:39Z</time>
      </trkpt>
      <trkpt lat="45.6967" lon="4.58565">
        <ele>628.8</ele>
        <time>2026-08-26T08:51:40Z</time>
      </trkpt>
      <trkpt lat="45.69672" lon="4.58564">
        <ele>629</ele>
        <time>2026-08-26T08:51:41Z</time>
      </trkpt>
      <trkpt lat="45.69673" lon="4.58562">
        <ele>629.2</ele>
        <time>2026-08-26T08:51:42Z</time>
      </trkpt>
      <trkpt lat="45.69675" lon="4.5856">
        <ele>629.4</ele>
        <time>2026-08-26T08:51:43Z</time>
      </trkpt>
      <trkpt lat="45.69676" lon="4.58558">
        <ele>629.6</ele>
        <time>2026-08-26T08:51:44Z</time>
      </trkpt>
      <trkpt lat="45.69677" lon="4.58556">
        <ele>629.8</ele>
        <time>2026-08-26T08:51:45Z</time>
      </trkpt>
      <trkpt lat="45.69678" lon="4.58554">
        <ele>629.8</ele>
        <time>2026-08-26T08:51:46Z</time>
      </trkpt>
      <trkpt lat="45.69679" lon="4.58552">
        <ele>630</ele>
        <time>2026-08-26T08:51:47Z</time>
      </trkpt>
      <trkpt lat="45.69681" lon="4.5855">
        <ele>630.2</ele>
        <time>2026-08-26T08:51:48Z</time>
      </trkpt>
      <trkpt lat="45.69682" lon="4.58548">
        <ele>630.4</ele>
        <time>2026-08-26T08:51:49Z</time>
      </trkpt>
      <trkpt lat="45.69683" lon="4.58546">
        <ele>630.6</ele>
        <time>2026-08-26T08:51:50Z</time>
      </trkpt>
      <trkpt lat="45.69685" lon="4.58545">
        <ele>630.8</ele>
        <time>2026-08-26T08:51:51Z</time>
      </trkpt>
      <trkpt lat="45.69686" lon="4.58543">
        <ele>631</ele>
        <time>2026-08-26T08:51:52Z</time>
      </trkpt>
      <trkpt lat="45.69688" lon="4.58542">
        <ele>631.2</ele>
        <time>2026-08-26T08:51:53Z</time>
      </trkpt>
      <trkpt lat="45.69689" lon="4.58541">
        <ele>631.4</ele>
        <time>2026-08-26T08:51:54Z</time>
      </trkpt>
      <trkpt lat="45.69691" lon="4.5854">
        <ele>631.6</ele>
        <time>2026-08-26T08:51:55Z</time>
      </trkpt>
      <trkpt lat="45.69693" lon="4.58539">
        <ele>631.8</ele>
        <time>2026-08-26T08:51:56Z</time>
      </trkpt>
      <trkpt lat="45.69694" lon="4.58538">
        <ele>632</ele>
        <time>2026-08-26T08:51:57Z</time>
      </trkpt>
      <trkpt lat="45.69696" lon="4.58536">
        <ele>632</ele>
        <time>2026-08-26T08:51:58Z</time>
      </trkpt>
      <trkpt lat="45.69697" lon="4.58534">
        <ele>632.2</ele>
        <time>2026-08-26T08:51:59Z</time>
      </trkpt>
      <trkpt lat="45.69698" lon="4.58532">
        <ele>632.4</ele>
        <time>2026-08-26T08:52:00Z</time>
      </trkpt>
      <trkpt lat="45.697" lon="4.5853">
        <ele>632.6</ele>
        <time>2026-08-26T08:52:01Z</time>
      </trkpt>
      <trkpt lat="45.69701" lon="4.58528">
        <ele>632.8</ele>
        <time>2026-08-26T08:52:02Z</time>
      </trkpt>
      <trkpt lat="45.69703" lon="4.58527">
        <ele>633</ele>
        <time>2026-08-26T08:52:03Z</time>
      </trkpt>
      <trkpt lat="45.69704" lon="4.58526">
        <ele>633</ele>
        <time>2026-08-26T08:52:04Z</time>
      </trkpt>
      <trkpt lat="45.69706" lon="4.58524">
        <ele>633.2</ele>
        <time>2026-08-26T08:52:05Z</time>
      </trkpt>
      <trkpt lat="45.69707" lon="4.58523">
        <ele>633.4</ele>
        <time>2026-08-26T08:52:06Z</time>
      </trkpt>
      <trkpt lat="45.69709" lon="4.58521">
        <ele>633.6</ele>
        <time>2026-08-26T08:52:07Z</time>
      </trkpt>
      <trkpt lat="45.6971" lon="4.5852">
        <ele>633.8</ele>
        <time>2026-08-26T08:52:08Z</time>
      </trkpt>
      <trkpt lat="45.69712" lon="4.58518">
        <ele>634</ele>
        <time>2026-08-26T08:52:09Z</time>
      </trkpt>
      <trkpt lat="45.69713" lon="4.58517">
        <ele>634.2</ele>
        <time>2026-08-26T08:52:10Z</time>
      </trkpt>
      <trkpt lat="45.69715" lon="4.58516">
        <ele>634.4</ele>
        <time>2026-08-26T08:52:11Z</time>
      </trkpt>
      <trkpt lat="45.69716" lon="4.58514">
        <ele>634.6</ele>
        <time>2026-08-26T08:52:12Z</time>
      </trkpt>
      <trkpt lat="45.69717" lon="4.58513">
        <ele>634.8</ele>
        <time>2026-08-26T08:52:13Z</time>
      </trkpt>
      <trkpt lat="45.69719" lon="4.58512">
        <ele>635</ele>
        <time>2026-08-26T08:52:14Z</time>
      </trkpt>
      <trkpt lat="45.6972" lon="4.58511">
        <ele>635</ele>
        <time>2026-08-26T08:52:15Z</time>
      </trkpt>
      <trkpt lat="45.69722" lon="4.5851">
        <ele>635.2</ele>
        <time>2026-08-26T08:52:16Z</time>
      </trkpt>
      <trkpt lat="45.69723" lon="4.58509">
        <ele>635.4</ele>
        <time>2026-08-26T08:52:17Z</time>
      </trkpt>
      <trkpt lat="45.69725" lon="4.58508">
        <ele>635.6</ele>
        <time>2026-08-26T08:52:18Z</time>
      </trkpt>
      <trkpt lat="45.69726" lon="4.58506">
        <ele>635.8</ele>
        <time>2026-08-26T08:52:19Z</time>
      </trkpt>
      <trkpt lat="45.69727" lon="4.58504">
        <ele>636</ele>
        <time>2026-08-26T08:52:20Z</time>
      </trkpt>
      <trkpt lat="45.69728" lon="4.58502">
        <ele>636.2</ele>
        <time>2026-08-26T08:52:21Z</time>
      </trkpt>
      <trkpt lat="45.69729" lon="4.585">
        <ele>636.4</ele>
        <time>2026-08-26T08:52:22Z</time>
      </trkpt>
      <trkpt lat="45.69731" lon="4.58498">
        <ele>636.4</ele>
        <time>2026-08-26T08:52:23Z</time>
      </trkpt>
      <trkpt lat="45.69733" lon="4.58497">
        <ele>636.6</ele>
        <time>2026-08-26T08:52:24Z</time>
      </trkpt>
      <trkpt lat="45.69735" lon="4.58496">
        <ele>636.8</ele>
        <time>2026-08-26T08:52:25Z</time>
      </trkpt>
      <trkpt lat="45.69736" lon="4.58494">
        <ele>636.8</ele>
        <time>2026-08-26T08:52:26Z</time>
      </trkpt>
      <trkpt lat="45.69737" lon="4.58492">
        <ele>637</ele>
        <time>2026-08-26T08:52:27Z</time>
      </trkpt>
      <trkpt lat="45.69738" lon="4.5849">
        <ele>637.2</ele>
        <time>2026-08-26T08:52:28Z</time>
      </trkpt>
      <trkpt lat="45.69739" lon="4.58488">
        <ele>637.4</ele>
        <time>2026-08-26T08:52:29Z</time>
      </trkpt>
      <trkpt lat="45.6974" lon="4.58485">
        <ele>637.6</ele>
        <time>2026-08-26T08:52:30Z</time>
      </trkpt>
      <trkpt lat="45.6974" lon="4.58483">
        <ele>637.8</ele>
        <time>2026-08-26T08:52:31Z</time>
      </trkpt>
      <trkpt lat="45.69741" lon="4.58481">
        <ele>638</ele>
        <time>2026-08-26T08:52:32Z</time>
      </trkpt>
      <trkpt lat="45.69741" lon="4.58478">
        <ele>638.2</ele>
        <time>2026-08-26T08:52:33Z</time>
      </trkpt>
      <trkpt lat="45.69741" lon="4.58476">
        <ele>638.2</ele>
        <time>2026-08-26T08:52:34Z</time>
      </trkpt>
      <trkpt lat="45.6974" lon="4.58473">
        <ele>638.4</ele>
        <time>2026-08-26T08:52:35Z</time>
      </trkpt>
      <trkpt lat="45.6974" lon="4.58471">
        <ele>638.4</ele>
        <time>2026-08-26T08:52:36Z</time>
      </trkpt>
      <trkpt lat="45.6974" lon="4.58469">
        <ele>638.6</ele>
        <time>2026-08-26T08:52:37Z</time>
      </trkpt>
      <trkpt lat="45.6974" lon="4.58467">
        <ele>638.8</ele>
        <time>2026-08-26T08:52:38Z</time>
      </trkpt>
      <trkpt lat="45.6974" lon="4.58464">
        <ele>639</ele>
        <time>2026-08-26T08:52:39Z</time>
      </trkpt>
      <trkpt lat="45.6974" lon="4.58462">
        <ele>639</ele>
        <time>2026-08-26T08:52:40Z</time>
      </trkpt>
      <trkpt lat="45.69739" lon="4.58461">
        <ele>639.2</ele>
        <time>2026-08-26T08:52:41Z</time>
      </trkpt>
      <trkpt lat="45.69738" lon="4.5846">
        <ele>639.4</ele>
        <time>2026-08-26T08:52:42Z</time>
      </trkpt>
      <trkpt lat="45.69737" lon="4.58458">
        <ele>639.6</ele>
        <time>2026-08-26T08:52:43Z</time>
      </trkpt>
      <trkpt lat="45.69736" lon="4.58457">
        <ele>639.6</ele>
        <time>2026-08-26T08:52:44Z</time>
      </trkpt>
      <trkpt lat="45.69735" lon="4.58455">
        <ele>639.8</ele>
        <time>2026-08-26T08:52:45Z</time>
      </trkpt>
      <trkpt lat="45.69733" lon="4.58453">
        <ele>640</ele>
        <time>2026-08-26T08:52:46Z</time>
      </trkpt>
      <trkpt lat="45.69733" lon="4.58451">
        <ele>640.2</ele>
        <time>2026-08-26T08:52:47Z</time>
      </trkpt>
      <trkpt lat="45.69731" lon="4.5845">
        <ele>640.2</ele>
        <time>2026-08-26T08:52:48Z</time>
      </trkpt>
      <trkpt lat="45.6973" lon="4.58448">
        <ele>640.4</ele>
        <time>2026-08-26T08:52:49Z</time>
      </trkpt>
      <trkpt lat="45.69728" lon="4.58446">
        <ele>640.4</ele>
        <time>2026-08-26T08:52:50Z</time>
      </trkpt>
      <trkpt lat="45.69727" lon="4.58445">
        <ele>640.6</ele>
        <time>2026-08-26T08:52:51Z</time>
      </trkpt>
      <trkpt lat="45.69725" lon="4.58444">
        <ele>640.8</ele>
        <time>2026-08-26T08:52:52Z</time>
      </trkpt>
      <trkpt lat="45.69723" lon="4.58442">
        <ele>641</ele>
        <time>2026-08-26T08:52:53Z</time>
      </trkpt>
      <trkpt lat="45.69722" lon="4.58441">
        <ele>641.2</ele>
        <time>2026-08-26T08:52:54Z</time>
      </trkpt>
      <trkpt lat="45.69721" lon="4.58439">
        <ele>641.4</ele>
        <time>2026-08-26T08:52:55Z</time>
      </trkpt>
      <trkpt lat="45.6972" lon="4.58438">
        <ele>641.6</ele>
        <time>2026-08-26T08:52:56Z</time>
      </trkpt>
      <trkpt lat="45.69718" lon="4.58436">
        <ele>641.8</ele>
        <time>2026-08-26T08:52:57Z</time>
      </trkpt>
      <trkpt lat="45.69717" lon="4.58435">
        <ele>642</ele>
        <time>2026-08-26T08:52:58Z</time>
      </trkpt>
      <trkpt lat="45.69716" lon="4.58433">
        <ele>642.2</ele>
        <time>2026-08-26T08:52:59Z</time>
      </trkpt>
      <trkpt lat="45.69715" lon="4.58431">
        <ele>642.2</ele>
        <time>2026-08-26T08:53:00Z</time>
      </trkpt>
      <trkpt lat="45.69714" lon="4.58429">
        <ele>642.4</ele>
        <time>2026-08-26T08:53:01Z</time>
      </trkpt>
      <trkpt lat="45.69713" lon="4.58427">
        <ele>642.6</ele>
        <time>2026-08-26T08:53:02Z</time>
      </trkpt>
      <trkpt lat="45.69712" lon="4.58425">
        <ele>642.6</ele>
        <time>2026-08-26T08:53:03Z</time>
      </trkpt>
      <trkpt lat="45.69711" lon="4.58423">
        <ele>642.8</ele>
        <time>2026-08-26T08:53:04Z</time>
      </trkpt>
      <trkpt lat="45.69709" lon="4.58422">
        <ele>643</ele>
        <time>2026-08-26T08:53:05Z</time>
      </trkpt>
      <trkpt lat="45.69708" lon="4.5842">
        <ele>643</ele>
        <time>2026-08-26T08:53:06Z</time>
      </trkpt>
      <trkpt lat="45.69707" lon="4.58419">
        <ele>643.2</ele>
        <time>2026-08-26T08:53:07Z</time>
      </trkpt>
      <trkpt lat="45.69705" lon="4.58417">
        <ele>643.4</ele>
        <time>2026-08-26T08:53:08Z</time>
      </trkpt>
      <trkpt lat="45.69704" lon="4.58416">
        <ele>643.6</ele>
        <time>2026-08-26T08:53:09Z</time>
      </trkpt>
      <trkpt lat="45.69703" lon="4.58414">
        <ele>643.8</ele>
        <time>2026-08-26T08:53:10Z</time>
      </trkpt>
      <trkpt lat="45.69702" lon="4.58412">
        <ele>643.8</ele>
        <time>2026-08-26T08:53:11Z</time>
      </trkpt>
      <trkpt lat="45.69701" lon="4.5841">
        <ele>644</ele>
        <time>2026-08-26T08:53:12Z</time>
      </trkpt>
      <trkpt lat="45.69699" lon="4.58408">
        <ele>644.2</ele>
        <time>2026-08-26T08:53:13Z</time>
      </trkpt>
      <trkpt lat="45.69698" lon="4.58406">
        <ele>644.2</ele>
        <time>2026-08-26T08:53:14Z</time>
      </trkpt>
      <trkpt lat="45.69697" lon="4.58404">
        <ele>644.4</ele>
        <time>2026-08-26T08:53:15Z</time>
      </trkpt>
      <trkpt lat="45.69695" lon="4.58403">
        <ele>644.4</ele>
        <time>2026-08-26T08:53:16Z</time>
      </trkpt>
      <trkpt lat="45.69694" lon="4.58401">
        <ele>644.6</ele>
        <time>2026-08-26T08:53:17Z</time>
      </trkpt>
      <trkpt lat="45.69693" lon="4.58399">
        <ele>644.8</ele>
        <time>2026-08-26T08:53:18Z</time>
      </trkpt>
      <trkpt lat="45.69692" lon="4.58397">
        <ele>645</ele>
        <time>2026-08-26T08:53:19Z</time>
      </trkpt>
      <trkpt lat="45.6969" lon="4.58395">
        <ele>645.2</ele>
        <time>2026-08-26T08:53:20Z</time>
      </trkpt>
      <trkpt lat="45.69689" lon="4.58394">
        <ele>645.2</ele>
        <time>2026-08-26T08:53:21Z</time>
      </trkpt>
      <trkpt lat="45.69687" lon="4.58394">
        <ele>645.4</ele>
        <time>2026-08-26T08:53:22Z</time>
      </trkpt>
      <trkpt lat="45.69686" lon="4.58393">
        <ele>645.6</ele>
        <time>2026-08-26T08:53:23Z</time>
      </trkpt>
      <trkpt lat="45.69684" lon="4.58392">
        <ele>645.8</ele>
        <time>2026-08-26T08:53:24Z</time>
      </trkpt>
      <trkpt lat="45.69683" lon="4.5839">
        <ele>646</ele>
        <time>2026-08-26T08:53:25Z</time>
      </trkpt>
      <trkpt lat="45.69681" lon="4.58389">
        <ele>646.2</ele>
        <time>2026-08-26T08:53:26Z</time>
      </trkpt>
      <trkpt lat="45.6968" lon="4.58387">
        <ele>646.4</ele>
        <time>2026-08-26T08:53:27Z</time>
      </trkpt>
      <trkpt lat="45.69678" lon="4.58385">
        <ele>646.6</ele>
        <time>2026-08-26T08:53:28Z</time>
      </trkpt>
      <trkpt lat="45.69676" lon="4.58384">
        <ele>646.8</ele>
        <time>2026-08-26T08:53:29Z</time>
      </trkpt>
      <trkpt lat="45.69675" lon="4.58383">
        <ele>646.8</ele>
        <time>2026-08-26T08:53:30Z</time>
      </trkpt>
      <trkpt lat="45.69673" lon="4.58381">
        <ele>647</ele>
        <time>2026-08-26T08:53:31Z</time>
      </trkpt>
      <trkpt lat="45.69672" lon="4.5838">
        <ele>647.2</ele>
        <time>2026-08-26T08:53:32Z</time>
      </trkpt>
      <trkpt lat="45.69671" lon="4.58378">
        <ele>647.4</ele>
        <time>2026-08-26T08:53:33Z</time>
      </trkpt>
      <trkpt lat="45.69669" lon="4.58377">
        <ele>647.6</ele>
        <time>2026-08-26T08:53:34Z</time>
      </trkpt>
      <trkpt lat="45.69668" lon="4.58376">
        <ele>647.8</ele>
        <time>2026-08-26T08:53:35Z</time>
      </trkpt>
      <trkpt lat="45.69666" lon="4.58375">
        <ele>647.8</ele>
        <time>2026-08-26T08:53:36Z</time>
      </trkpt>
      <trkpt lat="45.69665" lon="4.58373">
        <ele>648</ele>
        <time>2026-08-26T08:53:37Z</time>
      </trkpt>
      <trkpt lat="45.69664" lon="4.58372">
        <ele>648.2</ele>
        <time>2026-08-26T08:53:38Z</time>
      </trkpt>
      <trkpt lat="45.69662" lon="4.58371">
        <ele>648.4</ele>
        <time>2026-08-26T08:53:39Z</time>
      </trkpt>
      <trkpt lat="45.6966" lon="4.58369">
        <ele>648.6</ele>
        <time>2026-08-26T08:53:40Z</time>
      </trkpt>
      <trkpt lat="45.69659" lon="4.58368">
        <ele>648.8</ele>
        <time>2026-08-26T08:53:41Z</time>
      </trkpt>
      <trkpt lat="45.69657" lon="4.58366">
        <ele>648.8</ele>
        <time>2026-08-26T08:53:42Z</time>
      </trkpt>
      <trkpt lat="45.69656" lon="4.58365">
        <ele>649</ele>
        <time>2026-08-26T08:53:43Z</time>
      </trkpt>
      <trkpt lat="45.69654" lon="4.58363">
        <ele>649.2</ele>
        <time>2026-08-26T08:53:44Z</time>
      </trkpt>
      <trkpt lat="45.69653" lon="4.58362">
        <ele>649.4</ele>
        <time>2026-08-26T08:53:45Z</time>
      </trkpt>
      <trkpt lat="45.69651" lon="4.58361">
        <ele>649.6</ele>
        <time>2026-08-26T08:53:46Z</time>
      </trkpt>
      <trkpt lat="45.69649" lon="4.5836">
        <ele>649.6</ele>
        <time>2026-08-26T08:53:47Z</time>
      </trkpt>
      <trkpt lat="45.69648" lon="4.58359">
        <ele>649.8</ele>
        <time>2026-08-26T08:53:48Z</time>
      </trkpt>
      <trkpt lat="45.69646" lon="4.58357">
        <ele>650</ele>
        <time>2026-08-26T08:53:49Z</time>
      </trkpt>
      <trkpt lat="45.69645" lon="4.58356">
        <ele>650.2</ele>
        <time>2026-08-26T08:53:50Z</time>
      </trkpt>
      <trkpt lat="45.69643" lon="4.58354">
        <ele>650.4</ele>
        <time>2026-08-26T08:53:51Z</time>
      </trkpt>
      <trkpt lat="45.69642" lon="4.58353">
        <ele>650.6</ele>
        <time>2026-08-26T08:53:52Z</time>
      </trkpt>
      <trkpt lat="45.6964" lon="4.58351">
        <ele>650.8</ele>
        <time>2026-08-26T08:53:53Z</time>
      </trkpt>
      <trkpt lat="45.69639" lon="4.5835">
        <ele>651</ele>
        <time>2026-08-26T08:53:54Z</time>
      </trkpt>
      <trkpt lat="45.69637" lon="4.58348">
        <ele>651.2</ele>
        <time>2026-08-26T08:53:55Z</time>
      </trkpt>
      <trkpt lat="45.69635" lon="4.58347">
        <ele>651.2</ele>
        <time>2026-08-26T08:53:56Z</time>
      </trkpt>
      <trkpt lat="45.69634" lon="4.58345">
        <ele>651.4</ele>
        <time>2026-08-26T08:53:57Z</time>
      </trkpt>
      <trkpt lat="45.69632" lon="4.58344">
        <ele>651.6</ele>
        <time>2026-08-26T08:53:58Z</time>
      </trkpt>
      <trkpt lat="45.69631" lon="4.58343">
        <ele>651.8</ele>
        <time>2026-08-26T08:53:59Z</time>
      </trkpt>
      <trkpt lat="45.69629" lon="4.58342">
        <ele>651.8</ele>
        <time>2026-08-26T08:54:00Z</time>
      </trkpt>
      <trkpt lat="45.69627" lon="4.58342">
        <ele>652</ele>
        <time>2026-08-26T08:54:01Z</time>
      </trkpt>
      <trkpt lat="45.69625" lon="4.58341">
        <ele>652.2</ele>
        <time>2026-08-26T08:54:02Z</time>
      </trkpt>
      <trkpt lat="45.69624" lon="4.5834">
        <ele>652.4</ele>
        <time>2026-08-26T08:54:03Z</time>
      </trkpt>
      <trkpt lat="45.69622" lon="4.58339">
        <ele>652.6</ele>
        <time>2026-08-26T08:54:04Z</time>
      </trkpt>
      <trkpt lat="45.69621" lon="4.58337">
        <ele>652.8</ele>
        <time>2026-08-26T08:54:05Z</time>
      </trkpt>
      <trkpt lat="45.69619" lon="4.58336">
        <ele>653</ele>
        <time>2026-08-26T08:54:06Z</time>
      </trkpt>
      <trkpt lat="45.69618" lon="4.58335">
        <ele>653</ele>
        <time>2026-08-26T08:54:07Z</time>
      </trkpt>
      <trkpt lat="45.69616" lon="4.58334">
        <ele>653.2</ele>
        <time>2026-08-26T08:54:08Z</time>
      </trkpt>
      <trkpt lat="45.69614" lon="4.58333">
        <ele>653.4</ele>
        <time>2026-08-26T08:54:09Z</time>
      </trkpt>
      <trkpt lat="45.69612" lon="4.58332">
        <ele>653.6</ele>
        <time>2026-08-26T08:54:10Z</time>
      </trkpt>
      <trkpt lat="45.69611" lon="4.58331">
        <ele>653.8</ele>
        <time>2026-08-26T08:54:11Z</time>
      </trkpt>
      <trkpt lat="45.69609" lon="4.58331">
        <ele>654</ele>
        <time>2026-08-26T08:54:12Z</time>
      </trkpt>
      <trkpt lat="45.69607" lon="4.58331">
        <ele>654.2</ele>
        <time>2026-08-26T08:54:13Z</time>
      </trkpt>
      <trkpt lat="45.69605" lon="4.5833">
        <ele>654.4</ele>
        <time>2026-08-26T08:54:14Z</time>
      </trkpt>
      <trkpt lat="45.69603" lon="4.5833">
        <ele>654.6</ele>
        <time>2026-08-26T08:54:15Z</time>
      </trkpt>
      <trkpt lat="45.69601" lon="4.5833">
        <ele>654.6</ele>
        <time>2026-08-26T08:54:16Z</time>
      </trkpt>
      <trkpt lat="45.69599" lon="4.58329">
        <ele>654.8</ele>
        <time>2026-08-26T08:54:17Z</time>
      </trkpt>
      <trkpt lat="45.69597" lon="4.58329">
        <ele>655</ele>
        <time>2026-08-26T08:54:18Z</time>
      </trkpt>
      <trkpt lat="45.69596" lon="4.58329">
        <ele>655.2</ele>
        <time>2026-08-26T08:54:19Z</time>
      </trkpt>
      <trkpt lat="45.69594" lon="4.58329">
        <ele>655.2</ele>
        <time>2026-08-26T08:54:20Z</time>
      </trkpt>
      <trkpt lat="45.69592" lon="4.58328">
        <ele>655.4</ele>
        <time>2026-08-26T08:54:21Z</time>
      </trkpt>
      <trkpt lat="45.6959" lon="4.58328">
        <ele>655.6</ele>
        <time>2026-08-26T08:54:22Z</time>
      </trkpt>
      <trkpt lat="45.69587" lon="4.58328">
        <ele>655.8</ele>
        <time>2026-08-26T08:54:23Z</time>
      </trkpt>
      <trkpt lat="45.69586" lon="4.58327">
        <ele>656</ele>
        <time>2026-08-26T08:54:24Z</time>
      </trkpt>
      <trkpt lat="45.69584" lon="4.58326">
        <ele>656.2</ele>
        <time>2026-08-26T08:54:25Z</time>
      </trkpt>
      <trkpt lat="45.69582" lon="4.58325">
        <ele>656.2</ele>
        <time>2026-08-26T08:54:26Z</time>
      </trkpt>
      <trkpt lat="45.6958" lon="4.58324">
        <ele>656.4</ele>
        <time>2026-08-26T08:54:27Z</time>
      </trkpt>
      <trkpt lat="45.69578" lon="4.58324">
        <ele>656.6</ele>
        <time>2026-08-26T08:54:28Z</time>
      </trkpt>
      <trkpt lat="45.69576" lon="4.58324">
        <ele>656.6</ele>
        <time>2026-08-26T08:54:29Z</time>
      </trkpt>
      <trkpt lat="45.69574" lon="4.58324">
        <ele>656.8</ele>
        <time>2026-08-26T08:54:30Z</time>
      </trkpt>
      <trkpt lat="45.69571" lon="4.58324">
        <ele>657</ele>
        <time>2026-08-26T08:54:31Z</time>
      </trkpt>
      <trkpt lat="45.69569" lon="4.58324">
        <ele>657</ele>
        <time>2026-08-26T08:54:32Z</time>
      </trkpt>
      <trkpt lat="45.69567" lon="4.58324">
        <ele>657.2</ele>
        <time>2026-08-26T08:54:33Z</time>
      </trkpt>
      <trkpt lat="45.69565" lon="4.58324">
        <ele>657.2</ele>
        <time>2026-08-26T08:54:34Z</time>
      </trkpt>
      <trkpt lat="45.69563" lon="4.58324">
        <ele>657.4</ele>
        <time>2026-08-26T08:54:35Z</time>
      </trkpt>
      <trkpt lat="45.69561" lon="4.58324">
        <ele>657.4</ele>
        <time>2026-08-26T08:54:36Z</time>
      </trkpt>
      <trkpt lat="45.69559" lon="4.58324">
        <ele>657.6</ele>
        <time>2026-08-26T08:54:37Z</time>
      </trkpt>
      <trkpt lat="45.69557" lon="4.58324">
        <ele>657.6</ele>
        <time>2026-08-26T08:54:38Z</time>
      </trkpt>
      <trkpt lat="45.69554" lon="4.58323">
        <ele>657.6</ele>
        <time>2026-08-26T08:54:39Z</time>
      </trkpt>
      <trkpt lat="45.69552" lon="4.58323">
        <ele>657.8</ele>
        <time>2026-08-26T08:54:40Z</time>
      </trkpt>
      <trkpt lat="45.69549" lon="4.58323">
        <ele>657.8</ele>
        <time>2026-08-26T08:54:41Z</time>
      </trkpt>
      <trkpt lat="45.69547" lon="4.58323">
        <ele>658</ele>
        <time>2026-08-26T08:54:42Z</time>
      </trkpt>
      <trkpt lat="45.69545" lon="4.58324">
        <ele>658.2</ele>
        <time>2026-08-26T08:54:43Z</time>
      </trkpt>
      <trkpt lat="45.69542" lon="4.58324">
        <ele>658.2</ele>
        <time>2026-08-26T08:54:44Z</time>
      </trkpt>
      <trkpt lat="45.6954" lon="4.58325">
        <ele>658.2</ele>
        <time>2026-08-26T08:54:45Z</time>
      </trkpt>
      <trkpt lat="45.69538" lon="4.58326">
        <ele>658.4</ele>
        <time>2026-08-26T08:54:46Z</time>
      </trkpt>
      <trkpt lat="45.69536" lon="4.58326">
        <ele>658.4</ele>
        <time>2026-08-26T08:54:47Z</time>
      </trkpt>
      <trkpt lat="45.69533" lon="4.58327">
        <ele>658.6</ele>
        <time>2026-08-26T08:54:48Z</time>
      </trkpt>
      <trkpt lat="45.69531" lon="4.58328">
        <ele>658.6</ele>
        <time>2026-08-26T08:54:49Z</time>
      </trkpt>
      <trkpt lat="45.69528" lon="4.58328">
        <ele>658.8</ele>
        <time>2026-08-26T08:54:50Z</time>
      </trkpt>
      <trkpt lat="45.69526" lon="4.58329">
        <ele>659</ele>
        <time>2026-08-26T08:54:51Z</time>
      </trkpt>
      <trkpt lat="45.69524" lon="4.58329">
        <ele>659</ele>
        <time>2026-08-26T08:54:52Z</time>
      </trkpt>
      <trkpt lat="45.69522" lon="4.5833">
        <ele>659.2</ele>
        <time>2026-08-26T08:54:53Z</time>
      </trkpt>
      <trkpt lat="45.69519" lon="4.5833">
        <ele>659.2</ele>
        <time>2026-08-26T08:54:54Z</time>
      </trkpt>
      <trkpt lat="45.69517" lon="4.58331">
        <ele>659.4</ele>
        <time>2026-08-26T08:54:55Z</time>
      </trkpt>
      <trkpt lat="45.69514" lon="4.58331">
        <ele>659.4</ele>
        <time>2026-08-26T08:54:56Z</time>
      </trkpt>
      <trkpt lat="45.69512" lon="4.58332">
        <ele>659.6</ele>
        <time>2026-08-26T08:54:57Z</time>
      </trkpt>
      <trkpt lat="45.6951" lon="4.58332">
        <ele>659.6</ele>
        <time>2026-08-26T08:54:58Z</time>
      </trkpt>
      <trkpt lat="45.69507" lon="4.58332">
        <ele>659.8</ele>
        <time>2026-08-26T08:54:59Z</time>
      </trkpt>
      <trkpt lat="45.69505" lon="4.58333">
        <ele>659.8</ele>
        <time>2026-08-26T08:55:00Z</time>
      </trkpt>
      <trkpt lat="45.69503" lon="4.58333">
        <ele>660</ele>
        <time>2026-08-26T08:55:01Z</time>
      </trkpt>
      <trkpt lat="45.69501" lon="4.58334">
        <ele>660</ele>
        <time>2026-08-26T08:55:02Z</time>
      </trkpt>
      <trkpt lat="45.69499" lon="4.58334">
        <ele>660.2</ele>
        <time>2026-08-26T08:55:03Z</time>
      </trkpt>
      <trkpt lat="45.69496" lon="4.58335">
        <ele>660.2</ele>
        <time>2026-08-26T08:55:04Z</time>
      </trkpt>
      <trkpt lat="45.69494" lon="4.58335">
        <ele>660.4</ele>
        <time>2026-08-26T08:55:05Z</time>
      </trkpt>
      <trkpt lat="45.69491" lon="4.58336">
        <ele>660.4</ele>
        <time>2026-08-26T08:55:06Z</time>
      </trkpt>
      <trkpt lat="45.69489" lon="4.58336">
        <ele>660.6</ele>
        <time>2026-08-26T08:55:07Z</time>
      </trkpt>
      <trkpt lat="45.69487" lon="4.58337">
        <ele>660.6</ele>
        <time>2026-08-26T08:55:08Z</time>
      </trkpt>
      <trkpt lat="45.69485" lon="4.58338">
        <ele>660.8</ele>
        <time>2026-08-26T08:55:09Z</time>
      </trkpt>
      <trkpt lat="45.69483" lon="4.58339">
        <ele>661</ele>
        <time>2026-08-26T08:55:10Z</time>
      </trkpt>
      <trkpt lat="45.6948" lon="4.5834">
        <ele>661</ele>
        <time>2026-08-26T08:55:11Z</time>
      </trkpt>
      <trkpt lat="45.69478" lon="4.5834">
        <ele>661.2</ele>
        <time>2026-08-26T08:55:12Z</time>
      </trkpt>
      <trkpt lat="45.69476" lon="4.5834">
        <ele>661.4</ele>
        <time>2026-08-26T08:55:13Z</time>
      </trkpt>
      <trkpt lat="45.69474" lon="4.58341">
        <ele>661.4</ele>
        <time>2026-08-26T08:55:14Z</time>
      </trkpt>
      <trkpt lat="45.69471" lon="4.58342">
        <ele>661.4</ele>
        <time>2026-08-26T08:55:15Z</time>
      </trkpt>
      <trkpt lat="45.69469" lon="4.58343">
        <ele>661.6</ele>
        <time>2026-08-26T08:55:16Z</time>
      </trkpt>
      <trkpt lat="45.69467" lon="4.58343">
        <ele>661.8</ele>
        <time>2026-08-26T08:55:17Z</time>
      </trkpt>
      <trkpt lat="45.69465" lon="4.58344">
        <ele>661.8</ele>
        <time>2026-08-26T08:55:18Z</time>
      </trkpt>
      <trkpt lat="45.69462" lon="4.58345">
        <ele>662</ele>
        <time>2026-08-26T08:55:19Z</time>
      </trkpt>
      <trkpt lat="45.6946" lon="4.58345">
        <ele>662.2</ele>
        <time>2026-08-26T08:55:20Z</time>
      </trkpt>
      <trkpt lat="45.69458" lon="4.58346">
        <ele>662.2</ele>
        <time>2026-08-26T08:55:21Z</time>
      </trkpt>
      <trkpt lat="45.69456" lon="4.58347">
        <ele>662.4</ele>
        <time>2026-08-26T08:55:22Z</time>
      </trkpt>
      <trkpt lat="45.69453" lon="4.58348">
        <ele>662.6</ele>
        <time>2026-08-26T08:55:23Z</time>
      </trkpt>
      <trkpt lat="45.69451" lon="4.58349">
        <ele>662.6</ele>
        <time>2026-08-26T08:55:24Z</time>
      </trkpt>
      <trkpt lat="45.69449" lon="4.58349">
        <ele>662.8</ele>
        <time>2026-08-26T08:55:25Z</time>
      </trkpt>
      <trkpt lat="45.69447" lon="4.5835">
        <ele>663</ele>
        <time>2026-08-26T08:55:26Z</time>
      </trkpt>
      <trkpt lat="45.69445" lon="4.58351">
        <ele>663.2</ele>
        <time>2026-08-26T08:55:27Z</time>
      </trkpt>
      <trkpt lat="45.69443" lon="4.58352">
        <ele>663.4</ele>
        <time>2026-08-26T08:55:28Z</time>
      </trkpt>
      <trkpt lat="45.6944" lon="4.58352">
        <ele>663.4</ele>
        <time>2026-08-26T08:55:29Z</time>
      </trkpt>
      <trkpt lat="45.69438" lon="4.58352">
        <ele>663.6</ele>
        <time>2026-08-26T08:55:30Z</time>
      </trkpt>
      <trkpt lat="45.69436" lon="4.58353">
        <ele>663.8</ele>
        <time>2026-08-26T08:55:31Z</time>
      </trkpt>
      <trkpt lat="45.69433" lon="4.58354">
        <ele>664</ele>
        <time>2026-08-26T08:55:32Z</time>
      </trkpt>
      <trkpt lat="45.69432" lon="4.58354">
        <ele>664</ele>
        <time>2026-08-26T08:55:33Z</time>
      </trkpt>
      <trkpt lat="45.6943" lon="4.58355">
        <ele>664.2</ele>
        <time>2026-08-26T08:55:34Z</time>
      </trkpt>
      <trkpt lat="45.69428" lon="4.58355">
        <ele>664.4</ele>
        <time>2026-08-26T08:55:35Z</time>
      </trkpt>
      <trkpt lat="45.69426" lon="4.58356">
        <ele>664.4</ele>
        <time>2026-08-26T08:55:36Z</time>
      </trkpt>
      <trkpt lat="45.69424" lon="4.58357">
        <ele>664.6</ele>
        <time>2026-08-26T08:55:37Z</time>
      </trkpt>
      <trkpt lat="45.69422" lon="4.58358">
        <ele>664.8</ele>
        <time>2026-08-26T08:55:38Z</time>
      </trkpt>
      <trkpt lat="45.69419" lon="4.58358">
        <ele>665</ele>
        <time>2026-08-26T08:55:39Z</time>
      </trkpt>
      <trkpt lat="45.69418" lon="4.58358">
        <ele>665</ele>
        <time>2026-08-26T08:55:40Z</time>
      </trkpt>
      <trkpt lat="45.69416" lon="4.58359">
        <ele>665.2</ele>
        <time>2026-08-26T08:55:41Z</time>
      </trkpt>
      <trkpt lat="45.69414" lon="4.5836">
        <ele>665.4</ele>
        <time>2026-08-26T08:55:42Z</time>
      </trkpt>
      <trkpt lat="45.69412" lon="4.58361">
        <ele>665.6</ele>
        <time>2026-08-26T08:55:43Z</time>
      </trkpt>
      <trkpt lat="45.6941" lon="4.58361">
        <ele>665.6</ele>
        <time>2026-08-26T08:55:44Z</time>
      </trkpt>
      <trkpt lat="45.69408" lon="4.58362">
        <ele>665.8</ele>
        <time>2026-08-26T08:55:45Z</time>
      </trkpt>
      <trkpt lat="45.69406" lon="4.58362">
        <ele>666</ele>
        <time>2026-08-26T08:55:46Z</time>
      </trkpt>
      <trkpt lat="45.69404" lon="4.58362">
        <ele>666.2</ele>
        <time>2026-08-26T08:55:47Z</time>
      </trkpt>
      <trkpt lat="45.69402" lon="4.58363">
        <ele>666.4</ele>
        <time>2026-08-26T08:55:48Z</time>
      </trkpt>
      <trkpt lat="45.694" lon="4.58364">
        <ele>666.6</ele>
        <time>2026-08-26T08:55:49Z</time>
      </trkpt>
      <trkpt lat="45.69398" lon="4.58364">
        <ele>666.6</ele>
        <time>2026-08-26T08:55:50Z</time>
      </trkpt>
      <trkpt lat="45.69397" lon="4.58365">
        <ele>666.8</ele>
        <time>2026-08-26T08:55:51Z</time>
      </trkpt>
      <trkpt lat="45.69395" lon="4.58366">
        <ele>667</ele>
        <time>2026-08-26T08:55:52Z</time>
      </trkpt>
      <trkpt lat="45.69393" lon="4.58367">
        <ele>667.2</ele>
        <time>2026-08-26T08:55:53Z</time>
      </trkpt>
      <trkpt lat="45.69391" lon="4.58367">
        <ele>667.4</ele>
        <time>2026-08-26T08:55:54Z</time>
      </trkpt>
      <trkpt lat="45.69389" lon="4.58367">
        <ele>667.4</ele>
        <time>2026-08-26T08:55:55Z</time>
      </trkpt>
      <trkpt lat="45.69387" lon="4.58367">
        <ele>667.6</ele>
        <time>2026-08-26T08:55:56Z</time>
      </trkpt>
      <trkpt lat="45.69385" lon="4.58368">
        <ele>667.8</ele>
        <time>2026-08-26T08:55:57Z</time>
      </trkpt>
      <trkpt lat="45.69383" lon="4.58367">
        <ele>668</ele>
        <time>2026-08-26T08:55:58Z</time>
      </trkpt>
      <trkpt lat="45.69382" lon="4.58368">
        <ele>668</ele>
        <time>2026-08-26T08:55:59Z</time>
      </trkpt>
      <trkpt lat="45.6938" lon="4.58369">
        <ele>668.2</ele>
        <time>2026-08-26T08:56:00Z</time>
      </trkpt>
      <trkpt lat="45.69378" lon="4.5837">
        <ele>668.4</ele>
        <time>2026-08-26T08:56:01Z</time>
      </trkpt>
      <trkpt lat="45.69376" lon="4.5837">
        <ele>668.4</ele>
        <time>2026-08-26T08:56:02Z</time>
      </trkpt>
      <trkpt lat="45.69375" lon="4.58372">
        <ele>668.6</ele>
        <time>2026-08-26T08:56:03Z</time>
      </trkpt>
      <trkpt lat="45.69373" lon="4.58373">
        <ele>668.8</ele>
        <time>2026-08-26T08:56:04Z</time>
      </trkpt>
      <trkpt lat="45.69371" lon="4.58373">
        <ele>668.8</ele>
        <time>2026-08-26T08:56:05Z</time>
      </trkpt>
      <trkpt lat="45.6937" lon="4.58374">
        <ele>669</ele>
        <time>2026-08-26T08:56:06Z</time>
      </trkpt>
      <trkpt lat="45.69368" lon="4.58375">
        <ele>669.2</ele>
        <time>2026-08-26T08:56:07Z</time>
      </trkpt>
      <trkpt lat="45.69366" lon="4.58376">
        <ele>669.2</ele>
        <time>2026-08-26T08:56:08Z</time>
      </trkpt>
      <trkpt lat="45.69364" lon="4.58377">
        <ele>669.4</ele>
        <time>2026-08-26T08:56:09Z</time>
      </trkpt>
      <trkpt lat="45.69363" lon="4.58378">
        <ele>669.6</ele>
        <time>2026-08-26T08:56:10Z</time>
      </trkpt>
      <trkpt lat="45.69361" lon="4.58379">
        <ele>669.8</ele>
        <time>2026-08-26T08:56:11Z</time>
      </trkpt>
      <trkpt lat="45.69359" lon="4.58379">
        <ele>670</ele>
        <time>2026-08-26T08:56:12Z</time>
      </trkpt>
      <trkpt lat="45.69357" lon="4.5838">
        <ele>670</ele>
        <time>2026-08-26T08:56:13Z</time>
      </trkpt>
      <trkpt lat="45.69356" lon="4.5838">
        <ele>670.2</ele>
        <time>2026-08-26T08:56:14Z</time>
      </trkpt>
      <trkpt lat="45.69354" lon="4.58381">
        <ele>670.4</ele>
        <time>2026-08-26T08:56:15Z</time>
      </trkpt>
      <trkpt lat="45.69352" lon="4.58382">
        <ele>670.6</ele>
        <time>2026-08-26T08:56:16Z</time>
      </trkpt>
      <trkpt lat="45.69351" lon="4.58383">
        <ele>670.8</ele>
        <time>2026-08-26T08:56:17Z</time>
      </trkpt>
      <trkpt lat="45.69349" lon="4.58383">
        <ele>671</ele>
        <time>2026-08-26T08:56:18Z</time>
      </trkpt>
      <trkpt lat="45.69347" lon="4.58383">
        <ele>671</ele>
        <time>2026-08-26T08:56:19Z</time>
      </trkpt>
      <trkpt lat="45.69346" lon="4.58383">
        <ele>671.2</ele>
        <time>2026-08-26T08:56:20Z</time>
      </trkpt>
      <trkpt lat="45.69344" lon="4.58383">
        <ele>671.2</ele>
        <time>2026-08-26T08:56:21Z</time>
      </trkpt>
      <trkpt lat="45.69342" lon="4.58383">
        <ele>671.4</ele>
        <time>2026-08-26T08:56:22Z</time>
      </trkpt>
      <trkpt lat="45.6934" lon="4.58384">
        <ele>671.6</ele>
        <time>2026-08-26T08:56:23Z</time>
      </trkpt>
      <trkpt lat="45.69339" lon="4.58386">
        <ele>671.6</ele>
        <time>2026-08-26T08:56:24Z</time>
      </trkpt>
      <trkpt lat="45.69337" lon="4.58387">
        <ele>671.8</ele>
        <time>2026-08-26T08:56:25Z</time>
      </trkpt>
      <trkpt lat="45.69335" lon="4.58387">
        <ele>672</ele>
        <time>2026-08-26T08:56:26Z</time>
      </trkpt>
      <trkpt lat="45.69333" lon="4.58388">
        <ele>672.2</ele>
        <time>2026-08-26T08:56:27Z</time>
      </trkpt>
      <trkpt lat="45.69332" lon="4.58389">
        <ele>672.2</ele>
        <time>2026-08-26T08:56:28Z</time>
      </trkpt>
      <trkpt lat="45.6933" lon="4.5839">
        <ele>672.4</ele>
        <time>2026-08-26T08:56:29Z</time>
      </trkpt>
      <trkpt lat="45.69328" lon="4.5839">
        <ele>672.6</ele>
        <time>2026-08-26T08:56:30Z</time>
      </trkpt>
      <trkpt lat="45.69326" lon="4.58391">
        <ele>672.8</ele>
        <time>2026-08-26T08:56:31Z</time>
      </trkpt>
      <trkpt lat="45.69325" lon="4.58393">
        <ele>673</ele>
        <time>2026-08-26T08:56:32Z</time>
      </trkpt>
      <trkpt lat="45.69323" lon="4.58394">
        <ele>673.2</ele>
        <time>2026-08-26T08:56:33Z</time>
      </trkpt>
      <trkpt lat="45.69322" lon="4.58395">
        <ele>673.4</ele>
        <time>2026-08-26T08:56:34Z</time>
      </trkpt>
      <trkpt lat="45.6932" lon="4.58395">
        <ele>673.6</ele>
        <time>2026-08-26T08:56:35Z</time>
      </trkpt>
      <trkpt lat="45.69318" lon="4.58396">
        <ele>673.6</ele>
        <time>2026-08-26T08:56:36Z</time>
      </trkpt>
      <trkpt lat="45.69317" lon="4.58397">
        <ele>673.8</ele>
        <time>2026-08-26T08:56:37Z</time>
      </trkpt>
      <trkpt lat="45.69315" lon="4.58397">
        <ele>674</ele>
        <time>2026-08-26T08:56:38Z</time>
      </trkpt>
      <trkpt lat="45.69313" lon="4.58398">
        <ele>674.2</ele>
        <time>2026-08-26T08:56:39Z</time>
      </trkpt>
      <trkpt lat="45.69311" lon="4.58399">
        <ele>674.4</ele>
        <time>2026-08-26T08:56:40Z</time>
      </trkpt>
      <trkpt lat="45.6931" lon="4.584">
        <ele>674.6</ele>
        <time>2026-08-26T08:56:41Z</time>
      </trkpt>
      <trkpt lat="45.69308" lon="4.58401">
        <ele>674.6</ele>
        <time>2026-08-26T08:56:42Z</time>
      </trkpt>
      <trkpt lat="45.69307" lon="4.58402">
        <ele>674.8</ele>
        <time>2026-08-26T08:56:43Z</time>
      </trkpt>
      <trkpt lat="45.69305" lon="4.58403">
        <ele>675</ele>
        <time>2026-08-26T08:56:44Z</time>
      </trkpt>
      <trkpt lat="45.69304" lon="4.58404">
        <ele>675.2</ele>
        <time>2026-08-26T08:56:45Z</time>
      </trkpt>
      <trkpt lat="45.69302" lon="4.58404">
        <ele>675.2</ele>
        <time>2026-08-26T08:56:46Z</time>
      </trkpt>
      <trkpt lat="45.693" lon="4.58404">
        <ele>675.4</ele>
        <time>2026-08-26T08:56:47Z</time>
      </trkpt>
      <trkpt lat="45.69299" lon="4.58405">
        <ele>675.6</ele>
        <time>2026-08-26T08:56:48Z</time>
      </trkpt>
      <trkpt lat="45.69297" lon="4.58405">
        <ele>675.8</ele>
        <time>2026-08-26T08:56:49Z</time>
      </trkpt>
      <trkpt lat="45.69296" lon="4.58405">
        <ele>676</ele>
        <time>2026-08-26T08:56:50Z</time>
      </trkpt>
      <trkpt lat="45.69294" lon="4.58405">
        <ele>676</ele>
        <time>2026-08-26T08:56:51Z</time>
      </trkpt>
      <trkpt lat="45.69293" lon="4.58406">
        <ele>676.2</ele>
        <time>2026-08-26T08:56:52Z</time>
      </trkpt>
      <trkpt lat="45.69291" lon="4.58407">
        <ele>676.4</ele>
        <time>2026-08-26T08:56:53Z</time>
      </trkpt>
      <trkpt lat="45.6929" lon="4.58408">
        <ele>676.6</ele>
        <time>2026-08-26T08:56:54Z</time>
      </trkpt>
      <trkpt lat="45.69288" lon="4.58409">
        <ele>676.8</ele>
        <time>2026-08-26T08:56:55Z</time>
      </trkpt>
      <trkpt lat="45.69286" lon="4.5841">
        <ele>676.8</ele>
        <time>2026-08-26T08:56:56Z</time>
      </trkpt>
      <trkpt lat="45.69285" lon="4.58411">
        <ele>677</ele>
        <time>2026-08-26T08:56:57Z</time>
      </trkpt>
      <trkpt lat="45.69283" lon="4.58411">
        <ele>677.2</ele>
        <time>2026-08-26T08:56:58Z</time>
      </trkpt>
      <trkpt lat="45.69281" lon="4.58413">
        <ele>677.2</ele>
        <time>2026-08-26T08:56:59Z</time>
      </trkpt>
      <trkpt lat="45.6928" lon="4.58413">
        <ele>677.4</ele>
        <time>2026-08-26T08:57:00Z</time>
      </trkpt>
      <trkpt lat="45.69278" lon="4.58413">
        <ele>677.6</ele>
        <time>2026-08-26T08:57:01Z</time>
      </trkpt>
      <trkpt lat="45.69276" lon="4.58414">
        <ele>677.8</ele>
        <time>2026-08-26T08:57:02Z</time>
      </trkpt>
      <trkpt lat="45.69275" lon="4.58414">
        <ele>678</ele>
        <time>2026-08-26T08:57:03Z</time>
      </trkpt>
      <trkpt lat="45.69273" lon="4.58415">
        <ele>678</ele>
        <time>2026-08-26T08:57:04Z</time>
      </trkpt>
      <trkpt lat="45.69271" lon="4.58415">
        <ele>678.2</ele>
        <time>2026-08-26T08:57:05Z</time>
      </trkpt>
      <trkpt lat="45.6927" lon="4.58415">
        <ele>678.4</ele>
        <time>2026-08-26T08:57:06Z</time>
      </trkpt>
      <trkpt lat="45.69268" lon="4.58415">
        <ele>678.6</ele>
        <time>2026-08-26T08:57:07Z</time>
      </trkpt>
      <trkpt lat="45.69266" lon="4.58415">
        <ele>678.6</ele>
        <time>2026-08-26T08:57:08Z</time>
      </trkpt>
      <trkpt lat="45.69265" lon="4.58415">
        <ele>678.8</ele>
        <time>2026-08-26T08:57:09Z</time>
      </trkpt>
      <trkpt lat="45.69263" lon="4.58416">
        <ele>679</ele>
        <time>2026-08-26T08:57:10Z</time>
      </trkpt>
      <trkpt lat="45.69261" lon="4.58416">
        <ele>679</ele>
        <time>2026-08-26T08:57:11Z</time>
      </trkpt>
      <trkpt lat="45.6926" lon="4.58417">
        <ele>679.2</ele>
        <time>2026-08-26T08:57:12Z</time>
      </trkpt>
      <trkpt lat="45.69258" lon="4.58417">
        <ele>679.4</ele>
        <time>2026-08-26T08:57:13Z</time>
      </trkpt>
      <trkpt lat="45.69256" lon="4.58417">
        <ele>679.6</ele>
        <time>2026-08-26T08:57:14Z</time>
      </trkpt>
      <trkpt lat="45.69254" lon="4.58417">
        <ele>679.8</ele>
        <time>2026-08-26T08:57:15Z</time>
      </trkpt>
      <trkpt lat="45.69253" lon="4.58418">
        <ele>679.8</ele>
        <time>2026-08-26T08:57:16Z</time>
      </trkpt>
      <trkpt lat="45.69251" lon="4.58418">
        <ele>680</ele>
        <time>2026-08-26T08:57:17Z</time>
      </trkpt>
      <trkpt lat="45.69249" lon="4.58419">
        <ele>680.2</ele>
        <time>2026-08-26T08:57:18Z</time>
      </trkpt>
      <trkpt lat="45.69248" lon="4.5842">
        <ele>680.4</ele>
        <time>2026-08-26T08:57:19Z</time>
      </trkpt>
      <trkpt lat="45.69246" lon="4.5842">
        <ele>680.6</ele>
        <time>2026-08-26T08:57:20Z</time>
      </trkpt>
      <trkpt lat="45.69244" lon="4.5842">
        <ele>680.6</ele>
        <time>2026-08-26T08:57:21Z</time>
      </trkpt>
      <trkpt lat="45.69242" lon="4.5842">
        <ele>680.8</ele>
        <time>2026-08-26T08:57:22Z</time>
      </trkpt>
      <trkpt lat="45.6924" lon="4.58419">
        <ele>681</ele>
        <time>2026-08-26T08:57:23Z</time>
      </trkpt>
      <trkpt lat="45.69238" lon="4.58419">
        <ele>681</ele>
        <time>2026-08-26T08:57:24Z</time>
      </trkpt>
      <trkpt lat="45.69237" lon="4.5842">
        <ele>681.2</ele>
        <time>2026-08-26T08:57:25Z</time>
      </trkpt>
      <trkpt lat="45.69235" lon="4.5842">
        <ele>681.4</ele>
        <time>2026-08-26T08:57:26Z</time>
      </trkpt>
      <trkpt lat="45.69233" lon="4.58421">
        <ele>681.4</ele>
        <time>2026-08-26T08:57:27Z</time>
      </trkpt>
      <trkpt lat="45.69232" lon="4.58421">
        <ele>681.6</ele>
        <time>2026-08-26T08:57:28Z</time>
      </trkpt>
      <trkpt lat="45.6923" lon="4.58421">
        <ele>681.8</ele>
        <time>2026-08-26T08:57:29Z</time>
      </trkpt>
      <trkpt lat="45.69228" lon="4.5842">
        <ele>682</ele>
        <time>2026-08-26T08:57:30Z</time>
      </trkpt>
      <trkpt lat="45.69226" lon="4.5842">
        <ele>682</ele>
        <time>2026-08-26T08:57:31Z</time>
      </trkpt>
      <trkpt lat="45.69224" lon="4.58421">
        <ele>682.2</ele>
        <time>2026-08-26T08:57:32Z</time>
      </trkpt>
      <trkpt lat="45.69223" lon="4.58421">
        <ele>682.4</ele>
        <time>2026-08-26T08:57:33Z</time>
      </trkpt>
      <trkpt lat="45.69221" lon="4.58422">
        <ele>682.6</ele>
        <time>2026-08-26T08:57:34Z</time>
      </trkpt>
      <trkpt lat="45.69219" lon="4.58422">
        <ele>682.8</ele>
        <time>2026-08-26T08:57:35Z</time>
      </trkpt>
      <trkpt lat="45.69218" lon="4.58422">
        <ele>682.8</ele>
        <time>2026-08-26T08:57:36Z</time>
      </trkpt>
      <trkpt lat="45.69216" lon="4.58422">
        <ele>683</ele>
        <time>2026-08-26T08:57:37Z</time>
      </trkpt>
      <trkpt lat="45.69214" lon="4.58422">
        <ele>683.2</ele>
        <time>2026-08-26T08:57:38Z</time>
      </trkpt>
      <trkpt lat="45.69213" lon="4.58422">
        <ele>683.4</ele>
        <time>2026-08-26T08:57:39Z</time>
      </trkpt>
      <trkpt lat="45.69211" lon="4.58422">
        <ele>683.6</ele>
        <time>2026-08-26T08:57:40Z</time>
      </trkpt>
      <trkpt lat="45.69209" lon="4.58423">
        <ele>683.8</ele>
        <time>2026-08-26T08:57:41Z</time>
      </trkpt>
      <trkpt lat="45.69208" lon="4.58423">
        <ele>683.8</ele>
        <time>2026-08-26T08:57:42Z</time>
      </trkpt>
      <trkpt lat="45.69206" lon="4.58423">
        <ele>684</ele>
        <time>2026-08-26T08:57:43Z</time>
      </trkpt>
      <trkpt lat="45.69204" lon="4.58424">
        <ele>684.2</ele>
        <time>2026-08-26T08:57:44Z</time>
      </trkpt>
      <trkpt lat="45.69203" lon="4.58424">
        <ele>684.2</ele>
        <time>2026-08-26T08:57:45Z</time>
      </trkpt>
      <trkpt lat="45.69201" lon="4.58424">
        <ele>684.4</ele>
        <time>2026-08-26T08:57:46Z</time>
      </trkpt>
      <trkpt lat="45.69199" lon="4.58424">
        <ele>684.6</ele>
        <time>2026-08-26T08:57:47Z</time>
      </trkpt>
      <trkpt lat="45.69198" lon="4.58424">
        <ele>684.8</ele>
        <time>2026-08-26T08:57:48Z</time>
      </trkpt>
      <trkpt lat="45.69196" lon="4.58424">
        <ele>685</ele>
        <time>2026-08-26T08:57:49Z</time>
      </trkpt>
      <trkpt lat="45.69194" lon="4.58424">
        <ele>685</ele>
        <time>2026-08-26T08:57:50Z</time>
      </trkpt>
      <trkpt lat="45.69193" lon="4.58424">
        <ele>685.2</ele>
        <time>2026-08-26T08:57:51Z</time>
      </trkpt>
      <trkpt lat="45.69191" lon="4.58425">
        <ele>685.2</ele>
        <time>2026-08-26T08:57:52Z</time>
      </trkpt>
      <trkpt lat="45.69189" lon="4.58425">
        <ele>685.4</ele>
        <time>2026-08-26T08:57:53Z</time>
      </trkpt>
      <trkpt lat="45.69187" lon="4.58426">
        <ele>685.6</ele>
        <time>2026-08-26T08:57:54Z</time>
      </trkpt>
      <trkpt lat="45.69186" lon="4.58427">
        <ele>685.6</ele>
        <time>2026-08-26T08:57:55Z</time>
      </trkpt>
      <trkpt lat="45.69184" lon="4.58428">
        <ele>685.8</ele>
        <time>2026-08-26T08:57:56Z</time>
      </trkpt>
      <trkpt lat="45.69183" lon="4.58429">
        <ele>686</ele>
        <time>2026-08-26T08:57:57Z</time>
      </trkpt>
      <trkpt lat="45.69181" lon="4.58431">
        <ele>686</ele>
        <time>2026-08-26T08:57:58Z</time>
      </trkpt>
      <trkpt lat="45.69179" lon="4.58432">
        <ele>686.2</ele>
        <time>2026-08-26T08:57:59Z</time>
      </trkpt>
      <trkpt lat="45.69178" lon="4.58432">
        <ele>686.2</ele>
        <time>2026-08-26T08:58:00Z</time>
      </trkpt>
      <trkpt lat="45.69176" lon="4.58432">
        <ele>686.4</ele>
        <time>2026-08-26T08:58:01Z</time>
      </trkpt>
      <trkpt lat="45.69174" lon="4.58433">
        <ele>686.6</ele>
        <time>2026-08-26T08:58:02Z</time>
      </trkpt>
      <trkpt lat="45.69173" lon="4.58434">
        <ele>686.6</ele>
        <time>2026-08-26T08:58:03Z</time>
      </trkpt>
      <trkpt lat="45.69171" lon="4.58435">
        <ele>686.8</ele>
        <time>2026-08-26T08:58:04Z</time>
      </trkpt>
      <trkpt lat="45.69169" lon="4.58435">
        <ele>687</ele>
        <time>2026-08-26T08:58:05Z</time>
      </trkpt>
      <trkpt lat="45.69168" lon="4.58436">
        <ele>687</ele>
        <time>2026-08-26T08:58:06Z</time>
      </trkpt>
      <trkpt lat="45.69166" lon="4.58437">
        <ele>687.2</ele>
        <time>2026-08-26T08:58:07Z</time>
      </trkpt>
      <trkpt lat="45.69164" lon="4.58437">
        <ele>687.4</ele>
        <time>2026-08-26T08:58:08Z</time>
      </trkpt>
      <trkpt lat="45.69163" lon="4.58438">
        <ele>687.4</ele>
        <time>2026-08-26T08:58:09Z</time>
      </trkpt>
      <trkpt lat="45.69161" lon="4.58438">
        <ele>687.6</ele>
        <time>2026-08-26T08:58:10Z</time>
      </trkpt>
      <trkpt lat="45.69159" lon="4.58438">
        <ele>687.8</ele>
        <time>2026-08-26T08:58:11Z</time>
      </trkpt>
      <trkpt lat="45.69157" lon="4.58438">
        <ele>688</ele>
        <time>2026-08-26T08:58:12Z</time>
      </trkpt>
      <trkpt lat="45.69156" lon="4.58438">
        <ele>688</ele>
        <time>2026-08-26T08:58:13Z</time>
      </trkpt>
      <trkpt lat="45.69154" lon="4.58438">
        <ele>688.2</ele>
        <time>2026-08-26T08:58:14Z</time>
      </trkpt>
      <trkpt lat="45.69153" lon="4.58438">
        <ele>688.4</ele>
        <time>2026-08-26T08:58:15Z</time>
      </trkpt>
      <trkpt lat="45.69151" lon="4.58439">
        <ele>688.4</ele>
        <time>2026-08-26T08:58:16Z</time>
      </trkpt>
      <trkpt lat="45.69149" lon="4.58439">
        <ele>688.6</ele>
        <time>2026-08-26T08:58:17Z</time>
      </trkpt>
      <trkpt lat="45.69148" lon="4.5844">
        <ele>688.8</ele>
        <time>2026-08-26T08:58:18Z</time>
      </trkpt>
      <trkpt lat="45.69146" lon="4.5844">
        <ele>689</ele>
        <time>2026-08-26T08:58:19Z</time>
      </trkpt>
      <trkpt lat="45.69144" lon="4.5844">
        <ele>689.2</ele>
        <time>2026-08-26T08:58:20Z</time>
      </trkpt>
      <trkpt lat="45.69142" lon="4.5844">
        <ele>689.4</ele>
        <time>2026-08-26T08:58:21Z</time>
      </trkpt>
      <trkpt lat="45.69141" lon="4.5844">
        <ele>689.4</ele>
        <time>2026-08-26T08:58:22Z</time>
      </trkpt>
      <trkpt lat="45.69139" lon="4.5844">
        <ele>689.6</ele>
        <time>2026-08-26T08:58:23Z</time>
      </trkpt>
      <trkpt lat="45.69137" lon="4.58441">
        <ele>689.8</ele>
        <time>2026-08-26T08:58:24Z</time>
      </trkpt>
      <trkpt lat="45.69135" lon="4.58441">
        <ele>689.8</ele>
        <time>2026-08-26T08:58:25Z</time>
      </trkpt>
      <trkpt lat="45.69134" lon="4.58441">
        <ele>690</ele>
        <time>2026-08-26T08:58:26Z</time>
      </trkpt>
      <trkpt lat="45.69132" lon="4.58441">
        <ele>690.2</ele>
        <time>2026-08-26T08:58:27Z</time>
      </trkpt>
      <trkpt lat="45.6913" lon="4.58441">
        <ele>690.4</ele>
        <time>2026-08-26T08:58:28Z</time>
      </trkpt>
      <trkpt lat="45.69129" lon="4.58441">
        <ele>690.4</ele>
        <time>2026-08-26T08:58:29Z</time>
      </trkpt>
      <trkpt lat="45.69127" lon="4.58441">
        <ele>690.6</ele>
        <time>2026-08-26T08:58:30Z</time>
      </trkpt>
      <trkpt lat="45.69125" lon="4.58442">
        <ele>690.8</ele>
        <time>2026-08-26T08:58:31Z</time>
      </trkpt>
      <trkpt lat="45.69123" lon="4.58442">
        <ele>691</ele>
        <time>2026-08-26T08:58:32Z</time>
      </trkpt>
      <trkpt lat="45.69122" lon="4.58443">
        <ele>691</ele>
        <time>2026-08-26T08:58:33Z</time>
      </trkpt>
      <trkpt lat="45.6912" lon="4.58443">
        <ele>691.2</ele>
        <time>2026-08-26T08:58:34Z</time>
      </trkpt>
      <trkpt lat="45.69118" lon="4.58443">
        <ele>691.4</ele>
        <time>2026-08-26T08:58:35Z</time>
      </trkpt>
      <trkpt lat="45.69116" lon="4.58443">
        <ele>691.6</ele>
        <time>2026-08-26T08:58:36Z</time>
      </trkpt>
      <trkpt lat="45.69115" lon="4.58443">
        <ele>691.8</ele>
        <time>2026-08-26T08:58:37Z</time>
      </trkpt>
      <trkpt lat="45.69113" lon="4.58444">
        <ele>691.8</ele>
        <time>2026-08-26T08:58:38Z</time>
      </trkpt>
      <trkpt lat="45.69111" lon="4.58444">
        <ele>692</ele>
        <time>2026-08-26T08:58:39Z</time>
      </trkpt>
      <trkpt lat="45.69109" lon="4.58444">
        <ele>692</ele>
        <time>2026-08-26T08:58:40Z</time>
      </trkpt>
      <trkpt lat="45.69108" lon="4.58444">
        <ele>692.2</ele>
        <time>2026-08-26T08:58:41Z</time>
      </trkpt>
      <trkpt lat="45.69106" lon="4.58444">
        <ele>692.4</ele>
        <time>2026-08-26T08:58:42Z</time>
      </trkpt>
      <trkpt lat="45.69104" lon="4.58444">
        <ele>692.6</ele>
        <time>2026-08-26T08:58:43Z</time>
      </trkpt>
      <trkpt lat="45.69102" lon="4.58444">
        <ele>692.8</ele>
        <time>2026-08-26T08:58:44Z</time>
      </trkpt>
      <trkpt lat="45.691" lon="4.58444">
        <ele>692.8</ele>
        <time>2026-08-26T08:58:45Z</time>
      </trkpt>
      <trkpt lat="45.69098" lon="4.58444">
        <ele>693</ele>
        <time>2026-08-26T08:58:46Z</time>
      </trkpt>
      <trkpt lat="45.69096" lon="4.58445">
        <ele>693.2</ele>
        <time>2026-08-26T08:58:47Z</time>
      </trkpt>
      <trkpt lat="45.69094" lon="4.58445">
        <ele>693.4</ele>
        <time>2026-08-26T08:58:48Z</time>
      </trkpt>
      <trkpt lat="45.69093" lon="4.58445">
        <ele>693.6</ele>
        <time>2026-08-26T08:58:49Z</time>
      </trkpt>
      <trkpt lat="45.69091" lon="4.58445">
        <ele>693.6</ele>
        <time>2026-08-26T08:58:50Z</time>
      </trkpt>
      <trkpt lat="45.69089" lon="4.58444">
        <ele>693.8</ele>
        <time>2026-08-26T08:58:51Z</time>
      </trkpt>
      <trkpt lat="45.69087" lon="4.58444">
        <ele>694</ele>
        <time>2026-08-26T08:58:52Z</time>
      </trkpt>
      <trkpt lat="45.69086" lon="4.58444">
        <ele>694.2</ele>
        <time>2026-08-26T08:58:53Z</time>
      </trkpt>
      <trkpt lat="45.69084" lon="4.58444">
        <ele>694.4</ele>
        <time>2026-08-26T08:58:54Z</time>
      </trkpt>
      <trkpt lat="45.69083" lon="4.58444">
        <ele>694.4</ele>
        <time>2026-08-26T08:58:55Z</time>
      </trkpt>
      <trkpt lat="45.69081" lon="4.58443">
        <ele>694.6</ele>
        <time>2026-08-26T08:58:56Z</time>
      </trkpt>
      <trkpt lat="45.6908" lon="4.58442">
        <ele>694.8</ele>
        <time>2026-08-26T08:58:57Z</time>
      </trkpt>
      <trkpt lat="45.69078" lon="4.5844">
        <ele>695</ele>
        <time>2026-08-26T08:58:58Z</time>
      </trkpt>
      <trkpt lat="45.69077" lon="4.58439">
        <ele>695</ele>
        <time>2026-08-26T08:58:59Z</time>
      </trkpt>
      <trkpt lat="45.69076" lon="4.58437">
        <ele>695.2</ele>
        <time>2026-08-26T08:59:00Z</time>
      </trkpt>
      <trkpt lat="45.69075" lon="4.58436">
        <ele>695.4</ele>
        <time>2026-08-26T08:59:01Z</time>
      </trkpt>
      <trkpt lat="45.69073" lon="4.58434">
        <ele>695.4</ele>
        <time>2026-08-26T08:59:02Z</time>
      </trkpt>
      <trkpt lat="45.69072" lon="4.58432">
        <ele>695.6</ele>
        <time>2026-08-26T08:59:03Z</time>
      </trkpt>
      <trkpt lat="45.69071" lon="4.5843">
        <ele>695.8</ele>
        <time>2026-08-26T08:59:04Z</time>
      </trkpt>
      <trkpt lat="45.6907" lon="4.58428">
        <ele>695.8</ele>
        <time>2026-08-26T08:59:05Z</time>
      </trkpt>
      <trkpt lat="45.69069" lon="4.58427">
        <ele>696</ele>
        <time>2026-08-26T08:59:06Z</time>
      </trkpt>
      <trkpt lat="45.69068" lon="4.58425">
        <ele>696</ele>
        <time>2026-08-26T08:59:07Z</time>
      </trkpt>
      <trkpt lat="45.69067" lon="4.58423">
        <ele>696.2</ele>
        <time>2026-08-26T08:59:08Z</time>
      </trkpt>
      <trkpt lat="45.69066" lon="4.58421">
        <ele>696.4</ele>
        <time>2026-08-26T08:59:09Z</time>
      </trkpt>
      <trkpt lat="45.69065" lon="4.58418">
        <ele>696.6</ele>
        <time>2026-08-26T08:59:10Z</time>
      </trkpt>
      <trkpt lat="45.69064" lon="4.58416">
        <ele>696.6</ele>
        <time>2026-08-26T08:59:11Z</time>
      </trkpt>
      <trkpt lat="45.69062" lon="4.58414">
        <ele>696.8</ele>
        <time>2026-08-26T08:59:12Z</time>
      </trkpt>
      <trkpt lat="45.6906" lon="4.58413">
        <ele>697</ele>
        <time>2026-08-26T08:59:13Z</time>
      </trkpt>
      <trkpt lat="45.69059" lon="4.58411">
        <ele>697</ele>
        <time>2026-08-26T08:59:14Z</time>
      </trkpt>
      <trkpt lat="45.69058" lon="4.58409">
        <ele>697.2</ele>
        <time>2026-08-26T08:59:15Z</time>
      </trkpt>
      <trkpt lat="45.69057" lon="4.58407">
        <ele>697.4</ele>
        <time>2026-08-26T08:59:16Z</time>
      </trkpt>
      <trkpt lat="45.69056" lon="4.58405">
        <ele>697.6</ele>
        <time>2026-08-26T08:59:17Z</time>
      </trkpt>
      <trkpt lat="45.69055" lon="4.58404">
        <ele>697.6</ele>
        <time>2026-08-26T08:59:18Z</time>
      </trkpt>
      <trkpt lat="45.69053" lon="4.58403">
        <ele>697.8</ele>
        <time>2026-08-26T08:59:19Z</time>
      </trkpt>
      <trkpt lat="45.69052" lon="4.58403">
        <ele>698</ele>
        <time>2026-08-26T08:59:20Z</time>
      </trkpt>
      <trkpt lat="45.6905" lon="4.58402">
        <ele>698.2</ele>
        <time>2026-08-26T08:59:21Z</time>
      </trkpt>
      <trkpt lat="45.69048" lon="4.58402">
        <ele>698.2</ele>
        <time>2026-08-26T08:59:22Z</time>
      </trkpt>
      <trkpt lat="45.69047" lon="4.58402">
        <ele>698.4</ele>
        <time>2026-08-26T08:59:23Z</time>
      </trkpt>
      <trkpt lat="45.69045" lon="4.58402">
        <ele>698.6</ele>
        <time>2026-08-26T08:59:24Z</time>
      </trkpt>
      <trkpt lat="45.69044" lon="4.58401">
        <ele>698.8</ele>
        <time>2026-08-26T08:59:25Z</time>
      </trkpt>
      <trkpt lat="45.69042" lon="4.58401">
        <ele>699</ele>
        <time>2026-08-26T08:59:26Z</time>
      </trkpt>
      <trkpt lat="45.69041" lon="4.58401">
        <ele>699.2</ele>
        <time>2026-08-26T08:59:27Z</time>
      </trkpt>
      <trkpt lat="45.69039" lon="4.58401">
        <ele>699.4</ele>
        <time>2026-08-26T08:59:28Z</time>
      </trkpt>
      <trkpt lat="45.69038" lon="4.58401">
        <ele>699.6</ele>
        <time>2026-08-26T08:59:29Z</time>
      </trkpt>
      <trkpt lat="45.69036" lon="4.58402">
        <ele>699.6</ele>
        <time>2026-08-26T08:59:30Z</time>
      </trkpt>
      <trkpt lat="45.69035" lon="4.58403">
        <ele>699.8</ele>
        <time>2026-08-26T08:59:31Z</time>
      </trkpt>
      <trkpt lat="45.69033" lon="4.58404">
        <ele>700</ele>
        <time>2026-08-26T08:59:32Z</time>
      </trkpt>
      <trkpt lat="45.69032" lon="4.58405">
        <ele>700.2</ele>
        <time>2026-08-26T08:59:33Z</time>
      </trkpt>
      <trkpt lat="45.6903" lon="4.58407">
        <ele>700.4</ele>
        <time>2026-08-26T08:59:34Z</time>
      </trkpt>
      <trkpt lat="45.69029" lon="4.58409">
        <ele>700.6</ele>
        <time>2026-08-26T08:59:35Z</time>
      </trkpt>
      <trkpt lat="45.69028" lon="4.58411">
        <ele>700.8</ele>
        <time>2026-08-26T08:59:36Z</time>
      </trkpt>
      <trkpt lat="45.69027" lon="4.58413">
        <ele>701</ele>
        <time>2026-08-26T08:59:37Z</time>
      </trkpt>
      <trkpt lat="45.69027" lon="4.58416">
        <ele>701.2</ele>
        <time>2026-08-26T08:59:38Z</time>
      </trkpt>
      <trkpt lat="45.69025" lon="4.58418">
        <ele>701.4</ele>
        <time>2026-08-26T08:59:39Z</time>
      </trkpt>
      <trkpt lat="45.69024" lon="4.58419">
        <ele>701.4</ele>
        <time>2026-08-26T08:59:40Z</time>
      </trkpt>
      <trkpt lat="45.69023" lon="4.58421">
        <ele>701.6</ele>
        <time>2026-08-26T08:59:41Z</time>
      </trkpt>
      <trkpt lat="45.69022" lon="4.58423">
        <ele>701.8</ele>
        <time>2026-08-26T08:59:42Z</time>
      </trkpt>
      <trkpt lat="45.6902" lon="4.58425">
        <ele>702</ele>
        <time>2026-08-26T08:59:43Z</time>
      </trkpt>
      <trkpt lat="45.69019" lon="4.58427">
        <ele>702</ele>
        <time>2026-08-26T08:59:44Z</time>
      </trkpt>
      <trkpt lat="45.69018" lon="4.58429">
        <ele>702.2</ele>
        <time>2026-08-26T08:59:45Z</time>
      </trkpt>
      <trkpt lat="45.69016" lon="4.58431">
        <ele>702.4</ele>
        <time>2026-08-26T08:59:46Z</time>
      </trkpt>
      <trkpt lat="45.69015" lon="4.58433">
        <ele>702.6</ele>
        <time>2026-08-26T08:59:47Z</time>
      </trkpt>
      <trkpt lat="45.69014" lon="4.58434">
        <ele>702.8</ele>
        <time>2026-08-26T08:59:48Z</time>
      </trkpt>
      <trkpt lat="45.69013" lon="4.58436">
        <ele>703</ele>
        <time>2026-08-26T08:59:49Z</time>
      </trkpt>
      <trkpt lat="45.69012" lon="4.58438">
        <ele>703</ele>
        <time>2026-08-26T08:59:50Z</time>
      </trkpt>
      <trkpt lat="45.69011" lon="4.5844">
        <ele>703.2</ele>
        <time>2026-08-26T08:59:51Z</time>
      </trkpt>
      <trkpt lat="45.69009" lon="4.58441">
        <ele>703.4</ele>
        <time>2026-08-26T08:59:52Z</time>
      </trkpt>
      <trkpt lat="45.69008" lon="4.58443">
        <ele>703.4</ele>
        <time>2026-08-26T08:59:53Z</time>
      </trkpt>
      <trkpt lat="45.69006" lon="4.58444">
        <ele>703.6</ele>
        <time>2026-08-26T08:59:54Z</time>
      </trkpt>
      <trkpt lat="45.69005" lon="4.58445">
        <ele>703.8</ele>
        <time>2026-08-26T08:59:55Z</time>
      </trkpt>
      <trkpt lat="45.69003" lon="4.58447">
        <ele>704</ele>
        <time>2026-08-26T08:59:56Z</time>
      </trkpt>
      <trkpt lat="45.69002" lon="4.58448">
        <ele>704.2</ele>
        <time>2026-08-26T08:59:57Z</time>
      </trkpt>
      <trkpt lat="45.69" lon="4.58449">
        <ele>704.4</ele>
        <time>2026-08-26T08:59:58Z</time>
      </trkpt>
      <trkpt lat="45.68998" lon="4.5845">
        <ele>704.4</ele>
        <time>2026-08-26T08:59:59Z</time>
      </trkpt>
      <trkpt lat="45.68997" lon="4.58451">
        <ele>704.6</ele>
        <time>2026-08-26T09:00:00Z</time>
      </trkpt>
      <trkpt lat="45.68995" lon="4.58453">
        <ele>704.6</ele>
        <time>2026-08-26T09:00:01Z</time>
      </trkpt>
      <trkpt lat="45.68994" lon="4.58454">
        <ele>704.8</ele>
        <time>2026-08-26T09:00:02Z</time>
      </trkpt>
      <trkpt lat="45.68992" lon="4.58454">
        <ele>705</ele>
        <time>2026-08-26T09:00:03Z</time>
      </trkpt>
      <trkpt lat="45.6899" lon="4.58456">
        <ele>705.2</ele>
        <time>2026-08-26T09:00:04Z</time>
      </trkpt>
      <trkpt lat="45.68989" lon="4.58457">
        <ele>705.2</ele>
        <time>2026-08-26T09:00:05Z</time>
      </trkpt>
      <trkpt lat="45.68987" lon="4.58458">
        <ele>705.4</ele>
        <time>2026-08-26T09:00:06Z</time>
      </trkpt>
      <trkpt lat="45.68985" lon="4.58458">
        <ele>705.4</ele>
        <time>2026-08-26T09:00:07Z</time>
      </trkpt>
      <trkpt lat="45.68983" lon="4.58459">
        <ele>705.6</ele>
        <time>2026-08-26T09:00:08Z</time>
      </trkpt>
      <trkpt lat="45.68981" lon="4.5846">
        <ele>705.8</ele>
        <time>2026-08-26T09:00:09Z</time>
      </trkpt>
      <trkpt lat="45.6898" lon="4.58461">
        <ele>705.8</ele>
        <time>2026-08-26T09:00:10Z</time>
      </trkpt>
      <trkpt lat="45.68978" lon="4.58462">
        <ele>706</ele>
        <time>2026-08-26T09:00:11Z</time>
      </trkpt>
      <trkpt lat="45.68977" lon="4.58463">
        <ele>706.2</ele>
        <time>2026-08-26T09:00:12Z</time>
      </trkpt>
      <trkpt lat="45.68975" lon="4.58464">
        <ele>706.2</ele>
        <time>2026-08-26T09:00:13Z</time>
      </trkpt>
      <trkpt lat="45.68973" lon="4.58465">
        <ele>706.4</ele>
        <time>2026-08-26T09:00:14Z</time>
      </trkpt>
      <trkpt lat="45.68972" lon="4.58465">
        <ele>706.6</ele>
        <time>2026-08-26T09:00:15Z</time>
      </trkpt>
      <trkpt lat="45.6897" lon="4.58466">
        <ele>706.8</ele>
        <time>2026-08-26T09:00:16Z</time>
      </trkpt>
      <trkpt lat="45.68968" lon="4.58466">
        <ele>706.8</ele>
        <time>2026-08-26T09:00:17Z</time>
      </trkpt>
      <trkpt lat="45.68966" lon="4.58467">
        <ele>707</ele>
        <time>2026-08-26T09:00:18Z</time>
      </trkpt>
      <trkpt lat="45.68965" lon="4.58467">
        <ele>707.2</ele>
        <time>2026-08-26T09:00:19Z</time>
      </trkpt>
      <trkpt lat="45.68963" lon="4.58467">
        <ele>707.2</ele>
        <time>2026-08-26T09:00:20Z</time>
      </trkpt>
      <trkpt lat="45.68962" lon="4.58467">
        <ele>707.4</ele>
        <time>2026-08-26T09:00:21Z</time>
      </trkpt>
      <trkpt lat="45.6896" lon="4.58468">
        <ele>707.6</ele>
        <time>2026-08-26T09:00:22Z</time>
      </trkpt>
      <trkpt lat="45.68958" lon="4.58469">
        <ele>707.6</ele>
        <time>2026-08-26T09:00:23Z</time>
      </trkpt>
      <trkpt lat="45.68956" lon="4.5847">
        <ele>707.8</ele>
        <time>2026-08-26T09:00:24Z</time>
      </trkpt>
      <trkpt lat="45.68955" lon="4.58471">
        <ele>708</ele>
        <time>2026-08-26T09:00:25Z</time>
      </trkpt>
      <trkpt lat="45.68953" lon="4.58472">
        <ele>708.2</ele>
        <time>2026-08-26T09:00:26Z</time>
      </trkpt>
      <trkpt lat="45.68951" lon="4.58472">
        <ele>708.4</ele>
        <time>2026-08-26T09:00:27Z</time>
      </trkpt>
      <trkpt lat="45.68949" lon="4.58472">
        <ele>708.4</ele>
        <time>2026-08-26T09:00:28Z</time>
      </trkpt>
      <trkpt lat="45.68947" lon="4.58472">
        <ele>708.6</ele>
        <time>2026-08-26T09:00:29Z</time>
      </trkpt>
      <trkpt lat="45.68945" lon="4.58472">
        <ele>708.8</ele>
        <time>2026-08-26T09:00:30Z</time>
      </trkpt>
      <trkpt lat="45.68944" lon="4.58472">
        <ele>709</ele>
        <time>2026-08-26T09:00:31Z</time>
      </trkpt>
      <trkpt lat="45.68942" lon="4.58472">
        <ele>709</ele>
        <time>2026-08-26T09:00:32Z</time>
      </trkpt>
      <trkpt lat="45.6894" lon="4.58472">
        <ele>709.2</ele>
        <time>2026-08-26T09:00:33Z</time>
      </trkpt>
      <trkpt lat="45.68938" lon="4.58472">
        <ele>709.4</ele>
        <time>2026-08-26T09:00:34Z</time>
      </trkpt>
      <trkpt lat="45.68937" lon="4.58471">
        <ele>709.6</ele>
        <time>2026-08-26T09:00:35Z</time>
      </trkpt>
      <trkpt lat="45.68935" lon="4.58471">
        <ele>709.6</ele>
        <time>2026-08-26T09:00:36Z</time>
      </trkpt>
      <trkpt lat="45.68933" lon="4.58471">
        <ele>709.8</ele>
        <time>2026-08-26T09:00:37Z</time>
      </trkpt>
      <trkpt lat="45.68931" lon="4.58471">
        <ele>710</ele>
        <time>2026-08-26T09:00:38Z</time>
      </trkpt>
      <trkpt lat="45.68929" lon="4.5847">
        <ele>710.2</ele>
        <time>2026-08-26T09:00:39Z</time>
      </trkpt>
      <trkpt lat="45.68928" lon="4.5847">
        <ele>710.2</ele>
        <time>2026-08-26T09:00:40Z</time>
      </trkpt>
      <trkpt lat="45.68926" lon="4.5847">
        <ele>710.4</ele>
        <time>2026-08-26T09:00:41Z</time>
      </trkpt>
      <trkpt lat="45.68924" lon="4.5847">
        <ele>710.6</ele>
        <time>2026-08-26T09:00:42Z</time>
      </trkpt>
      <trkpt lat="45.68922" lon="4.5847">
        <ele>710.8</ele>
        <time>2026-08-26T09:00:43Z</time>
      </trkpt>
      <trkpt lat="45.6892" lon="4.5847">
        <ele>711</ele>
        <time>2026-08-26T09:00:44Z</time>
      </trkpt>
      <trkpt lat="45.68918" lon="4.5847">
        <ele>711</ele>
        <time>2026-08-26T09:00:45Z</time>
      </trkpt>
      <trkpt lat="45.68916" lon="4.58469">
        <ele>711.2</ele>
        <time>2026-08-26T09:00:46Z</time>
      </trkpt>
      <trkpt lat="45.68915" lon="4.58469">
        <ele>711.4</ele>
        <time>2026-08-26T09:00:47Z</time>
      </trkpt>
      <trkpt lat="45.68913" lon="4.58468">
        <ele>711.6</ele>
        <time>2026-08-26T09:00:48Z</time>
      </trkpt>
      <trkpt lat="45.68911" lon="4.58467">
        <ele>711.6</ele>
        <time>2026-08-26T09:00:49Z</time>
      </trkpt>
      <trkpt lat="45.6891" lon="4.58467">
        <ele>711.8</ele>
        <time>2026-08-26T09:00:50Z</time>
      </trkpt>
      <trkpt lat="45.68908" lon="4.58466">
        <ele>712</ele>
        <time>2026-08-26T09:00:51Z</time>
      </trkpt>
      <trkpt lat="45.68906" lon="4.58465">
        <ele>712.2</ele>
        <time>2026-08-26T09:00:52Z</time>
      </trkpt>
      <trkpt lat="45.68905" lon="4.58463">
        <ele>712.4</ele>
        <time>2026-08-26T09:00:53Z</time>
      </trkpt>
      <trkpt lat="45.68904" lon="4.58462">
        <ele>712.4</ele>
        <time>2026-08-26T09:00:54Z</time>
      </trkpt>
      <trkpt lat="45.68902" lon="4.5846">
        <ele>712.6</ele>
        <time>2026-08-26T09:00:55Z</time>
      </trkpt>
      <trkpt lat="45.689" lon="4.58459">
        <ele>712.8</ele>
        <time>2026-08-26T09:00:56Z</time>
      </trkpt>
      <trkpt lat="45.68899" lon="4.58457">
        <ele>713</ele>
        <time>2026-08-26T09:00:57Z</time>
      </trkpt>
      <trkpt lat="45.68898" lon="4.58455">
        <ele>713</ele>
        <time>2026-08-26T09:00:58Z</time>
      </trkpt>
      <trkpt lat="45.68896" lon="4.58453">
        <ele>713.2</ele>
        <time>2026-08-26T09:00:59Z</time>
      </trkpt>
      <trkpt lat="45.68895" lon="4.58451">
        <ele>713.4</ele>
        <time>2026-08-26T09:01:00Z</time>
      </trkpt>
      <trkpt lat="45.68894" lon="4.5845">
        <ele>713.4</ele>
        <time>2026-08-26T09:01:01Z</time>
      </trkpt>
      <trkpt lat="45.68893" lon="4.58448">
        <ele>713.6</ele>
        <time>2026-08-26T09:01:02Z</time>
      </trkpt>
      <trkpt lat="45.68892" lon="4.58446">
        <ele>713.8</ele>
        <time>2026-08-26T09:01:03Z</time>
      </trkpt>
      <trkpt lat="45.68891" lon="4.58444">
        <ele>713.8</ele>
        <time>2026-08-26T09:01:04Z</time>
      </trkpt>
      <trkpt lat="45.68891" lon="4.58441">
        <ele>714</ele>
        <time>2026-08-26T09:01:05Z</time>
      </trkpt>
      <trkpt lat="45.6889" lon="4.58439">
        <ele>714</ele>
        <time>2026-08-26T09:01:06Z</time>
      </trkpt>
      <trkpt lat="45.68889" lon="4.58436">
        <ele>714.2</ele>
        <time>2026-08-26T09:01:07Z</time>
      </trkpt>
      <trkpt lat="45.68888" lon="4.58433">
        <ele>714.2</ele>
        <time>2026-08-26T09:01:08Z</time>
      </trkpt>
      <trkpt lat="45.68888" lon="4.58431">
        <ele>714.4</ele>
        <time>2026-08-26T09:01:09Z</time>
      </trkpt>
      <trkpt lat="45.68888" lon="4.58428">
        <ele>714.6</ele>
        <time>2026-08-26T09:01:10Z</time>
      </trkpt>
      <trkpt lat="45.68887" lon="4.58425">
        <ele>714.6</ele>
        <time>2026-08-26T09:01:11Z</time>
      </trkpt>
      <trkpt lat="45.68887" lon="4.58422">
        <ele>714.8</ele>
        <time>2026-08-26T09:01:12Z</time>
      </trkpt>
      <trkpt lat="45.68887" lon="4.58419">
        <ele>714.8</ele>
        <time>2026-08-26T09:01:13Z</time>
      </trkpt>
      <trkpt lat="45.68887" lon="4.58417">
        <ele>715</ele>
        <time>2026-08-26T09:01:14Z</time>
      </trkpt>
      <trkpt lat="45.68886" lon="4.58414">
        <ele>715</ele>
        <time>2026-08-26T09:01:15Z</time>
      </trkpt>
      <trkpt lat="45.68886" lon="4.58411">
        <ele>715.2</ele>
        <time>2026-08-26T09:01:16Z</time>
      </trkpt>
      <trkpt lat="45.68885" lon="4.58408">
        <ele>715.4</ele>
        <time>2026-08-26T09:01:17Z</time>
      </trkpt>
      <trkpt lat="45.68885" lon="4.58405">
        <ele>715.4</ele>
        <time>2026-08-26T09:01:18Z</time>
      </trkpt>
      <trkpt lat="45.68884" lon="4.58402">
        <ele>715.6</ele>
        <time>2026-08-26T09:01:19Z</time>
      </trkpt>
      <trkpt lat="45.68884" lon="4.58399">
        <ele>715.8</ele>
        <time>2026-08-26T09:01:20Z</time>
      </trkpt>
      <trkpt lat="45.68884" lon="4.58396">
        <ele>716</ele>
        <time>2026-08-26T09:01:21Z</time>
      </trkpt>
      <trkpt lat="45.68884" lon="4.58393">
        <ele>716.2</ele>
        <time>2026-08-26T09:01:22Z</time>
      </trkpt>
      <trkpt lat="45.68884" lon="4.5839">
        <ele>716.2</ele>
        <time>2026-08-26T09:01:23Z</time>
      </trkpt>
      <trkpt lat="45.68884" lon="4.58386">
        <ele>716.4</ele>
        <time>2026-08-26T09:01:24Z</time>
      </trkpt>
      <trkpt lat="45.68884" lon="4.58383">
        <ele>716.6</ele>
        <time>2026-08-26T09:01:25Z</time>
      </trkpt>
      <trkpt lat="45.68884" lon="4.5838">
        <ele>716.8</ele>
        <time>2026-08-26T09:01:26Z</time>
      </trkpt>
      <trkpt lat="45.68883" lon="4.58377">
        <ele>716.8</ele>
        <time>2026-08-26T09:01:27Z</time>
      </trkpt>
      <trkpt lat="45.68884" lon="4.58374">
        <ele>717</ele>
        <time>2026-08-26T09:01:28Z</time>
      </trkpt>
      <trkpt lat="45.68884" lon="4.5837">
        <ele>717.2</ele>
        <time>2026-08-26T09:01:29Z</time>
      </trkpt>
      <trkpt lat="45.68884" lon="4.58367">
        <ele>717.4</ele>
        <time>2026-08-26T09:01:30Z</time>
      </trkpt>
      <trkpt lat="45.68884" lon="4.58364">
        <ele>717.4</ele>
        <time>2026-08-26T09:01:31Z</time>
      </trkpt>
      <trkpt lat="45.68884" lon="4.58361">
        <ele>717.6</ele>
        <time>2026-08-26T09:01:32Z</time>
      </trkpt>
      <trkpt lat="45.68885" lon="4.58358">
        <ele>717.8</ele>
        <time>2026-08-26T09:01:33Z</time>
      </trkpt>
      <trkpt lat="45.68885" lon="4.58355">
        <ele>718</ele>
        <time>2026-08-26T09:01:34Z</time>
      </trkpt>
      <trkpt lat="45.68885" lon="4.58352">
        <ele>718</ele>
        <time>2026-08-26T09:01:35Z</time>
      </trkpt>
      <trkpt lat="45.68885" lon="4.58349">
        <ele>718.2</ele>
        <time>2026-08-26T09:01:36Z</time>
      </trkpt>
      <trkpt lat="45.68886" lon="4.58346">
        <ele>718.4</ele>
        <time>2026-08-26T09:01:37Z</time>
      </trkpt>
      <trkpt lat="45.68886" lon="4.58343">
        <ele>718.6</ele>
        <time>2026-08-26T09:01:38Z</time>
      </trkpt>
      <trkpt lat="45.68887" lon="4.5834">
        <ele>718.8</ele>
        <time>2026-08-26T09:01:39Z</time>
      </trkpt>
      <trkpt lat="45.68887" lon="4.58337">
        <ele>719</ele>
        <time>2026-08-26T09:01:40Z</time>
      </trkpt>
      <trkpt lat="45.68888" lon="4.58334">
        <ele>719.2</ele>
        <time>2026-08-26T09:01:41Z</time>
      </trkpt>
      <trkpt lat="45.68889" lon="4.58331">
        <ele>719.2</ele>
        <time>2026-08-26T09:01:42Z</time>
      </trkpt>
      <trkpt lat="45.68889" lon="4.58328">
        <ele>719.4</ele>
        <time>2026-08-26T09:01:43Z</time>
      </trkpt>
      <trkpt lat="45.6889" lon="4.58324">
        <ele>719.6</ele>
        <time>2026-08-26T09:01:44Z</time>
      </trkpt>
      <trkpt lat="45.6889" lon="4.58321">
        <ele>719.8</ele>
        <time>2026-08-26T09:01:45Z</time>
      </trkpt>
      <trkpt lat="45.6889" lon="4.58318">
        <ele>719.8</ele>
        <time>2026-08-26T09:01:46Z</time>
      </trkpt>
      <trkpt lat="45.68891" lon="4.58315">
        <ele>720</ele>
        <time>2026-08-26T09:01:47Z</time>
      </trkpt>
      <trkpt lat="45.68891" lon="4.58312">
        <ele>720.2</ele>
        <time>2026-08-26T09:01:48Z</time>
      </trkpt>
      <trkpt lat="45.68892" lon="4.58309">
        <ele>720.2</ele>
        <time>2026-08-26T09:01:49Z</time>
      </trkpt>
      <trkpt lat="45.68892" lon="4.58305">
        <ele>720.4</ele>
        <time>2026-08-26T09:01:50Z</time>
      </trkpt>
      <trkpt lat="45.68893" lon="4.58302">
        <ele>720.6</ele>
        <time>2026-08-26T09:01:51Z</time>
      </trkpt>
      <trkpt lat="45.68893" lon="4.58299">
        <ele>720.6</ele>
        <time>2026-08-26T09:01:52Z</time>
      </trkpt>
      <trkpt lat="45.68893" lon="4.58296">
        <ele>720.8</ele>
        <time>2026-08-26T09:01:53Z</time>
      </trkpt>
      <trkpt lat="45.68893" lon="4.58293">
        <ele>720.8</ele>
        <time>2026-08-26T09:01:54Z</time>
      </trkpt>
      <trkpt lat="45.68894" lon="4.5829">
        <ele>721</ele>
        <time>2026-08-26T09:01:55Z</time>
      </trkpt>
      <trkpt lat="45.68894" lon="4.58287">
        <ele>721.2</ele>
        <time>2026-08-26T09:01:56Z</time>
      </trkpt>
      <trkpt lat="45.68894" lon="4.58284">
        <ele>721.4</ele>
        <time>2026-08-26T09:01:57Z</time>
      </trkpt>
      <trkpt lat="45.68895" lon="4.58281">
        <ele>721.4</ele>
        <time>2026-08-26T09:01:58Z</time>
      </trkpt>
      <trkpt lat="45.68895" lon="4.58279">
        <ele>721.6</ele>
        <time>2026-08-26T09:01:59Z</time>
      </trkpt>
      <trkpt lat="45.68896" lon="4.58276">
        <ele>721.8</ele>
        <time>2026-08-26T09:02:00Z</time>
      </trkpt>
      <trkpt lat="45.68897" lon="4.58273">
        <ele>722</ele>
        <time>2026-08-26T09:02:01Z</time>
      </trkpt>
      <trkpt lat="45.68897" lon="4.5827">
        <ele>722.2</ele>
        <time>2026-08-26T09:02:02Z</time>
      </trkpt>
      <trkpt lat="45.68898" lon="4.58267">
        <ele>722.4</ele>
        <time>2026-08-26T09:02:03Z</time>
      </trkpt>
      <trkpt lat="45.68898" lon="4.58265">
        <ele>722.6</ele>
        <time>2026-08-26T09:02:04Z</time>
      </trkpt>
      <trkpt lat="45.68898" lon="4.58262">
        <ele>722.6</ele>
        <time>2026-08-26T09:02:05Z</time>
      </trkpt>
      <trkpt lat="45.68898" lon="4.58259">
        <ele>722.8</ele>
        <time>2026-08-26T09:02:06Z</time>
      </trkpt>
      <trkpt lat="45.68899" lon="4.58256">
        <ele>723</ele>
        <time>2026-08-26T09:02:07Z</time>
      </trkpt>
      <trkpt lat="45.68899" lon="4.58253">
        <ele>723.2</ele>
        <time>2026-08-26T09:02:08Z</time>
      </trkpt>
      <trkpt lat="45.68899" lon="4.5825">
        <ele>723.2</ele>
        <time>2026-08-26T09:02:09Z</time>
      </trkpt>
      <trkpt lat="45.68899" lon="4.58248">
        <ele>723.4</ele>
        <time>2026-08-26T09:02:10Z</time>
      </trkpt>
      <trkpt lat="45.689" lon="4.58245">
        <ele>723.6</ele>
        <time>2026-08-26T09:02:11Z</time>
      </trkpt>
      <trkpt lat="45.689" lon="4.58242">
        <ele>723.8</ele>
        <time>2026-08-26T09:02:12Z</time>
      </trkpt>
      <trkpt lat="45.68901" lon="4.58239">
        <ele>723.8</ele>
        <time>2026-08-26T09:02:13Z</time>
      </trkpt>
      <trkpt lat="45.68901" lon="4.58236">
        <ele>724</ele>
        <time>2026-08-26T09:02:14Z</time>
      </trkpt>
      <trkpt lat="45.68901" lon="4.58233">
        <ele>724.2</ele>
        <time>2026-08-26T09:02:15Z</time>
      </trkpt>
      <trkpt lat="45.68902" lon="4.5823">
        <ele>724.2</ele>
        <time>2026-08-26T09:02:16Z</time>
      </trkpt>
      <trkpt lat="45.68902" lon="4.58227">
        <ele>724.4</ele>
        <time>2026-08-26T09:02:17Z</time>
      </trkpt>
      <trkpt lat="45.68903" lon="4.58224">
        <ele>724.6</ele>
        <time>2026-08-26T09:02:18Z</time>
      </trkpt>
      <trkpt lat="45.68904" lon="4.58221">
        <ele>724.6</ele>
        <time>2026-08-26T09:02:19Z</time>
      </trkpt>
      <trkpt lat="45.68904" lon="4.58218">
        <ele>724.8</ele>
        <time>2026-08-26T09:02:20Z</time>
      </trkpt>
      <trkpt lat="45.68905" lon="4.58215">
        <ele>724.8</ele>
        <time>2026-08-26T09:02:21Z</time>
      </trkpt>
      <trkpt lat="45.68905" lon="4.58212">
        <ele>725</ele>
        <time>2026-08-26T09:02:22Z</time>
      </trkpt>
      <trkpt lat="45.68906" lon="4.58209">
        <ele>725</ele>
        <time>2026-08-26T09:02:23Z</time>
      </trkpt>
      <trkpt lat="45.68906" lon="4.58205">
        <ele>725.2</ele>
        <time>2026-08-26T09:02:24Z</time>
      </trkpt>
      <trkpt lat="45.68907" lon="4.58202">
        <ele>725.4</ele>
        <time>2026-08-26T09:02:25Z</time>
      </trkpt>
      <trkpt lat="45.68907" lon="4.58199">
        <ele>725.6</ele>
        <time>2026-08-26T09:02:26Z</time>
      </trkpt>
      <trkpt lat="45.68908" lon="4.58197">
        <ele>725.8</ele>
        <time>2026-08-26T09:02:27Z</time>
      </trkpt>
      <trkpt lat="45.68908" lon="4.58194">
        <ele>725.8</ele>
        <time>2026-08-26T09:02:28Z</time>
      </trkpt>
      <trkpt lat="45.68909" lon="4.58191">
        <ele>726</ele>
        <time>2026-08-26T09:02:29Z</time>
      </trkpt>
      <trkpt lat="45.68909" lon="4.58188">
        <ele>726.2</ele>
        <time>2026-08-26T09:02:30Z</time>
      </trkpt>
      <trkpt lat="45.6891" lon="4.58185">
        <ele>726.4</ele>
        <time>2026-08-26T09:02:31Z</time>
      </trkpt>
      <trkpt lat="45.6891" lon="4.58182">
        <ele>726.6</ele>
        <time>2026-08-26T09:02:32Z</time>
      </trkpt>
      <trkpt lat="45.68911" lon="4.58179">
        <ele>726.8</ele>
        <time>2026-08-26T09:02:33Z</time>
      </trkpt>
      <trkpt lat="45.68911" lon="4.58176">
        <ele>726.8</ele>
        <time>2026-08-26T09:02:34Z</time>
      </trkpt>
      <trkpt lat="45.68912" lon="4.58174">
        <ele>727</ele>
        <time>2026-08-26T09:02:35Z</time>
      </trkpt>
      <trkpt lat="45.68912" lon="4.5817">
        <ele>727.2</ele>
        <time>2026-08-26T09:02:36Z</time>
      </trkpt>
      <trkpt lat="45.68913" lon="4.58167">
        <ele>727.2</ele>
        <time>2026-08-26T09:02:37Z</time>
      </trkpt>
      <trkpt lat="45.68913" lon="4.58164">
        <ele>727.4</ele>
        <time>2026-08-26T09:02:38Z</time>
      </trkpt>
      <trkpt lat="45.68913" lon="4.58161">
        <ele>727.6</ele>
        <time>2026-08-26T09:02:39Z</time>
      </trkpt>
      <trkpt lat="45.68913" lon="4.58157">
        <ele>727.6</ele>
        <time>2026-08-26T09:02:40Z</time>
      </trkpt>
      <trkpt lat="45.68914" lon="4.58154">
        <ele>727.8</ele>
        <time>2026-08-26T09:02:41Z</time>
      </trkpt>
      <trkpt lat="45.68914" lon="4.58151">
        <ele>727.8</ele>
        <time>2026-08-26T09:02:42Z</time>
      </trkpt>
      <trkpt lat="45.68915" lon="4.58148">
        <ele>728</ele>
        <time>2026-08-26T09:02:43Z</time>
      </trkpt>
      <trkpt lat="45.68916" lon="4.58146">
        <ele>728.2</ele>
        <time>2026-08-26T09:02:44Z</time>
      </trkpt>
      <trkpt lat="45.68916" lon="4.58143">
        <ele>728.4</ele>
        <time>2026-08-26T09:02:45Z</time>
      </trkpt>
      <trkpt lat="45.68916" lon="4.5814">
        <ele>728.6</ele>
        <time>2026-08-26T09:02:46Z</time>
      </trkpt>
      <trkpt lat="45.68917" lon="4.58137">
        <ele>728.8</ele>
        <time>2026-08-26T09:02:47Z</time>
      </trkpt>
      <trkpt lat="45.68917" lon="4.58134">
        <ele>729</ele>
        <time>2026-08-26T09:02:48Z</time>
      </trkpt>
      <trkpt lat="45.68917" lon="4.5813">
        <ele>729</ele>
        <time>2026-08-26T09:02:49Z</time>
      </trkpt>
      <trkpt lat="45.68916" lon="4.58127">
        <ele>729.2</ele>
        <time>2026-08-26T09:02:50Z</time>
      </trkpt>
      <trkpt lat="45.68916" lon="4.58124">
        <ele>729.4</ele>
        <time>2026-08-26T09:02:51Z</time>
      </trkpt>
      <trkpt lat="45.68917" lon="4.58121">
        <ele>729.4</ele>
        <time>2026-08-26T09:02:52Z</time>
      </trkpt>
      <trkpt lat="45.68916" lon="4.58117">
        <ele>729.6</ele>
        <time>2026-08-26T09:02:53Z</time>
      </trkpt>
      <trkpt lat="45.68916" lon="4.58114">
        <ele>729.8</ele>
        <time>2026-08-26T09:02:54Z</time>
      </trkpt>
      <trkpt lat="45.68916" lon="4.58111">
        <ele>730</ele>
        <time>2026-08-26T09:02:55Z</time>
      </trkpt>
      <trkpt lat="45.68916" lon="4.58108">
        <ele>730.2</ele>
        <time>2026-08-26T09:02:56Z</time>
      </trkpt>
      <trkpt lat="45.68916" lon="4.58105">
        <ele>730.2</ele>
        <time>2026-08-26T09:02:57Z</time>
      </trkpt>
      <trkpt lat="45.68915" lon="4.58101">
        <ele>730.4</ele>
        <time>2026-08-26T09:02:58Z</time>
      </trkpt>
      <trkpt lat="45.68915" lon="4.58098">
        <ele>730.4</ele>
        <time>2026-08-26T09:02:59Z</time>
      </trkpt>
      <trkpt lat="45.68914" lon="4.58094">
        <ele>730.6</ele>
        <time>2026-08-26T09:03:00Z</time>
      </trkpt>
      <trkpt lat="45.68914" lon="4.58091">
        <ele>730.6</ele>
        <time>2026-08-26T09:03:01Z</time>
      </trkpt>
      <trkpt lat="45.68913" lon="4.58087">
        <ele>730.6</ele>
        <time>2026-08-26T09:03:02Z</time>
      </trkpt>
      <trkpt lat="45.68913" lon="4.58084">
        <ele>730.8</ele>
        <time>2026-08-26T09:03:03Z</time>
      </trkpt>
      <trkpt lat="45.68913" lon="4.5808">
        <ele>730.8</ele>
        <time>2026-08-26T09:03:04Z</time>
      </trkpt>
      <trkpt lat="45.68912" lon="4.58077">
        <ele>731</ele>
        <time>2026-08-26T09:03:05Z</time>
      </trkpt>
      <trkpt lat="45.68912" lon="4.58073">
        <ele>731</ele>
        <time>2026-08-26T09:03:06Z</time>
      </trkpt>
      <trkpt lat="45.68912" lon="4.58069">
        <ele>731.2</ele>
        <time>2026-08-26T09:03:07Z</time>
      </trkpt>
      <trkpt lat="45.68913" lon="4.58066">
        <ele>731.4</ele>
        <time>2026-08-26T09:03:08Z</time>
      </trkpt>
      <trkpt lat="45.68913" lon="4.58062">
        <ele>731.4</ele>
        <time>2026-08-26T09:03:09Z</time>
      </trkpt>
      <trkpt lat="45.68913" lon="4.58059">
        <ele>731.6</ele>
        <time>2026-08-26T09:03:10Z</time>
      </trkpt>
      <trkpt lat="45.68914" lon="4.58055">
        <ele>731.8</ele>
        <time>2026-08-26T09:03:11Z</time>
      </trkpt>
      <trkpt lat="45.68914" lon="4.58052">
        <ele>732</ele>
        <time>2026-08-26T09:03:12Z</time>
      </trkpt>
      <trkpt lat="45.68915" lon="4.58048">
        <ele>732</ele>
        <time>2026-08-26T09:03:13Z</time>
      </trkpt>
      <trkpt lat="45.68915" lon="4.58045">
        <ele>732.2</ele>
        <time>2026-08-26T09:03:14Z</time>
      </trkpt>
      <trkpt lat="45.68916" lon="4.58041">
        <ele>732.4</ele>
        <time>2026-08-26T09:03:15Z</time>
      </trkpt>
      <trkpt lat="45.68917" lon="4.58037">
        <ele>732.4</ele>
        <time>2026-08-26T09:03:16Z</time>
      </trkpt>
      <trkpt lat="45.68917" lon="4.58033">
        <ele>732.6</ele>
        <time>2026-08-26T09:03:17Z</time>
      </trkpt>
      <trkpt lat="45.68918" lon="4.58029">
        <ele>732.8</ele>
        <time>2026-08-26T09:03:18Z</time>
      </trkpt>
      <trkpt lat="45.68919" lon="4.58025">
        <ele>732.8</ele>
        <time>2026-08-26T09:03:19Z</time>
      </trkpt>
      <trkpt lat="45.6892" lon="4.58021">
        <ele>733</ele>
        <time>2026-08-26T09:03:20Z</time>
      </trkpt>
      <trkpt lat="45.68921" lon="4.58017">
        <ele>733</ele>
        <time>2026-08-26T09:03:21Z</time>
      </trkpt>
      <trkpt lat="45.68922" lon="4.58013">
        <ele>733</ele>
        <time>2026-08-26T09:03:22Z</time>
      </trkpt>
      <trkpt lat="45.68922" lon="4.58008">
        <ele>733.2</ele>
        <time>2026-08-26T09:03:23Z</time>
      </trkpt>
      <trkpt lat="45.68923" lon="4.58004">
        <ele>733.2</ele>
        <time>2026-08-26T09:03:24Z</time>
      </trkpt>
      <trkpt lat="45.68924" lon="4.58">
        <ele>733.2</ele>
        <time>2026-08-26T09:03:25Z</time>
      </trkpt>
      <trkpt lat="45.68925" lon="4.57995">
        <ele>733.4</ele>
        <time>2026-08-26T09:03:26Z</time>
      </trkpt>
      <trkpt lat="45.68926" lon="4.5799">
        <ele>733.4</ele>
        <time>2026-08-26T09:03:27Z</time>
      </trkpt>
      <trkpt lat="45.68927" lon="4.57986">
        <ele>733.6</ele>
        <time>2026-08-26T09:03:28Z</time>
      </trkpt>
      <trkpt lat="45.68929" lon="4.57981">
        <ele>733.6</ele>
        <time>2026-08-26T09:03:29Z</time>
      </trkpt>
      <trkpt lat="45.6893" lon="4.57976">
        <ele>733.8</ele>
        <time>2026-08-26T09:03:30Z</time>
      </trkpt>
      <trkpt lat="45.6893" lon="4.57971">
        <ele>733.8</ele>
        <time>2026-08-26T09:03:31Z</time>
      </trkpt>
      <trkpt lat="45.68931" lon="4.57966">
        <ele>734</ele>
        <time>2026-08-26T09:03:32Z</time>
      </trkpt>
      <trkpt lat="45.68932" lon="4.57961">
        <ele>734</ele>
        <time>2026-08-26T09:03:33Z</time>
      </trkpt>
      <trkpt lat="45.68933" lon="4.57957">
        <ele>734.2</ele>
        <time>2026-08-26T09:03:34Z</time>
      </trkpt>
      <trkpt lat="45.68934" lon="4.57952">
        <ele>734.2</ele>
        <time>2026-08-26T09:03:35Z</time>
      </trkpt>
      <trkpt lat="45.68936" lon="4.57947">
        <ele>734.4</ele>
        <time>2026-08-26T09:03:36Z</time>
      </trkpt>
      <trkpt lat="45.68936" lon="4.57942">
        <ele>734.4</ele>
        <time>2026-08-26T09:03:37Z</time>
      </trkpt>
      <trkpt lat="45.68938" lon="4.57938">
        <ele>734.6</ele>
        <time>2026-08-26T09:03:38Z</time>
      </trkpt>
      <trkpt lat="45.68939" lon="4.57933">
        <ele>734.6</ele>
        <time>2026-08-26T09:03:39Z</time>
      </trkpt>
      <trkpt lat="45.6894" lon="4.57928">
        <ele>734.8</ele>
        <time>2026-08-26T09:03:40Z</time>
      </trkpt>
      <trkpt lat="45.68941" lon="4.57923">
        <ele>734.8</ele>
        <time>2026-08-26T09:03:41Z</time>
      </trkpt>
      <trkpt lat="45.68942" lon="4.57919">
        <ele>735</ele>
        <time>2026-08-26T09:03:42Z</time>
      </trkpt>
      <trkpt lat="45.68943" lon="4.57914">
        <ele>735.2</ele>
        <time>2026-08-26T09:03:43Z</time>
      </trkpt>
      <trkpt lat="45.68944" lon="4.5791">
        <ele>735.2</ele>
        <time>2026-08-26T09:03:44Z</time>
      </trkpt>
      <trkpt lat="45.68944" lon="4.57905">
        <ele>735.4</ele>
        <time>2026-08-26T09:03:45Z</time>
      </trkpt>
      <trkpt lat="45.68945" lon="4.57901">
        <ele>735.6</ele>
        <time>2026-08-26T09:03:46Z</time>
      </trkpt>
      <trkpt lat="45.68946" lon="4.57897">
        <ele>735.6</ele>
        <time>2026-08-26T09:03:47Z</time>
      </trkpt>
      <trkpt lat="45.68947" lon="4.57892">
        <ele>735.8</ele>
        <time>2026-08-26T09:03:48Z</time>
      </trkpt>
      <trkpt lat="45.68948" lon="4.57888">
        <ele>736</ele>
        <time>2026-08-26T09:03:49Z</time>
      </trkpt>
      <trkpt lat="45.6895" lon="4.57884">
        <ele>736.2</ele>
        <time>2026-08-26T09:03:50Z</time>
      </trkpt>
      <trkpt lat="45.68951" lon="4.5788">
        <ele>736.2</ele>
        <time>2026-08-26T09:03:51Z</time>
      </trkpt>
      <trkpt lat="45.68952" lon="4.57875">
        <ele>736.4</ele>
        <time>2026-08-26T09:03:52Z</time>
      </trkpt>
      <trkpt lat="45.68953" lon="4.57871">
        <ele>736.6</ele>
        <time>2026-08-26T09:03:53Z</time>
      </trkpt>
      <trkpt lat="45.68954" lon="4.57867">
        <ele>736.6</ele>
        <time>2026-08-26T09:03:54Z</time>
      </trkpt>
      <trkpt lat="45.68955" lon="4.57863">
        <ele>736.8</ele>
        <time>2026-08-26T09:03:55Z</time>
      </trkpt>
      <trkpt lat="45.68957" lon="4.57859">
        <ele>737</ele>
        <time>2026-08-26T09:03:56Z</time>
      </trkpt>
      <trkpt lat="45.68958" lon="4.57855">
        <ele>737</ele>
        <time>2026-08-26T09:03:57Z</time>
      </trkpt>
      <trkpt lat="45.68959" lon="4.5785">
        <ele>737</ele>
        <time>2026-08-26T09:03:58Z</time>
      </trkpt>
      <trkpt lat="45.68961" lon="4.57846">
        <ele>737.2</ele>
        <time>2026-08-26T09:03:59Z</time>
      </trkpt>
      <trkpt lat="45.68962" lon="4.57842">
        <ele>737.2</ele>
        <time>2026-08-26T09:04:00Z</time>
      </trkpt>
      <trkpt lat="45.68964" lon="4.57838">
        <ele>737.4</ele>
        <time>2026-08-26T09:04:01Z</time>
      </trkpt>
      <trkpt lat="45.68965" lon="4.57833">
        <ele>737.4</ele>
        <time>2026-08-26T09:04:02Z</time>
      </trkpt>
      <trkpt lat="45.68966" lon="4.57829">
        <ele>737.6</ele>
        <time>2026-08-26T09:04:03Z</time>
      </trkpt>
      <trkpt lat="45.68968" lon="4.57825">
        <ele>737.6</ele>
        <time>2026-08-26T09:04:04Z</time>
      </trkpt>
      <trkpt lat="45.6897" lon="4.57821">
        <ele>737.8</ele>
        <time>2026-08-26T09:04:05Z</time>
      </trkpt>
      <trkpt lat="45.68971" lon="4.57816">
        <ele>737.8</ele>
        <time>2026-08-26T09:04:06Z</time>
      </trkpt>
      <trkpt lat="45.68973" lon="4.57812">
        <ele>738</ele>
        <time>2026-08-26T09:04:07Z</time>
      </trkpt>
      <trkpt lat="45.68975" lon="4.57808">
        <ele>738</ele>
        <time>2026-08-26T09:04:08Z</time>
      </trkpt>
      <trkpt lat="45.68976" lon="4.57803">
        <ele>738.2</ele>
        <time>2026-08-26T09:04:09Z</time>
      </trkpt>
      <trkpt lat="45.68978" lon="4.57799">
        <ele>738.4</ele>
        <time>2026-08-26T09:04:10Z</time>
      </trkpt>
      <trkpt lat="45.6898" lon="4.57795">
        <ele>738.4</ele>
        <time>2026-08-26T09:04:11Z</time>
      </trkpt>
      <trkpt lat="45.68981" lon="4.5779">
        <ele>738.4</ele>
        <time>2026-08-26T09:04:12Z</time>
      </trkpt>
      <trkpt lat="45.68983" lon="4.57786">
        <ele>738.6</ele>
        <time>2026-08-26T09:04:13Z</time>
      </trkpt>
      <trkpt lat="45.68984" lon="4.57781">
        <ele>738.6</ele>
        <time>2026-08-26T09:04:14Z</time>
      </trkpt>
      <trkpt lat="45.68986" lon="4.57776">
        <ele>738.8</ele>
        <time>2026-08-26T09:04:15Z</time>
      </trkpt>
      <trkpt lat="45.68988" lon="4.57772">
        <ele>738.8</ele>
        <time>2026-08-26T09:04:16Z</time>
      </trkpt>
      <trkpt lat="45.68989" lon="4.57768">
        <ele>739</ele>
        <time>2026-08-26T09:04:17Z</time>
      </trkpt>
      <trkpt lat="45.68991" lon="4.57764">
        <ele>739.2</ele>
        <time>2026-08-26T09:04:18Z</time>
      </trkpt>
      <trkpt lat="45.68993" lon="4.57759">
        <ele>739.4</ele>
        <time>2026-08-26T09:04:19Z</time>
      </trkpt>
      <trkpt lat="45.68995" lon="4.57755">
        <ele>739.4</ele>
        <time>2026-08-26T09:04:20Z</time>
      </trkpt>
      <trkpt lat="45.68996" lon="4.57751">
        <ele>739.6</ele>
        <time>2026-08-26T09:04:21Z</time>
      </trkpt>
      <trkpt lat="45.68998" lon="4.57747">
        <ele>739.8</ele>
        <time>2026-08-26T09:04:22Z</time>
      </trkpt>
      <trkpt lat="45.68999" lon="4.57743">
        <ele>740</ele>
        <time>2026-08-26T09:04:23Z</time>
      </trkpt>
      <trkpt lat="45.69001" lon="4.57739">
        <ele>740</ele>
        <time>2026-08-26T09:04:24Z</time>
      </trkpt>
      <trkpt lat="45.69002" lon="4.57735">
        <ele>740.2</ele>
        <time>2026-08-26T09:04:25Z</time>
      </trkpt>
      <trkpt lat="45.69004" lon="4.57731">
        <ele>740.4</ele>
        <time>2026-08-26T09:04:26Z</time>
      </trkpt>
      <trkpt lat="45.69006" lon="4.57727">
        <ele>740.4</ele>
        <time>2026-08-26T09:04:27Z</time>
      </trkpt>
      <trkpt lat="45.69007" lon="4.57722">
        <ele>740.6</ele>
        <time>2026-08-26T09:04:28Z</time>
      </trkpt>
      <trkpt lat="45.69009" lon="4.57718">
        <ele>740.6</ele>
        <time>2026-08-26T09:04:29Z</time>
      </trkpt>
      <trkpt lat="45.69011" lon="4.57715">
        <ele>740.8</ele>
        <time>2026-08-26T09:04:30Z</time>
      </trkpt>
      <trkpt lat="45.69013" lon="4.57711">
        <ele>740.8</ele>
        <time>2026-08-26T09:04:31Z</time>
      </trkpt>
      <trkpt lat="45.69015" lon="4.57707">
        <ele>741</ele>
        <time>2026-08-26T09:04:32Z</time>
      </trkpt>
      <trkpt lat="45.69016" lon="4.57703">
        <ele>741.2</ele>
        <time>2026-08-26T09:04:33Z</time>
      </trkpt>
      <trkpt lat="45.69018" lon="4.57699">
        <ele>741.2</ele>
        <time>2026-08-26T09:04:34Z</time>
      </trkpt>
      <trkpt lat="45.69019" lon="4.57695">
        <ele>741.4</ele>
        <time>2026-08-26T09:04:35Z</time>
      </trkpt>
      <trkpt lat="45.69021" lon="4.57691">
        <ele>741.6</ele>
        <time>2026-08-26T09:04:36Z</time>
      </trkpt>
      <trkpt lat="45.69023" lon="4.57687">
        <ele>741.6</ele>
        <time>2026-08-26T09:04:37Z</time>
      </trkpt>
      <trkpt lat="45.69024" lon="4.57683">
        <ele>741.8</ele>
        <time>2026-08-26T09:04:38Z</time>
      </trkpt>
      <trkpt lat="45.69025" lon="4.57679">
        <ele>741.8</ele>
        <time>2026-08-26T09:04:39Z</time>
      </trkpt>
      <trkpt lat="45.69027" lon="4.57675">
        <ele>742</ele>
        <time>2026-08-26T09:04:40Z</time>
      </trkpt>
      <trkpt lat="45.69029" lon="4.57671">
        <ele>742</ele>
        <time>2026-08-26T09:04:41Z</time>
      </trkpt>
      <trkpt lat="45.69031" lon="4.57668">
        <ele>742.2</ele>
        <time>2026-08-26T09:04:42Z</time>
      </trkpt>
      <trkpt lat="45.69033" lon="4.57664">
        <ele>742.4</ele>
        <time>2026-08-26T09:04:43Z</time>
      </trkpt>
      <trkpt lat="45.69035" lon="4.57661">
        <ele>742.6</ele>
        <time>2026-08-26T09:04:44Z</time>
      </trkpt>
      <trkpt lat="45.69037" lon="4.57657">
        <ele>742.6</ele>
        <time>2026-08-26T09:04:45Z</time>
      </trkpt>
      <trkpt lat="45.69039" lon="4.57654">
        <ele>742.8</ele>
        <time>2026-08-26T09:04:46Z</time>
      </trkpt>
      <trkpt lat="45.69041" lon="4.5765">
        <ele>742.8</ele>
        <time>2026-08-26T09:04:47Z</time>
      </trkpt>
      <trkpt lat="45.69043" lon="4.57646">
        <ele>743</ele>
        <time>2026-08-26T09:04:48Z</time>
      </trkpt>
      <trkpt lat="45.69045" lon="4.57642">
        <ele>743</ele>
        <time>2026-08-26T09:04:49Z</time>
      </trkpt>
      <trkpt lat="45.69047" lon="4.57639">
        <ele>743.2</ele>
        <time>2026-08-26T09:04:50Z</time>
      </trkpt>
      <trkpt lat="45.69049" lon="4.57635">
        <ele>743.2</ele>
        <time>2026-08-26T09:04:51Z</time>
      </trkpt>
      <trkpt lat="45.69052" lon="4.57631">
        <ele>743.4</ele>
        <time>2026-08-26T09:04:52Z</time>
      </trkpt>
      <trkpt lat="45.69054" lon="4.57628">
        <ele>743.4</ele>
        <time>2026-08-26T09:04:53Z</time>
      </trkpt>
      <trkpt lat="45.69057" lon="4.57624">
        <ele>743.6</ele>
        <time>2026-08-26T09:04:54Z</time>
      </trkpt>
      <trkpt lat="45.69059" lon="4.57621">
        <ele>743.8</ele>
        <time>2026-08-26T09:04:55Z</time>
      </trkpt>
      <trkpt lat="45.69062" lon="4.57618">
        <ele>743.8</ele>
        <time>2026-08-26T09:04:56Z</time>
      </trkpt>
      <trkpt lat="45.69065" lon="4.57615">
        <ele>744</ele>
        <time>2026-08-26T09:04:57Z</time>
      </trkpt>
      <trkpt lat="45.69068" lon="4.57612">
        <ele>744</ele>
        <time>2026-08-26T09:04:58Z</time>
      </trkpt>
      <trkpt lat="45.69071" lon="4.57608">
        <ele>744.2</ele>
        <time>2026-08-26T09:04:59Z</time>
      </trkpt>
      <trkpt lat="45.69074" lon="4.57604">
        <ele>744.2</ele>
        <time>2026-08-26T09:05:00Z</time>
      </trkpt>
      <trkpt lat="45.69076" lon="4.57599">
        <ele>744.2</ele>
        <time>2026-08-26T09:05:01Z</time>
      </trkpt>
      <trkpt lat="45.69078" lon="4.57593">
        <ele>744.2</ele>
        <time>2026-08-26T09:05:02Z</time>
      </trkpt>
      <trkpt lat="45.69078" lon="4.57587">
        <ele>744.2</ele>
        <time>2026-08-26T09:05:03Z</time>
      </trkpt>
      <trkpt lat="45.69078" lon="4.57581">
        <ele>744.2</ele>
        <time>2026-08-26T09:05:04Z</time>
      </trkpt>
      <trkpt lat="45.69077" lon="4.57575">
        <ele>744</ele>
        <time>2026-08-26T09:05:05Z</time>
      </trkpt>
      <trkpt lat="45.69076" lon="4.5757">
        <ele>744</ele>
        <time>2026-08-26T09:05:06Z</time>
      </trkpt>
      <trkpt lat="45.69074" lon="4.57565">
        <ele>744</ele>
        <time>2026-08-26T09:05:07Z</time>
      </trkpt>
      <trkpt lat="45.69072" lon="4.5756">
        <ele>744</ele>
        <time>2026-08-26T09:05:08Z</time>
      </trkpt>
      <trkpt lat="45.69069" lon="4.57555">
        <ele>744</ele>
        <time>2026-08-26T09:05:09Z</time>
      </trkpt>
      <trkpt lat="45.69066" lon="4.57551">
        <ele>744.2</ele>
        <time>2026-08-26T09:05:10Z</time>
      </trkpt>
      <trkpt lat="45.69063" lon="4.57547">
        <ele>744.2</ele>
        <time>2026-08-26T09:05:11Z</time>
      </trkpt>
      <trkpt lat="45.69059" lon="4.57544">
        <ele>744</ele>
        <time>2026-08-26T09:05:12Z</time>
      </trkpt>
      <trkpt lat="45.69055" lon="4.57541">
        <ele>744</ele>
        <time>2026-08-26T09:05:13Z</time>
      </trkpt>
      <trkpt lat="45.6905" lon="4.57541">
        <ele>743.8</ele>
        <time>2026-08-26T09:05:14Z</time>
      </trkpt>
      <trkpt lat="45.69046" lon="4.57541">
        <ele>743.8</ele>
        <time>2026-08-26T09:05:15Z</time>
      </trkpt>
      <trkpt lat="45.69041" lon="4.57542">
        <ele>743.8</ele>
        <time>2026-08-26T09:05:16Z</time>
      </trkpt>
      <trkpt lat="45.69037" lon="4.57543">
        <ele>744</ele>
        <time>2026-08-26T09:05:17Z</time>
      </trkpt>
      <trkpt lat="45.69033" lon="4.57545">
        <ele>744</ele>
        <time>2026-08-26T09:05:18Z</time>
      </trkpt>
      <trkpt lat="45.6903" lon="4.57547">
        <ele>744.2</ele>
        <time>2026-08-26T09:05:19Z</time>
      </trkpt>
      <trkpt lat="45.69027" lon="4.5755">
        <ele>744.4</ele>
        <time>2026-08-26T09:05:20Z</time>
      </trkpt>
      <trkpt lat="45.69024" lon="4.57553">
        <ele>744.6</ele>
        <time>2026-08-26T09:05:21Z</time>
      </trkpt>
      <trkpt lat="45.69021" lon="4.57555">
        <ele>744.8</ele>
        <time>2026-08-26T09:05:22Z</time>
      </trkpt>
      <trkpt lat="45.69018" lon="4.57557">
        <ele>745</ele>
        <time>2026-08-26T09:05:23Z</time>
      </trkpt>
      <trkpt lat="45.69016" lon="4.57558">
        <ele>745.2</ele>
        <time>2026-08-26T09:05:24Z</time>
      </trkpt>
      <trkpt lat="45.69013" lon="4.57559">
        <ele>745.4</ele>
        <time>2026-08-26T09:05:25Z</time>
      </trkpt>
      <trkpt lat="45.69011" lon="4.5756">
        <ele>745.6</ele>
        <time>2026-08-26T09:05:26Z</time>
      </trkpt>
      <trkpt lat="45.69008" lon="4.5756">
        <ele>745.8</ele>
        <time>2026-08-26T09:05:27Z</time>
      </trkpt>
      <trkpt lat="45.69005" lon="4.5756">
        <ele>746</ele>
        <time>2026-08-26T09:05:28Z</time>
      </trkpt>
      <trkpt lat="45.69002" lon="4.57559">
        <ele>746.2</ele>
        <time>2026-08-26T09:05:29Z</time>
      </trkpt>
      <trkpt lat="45.69" lon="4.57559">
        <ele>746.2</ele>
        <time>2026-08-26T09:05:30Z</time>
      </trkpt>
      <trkpt lat="45.68997" lon="4.57558">
        <ele>746.4</ele>
        <time>2026-08-26T09:05:31Z</time>
      </trkpt>
      <trkpt lat="45.68995" lon="4.57556">
        <ele>746.6</ele>
        <time>2026-08-26T09:05:32Z</time>
      </trkpt>
      <trkpt lat="45.68992" lon="4.57554">
        <ele>746.8</ele>
        <time>2026-08-26T09:05:33Z</time>
      </trkpt>
      <trkpt lat="45.6899" lon="4.57552">
        <ele>746.8</ele>
        <time>2026-08-26T09:05:34Z</time>
      </trkpt>
      <trkpt lat="45.68988" lon="4.5755">
        <ele>747</ele>
        <time>2026-08-26T09:05:35Z</time>
      </trkpt>
      <trkpt lat="45.68985" lon="4.57548">
        <ele>747.2</ele>
        <time>2026-08-26T09:05:36Z</time>
      </trkpt>
      <trkpt lat="45.68983" lon="4.57546">
        <ele>747.2</ele>
        <time>2026-08-26T09:05:37Z</time>
      </trkpt>
      <trkpt lat="45.6898" lon="4.57544">
        <ele>747.4</ele>
        <time>2026-08-26T09:05:38Z</time>
      </trkpt>
      <trkpt lat="45.68978" lon="4.57541">
        <ele>747.6</ele>
        <time>2026-08-26T09:05:39Z</time>
      </trkpt>
      <trkpt lat="45.68976" lon="4.57539">
        <ele>747.8</ele>
        <time>2026-08-26T09:05:40Z</time>
      </trkpt>
      <trkpt lat="45.68973" lon="4.57538">
        <ele>748</ele>
        <time>2026-08-26T09:05:41Z</time>
      </trkpt>
      <trkpt lat="45.68971" lon="4.57536">
        <ele>748.2</ele>
        <time>2026-08-26T09:05:42Z</time>
      </trkpt>
      <trkpt lat="45.68968" lon="4.57533">
        <ele>748.2</ele>
        <time>2026-08-26T09:05:43Z</time>
      </trkpt>
      <trkpt lat="45.68966" lon="4.57531">
        <ele>748.4</ele>
        <time>2026-08-26T09:05:44Z</time>
      </trkpt>
      <trkpt lat="45.68964" lon="4.5753">
        <ele>748.6</ele>
        <time>2026-08-26T09:05:45Z</time>
      </trkpt>
      <trkpt lat="45.68962" lon="4.57528">
        <ele>748.6</ele>
        <time>2026-08-26T09:05:46Z</time>
      </trkpt>
      <trkpt lat="45.68959" lon="4.57527">
        <ele>748.8</ele>
        <time>2026-08-26T09:05:47Z</time>
      </trkpt>
      <trkpt lat="45.68956" lon="4.57527">
        <ele>749</ele>
        <time>2026-08-26T09:05:48Z</time>
      </trkpt>
      <trkpt lat="45.68953" lon="4.57526">
        <ele>749</ele>
        <time>2026-08-26T09:05:49Z</time>
      </trkpt>
      <trkpt lat="45.6895" lon="4.57526">
        <ele>749.2</ele>
        <time>2026-08-26T09:05:50Z</time>
      </trkpt>
      <trkpt lat="45.68948" lon="4.57526">
        <ele>749.4</ele>
        <time>2026-08-26T09:05:51Z</time>
      </trkpt>
      <trkpt lat="45.68945" lon="4.57527">
        <ele>749.6</ele>
        <time>2026-08-26T09:05:52Z</time>
      </trkpt>
      <trkpt lat="45.68943" lon="4.57529">
        <ele>749.6</ele>
        <time>2026-08-26T09:05:53Z</time>
      </trkpt>
      <trkpt lat="45.68941" lon="4.57531">
        <ele>749.8</ele>
        <time>2026-08-26T09:05:54Z</time>
      </trkpt>
      <trkpt lat="45.68939" lon="4.57533">
        <ele>750</ele>
        <time>2026-08-26T09:05:55Z</time>
      </trkpt>
      <trkpt lat="45.68937" lon="4.57535">
        <ele>750.2</ele>
        <time>2026-08-26T09:05:56Z</time>
      </trkpt>
      <trkpt lat="45.68935" lon="4.57538">
        <ele>750.4</ele>
        <time>2026-08-26T09:05:57Z</time>
      </trkpt>
      <trkpt lat="45.68934" lon="4.5754">
        <ele>750.4</ele>
        <time>2026-08-26T09:05:58Z</time>
      </trkpt>
      <trkpt lat="45.68933" lon="4.57544">
        <ele>750.6</ele>
        <time>2026-08-26T09:05:59Z</time>
      </trkpt>
      <trkpt lat="45.68932" lon="4.57547">
        <ele>750.8</ele>
        <time>2026-08-26T09:06:00Z</time>
      </trkpt>
      <trkpt lat="45.68931" lon="4.5755">
        <ele>751</ele>
        <time>2026-08-26T09:06:01Z</time>
      </trkpt>
      <trkpt lat="45.6893" lon="4.57553">
        <ele>751</ele>
        <time>2026-08-26T09:06:02Z</time>
      </trkpt>
      <trkpt lat="45.68929" lon="4.57556">
        <ele>751.2</ele>
        <time>2026-08-26T09:06:03Z</time>
      </trkpt>
      <trkpt lat="45.68928" lon="4.57559">
        <ele>751.2</ele>
        <time>2026-08-26T09:06:04Z</time>
      </trkpt>
      <trkpt lat="45.68927" lon="4.57563">
        <ele>751.4</ele>
        <time>2026-08-26T09:06:05Z</time>
      </trkpt>
      <trkpt lat="45.68926" lon="4.57566">
        <ele>751.6</ele>
        <time>2026-08-26T09:06:06Z</time>
      </trkpt>
      <trkpt lat="45.68925" lon="4.5757">
        <ele>751.8</ele>
        <time>2026-08-26T09:06:07Z</time>
      </trkpt>
      <trkpt lat="45.68924" lon="4.57573">
        <ele>752</ele>
        <time>2026-08-26T09:06:08Z</time>
      </trkpt>
      <trkpt lat="45.68923" lon="4.57576">
        <ele>752.2</ele>
        <time>2026-08-26T09:06:09Z</time>
      </trkpt>
      <trkpt lat="45.68923" lon="4.57579">
        <ele>752.4</ele>
        <time>2026-08-26T09:06:10Z</time>
      </trkpt>
      <trkpt lat="45.68922" lon="4.57582">
        <ele>752.6</ele>
        <time>2026-08-26T09:06:11Z</time>
      </trkpt>
      <trkpt lat="45.68921" lon="4.57586">
        <ele>752.8</ele>
        <time>2026-08-26T09:06:12Z</time>
      </trkpt>
      <trkpt lat="45.6892" lon="4.57589">
        <ele>753</ele>
        <time>2026-08-26T09:06:13Z</time>
      </trkpt>
      <trkpt lat="45.68919" lon="4.57592">
        <ele>753.2</ele>
        <time>2026-08-26T09:06:14Z</time>
      </trkpt>
      <trkpt lat="45.68917" lon="4.57595">
        <ele>753.4</ele>
        <time>2026-08-26T09:06:15Z</time>
      </trkpt>
      <trkpt lat="45.68917" lon="4.57598">
        <ele>753.6</ele>
        <time>2026-08-26T09:06:16Z</time>
      </trkpt>
      <trkpt lat="45.68916" lon="4.57601">
        <ele>753.8</ele>
        <time>2026-08-26T09:06:17Z</time>
      </trkpt>
      <trkpt lat="45.68915" lon="4.57604">
        <ele>754</ele>
        <time>2026-08-26T09:06:18Z</time>
      </trkpt>
      <trkpt lat="45.68913" lon="4.57607">
        <ele>754</ele>
        <time>2026-08-26T09:06:19Z</time>
      </trkpt>
      <trkpt lat="45.68912" lon="4.57609">
        <ele>754.2</ele>
        <time>2026-08-26T09:06:20Z</time>
      </trkpt>
      <trkpt lat="45.68911" lon="4.57611">
        <ele>754.4</ele>
        <time>2026-08-26T09:06:21Z</time>
      </trkpt>
      <trkpt lat="45.6891" lon="4.57614">
        <ele>754.6</ele>
        <time>2026-08-26T09:06:22Z</time>
      </trkpt>
      <trkpt lat="45.68909" lon="4.57617">
        <ele>754.6</ele>
        <time>2026-08-26T09:06:23Z</time>
      </trkpt>
      <trkpt lat="45.68908" lon="4.5762">
        <ele>754.8</ele>
        <time>2026-08-26T09:06:24Z</time>
      </trkpt>
      <trkpt lat="45.68907" lon="4.57623">
        <ele>755</ele>
        <time>2026-08-26T09:06:25Z</time>
      </trkpt>
      <trkpt lat="45.68905" lon="4.57625">
        <ele>755.2</ele>
        <time>2026-08-26T09:06:26Z</time>
      </trkpt>
      <trkpt lat="45.68903" lon="4.57628">
        <ele>755.2</ele>
        <time>2026-08-26T09:06:27Z</time>
      </trkpt>
      <trkpt lat="45.68901" lon="4.5763">
        <ele>755.4</ele>
        <time>2026-08-26T09:06:28Z</time>
      </trkpt>
      <trkpt lat="45.68899" lon="4.57632">
        <ele>755.6</ele>
        <time>2026-08-26T09:06:29Z</time>
      </trkpt>
      <trkpt lat="45.68898" lon="4.57635">
        <ele>755.6</ele>
        <time>2026-08-26T09:06:30Z</time>
      </trkpt>
      <trkpt lat="45.68896" lon="4.57637">
        <ele>755.8</ele>
        <time>2026-08-26T09:06:31Z</time>
      </trkpt>
      <trkpt lat="45.68895" lon="4.57639">
        <ele>756</ele>
        <time>2026-08-26T09:06:32Z</time>
      </trkpt>
      <trkpt lat="45.68893" lon="4.57641">
        <ele>756.2</ele>
        <time>2026-08-26T09:06:33Z</time>
      </trkpt>
      <trkpt lat="45.68892" lon="4.57643">
        <ele>756.2</ele>
        <time>2026-08-26T09:06:34Z</time>
      </trkpt>
      <trkpt lat="45.6889" lon="4.57645">
        <ele>756.4</ele>
        <time>2026-08-26T09:06:35Z</time>
      </trkpt>
      <trkpt lat="45.68889" lon="4.57648">
        <ele>756.4</ele>
        <time>2026-08-26T09:06:36Z</time>
      </trkpt>
      <trkpt lat="45.68887" lon="4.5765">
        <ele>756.6</ele>
        <time>2026-08-26T09:06:37Z</time>
      </trkpt>
      <trkpt lat="45.68885" lon="4.57653">
        <ele>756.8</ele>
        <time>2026-08-26T09:06:38Z</time>
      </trkpt>
      <trkpt lat="45.68884" lon="4.57655">
        <ele>756.8</ele>
        <time>2026-08-26T09:06:39Z</time>
      </trkpt>
      <trkpt lat="45.68882" lon="4.57658">
        <ele>757</ele>
        <time>2026-08-26T09:06:40Z</time>
      </trkpt>
      <trkpt lat="45.68881" lon="4.57659">
        <ele>757.2</ele>
        <time>2026-08-26T09:06:41Z</time>
      </trkpt>
      <trkpt lat="45.68878" lon="4.57661">
        <ele>757.2</ele>
        <time>2026-08-26T09:06:42Z</time>
      </trkpt>
      <trkpt lat="45.68876" lon="4.57663">
        <ele>757.4</ele>
        <time>2026-08-26T09:06:43Z</time>
      </trkpt>
      <trkpt lat="45.68874" lon="4.57664">
        <ele>757.6</ele>
        <time>2026-08-26T09:06:44Z</time>
      </trkpt>
      <trkpt lat="45.68872" lon="4.57666">
        <ele>757.6</ele>
        <time>2026-08-26T09:06:45Z</time>
      </trkpt>
      <trkpt lat="45.68869" lon="4.57667">
        <ele>757.8</ele>
        <time>2026-08-26T09:06:46Z</time>
      </trkpt>
      <trkpt lat="45.68867" lon="4.57668">
        <ele>758</ele>
        <time>2026-08-26T09:06:47Z</time>
      </trkpt>
      <trkpt lat="45.68864" lon="4.57668">
        <ele>758</ele>
        <time>2026-08-26T09:06:48Z</time>
      </trkpt>
      <trkpt lat="45.68862" lon="4.57669">
        <ele>758.2</ele>
        <time>2026-08-26T09:06:49Z</time>
      </trkpt>
      <trkpt lat="45.6886" lon="4.5767">
        <ele>758.2</ele>
        <time>2026-08-26T09:06:50Z</time>
      </trkpt>
      <trkpt lat="45.68857" lon="4.57669">
        <ele>758.4</ele>
        <time>2026-08-26T09:06:51Z</time>
      </trkpt>
      <trkpt lat="45.68855" lon="4.57669">
        <ele>758.4</ele>
        <time>2026-08-26T09:06:52Z</time>
      </trkpt>
      <trkpt lat="45.68853" lon="4.5767">
        <ele>758.6</ele>
        <time>2026-08-26T09:06:53Z</time>
      </trkpt>
      <trkpt lat="45.6885" lon="4.5767">
        <ele>758.6</ele>
        <time>2026-08-26T09:06:54Z</time>
      </trkpt>
      <trkpt lat="45.68848" lon="4.5767">
        <ele>758.8</ele>
        <time>2026-08-26T09:06:55Z</time>
      </trkpt>
      <trkpt lat="45.68846" lon="4.5767">
        <ele>759</ele>
        <time>2026-08-26T09:06:56Z</time>
      </trkpt>
      <trkpt lat="45.68843" lon="4.57671">
        <ele>759.2</ele>
        <time>2026-08-26T09:06:57Z</time>
      </trkpt>
      <trkpt lat="45.68841" lon="4.57672">
        <ele>759.2</ele>
        <time>2026-08-26T09:06:58Z</time>
      </trkpt>
      <trkpt lat="45.68839" lon="4.57673">
        <ele>759.4</ele>
        <time>2026-08-26T09:06:59Z</time>
      </trkpt>
      <trkpt lat="45.68836" lon="4.57674">
        <ele>759.6</ele>
        <time>2026-08-26T09:07:00Z</time>
      </trkpt>
      <trkpt lat="45.68834" lon="4.57675">
        <ele>759.6</ele>
        <time>2026-08-26T09:07:01Z</time>
      </trkpt>
      <trkpt lat="45.68832" lon="4.57675">
        <ele>759.8</ele>
        <time>2026-08-26T09:07:02Z</time>
      </trkpt>
      <trkpt lat="45.68829" lon="4.57676">
        <ele>760</ele>
        <time>2026-08-26T09:07:03Z</time>
      </trkpt>
      <trkpt lat="45.68827" lon="4.57677">
        <ele>760</ele>
        <time>2026-08-26T09:07:04Z</time>
      </trkpt>
      <trkpt lat="45.68825" lon="4.57678">
        <ele>760.2</ele>
        <time>2026-08-26T09:07:05Z</time>
      </trkpt>
      <trkpt lat="45.68823" lon="4.57679">
        <ele>760.4</ele>
        <time>2026-08-26T09:07:06Z</time>
      </trkpt>
      <trkpt lat="45.6882" lon="4.5768">
        <ele>760.4</ele>
        <time>2026-08-26T09:07:07Z</time>
      </trkpt>
      <trkpt lat="45.68818" lon="4.5768">
        <ele>760.6</ele>
        <time>2026-08-26T09:07:08Z</time>
      </trkpt>
      <trkpt lat="45.68815" lon="4.57681">
        <ele>760.8</ele>
        <time>2026-08-26T09:07:09Z</time>
      </trkpt>
      <trkpt lat="45.68813" lon="4.57682">
        <ele>760.8</ele>
        <time>2026-08-26T09:07:10Z</time>
      </trkpt>
      <trkpt lat="45.6881" lon="4.57684">
        <ele>761</ele>
        <time>2026-08-26T09:07:11Z</time>
      </trkpt>
      <trkpt lat="45.68808" lon="4.57685">
        <ele>761</ele>
        <time>2026-08-26T09:07:12Z</time>
      </trkpt>
      <trkpt lat="45.68806" lon="4.57686">
        <ele>761.2</ele>
        <time>2026-08-26T09:07:13Z</time>
      </trkpt>
      <trkpt lat="45.68804" lon="4.57687">
        <ele>761.4</ele>
        <time>2026-08-26T09:07:14Z</time>
      </trkpt>
      <trkpt lat="45.68801" lon="4.57688">
        <ele>761.6</ele>
        <time>2026-08-26T09:07:15Z</time>
      </trkpt>
      <trkpt lat="45.68799" lon="4.57688">
        <ele>761.8</ele>
        <time>2026-08-26T09:07:16Z</time>
      </trkpt>
      <trkpt lat="45.68797" lon="4.57689">
        <ele>762</ele>
        <time>2026-08-26T09:07:17Z</time>
      </trkpt>
      <trkpt lat="45.68795" lon="4.5769">
        <ele>762.2</ele>
        <time>2026-08-26T09:07:18Z</time>
      </trkpt>
      <trkpt lat="45.68792" lon="4.5769">
        <ele>762.2</ele>
        <time>2026-08-26T09:07:19Z</time>
      </trkpt>
      <trkpt lat="45.6879" lon="4.57691">
        <ele>762.4</ele>
        <time>2026-08-26T09:07:20Z</time>
      </trkpt>
      <trkpt lat="45.68787" lon="4.57692">
        <ele>762.4</ele>
        <time>2026-08-26T09:07:21Z</time>
      </trkpt>
      <trkpt lat="45.68784" lon="4.57693">
        <ele>762.6</ele>
        <time>2026-08-26T09:07:22Z</time>
      </trkpt>
      <trkpt lat="45.68782" lon="4.57693">
        <ele>762.6</ele>
        <time>2026-08-26T09:07:23Z</time>
      </trkpt>
      <trkpt lat="45.68779" lon="4.57692">
        <ele>762.8</ele>
        <time>2026-08-26T09:07:24Z</time>
      </trkpt>
      <trkpt lat="45.68776" lon="4.57691">
        <ele>763</ele>
        <time>2026-08-26T09:07:25Z</time>
      </trkpt>
      <trkpt lat="45.68773" lon="4.57691">
        <ele>763</ele>
        <time>2026-08-26T09:07:26Z</time>
      </trkpt>
      <trkpt lat="45.68771" lon="4.5769">
        <ele>763.2</ele>
        <time>2026-08-26T09:07:27Z</time>
      </trkpt>
      <trkpt lat="45.68768" lon="4.5769">
        <ele>763.4</ele>
        <time>2026-08-26T09:07:28Z</time>
      </trkpt>
      <trkpt lat="45.68766" lon="4.57689">
        <ele>763.4</ele>
        <time>2026-08-26T09:07:29Z</time>
      </trkpt>
      <trkpt lat="45.68763" lon="4.57688">
        <ele>763.6</ele>
        <time>2026-08-26T09:07:30Z</time>
      </trkpt>
      <trkpt lat="45.68761" lon="4.57687">
        <ele>763.8</ele>
        <time>2026-08-26T09:07:31Z</time>
      </trkpt>
      <trkpt lat="45.68759" lon="4.57685">
        <ele>763.8</ele>
        <time>2026-08-26T09:07:32Z</time>
      </trkpt>
      <trkpt lat="45.68756" lon="4.57684">
        <ele>764</ele>
        <time>2026-08-26T09:07:33Z</time>
      </trkpt>
      <trkpt lat="45.68754" lon="4.57683">
        <ele>764.2</ele>
        <time>2026-08-26T09:07:34Z</time>
      </trkpt>
      <trkpt lat="45.68751" lon="4.57682">
        <ele>764.4</ele>
        <time>2026-08-26T09:07:35Z</time>
      </trkpt>
      <trkpt lat="45.68749" lon="4.57681">
        <ele>764.4</ele>
        <time>2026-08-26T09:07:36Z</time>
      </trkpt>
      <trkpt lat="45.68746" lon="4.57679">
        <ele>764.6</ele>
        <time>2026-08-26T09:07:37Z</time>
      </trkpt>
      <trkpt lat="45.68743" lon="4.57678">
        <ele>764.6</ele>
        <time>2026-08-26T09:07:38Z</time>
      </trkpt>
      <trkpt lat="45.68741" lon="4.57677">
        <ele>764.8</ele>
        <time>2026-08-26T09:07:39Z</time>
      </trkpt>
      <trkpt lat="45.68738" lon="4.57677">
        <ele>764.8</ele>
        <time>2026-08-26T09:07:40Z</time>
      </trkpt>
      <trkpt lat="45.68735" lon="4.57676">
        <ele>764.8</ele>
        <time>2026-08-26T09:07:41Z</time>
      </trkpt>
      <trkpt lat="45.68733" lon="4.57676">
        <ele>765</ele>
        <time>2026-08-26T09:07:42Z</time>
      </trkpt>
      <trkpt lat="45.6873" lon="4.57675">
        <ele>765.2</ele>
        <time>2026-08-26T09:07:43Z</time>
      </trkpt>
      <trkpt lat="45.68727" lon="4.57675">
        <ele>765.2</ele>
        <time>2026-08-26T09:07:44Z</time>
      </trkpt>
      <trkpt lat="45.68725" lon="4.57675">
        <ele>765.2</ele>
        <time>2026-08-26T09:07:45Z</time>
      </trkpt>
      <trkpt lat="45.68722" lon="4.57674">
        <ele>765.4</ele>
        <time>2026-08-26T09:07:46Z</time>
      </trkpt>
      <trkpt lat="45.68719" lon="4.57673">
        <ele>765.4</ele>
        <time>2026-08-26T09:07:47Z</time>
      </trkpt>
      <trkpt lat="45.68716" lon="4.57673">
        <ele>765.6</ele>
        <time>2026-08-26T09:07:48Z</time>
      </trkpt>
      <trkpt lat="45.68713" lon="4.57672">
        <ele>765.6</ele>
        <time>2026-08-26T09:07:49Z</time>
      </trkpt>
      <trkpt lat="45.6871" lon="4.57672">
        <ele>765.8</ele>
        <time>2026-08-26T09:07:50Z</time>
      </trkpt>
      <trkpt lat="45.68708" lon="4.57672">
        <ele>765.8</ele>
        <time>2026-08-26T09:07:51Z</time>
      </trkpt>
      <trkpt lat="45.68705" lon="4.57671">
        <ele>766</ele>
        <time>2026-08-26T09:07:52Z</time>
      </trkpt>
      <trkpt lat="45.68702" lon="4.57671">
        <ele>766</ele>
        <time>2026-08-26T09:07:53Z</time>
      </trkpt>
      <trkpt lat="45.68698" lon="4.57671">
        <ele>766</ele>
        <time>2026-08-26T09:07:54Z</time>
      </trkpt>
      <trkpt lat="45.68695" lon="4.57671">
        <ele>766</ele>
        <time>2026-08-26T09:07:55Z</time>
      </trkpt>
      <trkpt lat="45.68692" lon="4.57671">
        <ele>766.2</ele>
        <time>2026-08-26T09:07:56Z</time>
      </trkpt>
      <trkpt lat="45.68689" lon="4.57671">
        <ele>766.2</ele>
        <time>2026-08-26T09:07:57Z</time>
      </trkpt>
      <trkpt lat="45.68685" lon="4.57671">
        <ele>766.4</ele>
        <time>2026-08-26T09:07:58Z</time>
      </trkpt>
      <trkpt lat="45.68682" lon="4.5767">
        <ele>766.6</ele>
        <time>2026-08-26T09:07:59Z</time>
      </trkpt>
      <trkpt lat="45.68679" lon="4.5767">
        <ele>766.6</ele>
        <time>2026-08-26T09:08:00Z</time>
      </trkpt>
      <trkpt lat="45.68676" lon="4.5767">
        <ele>766.8</ele>
        <time>2026-08-26T09:08:01Z</time>
      </trkpt>
      <trkpt lat="45.68673" lon="4.57669">
        <ele>766.8</ele>
        <time>2026-08-26T09:08:02Z</time>
      </trkpt>
      <trkpt lat="45.6867" lon="4.57669">
        <ele>767</ele>
        <time>2026-08-26T09:08:03Z</time>
      </trkpt>
      <trkpt lat="45.68668" lon="4.57669">
        <ele>767</ele>
        <time>2026-08-26T09:08:04Z</time>
      </trkpt>
      <trkpt lat="45.68665" lon="4.57668">
        <ele>767.2</ele>
        <time>2026-08-26T09:08:05Z</time>
      </trkpt>
      <trkpt lat="45.68663" lon="4.57666">
        <ele>767.4</ele>
        <time>2026-08-26T09:08:06Z</time>
      </trkpt>
      <trkpt lat="45.6866" lon="4.57666">
        <ele>767.4</ele>
        <time>2026-08-26T09:08:07Z</time>
      </trkpt>
      <trkpt lat="45.68656" lon="4.57665">
        <ele>767.4</ele>
        <time>2026-08-26T09:08:08Z</time>
      </trkpt>
      <trkpt lat="45.68653" lon="4.57665">
        <ele>767.6</ele>
        <time>2026-08-26T09:08:09Z</time>
      </trkpt>
      <trkpt lat="45.6865" lon="4.57665">
        <ele>767.6</ele>
        <time>2026-08-26T09:08:10Z</time>
      </trkpt>
      <trkpt lat="45.68647" lon="4.57664">
        <ele>767.8</ele>
        <time>2026-08-26T09:08:11Z</time>
      </trkpt>
      <trkpt lat="45.68643" lon="4.57663">
        <ele>767.8</ele>
        <time>2026-08-26T09:08:12Z</time>
      </trkpt>
      <trkpt lat="45.6864" lon="4.57663">
        <ele>767.8</ele>
        <time>2026-08-26T09:08:13Z</time>
      </trkpt>
      <trkpt lat="45.68637" lon="4.57662">
        <ele>768</ele>
        <time>2026-08-26T09:08:14Z</time>
      </trkpt>
      <trkpt lat="45.68634" lon="4.57661">
        <ele>768</ele>
        <time>2026-08-26T09:08:15Z</time>
      </trkpt>
      <trkpt lat="45.68631" lon="4.5766">
        <ele>768</ele>
        <time>2026-08-26T09:08:16Z</time>
      </trkpt>
      <trkpt lat="45.68628" lon="4.57659">
        <ele>768</ele>
        <time>2026-08-26T09:08:17Z</time>
      </trkpt>
      <trkpt lat="45.68625" lon="4.57658">
        <ele>768</ele>
        <time>2026-08-26T09:08:18Z</time>
      </trkpt>
      <trkpt lat="45.68623" lon="4.57657">
        <ele>768</ele>
        <time>2026-08-26T09:08:19Z</time>
      </trkpt>
      <trkpt lat="45.6862" lon="4.57656">
        <ele>768</ele>
        <time>2026-08-26T09:08:20Z</time>
      </trkpt>
      <trkpt lat="45.68617" lon="4.57655">
        <ele>768</ele>
        <time>2026-08-26T09:08:21Z</time>
      </trkpt>
      <trkpt lat="45.68614" lon="4.57654">
        <ele>768</ele>
        <time>2026-08-26T09:08:22Z</time>
      </trkpt>
      <trkpt lat="45.68611" lon="4.57653">
        <ele>767.8</ele>
        <time>2026-08-26T09:08:23Z</time>
      </trkpt>
      <trkpt lat="45.68608" lon="4.57653">
        <ele>767.8</ele>
        <time>2026-08-26T09:08:24Z</time>
      </trkpt>
      <trkpt lat="45.68605" lon="4.57651">
        <ele>767.8</ele>
        <time>2026-08-26T09:08:25Z</time>
      </trkpt>
      <trkpt lat="45.68604" lon="4.57649">
        <ele>767.6</ele>
        <time>2026-08-26T09:08:26Z</time>
      </trkpt>
      <trkpt lat="45.68603" lon="4.57647">
        <ele>767.6</ele>
        <time>2026-08-26T09:08:27Z</time>
      </trkpt>
      <trkpt lat="45.68603" lon="4.57644">
        <ele>767.6</ele>
        <time>2026-08-26T09:08:28Z</time>
      </trkpt>
      <trkpt lat="45.68604" lon="4.57641">
        <ele>767.6</ele>
        <time>2026-08-26T09:08:29Z</time>
      </trkpt>
      <trkpt lat="45.68605" lon="4.57638">
        <ele>767.6</ele>
        <time>2026-08-26T09:08:30Z</time>
      </trkpt>
      <trkpt lat="45.68606" lon="4.57635">
        <ele>767.6</ele>
        <time>2026-08-26T09:08:31Z</time>
      </trkpt>
      <trkpt lat="45.68608" lon="4.57632">
        <ele>767.6</ele>
        <time>2026-08-26T09:08:32Z</time>
      </trkpt>
      <trkpt lat="45.6861" lon="4.57628">
        <ele>767.6</ele>
        <time>2026-08-26T09:08:33Z</time>
      </trkpt>
      <trkpt lat="45.68612" lon="4.57625">
        <ele>767.6</ele>
        <time>2026-08-26T09:08:34Z</time>
      </trkpt>
      <trkpt lat="45.68614" lon="4.57621">
        <ele>767.6</ele>
        <time>2026-08-26T09:08:35Z</time>
      </trkpt>
      <trkpt lat="45.68616" lon="4.57617">
        <ele>767.8</ele>
        <time>2026-08-26T09:08:36Z</time>
      </trkpt>
      <trkpt lat="45.68617" lon="4.57613">
        <ele>767.8</ele>
        <time>2026-08-26T09:08:37Z</time>
      </trkpt>
      <trkpt lat="45.6862" lon="4.57609">
        <ele>767.8</ele>
        <time>2026-08-26T09:08:38Z</time>
      </trkpt>
      <trkpt lat="45.68622" lon="4.57605">
        <ele>767.8</ele>
        <time>2026-08-26T09:08:39Z</time>
      </trkpt>
      <trkpt lat="45.68623" lon="4.57601">
        <ele>767.8</ele>
        <time>2026-08-26T09:08:40Z</time>
      </trkpt>
      <trkpt lat="45.68625" lon="4.57597">
        <ele>767.8</ele>
        <time>2026-08-26T09:08:41Z</time>
      </trkpt>
      <trkpt lat="45.68626" lon="4.57592">
        <ele>768</ele>
        <time>2026-08-26T09:08:42Z</time>
      </trkpt>
      <trkpt lat="45.68628" lon="4.57589">
        <ele>768</ele>
        <time>2026-08-26T09:08:43Z</time>
      </trkpt>
      <trkpt lat="45.68629" lon="4.57585">
        <ele>768</ele>
        <time>2026-08-26T09:08:44Z</time>
      </trkpt>
      <trkpt lat="45.68629" lon="4.57581">
        <ele>768.2</ele>
        <time>2026-08-26T09:08:45Z</time>
      </trkpt>
      <trkpt lat="45.68629" lon="4.57578">
        <ele>768.2</ele>
        <time>2026-08-26T09:08:46Z</time>
      </trkpt>
      <trkpt lat="45.68629" lon="4.57576">
        <ele>768</ele>
        <time>2026-08-26T09:08:47Z</time>
      </trkpt>
      <trkpt lat="45.68628" lon="4.57573">
        <ele>768</ele>
        <time>2026-08-26T09:08:48Z</time>
      </trkpt>
      <trkpt lat="45.68627" lon="4.57571">
        <ele>768</ele>
        <time>2026-08-26T09:08:49Z</time>
      </trkpt>
      <trkpt lat="45.68627" lon="4.57568">
        <ele>768</ele>
        <time>2026-08-26T09:08:50Z</time>
      </trkpt>
      <trkpt lat="45.68627" lon="4.57567">
        <ele>768</ele>
        <time>2026-08-26T09:08:51Z</time>
      </trkpt>
      <trkpt lat="45.68627" lon="4.57567">
        <ele>768</ele>
        <time>2026-08-26T09:08:52Z</time>
      </trkpt>
      <trkpt lat="45.68627" lon="4.57567">
        <ele>768</ele>
        <time>2026-08-26T09:08:53Z</time>
      </trkpt>
      <trkpt lat="45.68631" lon="4.57556">
        <ele>768.6</ele>
        <time>2026-08-26T09:10:03Z</time>
      </trkpt>
      <trkpt lat="45.68632" lon="4.57552">
        <ele>768.6</ele>
        <time>2026-08-26T09:10:04Z</time>
      </trkpt>
      <trkpt lat="45.68632" lon="4.57548">
        <ele>768.6</ele>
        <time>2026-08-26T09:10:05Z</time>
      </trkpt>
      <trkpt lat="45.68632" lon="4.57543">
        <ele>768.4</ele>
        <time>2026-08-26T09:10:06Z</time>
      </trkpt>
      <trkpt lat="45.68632" lon="4.57538">
        <ele>768.4</ele>
        <time>2026-08-26T09:10:07Z</time>
      </trkpt>
      <trkpt lat="45.68633" lon="4.57533">
        <ele>768.4</ele>
        <time>2026-08-26T09:10:08Z</time>
      </trkpt>
      <trkpt lat="45.68633" lon="4.57528">
        <ele>768.4</ele>
        <time>2026-08-26T09:10:09Z</time>
      </trkpt>
      <trkpt lat="45.68634" lon="4.57522">
        <ele>768.4</ele>
        <time>2026-08-26T09:10:10Z</time>
      </trkpt>
      <trkpt lat="45.68635" lon="4.57517">
        <ele>768.4</ele>
        <time>2026-08-26T09:10:11Z</time>
      </trkpt>
      <trkpt lat="45.68636" lon="4.57512">
        <ele>768.4</ele>
        <time>2026-08-26T09:10:12Z</time>
      </trkpt>
      <trkpt lat="45.68637" lon="4.57506">
        <ele>768.4</ele>
        <time>2026-08-26T09:10:13Z</time>
      </trkpt>
      <trkpt lat="45.68637" lon="4.57501">
        <ele>768.4</ele>
        <time>2026-08-26T09:10:14Z</time>
      </trkpt>
      <trkpt lat="45.68638" lon="4.57495">
        <ele>768.6</ele>
        <time>2026-08-26T09:10:15Z</time>
      </trkpt>
      <trkpt lat="45.68639" lon="4.57489">
        <ele>768.8</ele>
        <time>2026-08-26T09:10:16Z</time>
      </trkpt>
      <trkpt lat="45.6864" lon="4.57483">
        <ele>768.8</ele>
        <time>2026-08-26T09:10:17Z</time>
      </trkpt>
      <trkpt lat="45.6864" lon="4.57478">
        <ele>769</ele>
        <time>2026-08-26T09:10:18Z</time>
      </trkpt>
      <trkpt lat="45.6864" lon="4.57472">
        <ele>769.2</ele>
        <time>2026-08-26T09:10:19Z</time>
      </trkpt>
      <trkpt lat="45.68641" lon="4.57466">
        <ele>769.2</ele>
        <time>2026-08-26T09:10:20Z</time>
      </trkpt>
      <trkpt lat="45.68642" lon="4.57461">
        <ele>769.4</ele>
        <time>2026-08-26T09:10:21Z</time>
      </trkpt>
      <trkpt lat="45.68642" lon="4.57455">
        <ele>769.6</ele>
        <time>2026-08-26T09:10:22Z</time>
      </trkpt>
      <trkpt lat="45.68642" lon="4.5745">
        <ele>769.8</ele>
        <time>2026-08-26T09:10:23Z</time>
      </trkpt>
      <trkpt lat="45.68642" lon="4.57444">
        <ele>770</ele>
        <time>2026-08-26T09:10:24Z</time>
      </trkpt>
      <trkpt lat="45.68643" lon="4.57438">
        <ele>770.2</ele>
        <time>2026-08-26T09:10:25Z</time>
      </trkpt>
      <trkpt lat="45.68643" lon="4.57433">
        <ele>770.2</ele>
        <time>2026-08-26T09:10:26Z</time>
      </trkpt>
      <trkpt lat="45.68644" lon="4.57427">
        <ele>770.2</ele>
        <time>2026-08-26T09:10:27Z</time>
      </trkpt>
      <trkpt lat="45.68644" lon="4.57421">
        <ele>770.4</ele>
        <time>2026-08-26T09:10:28Z</time>
      </trkpt>
      <trkpt lat="45.68644" lon="4.57415">
        <ele>770.4</ele>
        <time>2026-08-26T09:10:29Z</time>
      </trkpt>
      <trkpt lat="45.68644" lon="4.5741">
        <ele>770.4</ele>
        <time>2026-08-26T09:10:30Z</time>
      </trkpt>
      <trkpt lat="45.68645" lon="4.57404">
        <ele>770.4</ele>
        <time>2026-08-26T09:10:31Z</time>
      </trkpt>
      <trkpt lat="45.68645" lon="4.57399">
        <ele>770.6</ele>
        <time>2026-08-26T09:10:32Z</time>
      </trkpt>
      <trkpt lat="45.68645" lon="4.57393">
        <ele>770.6</ele>
        <time>2026-08-26T09:10:33Z</time>
      </trkpt>
      <trkpt lat="45.68646" lon="4.57387">
        <ele>770.8</ele>
        <time>2026-08-26T09:10:34Z</time>
      </trkpt>
      <trkpt lat="45.68646" lon="4.57382">
        <ele>770.8</ele>
        <time>2026-08-26T09:10:35Z</time>
      </trkpt>
      <trkpt lat="45.68647" lon="4.57376">
        <ele>771</ele>
        <time>2026-08-26T09:10:36Z</time>
      </trkpt>
      <trkpt lat="45.68647" lon="4.5737">
        <ele>771</ele>
        <time>2026-08-26T09:10:37Z</time>
      </trkpt>
      <trkpt lat="45.68647" lon="4.57364">
        <ele>771.2</ele>
        <time>2026-08-26T09:10:38Z</time>
      </trkpt>
      <trkpt lat="45.68647" lon="4.57358">
        <ele>771.2</ele>
        <time>2026-08-26T09:10:39Z</time>
      </trkpt>
      <trkpt lat="45.68648" lon="4.57352">
        <ele>771.2</ele>
        <time>2026-08-26T09:10:40Z</time>
      </trkpt>
      <trkpt lat="45.68648" lon="4.57346">
        <ele>771.2</ele>
        <time>2026-08-26T09:10:41Z</time>
      </trkpt>
      <trkpt lat="45.68648" lon="4.57339">
        <ele>771.4</ele>
        <time>2026-08-26T09:10:42Z</time>
      </trkpt>
      <trkpt lat="45.68649" lon="4.57333">
        <ele>771.2</ele>
        <time>2026-08-26T09:10:43Z</time>
      </trkpt>
      <trkpt lat="45.68649" lon="4.57327">
        <ele>771.2</ele>
        <time>2026-08-26T09:10:44Z</time>
      </trkpt>
      <trkpt lat="45.6865" lon="4.57321">
        <ele>771.4</ele>
        <time>2026-08-26T09:10:45Z</time>
      </trkpt>
      <trkpt lat="45.6865" lon="4.57315">
        <ele>771.4</ele>
        <time>2026-08-26T09:10:46Z</time>
      </trkpt>
      <trkpt lat="45.68651" lon="4.57308">
        <ele>771.4</ele>
        <time>2026-08-26T09:10:47Z</time>
      </trkpt>
      <trkpt lat="45.68651" lon="4.57302">
        <ele>771.4</ele>
        <time>2026-08-26T09:10:48Z</time>
      </trkpt>
      <trkpt lat="45.68652" lon="4.57296">
        <ele>771.6</ele>
        <time>2026-08-26T09:10:49Z</time>
      </trkpt>
      <trkpt lat="45.68652" lon="4.57289">
        <ele>771.6</ele>
        <time>2026-08-26T09:10:50Z</time>
      </trkpt>
      <trkpt lat="45.68652" lon="4.57283">
        <ele>771.6</ele>
        <time>2026-08-26T09:10:51Z</time>
      </trkpt>
      <trkpt lat="45.68653" lon="4.57276">
        <ele>771.4</ele>
        <time>2026-08-26T09:10:52Z</time>
      </trkpt>
      <trkpt lat="45.68654" lon="4.57269">
        <ele>771.4</ele>
        <time>2026-08-26T09:10:53Z</time>
      </trkpt>
      <trkpt lat="45.68655" lon="4.57262">
        <ele>771.4</ele>
        <time>2026-08-26T09:10:54Z</time>
      </trkpt>
      <trkpt lat="45.68656" lon="4.57255">
        <ele>771.2</ele>
        <time>2026-08-26T09:10:55Z</time>
      </trkpt>
      <trkpt lat="45.68657" lon="4.57248">
        <ele>771.2</ele>
        <time>2026-08-26T09:10:56Z</time>
      </trkpt>
      <trkpt lat="45.68659" lon="4.57241">
        <ele>771.2</ele>
        <time>2026-08-26T09:10:57Z</time>
      </trkpt>
      <trkpt lat="45.6866" lon="4.57235">
        <ele>771</ele>
        <time>2026-08-26T09:10:58Z</time>
      </trkpt>
      <trkpt lat="45.68662" lon="4.57228">
        <ele>771</ele>
        <time>2026-08-26T09:10:59Z</time>
      </trkpt>
      <trkpt lat="45.68664" lon="4.57221">
        <ele>771</ele>
        <time>2026-08-26T09:11:00Z</time>
      </trkpt>
      <trkpt lat="45.68666" lon="4.57214">
        <ele>770.8</ele>
        <time>2026-08-26T09:11:01Z</time>
      </trkpt>
      <trkpt lat="45.68668" lon="4.57207">
        <ele>770.8</ele>
        <time>2026-08-26T09:11:02Z</time>
      </trkpt>
      <trkpt lat="45.6867" lon="4.57201">
        <ele>770.6</ele>
        <time>2026-08-26T09:11:03Z</time>
      </trkpt>
      <trkpt lat="45.68672" lon="4.57194">
        <ele>770.6</ele>
        <time>2026-08-26T09:11:04Z</time>
      </trkpt>
      <trkpt lat="45.68675" lon="4.57187">
        <ele>770.6</ele>
        <time>2026-08-26T09:11:05Z</time>
      </trkpt>
      <trkpt lat="45.68677" lon="4.5718">
        <ele>770.4</ele>
        <time>2026-08-26T09:11:06Z</time>
      </trkpt>
      <trkpt lat="45.6868" lon="4.57173">
        <ele>770.4</ele>
        <time>2026-08-26T09:11:07Z</time>
      </trkpt>
      <trkpt lat="45.68683" lon="4.57166">
        <ele>770.2</ele>
        <time>2026-08-26T09:11:08Z</time>
      </trkpt>
      <trkpt lat="45.68686" lon="4.57159">
        <ele>770</ele>
        <time>2026-08-26T09:11:09Z</time>
      </trkpt>
      <trkpt lat="45.68689" lon="4.57152">
        <ele>769.8</ele>
        <time>2026-08-26T09:11:10Z</time>
      </trkpt>
      <trkpt lat="45.68692" lon="4.57145">
        <ele>769.6</ele>
        <time>2026-08-26T09:11:11Z</time>
      </trkpt>
      <trkpt lat="45.68695" lon="4.57138">
        <ele>769.6</ele>
        <time>2026-08-26T09:11:12Z</time>
      </trkpt>
      <trkpt lat="45.68698" lon="4.5713">
        <ele>769.4</ele>
        <time>2026-08-26T09:11:13Z</time>
      </trkpt>
      <trkpt lat="45.68702" lon="4.57123">
        <ele>769.2</ele>
        <time>2026-08-26T09:11:14Z</time>
      </trkpt>
      <trkpt lat="45.68705" lon="4.57115">
        <ele>769.2</ele>
        <time>2026-08-26T09:11:15Z</time>
      </trkpt>
      <trkpt lat="45.68708" lon="4.57107">
        <ele>769</ele>
        <time>2026-08-26T09:11:16Z</time>
      </trkpt>
      <trkpt lat="45.68711" lon="4.57099">
        <ele>768.8</ele>
        <time>2026-08-26T09:11:17Z</time>
      </trkpt>
      <trkpt lat="45.68714" lon="4.57091">
        <ele>768.8</ele>
        <time>2026-08-26T09:11:18Z</time>
      </trkpt>
      <trkpt lat="45.68717" lon="4.57082">
        <ele>768.6</ele>
        <time>2026-08-26T09:11:19Z</time>
      </trkpt>
      <trkpt lat="45.6872" lon="4.57074">
        <ele>768.4</ele>
        <time>2026-08-26T09:11:20Z</time>
      </trkpt>
      <trkpt lat="45.68724" lon="4.57065">
        <ele>768.2</ele>
        <time>2026-08-26T09:11:21Z</time>
      </trkpt>
      <trkpt lat="45.68727" lon="4.57057">
        <ele>768.2</ele>
        <time>2026-08-26T09:11:22Z</time>
      </trkpt>
      <trkpt lat="45.6873" lon="4.57048">
        <ele>768</ele>
        <time>2026-08-26T09:11:23Z</time>
      </trkpt>
      <trkpt lat="45.68733" lon="4.57039">
        <ele>767.8</ele>
        <time>2026-08-26T09:11:24Z</time>
      </trkpt>
      <trkpt lat="45.68735" lon="4.5703">
        <ele>767.8</ele>
        <time>2026-08-26T09:11:25Z</time>
      </trkpt>
      <trkpt lat="45.68738" lon="4.57022">
        <ele>767.8</ele>
        <time>2026-08-26T09:11:26Z</time>
      </trkpt>
      <trkpt lat="45.68741" lon="4.57013">
        <ele>768</ele>
        <time>2026-08-26T09:11:27Z</time>
      </trkpt>
      <trkpt lat="45.68743" lon="4.57005">
        <ele>768</ele>
        <time>2026-08-26T09:11:28Z</time>
      </trkpt>
      <trkpt lat="45.68746" lon="4.56996">
        <ele>768.2</ele>
        <time>2026-08-26T09:11:29Z</time>
      </trkpt>
      <trkpt lat="45.68748" lon="4.56988">
        <ele>768.4</ele>
        <time>2026-08-26T09:11:30Z</time>
      </trkpt>
      <trkpt lat="45.6875" lon="4.56979">
        <ele>768.4</ele>
        <time>2026-08-26T09:11:31Z</time>
      </trkpt>
      <trkpt lat="45.68752" lon="4.56971">
        <ele>768.4</ele>
        <time>2026-08-26T09:11:32Z</time>
      </trkpt>
      <trkpt lat="45.68754" lon="4.56963">
        <ele>768.4</ele>
        <time>2026-08-26T09:11:33Z</time>
      </trkpt>
      <trkpt lat="45.68756" lon="4.56954">
        <ele>768.4</ele>
        <time>2026-08-26T09:11:34Z</time>
      </trkpt>
      <trkpt lat="45.68758" lon="4.56945">
        <ele>768.4</ele>
        <time>2026-08-26T09:11:35Z</time>
      </trkpt>
      <trkpt lat="45.68759" lon="4.56936">
        <ele>768.2</ele>
        <time>2026-08-26T09:11:36Z</time>
      </trkpt>
      <trkpt lat="45.68761" lon="4.56927">
        <ele>768.2</ele>
        <time>2026-08-26T09:11:37Z</time>
      </trkpt>
      <trkpt lat="45.68762" lon="4.56918">
        <ele>767.8</ele>
        <time>2026-08-26T09:11:38Z</time>
      </trkpt>
      <trkpt lat="45.68763" lon="4.56909">
        <ele>767.6</ele>
        <time>2026-08-26T09:11:39Z</time>
      </trkpt>
      <trkpt lat="45.68764" lon="4.569">
        <ele>767.4</ele>
        <time>2026-08-26T09:11:40Z</time>
      </trkpt>
      <trkpt lat="45.68764" lon="4.5689">
        <ele>767.2</ele>
        <time>2026-08-26T09:11:41Z</time>
      </trkpt>
      <trkpt lat="45.68764" lon="4.56881">
        <ele>767.2</ele>
        <time>2026-08-26T09:11:42Z</time>
      </trkpt>
      <trkpt lat="45.68764" lon="4.56872">
        <ele>767.4</ele>
        <time>2026-08-26T09:11:43Z</time>
      </trkpt>
      <trkpt lat="45.68764" lon="4.56862">
        <ele>767.2</ele>
        <time>2026-08-26T09:11:44Z</time>
      </trkpt>
      <trkpt lat="45.68764" lon="4.56853">
        <ele>767.2</ele>
        <time>2026-08-26T09:11:45Z</time>
      </trkpt>
      <trkpt lat="45.68764" lon="4.56843">
        <ele>767.2</ele>
        <time>2026-08-26T09:11:46Z</time>
      </trkpt>
      <trkpt lat="45.68765" lon="4.56834">
        <ele>767.2</ele>
        <time>2026-08-26T09:11:47Z</time>
      </trkpt>
      <trkpt lat="45.68765" lon="4.56824">
        <ele>767</ele>
        <time>2026-08-26T09:11:48Z</time>
      </trkpt>
      <trkpt lat="45.68766" lon="4.56815">
        <ele>767</ele>
        <time>2026-08-26T09:11:49Z</time>
      </trkpt>
      <trkpt lat="45.68766" lon="4.56806">
        <ele>767</ele>
        <time>2026-08-26T09:11:50Z</time>
      </trkpt>
      <trkpt lat="45.68767" lon="4.56796">
        <ele>766.8</ele>
        <time>2026-08-26T09:11:51Z</time>
      </trkpt>
      <trkpt lat="45.68768" lon="4.56787">
        <ele>766.8</ele>
        <time>2026-08-26T09:11:52Z</time>
      </trkpt>
      <trkpt lat="45.68769" lon="4.56778">
        <ele>767</ele>
        <time>2026-08-26T09:11:53Z</time>
      </trkpt>
      <trkpt lat="45.68771" lon="4.56769">
        <ele>767</ele>
        <time>2026-08-26T09:11:54Z</time>
      </trkpt>
      <trkpt lat="45.68772" lon="4.56759">
        <ele>766.8</ele>
        <time>2026-08-26T09:11:55Z</time>
      </trkpt>
      <trkpt lat="45.68774" lon="4.56749">
        <ele>766.8</ele>
        <time>2026-08-26T09:11:56Z</time>
      </trkpt>
      <trkpt lat="45.68775" lon="4.5674">
        <ele>766.6</ele>
        <time>2026-08-26T09:11:57Z</time>
      </trkpt>
      <trkpt lat="45.68777" lon="4.5673">
        <ele>766.4</ele>
        <time>2026-08-26T09:11:58Z</time>
      </trkpt>
      <trkpt lat="45.68778" lon="4.5672">
        <ele>766.2</ele>
        <time>2026-08-26T09:11:59Z</time>
      </trkpt>
      <trkpt lat="45.6878" lon="4.5671">
        <ele>766</ele>
        <time>2026-08-26T09:12:00Z</time>
      </trkpt>
      <trkpt lat="45.68782" lon="4.567">
        <ele>765.6</ele>
        <time>2026-08-26T09:12:01Z</time>
      </trkpt>
      <trkpt lat="45.68784" lon="4.5669">
        <ele>765.4</ele>
        <time>2026-08-26T09:12:02Z</time>
      </trkpt>
      <trkpt lat="45.68786" lon="4.56679">
        <ele>765</ele>
        <time>2026-08-26T09:12:03Z</time>
      </trkpt>
      <trkpt lat="45.68788" lon="4.56669">
        <ele>764.8</ele>
        <time>2026-08-26T09:12:04Z</time>
      </trkpt>
      <trkpt lat="45.6879" lon="4.56658">
        <ele>764.6</ele>
        <time>2026-08-26T09:12:05Z</time>
      </trkpt>
      <trkpt lat="45.68792" lon="4.56648">
        <ele>764.2</ele>
        <time>2026-08-26T09:12:06Z</time>
      </trkpt>
      <trkpt lat="45.68795" lon="4.56637">
        <ele>764.2</ele>
        <time>2026-08-26T09:12:07Z</time>
      </trkpt>
      <trkpt lat="45.68797" lon="4.56627">
        <ele>764</ele>
        <time>2026-08-26T09:12:08Z</time>
      </trkpt>
      <trkpt lat="45.688" lon="4.56616">
        <ele>763.8</ele>
        <time>2026-08-26T09:12:09Z</time>
      </trkpt>
      <trkpt lat="45.68803" lon="4.56606">
        <ele>763.6</ele>
        <time>2026-08-26T09:12:10Z</time>
      </trkpt>
      <trkpt lat="45.68807" lon="4.56596">
        <ele>763.4</ele>
        <time>2026-08-26T09:12:11Z</time>
      </trkpt>
      <trkpt lat="45.6881" lon="4.56586">
        <ele>763</ele>
        <time>2026-08-26T09:12:12Z</time>
      </trkpt>
      <trkpt lat="45.68814" lon="4.56576">
        <ele>763</ele>
        <time>2026-08-26T09:12:13Z</time>
      </trkpt>
      <trkpt lat="45.68817" lon="4.56566">
        <ele>762.8</ele>
        <time>2026-08-26T09:12:14Z</time>
      </trkpt>
      <trkpt lat="45.68821" lon="4.56556">
        <ele>762.6</ele>
        <time>2026-08-26T09:12:15Z</time>
      </trkpt>
      <trkpt lat="45.68825" lon="4.56547">
        <ele>762.4</ele>
        <time>2026-08-26T09:12:16Z</time>
      </trkpt>
      <trkpt lat="45.68828" lon="4.56537">
        <ele>762.2</ele>
        <time>2026-08-26T09:12:17Z</time>
      </trkpt>
      <trkpt lat="45.68832" lon="4.56527">
        <ele>762.2</ele>
        <time>2026-08-26T09:12:18Z</time>
      </trkpt>
      <trkpt lat="45.68836" lon="4.56518">
        <ele>762</ele>
        <time>2026-08-26T09:12:19Z</time>
      </trkpt>
      <trkpt lat="45.68839" lon="4.56508">
        <ele>762</ele>
        <time>2026-08-26T09:12:20Z</time>
      </trkpt>
      <trkpt lat="45.68843" lon="4.56498">
        <ele>762</ele>
        <time>2026-08-26T09:12:21Z</time>
      </trkpt>
      <trkpt lat="45.68846" lon="4.56489">
        <ele>762.2</ele>
        <time>2026-08-26T09:12:22Z</time>
      </trkpt>
      <trkpt lat="45.6885" lon="4.5648">
        <ele>762.2</ele>
        <time>2026-08-26T09:12:23Z</time>
      </trkpt>
      <trkpt lat="45.68854" lon="4.56471">
        <ele>762.2</ele>
        <time>2026-08-26T09:12:24Z</time>
      </trkpt>
      <trkpt lat="45.68858" lon="4.56462">
        <ele>762.2</ele>
        <time>2026-08-26T09:12:25Z</time>
      </trkpt>
      <trkpt lat="45.68862" lon="4.56453">
        <ele>762.2</ele>
        <time>2026-08-26T09:12:26Z</time>
      </trkpt>
      <trkpt lat="45.68865" lon="4.56444">
        <ele>762.2</ele>
        <time>2026-08-26T09:12:27Z</time>
      </trkpt>
      <trkpt lat="45.68869" lon="4.56435">
        <ele>762.2</ele>
        <time>2026-08-26T09:12:28Z</time>
      </trkpt>
      <trkpt lat="45.68872" lon="4.56425">
        <ele>762.2</ele>
        <time>2026-08-26T09:12:29Z</time>
      </trkpt>
      <trkpt lat="45.68874" lon="4.56415">
        <ele>762.2</ele>
        <time>2026-08-26T09:12:30Z</time>
      </trkpt>
      <trkpt lat="45.68875" lon="4.56405">
        <ele>762.2</ele>
        <time>2026-08-26T09:12:31Z</time>
      </trkpt>
      <trkpt lat="45.68877" lon="4.56395">
        <ele>762</ele>
        <time>2026-08-26T09:12:32Z</time>
      </trkpt>
      <trkpt lat="45.68879" lon="4.56384">
        <ele>761.8</ele>
        <time>2026-08-26T09:12:33Z</time>
      </trkpt>
      <trkpt lat="45.6888" lon="4.56374">
        <ele>761.6</ele>
        <time>2026-08-26T09:12:34Z</time>
      </trkpt>
      <trkpt lat="45.68882" lon="4.56363">
        <ele>761</ele>
        <time>2026-08-26T09:12:35Z</time>
      </trkpt>
      <trkpt lat="45.68883" lon="4.56353">
        <ele>760.6</ele>
        <time>2026-08-26T09:12:36Z</time>
      </trkpt>
      <trkpt lat="45.68885" lon="4.56342">
        <ele>760.4</ele>
        <time>2026-08-26T09:12:37Z</time>
      </trkpt>
      <trkpt lat="45.68885" lon="4.56331">
        <ele>760.2</ele>
        <time>2026-08-26T09:12:38Z</time>
      </trkpt>
      <trkpt lat="45.68886" lon="4.56321">
        <ele>760</ele>
        <time>2026-08-26T09:12:39Z</time>
      </trkpt>
      <trkpt lat="45.68887" lon="4.5631">
        <ele>759.6</ele>
        <time>2026-08-26T09:12:40Z</time>
      </trkpt>
      <trkpt lat="45.68888" lon="4.56298">
        <ele>759.4</ele>
        <time>2026-08-26T09:12:41Z</time>
      </trkpt>
      <trkpt lat="45.68889" lon="4.56287">
        <ele>759</ele>
        <time>2026-08-26T09:12:42Z</time>
      </trkpt>
      <trkpt lat="45.6889" lon="4.56276">
        <ele>758.8</ele>
        <time>2026-08-26T09:12:43Z</time>
      </trkpt>
      <trkpt lat="45.68891" lon="4.56265">
        <ele>758.4</ele>
        <time>2026-08-26T09:12:44Z</time>
      </trkpt>
      <trkpt lat="45.68891" lon="4.56253">
        <ele>758.4</ele>
        <time>2026-08-26T09:12:45Z</time>
      </trkpt>
      <trkpt lat="45.68892" lon="4.56242">
        <ele>758.2</ele>
        <time>2026-08-26T09:12:46Z</time>
      </trkpt>
      <trkpt lat="45.68893" lon="4.56231">
        <ele>758</ele>
        <time>2026-08-26T09:12:47Z</time>
      </trkpt>
      <trkpt lat="45.68893" lon="4.56219">
        <ele>758</ele>
        <time>2026-08-26T09:12:48Z</time>
      </trkpt>
      <trkpt lat="45.68894" lon="4.56208">
        <ele>757.8</ele>
        <time>2026-08-26T09:12:49Z</time>
      </trkpt>
      <trkpt lat="45.68895" lon="4.56197">
        <ele>757.6</ele>
        <time>2026-08-26T09:12:50Z</time>
      </trkpt>
      <trkpt lat="45.68895" lon="4.56185">
        <ele>757.4</ele>
        <time>2026-08-26T09:12:51Z</time>
      </trkpt>
      <trkpt lat="45.68896" lon="4.56174">
        <ele>757</ele>
        <time>2026-08-26T09:12:52Z</time>
      </trkpt>
      <trkpt lat="45.68897" lon="4.56163">
        <ele>756.6</ele>
        <time>2026-08-26T09:12:53Z</time>
      </trkpt>
      <trkpt lat="45.68899" lon="4.56152">
        <ele>756.4</ele>
        <time>2026-08-26T09:12:54Z</time>
      </trkpt>
      <trkpt lat="45.68901" lon="4.56141">
        <ele>756.4</ele>
        <time>2026-08-26T09:12:55Z</time>
      </trkpt>
      <trkpt lat="45.68903" lon="4.56131">
        <ele>756.2</ele>
        <time>2026-08-26T09:12:56Z</time>
      </trkpt>
      <trkpt lat="45.68906" lon="4.5612">
        <ele>756.2</ele>
        <time>2026-08-26T09:12:57Z</time>
      </trkpt>
      <trkpt lat="45.6891" lon="4.5611">
        <ele>756</ele>
        <time>2026-08-26T09:12:58Z</time>
      </trkpt>
      <trkpt lat="45.68915" lon="4.56101">
        <ele>755.8</ele>
        <time>2026-08-26T09:12:59Z</time>
      </trkpt>
      <trkpt lat="45.6892" lon="4.56092">
        <ele>755.6</ele>
        <time>2026-08-26T09:13:00Z</time>
      </trkpt>
      <trkpt lat="45.68926" lon="4.56085">
        <ele>755.2</ele>
        <time>2026-08-26T09:13:01Z</time>
      </trkpt>
      <trkpt lat="45.68932" lon="4.56078">
        <ele>755</ele>
        <time>2026-08-26T09:13:02Z</time>
      </trkpt>
      <trkpt lat="45.68939" lon="4.56073">
        <ele>754.8</ele>
        <time>2026-08-26T09:13:03Z</time>
      </trkpt>
      <trkpt lat="45.68946" lon="4.56069">
        <ele>754.6</ele>
        <time>2026-08-26T09:13:04Z</time>
      </trkpt>
      <trkpt lat="45.68954" lon="4.56067">
        <ele>754.2</ele>
        <time>2026-08-26T09:13:05Z</time>
      </trkpt>
      <trkpt lat="45.68962" lon="4.56067">
        <ele>754</ele>
        <time>2026-08-26T09:13:06Z</time>
      </trkpt>
      <trkpt lat="45.68969" lon="4.56069">
        <ele>753.6</ele>
        <time>2026-08-26T09:13:07Z</time>
      </trkpt>
      <trkpt lat="45.68976" lon="4.56072">
        <ele>753.4</ele>
        <time>2026-08-26T09:13:08Z</time>
      </trkpt>
      <trkpt lat="45.68983" lon="4.56075">
        <ele>753</ele>
        <time>2026-08-26T09:13:09Z</time>
      </trkpt>
      <trkpt lat="45.6899" lon="4.56078">
        <ele>753</ele>
        <time>2026-08-26T09:13:10Z</time>
      </trkpt>
      <trkpt lat="45.68997" lon="4.56081">
        <ele>752.8</ele>
        <time>2026-08-26T09:13:11Z</time>
      </trkpt>
      <trkpt lat="45.69005" lon="4.56083">
        <ele>752.8</ele>
        <time>2026-08-26T09:13:12Z</time>
      </trkpt>
      <trkpt lat="45.69012" lon="4.56083">
        <ele>752.8</ele>
        <time>2026-08-26T09:13:13Z</time>
      </trkpt>
      <trkpt lat="45.69019" lon="4.56081">
        <ele>752.8</ele>
        <time>2026-08-26T09:13:14Z</time>
      </trkpt>
      <trkpt lat="45.69026" lon="4.56078">
        <ele>752.8</ele>
        <time>2026-08-26T09:13:15Z</time>
      </trkpt>
      <trkpt lat="45.69032" lon="4.56073">
        <ele>752.8</ele>
        <time>2026-08-26T09:13:16Z</time>
      </trkpt>
      <trkpt lat="45.69038" lon="4.56069">
        <ele>752.8</ele>
        <time>2026-08-26T09:13:17Z</time>
      </trkpt>
      <trkpt lat="45.69044" lon="4.56065">
        <ele>752.8</ele>
        <time>2026-08-26T09:13:18Z</time>
      </trkpt>
      <trkpt lat="45.6905" lon="4.56061">
        <ele>752.8</ele>
        <time>2026-08-26T09:13:19Z</time>
      </trkpt>
      <trkpt lat="45.69056" lon="4.56058">
        <ele>753</ele>
        <time>2026-08-26T09:13:20Z</time>
      </trkpt>
      <trkpt lat="45.69062" lon="4.56056">
        <ele>753.2</ele>
        <time>2026-08-26T09:13:21Z</time>
      </trkpt>
      <trkpt lat="45.69068" lon="4.56054">
        <ele>753.2</ele>
        <time>2026-08-26T09:13:22Z</time>
      </trkpt>
      <trkpt lat="45.69074" lon="4.56051">
        <ele>753.4</ele>
        <time>2026-08-26T09:13:23Z</time>
      </trkpt>
      <trkpt lat="45.69079" lon="4.56047">
        <ele>753.4</ele>
        <time>2026-08-26T09:13:24Z</time>
      </trkpt>
      <trkpt lat="45.69084" lon="4.56042">
        <ele>753.2</ele>
        <time>2026-08-26T09:13:25Z</time>
      </trkpt>
      <trkpt lat="45.69089" lon="4.56035">
        <ele>753</ele>
        <time>2026-08-26T09:13:26Z</time>
      </trkpt>
      <trkpt lat="45.69094" lon="4.56028">
        <ele>753</ele>
        <time>2026-08-26T09:13:27Z</time>
      </trkpt>
      <trkpt lat="45.69099" lon="4.5602">
        <ele>752.6</ele>
        <time>2026-08-26T09:13:28Z</time>
      </trkpt>
      <trkpt lat="45.69103" lon="4.56011">
        <ele>752.2</ele>
        <time>2026-08-26T09:13:29Z</time>
      </trkpt>
      <trkpt lat="45.69107" lon="4.56002">
        <ele>751.6</ele>
        <time>2026-08-26T09:13:30Z</time>
      </trkpt>
      <trkpt lat="45.69111" lon="4.55992">
        <ele>751.2</ele>
        <time>2026-08-26T09:13:31Z</time>
      </trkpt>
      <trkpt lat="45.69114" lon="4.55983">
        <ele>750.6</ele>
        <time>2026-08-26T09:13:32Z</time>
      </trkpt>
      <trkpt lat="45.69118" lon="4.55974">
        <ele>750.2</ele>
        <time>2026-08-26T09:13:33Z</time>
      </trkpt>
      <trkpt lat="45.69123" lon="4.55964">
        <ele>749.8</ele>
        <time>2026-08-26T09:13:34Z</time>
      </trkpt>
      <trkpt lat="45.69127" lon="4.55955">
        <ele>749.6</ele>
        <time>2026-08-26T09:13:35Z</time>
      </trkpt>
      <trkpt lat="45.69132" lon="4.55946">
        <ele>749.4</ele>
        <time>2026-08-26T09:13:36Z</time>
      </trkpt>
      <trkpt lat="45.69136" lon="4.55936">
        <ele>749</ele>
        <time>2026-08-26T09:13:37Z</time>
      </trkpt>
      <trkpt lat="45.69141" lon="4.55926">
        <ele>748.8</ele>
        <time>2026-08-26T09:13:38Z</time>
      </trkpt>
      <trkpt lat="45.69147" lon="4.55917">
        <ele>748.6</ele>
        <time>2026-08-26T09:13:39Z</time>
      </trkpt>
      <trkpt lat="45.69152" lon="4.55908">
        <ele>748.2</ele>
        <time>2026-08-26T09:13:40Z</time>
      </trkpt>
      <trkpt lat="45.69158" lon="4.55899">
        <ele>747.8</ele>
        <time>2026-08-26T09:13:41Z</time>
      </trkpt>
      <trkpt lat="45.69164" lon="4.5589">
        <ele>747.6</ele>
        <time>2026-08-26T09:13:42Z</time>
      </trkpt>
      <trkpt lat="45.6917" lon="4.55882">
        <ele>747.2</ele>
        <time>2026-08-26T09:13:43Z</time>
      </trkpt>
      <trkpt lat="45.69176" lon="4.55873">
        <ele>746.8</ele>
        <time>2026-08-26T09:13:44Z</time>
      </trkpt>
      <trkpt lat="45.69182" lon="4.55865">
        <ele>746.6</ele>
        <time>2026-08-26T09:13:45Z</time>
      </trkpt>
      <trkpt lat="45.69189" lon="4.55856">
        <ele>746.4</ele>
        <time>2026-08-26T09:13:46Z</time>
      </trkpt>
      <trkpt lat="45.69195" lon="4.55848">
        <ele>746.2</ele>
        <time>2026-08-26T09:13:47Z</time>
      </trkpt>
      <trkpt lat="45.69202" lon="4.5584">
        <ele>745.8</ele>
        <time>2026-08-26T09:13:48Z</time>
      </trkpt>
      <trkpt lat="45.69209" lon="4.55832">
        <ele>745.4</ele>
        <time>2026-08-26T09:13:49Z</time>
      </trkpt>
      <trkpt lat="45.69216" lon="4.55826">
        <ele>745.2</ele>
        <time>2026-08-26T09:13:50Z</time>
      </trkpt>
      <trkpt lat="45.69224" lon="4.5582">
        <ele>744.6</ele>
        <time>2026-08-26T09:13:51Z</time>
      </trkpt>
      <trkpt lat="45.69231" lon="4.55816">
        <ele>744.2</ele>
        <time>2026-08-26T09:13:52Z</time>
      </trkpt>
      <trkpt lat="45.69239" lon="4.55813">
        <ele>743.8</ele>
        <time>2026-08-26T09:13:53Z</time>
      </trkpt>
      <trkpt lat="45.69247" lon="4.55809">
        <ele>743.4</ele>
        <time>2026-08-26T09:13:54Z</time>
      </trkpt>
      <trkpt lat="45.69255" lon="4.55806">
        <ele>743</ele>
        <time>2026-08-26T09:13:55Z</time>
      </trkpt>
      <trkpt lat="45.69263" lon="4.55803">
        <ele>742.6</ele>
        <time>2026-08-26T09:13:56Z</time>
      </trkpt>
      <trkpt lat="45.69271" lon="4.55799">
        <ele>742.4</ele>
        <time>2026-08-26T09:13:57Z</time>
      </trkpt>
      <trkpt lat="45.6928" lon="4.55796">
        <ele>742.2</ele>
        <time>2026-08-26T09:13:58Z</time>
      </trkpt>
      <trkpt lat="45.69289" lon="4.55793">
        <ele>742</ele>
        <time>2026-08-26T09:13:59Z</time>
      </trkpt>
      <trkpt lat="45.69297" lon="4.55789">
        <ele>741.8</ele>
        <time>2026-08-26T09:14:00Z</time>
      </trkpt>
      <trkpt lat="45.69305" lon="4.55785">
        <ele>741.6</ele>
        <time>2026-08-26T09:14:01Z</time>
      </trkpt>
      <trkpt lat="45.69314" lon="4.55782">
        <ele>741.4</ele>
        <time>2026-08-26T09:14:02Z</time>
      </trkpt>
      <trkpt lat="45.69323" lon="4.5578">
        <ele>741</ele>
        <time>2026-08-26T09:14:03Z</time>
      </trkpt>
      <trkpt lat="45.69331" lon="4.55778">
        <ele>740.8</ele>
        <time>2026-08-26T09:14:04Z</time>
      </trkpt>
      <trkpt lat="45.6934" lon="4.55777">
        <ele>740.6</ele>
        <time>2026-08-26T09:14:05Z</time>
      </trkpt>
      <trkpt lat="45.69349" lon="4.55775">
        <ele>740.2</ele>
        <time>2026-08-26T09:14:06Z</time>
      </trkpt>
      <trkpt lat="45.69358" lon="4.55774">
        <ele>739.8</ele>
        <time>2026-08-26T09:14:07Z</time>
      </trkpt>
      <trkpt lat="45.69367" lon="4.55773">
        <ele>739.6</ele>
        <time>2026-08-26T09:14:08Z</time>
      </trkpt>
      <trkpt lat="45.69376" lon="4.55772">
        <ele>739.2</ele>
        <time>2026-08-26T09:14:09Z</time>
      </trkpt>
      <trkpt lat="45.69384" lon="4.55772">
        <ele>738.8</ele>
        <time>2026-08-26T09:14:10Z</time>
      </trkpt>
      <trkpt lat="45.69393" lon="4.55771">
        <ele>738.2</ele>
        <time>2026-08-26T09:14:11Z</time>
      </trkpt>
      <trkpt lat="45.69402" lon="4.5577">
        <ele>737.8</ele>
        <time>2026-08-26T09:14:12Z</time>
      </trkpt>
      <trkpt lat="45.6941" lon="4.5577">
        <ele>737.2</ele>
        <time>2026-08-26T09:14:13Z</time>
      </trkpt>
      <trkpt lat="45.69419" lon="4.55771">
        <ele>736.8</ele>
        <time>2026-08-26T09:14:14Z</time>
      </trkpt>
      <trkpt lat="45.69427" lon="4.5577">
        <ele>736.4</ele>
        <time>2026-08-26T09:14:15Z</time>
      </trkpt>
      <trkpt lat="45.69436" lon="4.5577">
        <ele>736</ele>
        <time>2026-08-26T09:14:16Z</time>
      </trkpt>
      <trkpt lat="45.69445" lon="4.5577">
        <ele>735.8</ele>
        <time>2026-08-26T09:14:17Z</time>
      </trkpt>
      <trkpt lat="45.69453" lon="4.55771">
        <ele>735.6</ele>
        <time>2026-08-26T09:14:18Z</time>
      </trkpt>
      <trkpt lat="45.69462" lon="4.55771">
        <ele>735.4</ele>
        <time>2026-08-26T09:14:19Z</time>
      </trkpt>
      <trkpt lat="45.6947" lon="4.55772">
        <ele>735.2</ele>
        <time>2026-08-26T09:14:20Z</time>
      </trkpt>
      <trkpt lat="45.69478" lon="4.55772">
        <ele>734.8</ele>
        <time>2026-08-26T09:14:21Z</time>
      </trkpt>
      <trkpt lat="45.69486" lon="4.55772">
        <ele>734.6</ele>
        <time>2026-08-26T09:14:22Z</time>
      </trkpt>
      <trkpt lat="45.69494" lon="4.55772">
        <ele>734.4</ele>
        <time>2026-08-26T09:14:23Z</time>
      </trkpt>
      <trkpt lat="45.69502" lon="4.55768">
        <ele>734.2</ele>
        <time>2026-08-26T09:14:24Z</time>
      </trkpt>
      <trkpt lat="45.69508" lon="4.55763">
        <ele>734</ele>
        <time>2026-08-26T09:14:25Z</time>
      </trkpt>
      <trkpt lat="45.69514" lon="4.55756">
        <ele>734</ele>
        <time>2026-08-26T09:14:26Z</time>
      </trkpt>
      <trkpt lat="45.69519" lon="4.55748">
        <ele>733.8</ele>
        <time>2026-08-26T09:14:27Z</time>
      </trkpt>
      <trkpt lat="45.69523" lon="4.55739">
        <ele>733.6</ele>
        <time>2026-08-26T09:14:28Z</time>
      </trkpt>
      <trkpt lat="45.69526" lon="4.5573">
        <ele>733.6</ele>
        <time>2026-08-26T09:14:29Z</time>
      </trkpt>
      <trkpt lat="45.69528" lon="4.55721">
        <ele>733.6</ele>
        <time>2026-08-26T09:14:30Z</time>
      </trkpt>
      <trkpt lat="45.69529" lon="4.55712">
        <ele>733.6</ele>
        <time>2026-08-26T09:14:31Z</time>
      </trkpt>
      <trkpt lat="45.69529" lon="4.55703">
        <ele>733.8</ele>
        <time>2026-08-26T09:14:32Z</time>
      </trkpt>
      <trkpt lat="45.69527" lon="4.55695">
        <ele>734.2</ele>
        <time>2026-08-26T09:14:33Z</time>
      </trkpt>
      <trkpt lat="45.69524" lon="4.55687">
        <ele>734.6</ele>
        <time>2026-08-26T09:14:34Z</time>
      </trkpt>
      <trkpt lat="45.69521" lon="4.5568">
        <ele>735.2</ele>
        <time>2026-08-26T09:14:35Z</time>
      </trkpt>
      <trkpt lat="45.69517" lon="4.55674">
        <ele>735.6</ele>
        <time>2026-08-26T09:14:36Z</time>
      </trkpt>
      <trkpt lat="45.69513" lon="4.55668">
        <ele>736.2</ele>
        <time>2026-08-26T09:14:37Z</time>
      </trkpt>
      <trkpt lat="45.69509" lon="4.55663">
        <ele>736.4</ele>
        <time>2026-08-26T09:14:38Z</time>
      </trkpt>
      <trkpt lat="45.69505" lon="4.55657">
        <ele>736.8</ele>
        <time>2026-08-26T09:14:39Z</time>
      </trkpt>
      <trkpt lat="45.69501" lon="4.55651">
        <ele>737</ele>
        <time>2026-08-26T09:14:40Z</time>
      </trkpt>
      <trkpt lat="45.69497" lon="4.55646">
        <ele>737</ele>
        <time>2026-08-26T09:14:41Z</time>
      </trkpt>
      <trkpt lat="45.69493" lon="4.5564">
        <ele>737.2</ele>
        <time>2026-08-26T09:14:42Z</time>
      </trkpt>
      <trkpt lat="45.69489" lon="4.55634">
        <ele>737.4</ele>
        <time>2026-08-26T09:14:43Z</time>
      </trkpt>
      <trkpt lat="45.69484" lon="4.55628">
        <ele>737.4</ele>
        <time>2026-08-26T09:14:44Z</time>
      </trkpt>
      <trkpt lat="45.6948" lon="4.55622">
        <ele>737.4</ele>
        <time>2026-08-26T09:14:45Z</time>
      </trkpt>
      <trkpt lat="45.69476" lon="4.55617">
        <ele>737.4</ele>
        <time>2026-08-26T09:14:46Z</time>
      </trkpt>
      <trkpt lat="45.69472" lon="4.55611">
        <ele>737.4</ele>
        <time>2026-08-26T09:14:47Z</time>
      </trkpt>
      <trkpt lat="45.69468" lon="4.55605">
        <ele>737.2</ele>
        <time>2026-08-26T09:14:48Z</time>
      </trkpt>
      <trkpt lat="45.69464" lon="4.55599">
        <ele>737</ele>
        <time>2026-08-26T09:14:49Z</time>
      </trkpt>
      <trkpt lat="45.69461" lon="4.55594">
        <ele>737</ele>
        <time>2026-08-26T09:14:50Z</time>
      </trkpt>
      <trkpt lat="45.69458" lon="4.55588">
        <ele>737</ele>
        <time>2026-08-26T09:14:51Z</time>
      </trkpt>
      <trkpt lat="45.69455" lon="4.55582">
        <ele>737</ele>
        <time>2026-08-26T09:14:52Z</time>
      </trkpt>
      <trkpt lat="45.69452" lon="4.55576">
        <ele>737</ele>
        <time>2026-08-26T09:14:53Z</time>
      </trkpt>
      <trkpt lat="45.69449" lon="4.55569">
        <ele>737.2</ele>
        <time>2026-08-26T09:14:54Z</time>
      </trkpt>
      <trkpt lat="45.69447" lon="4.55563">
        <ele>737.4</ele>
        <time>2026-08-26T09:14:55Z</time>
      </trkpt>
      <trkpt lat="45.69444" lon="4.55557">
        <ele>737.6</ele>
        <time>2026-08-26T09:14:56Z</time>
      </trkpt>
      <trkpt lat="45.69442" lon="4.55551">
        <ele>737.6</ele>
        <time>2026-08-26T09:14:57Z</time>
      </trkpt>
      <trkpt lat="45.69439" lon="4.55545">
        <ele>737.8</ele>
        <time>2026-08-26T09:14:58Z</time>
      </trkpt>
      <trkpt lat="45.69437" lon="4.55539">
        <ele>737.8</ele>
        <time>2026-08-26T09:14:59Z</time>
      </trkpt>
      <trkpt lat="45.69435" lon="4.55532">
        <ele>738</ele>
        <time>2026-08-26T09:15:00Z</time>
      </trkpt>
      <trkpt lat="45.69433" lon="4.55525">
        <ele>738</ele>
        <time>2026-08-26T09:15:01Z</time>
      </trkpt>
      <trkpt lat="45.69431" lon="4.55519">
        <ele>738.2</ele>
        <time>2026-08-26T09:15:02Z</time>
      </trkpt>
      <trkpt lat="45.6943" lon="4.55512">
        <ele>738.4</ele>
        <time>2026-08-26T09:15:03Z</time>
      </trkpt>
      <trkpt lat="45.69428" lon="4.55505">
        <ele>738.4</ele>
        <time>2026-08-26T09:15:04Z</time>
      </trkpt>
      <trkpt lat="45.69426" lon="4.55499">
        <ele>738.6</ele>
        <time>2026-08-26T09:15:05Z</time>
      </trkpt>
      <trkpt lat="45.69424" lon="4.55492">
        <ele>738.6</ele>
        <time>2026-08-26T09:15:06Z</time>
      </trkpt>
      <trkpt lat="45.69423" lon="4.55484">
        <ele>738.6</ele>
        <time>2026-08-26T09:15:07Z</time>
      </trkpt>
      <trkpt lat="45.69422" lon="4.55477">
        <ele>738.6</ele>
        <time>2026-08-26T09:15:08Z</time>
      </trkpt>
      <trkpt lat="45.69421" lon="4.5547">
        <ele>738.4</ele>
        <time>2026-08-26T09:15:09Z</time>
      </trkpt>
      <trkpt lat="45.6942" lon="4.55462">
        <ele>738.4</ele>
        <time>2026-08-26T09:15:10Z</time>
      </trkpt>
      <trkpt lat="45.69419" lon="4.55455">
        <ele>738.4</ele>
        <time>2026-08-26T09:15:11Z</time>
      </trkpt>
      <trkpt lat="45.69417" lon="4.55447">
        <ele>738.2</ele>
        <time>2026-08-26T09:15:12Z</time>
      </trkpt>
      <trkpt lat="45.69416" lon="4.5544">
        <ele>738.2</ele>
        <time>2026-08-26T09:15:13Z</time>
      </trkpt>
      <trkpt lat="45.69416" lon="4.55432">
        <ele>738.2</ele>
        <time>2026-08-26T09:15:14Z</time>
      </trkpt>
      <trkpt lat="45.69415" lon="4.55425">
        <ele>738.2</ele>
        <time>2026-08-26T09:15:15Z</time>
      </trkpt>
      <trkpt lat="45.69414" lon="4.55417">
        <ele>738.2</ele>
        <time>2026-08-26T09:15:16Z</time>
      </trkpt>
      <trkpt lat="45.69412" lon="4.55409">
        <ele>738.2</ele>
        <time>2026-08-26T09:15:17Z</time>
      </trkpt>
      <trkpt lat="45.69411" lon="4.55402">
        <ele>738.2</ele>
        <time>2026-08-26T09:15:18Z</time>
      </trkpt>
      <trkpt lat="45.6941" lon="4.55394">
        <ele>738</ele>
        <time>2026-08-26T09:15:19Z</time>
      </trkpt>
      <trkpt lat="45.69409" lon="4.55386">
        <ele>738.2</ele>
        <time>2026-08-26T09:15:20Z</time>
      </trkpt>
      <trkpt lat="45.69408" lon="4.55379">
        <ele>738</ele>
        <time>2026-08-26T09:15:21Z</time>
      </trkpt>
      <trkpt lat="45.69407" lon="4.55371">
        <ele>738</ele>
        <time>2026-08-26T09:15:22Z</time>
      </trkpt>
      <trkpt lat="45.69406" lon="4.55363">
        <ele>738</ele>
        <time>2026-08-26T09:15:23Z</time>
      </trkpt>
      <trkpt lat="45.69405" lon="4.55356">
        <ele>738</ele>
        <time>2026-08-26T09:15:24Z</time>
      </trkpt>
      <trkpt lat="45.69405" lon="4.55348">
        <ele>738</ele>
        <time>2026-08-26T09:15:25Z</time>
      </trkpt>
      <trkpt lat="45.69405" lon="4.55341">
        <ele>738</ele>
        <time>2026-08-26T09:15:26Z</time>
      </trkpt>
      <trkpt lat="45.69405" lon="4.55333">
        <ele>738.2</ele>
        <time>2026-08-26T09:15:27Z</time>
      </trkpt>
      <trkpt lat="45.69406" lon="4.55326">
        <ele>738.2</ele>
        <time>2026-08-26T09:15:28Z</time>
      </trkpt>
      <trkpt lat="45.69406" lon="4.55319">
        <ele>738.4</ele>
        <time>2026-08-26T09:15:29Z</time>
      </trkpt>
      <trkpt lat="45.69407" lon="4.55312">
        <ele>738.6</ele>
        <time>2026-08-26T09:15:30Z</time>
      </trkpt>
      <trkpt lat="45.69408" lon="4.55305">
        <ele>738.8</ele>
        <time>2026-08-26T09:15:31Z</time>
      </trkpt>
      <trkpt lat="45.6941" lon="4.55299">
        <ele>739</ele>
        <time>2026-08-26T09:15:32Z</time>
      </trkpt>
      <trkpt lat="45.69411" lon="4.55292">
        <ele>739.4</ele>
        <time>2026-08-26T09:15:33Z</time>
      </trkpt>
      <trkpt lat="45.69413" lon="4.55286">
        <ele>739.6</ele>
        <time>2026-08-26T09:15:34Z</time>
      </trkpt>
      <trkpt lat="45.69414" lon="4.5528">
        <ele>739.8</ele>
        <time>2026-08-26T09:15:35Z</time>
      </trkpt>
      <trkpt lat="45.69416" lon="4.55274">
        <ele>740</ele>
        <time>2026-08-26T09:15:36Z</time>
      </trkpt>
      <trkpt lat="45.69418" lon="4.55267">
        <ele>740.2</ele>
        <time>2026-08-26T09:15:37Z</time>
      </trkpt>
      <trkpt lat="45.6942" lon="4.55261">
        <ele>740.2</ele>
        <time>2026-08-26T09:15:38Z</time>
      </trkpt>
      <trkpt lat="45.69421" lon="4.55255">
        <ele>740.4</ele>
        <time>2026-08-26T09:15:39Z</time>
      </trkpt>
      <trkpt lat="45.69423" lon="4.55249">
        <ele>740.4</ele>
        <time>2026-08-26T09:15:40Z</time>
      </trkpt>
      <trkpt lat="45.69424" lon="4.55243">
        <ele>740.6</ele>
        <time>2026-08-26T09:15:41Z</time>
      </trkpt>
      <trkpt lat="45.69425" lon="4.55238">
        <ele>740.6</ele>
        <time>2026-08-26T09:15:42Z</time>
      </trkpt>
      <trkpt lat="45.69426" lon="4.55232">
        <ele>740.8</ele>
        <time>2026-08-26T09:15:43Z</time>
      </trkpt>
      <trkpt lat="45.69426" lon="4.55226">
        <ele>740.8</ele>
        <time>2026-08-26T09:15:44Z</time>
      </trkpt>
      <trkpt lat="45.69426" lon="4.5522">
        <ele>741</ele>
        <time>2026-08-26T09:15:45Z</time>
      </trkpt>
      <trkpt lat="45.69425" lon="4.55214">
        <ele>741</ele>
        <time>2026-08-26T09:15:46Z</time>
      </trkpt>
      <trkpt lat="45.69424" lon="4.55208">
        <ele>741</ele>
        <time>2026-08-26T09:15:47Z</time>
      </trkpt>
      <trkpt lat="45.69422" lon="4.55202">
        <ele>740.8</ele>
        <time>2026-08-26T09:15:48Z</time>
      </trkpt>
      <trkpt lat="45.69419" lon="4.55197">
        <ele>741</ele>
        <time>2026-08-26T09:15:49Z</time>
      </trkpt>
      <trkpt lat="45.69417" lon="4.55192">
        <ele>741</ele>
        <time>2026-08-26T09:15:50Z</time>
      </trkpt>
      <trkpt lat="45.69414" lon="4.55189">
        <ele>741.2</ele>
        <time>2026-08-26T09:15:51Z</time>
      </trkpt>
      <trkpt lat="45.6941" lon="4.55186">
        <ele>741.4</ele>
        <time>2026-08-26T09:15:52Z</time>
      </trkpt>
      <trkpt lat="45.69407" lon="4.55184">
        <ele>741.8</ele>
        <time>2026-08-26T09:15:53Z</time>
      </trkpt>
      <trkpt lat="45.69403" lon="4.55182">
        <ele>741.8</ele>
        <time>2026-08-26T09:15:54Z</time>
      </trkpt>
      <trkpt lat="45.694" lon="4.55181">
        <ele>742</ele>
        <time>2026-08-26T09:15:55Z</time>
      </trkpt>
      <trkpt lat="45.69396" lon="4.55179">
        <ele>742</ele>
        <time>2026-08-26T09:15:56Z</time>
      </trkpt>
      <trkpt lat="45.69392" lon="4.55179">
        <ele>742</ele>
        <time>2026-08-26T09:15:57Z</time>
      </trkpt>
      <trkpt lat="45.69389" lon="4.55179">
        <ele>742</ele>
        <time>2026-08-26T09:15:58Z</time>
      </trkpt>
      <trkpt lat="45.69385" lon="4.5518">
        <ele>742</ele>
        <time>2026-08-26T09:15:59Z</time>
      </trkpt>
      <trkpt lat="45.69381" lon="4.55181">
        <ele>742</ele>
        <time>2026-08-26T09:16:00Z</time>
      </trkpt>
      <trkpt lat="45.69377" lon="4.55182">
        <ele>742</ele>
        <time>2026-08-26T09:16:01Z</time>
      </trkpt>
      <trkpt lat="45.69374" lon="4.55184">
        <ele>742.2</ele>
        <time>2026-08-26T09:16:02Z</time>
      </trkpt>
      <trkpt lat="45.6937" lon="4.55185">
        <ele>742.4</ele>
        <time>2026-08-26T09:16:03Z</time>
      </trkpt>
      <trkpt lat="45.69367" lon="4.55187">
        <ele>742.4</ele>
        <time>2026-08-26T09:16:04Z</time>
      </trkpt>
      <trkpt lat="45.69363" lon="4.55189">
        <ele>742.6</ele>
        <time>2026-08-26T09:16:05Z</time>
      </trkpt>
      <trkpt lat="45.6936" lon="4.55189">
        <ele>742.6</ele>
        <time>2026-08-26T09:16:06Z</time>
      </trkpt>
      <trkpt lat="45.69356" lon="4.5519">
        <ele>742.6</ele>
        <time>2026-08-26T09:16:07Z</time>
      </trkpt>
      <trkpt lat="45.69353" lon="4.5519">
        <ele>742.6</ele>
        <time>2026-08-26T09:16:08Z</time>
      </trkpt>
      <trkpt lat="45.69349" lon="4.55191">
        <ele>742.8</ele>
        <time>2026-08-26T09:16:09Z</time>
      </trkpt>
      <trkpt lat="45.69345" lon="4.55191">
        <ele>742.8</ele>
        <time>2026-08-26T09:16:10Z</time>
      </trkpt>
      <trkpt lat="45.69341" lon="4.55192">
        <ele>743</ele>
        <time>2026-08-26T09:16:11Z</time>
      </trkpt>
      <trkpt lat="45.69337" lon="4.55191">
        <ele>743.2</ele>
        <time>2026-08-26T09:16:12Z</time>
      </trkpt>
      <trkpt lat="45.69333" lon="4.55191">
        <ele>743.2</ele>
        <time>2026-08-26T09:16:13Z</time>
      </trkpt>
      <trkpt lat="45.69329" lon="4.5519">
        <ele>743.4</ele>
        <time>2026-08-26T09:16:14Z</time>
      </trkpt>
      <trkpt lat="45.69325" lon="4.55189">
        <ele>743.4</ele>
        <time>2026-08-26T09:16:15Z</time>
      </trkpt>
      <trkpt lat="45.69322" lon="4.55187">
        <ele>743.6</ele>
        <time>2026-08-26T09:16:16Z</time>
      </trkpt>
      <trkpt lat="45.69318" lon="4.55185">
        <ele>743.8</ele>
        <time>2026-08-26T09:16:17Z</time>
      </trkpt>
      <trkpt lat="45.69315" lon="4.55183">
        <ele>743.8</ele>
        <time>2026-08-26T09:16:18Z</time>
      </trkpt>
      <trkpt lat="45.69312" lon="4.5518">
        <ele>743.8</ele>
        <time>2026-08-26T09:16:19Z</time>
      </trkpt>
      <trkpt lat="45.69308" lon="4.55178">
        <ele>744</ele>
        <time>2026-08-26T09:16:20Z</time>
      </trkpt>
      <trkpt lat="45.69305" lon="4.55175">
        <ele>744</ele>
        <time>2026-08-26T09:16:21Z</time>
      </trkpt>
      <trkpt lat="45.69303" lon="4.55172">
        <ele>744.2</ele>
        <time>2026-08-26T09:16:22Z</time>
      </trkpt>
      <trkpt lat="45.693" lon="4.55169">
        <ele>744.2</ele>
        <time>2026-08-26T09:16:23Z</time>
      </trkpt>
      <trkpt lat="45.69297" lon="4.55167">
        <ele>744.4</ele>
        <time>2026-08-26T09:16:24Z</time>
      </trkpt>
      <trkpt lat="45.69294" lon="4.55164">
        <ele>744.6</ele>
        <time>2026-08-26T09:16:25Z</time>
      </trkpt>
      <trkpt lat="45.69291" lon="4.55162">
        <ele>744.6</ele>
        <time>2026-08-26T09:16:26Z</time>
      </trkpt>
      <trkpt lat="45.69288" lon="4.55159">
        <ele>744.8</ele>
        <time>2026-08-26T09:16:27Z</time>
      </trkpt>
      <trkpt lat="45.69285" lon="4.55156">
        <ele>744.8</ele>
        <time>2026-08-26T09:16:28Z</time>
      </trkpt>
      <trkpt lat="45.69283" lon="4.55153">
        <ele>745</ele>
        <time>2026-08-26T09:16:29Z</time>
      </trkpt>
      <trkpt lat="45.6928" lon="4.55151">
        <ele>745.2</ele>
        <time>2026-08-26T09:16:30Z</time>
      </trkpt>
      <trkpt lat="45.69277" lon="4.55148">
        <ele>745.2</ele>
        <time>2026-08-26T09:16:31Z</time>
      </trkpt>
      <trkpt lat="45.69274" lon="4.55146">
        <ele>745.4</ele>
        <time>2026-08-26T09:16:32Z</time>
      </trkpt>
      <trkpt lat="45.69271" lon="4.55144">
        <ele>745.6</ele>
        <time>2026-08-26T09:16:33Z</time>
      </trkpt>
      <trkpt lat="45.69268" lon="4.55141">
        <ele>745.8</ele>
        <time>2026-08-26T09:16:34Z</time>
      </trkpt>
      <trkpt lat="45.69266" lon="4.55138">
        <ele>745.8</ele>
        <time>2026-08-26T09:16:35Z</time>
      </trkpt>
      <trkpt lat="45.69263" lon="4.55136">
        <ele>746</ele>
        <time>2026-08-26T09:16:36Z</time>
      </trkpt>
      <trkpt lat="45.6926" lon="4.55133">
        <ele>746.2</ele>
        <time>2026-08-26T09:16:37Z</time>
      </trkpt>
      <trkpt lat="45.69258" lon="4.55131">
        <ele>746.2</ele>
        <time>2026-08-26T09:16:38Z</time>
      </trkpt>
      <trkpt lat="45.69255" lon="4.55128">
        <ele>746.4</ele>
        <time>2026-08-26T09:16:39Z</time>
      </trkpt>
      <trkpt lat="45.69252" lon="4.55126">
        <ele>746.6</ele>
        <time>2026-08-26T09:16:40Z</time>
      </trkpt>
      <trkpt lat="45.69249" lon="4.55123">
        <ele>747</ele>
        <time>2026-08-26T09:16:41Z</time>
      </trkpt>
      <trkpt lat="45.69246" lon="4.55121">
        <ele>747.2</ele>
        <time>2026-08-26T09:16:42Z</time>
      </trkpt>
      <trkpt lat="45.69244" lon="4.55119">
        <ele>747.4</ele>
        <time>2026-08-26T09:16:43Z</time>
      </trkpt>
      <trkpt lat="45.69241" lon="4.55117">
        <ele>747.6</ele>
        <time>2026-08-26T09:16:44Z</time>
      </trkpt>
      <trkpt lat="45.69238" lon="4.55114">
        <ele>747.8</ele>
        <time>2026-08-26T09:16:45Z</time>
      </trkpt>
      <trkpt lat="45.69235" lon="4.55111">
        <ele>747.8</ele>
        <time>2026-08-26T09:16:46Z</time>
      </trkpt>
      <trkpt lat="45.69233" lon="4.55108">
        <ele>748</ele>
        <time>2026-08-26T09:16:47Z</time>
      </trkpt>
      <trkpt lat="45.6923" lon="4.55105">
        <ele>748.2</ele>
        <time>2026-08-26T09:16:48Z</time>
      </trkpt>
      <trkpt lat="45.69228" lon="4.55103">
        <ele>748.2</ele>
        <time>2026-08-26T09:16:49Z</time>
      </trkpt>
      <trkpt lat="45.69225" lon="4.551">
        <ele>748.4</ele>
        <time>2026-08-26T09:16:50Z</time>
      </trkpt>
      <trkpt lat="45.69223" lon="4.55097">
        <ele>748.4</ele>
        <time>2026-08-26T09:16:51Z</time>
      </trkpt>
      <trkpt lat="45.6922" lon="4.55094">
        <ele>748.6</ele>
        <time>2026-08-26T09:16:52Z</time>
      </trkpt>
      <trkpt lat="45.69218" lon="4.55091">
        <ele>748.8</ele>
        <time>2026-08-26T09:16:53Z</time>
      </trkpt>
      <trkpt lat="45.69215" lon="4.55087">
        <ele>748.8</ele>
        <time>2026-08-26T09:16:54Z</time>
      </trkpt>
      <trkpt lat="45.69213" lon="4.55084">
        <ele>749</ele>
        <time>2026-08-26T09:16:55Z</time>
      </trkpt>
      <trkpt lat="45.69211" lon="4.55079">
        <ele>749.2</ele>
        <time>2026-08-26T09:16:56Z</time>
      </trkpt>
      <trkpt lat="45.69209" lon="4.55075">
        <ele>749.4</ele>
        <time>2026-08-26T09:16:57Z</time>
      </trkpt>
      <trkpt lat="45.69207" lon="4.55071">
        <ele>749.4</ele>
        <time>2026-08-26T09:16:58Z</time>
      </trkpt>
      <trkpt lat="45.69205" lon="4.55067">
        <ele>749.4</ele>
        <time>2026-08-26T09:16:59Z</time>
      </trkpt>
      <trkpt lat="45.69203" lon="4.55063">
        <ele>749.6</ele>
        <time>2026-08-26T09:17:00Z</time>
      </trkpt>
      <trkpt lat="45.69201" lon="4.55059">
        <ele>749.6</ele>
        <time>2026-08-26T09:17:01Z</time>
      </trkpt>
      <trkpt lat="45.69199" lon="4.55055">
        <ele>749.6</ele>
        <time>2026-08-26T09:17:02Z</time>
      </trkpt>
      <trkpt lat="45.69197" lon="4.55051">
        <ele>749.8</ele>
        <time>2026-08-26T09:17:03Z</time>
      </trkpt>
      <trkpt lat="45.69195" lon="4.55048">
        <ele>749.8</ele>
        <time>2026-08-26T09:17:04Z</time>
      </trkpt>
      <trkpt lat="45.69194" lon="4.55045">
        <ele>750</ele>
        <time>2026-08-26T09:17:05Z</time>
      </trkpt>
      <trkpt lat="45.69192" lon="4.55041">
        <ele>750.2</ele>
        <time>2026-08-26T09:17:06Z</time>
      </trkpt>
      <trkpt lat="45.6919" lon="4.55037">
        <ele>750.2</ele>
        <time>2026-08-26T09:17:07Z</time>
      </trkpt>
      <trkpt lat="45.69187" lon="4.55033">
        <ele>750.2</ele>
        <time>2026-08-26T09:17:08Z</time>
      </trkpt>
      <trkpt lat="45.69185" lon="4.55029">
        <ele>750.4</ele>
        <time>2026-08-26T09:17:09Z</time>
      </trkpt>
      <trkpt lat="45.69183" lon="4.55025">
        <ele>750.4</ele>
        <time>2026-08-26T09:17:10Z</time>
      </trkpt>
      <trkpt lat="45.69181" lon="4.55022">
        <ele>750.6</ele>
        <time>2026-08-26T09:17:11Z</time>
      </trkpt>
      <trkpt lat="45.69179" lon="4.55018">
        <ele>750.8</ele>
        <time>2026-08-26T09:17:12Z</time>
      </trkpt>
      <trkpt lat="45.69176" lon="4.55014">
        <ele>751</ele>
        <time>2026-08-26T09:17:13Z</time>
      </trkpt>
      <trkpt lat="45.69174" lon="4.5501">
        <ele>751</ele>
        <time>2026-08-26T09:17:14Z</time>
      </trkpt>
      <trkpt lat="45.69172" lon="4.55006">
        <ele>751.2</ele>
        <time>2026-08-26T09:17:15Z</time>
      </trkpt>
      <trkpt lat="45.6917" lon="4.55002">
        <ele>751.4</ele>
        <time>2026-08-26T09:17:16Z</time>
      </trkpt>
      <trkpt lat="45.69168" lon="4.54999">
        <ele>751.4</ele>
        <time>2026-08-26T09:17:17Z</time>
      </trkpt>
      <trkpt lat="45.69167" lon="4.54995">
        <ele>751.6</ele>
        <time>2026-08-26T09:17:18Z</time>
      </trkpt>
      <trkpt lat="45.69164" lon="4.54992">
        <ele>751.6</ele>
        <time>2026-08-26T09:17:19Z</time>
      </trkpt>
      <trkpt lat="45.69162" lon="4.54989">
        <ele>751.8</ele>
        <time>2026-08-26T09:17:20Z</time>
      </trkpt>
      <trkpt lat="45.69159" lon="4.54987">
        <ele>752</ele>
        <time>2026-08-26T09:17:21Z</time>
      </trkpt>
      <trkpt lat="45.69156" lon="4.54984">
        <ele>752</ele>
        <time>2026-08-26T09:17:22Z</time>
      </trkpt>
      <trkpt lat="45.69153" lon="4.54983">
        <ele>752.2</ele>
        <time>2026-08-26T09:17:23Z</time>
      </trkpt>
      <trkpt lat="45.6915" lon="4.54981">
        <ele>752.2</ele>
        <time>2026-08-26T09:17:24Z</time>
      </trkpt>
      <trkpt lat="45.69147" lon="4.54978">
        <ele>752.4</ele>
        <time>2026-08-26T09:17:25Z</time>
      </trkpt>
      <trkpt lat="45.69144" lon="4.54976">
        <ele>752.4</ele>
        <time>2026-08-26T09:17:26Z</time>
      </trkpt>
      <trkpt lat="45.69141" lon="4.54974">
        <ele>752.6</ele>
        <time>2026-08-26T09:17:27Z</time>
      </trkpt>
      <trkpt lat="45.69138" lon="4.54973">
        <ele>752.8</ele>
        <time>2026-08-26T09:17:28Z</time>
      </trkpt>
      <trkpt lat="45.69135" lon="4.5497">
        <ele>753</ele>
        <time>2026-08-26T09:17:29Z</time>
      </trkpt>
      <trkpt lat="45.69132" lon="4.54968">
        <ele>753.2</ele>
        <time>2026-08-26T09:17:30Z</time>
      </trkpt>
      <trkpt lat="45.6913" lon="4.54965">
        <ele>753.4</ele>
        <time>2026-08-26T09:17:31Z</time>
      </trkpt>
      <trkpt lat="45.69127" lon="4.54962">
        <ele>753.6</ele>
        <time>2026-08-26T09:17:32Z</time>
      </trkpt>
      <trkpt lat="45.69125" lon="4.54959">
        <ele>754</ele>
        <time>2026-08-26T09:17:33Z</time>
      </trkpt>
      <trkpt lat="45.69123" lon="4.54956">
        <ele>754.2</ele>
        <time>2026-08-26T09:17:34Z</time>
      </trkpt>
      <trkpt lat="45.69121" lon="4.54952">
        <ele>754.4</ele>
        <time>2026-08-26T09:17:35Z</time>
      </trkpt>
      <trkpt lat="45.69119" lon="4.54948">
        <ele>754.4</ele>
        <time>2026-08-26T09:17:36Z</time>
      </trkpt>
      <trkpt lat="45.69117" lon="4.54944">
        <ele>754.6</ele>
        <time>2026-08-26T09:17:37Z</time>
      </trkpt>
      <trkpt lat="45.69115" lon="4.54939">
        <ele>754.6</ele>
        <time>2026-08-26T09:17:38Z</time>
      </trkpt>
      <trkpt lat="45.69114" lon="4.54935">
        <ele>754.6</ele>
        <time>2026-08-26T09:17:39Z</time>
      </trkpt>
      <trkpt lat="45.69113" lon="4.5493">
        <ele>754.8</ele>
        <time>2026-08-26T09:17:40Z</time>
      </trkpt>
      <trkpt lat="45.69112" lon="4.54926">
        <ele>754.8</ele>
        <time>2026-08-26T09:17:41Z</time>
      </trkpt>
      <trkpt lat="45.69111" lon="4.54922">
        <ele>755</ele>
        <time>2026-08-26T09:17:42Z</time>
      </trkpt>
      <trkpt lat="45.69109" lon="4.54917">
        <ele>755</ele>
        <time>2026-08-26T09:17:43Z</time>
      </trkpt>
      <trkpt lat="45.69108" lon="4.54913">
        <ele>755.2</ele>
        <time>2026-08-26T09:17:44Z</time>
      </trkpt>
      <trkpt lat="45.69107" lon="4.54908">
        <ele>755.4</ele>
        <time>2026-08-26T09:17:45Z</time>
      </trkpt>
      <trkpt lat="45.69106" lon="4.54904">
        <ele>755.4</ele>
        <time>2026-08-26T09:17:46Z</time>
      </trkpt>
      <trkpt lat="45.69105" lon="4.549">
        <ele>755.6</ele>
        <time>2026-08-26T09:17:47Z</time>
      </trkpt>
      <trkpt lat="45.69104" lon="4.54895">
        <ele>755.6</ele>
        <time>2026-08-26T09:17:48Z</time>
      </trkpt>
      <trkpt lat="45.69103" lon="4.54891">
        <ele>755.8</ele>
        <time>2026-08-26T09:17:49Z</time>
      </trkpt>
      <trkpt lat="45.69102" lon="4.54886">
        <ele>755.8</ele>
        <time>2026-08-26T09:17:50Z</time>
      </trkpt>
      <trkpt lat="45.69102" lon="4.54881">
        <ele>756</ele>
        <time>2026-08-26T09:17:51Z</time>
      </trkpt>
      <trkpt lat="45.69101" lon="4.54876">
        <ele>756</ele>
        <time>2026-08-26T09:17:52Z</time>
      </trkpt>
      <trkpt lat="45.691" lon="4.54872">
        <ele>756.2</ele>
        <time>2026-08-26T09:17:53Z</time>
      </trkpt>
      <trkpt lat="45.691" lon="4.54867">
        <ele>756.4</ele>
        <time>2026-08-26T09:17:54Z</time>
      </trkpt>
      <trkpt lat="45.69099" lon="4.54862">
        <ele>756.6</ele>
        <time>2026-08-26T09:17:55Z</time>
      </trkpt>
      <trkpt lat="45.69098" lon="4.54857">
        <ele>756.6</ele>
        <time>2026-08-26T09:17:56Z</time>
      </trkpt>
      <trkpt lat="45.69097" lon="4.54852">
        <ele>756.8</ele>
        <time>2026-08-26T09:17:57Z</time>
      </trkpt>
      <trkpt lat="45.69097" lon="4.54848">
        <ele>756.8</ele>
        <time>2026-08-26T09:17:58Z</time>
      </trkpt>
      <trkpt lat="45.69096" lon="4.54843">
        <ele>757</ele>
        <time>2026-08-26T09:17:59Z</time>
      </trkpt>
      <trkpt lat="45.69096" lon="4.54839">
        <ele>757.2</ele>
        <time>2026-08-26T09:18:00Z</time>
      </trkpt>
      <trkpt lat="45.69096" lon="4.54834">
        <ele>757.4</ele>
        <time>2026-08-26T09:18:01Z</time>
      </trkpt>
      <trkpt lat="45.69095" lon="4.54829">
        <ele>757.4</ele>
        <time>2026-08-26T09:18:02Z</time>
      </trkpt>
      <trkpt lat="45.69095" lon="4.54825">
        <ele>757.6</ele>
        <time>2026-08-26T09:18:03Z</time>
      </trkpt>
      <trkpt lat="45.69094" lon="4.5482">
        <ele>757.6</ele>
        <time>2026-08-26T09:18:04Z</time>
      </trkpt>
      <trkpt lat="45.69094" lon="4.54815">
        <ele>757.8</ele>
        <time>2026-08-26T09:18:05Z</time>
      </trkpt>
      <trkpt lat="45.69094" lon="4.54811">
        <ele>758</ele>
        <time>2026-08-26T09:18:06Z</time>
      </trkpt>
      <trkpt lat="45.69094" lon="4.54806">
        <ele>758.2</ele>
        <time>2026-08-26T09:18:07Z</time>
      </trkpt>
      <trkpt lat="45.69093" lon="4.54801">
        <ele>758.4</ele>
        <time>2026-08-26T09:18:08Z</time>
      </trkpt>
      <trkpt lat="45.69093" lon="4.54796">
        <ele>758.4</ele>
        <time>2026-08-26T09:18:09Z</time>
      </trkpt>
      <trkpt lat="45.69092" lon="4.54791">
        <ele>758.6</ele>
        <time>2026-08-26T09:18:10Z</time>
      </trkpt>
      <trkpt lat="45.69092" lon="4.54786">
        <ele>758.8</ele>
        <time>2026-08-26T09:18:11Z</time>
      </trkpt>
      <trkpt lat="45.69092" lon="4.54781">
        <ele>758.8</ele>
        <time>2026-08-26T09:18:12Z</time>
      </trkpt>
      <trkpt lat="45.69092" lon="4.54777">
        <ele>759</ele>
        <time>2026-08-26T09:18:13Z</time>
      </trkpt>
      <trkpt lat="45.69092" lon="4.54772">
        <ele>759.2</ele>
        <time>2026-08-26T09:18:14Z</time>
      </trkpt>
      <trkpt lat="45.69092" lon="4.54767">
        <ele>759.2</ele>
        <time>2026-08-26T09:18:15Z</time>
      </trkpt>
      <trkpt lat="45.69091" lon="4.54762">
        <ele>759.2</ele>
        <time>2026-08-26T09:18:16Z</time>
      </trkpt>
      <trkpt lat="45.69091" lon="4.54757">
        <ele>759.4</ele>
        <time>2026-08-26T09:18:17Z</time>
      </trkpt>
      <trkpt lat="45.6909" lon="4.54753">
        <ele>759.4</ele>
        <time>2026-08-26T09:18:18Z</time>
      </trkpt>
      <trkpt lat="45.6909" lon="4.54748">
        <ele>759.4</ele>
        <time>2026-08-26T09:18:19Z</time>
      </trkpt>
      <trkpt lat="45.6909" lon="4.54743">
        <ele>759.6</ele>
        <time>2026-08-26T09:18:20Z</time>
      </trkpt>
      <trkpt lat="45.6909" lon="4.54738">
        <ele>759.8</ele>
        <time>2026-08-26T09:18:21Z</time>
      </trkpt>
      <trkpt lat="45.6909" lon="4.54734">
        <ele>760</ele>
        <time>2026-08-26T09:18:22Z</time>
      </trkpt>
      <trkpt lat="45.6909" lon="4.54729">
        <ele>760</ele>
        <time>2026-08-26T09:18:23Z</time>
      </trkpt>
      <trkpt lat="45.6909" lon="4.54724">
        <ele>760</ele>
        <time>2026-08-26T09:18:24Z</time>
      </trkpt>
      <trkpt lat="45.6909" lon="4.54719">
        <ele>760.2</ele>
        <time>2026-08-26T09:18:25Z</time>
      </trkpt>
      <trkpt lat="45.69089" lon="4.54714">
        <ele>760.4</ele>
        <time>2026-08-26T09:18:26Z</time>
      </trkpt>
      <trkpt lat="45.69089" lon="4.5471">
        <ele>760.4</ele>
        <time>2026-08-26T09:18:27Z</time>
      </trkpt>
      <trkpt lat="45.69088" lon="4.54705">
        <ele>760.6</ele>
        <time>2026-08-26T09:18:28Z</time>
      </trkpt>
      <trkpt lat="45.69088" lon="4.54701">
        <ele>760.6</ele>
        <time>2026-08-26T09:18:29Z</time>
      </trkpt>
      <trkpt lat="45.69087" lon="4.54696">
        <ele>760.6</ele>
        <time>2026-08-26T09:18:30Z</time>
      </trkpt>
      <trkpt lat="45.69087" lon="4.54691">
        <ele>760.8</ele>
        <time>2026-08-26T09:18:31Z</time>
      </trkpt>
      <trkpt lat="45.69086" lon="4.54687">
        <ele>760.8</ele>
        <time>2026-08-26T09:18:32Z</time>
      </trkpt>
      <trkpt lat="45.69086" lon="4.54682">
        <ele>760.8</ele>
        <time>2026-08-26T09:18:33Z</time>
      </trkpt>
      <trkpt lat="45.69085" lon="4.54678">
        <ele>761</ele>
        <time>2026-08-26T09:18:34Z</time>
      </trkpt>
      <trkpt lat="45.69085" lon="4.54673">
        <ele>761.2</ele>
        <time>2026-08-26T09:18:35Z</time>
      </trkpt>
      <trkpt lat="45.69084" lon="4.54669">
        <ele>761.4</ele>
        <time>2026-08-26T09:18:36Z</time>
      </trkpt>
      <trkpt lat="45.69084" lon="4.54664">
        <ele>761.6</ele>
        <time>2026-08-26T09:18:37Z</time>
      </trkpt>
      <trkpt lat="45.69083" lon="4.5466">
        <ele>761.6</ele>
        <time>2026-08-26T09:18:38Z</time>
      </trkpt>
      <trkpt lat="45.69083" lon="4.54655">
        <ele>761.8</ele>
        <time>2026-08-26T09:18:39Z</time>
      </trkpt>
      <trkpt lat="45.69082" lon="4.5465">
        <ele>762</ele>
        <time>2026-08-26T09:18:40Z</time>
      </trkpt>
      <trkpt lat="45.69082" lon="4.54645">
        <ele>762.2</ele>
        <time>2026-08-26T09:18:41Z</time>
      </trkpt>
      <trkpt lat="45.69082" lon="4.54641">
        <ele>762.4</ele>
        <time>2026-08-26T09:18:42Z</time>
      </trkpt>
      <trkpt lat="45.69081" lon="4.54636">
        <ele>762.4</ele>
        <time>2026-08-26T09:18:43Z</time>
      </trkpt>
      <trkpt lat="45.69081" lon="4.54631">
        <ele>762.6</ele>
        <time>2026-08-26T09:18:44Z</time>
      </trkpt>
      <trkpt lat="45.6908" lon="4.54627">
        <ele>762.6</ele>
        <time>2026-08-26T09:18:45Z</time>
      </trkpt>
      <trkpt lat="45.6908" lon="4.54622">
        <ele>762.6</ele>
        <time>2026-08-26T09:18:46Z</time>
      </trkpt>
      <trkpt lat="45.69079" lon="4.54617">
        <ele>762.6</ele>
        <time>2026-08-26T09:18:47Z</time>
      </trkpt>
      <trkpt lat="45.69079" lon="4.54612">
        <ele>762.6</ele>
        <time>2026-08-26T09:18:48Z</time>
      </trkpt>
      <trkpt lat="45.69078" lon="4.54608">
        <ele>762.4</ele>
        <time>2026-08-26T09:18:49Z</time>
      </trkpt>
      <trkpt lat="45.69078" lon="4.54603">
        <ele>762.6</ele>
        <time>2026-08-26T09:18:50Z</time>
      </trkpt>
      <trkpt lat="45.69077" lon="4.54598">
        <ele>762.6</ele>
        <time>2026-08-26T09:18:51Z</time>
      </trkpt>
      <trkpt lat="45.69076" lon="4.54593">
        <ele>762.8</ele>
        <time>2026-08-26T09:18:52Z</time>
      </trkpt>
      <trkpt lat="45.69075" lon="4.54589">
        <ele>763</ele>
        <time>2026-08-26T09:18:53Z</time>
      </trkpt>
      <trkpt lat="45.69074" lon="4.54584">
        <ele>763</ele>
        <time>2026-08-26T09:18:54Z</time>
      </trkpt>
      <trkpt lat="45.69073" lon="4.5458">
        <ele>763</ele>
        <time>2026-08-26T09:18:55Z</time>
      </trkpt>
      <trkpt lat="45.69072" lon="4.54575">
        <ele>763.2</ele>
        <time>2026-08-26T09:18:56Z</time>
      </trkpt>
      <trkpt lat="45.69071" lon="4.54571">
        <ele>763.4</ele>
        <time>2026-08-26T09:18:57Z</time>
      </trkpt>
      <trkpt lat="45.6907" lon="4.54566">
        <ele>763.6</ele>
        <time>2026-08-26T09:18:58Z</time>
      </trkpt>
      <trkpt lat="45.69069" lon="4.54562">
        <ele>763.8</ele>
        <time>2026-08-26T09:18:59Z</time>
      </trkpt>
      <trkpt lat="45.69068" lon="4.54557">
        <ele>764</ele>
        <time>2026-08-26T09:19:00Z</time>
      </trkpt>
      <trkpt lat="45.69067" lon="4.54553">
        <ele>764.2</ele>
        <time>2026-08-26T09:19:01Z</time>
      </trkpt>
      <trkpt lat="45.69066" lon="4.54548">
        <ele>764.2</ele>
        <time>2026-08-26T09:19:02Z</time>
      </trkpt>
      <trkpt lat="45.69065" lon="4.54544">
        <ele>764.4</ele>
        <time>2026-08-26T09:19:03Z</time>
      </trkpt>
      <trkpt lat="45.69064" lon="4.54539">
        <ele>764.4</ele>
        <time>2026-08-26T09:19:04Z</time>
      </trkpt>
      <trkpt lat="45.69063" lon="4.54535">
        <ele>764.4</ele>
        <time>2026-08-26T09:19:05Z</time>
      </trkpt>
      <trkpt lat="45.69061" lon="4.5453">
        <ele>764.4</ele>
        <time>2026-08-26T09:19:06Z</time>
      </trkpt>
      <trkpt lat="45.6906" lon="4.54526">
        <ele>764.6</ele>
        <time>2026-08-26T09:19:07Z</time>
      </trkpt>
      <trkpt lat="45.69058" lon="4.54522">
        <ele>764.6</ele>
        <time>2026-08-26T09:19:08Z</time>
      </trkpt>
      <trkpt lat="45.69057" lon="4.54517">
        <ele>764.8</ele>
        <time>2026-08-26T09:19:09Z</time>
      </trkpt>
      <trkpt lat="45.69056" lon="4.54513">
        <ele>764.8</ele>
        <time>2026-08-26T09:19:10Z</time>
      </trkpt>
      <trkpt lat="45.69054" lon="4.5451">
        <ele>765</ele>
        <time>2026-08-26T09:19:11Z</time>
      </trkpt>
      <trkpt lat="45.69053" lon="4.54506">
        <ele>765.2</ele>
        <time>2026-08-26T09:19:12Z</time>
      </trkpt>
      <trkpt lat="45.69052" lon="4.54501">
        <ele>765.4</ele>
        <time>2026-08-26T09:19:13Z</time>
      </trkpt>
      <trkpt lat="45.69051" lon="4.54497">
        <ele>765.6</ele>
        <time>2026-08-26T09:19:14Z</time>
      </trkpt>
      <trkpt lat="45.6905" lon="4.54493">
        <ele>765.8</ele>
        <time>2026-08-26T09:19:15Z</time>
      </trkpt>
      <trkpt lat="45.69049" lon="4.54488">
        <ele>765.8</ele>
        <time>2026-08-26T09:19:16Z</time>
      </trkpt>
      <trkpt lat="45.69047" lon="4.54484">
        <ele>766</ele>
        <time>2026-08-26T09:19:17Z</time>
      </trkpt>
      <trkpt lat="45.69045" lon="4.5448">
        <ele>766.2</ele>
        <time>2026-08-26T09:19:18Z</time>
      </trkpt>
      <trkpt lat="45.69044" lon="4.54477">
        <ele>766.2</ele>
        <time>2026-08-26T09:19:19Z</time>
      </trkpt>
      <trkpt lat="45.69043" lon="4.54473">
        <ele>766.4</ele>
        <time>2026-08-26T09:19:20Z</time>
      </trkpt>
      <trkpt lat="45.69042" lon="4.54469">
        <ele>766.6</ele>
        <time>2026-08-26T09:19:21Z</time>
      </trkpt>
      <trkpt lat="45.69041" lon="4.54464">
        <ele>766.8</ele>
        <time>2026-08-26T09:19:22Z</time>
      </trkpt>
      <trkpt lat="45.69039" lon="4.54461">
        <ele>767</ele>
        <time>2026-08-26T09:19:23Z</time>
      </trkpt>
      <trkpt lat="45.69037" lon="4.54457">
        <ele>767</ele>
        <time>2026-08-26T09:19:24Z</time>
      </trkpt>
      <trkpt lat="45.69036" lon="4.54454">
        <ele>767.2</ele>
        <time>2026-08-26T09:19:25Z</time>
      </trkpt>
      <trkpt lat="45.69035" lon="4.5445">
        <ele>767.2</ele>
        <time>2026-08-26T09:19:26Z</time>
      </trkpt>
      <trkpt lat="45.69034" lon="4.54445">
        <ele>767.4</ele>
        <time>2026-08-26T09:19:27Z</time>
      </trkpt>
      <trkpt lat="45.69033" lon="4.54441">
        <ele>767.4</ele>
        <time>2026-08-26T09:19:28Z</time>
      </trkpt>
      <trkpt lat="45.69033" lon="4.54436">
        <ele>767.6</ele>
        <time>2026-08-26T09:19:29Z</time>
      </trkpt>
      <trkpt lat="45.69032" lon="4.54431">
        <ele>767.8</ele>
        <time>2026-08-26T09:19:30Z</time>
      </trkpt>
      <trkpt lat="45.69032" lon="4.54427">
        <ele>768</ele>
        <time>2026-08-26T09:19:31Z</time>
      </trkpt>
      <trkpt lat="45.69032" lon="4.54422">
        <ele>768.2</ele>
        <time>2026-08-26T09:19:32Z</time>
      </trkpt>
      <trkpt lat="45.69032" lon="4.54417">
        <ele>768.4</ele>
        <time>2026-08-26T09:19:33Z</time>
      </trkpt>
      <trkpt lat="45.69032" lon="4.54412">
        <ele>768.4</ele>
        <time>2026-08-26T09:19:34Z</time>
      </trkpt>
      <trkpt lat="45.69033" lon="4.54407">
        <ele>768.4</ele>
        <time>2026-08-26T09:19:35Z</time>
      </trkpt>
      <trkpt lat="45.69033" lon="4.54402">
        <ele>768.6</ele>
        <time>2026-08-26T09:19:36Z</time>
      </trkpt>
      <trkpt lat="45.69033" lon="4.54397">
        <ele>768.6</ele>
        <time>2026-08-26T09:19:37Z</time>
      </trkpt>
      <trkpt lat="45.69033" lon="4.54392">
        <ele>768.6</ele>
        <time>2026-08-26T09:19:38Z</time>
      </trkpt>
      <trkpt lat="45.69034" lon="4.54387">
        <ele>768.8</ele>
        <time>2026-08-26T09:19:39Z</time>
      </trkpt>
      <trkpt lat="45.69034" lon="4.54382">
        <ele>768.8</ele>
        <time>2026-08-26T09:19:40Z</time>
      </trkpt>
      <trkpt lat="45.69034" lon="4.54377">
        <ele>769</ele>
        <time>2026-08-26T09:19:41Z</time>
      </trkpt>
      <trkpt lat="45.69034" lon="4.54371">
        <ele>769</ele>
        <time>2026-08-26T09:19:42Z</time>
      </trkpt>
      <trkpt lat="45.69033" lon="4.54367">
        <ele>769.2</ele>
        <time>2026-08-26T09:19:43Z</time>
      </trkpt>
      <trkpt lat="45.69033" lon="4.54362">
        <ele>769.4</ele>
        <time>2026-08-26T09:19:44Z</time>
      </trkpt>
      <trkpt lat="45.69033" lon="4.54357">
        <ele>769.4</ele>
        <time>2026-08-26T09:19:45Z</time>
      </trkpt>
      <trkpt lat="45.69034" lon="4.54351">
        <ele>769.6</ele>
        <time>2026-08-26T09:19:46Z</time>
      </trkpt>
      <trkpt lat="45.69034" lon="4.54347">
        <ele>769.6</ele>
        <time>2026-08-26T09:19:47Z</time>
      </trkpt>
      <trkpt lat="45.69034" lon="4.54342">
        <ele>769.8</ele>
        <time>2026-08-26T09:19:48Z</time>
      </trkpt>
      <trkpt lat="45.69034" lon="4.54337">
        <ele>769.8</ele>
        <time>2026-08-26T09:19:49Z</time>
      </trkpt>
      <trkpt lat="45.69035" lon="4.54332">
        <ele>770</ele>
        <time>2026-08-26T09:19:50Z</time>
      </trkpt>
      <trkpt lat="45.69035" lon="4.54328">
        <ele>770</ele>
        <time>2026-08-26T09:19:51Z</time>
      </trkpt>
      <trkpt lat="45.69035" lon="4.54323">
        <ele>770.2</ele>
        <time>2026-08-26T09:19:52Z</time>
      </trkpt>
      <trkpt lat="45.69036" lon="4.54318">
        <ele>770.4</ele>
        <time>2026-08-26T09:19:53Z</time>
      </trkpt>
      <trkpt lat="45.69036" lon="4.54313">
        <ele>770.4</ele>
        <time>2026-08-26T09:19:54Z</time>
      </trkpt>
      <trkpt lat="45.69036" lon="4.54308">
        <ele>770.6</ele>
        <time>2026-08-26T09:19:55Z</time>
      </trkpt>
      <trkpt lat="45.69037" lon="4.54303">
        <ele>770.6</ele>
        <time>2026-08-26T09:19:56Z</time>
      </trkpt>
      <trkpt lat="45.69038" lon="4.54298">
        <ele>770.6</ele>
        <time>2026-08-26T09:19:57Z</time>
      </trkpt>
      <trkpt lat="45.69038" lon="4.54293">
        <ele>770.8</ele>
        <time>2026-08-26T09:19:58Z</time>
      </trkpt>
      <trkpt lat="45.69039" lon="4.54288">
        <ele>770.8</ele>
        <time>2026-08-26T09:19:59Z</time>
      </trkpt>
      <trkpt lat="45.6904" lon="4.54283">
        <ele>771</ele>
        <time>2026-08-26T09:20:00Z</time>
      </trkpt>
      <trkpt lat="45.69041" lon="4.54278">
        <ele>771.2</ele>
        <time>2026-08-26T09:20:01Z</time>
      </trkpt>
      <trkpt lat="45.69042" lon="4.54273">
        <ele>771.2</ele>
        <time>2026-08-26T09:20:02Z</time>
      </trkpt>
      <trkpt lat="45.69043" lon="4.54268">
        <ele>771.2</ele>
        <time>2026-08-26T09:20:03Z</time>
      </trkpt>
      <trkpt lat="45.69044" lon="4.54262">
        <ele>771.4</ele>
        <time>2026-08-26T09:20:04Z</time>
      </trkpt>
      <trkpt lat="45.69045" lon="4.54257">
        <ele>771.4</ele>
        <time>2026-08-26T09:20:05Z</time>
      </trkpt>
      <trkpt lat="45.69046" lon="4.54252">
        <ele>771.6</ele>
        <time>2026-08-26T09:20:06Z</time>
      </trkpt>
      <trkpt lat="45.69047" lon="4.54247">
        <ele>771.8</ele>
        <time>2026-08-26T09:20:07Z</time>
      </trkpt>
      <trkpt lat="45.69048" lon="4.54242">
        <ele>772</ele>
        <time>2026-08-26T09:20:08Z</time>
      </trkpt>
      <trkpt lat="45.69049" lon="4.54237">
        <ele>772</ele>
        <time>2026-08-26T09:20:09Z</time>
      </trkpt>
      <trkpt lat="45.6905" lon="4.54232">
        <ele>772.2</ele>
        <time>2026-08-26T09:20:10Z</time>
      </trkpt>
      <trkpt lat="45.69051" lon="4.54227">
        <ele>772.4</ele>
        <time>2026-08-26T09:20:11Z</time>
      </trkpt>
      <trkpt lat="45.69052" lon="4.54222">
        <ele>772.6</ele>
        <time>2026-08-26T09:20:12Z</time>
      </trkpt>
      <trkpt lat="45.69053" lon="4.54217">
        <ele>772.6</ele>
        <time>2026-08-26T09:20:13Z</time>
      </trkpt>
      <trkpt lat="45.69054" lon="4.54212">
        <ele>772.6</ele>
        <time>2026-08-26T09:20:14Z</time>
      </trkpt>
      <trkpt lat="45.69055" lon="4.54207">
        <ele>772.8</ele>
        <time>2026-08-26T09:20:15Z</time>
      </trkpt>
      <trkpt lat="45.69056" lon="4.54202">
        <ele>773</ele>
        <time>2026-08-26T09:20:16Z</time>
      </trkpt>
      <trkpt lat="45.69057" lon="4.54198">
        <ele>773.2</ele>
        <time>2026-08-26T09:20:17Z</time>
      </trkpt>
      <trkpt lat="45.69058" lon="4.54193">
        <ele>773.2</ele>
        <time>2026-08-26T09:20:18Z</time>
      </trkpt>
      <trkpt lat="45.69059" lon="4.54189">
        <ele>773.4</ele>
        <time>2026-08-26T09:20:19Z</time>
      </trkpt>
      <trkpt lat="45.6906" lon="4.54184">
        <ele>773.6</ele>
        <time>2026-08-26T09:20:20Z</time>
      </trkpt>
      <trkpt lat="45.69062" lon="4.54179">
        <ele>773.8</ele>
        <time>2026-08-26T09:20:21Z</time>
      </trkpt>
      <trkpt lat="45.69063" lon="4.54175">
        <ele>773.8</ele>
        <time>2026-08-26T09:20:22Z</time>
      </trkpt>
      <trkpt lat="45.69064" lon="4.5417">
        <ele>774</ele>
        <time>2026-08-26T09:20:23Z</time>
      </trkpt>
      <trkpt lat="45.69065" lon="4.54166">
        <ele>774.2</ele>
        <time>2026-08-26T09:20:24Z</time>
      </trkpt>
      <trkpt lat="45.69066" lon="4.54161">
        <ele>774.4</ele>
        <time>2026-08-26T09:20:25Z</time>
      </trkpt>
      <trkpt lat="45.69067" lon="4.54157">
        <ele>774.6</ele>
        <time>2026-08-26T09:20:26Z</time>
      </trkpt>
      <trkpt lat="45.69068" lon="4.54153">
        <ele>774.6</ele>
        <time>2026-08-26T09:20:27Z</time>
      </trkpt>
      <trkpt lat="45.69069" lon="4.54148">
        <ele>774.8</ele>
        <time>2026-08-26T09:20:28Z</time>
      </trkpt>
      <trkpt lat="45.69071" lon="4.54144">
        <ele>774.8</ele>
        <time>2026-08-26T09:20:29Z</time>
      </trkpt>
      <trkpt lat="45.69071" lon="4.5414">
        <ele>775</ele>
        <time>2026-08-26T09:20:30Z</time>
      </trkpt>
      <trkpt lat="45.69072" lon="4.54135">
        <ele>775</ele>
        <time>2026-08-26T09:20:31Z</time>
      </trkpt>
      <trkpt lat="45.69073" lon="4.5413">
        <ele>775.2</ele>
        <time>2026-08-26T09:20:32Z</time>
      </trkpt>
      <trkpt lat="45.69074" lon="4.54126">
        <ele>775.4</ele>
        <time>2026-08-26T09:20:33Z</time>
      </trkpt>
      <trkpt lat="45.69074" lon="4.54121">
        <ele>775.4</ele>
        <time>2026-08-26T09:20:34Z</time>
      </trkpt>
      <trkpt lat="45.69074" lon="4.54117">
        <ele>775.6</ele>
        <time>2026-08-26T09:20:35Z</time>
      </trkpt>
      <trkpt lat="45.69075" lon="4.54112">
        <ele>775.8</ele>
        <time>2026-08-26T09:20:36Z</time>
      </trkpt>
      <trkpt lat="45.69075" lon="4.54107">
        <ele>776</ele>
        <time>2026-08-26T09:20:37Z</time>
      </trkpt>
      <trkpt lat="45.69075" lon="4.54102">
        <ele>776.2</ele>
        <time>2026-08-26T09:20:38Z</time>
      </trkpt>
      <trkpt lat="45.69075" lon="4.54098">
        <ele>776.4</ele>
        <time>2026-08-26T09:20:39Z</time>
      </trkpt>
      <trkpt lat="45.69075" lon="4.54093">
        <ele>776.4</ele>
        <time>2026-08-26T09:20:40Z</time>
      </trkpt>
      <trkpt lat="45.69075" lon="4.54088">
        <ele>776.6</ele>
        <time>2026-08-26T09:20:41Z</time>
      </trkpt>
      <trkpt lat="45.69075" lon="4.54083">
        <ele>776.6</ele>
        <time>2026-08-26T09:20:42Z</time>
      </trkpt>
      <trkpt lat="45.69075" lon="4.54078">
        <ele>776.6</ele>
        <time>2026-08-26T09:20:43Z</time>
      </trkpt>
      <trkpt lat="45.69075" lon="4.54074">
        <ele>776.8</ele>
        <time>2026-08-26T09:20:44Z</time>
      </trkpt>
      <trkpt lat="45.69074" lon="4.54069">
        <ele>776.8</ele>
        <time>2026-08-26T09:20:45Z</time>
      </trkpt>
      <trkpt lat="45.69074" lon="4.54064">
        <ele>777</ele>
        <time>2026-08-26T09:20:46Z</time>
      </trkpt>
      <trkpt lat="45.69074" lon="4.5406">
        <ele>777.2</ele>
        <time>2026-08-26T09:20:47Z</time>
      </trkpt>
      <trkpt lat="45.69074" lon="4.54055">
        <ele>777.4</ele>
        <time>2026-08-26T09:20:48Z</time>
      </trkpt>
      <trkpt lat="45.69074" lon="4.54051">
        <ele>777.4</ele>
        <time>2026-08-26T09:20:49Z</time>
      </trkpt>
      <trkpt lat="45.69074" lon="4.54046">
        <ele>777.4</ele>
        <time>2026-08-26T09:20:50Z</time>
      </trkpt>
      <trkpt lat="45.69074" lon="4.54041">
        <ele>777.6</ele>
        <time>2026-08-26T09:20:51Z</time>
      </trkpt>
      <trkpt lat="45.69074" lon="4.54036">
        <ele>777.6</ele>
        <time>2026-08-26T09:20:52Z</time>
      </trkpt>
      <trkpt lat="45.69073" lon="4.54032">
        <ele>777.8</ele>
        <time>2026-08-26T09:20:53Z</time>
      </trkpt>
      <trkpt lat="45.69073" lon="4.54027">
        <ele>778</ele>
        <time>2026-08-26T09:20:54Z</time>
      </trkpt>
      <trkpt lat="45.69073" lon="4.54022">
        <ele>778</ele>
        <time>2026-08-26T09:20:55Z</time>
      </trkpt>
      <trkpt lat="45.69072" lon="4.54017">
        <ele>778.2</ele>
        <time>2026-08-26T09:20:56Z</time>
      </trkpt>
      <trkpt lat="45.69072" lon="4.54012">
        <ele>778.4</ele>
        <time>2026-08-26T09:20:57Z</time>
      </trkpt>
      <trkpt lat="45.69072" lon="4.54008">
        <ele>778.4</ele>
        <time>2026-08-26T09:20:58Z</time>
      </trkpt>
      <trkpt lat="45.69072" lon="4.54003">
        <ele>778.6</ele>
        <time>2026-08-26T09:20:59Z</time>
      </trkpt>
      <trkpt lat="45.69071" lon="4.53998">
        <ele>778.8</ele>
        <time>2026-08-26T09:21:00Z</time>
      </trkpt>
      <trkpt lat="45.69071" lon="4.53993">
        <ele>778.8</ele>
        <time>2026-08-26T09:21:01Z</time>
      </trkpt>
      <trkpt lat="45.69071" lon="4.53988">
        <ele>778.8</ele>
        <time>2026-08-26T09:21:02Z</time>
      </trkpt>
      <trkpt lat="45.69071" lon="4.53982">
        <ele>779</ele>
        <time>2026-08-26T09:21:03Z</time>
      </trkpt>
      <trkpt lat="45.6907" lon="4.53977">
        <ele>779.2</ele>
        <time>2026-08-26T09:21:04Z</time>
      </trkpt>
      <trkpt lat="45.6907" lon="4.53972">
        <ele>779.4</ele>
        <time>2026-08-26T09:21:05Z</time>
      </trkpt>
      <trkpt lat="45.69069" lon="4.53967">
        <ele>779.4</ele>
        <time>2026-08-26T09:21:06Z</time>
      </trkpt>
      <trkpt lat="45.69069" lon="4.53962">
        <ele>779.6</ele>
        <time>2026-08-26T09:21:07Z</time>
      </trkpt>
      <trkpt lat="45.69069" lon="4.53956">
        <ele>779.8</ele>
        <time>2026-08-26T09:21:08Z</time>
      </trkpt>
      <trkpt lat="45.69068" lon="4.53951">
        <ele>779.8</ele>
        <time>2026-08-26T09:21:09Z</time>
      </trkpt>
      <trkpt lat="45.69068" lon="4.53946">
        <ele>779.8</ele>
        <time>2026-08-26T09:21:10Z</time>
      </trkpt>
      <trkpt lat="45.69068" lon="4.5394">
        <ele>779.8</ele>
        <time>2026-08-26T09:21:11Z</time>
      </trkpt>
      <trkpt lat="45.69069" lon="4.53935">
        <ele>779.6</ele>
        <time>2026-08-26T09:21:12Z</time>
      </trkpt>
      <trkpt lat="45.69069" lon="4.5393">
        <ele>779.6</ele>
        <time>2026-08-26T09:21:13Z</time>
      </trkpt>
      <trkpt lat="45.69069" lon="4.53924">
        <ele>779.8</ele>
        <time>2026-08-26T09:21:14Z</time>
      </trkpt>
      <trkpt lat="45.69069" lon="4.53919">
        <ele>780</ele>
        <time>2026-08-26T09:21:15Z</time>
      </trkpt>
      <trkpt lat="45.69069" lon="4.53914">
        <ele>780.2</ele>
        <time>2026-08-26T09:21:16Z</time>
      </trkpt>
      <trkpt lat="45.69068" lon="4.53908">
        <ele>780.4</ele>
        <time>2026-08-26T09:21:17Z</time>
      </trkpt>
      <trkpt lat="45.69068" lon="4.53903">
        <ele>780.4</ele>
        <time>2026-08-26T09:21:18Z</time>
      </trkpt>
      <trkpt lat="45.69068" lon="4.53898">
        <ele>780.4</ele>
        <time>2026-08-26T09:21:19Z</time>
      </trkpt>
      <trkpt lat="45.69068" lon="4.53892">
        <ele>780.4</ele>
        <time>2026-08-26T09:21:20Z</time>
      </trkpt>
      <trkpt lat="45.69068" lon="4.53886">
        <ele>780.4</ele>
        <time>2026-08-26T09:21:21Z</time>
      </trkpt>
      <trkpt lat="45.69068" lon="4.5388">
        <ele>780.6</ele>
        <time>2026-08-26T09:21:22Z</time>
      </trkpt>
      <trkpt lat="45.69068" lon="4.53874">
        <ele>780.6</ele>
        <time>2026-08-26T09:21:23Z</time>
      </trkpt>
      <trkpt lat="45.69067" lon="4.53869">
        <ele>780.6</ele>
        <time>2026-08-26T09:21:24Z</time>
      </trkpt>
      <trkpt lat="45.69067" lon="4.53863">
        <ele>780.6</ele>
        <time>2026-08-26T09:21:25Z</time>
      </trkpt>
      <trkpt lat="45.69067" lon="4.53857">
        <ele>780.8</ele>
        <time>2026-08-26T09:21:26Z</time>
      </trkpt>
      <trkpt lat="45.69067" lon="4.53851">
        <ele>780.8</ele>
        <time>2026-08-26T09:21:27Z</time>
      </trkpt>
      <trkpt lat="45.69066" lon="4.53845">
        <ele>781</ele>
        <time>2026-08-26T09:21:28Z</time>
      </trkpt>
      <trkpt lat="45.69066" lon="4.53839">
        <ele>781.2</ele>
        <time>2026-08-26T09:21:29Z</time>
      </trkpt>
      <trkpt lat="45.69066" lon="4.53834">
        <ele>781.4</ele>
        <time>2026-08-26T09:21:30Z</time>
      </trkpt>
      <trkpt lat="45.69065" lon="4.53828">
        <ele>781.4</ele>
        <time>2026-08-26T09:21:31Z</time>
      </trkpt>
      <trkpt lat="45.69065" lon="4.53822">
        <ele>781.4</ele>
        <time>2026-08-26T09:21:32Z</time>
      </trkpt>
      <trkpt lat="45.69064" lon="4.53817">
        <ele>781.6</ele>
        <time>2026-08-26T09:21:33Z</time>
      </trkpt>
      <trkpt lat="45.69064" lon="4.53811">
        <ele>781.8</ele>
        <time>2026-08-26T09:21:34Z</time>
      </trkpt>
      <trkpt lat="45.69064" lon="4.53805">
        <ele>781.8</ele>
        <time>2026-08-26T09:21:35Z</time>
      </trkpt>
      <trkpt lat="45.69064" lon="4.53799">
        <ele>782</ele>
        <time>2026-08-26T09:21:36Z</time>
      </trkpt>
      <trkpt lat="45.69064" lon="4.53794">
        <ele>782</ele>
        <time>2026-08-26T09:21:37Z</time>
      </trkpt>
      <trkpt lat="45.69063" lon="4.53788">
        <ele>782.2</ele>
        <time>2026-08-26T09:21:38Z</time>
      </trkpt>
      <trkpt lat="45.69063" lon="4.53782">
        <ele>782.2</ele>
        <time>2026-08-26T09:21:39Z</time>
      </trkpt>
      <trkpt lat="45.69063" lon="4.53776">
        <ele>782.4</ele>
        <time>2026-08-26T09:21:40Z</time>
      </trkpt>
      <trkpt lat="45.69062" lon="4.5377">
        <ele>782.6</ele>
        <time>2026-08-26T09:21:41Z</time>
      </trkpt>
      <trkpt lat="45.69062" lon="4.53765">
        <ele>782.6</ele>
        <time>2026-08-26T09:21:42Z</time>
      </trkpt>
      <trkpt lat="45.69062" lon="4.53759">
        <ele>782.6</ele>
        <time>2026-08-26T09:21:43Z</time>
      </trkpt>
      <trkpt lat="45.69062" lon="4.53754">
        <ele>782.8</ele>
        <time>2026-08-26T09:21:44Z</time>
      </trkpt>
      <trkpt lat="45.69061" lon="4.53748">
        <ele>782.8</ele>
        <time>2026-08-26T09:21:45Z</time>
      </trkpt>
      <trkpt lat="45.69061" lon="4.53742">
        <ele>782.8</ele>
        <time>2026-08-26T09:21:46Z</time>
      </trkpt>
      <trkpt lat="45.69061" lon="4.53737">
        <ele>782.8</ele>
        <time>2026-08-26T09:21:47Z</time>
      </trkpt>
      <trkpt lat="45.69061" lon="4.53732">
        <ele>783</ele>
        <time>2026-08-26T09:21:48Z</time>
      </trkpt>
      <trkpt lat="45.69061" lon="4.53726">
        <ele>783</ele>
        <time>2026-08-26T09:21:49Z</time>
      </trkpt>
      <trkpt lat="45.69061" lon="4.53721">
        <ele>783.2</ele>
        <time>2026-08-26T09:21:50Z</time>
      </trkpt>
      <trkpt lat="45.69061" lon="4.53715">
        <ele>783.2</ele>
        <time>2026-08-26T09:21:51Z</time>
      </trkpt>
      <trkpt lat="45.69061" lon="4.5371">
        <ele>783.4</ele>
        <time>2026-08-26T09:21:52Z</time>
      </trkpt>
      <trkpt lat="45.69061" lon="4.53705">
        <ele>783.4</ele>
        <time>2026-08-26T09:21:53Z</time>
      </trkpt>
      <trkpt lat="45.69061" lon="4.53701">
        <ele>783.4</ele>
        <time>2026-08-26T09:21:54Z</time>
      </trkpt>
      <trkpt lat="45.69061" lon="4.53697">
        <ele>783.6</ele>
        <time>2026-08-26T09:21:55Z</time>
      </trkpt>
      <trkpt lat="45.69062" lon="4.53693">
        <ele>783.6</ele>
        <time>2026-08-26T09:21:56Z</time>
      </trkpt>
      <trkpt lat="45.69062" lon="4.53689">
        <ele>783.8</ele>
        <time>2026-08-26T09:21:57Z</time>
      </trkpt>
      <trkpt lat="45.69063" lon="4.53687">
        <ele>784</ele>
        <time>2026-08-26T09:21:58Z</time>
      </trkpt>
      <trkpt lat="45.69064" lon="4.53684">
        <ele>784</ele>
        <time>2026-08-26T09:21:59Z</time>
      </trkpt>
      <trkpt lat="45.69064" lon="4.53683">
        <ele>784.2</ele>
        <time>2026-08-26T09:22:00Z</time>
      </trkpt>
      <trkpt lat="45.69065" lon="4.53682">
        <ele>784.2</ele>
        <time>2026-08-26T09:22:01Z</time>
      </trkpt>
      <trkpt lat="45.69066" lon="4.53682">
        <ele>784.4</ele>
        <time>2026-08-26T09:22:02Z</time>
      </trkpt>
      <trkpt lat="45.69066" lon="4.53682">
        <ele>784.4</ele>
        <time>2026-08-26T09:22:03Z</time>
      </trkpt>
      <trkpt lat="45.6907" lon="4.53683">
        <ele>784.6</ele>
        <time>2026-08-26T09:22:17Z</time>
      </trkpt>
      <trkpt lat="45.69072" lon="4.53685">
        <ele>784.4</ele>
        <time>2026-08-26T09:22:18Z</time>
      </trkpt>
      <trkpt lat="45.69074" lon="4.53687">
        <ele>784.4</ele>
        <time>2026-08-26T09:22:19Z</time>
      </trkpt>
      <trkpt lat="45.69076" lon="4.53689">
        <ele>784.4</ele>
        <time>2026-08-26T09:22:20Z</time>
      </trkpt>
      <trkpt lat="45.69079" lon="4.53691">
        <ele>784.2</ele>
        <time>2026-08-26T09:22:21Z</time>
      </trkpt>
      <trkpt lat="45.69082" lon="4.53693">
        <ele>784.2</ele>
        <time>2026-08-26T09:22:22Z</time>
      </trkpt>
      <trkpt lat="45.69084" lon="4.53696">
        <ele>784.2</ele>
        <time>2026-08-26T09:22:23Z</time>
      </trkpt>
      <trkpt lat="45.69087" lon="4.53699">
        <ele>784</ele>
        <time>2026-08-26T09:22:24Z</time>
      </trkpt>
      <trkpt lat="45.6909" lon="4.53702">
        <ele>784</ele>
        <time>2026-08-26T09:22:25Z</time>
      </trkpt>
      <trkpt lat="45.69093" lon="4.53705">
        <ele>784.2</ele>
        <time>2026-08-26T09:22:26Z</time>
      </trkpt>
      <trkpt lat="45.69096" lon="4.53708">
        <ele>784.2</ele>
        <time>2026-08-26T09:22:27Z</time>
      </trkpt>
      <trkpt lat="45.69099" lon="4.53711">
        <ele>784.2</ele>
        <time>2026-08-26T09:22:28Z</time>
      </trkpt>
      <trkpt lat="45.69103" lon="4.53714">
        <ele>784.2</ele>
        <time>2026-08-26T09:22:29Z</time>
      </trkpt>
      <trkpt lat="45.69106" lon="4.53717">
        <ele>784.4</ele>
        <time>2026-08-26T09:22:30Z</time>
      </trkpt>
      <trkpt lat="45.69109" lon="4.5372">
        <ele>784.6</ele>
        <time>2026-08-26T09:22:31Z</time>
      </trkpt>
      <trkpt lat="45.69112" lon="4.53723">
        <ele>784.8</ele>
        <time>2026-08-26T09:22:32Z</time>
      </trkpt>
      <trkpt lat="45.69116" lon="4.53727">
        <ele>785</ele>
        <time>2026-08-26T09:22:33Z</time>
      </trkpt>
      <trkpt lat="45.69119" lon="4.5373">
        <ele>785</ele>
        <time>2026-08-26T09:22:34Z</time>
      </trkpt>
      <trkpt lat="45.69122" lon="4.53733">
        <ele>785.2</ele>
        <time>2026-08-26T09:22:35Z</time>
      </trkpt>
      <trkpt lat="45.69126" lon="4.53737">
        <ele>785.2</ele>
        <time>2026-08-26T09:22:36Z</time>
      </trkpt>
      <trkpt lat="45.69129" lon="4.5374">
        <ele>785.2</ele>
        <time>2026-08-26T09:22:37Z</time>
      </trkpt>
      <trkpt lat="45.69132" lon="4.53743">
        <ele>785.2</ele>
        <time>2026-08-26T09:22:38Z</time>
      </trkpt>
      <trkpt lat="45.69135" lon="4.53746">
        <ele>785</ele>
        <time>2026-08-26T09:22:39Z</time>
      </trkpt>
      <trkpt lat="45.69139" lon="4.5375">
        <ele>785.2</ele>
        <time>2026-08-26T09:22:40Z</time>
      </trkpt>
      <trkpt lat="45.69142" lon="4.53753">
        <ele>785.2</ele>
        <time>2026-08-26T09:22:41Z</time>
      </trkpt>
      <trkpt lat="45.69146" lon="4.53756">
        <ele>785.4</ele>
        <time>2026-08-26T09:22:42Z</time>
      </trkpt>
      <trkpt lat="45.69149" lon="4.53759">
        <ele>785.4</ele>
        <time>2026-08-26T09:22:43Z</time>
      </trkpt>
      <trkpt lat="45.69152" lon="4.53763">
        <ele>785.6</ele>
        <time>2026-08-26T09:22:44Z</time>
      </trkpt>
      <trkpt lat="45.69155" lon="4.53766">
        <ele>785.6</ele>
        <time>2026-08-26T09:22:45Z</time>
      </trkpt>
      <trkpt lat="45.69158" lon="4.53769">
        <ele>785.8</ele>
        <time>2026-08-26T09:22:46Z</time>
      </trkpt>
      <trkpt lat="45.69162" lon="4.53772">
        <ele>786</ele>
        <time>2026-08-26T09:22:47Z</time>
      </trkpt>
      <trkpt lat="45.69165" lon="4.53775">
        <ele>786.2</ele>
        <time>2026-08-26T09:22:48Z</time>
      </trkpt>
      <trkpt lat="45.69167" lon="4.53778">
        <ele>786.4</ele>
        <time>2026-08-26T09:22:49Z</time>
      </trkpt>
      <trkpt lat="45.6917" lon="4.53781">
        <ele>786.6</ele>
        <time>2026-08-26T09:22:50Z</time>
      </trkpt>
      <trkpt lat="45.69173" lon="4.53784">
        <ele>786.8</ele>
        <time>2026-08-26T09:22:51Z</time>
      </trkpt>
      <trkpt lat="45.69176" lon="4.53788">
        <ele>787</ele>
        <time>2026-08-26T09:22:52Z</time>
      </trkpt>
      <trkpt lat="45.69179" lon="4.5379">
        <ele>787.2</ele>
        <time>2026-08-26T09:22:53Z</time>
      </trkpt>
      <trkpt lat="45.69182" lon="4.53793">
        <ele>787.4</ele>
        <time>2026-08-26T09:22:54Z</time>
      </trkpt>
      <trkpt lat="45.69185" lon="4.53796">
        <ele>787.6</ele>
        <time>2026-08-26T09:22:55Z</time>
      </trkpt>
      <trkpt lat="45.69188" lon="4.53799">
        <ele>787.8</ele>
        <time>2026-08-26T09:22:56Z</time>
      </trkpt>
      <trkpt lat="45.69192" lon="4.53801">
        <ele>787.8</ele>
        <time>2026-08-26T09:22:57Z</time>
      </trkpt>
      <trkpt lat="45.69195" lon="4.53803">
        <ele>788</ele>
        <time>2026-08-26T09:22:58Z</time>
      </trkpt>
      <trkpt lat="45.69198" lon="4.53806">
        <ele>788.2</ele>
        <time>2026-08-26T09:22:59Z</time>
      </trkpt>
      <trkpt lat="45.69201" lon="4.53808">
        <ele>788.2</ele>
        <time>2026-08-26T09:23:00Z</time>
      </trkpt>
      <trkpt lat="45.69204" lon="4.5381">
        <ele>788.4</ele>
        <time>2026-08-26T09:23:01Z</time>
      </trkpt>
      <trkpt lat="45.69208" lon="4.53812">
        <ele>788.6</ele>
        <time>2026-08-26T09:23:02Z</time>
      </trkpt>
      <trkpt lat="45.69211" lon="4.53814">
        <ele>788.8</ele>
        <time>2026-08-26T09:23:03Z</time>
      </trkpt>
      <trkpt lat="45.69214" lon="4.53815">
        <ele>788.8</ele>
        <time>2026-08-26T09:23:04Z</time>
      </trkpt>
      <trkpt lat="45.69218" lon="4.53817">
        <ele>789</ele>
        <time>2026-08-26T09:23:05Z</time>
      </trkpt>
      <trkpt lat="45.69221" lon="4.53818">
        <ele>789</ele>
        <time>2026-08-26T09:23:06Z</time>
      </trkpt>
      <trkpt lat="45.69225" lon="4.53819">
        <ele>789.2</ele>
        <time>2026-08-26T09:23:07Z</time>
      </trkpt>
      <trkpt lat="45.69228" lon="4.53821">
        <ele>789.2</ele>
        <time>2026-08-26T09:23:08Z</time>
      </trkpt>
      <trkpt lat="45.69232" lon="4.53822">
        <ele>789.4</ele>
        <time>2026-08-26T09:23:09Z</time>
      </trkpt>
      <trkpt lat="45.69235" lon="4.53822">
        <ele>789.6</ele>
        <time>2026-08-26T09:23:10Z</time>
      </trkpt>
      <trkpt lat="45.69239" lon="4.53823">
        <ele>789.6</ele>
        <time>2026-08-26T09:23:11Z</time>
      </trkpt>
      <trkpt lat="45.69242" lon="4.53824">
        <ele>789.8</ele>
        <time>2026-08-26T09:23:12Z</time>
      </trkpt>
      <trkpt lat="45.69246" lon="4.53825">
        <ele>790</ele>
        <time>2026-08-26T09:23:13Z</time>
      </trkpt>
      <trkpt lat="45.69249" lon="4.53826">
        <ele>790.2</ele>
        <time>2026-08-26T09:23:14Z</time>
      </trkpt>
      <trkpt lat="45.69253" lon="4.53827">
        <ele>790.2</ele>
        <time>2026-08-26T09:23:15Z</time>
      </trkpt>
      <trkpt lat="45.69257" lon="4.53827">
        <ele>790.4</ele>
        <time>2026-08-26T09:23:16Z</time>
      </trkpt>
      <trkpt lat="45.6926" lon="4.53828">
        <ele>790.6</ele>
        <time>2026-08-26T09:23:17Z</time>
      </trkpt>
      <trkpt lat="45.69263" lon="4.53829">
        <ele>790.6</ele>
        <time>2026-08-26T09:23:18Z</time>
      </trkpt>
      <trkpt lat="45.69266" lon="4.53829">
        <ele>790.8</ele>
        <time>2026-08-26T09:23:19Z</time>
      </trkpt>
      <trkpt lat="45.69269" lon="4.5383">
        <ele>790.8</ele>
        <time>2026-08-26T09:23:20Z</time>
      </trkpt>
      <trkpt lat="45.69272" lon="4.53831">
        <ele>791</ele>
        <time>2026-08-26T09:23:21Z</time>
      </trkpt>
      <trkpt lat="45.69276" lon="4.53832">
        <ele>791.2</ele>
        <time>2026-08-26T09:23:22Z</time>
      </trkpt>
      <trkpt lat="45.69279" lon="4.53833">
        <ele>791.4</ele>
        <time>2026-08-26T09:23:23Z</time>
      </trkpt>
      <trkpt lat="45.69282" lon="4.53833">
        <ele>791.6</ele>
        <time>2026-08-26T09:23:24Z</time>
      </trkpt>
      <trkpt lat="45.69285" lon="4.53834">
        <ele>791.8</ele>
        <time>2026-08-26T09:23:25Z</time>
      </trkpt>
      <trkpt lat="45.69289" lon="4.53835">
        <ele>791.8</ele>
        <time>2026-08-26T09:23:26Z</time>
      </trkpt>
      <trkpt lat="45.69292" lon="4.53836">
        <ele>792</ele>
        <time>2026-08-26T09:23:27Z</time>
      </trkpt>
      <trkpt lat="45.69295" lon="4.53836">
        <ele>792.2</ele>
        <time>2026-08-26T09:23:28Z</time>
      </trkpt>
      <trkpt lat="45.69298" lon="4.53837">
        <ele>792.4</ele>
        <time>2026-08-26T09:23:29Z</time>
      </trkpt>
      <trkpt lat="45.69301" lon="4.53838">
        <ele>792.4</ele>
        <time>2026-08-26T09:23:30Z</time>
      </trkpt>
      <trkpt lat="45.69305" lon="4.53839">
        <ele>792.6</ele>
        <time>2026-08-26T09:23:31Z</time>
      </trkpt>
      <trkpt lat="45.69308" lon="4.5384">
        <ele>792.6</ele>
        <time>2026-08-26T09:23:32Z</time>
      </trkpt>
      <trkpt lat="45.69311" lon="4.53841">
        <ele>792.8</ele>
        <time>2026-08-26T09:23:33Z</time>
      </trkpt>
      <trkpt lat="45.69314" lon="4.53842">
        <ele>793</ele>
        <time>2026-08-26T09:23:34Z</time>
      </trkpt>
      <trkpt lat="45.69317" lon="4.53843">
        <ele>793.2</ele>
        <time>2026-08-26T09:23:35Z</time>
      </trkpt>
      <trkpt lat="45.69321" lon="4.53843">
        <ele>793.2</ele>
        <time>2026-08-26T09:23:36Z</time>
      </trkpt>
      <trkpt lat="45.69324" lon="4.53844">
        <ele>793.4</ele>
        <time>2026-08-26T09:23:37Z</time>
      </trkpt>
      <trkpt lat="45.69327" lon="4.53845">
        <ele>793.4</ele>
        <time>2026-08-26T09:23:38Z</time>
      </trkpt>
      <trkpt lat="45.6933" lon="4.53846">
        <ele>793.6</ele>
        <time>2026-08-26T09:23:39Z</time>
      </trkpt>
      <trkpt lat="45.69333" lon="4.53846">
        <ele>793.6</ele>
        <time>2026-08-26T09:23:40Z</time>
      </trkpt>
      <trkpt lat="45.69335" lon="4.53848">
        <ele>793.8</ele>
        <time>2026-08-26T09:23:41Z</time>
      </trkpt>
      <trkpt lat="45.69339" lon="4.53849">
        <ele>794</ele>
        <time>2026-08-26T09:23:42Z</time>
      </trkpt>
      <trkpt lat="45.69342" lon="4.5385">
        <ele>794</ele>
        <time>2026-08-26T09:23:43Z</time>
      </trkpt>
      <trkpt lat="45.69345" lon="4.53851">
        <ele>794.2</ele>
        <time>2026-08-26T09:23:44Z</time>
      </trkpt>
      <trkpt lat="45.69348" lon="4.53852">
        <ele>794.2</ele>
        <time>2026-08-26T09:23:45Z</time>
      </trkpt>
      <trkpt lat="45.69351" lon="4.53854">
        <ele>794.2</ele>
        <time>2026-08-26T09:23:46Z</time>
      </trkpt>
      <trkpt lat="45.69354" lon="4.53856">
        <ele>794.2</ele>
        <time>2026-08-26T09:23:47Z</time>
      </trkpt>
      <trkpt lat="45.69357" lon="4.53858">
        <ele>794.2</ele>
        <time>2026-08-26T09:23:48Z</time>
      </trkpt>
      <trkpt lat="45.6936" lon="4.5386">
        <ele>794.4</ele>
        <time>2026-08-26T09:23:49Z</time>
      </trkpt>
      <trkpt lat="45.69363" lon="4.53862">
        <ele>794.4</ele>
        <time>2026-08-26T09:23:50Z</time>
      </trkpt>
      <trkpt lat="45.69366" lon="4.53863">
        <ele>794.6</ele>
        <time>2026-08-26T09:23:51Z</time>
      </trkpt>
      <trkpt lat="45.69369" lon="4.53866">
        <ele>794.6</ele>
        <time>2026-08-26T09:23:52Z</time>
      </trkpt>
      <trkpt lat="45.69372" lon="4.53869">
        <ele>794.8</ele>
        <time>2026-08-26T09:23:53Z</time>
      </trkpt>
      <trkpt lat="45.69375" lon="4.53871">
        <ele>794.8</ele>
        <time>2026-08-26T09:23:54Z</time>
      </trkpt>
      <trkpt lat="45.69377" lon="4.53874">
        <ele>795</ele>
        <time>2026-08-26T09:23:55Z</time>
      </trkpt>
      <trkpt lat="45.6938" lon="4.53876">
        <ele>795.2</ele>
        <time>2026-08-26T09:23:56Z</time>
      </trkpt>
      <trkpt lat="45.69383" lon="4.53879">
        <ele>795.2</ele>
        <time>2026-08-26T09:23:57Z</time>
      </trkpt>
      <trkpt lat="45.69385" lon="4.53882">
        <ele>795.4</ele>
        <time>2026-08-26T09:23:58Z</time>
      </trkpt>
      <trkpt lat="45.69387" lon="4.53885">
        <ele>795.6</ele>
        <time>2026-08-26T09:23:59Z</time>
      </trkpt>
      <trkpt lat="45.6939" lon="4.53889">
        <ele>795.6</ele>
        <time>2026-08-26T09:24:00Z</time>
      </trkpt>
      <trkpt lat="45.69392" lon="4.53892">
        <ele>795.8</ele>
        <time>2026-08-26T09:24:01Z</time>
      </trkpt>
      <trkpt lat="45.69395" lon="4.53895">
        <ele>795.8</ele>
        <time>2026-08-26T09:24:02Z</time>
      </trkpt>
      <trkpt lat="45.69397" lon="4.53899">
        <ele>796</ele>
        <time>2026-08-26T09:24:03Z</time>
      </trkpt>
      <trkpt lat="45.69399" lon="4.53902">
        <ele>796</ele>
        <time>2026-08-26T09:24:04Z</time>
      </trkpt>
      <trkpt lat="45.69401" lon="4.53906">
        <ele>796.2</ele>
        <time>2026-08-26T09:24:05Z</time>
      </trkpt>
      <trkpt lat="45.69403" lon="4.5391">
        <ele>796.2</ele>
        <time>2026-08-26T09:24:06Z</time>
      </trkpt>
      <trkpt lat="45.69405" lon="4.53914">
        <ele>796.4</ele>
        <time>2026-08-26T09:24:07Z</time>
      </trkpt>
      <trkpt lat="45.69407" lon="4.53917">
        <ele>796.4</ele>
        <time>2026-08-26T09:24:08Z</time>
      </trkpt>
      <trkpt lat="45.69409" lon="4.53921">
        <ele>796.6</ele>
        <time>2026-08-26T09:24:09Z</time>
      </trkpt>
      <trkpt lat="45.69411" lon="4.53925">
        <ele>796.6</ele>
        <time>2026-08-26T09:24:10Z</time>
      </trkpt>
      <trkpt lat="45.69412" lon="4.53929">
        <ele>796.8</ele>
        <time>2026-08-26T09:24:11Z</time>
      </trkpt>
      <trkpt lat="45.69414" lon="4.53934">
        <ele>797</ele>
        <time>2026-08-26T09:24:12Z</time>
      </trkpt>
      <trkpt lat="45.69415" lon="4.53938">
        <ele>797</ele>
        <time>2026-08-26T09:24:13Z</time>
      </trkpt>
      <trkpt lat="45.69416" lon="4.53942">
        <ele>797.2</ele>
        <time>2026-08-26T09:24:14Z</time>
      </trkpt>
      <trkpt lat="45.69417" lon="4.53946">
        <ele>797.4</ele>
        <time>2026-08-26T09:24:15Z</time>
      </trkpt>
      <trkpt lat="45.69418" lon="4.53951">
        <ele>797.6</ele>
        <time>2026-08-26T09:24:16Z</time>
      </trkpt>
      <trkpt lat="45.69419" lon="4.53956">
        <ele>797.8</ele>
        <time>2026-08-26T09:24:17Z</time>
      </trkpt>
      <trkpt lat="45.6942" lon="4.53961">
        <ele>798</ele>
        <time>2026-08-26T09:24:18Z</time>
      </trkpt>
      <trkpt lat="45.69421" lon="4.53965">
        <ele>798</ele>
        <time>2026-08-26T09:24:19Z</time>
      </trkpt>
      <trkpt lat="45.69422" lon="4.5397">
        <ele>798.2</ele>
        <time>2026-08-26T09:24:20Z</time>
      </trkpt>
      <trkpt lat="45.69422" lon="4.53975">
        <ele>798.4</ele>
        <time>2026-08-26T09:24:21Z</time>
      </trkpt>
      <trkpt lat="45.69423" lon="4.53979">
        <ele>798.6</ele>
        <time>2026-08-26T09:24:22Z</time>
      </trkpt>
      <trkpt lat="45.69423" lon="4.53984">
        <ele>798.6</ele>
        <time>2026-08-26T09:24:23Z</time>
      </trkpt>
      <trkpt lat="45.69423" lon="4.53989">
        <ele>798.8</ele>
        <time>2026-08-26T09:24:24Z</time>
      </trkpt>
      <trkpt lat="45.69423" lon="4.53993">
        <ele>798.8</ele>
        <time>2026-08-26T09:24:25Z</time>
      </trkpt>
      <trkpt lat="45.69423" lon="4.53998">
        <ele>799</ele>
        <time>2026-08-26T09:24:26Z</time>
      </trkpt>
      <trkpt lat="45.69423" lon="4.54002">
        <ele>799</ele>
        <time>2026-08-26T09:24:27Z</time>
      </trkpt>
      <trkpt lat="45.69423" lon="4.54007">
        <ele>799.2</ele>
        <time>2026-08-26T09:24:28Z</time>
      </trkpt>
      <trkpt lat="45.69424" lon="4.54011">
        <ele>799.4</ele>
        <time>2026-08-26T09:24:29Z</time>
      </trkpt>
      <trkpt lat="45.69424" lon="4.54016">
        <ele>799.4</ele>
        <time>2026-08-26T09:24:30Z</time>
      </trkpt>
      <trkpt lat="45.69424" lon="4.5402">
        <ele>799.6</ele>
        <time>2026-08-26T09:24:31Z</time>
      </trkpt>
      <trkpt lat="45.69424" lon="4.54025">
        <ele>799.6</ele>
        <time>2026-08-26T09:24:32Z</time>
      </trkpt>
      <trkpt lat="45.69424" lon="4.54029">
        <ele>799.8</ele>
        <time>2026-08-26T09:24:33Z</time>
      </trkpt>
      <trkpt lat="45.69425" lon="4.54033">
        <ele>800</ele>
        <time>2026-08-26T09:24:34Z</time>
      </trkpt>
      <trkpt lat="45.69425" lon="4.54038">
        <ele>800.2</ele>
        <time>2026-08-26T09:24:35Z</time>
      </trkpt>
      <trkpt lat="45.69424" lon="4.54042">
        <ele>800.2</ele>
        <time>2026-08-26T09:24:36Z</time>
      </trkpt>
      <trkpt lat="45.69424" lon="4.54047">
        <ele>800.4</ele>
        <time>2026-08-26T09:24:37Z</time>
      </trkpt>
      <trkpt lat="45.69424" lon="4.54052">
        <ele>800.6</ele>
        <time>2026-08-26T09:24:38Z</time>
      </trkpt>
      <trkpt lat="45.69425" lon="4.54056">
        <ele>800.6</ele>
        <time>2026-08-26T09:24:39Z</time>
      </trkpt>
      <trkpt lat="45.69425" lon="4.54061">
        <ele>800.8</ele>
        <time>2026-08-26T09:24:40Z</time>
      </trkpt>
      <trkpt lat="45.69425" lon="4.54065">
        <ele>800.8</ele>
        <time>2026-08-26T09:24:41Z</time>
      </trkpt>
      <trkpt lat="45.69425" lon="4.5407">
        <ele>801</ele>
        <time>2026-08-26T09:24:42Z</time>
      </trkpt>
      <trkpt lat="45.69425" lon="4.54075">
        <ele>801.2</ele>
        <time>2026-08-26T09:24:43Z</time>
      </trkpt>
      <trkpt lat="45.69425" lon="4.54079">
        <ele>801.2</ele>
        <time>2026-08-26T09:24:44Z</time>
      </trkpt>
      <trkpt lat="45.69426" lon="4.54084">
        <ele>801.4</ele>
        <time>2026-08-26T09:24:45Z</time>
      </trkpt>
      <trkpt lat="45.69426" lon="4.54089">
        <ele>801.4</ele>
        <time>2026-08-26T09:24:46Z</time>
      </trkpt>
      <trkpt lat="45.69427" lon="4.54094">
        <ele>801.6</ele>
        <time>2026-08-26T09:24:47Z</time>
      </trkpt>
      <trkpt lat="45.69427" lon="4.54098">
        <ele>801.6</ele>
        <time>2026-08-26T09:24:48Z</time>
      </trkpt>
      <trkpt lat="45.69428" lon="4.54102">
        <ele>801.8</ele>
        <time>2026-08-26T09:24:49Z</time>
      </trkpt>
      <trkpt lat="45.69428" lon="4.54107">
        <ele>801.8</ele>
        <time>2026-08-26T09:24:50Z</time>
      </trkpt>
      <trkpt lat="45.69429" lon="4.54111">
        <ele>802</ele>
        <time>2026-08-26T09:24:51Z</time>
      </trkpt>
      <trkpt lat="45.6943" lon="4.54115">
        <ele>802.2</ele>
        <time>2026-08-26T09:24:52Z</time>
      </trkpt>
      <trkpt lat="45.69431" lon="4.5412">
        <ele>802.2</ele>
        <time>2026-08-26T09:24:53Z</time>
      </trkpt>
      <trkpt lat="45.69432" lon="4.54124">
        <ele>802.4</ele>
        <time>2026-08-26T09:24:54Z</time>
      </trkpt>
      <trkpt lat="45.69433" lon="4.54128">
        <ele>802.4</ele>
        <time>2026-08-26T09:24:55Z</time>
      </trkpt>
      <trkpt lat="45.69434" lon="4.54133">
        <ele>802.6</ele>
        <time>2026-08-26T09:24:56Z</time>
      </trkpt>
      <trkpt lat="45.69435" lon="4.54137">
        <ele>802.6</ele>
        <time>2026-08-26T09:24:57Z</time>
      </trkpt>
      <trkpt lat="45.69436" lon="4.54142">
        <ele>802.6</ele>
        <time>2026-08-26T09:24:58Z</time>
      </trkpt>
      <trkpt lat="45.69437" lon="4.54147">
        <ele>802.8</ele>
        <time>2026-08-26T09:24:59Z</time>
      </trkpt>
      <trkpt lat="45.69438" lon="4.54152">
        <ele>803</ele>
        <time>2026-08-26T09:25:00Z</time>
      </trkpt>
      <trkpt lat="45.69439" lon="4.54157">
        <ele>803</ele>
        <time>2026-08-26T09:25:01Z</time>
      </trkpt>
      <trkpt lat="45.6944" lon="4.54162">
        <ele>803</ele>
        <time>2026-08-26T09:25:02Z</time>
      </trkpt>
      <trkpt lat="45.69442" lon="4.54166">
        <ele>803.2</ele>
        <time>2026-08-26T09:25:03Z</time>
      </trkpt>
      <trkpt lat="45.69443" lon="4.54171">
        <ele>803.2</ele>
        <time>2026-08-26T09:25:04Z</time>
      </trkpt>
      <trkpt lat="45.69444" lon="4.54175">
        <ele>803.2</ele>
        <time>2026-08-26T09:25:05Z</time>
      </trkpt>
      <trkpt lat="45.69445" lon="4.5418">
        <ele>803.2</ele>
        <time>2026-08-26T09:25:06Z</time>
      </trkpt>
      <trkpt lat="45.69446" lon="4.54184">
        <ele>803.2</ele>
        <time>2026-08-26T09:25:07Z</time>
      </trkpt>
      <trkpt lat="45.69447" lon="4.54189">
        <ele>803.2</ele>
        <time>2026-08-26T09:25:08Z</time>
      </trkpt>
      <trkpt lat="45.69448" lon="4.54193">
        <ele>803.4</ele>
        <time>2026-08-26T09:25:09Z</time>
      </trkpt>
      <trkpt lat="45.6945" lon="4.54197">
        <ele>803.6</ele>
        <time>2026-08-26T09:25:10Z</time>
      </trkpt>
      <trkpt lat="45.69451" lon="4.54201">
        <ele>803.8</ele>
        <time>2026-08-26T09:25:11Z</time>
      </trkpt>
      <trkpt lat="45.69452" lon="4.54205">
        <ele>804.2</ele>
        <time>2026-08-26T09:25:12Z</time>
      </trkpt>
      <trkpt lat="45.69454" lon="4.54209">
        <ele>804.4</ele>
        <time>2026-08-26T09:25:13Z</time>
      </trkpt>
      <trkpt lat="45.69456" lon="4.54213">
        <ele>804.6</ele>
        <time>2026-08-26T09:25:14Z</time>
      </trkpt>
      <trkpt lat="45.69457" lon="4.54217">
        <ele>804.6</ele>
        <time>2026-08-26T09:25:15Z</time>
      </trkpt>
      <trkpt lat="45.69458" lon="4.54221">
        <ele>804.8</ele>
        <time>2026-08-26T09:25:16Z</time>
      </trkpt>
      <trkpt lat="45.69459" lon="4.54226">
        <ele>805</ele>
        <time>2026-08-26T09:25:17Z</time>
      </trkpt>
      <trkpt lat="45.69461" lon="4.54229">
        <ele>805</ele>
        <time>2026-08-26T09:25:18Z</time>
      </trkpt>
      <trkpt lat="45.69463" lon="4.54233">
        <ele>805.2</ele>
        <time>2026-08-26T09:25:19Z</time>
      </trkpt>
      <trkpt lat="45.69465" lon="4.54237">
        <ele>805.4</ele>
        <time>2026-08-26T09:25:20Z</time>
      </trkpt>
      <trkpt lat="45.69466" lon="4.54241">
        <ele>805.6</ele>
        <time>2026-08-26T09:25:21Z</time>
      </trkpt>
      <trkpt lat="45.69468" lon="4.54245">
        <ele>805.6</ele>
        <time>2026-08-26T09:25:22Z</time>
      </trkpt>
      <trkpt lat="45.69469" lon="4.54249">
        <ele>805.8</ele>
        <time>2026-08-26T09:25:23Z</time>
      </trkpt>
      <trkpt lat="45.6947" lon="4.54252">
        <ele>806</ele>
        <time>2026-08-26T09:25:24Z</time>
      </trkpt>
      <trkpt lat="45.69472" lon="4.54256">
        <ele>806</ele>
        <time>2026-08-26T09:25:25Z</time>
      </trkpt>
      <trkpt lat="45.69473" lon="4.5426">
        <ele>806.2</ele>
        <time>2026-08-26T09:25:26Z</time>
      </trkpt>
      <trkpt lat="45.69474" lon="4.54264">
        <ele>806.2</ele>
        <time>2026-08-26T09:25:27Z</time>
      </trkpt>
      <trkpt lat="45.69476" lon="4.54268">
        <ele>806.4</ele>
        <time>2026-08-26T09:25:28Z</time>
      </trkpt>
      <trkpt lat="45.69478" lon="4.54272">
        <ele>806.4</ele>
        <time>2026-08-26T09:25:29Z</time>
      </trkpt>
      <trkpt lat="45.69479" lon="4.54275">
        <ele>806.6</ele>
        <time>2026-08-26T09:25:30Z</time>
      </trkpt>
      <trkpt lat="45.69481" lon="4.54279">
        <ele>806.8</ele>
        <time>2026-08-26T09:25:31Z</time>
      </trkpt>
      <trkpt lat="45.69482" lon="4.54283">
        <ele>807</ele>
        <time>2026-08-26T09:25:32Z</time>
      </trkpt>
      <trkpt lat="45.69483" lon="4.54287">
        <ele>807</ele>
        <time>2026-08-26T09:25:33Z</time>
      </trkpt>
      <trkpt lat="45.69485" lon="4.54291">
        <ele>807</ele>
        <time>2026-08-26T09:25:34Z</time>
      </trkpt>
      <trkpt lat="45.69486" lon="4.54295">
        <ele>807.2</ele>
        <time>2026-08-26T09:25:35Z</time>
      </trkpt>
      <trkpt lat="45.69488" lon="4.54299">
        <ele>807.2</ele>
        <time>2026-08-26T09:25:36Z</time>
      </trkpt>
      <trkpt lat="45.69489" lon="4.54302">
        <ele>807.4</ele>
        <time>2026-08-26T09:25:37Z</time>
      </trkpt>
      <trkpt lat="45.69491" lon="4.54306">
        <ele>807.6</ele>
        <time>2026-08-26T09:25:38Z</time>
      </trkpt>
      <trkpt lat="45.69492" lon="4.5431">
        <ele>807.6</ele>
        <time>2026-08-26T09:25:39Z</time>
      </trkpt>
      <trkpt lat="45.69494" lon="4.54314">
        <ele>807.8</ele>
        <time>2026-08-26T09:25:40Z</time>
      </trkpt>
      <trkpt lat="45.69495" lon="4.54318">
        <ele>807.8</ele>
        <time>2026-08-26T09:25:41Z</time>
      </trkpt>
      <trkpt lat="45.69496" lon="4.54322">
        <ele>807.8</ele>
        <time>2026-08-26T09:25:42Z</time>
      </trkpt>
      <trkpt lat="45.69497" lon="4.54326">
        <ele>808</ele>
        <time>2026-08-26T09:25:43Z</time>
      </trkpt>
      <trkpt lat="45.69498" lon="4.5433">
        <ele>808</ele>
        <time>2026-08-26T09:25:44Z</time>
      </trkpt>
      <trkpt lat="45.69499" lon="4.54334">
        <ele>808</ele>
        <time>2026-08-26T09:25:45Z</time>
      </trkpt>
      <trkpt lat="45.69501" lon="4.54338">
        <ele>808</ele>
        <time>2026-08-26T09:25:46Z</time>
      </trkpt>
      <trkpt lat="45.69502" lon="4.54342">
        <ele>808</ele>
        <time>2026-08-26T09:25:47Z</time>
      </trkpt>
      <trkpt lat="45.69503" lon="4.54346">
        <ele>808.2</ele>
        <time>2026-08-26T09:25:48Z</time>
      </trkpt>
      <trkpt lat="45.69504" lon="4.5435">
        <ele>808.2</ele>
        <time>2026-08-26T09:25:49Z</time>
      </trkpt>
      <trkpt lat="45.69505" lon="4.54354">
        <ele>808.4</ele>
        <time>2026-08-26T09:25:50Z</time>
      </trkpt>
      <trkpt lat="45.69506" lon="4.54358">
        <ele>808.6</ele>
        <time>2026-08-26T09:25:51Z</time>
      </trkpt>
      <trkpt lat="45.69507" lon="4.54363">
        <ele>808.8</ele>
        <time>2026-08-26T09:25:52Z</time>
      </trkpt>
      <trkpt lat="45.69508" lon="4.54367">
        <ele>809</ele>
        <time>2026-08-26T09:25:53Z</time>
      </trkpt>
      <trkpt lat="45.69509" lon="4.54371">
        <ele>809.2</ele>
        <time>2026-08-26T09:25:54Z</time>
      </trkpt>
      <trkpt lat="45.69509" lon="4.54375">
        <ele>809.2</ele>
        <time>2026-08-26T09:25:55Z</time>
      </trkpt>
      <trkpt lat="45.6951" lon="4.54379">
        <ele>809.4</ele>
        <time>2026-08-26T09:25:56Z</time>
      </trkpt>
      <trkpt lat="45.69511" lon="4.54383">
        <ele>809.6</ele>
        <time>2026-08-26T09:25:57Z</time>
      </trkpt>
      <trkpt lat="45.69512" lon="4.54388">
        <ele>809.8</ele>
        <time>2026-08-26T09:25:58Z</time>
      </trkpt>
      <trkpt lat="45.69512" lon="4.54392">
        <ele>810</ele>
        <time>2026-08-26T09:25:59Z</time>
      </trkpt>
      <trkpt lat="45.69513" lon="4.54396">
        <ele>810.2</ele>
        <time>2026-08-26T09:26:00Z</time>
      </trkpt>
      <trkpt lat="45.69514" lon="4.54401">
        <ele>810.6</ele>
        <time>2026-08-26T09:26:01Z</time>
      </trkpt>
      <trkpt lat="45.69514" lon="4.54405">
        <ele>810.6</ele>
        <time>2026-08-26T09:26:02Z</time>
      </trkpt>
      <trkpt lat="45.69515" lon="4.5441">
        <ele>810.8</ele>
        <time>2026-08-26T09:26:03Z</time>
      </trkpt>
      <trkpt lat="45.69515" lon="4.54414">
        <ele>811</ele>
        <time>2026-08-26T09:26:04Z</time>
      </trkpt>
      <trkpt lat="45.69516" lon="4.54419">
        <ele>811.2</ele>
        <time>2026-08-26T09:26:05Z</time>
      </trkpt>
      <trkpt lat="45.69516" lon="4.54423">
        <ele>811.2</ele>
        <time>2026-08-26T09:26:06Z</time>
      </trkpt>
      <trkpt lat="45.69517" lon="4.54428">
        <ele>811.4</ele>
        <time>2026-08-26T09:26:07Z</time>
      </trkpt>
      <trkpt lat="45.69518" lon="4.54432">
        <ele>811.4</ele>
        <time>2026-08-26T09:26:08Z</time>
      </trkpt>
      <trkpt lat="45.69518" lon="4.54437">
        <ele>811.4</ele>
        <time>2026-08-26T09:26:09Z</time>
      </trkpt>
      <trkpt lat="45.69519" lon="4.54442">
        <ele>811.4</ele>
        <time>2026-08-26T09:26:10Z</time>
      </trkpt>
      <trkpt lat="45.6952" lon="4.54446">
        <ele>811.4</ele>
        <time>2026-08-26T09:26:11Z</time>
      </trkpt>
      <trkpt lat="45.69521" lon="4.54451">
        <ele>811.6</ele>
        <time>2026-08-26T09:26:12Z</time>
      </trkpt>
      <trkpt lat="45.69522" lon="4.54455">
        <ele>811.6</ele>
        <time>2026-08-26T09:26:13Z</time>
      </trkpt>
      <trkpt lat="45.69522" lon="4.54459">
        <ele>811.8</ele>
        <time>2026-08-26T09:26:14Z</time>
      </trkpt>
      <trkpt lat="45.69523" lon="4.54464">
        <ele>811.8</ele>
        <time>2026-08-26T09:26:15Z</time>
      </trkpt>
      <trkpt lat="45.69524" lon="4.54468">
        <ele>811.8</ele>
        <time>2026-08-26T09:26:16Z</time>
      </trkpt>
      <trkpt lat="45.69526" lon="4.54472">
        <ele>812</ele>
        <time>2026-08-26T09:26:17Z</time>
      </trkpt>
      <trkpt lat="45.69527" lon="4.54477">
        <ele>812</ele>
        <time>2026-08-26T09:26:18Z</time>
      </trkpt>
      <trkpt lat="45.69529" lon="4.54481">
        <ele>812</ele>
        <time>2026-08-26T09:26:19Z</time>
      </trkpt>
      <trkpt lat="45.6953" lon="4.54486">
        <ele>812.2</ele>
        <time>2026-08-26T09:26:20Z</time>
      </trkpt>
      <trkpt lat="45.69532" lon="4.5449">
        <ele>812.2</ele>
        <time>2026-08-26T09:26:21Z</time>
      </trkpt>
      <trkpt lat="45.69534" lon="4.54494">
        <ele>812.4</ele>
        <time>2026-08-26T09:26:22Z</time>
      </trkpt>
      <trkpt lat="45.69536" lon="4.54498">
        <ele>812.6</ele>
        <time>2026-08-26T09:26:23Z</time>
      </trkpt>
      <trkpt lat="45.69538" lon="4.54502">
        <ele>812.6</ele>
        <time>2026-08-26T09:26:24Z</time>
      </trkpt>
      <trkpt lat="45.6954" lon="4.54506">
        <ele>812.6</ele>
        <time>2026-08-26T09:26:25Z</time>
      </trkpt>
      <trkpt lat="45.69543" lon="4.54509">
        <ele>812.6</ele>
        <time>2026-08-26T09:26:26Z</time>
      </trkpt>
      <trkpt lat="45.69545" lon="4.54513">
        <ele>812.8</ele>
        <time>2026-08-26T09:26:27Z</time>
      </trkpt>
      <trkpt lat="45.69547" lon="4.54517">
        <ele>812.8</ele>
        <time>2026-08-26T09:26:28Z</time>
      </trkpt>
      <trkpt lat="45.6955" lon="4.5452">
        <ele>812.8</ele>
        <time>2026-08-26T09:26:29Z</time>
      </trkpt>
      <trkpt lat="45.69552" lon="4.54523">
        <ele>813</ele>
        <time>2026-08-26T09:26:30Z</time>
      </trkpt>
      <trkpt lat="45.69555" lon="4.54526">
        <ele>813</ele>
        <time>2026-08-26T09:26:31Z</time>
      </trkpt>
      <trkpt lat="45.69557" lon="4.54529">
        <ele>813.2</ele>
        <time>2026-08-26T09:26:32Z</time>
      </trkpt>
      <trkpt lat="45.6956" lon="4.54531">
        <ele>813.2</ele>
        <time>2026-08-26T09:26:33Z</time>
      </trkpt>
      <trkpt lat="45.69563" lon="4.54534">
        <ele>813.2</ele>
        <time>2026-08-26T09:26:34Z</time>
      </trkpt>
      <trkpt lat="45.69565" lon="4.54536">
        <ele>813.4</ele>
        <time>2026-08-26T09:26:35Z</time>
      </trkpt>
      <trkpt lat="45.69568" lon="4.54538">
        <ele>813.4</ele>
        <time>2026-08-26T09:26:36Z</time>
      </trkpt>
      <trkpt lat="45.69571" lon="4.5454">
        <ele>813.6</ele>
        <time>2026-08-26T09:26:37Z</time>
      </trkpt>
      <trkpt lat="45.69574" lon="4.54543">
        <ele>813.8</ele>
        <time>2026-08-26T09:26:38Z</time>
      </trkpt>
      <trkpt lat="45.69577" lon="4.54545">
        <ele>813.8</ele>
        <time>2026-08-26T09:26:39Z</time>
      </trkpt>
      <trkpt lat="45.69579" lon="4.54547">
        <ele>813.8</ele>
        <time>2026-08-26T09:26:40Z</time>
      </trkpt>
      <trkpt lat="45.69582" lon="4.54549">
        <ele>814</ele>
        <time>2026-08-26T09:26:41Z</time>
      </trkpt>
      <trkpt lat="45.69585" lon="4.54551">
        <ele>814.2</ele>
        <time>2026-08-26T09:26:42Z</time>
      </trkpt>
      <trkpt lat="45.69588" lon="4.54552">
        <ele>814.2</ele>
        <time>2026-08-26T09:26:43Z</time>
      </trkpt>
      <trkpt lat="45.69591" lon="4.54554">
        <ele>814.4</ele>
        <time>2026-08-26T09:26:44Z</time>
      </trkpt>
      <trkpt lat="45.69593" lon="4.54556">
        <ele>814.6</ele>
        <time>2026-08-26T09:26:45Z</time>
      </trkpt>
      <trkpt lat="45.69596" lon="4.54558">
        <ele>814.6</ele>
        <time>2026-08-26T09:26:46Z</time>
      </trkpt>
      <trkpt lat="45.69599" lon="4.5456">
        <ele>814.8</ele>
        <time>2026-08-26T09:26:47Z</time>
      </trkpt>
      <trkpt lat="45.69602" lon="4.54562">
        <ele>815</ele>
        <time>2026-08-26T09:26:48Z</time>
      </trkpt>
      <trkpt lat="45.69605" lon="4.54564">
        <ele>815</ele>
        <time>2026-08-26T09:26:49Z</time>
      </trkpt>
      <trkpt lat="45.69608" lon="4.54566">
        <ele>815.2</ele>
        <time>2026-08-26T09:26:50Z</time>
      </trkpt>
      <trkpt lat="45.69611" lon="4.54568">
        <ele>815.2</ele>
        <time>2026-08-26T09:26:51Z</time>
      </trkpt>
      <trkpt lat="45.69615" lon="4.54571">
        <ele>815.2</ele>
        <time>2026-08-26T09:26:52Z</time>
      </trkpt>
      <trkpt lat="45.69618" lon="4.54573">
        <ele>815.2</ele>
        <time>2026-08-26T09:26:53Z</time>
      </trkpt>
      <trkpt lat="45.69621" lon="4.54575">
        <ele>815.2</ele>
        <time>2026-08-26T09:26:54Z</time>
      </trkpt>
      <trkpt lat="45.69624" lon="4.54577">
        <ele>815.2</ele>
        <time>2026-08-26T09:26:55Z</time>
      </trkpt>
      <trkpt lat="45.69627" lon="4.54579">
        <ele>815.4</ele>
        <time>2026-08-26T09:26:56Z</time>
      </trkpt>
      <trkpt lat="45.6963" lon="4.54581">
        <ele>815.4</ele>
        <time>2026-08-26T09:26:57Z</time>
      </trkpt>
      <trkpt lat="45.69633" lon="4.54583">
        <ele>815.6</ele>
        <time>2026-08-26T09:26:58Z</time>
      </trkpt>
      <trkpt lat="45.69636" lon="4.54585">
        <ele>815.6</ele>
        <time>2026-08-26T09:26:59Z</time>
      </trkpt>
      <trkpt lat="45.69639" lon="4.54587">
        <ele>815.8</ele>
        <time>2026-08-26T09:27:00Z</time>
      </trkpt>
      <trkpt lat="45.69642" lon="4.5459">
        <ele>815.8</ele>
        <time>2026-08-26T09:27:01Z</time>
      </trkpt>
      <trkpt lat="45.69645" lon="4.54592">
        <ele>816</ele>
        <time>2026-08-26T09:27:02Z</time>
      </trkpt>
      <trkpt lat="45.69648" lon="4.54594">
        <ele>816</ele>
        <time>2026-08-26T09:27:03Z</time>
      </trkpt>
      <trkpt lat="45.69651" lon="4.54596">
        <ele>816</ele>
        <time>2026-08-26T09:27:04Z</time>
      </trkpt>
      <trkpt lat="45.69655" lon="4.54598">
        <ele>816.2</ele>
        <time>2026-08-26T09:27:05Z</time>
      </trkpt>
      <trkpt lat="45.69657" lon="4.54601">
        <ele>816.2</ele>
        <time>2026-08-26T09:27:06Z</time>
      </trkpt>
      <trkpt lat="45.69661" lon="4.54603">
        <ele>816.2</ele>
        <time>2026-08-26T09:27:07Z</time>
      </trkpt>
      <trkpt lat="45.69663" lon="4.54606">
        <ele>816.2</ele>
        <time>2026-08-26T09:27:08Z</time>
      </trkpt>
      <trkpt lat="45.69666" lon="4.54609">
        <ele>816.4</ele>
        <time>2026-08-26T09:27:09Z</time>
      </trkpt>
      <trkpt lat="45.69669" lon="4.54611">
        <ele>816.6</ele>
        <time>2026-08-26T09:27:10Z</time>
      </trkpt>
      <trkpt lat="45.69672" lon="4.54614">
        <ele>816.6</ele>
        <time>2026-08-26T09:27:11Z</time>
      </trkpt>
      <trkpt lat="45.69674" lon="4.54618">
        <ele>816.8</ele>
        <time>2026-08-26T09:27:12Z</time>
      </trkpt>
      <trkpt lat="45.69676" lon="4.54621">
        <ele>817</ele>
        <time>2026-08-26T09:27:13Z</time>
      </trkpt>
      <trkpt lat="45.69679" lon="4.54624">
        <ele>817.2</ele>
        <time>2026-08-26T09:27:14Z</time>
      </trkpt>
      <trkpt lat="45.69681" lon="4.54628">
        <ele>817.4</ele>
        <time>2026-08-26T09:27:15Z</time>
      </trkpt>
      <trkpt lat="45.69684" lon="4.54631">
        <ele>817.4</ele>
        <time>2026-08-26T09:27:16Z</time>
      </trkpt>
      <trkpt lat="45.69686" lon="4.54634">
        <ele>817.6</ele>
        <time>2026-08-26T09:27:17Z</time>
      </trkpt>
      <trkpt lat="45.69688" lon="4.54637">
        <ele>817.6</ele>
        <time>2026-08-26T09:27:18Z</time>
      </trkpt>
      <trkpt lat="45.6969" lon="4.54641">
        <ele>817.8</ele>
        <time>2026-08-26T09:27:19Z</time>
      </trkpt>
      <trkpt lat="45.69693" lon="4.54644">
        <ele>817.8</ele>
        <time>2026-08-26T09:27:20Z</time>
      </trkpt>
      <trkpt lat="45.69695" lon="4.54648">
        <ele>818</ele>
        <time>2026-08-26T09:27:21Z</time>
      </trkpt>
      <trkpt lat="45.69697" lon="4.54651">
        <ele>818</ele>
        <time>2026-08-26T09:27:22Z</time>
      </trkpt>
      <trkpt lat="45.69699" lon="4.54655">
        <ele>818.2</ele>
        <time>2026-08-26T09:27:23Z</time>
      </trkpt>
      <trkpt lat="45.69702" lon="4.54659">
        <ele>818.2</ele>
        <time>2026-08-26T09:27:24Z</time>
      </trkpt>
      <trkpt lat="45.69704" lon="4.54663">
        <ele>818.4</ele>
        <time>2026-08-26T09:27:25Z</time>
      </trkpt>
      <trkpt lat="45.69706" lon="4.54667">
        <ele>818.4</ele>
        <time>2026-08-26T09:27:26Z</time>
      </trkpt>
      <trkpt lat="45.69709" lon="4.5467">
        <ele>818.6</ele>
        <time>2026-08-26T09:27:27Z</time>
      </trkpt>
      <trkpt lat="45.69711" lon="4.54674">
        <ele>818.8</ele>
        <time>2026-08-26T09:27:28Z</time>
      </trkpt>
      <trkpt lat="45.69714" lon="4.54678">
        <ele>818.8</ele>
        <time>2026-08-26T09:27:29Z</time>
      </trkpt>
      <trkpt lat="45.69717" lon="4.54682">
        <ele>818.8</ele>
        <time>2026-08-26T09:27:30Z</time>
      </trkpt>
      <trkpt lat="45.69719" lon="4.54686">
        <ele>818.6</ele>
        <time>2026-08-26T09:27:31Z</time>
      </trkpt>
      <trkpt lat="45.69722" lon="4.54691">
        <ele>818.6</ele>
        <time>2026-08-26T09:27:32Z</time>
      </trkpt>
      <trkpt lat="45.69725" lon="4.54695">
        <ele>818.6</ele>
        <time>2026-08-26T09:27:33Z</time>
      </trkpt>
      <trkpt lat="45.69727" lon="4.54699">
        <ele>818.6</ele>
        <time>2026-08-26T09:27:34Z</time>
      </trkpt>
      <trkpt lat="45.6973" lon="4.54703">
        <ele>818.4</ele>
        <time>2026-08-26T09:27:35Z</time>
      </trkpt>
      <trkpt lat="45.69734" lon="4.54708">
        <ele>818.4</ele>
        <time>2026-08-26T09:27:36Z</time>
      </trkpt>
      <trkpt lat="45.69737" lon="4.54712">
        <ele>818.4</ele>
        <time>2026-08-26T09:27:37Z</time>
      </trkpt>
      <trkpt lat="45.6974" lon="4.54716">
        <ele>818.4</ele>
        <time>2026-08-26T09:27:38Z</time>
      </trkpt>
      <trkpt lat="45.69744" lon="4.5472">
        <ele>818.2</ele>
        <time>2026-08-26T09:27:39Z</time>
      </trkpt>
      <trkpt lat="45.69748" lon="4.54724">
        <ele>818</ele>
        <time>2026-08-26T09:27:40Z</time>
      </trkpt>
      <trkpt lat="45.69752" lon="4.54728">
        <ele>818</ele>
        <time>2026-08-26T09:27:41Z</time>
      </trkpt>
      <trkpt lat="45.69756" lon="4.54732">
        <ele>817.8</ele>
        <time>2026-08-26T09:27:42Z</time>
      </trkpt>
      <trkpt lat="45.6976" lon="4.54735">
        <ele>817.6</ele>
        <time>2026-08-26T09:27:43Z</time>
      </trkpt>
      <trkpt lat="45.69764" lon="4.54739">
        <ele>817.6</ele>
        <time>2026-08-26T09:27:44Z</time>
      </trkpt>
      <trkpt lat="45.69769" lon="4.54743">
        <ele>817.6</ele>
        <time>2026-08-26T09:27:45Z</time>
      </trkpt>
      <trkpt lat="45.69773" lon="4.54746">
        <ele>817.8</ele>
        <time>2026-08-26T09:27:46Z</time>
      </trkpt>
      <trkpt lat="45.69777" lon="4.54749">
        <ele>817.8</ele>
        <time>2026-08-26T09:27:47Z</time>
      </trkpt>
      <trkpt lat="45.69782" lon="4.54751">
        <ele>817.8</ele>
        <time>2026-08-26T09:27:48Z</time>
      </trkpt>
      <trkpt lat="45.69786" lon="4.54754">
        <ele>818</ele>
        <time>2026-08-26T09:27:49Z</time>
      </trkpt>
      <trkpt lat="45.6979" lon="4.54756">
        <ele>818</ele>
        <time>2026-08-26T09:27:50Z</time>
      </trkpt>
      <trkpt lat="45.69794" lon="4.54758">
        <ele>818</ele>
        <time>2026-08-26T09:27:51Z</time>
      </trkpt>
      <trkpt lat="45.69798" lon="4.5476">
        <ele>818.2</ele>
        <time>2026-08-26T09:27:52Z</time>
      </trkpt>
      <trkpt lat="45.69802" lon="4.54762">
        <ele>818.4</ele>
        <time>2026-08-26T09:27:53Z</time>
      </trkpt>
      <trkpt lat="45.69806" lon="4.54763">
        <ele>818.4</ele>
        <time>2026-08-26T09:27:54Z</time>
      </trkpt>
      <trkpt lat="45.69811" lon="4.54765">
        <ele>818.8</ele>
        <time>2026-08-26T09:27:55Z</time>
      </trkpt>
      <trkpt lat="45.69815" lon="4.54766">
        <ele>819</ele>
        <time>2026-08-26T09:27:56Z</time>
      </trkpt>
      <trkpt lat="45.6982" lon="4.54767">
        <ele>819</ele>
        <time>2026-08-26T09:27:57Z</time>
      </trkpt>
      <trkpt lat="45.69824" lon="4.54768">
        <ele>819.2</ele>
        <time>2026-08-26T09:27:58Z</time>
      </trkpt>
      <trkpt lat="45.69828" lon="4.54769">
        <ele>819.2</ele>
        <time>2026-08-26T09:27:59Z</time>
      </trkpt>
      <trkpt lat="45.69833" lon="4.5477">
        <ele>819.2</ele>
        <time>2026-08-26T09:28:00Z</time>
      </trkpt>
      <trkpt lat="45.69837" lon="4.54771">
        <ele>819.4</ele>
        <time>2026-08-26T09:28:01Z</time>
      </trkpt>
      <trkpt lat="45.69842" lon="4.54772">
        <ele>819.4</ele>
        <time>2026-08-26T09:28:02Z</time>
      </trkpt>
      <trkpt lat="45.69846" lon="4.54772">
        <ele>819.4</ele>
        <time>2026-08-26T09:28:03Z</time>
      </trkpt>
      <trkpt lat="45.6985" lon="4.54773">
        <ele>819.6</ele>
        <time>2026-08-26T09:28:04Z</time>
      </trkpt>
      <trkpt lat="45.69854" lon="4.54773">
        <ele>819.6</ele>
        <time>2026-08-26T09:28:05Z</time>
      </trkpt>
      <trkpt lat="45.69859" lon="4.54773">
        <ele>819.6</ele>
        <time>2026-08-26T09:28:06Z</time>
      </trkpt>
      <trkpt lat="45.69863" lon="4.54774">
        <ele>819.6</ele>
        <time>2026-08-26T09:28:07Z</time>
      </trkpt>
      <trkpt lat="45.69867" lon="4.54775">
        <ele>819.8</ele>
        <time>2026-08-26T09:28:08Z</time>
      </trkpt>
      <trkpt lat="45.69871" lon="4.54776">
        <ele>819.8</ele>
        <time>2026-08-26T09:28:09Z</time>
      </trkpt>
      <trkpt lat="45.69875" lon="4.54777">
        <ele>820</ele>
        <time>2026-08-26T09:28:10Z</time>
      </trkpt>
      <trkpt lat="45.69878" lon="4.54778">
        <ele>820.2</ele>
        <time>2026-08-26T09:28:11Z</time>
      </trkpt>
      <trkpt lat="45.69882" lon="4.54779">
        <ele>820.4</ele>
        <time>2026-08-26T09:28:12Z</time>
      </trkpt>
      <trkpt lat="45.69886" lon="4.5478">
        <ele>820.6</ele>
        <time>2026-08-26T09:28:13Z</time>
      </trkpt>
      <trkpt lat="45.69889" lon="4.54782">
        <ele>820.8</ele>
        <time>2026-08-26T09:28:14Z</time>
      </trkpt>
      <trkpt lat="45.69893" lon="4.54783">
        <ele>820.8</ele>
        <time>2026-08-26T09:28:15Z</time>
      </trkpt>
      <trkpt lat="45.69897" lon="4.54784">
        <ele>821</ele>
        <time>2026-08-26T09:28:16Z</time>
      </trkpt>
      <trkpt lat="45.699" lon="4.54785">
        <ele>821.2</ele>
        <time>2026-08-26T09:28:17Z</time>
      </trkpt>
      <trkpt lat="45.69904" lon="4.54787">
        <ele>821.2</ele>
        <time>2026-08-26T09:28:18Z</time>
      </trkpt>
      <trkpt lat="45.69907" lon="4.54788">
        <ele>821.4</ele>
        <time>2026-08-26T09:28:19Z</time>
      </trkpt>
      <trkpt lat="45.69911" lon="4.5479">
        <ele>821.4</ele>
        <time>2026-08-26T09:28:20Z</time>
      </trkpt>
      <trkpt lat="45.69915" lon="4.54792">
        <ele>821.6</ele>
        <time>2026-08-26T09:28:21Z</time>
      </trkpt>
      <trkpt lat="45.69918" lon="4.54793">
        <ele>821.6</ele>
        <time>2026-08-26T09:28:22Z</time>
      </trkpt>
      <trkpt lat="45.69922" lon="4.54795">
        <ele>821.6</ele>
        <time>2026-08-26T09:28:23Z</time>
      </trkpt>
      <trkpt lat="45.69926" lon="4.54797">
        <ele>821.8</ele>
        <time>2026-08-26T09:28:24Z</time>
      </trkpt>
      <trkpt lat="45.6993" lon="4.54798">
        <ele>821.8</ele>
        <time>2026-08-26T09:28:25Z</time>
      </trkpt>
      <trkpt lat="45.69933" lon="4.548">
        <ele>822</ele>
        <time>2026-08-26T09:28:26Z</time>
      </trkpt>
      <trkpt lat="45.69937" lon="4.54802">
        <ele>822</ele>
        <time>2026-08-26T09:28:27Z</time>
      </trkpt>
      <trkpt lat="45.6994" lon="4.54804">
        <ele>822.2</ele>
        <time>2026-08-26T09:28:28Z</time>
      </trkpt>
      <trkpt lat="45.69944" lon="4.54806">
        <ele>822.4</ele>
        <time>2026-08-26T09:28:29Z</time>
      </trkpt>
      <trkpt lat="45.69947" lon="4.54808">
        <ele>822.6</ele>
        <time>2026-08-26T09:28:30Z</time>
      </trkpt>
      <trkpt lat="45.6995" lon="4.54811">
        <ele>822.8</ele>
        <time>2026-08-26T09:28:31Z</time>
      </trkpt>
      <trkpt lat="45.69953" lon="4.54813">
        <ele>823</ele>
        <time>2026-08-26T09:28:32Z</time>
      </trkpt>
      <trkpt lat="45.69957" lon="4.54815">
        <ele>823.2</ele>
        <time>2026-08-26T09:28:33Z</time>
      </trkpt>
      <trkpt lat="45.6996" lon="4.54818">
        <ele>823.4</ele>
        <time>2026-08-26T09:28:34Z</time>
      </trkpt>
      <trkpt lat="45.69963" lon="4.54821">
        <ele>823.6</ele>
        <time>2026-08-26T09:28:35Z</time>
      </trkpt>
      <trkpt lat="45.69966" lon="4.54823">
        <ele>823.8</ele>
        <time>2026-08-26T09:28:36Z</time>
      </trkpt>
      <trkpt lat="45.69969" lon="4.54826">
        <ele>823.8</ele>
        <time>2026-08-26T09:28:37Z</time>
      </trkpt>
      <trkpt lat="45.69972" lon="4.54829">
        <ele>824</ele>
        <time>2026-08-26T09:28:38Z</time>
      </trkpt>
      <trkpt lat="45.69975" lon="4.54832">
        <ele>824.2</ele>
        <time>2026-08-26T09:28:39Z</time>
      </trkpt>
      <trkpt lat="45.69978" lon="4.54835">
        <ele>824.2</ele>
        <time>2026-08-26T09:28:40Z</time>
      </trkpt>
      <trkpt lat="45.69981" lon="4.54839">
        <ele>824.4</ele>
        <time>2026-08-26T09:28:41Z</time>
      </trkpt>
      <trkpt lat="45.69984" lon="4.54842">
        <ele>824.4</ele>
        <time>2026-08-26T09:28:42Z</time>
      </trkpt>
      <trkpt lat="45.69987" lon="4.54845">
        <ele>824.6</ele>
        <time>2026-08-26T09:28:43Z</time>
      </trkpt>
      <trkpt lat="45.6999" lon="4.54848">
        <ele>824.6</ele>
        <time>2026-08-26T09:28:44Z</time>
      </trkpt>
      <trkpt lat="45.69993" lon="4.54852">
        <ele>824.6</ele>
        <time>2026-08-26T09:28:45Z</time>
      </trkpt>
      <trkpt lat="45.69996" lon="4.54855">
        <ele>824.8</ele>
        <time>2026-08-26T09:28:46Z</time>
      </trkpt>
      <trkpt lat="45.69999" lon="4.54858">
        <ele>824.8</ele>
        <time>2026-08-26T09:28:47Z</time>
      </trkpt>
      <trkpt lat="45.70002" lon="4.54862">
        <ele>824.8</ele>
        <time>2026-08-26T09:28:48Z</time>
      </trkpt>
      <trkpt lat="45.70005" lon="4.54866">
        <ele>825</ele>
        <time>2026-08-26T09:28:49Z</time>
      </trkpt>
      <trkpt lat="45.70007" lon="4.54869">
        <ele>825.2</ele>
        <time>2026-08-26T09:28:50Z</time>
      </trkpt>
      <trkpt lat="45.7001" lon="4.54873">
        <ele>825.2</ele>
        <time>2026-08-26T09:28:51Z</time>
      </trkpt>
      <trkpt lat="45.70013" lon="4.54876">
        <ele>825.2</ele>
        <time>2026-08-26T09:28:52Z</time>
      </trkpt>
      <trkpt lat="45.70016" lon="4.5488">
        <ele>825.4</ele>
        <time>2026-08-26T09:28:53Z</time>
      </trkpt>
      <trkpt lat="45.70018" lon="4.54884">
        <ele>825.6</ele>
        <time>2026-08-26T09:28:54Z</time>
      </trkpt>
      <trkpt lat="45.7002" lon="4.54888">
        <ele>825.8</ele>
        <time>2026-08-26T09:28:55Z</time>
      </trkpt>
      <trkpt lat="45.70023" lon="4.54892">
        <ele>825.8</ele>
        <time>2026-08-26T09:28:56Z</time>
      </trkpt>
      <trkpt lat="45.70025" lon="4.54895">
        <ele>826</ele>
        <time>2026-08-26T09:28:57Z</time>
      </trkpt>
      <trkpt lat="45.70027" lon="4.54899">
        <ele>826</ele>
        <time>2026-08-26T09:28:58Z</time>
      </trkpt>
      <trkpt lat="45.70029" lon="4.54903">
        <ele>826</ele>
        <time>2026-08-26T09:28:59Z</time>
      </trkpt>
      <trkpt lat="45.70031" lon="4.54907">
        <ele>826.2</ele>
        <time>2026-08-26T09:29:00Z</time>
      </trkpt>
      <trkpt lat="45.70034" lon="4.54911">
        <ele>826.4</ele>
        <time>2026-08-26T09:29:01Z</time>
      </trkpt>
      <trkpt lat="45.70036" lon="4.54915">
        <ele>826.4</ele>
        <time>2026-08-26T09:29:02Z</time>
      </trkpt>
      <trkpt lat="45.70038" lon="4.54919">
        <ele>826.6</ele>
        <time>2026-08-26T09:29:03Z</time>
      </trkpt>
      <trkpt lat="45.7004" lon="4.54923">
        <ele>826.6</ele>
        <time>2026-08-26T09:29:04Z</time>
      </trkpt>
      <trkpt lat="45.70042" lon="4.54927">
        <ele>826.8</ele>
        <time>2026-08-26T09:29:05Z</time>
      </trkpt>
      <trkpt lat="45.70044" lon="4.54931">
        <ele>826.8</ele>
        <time>2026-08-26T09:29:06Z</time>
      </trkpt>
      <trkpt lat="45.70046" lon="4.54936">
        <ele>827</ele>
        <time>2026-08-26T09:29:07Z</time>
      </trkpt>
      <trkpt lat="45.70048" lon="4.5494">
        <ele>827</ele>
        <time>2026-08-26T09:29:08Z</time>
      </trkpt>
      <trkpt lat="45.7005" lon="4.54944">
        <ele>827.2</ele>
        <time>2026-08-26T09:29:09Z</time>
      </trkpt>
      <trkpt lat="45.70052" lon="4.54948">
        <ele>827.4</ele>
        <time>2026-08-26T09:29:10Z</time>
      </trkpt>
      <trkpt lat="45.70054" lon="4.54952">
        <ele>827.4</ele>
        <time>2026-08-26T09:29:11Z</time>
      </trkpt>
      <trkpt lat="45.70055" lon="4.54956">
        <ele>827.6</ele>
        <time>2026-08-26T09:29:12Z</time>
      </trkpt>
      <trkpt lat="45.70057" lon="4.5496">
        <ele>827.6</ele>
        <time>2026-08-26T09:29:13Z</time>
      </trkpt>
      <trkpt lat="45.70059" lon="4.54964">
        <ele>827.6</ele>
        <time>2026-08-26T09:29:14Z</time>
      </trkpt>
      <trkpt lat="45.70061" lon="4.54968">
        <ele>827.8</ele>
        <time>2026-08-26T09:29:15Z</time>
      </trkpt>
      <trkpt lat="45.70063" lon="4.54972">
        <ele>827.8</ele>
        <time>2026-08-26T09:29:16Z</time>
      </trkpt>
      <trkpt lat="45.70065" lon="4.54976">
        <ele>828</ele>
        <time>2026-08-26T09:29:17Z</time>
      </trkpt>
      <trkpt lat="45.70066" lon="4.5498">
        <ele>828.2</ele>
        <time>2026-08-26T09:29:18Z</time>
      </trkpt>
      <trkpt lat="45.70068" lon="4.54984">
        <ele>828.4</ele>
        <time>2026-08-26T09:29:19Z</time>
      </trkpt>
      <trkpt lat="45.7007" lon="4.54988">
        <ele>828.6</ele>
        <time>2026-08-26T09:29:20Z</time>
      </trkpt>
      <trkpt lat="45.70071" lon="4.54992">
        <ele>828.6</ele>
        <time>2026-08-26T09:29:21Z</time>
      </trkpt>
      <trkpt lat="45.70073" lon="4.54996">
        <ele>828.8</ele>
        <time>2026-08-26T09:29:22Z</time>
      </trkpt>
      <trkpt lat="45.70074" lon="4.55">
        <ele>829</ele>
        <time>2026-08-26T09:29:23Z</time>
      </trkpt>
      <trkpt lat="45.70076" lon="4.55004">
        <ele>829.2</ele>
        <time>2026-08-26T09:29:24Z</time>
      </trkpt>
      <trkpt lat="45.70078" lon="4.55008">
        <ele>829.4</ele>
        <time>2026-08-26T09:29:25Z</time>
      </trkpt>
      <trkpt lat="45.70079" lon="4.55012">
        <ele>829.6</ele>
        <time>2026-08-26T09:29:26Z</time>
      </trkpt>
      <trkpt lat="45.7008" lon="4.55016">
        <ele>829.8</ele>
        <time>2026-08-26T09:29:27Z</time>
      </trkpt>
      <trkpt lat="45.70082" lon="4.5502">
        <ele>830</ele>
        <time>2026-08-26T09:29:28Z</time>
      </trkpt>
      <trkpt lat="45.70083" lon="4.55025">
        <ele>830.2</ele>
        <time>2026-08-26T09:29:29Z</time>
      </trkpt>
      <trkpt lat="45.70084" lon="4.55029">
        <ele>830.4</ele>
        <time>2026-08-26T09:29:30Z</time>
      </trkpt>
      <trkpt lat="45.70086" lon="4.55033">
        <ele>830.6</ele>
        <time>2026-08-26T09:29:31Z</time>
      </trkpt>
      <trkpt lat="45.70087" lon="4.55037">
        <ele>830.8</ele>
        <time>2026-08-26T09:29:32Z</time>
      </trkpt>
      <trkpt lat="45.70089" lon="4.55041">
        <ele>831</ele>
        <time>2026-08-26T09:29:33Z</time>
      </trkpt>
      <trkpt lat="45.7009" lon="4.55045">
        <ele>831</ele>
        <time>2026-08-26T09:29:34Z</time>
      </trkpt>
      <trkpt lat="45.70091" lon="4.5505">
        <ele>831</ele>
        <time>2026-08-26T09:29:35Z</time>
      </trkpt>
      <trkpt lat="45.70093" lon="4.55054">
        <ele>831</ele>
        <time>2026-08-26T09:29:36Z</time>
      </trkpt>
      <trkpt lat="45.70094" lon="4.55059">
        <ele>831.2</ele>
        <time>2026-08-26T09:29:37Z</time>
      </trkpt>
      <trkpt lat="45.70096" lon="4.55063">
        <ele>831.2</ele>
        <time>2026-08-26T09:29:38Z</time>
      </trkpt>
      <trkpt lat="45.70097" lon="4.55067">
        <ele>831.2</ele>
        <time>2026-08-26T09:29:39Z</time>
      </trkpt>
      <trkpt lat="45.70098" lon="4.55072">
        <ele>831.4</ele>
        <time>2026-08-26T09:29:40Z</time>
      </trkpt>
      <trkpt lat="45.701" lon="4.55076">
        <ele>831.4</ele>
        <time>2026-08-26T09:29:41Z</time>
      </trkpt>
      <trkpt lat="45.70101" lon="4.5508">
        <ele>831.6</ele>
        <time>2026-08-26T09:29:42Z</time>
      </trkpt>
      <trkpt lat="45.70103" lon="4.55084">
        <ele>831.6</ele>
        <time>2026-08-26T09:29:43Z</time>
      </trkpt>
      <trkpt lat="45.70104" lon="4.55089">
        <ele>831.8</ele>
        <time>2026-08-26T09:29:44Z</time>
      </trkpt>
      <trkpt lat="45.70106" lon="4.55093">
        <ele>832</ele>
        <time>2026-08-26T09:29:45Z</time>
      </trkpt>
      <trkpt lat="45.70107" lon="4.55097">
        <ele>832.2</ele>
        <time>2026-08-26T09:29:46Z</time>
      </trkpt>
      <trkpt lat="45.70108" lon="4.551">
        <ele>832.2</ele>
        <time>2026-08-26T09:29:47Z</time>
      </trkpt>
      <trkpt lat="45.70109" lon="4.55105">
        <ele>832.4</ele>
        <time>2026-08-26T09:29:48Z</time>
      </trkpt>
      <trkpt lat="45.7011" lon="4.55109">
        <ele>832.4</ele>
        <time>2026-08-26T09:29:49Z</time>
      </trkpt>
      <trkpt lat="45.70111" lon="4.55113">
        <ele>832.6</ele>
        <time>2026-08-26T09:29:50Z</time>
      </trkpt>
      <trkpt lat="45.70113" lon="4.55117">
        <ele>832.6</ele>
        <time>2026-08-26T09:29:51Z</time>
      </trkpt>
      <trkpt lat="45.70114" lon="4.55121">
        <ele>832.6</ele>
        <time>2026-08-26T09:29:52Z</time>
      </trkpt>
      <trkpt lat="45.70115" lon="4.55125">
        <ele>832.8</ele>
        <time>2026-08-26T09:29:53Z</time>
      </trkpt>
      <trkpt lat="45.70116" lon="4.55129">
        <ele>832.8</ele>
        <time>2026-08-26T09:29:54Z</time>
      </trkpt>
      <trkpt lat="45.70117" lon="4.55133">
        <ele>833</ele>
        <time>2026-08-26T09:29:55Z</time>
      </trkpt>
      <trkpt lat="45.70118" lon="4.55138">
        <ele>833.2</ele>
        <time>2026-08-26T09:29:56Z</time>
      </trkpt>
      <trkpt lat="45.70118" lon="4.55142">
        <ele>833.2</ele>
        <time>2026-08-26T09:29:57Z</time>
      </trkpt>
      <trkpt lat="45.70119" lon="4.55147">
        <ele>833.2</ele>
        <time>2026-08-26T09:29:58Z</time>
      </trkpt>
      <trkpt lat="45.70119" lon="4.55151">
        <ele>833.4</ele>
        <time>2026-08-26T09:29:59Z</time>
      </trkpt>
      <trkpt lat="45.70119" lon="4.55156">
        <ele>833.6</ele>
        <time>2026-08-26T09:30:00Z</time>
      </trkpt>
      <trkpt lat="45.70119" lon="4.5516">
        <ele>833.6</ele>
        <time>2026-08-26T09:30:01Z</time>
      </trkpt>
      <trkpt lat="45.7012" lon="4.55165">
        <ele>833.8</ele>
        <time>2026-08-26T09:30:02Z</time>
      </trkpt>
      <trkpt lat="45.7012" lon="4.5517">
        <ele>834</ele>
        <time>2026-08-26T09:30:03Z</time>
      </trkpt>
      <trkpt lat="45.7012" lon="4.55174">
        <ele>834.2</ele>
        <time>2026-08-26T09:30:04Z</time>
      </trkpt>
      <trkpt lat="45.7012" lon="4.55179">
        <ele>834.4</ele>
        <time>2026-08-26T09:30:05Z</time>
      </trkpt>
      <trkpt lat="45.7012" lon="4.55184">
        <ele>834.6</ele>
        <time>2026-08-26T09:30:06Z</time>
      </trkpt>
      <trkpt lat="45.7012" lon="4.55189">
        <ele>834.8</ele>
        <time>2026-08-26T09:30:07Z</time>
      </trkpt>
      <trkpt lat="45.70119" lon="4.55193">
        <ele>834.8</ele>
        <time>2026-08-26T09:30:08Z</time>
      </trkpt>
      <trkpt lat="45.70119" lon="4.55198">
        <ele>835</ele>
        <time>2026-08-26T09:30:09Z</time>
      </trkpt>
      <trkpt lat="45.70118" lon="4.55202">
        <ele>835.2</ele>
        <time>2026-08-26T09:30:10Z</time>
      </trkpt>
      <trkpt lat="45.70117" lon="4.55207">
        <ele>835.2</ele>
        <time>2026-08-26T09:30:11Z</time>
      </trkpt>
      <trkpt lat="45.70117" lon="4.55211">
        <ele>835.4</ele>
        <time>2026-08-26T09:30:12Z</time>
      </trkpt>
      <trkpt lat="45.70116" lon="4.55216">
        <ele>835.6</ele>
        <time>2026-08-26T09:30:13Z</time>
      </trkpt>
      <trkpt lat="45.70115" lon="4.5522">
        <ele>835.8</ele>
        <time>2026-08-26T09:30:14Z</time>
      </trkpt>
      <trkpt lat="45.70114" lon="4.55225">
        <ele>836</ele>
        <time>2026-08-26T09:30:15Z</time>
      </trkpt>
      <trkpt lat="45.70113" lon="4.55229">
        <ele>836</ele>
        <time>2026-08-26T09:30:16Z</time>
      </trkpt>
      <trkpt lat="45.70113" lon="4.55234">
        <ele>836.2</ele>
        <time>2026-08-26T09:30:17Z</time>
      </trkpt>
      <trkpt lat="45.70113" lon="4.55238">
        <ele>836.2</ele>
        <time>2026-08-26T09:30:18Z</time>
      </trkpt>
      <trkpt lat="45.70113" lon="4.55243">
        <ele>836.4</ele>
        <time>2026-08-26T09:30:19Z</time>
      </trkpt>
      <trkpt lat="45.70113" lon="4.55248">
        <ele>836.6</ele>
        <time>2026-08-26T09:30:20Z</time>
      </trkpt>
      <trkpt lat="45.70113" lon="4.55253">
        <ele>836.6</ele>
        <time>2026-08-26T09:30:21Z</time>
      </trkpt>
      <trkpt lat="45.70112" lon="4.55257">
        <ele>836.6</ele>
        <time>2026-08-26T09:30:22Z</time>
      </trkpt>
      <trkpt lat="45.70112" lon="4.55262">
        <ele>836.6</ele>
        <time>2026-08-26T09:30:23Z</time>
      </trkpt>
      <trkpt lat="45.70112" lon="4.55268">
        <ele>836.6</ele>
        <time>2026-08-26T09:30:24Z</time>
      </trkpt>
      <trkpt lat="45.70111" lon="4.55273">
        <ele>836.6</ele>
        <time>2026-08-26T09:30:25Z</time>
      </trkpt>
      <trkpt lat="45.70111" lon="4.55279">
        <ele>836.6</ele>
        <time>2026-08-26T09:30:26Z</time>
      </trkpt>
      <trkpt lat="45.70111" lon="4.55284">
        <ele>836.8</ele>
        <time>2026-08-26T09:30:27Z</time>
      </trkpt>
      <trkpt lat="45.70111" lon="4.55289">
        <ele>837</ele>
        <time>2026-08-26T09:30:28Z</time>
      </trkpt>
      <trkpt lat="45.70111" lon="4.55294">
        <ele>837.2</ele>
        <time>2026-08-26T09:30:29Z</time>
      </trkpt>
      <trkpt lat="45.70111" lon="4.553">
        <ele>837.2</ele>
        <time>2026-08-26T09:30:30Z</time>
      </trkpt>
      <trkpt lat="45.70111" lon="4.55306">
        <ele>837.4</ele>
        <time>2026-08-26T09:30:31Z</time>
      </trkpt>
      <trkpt lat="45.70112" lon="4.55311">
        <ele>837.4</ele>
        <time>2026-08-26T09:30:32Z</time>
      </trkpt>
      <trkpt lat="45.70112" lon="4.55317">
        <ele>837.4</ele>
        <time>2026-08-26T09:30:33Z</time>
      </trkpt>
      <trkpt lat="45.70113" lon="4.55322">
        <ele>837.4</ele>
        <time>2026-08-26T09:30:34Z</time>
      </trkpt>
      <trkpt lat="45.70114" lon="4.55327">
        <ele>837.4</ele>
        <time>2026-08-26T09:30:35Z</time>
      </trkpt>
      <trkpt lat="45.70115" lon="4.55332">
        <ele>837.4</ele>
        <time>2026-08-26T09:30:36Z</time>
      </trkpt>
      <trkpt lat="45.70116" lon="4.55338">
        <ele>837.4</ele>
        <time>2026-08-26T09:30:37Z</time>
      </trkpt>
      <trkpt lat="45.70117" lon="4.55343">
        <ele>837.4</ele>
        <time>2026-08-26T09:30:38Z</time>
      </trkpt>
      <trkpt lat="45.70119" lon="4.55348">
        <ele>837.6</ele>
        <time>2026-08-26T09:30:39Z</time>
      </trkpt>
      <trkpt lat="45.7012" lon="4.55352">
        <ele>837.8</ele>
        <time>2026-08-26T09:30:40Z</time>
      </trkpt>
      <trkpt lat="45.70121" lon="4.55357">
        <ele>837.8</ele>
        <time>2026-08-26T09:30:41Z</time>
      </trkpt>
      <trkpt lat="45.70123" lon="4.55362">
        <ele>838</ele>
        <time>2026-08-26T09:30:42Z</time>
      </trkpt>
      <trkpt lat="45.70125" lon="4.55366">
        <ele>838.2</ele>
        <time>2026-08-26T09:30:43Z</time>
      </trkpt>
      <trkpt lat="45.70127" lon="4.5537">
        <ele>838.4</ele>
        <time>2026-08-26T09:30:44Z</time>
      </trkpt>
      <trkpt lat="45.70129" lon="4.55374">
        <ele>838.6</ele>
        <time>2026-08-26T09:30:45Z</time>
      </trkpt>
      <trkpt lat="45.70131" lon="4.55378">
        <ele>838.8</ele>
        <time>2026-08-26T09:30:46Z</time>
      </trkpt>
      <trkpt lat="45.70133" lon="4.55383">
        <ele>839</ele>
        <time>2026-08-26T09:30:47Z</time>
      </trkpt>
      <trkpt lat="45.70135" lon="4.55387">
        <ele>839.2</ele>
        <time>2026-08-26T09:30:48Z</time>
      </trkpt>
      <trkpt lat="45.70137" lon="4.55391">
        <ele>839.4</ele>
        <time>2026-08-26T09:30:49Z</time>
      </trkpt>
      <trkpt lat="45.7014" lon="4.55394">
        <ele>839.6</ele>
        <time>2026-08-26T09:30:50Z</time>
      </trkpt>
      <trkpt lat="45.70142" lon="4.55398">
        <ele>839.8</ele>
        <time>2026-08-26T09:30:51Z</time>
      </trkpt>
      <trkpt lat="45.70145" lon="4.55401">
        <ele>840</ele>
        <time>2026-08-26T09:30:52Z</time>
      </trkpt>
      <trkpt lat="45.70148" lon="4.55405">
        <ele>840</ele>
        <time>2026-08-26T09:30:53Z</time>
      </trkpt>
      <trkpt lat="45.7015" lon="4.55409">
        <ele>840</ele>
        <time>2026-08-26T09:30:54Z</time>
      </trkpt>
      <trkpt lat="45.70153" lon="4.55413">
        <ele>840</ele>
        <time>2026-08-26T09:30:55Z</time>
      </trkpt>
      <trkpt lat="45.70155" lon="4.55416">
        <ele>840</ele>
        <time>2026-08-26T09:30:56Z</time>
      </trkpt>
      <trkpt lat="45.70158" lon="4.5542">
        <ele>840.2</ele>
        <time>2026-08-26T09:30:57Z</time>
      </trkpt>
      <trkpt lat="45.7016" lon="4.55424">
        <ele>840.2</ele>
        <time>2026-08-26T09:30:58Z</time>
      </trkpt>
      <trkpt lat="45.70163" lon="4.55427">
        <ele>840.2</ele>
        <time>2026-08-26T09:30:59Z</time>
      </trkpt>
      <trkpt lat="45.70166" lon="4.55431">
        <ele>840.4</ele>
        <time>2026-08-26T09:31:00Z</time>
      </trkpt>
      <trkpt lat="45.70168" lon="4.55434">
        <ele>840.4</ele>
        <time>2026-08-26T09:31:01Z</time>
      </trkpt>
      <trkpt lat="45.7017" lon="4.55438">
        <ele>840.4</ele>
        <time>2026-08-26T09:31:02Z</time>
      </trkpt>
      <trkpt lat="45.70173" lon="4.55442">
        <ele>840.6</ele>
        <time>2026-08-26T09:31:03Z</time>
      </trkpt>
      <trkpt lat="45.70175" lon="4.55446">
        <ele>840.6</ele>
        <time>2026-08-26T09:31:04Z</time>
      </trkpt>
      <trkpt lat="45.70177" lon="4.5545">
        <ele>840.6</ele>
        <time>2026-08-26T09:31:05Z</time>
      </trkpt>
      <trkpt lat="45.70179" lon="4.55455">
        <ele>840.8</ele>
        <time>2026-08-26T09:31:06Z</time>
      </trkpt>
      <trkpt lat="45.70181" lon="4.55459">
        <ele>841</ele>
        <time>2026-08-26T09:31:07Z</time>
      </trkpt>
      <trkpt lat="45.70183" lon="4.55464">
        <ele>841</ele>
        <time>2026-08-26T09:31:08Z</time>
      </trkpt>
      <trkpt lat="45.70185" lon="4.55469">
        <ele>841.2</ele>
        <time>2026-08-26T09:31:09Z</time>
      </trkpt>
      <trkpt lat="45.70186" lon="4.55474">
        <ele>841.2</ele>
        <time>2026-08-26T09:31:10Z</time>
      </trkpt>
      <trkpt lat="45.70188" lon="4.55479">
        <ele>841.4</ele>
        <time>2026-08-26T09:31:11Z</time>
      </trkpt>
      <trkpt lat="45.7019" lon="4.55484">
        <ele>841.6</ele>
        <time>2026-08-26T09:31:12Z</time>
      </trkpt>
      <trkpt lat="45.70191" lon="4.55489">
        <ele>841.6</ele>
        <time>2026-08-26T09:31:13Z</time>
      </trkpt>
      <trkpt lat="45.70192" lon="4.55495">
        <ele>841.6</ele>
        <time>2026-08-26T09:31:14Z</time>
      </trkpt>
      <trkpt lat="45.70193" lon="4.555">
        <ele>841.8</ele>
        <time>2026-08-26T09:31:15Z</time>
      </trkpt>
      <trkpt lat="45.70194" lon="4.55506">
        <ele>842</ele>
        <time>2026-08-26T09:31:16Z</time>
      </trkpt>
      <trkpt lat="45.70195" lon="4.55511">
        <ele>842</ele>
        <time>2026-08-26T09:31:17Z</time>
      </trkpt>
      <trkpt lat="45.70196" lon="4.55516">
        <ele>842.2</ele>
        <time>2026-08-26T09:31:18Z</time>
      </trkpt>
      <trkpt lat="45.70197" lon="4.55521">
        <ele>842.4</ele>
        <time>2026-08-26T09:31:19Z</time>
      </trkpt>
      <trkpt lat="45.70196" lon="4.55527">
        <ele>842.6</ele>
        <time>2026-08-26T09:31:20Z</time>
      </trkpt>
      <trkpt lat="45.70197" lon="4.55532">
        <ele>842.8</ele>
        <time>2026-08-26T09:31:21Z</time>
      </trkpt>
      <trkpt lat="45.70197" lon="4.55538">
        <ele>843</ele>
        <time>2026-08-26T09:31:22Z</time>
      </trkpt>
      <trkpt lat="45.70198" lon="4.55543">
        <ele>843.2</ele>
        <time>2026-08-26T09:31:23Z</time>
      </trkpt>
      <trkpt lat="45.70198" lon="4.55548">
        <ele>843.4</ele>
        <time>2026-08-26T09:31:24Z</time>
      </trkpt>
      <trkpt lat="45.70198" lon="4.55553">
        <ele>843.6</ele>
        <time>2026-08-26T09:31:25Z</time>
      </trkpt>
      <trkpt lat="45.70199" lon="4.55559">
        <ele>843.6</ele>
        <time>2026-08-26T09:31:26Z</time>
      </trkpt>
      <trkpt lat="45.70199" lon="4.55564">
        <ele>843.8</ele>
        <time>2026-08-26T09:31:27Z</time>
      </trkpt>
      <trkpt lat="45.70199" lon="4.55569">
        <ele>844</ele>
        <time>2026-08-26T09:31:28Z</time>
      </trkpt>
      <trkpt lat="45.702" lon="4.55574">
        <ele>844</ele>
        <time>2026-08-26T09:31:29Z</time>
      </trkpt>
      <trkpt lat="45.702" lon="4.5558">
        <ele>844</ele>
        <time>2026-08-26T09:31:30Z</time>
      </trkpt>
      <trkpt lat="45.702" lon="4.55585">
        <ele>844.2</ele>
        <time>2026-08-26T09:31:31Z</time>
      </trkpt>
      <trkpt lat="45.702" lon="4.5559">
        <ele>844.4</ele>
        <time>2026-08-26T09:31:32Z</time>
      </trkpt>
      <trkpt lat="45.70201" lon="4.55595">
        <ele>844.6</ele>
        <time>2026-08-26T09:31:33Z</time>
      </trkpt>
      <trkpt lat="45.70201" lon="4.556">
        <ele>844.8</ele>
        <time>2026-08-26T09:31:34Z</time>
      </trkpt>
      <trkpt lat="45.70203" lon="4.55605">
        <ele>845</ele>
        <time>2026-08-26T09:31:35Z</time>
      </trkpt>
      <trkpt lat="45.70204" lon="4.5561">
        <ele>845.2</ele>
        <time>2026-08-26T09:31:36Z</time>
      </trkpt>
      <trkpt lat="45.70205" lon="4.55614">
        <ele>845.4</ele>
        <time>2026-08-26T09:31:37Z</time>
      </trkpt>
      <trkpt lat="45.70206" lon="4.55619">
        <ele>845.6</ele>
        <time>2026-08-26T09:31:38Z</time>
      </trkpt>
      <trkpt lat="45.70208" lon="4.55624">
        <ele>845.8</ele>
        <time>2026-08-26T09:31:39Z</time>
      </trkpt>
      <trkpt lat="45.7021" lon="4.55628">
        <ele>845.8</ele>
        <time>2026-08-26T09:31:40Z</time>
      </trkpt>
      <trkpt lat="45.70212" lon="4.55631">
        <ele>846</ele>
        <time>2026-08-26T09:31:41Z</time>
      </trkpt>
      <trkpt lat="45.70214" lon="4.55635">
        <ele>846.2</ele>
        <time>2026-08-26T09:31:42Z</time>
      </trkpt>
      <trkpt lat="45.70216" lon="4.55639">
        <ele>846.4</ele>
        <time>2026-08-26T09:31:43Z</time>
      </trkpt>
      <trkpt lat="45.70218" lon="4.55642">
        <ele>846.4</ele>
        <time>2026-08-26T09:31:44Z</time>
      </trkpt>
      <trkpt lat="45.70221" lon="4.55645">
        <ele>846.6</ele>
        <time>2026-08-26T09:31:45Z</time>
      </trkpt>
      <trkpt lat="45.70224" lon="4.55648">
        <ele>846.6</ele>
        <time>2026-08-26T09:31:46Z</time>
      </trkpt>
      <trkpt lat="45.70227" lon="4.5565">
        <ele>846.8</ele>
        <time>2026-08-26T09:31:47Z</time>
      </trkpt>
      <trkpt lat="45.70229" lon="4.55652">
        <ele>846.8</ele>
        <time>2026-08-26T09:31:48Z</time>
      </trkpt>
      <trkpt lat="45.70232" lon="4.55654">
        <ele>846.8</ele>
        <time>2026-08-26T09:31:49Z</time>
      </trkpt>
      <trkpt lat="45.70235" lon="4.55656">
        <ele>847</ele>
        <time>2026-08-26T09:31:50Z</time>
      </trkpt>
      <trkpt lat="45.70239" lon="4.55657">
        <ele>847</ele>
        <time>2026-08-26T09:31:51Z</time>
      </trkpt>
      <trkpt lat="45.70242" lon="4.55658">
        <ele>847</ele>
        <time>2026-08-26T09:31:52Z</time>
      </trkpt>
      <trkpt lat="45.70245" lon="4.55659">
        <ele>847</ele>
        <time>2026-08-26T09:31:53Z</time>
      </trkpt>
      <trkpt lat="45.70247" lon="4.55661">
        <ele>847.2</ele>
        <time>2026-08-26T09:31:54Z</time>
      </trkpt>
      <trkpt lat="45.7025" lon="4.55662">
        <ele>847.2</ele>
        <time>2026-08-26T09:31:55Z</time>
      </trkpt>
      <trkpt lat="45.70254" lon="4.55664">
        <ele>847.2</ele>
        <time>2026-08-26T09:31:56Z</time>
      </trkpt>
      <trkpt lat="45.70256" lon="4.55665">
        <ele>847.4</ele>
        <time>2026-08-26T09:31:57Z</time>
      </trkpt>
      <trkpt lat="45.70259" lon="4.55666">
        <ele>847.4</ele>
        <time>2026-08-26T09:31:58Z</time>
      </trkpt>
      <trkpt lat="45.70262" lon="4.55666">
        <ele>847.4</ele>
        <time>2026-08-26T09:31:59Z</time>
      </trkpt>
      <trkpt lat="45.70265" lon="4.55667">
        <ele>847.6</ele>
        <time>2026-08-26T09:32:00Z</time>
      </trkpt>
      <trkpt lat="45.70269" lon="4.55668">
        <ele>847.6</ele>
        <time>2026-08-26T09:32:01Z</time>
      </trkpt>
      <trkpt lat="45.70272" lon="4.55669">
        <ele>847.8</ele>
        <time>2026-08-26T09:32:02Z</time>
      </trkpt>
      <trkpt lat="45.70276" lon="4.5567">
        <ele>847.8</ele>
        <time>2026-08-26T09:32:03Z</time>
      </trkpt>
      <trkpt lat="45.70279" lon="4.55671">
        <ele>847.8</ele>
        <time>2026-08-26T09:32:04Z</time>
      </trkpt>
      <trkpt lat="45.70283" lon="4.55673">
        <ele>848</ele>
        <time>2026-08-26T09:32:05Z</time>
      </trkpt>
      <trkpt lat="45.70286" lon="4.55675">
        <ele>848</ele>
        <time>2026-08-26T09:32:06Z</time>
      </trkpt>
      <trkpt lat="45.7029" lon="4.55676">
        <ele>848.2</ele>
        <time>2026-08-26T09:32:07Z</time>
      </trkpt>
      <trkpt lat="45.70293" lon="4.55677">
        <ele>848.2</ele>
        <time>2026-08-26T09:32:08Z</time>
      </trkpt>
      <trkpt lat="45.70296" lon="4.55678">
        <ele>848.4</ele>
        <time>2026-08-26T09:32:09Z</time>
      </trkpt>
      <trkpt lat="45.703" lon="4.55679">
        <ele>848.4</ele>
        <time>2026-08-26T09:32:10Z</time>
      </trkpt>
      <trkpt lat="45.70303" lon="4.55681">
        <ele>848.6</ele>
        <time>2026-08-26T09:32:11Z</time>
      </trkpt>
      <trkpt lat="45.70306" lon="4.55682">
        <ele>848.6</ele>
        <time>2026-08-26T09:32:12Z</time>
      </trkpt>
      <trkpt lat="45.7031" lon="4.55684">
        <ele>848.8</ele>
        <time>2026-08-26T09:32:13Z</time>
      </trkpt>
      <trkpt lat="45.70313" lon="4.55685">
        <ele>849</ele>
        <time>2026-08-26T09:32:14Z</time>
      </trkpt>
      <trkpt lat="45.70317" lon="4.55686">
        <ele>849</ele>
        <time>2026-08-26T09:32:15Z</time>
      </trkpt>
      <trkpt lat="45.7032" lon="4.55687">
        <ele>849.2</ele>
        <time>2026-08-26T09:32:16Z</time>
      </trkpt>
      <trkpt lat="45.70324" lon="4.55688">
        <ele>849.4</ele>
        <time>2026-08-26T09:32:17Z</time>
      </trkpt>
      <trkpt lat="45.70328" lon="4.55689">
        <ele>849.4</ele>
        <time>2026-08-26T09:32:18Z</time>
      </trkpt>
      <trkpt lat="45.70331" lon="4.5569">
        <ele>849.4</ele>
        <time>2026-08-26T09:32:19Z</time>
      </trkpt>
      <trkpt lat="45.70335" lon="4.55691">
        <ele>849.6</ele>
        <time>2026-08-26T09:32:20Z</time>
      </trkpt>
      <trkpt lat="45.70338" lon="4.55691">
        <ele>849.8</ele>
        <time>2026-08-26T09:32:21Z</time>
      </trkpt>
      <trkpt lat="45.70341" lon="4.55692">
        <ele>850</ele>
        <time>2026-08-26T09:32:22Z</time>
      </trkpt>
      <trkpt lat="45.70345" lon="4.55693">
        <ele>850.2</ele>
        <time>2026-08-26T09:32:23Z</time>
      </trkpt>
      <trkpt lat="45.70348" lon="4.55694">
        <ele>850.4</ele>
        <time>2026-08-26T09:32:24Z</time>
      </trkpt>
      <trkpt lat="45.70351" lon="4.55694">
        <ele>850.4</ele>
        <time>2026-08-26T09:32:25Z</time>
      </trkpt>
      <trkpt lat="45.70354" lon="4.55693">
        <ele>850.6</ele>
        <time>2026-08-26T09:32:26Z</time>
      </trkpt>
      <trkpt lat="45.70357" lon="4.55693">
        <ele>850.8</ele>
        <time>2026-08-26T09:32:27Z</time>
      </trkpt>
      <trkpt lat="45.7036" lon="4.55693">
        <ele>850.8</ele>
        <time>2026-08-26T09:32:28Z</time>
      </trkpt>
      <trkpt lat="45.70363" lon="4.55692">
        <ele>851</ele>
        <time>2026-08-26T09:32:29Z</time>
      </trkpt>
      <trkpt lat="45.70366" lon="4.55691">
        <ele>851</ele>
        <time>2026-08-26T09:32:30Z</time>
      </trkpt>
      <trkpt lat="45.70369" lon="4.5569">
        <ele>851.2</ele>
        <time>2026-08-26T09:32:31Z</time>
      </trkpt>
      <trkpt lat="45.70372" lon="4.5569">
        <ele>851.4</ele>
        <time>2026-08-26T09:32:32Z</time>
      </trkpt>
      <trkpt lat="45.70374" lon="4.55689">
        <ele>851.6</ele>
        <time>2026-08-26T09:32:33Z</time>
      </trkpt>
      <trkpt lat="45.70377" lon="4.55689">
        <ele>851.8</ele>
        <time>2026-08-26T09:32:34Z</time>
      </trkpt>
      <trkpt lat="45.7038" lon="4.55688">
        <ele>852.2</ele>
        <time>2026-08-26T09:32:35Z</time>
      </trkpt>
      <trkpt lat="45.70383" lon="4.55687">
        <ele>852.4</ele>
        <time>2026-08-26T09:32:36Z</time>
      </trkpt>
      <trkpt lat="45.70386" lon="4.55685">
        <ele>852.4</ele>
        <time>2026-08-26T09:32:37Z</time>
      </trkpt>
      <trkpt lat="45.70388" lon="4.55685">
        <ele>852.6</ele>
        <time>2026-08-26T09:32:38Z</time>
      </trkpt>
      <trkpt lat="45.70391" lon="4.55684">
        <ele>852.8</ele>
        <time>2026-08-26T09:32:39Z</time>
      </trkpt>
      <trkpt lat="45.70393" lon="4.55684">
        <ele>853.2</ele>
        <time>2026-08-26T09:32:40Z</time>
      </trkpt>
      <trkpt lat="45.70396" lon="4.55682">
        <ele>853.2</ele>
        <time>2026-08-26T09:32:41Z</time>
      </trkpt>
      <trkpt lat="45.70398" lon="4.5568">
        <ele>853.4</ele>
        <time>2026-08-26T09:32:42Z</time>
      </trkpt>
      <trkpt lat="45.704" lon="4.55678">
        <ele>853.6</ele>
        <time>2026-08-26T09:32:43Z</time>
      </trkpt>
      <trkpt lat="45.70402" lon="4.55676">
        <ele>853.8</ele>
        <time>2026-08-26T09:32:44Z</time>
      </trkpt>
      <trkpt lat="45.70405" lon="4.55674">
        <ele>854</ele>
        <time>2026-08-26T09:32:45Z</time>
      </trkpt>
      <trkpt lat="45.70407" lon="4.55673">
        <ele>854.2</ele>
        <time>2026-08-26T09:32:46Z</time>
      </trkpt>
      <trkpt lat="45.7041" lon="4.55672">
        <ele>854.4</ele>
        <time>2026-08-26T09:32:47Z</time>
      </trkpt>
      <trkpt lat="45.70413" lon="4.55671">
        <ele>854.4</ele>
        <time>2026-08-26T09:32:48Z</time>
      </trkpt>
      <trkpt lat="45.70415" lon="4.5567">
        <ele>854.6</ele>
        <time>2026-08-26T09:32:49Z</time>
      </trkpt>
      <trkpt lat="45.70418" lon="4.55669">
        <ele>854.8</ele>
        <time>2026-08-26T09:32:50Z</time>
      </trkpt>
      <trkpt lat="45.7042" lon="4.55667">
        <ele>855</ele>
        <time>2026-08-26T09:32:51Z</time>
      </trkpt>
      <trkpt lat="45.70423" lon="4.55665">
        <ele>855.2</ele>
        <time>2026-08-26T09:32:52Z</time>
      </trkpt>
      <trkpt lat="45.70426" lon="4.55664">
        <ele>855.4</ele>
        <time>2026-08-26T09:32:53Z</time>
      </trkpt>
      <trkpt lat="45.70429" lon="4.55663">
        <ele>855.6</ele>
        <time>2026-08-26T09:32:54Z</time>
      </trkpt>
      <trkpt lat="45.70432" lon="4.55661">
        <ele>855.6</ele>
        <time>2026-08-26T09:32:55Z</time>
      </trkpt>
      <trkpt lat="45.70435" lon="4.5566">
        <ele>855.8</ele>
        <time>2026-08-26T09:32:56Z</time>
      </trkpt>
      <trkpt lat="45.70438" lon="4.55659">
        <ele>856</ele>
        <time>2026-08-26T09:32:57Z</time>
      </trkpt>
      <trkpt lat="45.7044" lon="4.55657">
        <ele>856.2</ele>
        <time>2026-08-26T09:32:58Z</time>
      </trkpt>
      <trkpt lat="45.70443" lon="4.55656">
        <ele>856.4</ele>
        <time>2026-08-26T09:32:59Z</time>
      </trkpt>
      <trkpt lat="45.70447" lon="4.55654">
        <ele>856.6</ele>
        <time>2026-08-26T09:33:00Z</time>
      </trkpt>
      <trkpt lat="45.7045" lon="4.55653">
        <ele>856.8</ele>
        <time>2026-08-26T09:33:01Z</time>
      </trkpt>
      <trkpt lat="45.70452" lon="4.55651">
        <ele>856.8</ele>
        <time>2026-08-26T09:33:02Z</time>
      </trkpt>
      <trkpt lat="45.70455" lon="4.5565">
        <ele>857</ele>
        <time>2026-08-26T09:33:03Z</time>
      </trkpt>
      <trkpt lat="45.70457" lon="4.55649">
        <ele>857.2</ele>
        <time>2026-08-26T09:33:04Z</time>
      </trkpt>
      <trkpt lat="45.70459" lon="4.55647">
        <ele>857.4</ele>
        <time>2026-08-26T09:33:05Z</time>
      </trkpt>
      <trkpt lat="45.70462" lon="4.55644">
        <ele>857.4</ele>
        <time>2026-08-26T09:33:06Z</time>
      </trkpt>
      <trkpt lat="45.70464" lon="4.55643">
        <ele>857.6</ele>
        <time>2026-08-26T09:33:07Z</time>
      </trkpt>
      <trkpt lat="45.70467" lon="4.55641">
        <ele>857.8</ele>
        <time>2026-08-26T09:33:08Z</time>
      </trkpt>
      <trkpt lat="45.7047" lon="4.55639">
        <ele>858</ele>
        <time>2026-08-26T09:33:09Z</time>
      </trkpt>
      <trkpt lat="45.70473" lon="4.55637">
        <ele>858</ele>
        <time>2026-08-26T09:33:10Z</time>
      </trkpt>
      <trkpt lat="45.70476" lon="4.55635">
        <ele>858.2</ele>
        <time>2026-08-26T09:33:11Z</time>
      </trkpt>
      <trkpt lat="45.70479" lon="4.55633">
        <ele>858.4</ele>
        <time>2026-08-26T09:33:12Z</time>
      </trkpt>
      <trkpt lat="45.70481" lon="4.55631">
        <ele>858.4</ele>
        <time>2026-08-26T09:33:13Z</time>
      </trkpt>
      <trkpt lat="45.70484" lon="4.55628">
        <ele>858.6</ele>
        <time>2026-08-26T09:33:14Z</time>
      </trkpt>
      <trkpt lat="45.70486" lon="4.55625">
        <ele>858.8</ele>
        <time>2026-08-26T09:33:15Z</time>
      </trkpt>
      <trkpt lat="45.70489" lon="4.55621">
        <ele>858.8</ele>
        <time>2026-08-26T09:33:16Z</time>
      </trkpt>
      <trkpt lat="45.70491" lon="4.55618">
        <ele>859</ele>
        <time>2026-08-26T09:33:17Z</time>
      </trkpt>
      <trkpt lat="45.70493" lon="4.55615">
        <ele>859</ele>
        <time>2026-08-26T09:33:18Z</time>
      </trkpt>
      <trkpt lat="45.70496" lon="4.55612">
        <ele>859.2</ele>
        <time>2026-08-26T09:33:19Z</time>
      </trkpt>
      <trkpt lat="45.70498" lon="4.55609">
        <ele>859.4</ele>
        <time>2026-08-26T09:33:20Z</time>
      </trkpt>
      <trkpt lat="45.705" lon="4.55606">
        <ele>859.4</ele>
        <time>2026-08-26T09:33:21Z</time>
      </trkpt>
      <trkpt lat="45.70502" lon="4.55602">
        <ele>859.6</ele>
        <time>2026-08-26T09:33:22Z</time>
      </trkpt>
      <trkpt lat="45.70504" lon="4.55599">
        <ele>859.8</ele>
        <time>2026-08-26T09:33:23Z</time>
      </trkpt>
      <trkpt lat="45.70506" lon="4.55596">
        <ele>860</ele>
        <time>2026-08-26T09:33:24Z</time>
      </trkpt>
      <trkpt lat="45.70508" lon="4.55592">
        <ele>860.2</ele>
        <time>2026-08-26T09:33:25Z</time>
      </trkpt>
      <trkpt lat="45.70509" lon="4.55588">
        <ele>860.2</ele>
        <time>2026-08-26T09:33:26Z</time>
      </trkpt>
      <trkpt lat="45.70511" lon="4.55585">
        <ele>860.4</ele>
        <time>2026-08-26T09:33:27Z</time>
      </trkpt>
      <trkpt lat="45.70512" lon="4.55581">
        <ele>860.6</ele>
        <time>2026-08-26T09:33:28Z</time>
      </trkpt>
      <trkpt lat="45.70514" lon="4.55577">
        <ele>860.8</ele>
        <time>2026-08-26T09:33:29Z</time>
      </trkpt>
      <trkpt lat="45.70515" lon="4.55574">
        <ele>861</ele>
        <time>2026-08-26T09:33:30Z</time>
      </trkpt>
      <trkpt lat="45.70517" lon="4.55571">
        <ele>861.2</ele>
        <time>2026-08-26T09:33:31Z</time>
      </trkpt>
      <trkpt lat="45.70519" lon="4.55567">
        <ele>861.4</ele>
        <time>2026-08-26T09:33:32Z</time>
      </trkpt>
      <trkpt lat="45.7052" lon="4.55564">
        <ele>861.6</ele>
        <time>2026-08-26T09:33:33Z</time>
      </trkpt>
      <trkpt lat="45.70522" lon="4.55561">
        <ele>861.8</ele>
        <time>2026-08-26T09:33:34Z</time>
      </trkpt>
      <trkpt lat="45.70523" lon="4.55557">
        <ele>862</ele>
        <time>2026-08-26T09:33:35Z</time>
      </trkpt>
      <trkpt lat="45.70525" lon="4.55554">
        <ele>862.2</ele>
        <time>2026-08-26T09:33:36Z</time>
      </trkpt>
      <trkpt lat="45.70527" lon="4.55551">
        <ele>862.4</ele>
        <time>2026-08-26T09:33:37Z</time>
      </trkpt>
      <trkpt lat="45.70529" lon="4.55548">
        <ele>862.6</ele>
        <time>2026-08-26T09:33:38Z</time>
      </trkpt>
      <trkpt lat="45.70531" lon="4.55545">
        <ele>862.8</ele>
        <time>2026-08-26T09:33:39Z</time>
      </trkpt>
      <trkpt lat="45.70533" lon="4.55542">
        <ele>862.8</ele>
        <time>2026-08-26T09:33:40Z</time>
      </trkpt>
      <trkpt lat="45.70535" lon="4.55539">
        <ele>863</ele>
        <time>2026-08-26T09:33:41Z</time>
      </trkpt>
      <trkpt lat="45.70537" lon="4.55536">
        <ele>863.2</ele>
        <time>2026-08-26T09:33:42Z</time>
      </trkpt>
      <trkpt lat="45.70539" lon="4.55533">
        <ele>863.2</ele>
        <time>2026-08-26T09:33:43Z</time>
      </trkpt>
      <trkpt lat="45.70541" lon="4.55531">
        <ele>863.4</ele>
        <time>2026-08-26T09:33:44Z</time>
      </trkpt>
      <trkpt lat="45.70544" lon="4.55528">
        <ele>863.6</ele>
        <time>2026-08-26T09:33:45Z</time>
      </trkpt>
      <trkpt lat="45.70546" lon="4.55525">
        <ele>863.8</ele>
        <time>2026-08-26T09:33:46Z</time>
      </trkpt>
      <trkpt lat="45.70549" lon="4.55522">
        <ele>863.8</ele>
        <time>2026-08-26T09:33:47Z</time>
      </trkpt>
      <trkpt lat="45.70551" lon="4.5552">
        <ele>864</ele>
        <time>2026-08-26T09:33:48Z</time>
      </trkpt>
      <trkpt lat="45.70554" lon="4.55518">
        <ele>864</ele>
        <time>2026-08-26T09:33:49Z</time>
      </trkpt>
      <trkpt lat="45.70557" lon="4.55515">
        <ele>864.2</ele>
        <time>2026-08-26T09:33:50Z</time>
      </trkpt>
      <trkpt lat="45.7056" lon="4.55512">
        <ele>864.2</ele>
        <time>2026-08-26T09:33:51Z</time>
      </trkpt>
      <trkpt lat="45.70562" lon="4.5551">
        <ele>864.4</ele>
        <time>2026-08-26T09:33:52Z</time>
      </trkpt>
      <trkpt lat="45.70565" lon="4.55508">
        <ele>864.4</ele>
        <time>2026-08-26T09:33:53Z</time>
      </trkpt>
      <trkpt lat="45.70568" lon="4.55506">
        <ele>864.6</ele>
        <time>2026-08-26T09:33:54Z</time>
      </trkpt>
      <trkpt lat="45.70571" lon="4.55504">
        <ele>864.6</ele>
        <time>2026-08-26T09:33:55Z</time>
      </trkpt>
      <trkpt lat="45.70574" lon="4.55502">
        <ele>864.8</ele>
        <time>2026-08-26T09:33:56Z</time>
      </trkpt>
      <trkpt lat="45.70578" lon="4.555">
        <ele>864.8</ele>
        <time>2026-08-26T09:33:57Z</time>
      </trkpt>
      <trkpt lat="45.70581" lon="4.55499">
        <ele>865</ele>
        <time>2026-08-26T09:33:58Z</time>
      </trkpt>
      <trkpt lat="45.70583" lon="4.55497">
        <ele>865</ele>
        <time>2026-08-26T09:33:59Z</time>
      </trkpt>
      <trkpt lat="45.70586" lon="4.55495">
        <ele>865.2</ele>
        <time>2026-08-26T09:34:00Z</time>
      </trkpt>
      <trkpt lat="45.70589" lon="4.55493">
        <ele>865.4</ele>
        <time>2026-08-26T09:34:01Z</time>
      </trkpt>
      <trkpt lat="45.70592" lon="4.55492">
        <ele>865.4</ele>
        <time>2026-08-26T09:34:02Z</time>
      </trkpt>
      <trkpt lat="45.70595" lon="4.55491">
        <ele>865.6</ele>
        <time>2026-08-26T09:34:03Z</time>
      </trkpt>
      <trkpt lat="45.70598" lon="4.55489">
        <ele>865.8</ele>
        <time>2026-08-26T09:34:04Z</time>
      </trkpt>
      <trkpt lat="45.70601" lon="4.55488">
        <ele>866</ele>
        <time>2026-08-26T09:34:05Z</time>
      </trkpt>
      <trkpt lat="45.70604" lon="4.55486">
        <ele>866</ele>
        <time>2026-08-26T09:34:06Z</time>
      </trkpt>
      <trkpt lat="45.70607" lon="4.55485">
        <ele>866.2</ele>
        <time>2026-08-26T09:34:07Z</time>
      </trkpt>
      <trkpt lat="45.7061" lon="4.55484">
        <ele>866.2</ele>
        <time>2026-08-26T09:34:08Z</time>
      </trkpt>
      <trkpt lat="45.70612" lon="4.55483">
        <ele>866.4</ele>
        <time>2026-08-26T09:34:09Z</time>
      </trkpt>
      <trkpt lat="45.70614" lon="4.55482">
        <ele>866.4</ele>
        <time>2026-08-26T09:34:10Z</time>
      </trkpt>
      <trkpt lat="45.70616" lon="4.55481">
        <ele>866.6</ele>
        <time>2026-08-26T09:34:11Z</time>
      </trkpt>
      <trkpt lat="45.70619" lon="4.5548">
        <ele>866.6</ele>
        <time>2026-08-26T09:34:12Z</time>
      </trkpt>
      <trkpt lat="45.70622" lon="4.5548">
        <ele>866.6</ele>
        <time>2026-08-26T09:34:13Z</time>
      </trkpt>
      <trkpt lat="45.70625" lon="4.55479">
        <ele>866.6</ele>
        <time>2026-08-26T09:34:14Z</time>
      </trkpt>
      <trkpt lat="45.70628" lon="4.55478">
        <ele>866.4</ele>
        <time>2026-08-26T09:34:15Z</time>
      </trkpt>
      <trkpt lat="45.70632" lon="4.55478">
        <ele>866.4</ele>
        <time>2026-08-26T09:34:16Z</time>
      </trkpt>
      <trkpt lat="45.70636" lon="4.55478">
        <ele>866.2</ele>
        <time>2026-08-26T09:34:17Z</time>
      </trkpt>
      <trkpt lat="45.7064" lon="4.55477">
        <ele>866.2</ele>
        <time>2026-08-26T09:34:18Z</time>
      </trkpt>
      <trkpt lat="45.70644" lon="4.55476">
        <ele>866</ele>
        <time>2026-08-26T09:34:19Z</time>
      </trkpt>
      <trkpt lat="45.70648" lon="4.55476">
        <ele>865.8</ele>
        <time>2026-08-26T09:34:20Z</time>
      </trkpt>
      <trkpt lat="45.70652" lon="4.55476">
        <ele>865.8</ele>
        <time>2026-08-26T09:34:21Z</time>
      </trkpt>
      <trkpt lat="45.70657" lon="4.55476">
        <ele>865.6</ele>
        <time>2026-08-26T09:34:22Z</time>
      </trkpt>
      <trkpt lat="45.70661" lon="4.55476">
        <ele>865.6</ele>
        <time>2026-08-26T09:34:23Z</time>
      </trkpt>
      <trkpt lat="45.70666" lon="4.55476">
        <ele>865.6</ele>
        <time>2026-08-26T09:34:24Z</time>
      </trkpt>
      <trkpt lat="45.70671" lon="4.55475">
        <ele>865.6</ele>
        <time>2026-08-26T09:34:25Z</time>
      </trkpt>
      <trkpt lat="45.70676" lon="4.55475">
        <ele>865.6</ele>
        <time>2026-08-26T09:34:26Z</time>
      </trkpt>
      <trkpt lat="45.70681" lon="4.55475">
        <ele>865.6</ele>
        <time>2026-08-26T09:34:27Z</time>
      </trkpt>
      <trkpt lat="45.70687" lon="4.55475">
        <ele>865.4</ele>
        <time>2026-08-26T09:34:28Z</time>
      </trkpt>
      <trkpt lat="45.70692" lon="4.55475">
        <ele>865.4</ele>
        <time>2026-08-26T09:34:29Z</time>
      </trkpt>
      <trkpt lat="45.70697" lon="4.55475">
        <ele>865.2</ele>
        <time>2026-08-26T09:34:30Z</time>
      </trkpt>
      <trkpt lat="45.70703" lon="4.55475">
        <ele>865.2</ele>
        <time>2026-08-26T09:34:31Z</time>
      </trkpt>
      <trkpt lat="45.70709" lon="4.55474">
        <ele>865</ele>
        <time>2026-08-26T09:34:32Z</time>
      </trkpt>
      <trkpt lat="45.70714" lon="4.55473">
        <ele>865</ele>
        <time>2026-08-26T09:34:33Z</time>
      </trkpt>
      <trkpt lat="45.7072" lon="4.55472">
        <ele>864.8</ele>
        <time>2026-08-26T09:34:34Z</time>
      </trkpt>
      <trkpt lat="45.70726" lon="4.55472">
        <ele>864.8</ele>
        <time>2026-08-26T09:34:35Z</time>
      </trkpt>
      <trkpt lat="45.70732" lon="4.55472">
        <ele>864.8</ele>
        <time>2026-08-26T09:34:36Z</time>
      </trkpt>
      <trkpt lat="45.70738" lon="4.55471">
        <ele>864.6</ele>
        <time>2026-08-26T09:34:37Z</time>
      </trkpt>
      <trkpt lat="45.70744" lon="4.5547">
        <ele>864.6</ele>
        <time>2026-08-26T09:34:38Z</time>
      </trkpt>
      <trkpt lat="45.70751" lon="4.55469">
        <ele>864.4</ele>
        <time>2026-08-26T09:34:39Z</time>
      </trkpt>
      <trkpt lat="45.70757" lon="4.55469">
        <ele>864.4</ele>
        <time>2026-08-26T09:34:40Z</time>
      </trkpt>
      <trkpt lat="45.70763" lon="4.55468">
        <ele>864.4</ele>
        <time>2026-08-26T09:34:41Z</time>
      </trkpt>
      <trkpt lat="45.70769" lon="4.55468">
        <ele>864.2</ele>
        <time>2026-08-26T09:34:42Z</time>
      </trkpt>
      <trkpt lat="45.70775" lon="4.55467">
        <ele>864.2</ele>
        <time>2026-08-26T09:34:43Z</time>
      </trkpt>
      <trkpt lat="45.7078" lon="4.55466">
        <ele>864.2</ele>
        <time>2026-08-26T09:34:44Z</time>
      </trkpt>
      <trkpt lat="45.70786" lon="4.55466">
        <ele>864</ele>
        <time>2026-08-26T09:34:45Z</time>
      </trkpt>
      <trkpt lat="45.70793" lon="4.55466">
        <ele>864</ele>
        <time>2026-08-26T09:34:46Z</time>
      </trkpt>
      <trkpt lat="45.70799" lon="4.55465">
        <ele>864</ele>
        <time>2026-08-26T09:34:47Z</time>
      </trkpt>
      <trkpt lat="45.70806" lon="4.55465">
        <ele>863.8</ele>
        <time>2026-08-26T09:34:48Z</time>
      </trkpt>
      <trkpt lat="45.70812" lon="4.55464">
        <ele>863.8</ele>
        <time>2026-08-26T09:34:49Z</time>
      </trkpt>
      <trkpt lat="45.70819" lon="4.55464">
        <ele>863.6</ele>
        <time>2026-08-26T09:34:50Z</time>
      </trkpt>
      <trkpt lat="45.70826" lon="4.55463">
        <ele>863.4</ele>
        <time>2026-08-26T09:34:51Z</time>
      </trkpt>
      <trkpt lat="45.70833" lon="4.55463">
        <ele>863.2</ele>
        <time>2026-08-26T09:34:52Z</time>
      </trkpt>
      <trkpt lat="45.7084" lon="4.55462">
        <ele>862.8</ele>
        <time>2026-08-26T09:34:53Z</time>
      </trkpt>
      <trkpt lat="45.70847" lon="4.55462">
        <ele>862.6</ele>
        <time>2026-08-26T09:34:54Z</time>
      </trkpt>
      <trkpt lat="45.70855" lon="4.55461">
        <ele>862.6</ele>
        <time>2026-08-26T09:34:55Z</time>
      </trkpt>
      <trkpt lat="45.70862" lon="4.5546">
        <ele>862.4</ele>
        <time>2026-08-26T09:34:56Z</time>
      </trkpt>
      <trkpt lat="45.70869" lon="4.5546">
        <ele>862.4</ele>
        <time>2026-08-26T09:34:57Z</time>
      </trkpt>
      <trkpt lat="45.70876" lon="4.5546">
        <ele>862.2</ele>
        <time>2026-08-26T09:34:58Z</time>
      </trkpt>
      <trkpt lat="45.70883" lon="4.55459">
        <ele>862</ele>
        <time>2026-08-26T09:34:59Z</time>
      </trkpt>
      <trkpt lat="45.7089" lon="4.55459">
        <ele>862</ele>
        <time>2026-08-26T09:35:00Z</time>
      </trkpt>
      <trkpt lat="45.70897" lon="4.55459">
        <ele>861.8</ele>
        <time>2026-08-26T09:35:01Z</time>
      </trkpt>
      <trkpt lat="45.70905" lon="4.55459">
        <ele>861.8</ele>
        <time>2026-08-26T09:35:02Z</time>
      </trkpt>
      <trkpt lat="45.70912" lon="4.55458">
        <ele>861.6</ele>
        <time>2026-08-26T09:35:03Z</time>
      </trkpt>
      <trkpt lat="45.70919" lon="4.55457">
        <ele>861.6</ele>
        <time>2026-08-26T09:35:04Z</time>
      </trkpt>
      <trkpt lat="45.70926" lon="4.55456">
        <ele>861.6</ele>
        <time>2026-08-26T09:35:05Z</time>
      </trkpt>
      <trkpt lat="45.70933" lon="4.55455">
        <ele>861.4</ele>
        <time>2026-08-26T09:35:06Z</time>
      </trkpt>
      <trkpt lat="45.7094" lon="4.55455">
        <ele>861.4</ele>
        <time>2026-08-26T09:35:07Z</time>
      </trkpt>
      <trkpt lat="45.70947" lon="4.55455">
        <ele>861.4</ele>
        <time>2026-08-26T09:35:08Z</time>
      </trkpt>
      <trkpt lat="45.70954" lon="4.55455">
        <ele>861.2</ele>
        <time>2026-08-26T09:35:09Z</time>
      </trkpt>
      <trkpt lat="45.70961" lon="4.55455">
        <ele>861.2</ele>
        <time>2026-08-26T09:35:10Z</time>
      </trkpt>
      <trkpt lat="45.70968" lon="4.55454">
        <ele>861.2</ele>
        <time>2026-08-26T09:35:11Z</time>
      </trkpt>
      <trkpt lat="45.70974" lon="4.55454">
        <ele>861</ele>
        <time>2026-08-26T09:35:12Z</time>
      </trkpt>
      <trkpt lat="45.70981" lon="4.55453">
        <ele>861</ele>
        <time>2026-08-26T09:35:13Z</time>
      </trkpt>
      <trkpt lat="45.70988" lon="4.55453">
        <ele>861</ele>
        <time>2026-08-26T09:35:14Z</time>
      </trkpt>
      <trkpt lat="45.70994" lon="4.55452">
        <ele>861</ele>
        <time>2026-08-26T09:35:15Z</time>
      </trkpt>
      <trkpt lat="45.71" lon="4.55451">
        <ele>861.2</ele>
        <time>2026-08-26T09:35:16Z</time>
      </trkpt>
      <trkpt lat="45.71007" lon="4.55451">
        <ele>861.4</ele>
        <time>2026-08-26T09:35:17Z</time>
      </trkpt>
      <trkpt lat="45.71013" lon="4.5545">
        <ele>861.6</ele>
        <time>2026-08-26T09:35:18Z</time>
      </trkpt>
      <trkpt lat="45.71019" lon="4.5545">
        <ele>861.8</ele>
        <time>2026-08-26T09:35:19Z</time>
      </trkpt>
      <trkpt lat="45.71025" lon="4.55449">
        <ele>862</ele>
        <time>2026-08-26T09:35:20Z</time>
      </trkpt>
      <trkpt lat="45.71031" lon="4.55448">
        <ele>862.2</ele>
        <time>2026-08-26T09:35:21Z</time>
      </trkpt>
      <trkpt lat="45.71037" lon="4.55448">
        <ele>862.2</ele>
        <time>2026-08-26T09:35:22Z</time>
      </trkpt>
      <trkpt lat="45.71044" lon="4.55447">
        <ele>862.2</ele>
        <time>2026-08-26T09:35:23Z</time>
      </trkpt>
      <trkpt lat="45.7105" lon="4.55446">
        <ele>862.2</ele>
        <time>2026-08-26T09:35:24Z</time>
      </trkpt>
      <trkpt lat="45.71056" lon="4.55446">
        <ele>862</ele>
        <time>2026-08-26T09:35:25Z</time>
      </trkpt>
      <trkpt lat="45.71063" lon="4.55445">
        <ele>861.6</ele>
        <time>2026-08-26T09:35:26Z</time>
      </trkpt>
      <trkpt lat="45.71069" lon="4.55445">
        <ele>861.4</ele>
        <time>2026-08-26T09:35:27Z</time>
      </trkpt>
      <trkpt lat="45.71075" lon="4.55445">
        <ele>861.2</ele>
        <time>2026-08-26T09:35:28Z</time>
      </trkpt>
      <trkpt lat="45.71081" lon="4.55445">
        <ele>861</ele>
        <time>2026-08-26T09:35:29Z</time>
      </trkpt>
      <trkpt lat="45.71088" lon="4.55444">
        <ele>860.8</ele>
        <time>2026-08-26T09:35:30Z</time>
      </trkpt>
      <trkpt lat="45.71095" lon="4.55445">
        <ele>860.6</ele>
        <time>2026-08-26T09:35:31Z</time>
      </trkpt>
      <trkpt lat="45.71101" lon="4.55445">
        <ele>860.2</ele>
        <time>2026-08-26T09:35:32Z</time>
      </trkpt>
      <trkpt lat="45.71108" lon="4.55446">
        <ele>860</ele>
        <time>2026-08-26T09:35:33Z</time>
      </trkpt>
      <trkpt lat="45.71116" lon="4.55448">
        <ele>859.6</ele>
        <time>2026-08-26T09:35:34Z</time>
      </trkpt>
      <trkpt lat="45.71123" lon="4.5545">
        <ele>859.2</ele>
        <time>2026-08-26T09:35:35Z</time>
      </trkpt>
      <trkpt lat="45.71131" lon="4.55453">
        <ele>858.8</ele>
        <time>2026-08-26T09:35:36Z</time>
      </trkpt>
      <trkpt lat="45.71139" lon="4.55455">
        <ele>858.6</ele>
        <time>2026-08-26T09:35:37Z</time>
      </trkpt>
      <trkpt lat="45.71147" lon="4.55459">
        <ele>858</ele>
        <time>2026-08-26T09:35:38Z</time>
      </trkpt>
      <trkpt lat="45.71156" lon="4.55462">
        <ele>857.4</ele>
        <time>2026-08-26T09:35:39Z</time>
      </trkpt>
      <trkpt lat="45.71164" lon="4.55466">
        <ele>856.8</ele>
        <time>2026-08-26T09:35:40Z</time>
      </trkpt>
      <trkpt lat="45.71173" lon="4.5547">
        <ele>856.2</ele>
        <time>2026-08-26T09:35:41Z</time>
      </trkpt>
      <trkpt lat="45.71181" lon="4.55474">
        <ele>855.6</ele>
        <time>2026-08-26T09:35:42Z</time>
      </trkpt>
      <trkpt lat="45.7119" lon="4.5548">
        <ele>855</ele>
        <time>2026-08-26T09:35:43Z</time>
      </trkpt>
      <trkpt lat="45.71198" lon="4.55487">
        <ele>854.6</ele>
        <time>2026-08-26T09:35:44Z</time>
      </trkpt>
      <trkpt lat="45.71205" lon="4.55496">
        <ele>854.4</ele>
        <time>2026-08-26T09:35:45Z</time>
      </trkpt>
      <trkpt lat="45.71212" lon="4.55506">
        <ele>854</ele>
        <time>2026-08-26T09:35:46Z</time>
      </trkpt>
      <trkpt lat="45.71218" lon="4.55517">
        <ele>853.6</ele>
        <time>2026-08-26T09:35:47Z</time>
      </trkpt>
      <trkpt lat="45.71224" lon="4.55529">
        <ele>853.4</ele>
        <time>2026-08-26T09:35:48Z</time>
      </trkpt>
      <trkpt lat="45.7123" lon="4.5554">
        <ele>853</ele>
        <time>2026-08-26T09:35:49Z</time>
      </trkpt>
      <trkpt lat="45.71236" lon="4.55552">
        <ele>852.6</ele>
        <time>2026-08-26T09:35:50Z</time>
      </trkpt>
      <trkpt lat="45.71241" lon="4.55564">
        <ele>852.2</ele>
        <time>2026-08-26T09:35:51Z</time>
      </trkpt>
      <trkpt lat="45.71247" lon="4.55576">
        <ele>851.4</ele>
        <time>2026-08-26T09:35:52Z</time>
      </trkpt>
      <trkpt lat="45.71253" lon="4.55588">
        <ele>850.6</ele>
        <time>2026-08-26T09:35:53Z</time>
      </trkpt>
      <trkpt lat="45.71258" lon="4.55599">
        <ele>850</ele>
        <time>2026-08-26T09:35:54Z</time>
      </trkpt>
      <trkpt lat="45.71264" lon="4.55611">
        <ele>849.4</ele>
        <time>2026-08-26T09:35:55Z</time>
      </trkpt>
      <trkpt lat="45.7127" lon="4.55622">
        <ele>848.8</ele>
        <time>2026-08-26T09:35:56Z</time>
      </trkpt>
      <trkpt lat="45.71276" lon="4.55634">
        <ele>848.6</ele>
        <time>2026-08-26T09:35:57Z</time>
      </trkpt>
      <trkpt lat="45.71281" lon="4.55645">
        <ele>848.4</ele>
        <time>2026-08-26T09:35:58Z</time>
      </trkpt>
      <trkpt lat="45.71287" lon="4.55656">
        <ele>847.8</ele>
        <time>2026-08-26T09:35:59Z</time>
      </trkpt>
      <trkpt lat="45.71293" lon="4.55667">
        <ele>847.4</ele>
        <time>2026-08-26T09:36:00Z</time>
      </trkpt>
      <trkpt lat="45.71299" lon="4.55679">
        <ele>847</ele>
        <time>2026-08-26T09:36:01Z</time>
      </trkpt>
      <trkpt lat="45.71304" lon="4.5569">
        <ele>846.4</ele>
        <time>2026-08-26T09:36:02Z</time>
      </trkpt>
      <trkpt lat="45.7131" lon="4.55701">
        <ele>846</ele>
        <time>2026-08-26T09:36:03Z</time>
      </trkpt>
      <trkpt lat="45.71315" lon="4.55713">
        <ele>845.6</ele>
        <time>2026-08-26T09:36:04Z</time>
      </trkpt>
      <trkpt lat="45.71321" lon="4.55724">
        <ele>845.6</ele>
        <time>2026-08-26T09:36:05Z</time>
      </trkpt>
      <trkpt lat="45.71327" lon="4.55735">
        <ele>845.6</ele>
        <time>2026-08-26T09:36:06Z</time>
      </trkpt>
      <trkpt lat="45.71332" lon="4.55746">
        <ele>845.4</ele>
        <time>2026-08-26T09:36:07Z</time>
      </trkpt>
      <trkpt lat="45.71338" lon="4.55757">
        <ele>845.4</ele>
        <time>2026-08-26T09:36:08Z</time>
      </trkpt>
      <trkpt lat="45.71344" lon="4.55768">
        <ele>845.2</ele>
        <time>2026-08-26T09:36:09Z</time>
      </trkpt>
      <trkpt lat="45.7135" lon="4.55779">
        <ele>845</ele>
        <time>2026-08-26T09:36:10Z</time>
      </trkpt>
      <trkpt lat="45.71356" lon="4.5579">
        <ele>844.6</ele>
        <time>2026-08-26T09:36:11Z</time>
      </trkpt>
      <trkpt lat="45.71363" lon="4.558">
        <ele>844.4</ele>
        <time>2026-08-26T09:36:12Z</time>
      </trkpt>
      <trkpt lat="45.7137" lon="4.5581">
        <ele>844</ele>
        <time>2026-08-26T09:36:13Z</time>
      </trkpt>
      <trkpt lat="45.71378" lon="4.5582">
        <ele>843.4</ele>
        <time>2026-08-26T09:36:14Z</time>
      </trkpt>
      <trkpt lat="45.71386" lon="4.55831">
        <ele>842.6</ele>
        <time>2026-08-26T09:36:15Z</time>
      </trkpt>
      <trkpt lat="45.71394" lon="4.55841">
        <ele>841.6</ele>
        <time>2026-08-26T09:36:16Z</time>
      </trkpt>
      <trkpt lat="45.71401" lon="4.55851">
        <ele>840.6</ele>
        <time>2026-08-26T09:36:17Z</time>
      </trkpt>
      <trkpt lat="45.71409" lon="4.55861">
        <ele>839.8</ele>
        <time>2026-08-26T09:36:18Z</time>
      </trkpt>
      <trkpt lat="45.71417" lon="4.55873">
        <ele>839</ele>
        <time>2026-08-26T09:36:19Z</time>
      </trkpt>
      <trkpt lat="45.71423" lon="4.55884">
        <ele>838.4</ele>
        <time>2026-08-26T09:36:20Z</time>
      </trkpt>
      <trkpt lat="45.7143" lon="4.55897">
        <ele>838.2</ele>
        <time>2026-08-26T09:36:21Z</time>
      </trkpt>
      <trkpt lat="45.71435" lon="4.5591">
        <ele>837.6</ele>
        <time>2026-08-26T09:36:22Z</time>
      </trkpt>
      <trkpt lat="45.7144" lon="4.55923">
        <ele>837.4</ele>
        <time>2026-08-26T09:36:23Z</time>
      </trkpt>
      <trkpt lat="45.71443" lon="4.55937">
        <ele>837</ele>
        <time>2026-08-26T09:36:24Z</time>
      </trkpt>
      <trkpt lat="45.71446" lon="4.55951">
        <ele>836.6</ele>
        <time>2026-08-26T09:36:25Z</time>
      </trkpt>
      <trkpt lat="45.71448" lon="4.55966">
        <ele>836.2</ele>
        <time>2026-08-26T09:36:26Z</time>
      </trkpt>
      <trkpt lat="45.71451" lon="4.55981">
        <ele>836</ele>
        <time>2026-08-26T09:36:27Z</time>
      </trkpt>
      <trkpt lat="45.71452" lon="4.55995">
        <ele>835.8</ele>
        <time>2026-08-26T09:36:28Z</time>
      </trkpt>
      <trkpt lat="45.71453" lon="4.5601">
        <ele>835.2</ele>
        <time>2026-08-26T09:36:29Z</time>
      </trkpt>
      <trkpt lat="45.71454" lon="4.56025">
        <ele>834.6</ele>
        <time>2026-08-26T09:36:30Z</time>
      </trkpt>
      <trkpt lat="45.71455" lon="4.5604">
        <ele>834</ele>
        <time>2026-08-26T09:36:31Z</time>
      </trkpt>
      <trkpt lat="45.71455" lon="4.56054">
        <ele>833.4</ele>
        <time>2026-08-26T09:36:32Z</time>
      </trkpt>
      <trkpt lat="45.71456" lon="4.56069">
        <ele>833</ele>
        <time>2026-08-26T09:36:33Z</time>
      </trkpt>
      <trkpt lat="45.71458" lon="4.56084">
        <ele>832.6</ele>
        <time>2026-08-26T09:36:34Z</time>
      </trkpt>
      <trkpt lat="45.71461" lon="4.56098">
        <ele>832.4</ele>
        <time>2026-08-26T09:36:35Z</time>
      </trkpt>
      <trkpt lat="45.71465" lon="4.56112">
        <ele>832</ele>
        <time>2026-08-26T09:36:36Z</time>
      </trkpt>
      <trkpt lat="45.71469" lon="4.56126">
        <ele>831.6</ele>
        <time>2026-08-26T09:36:37Z</time>
      </trkpt>
      <trkpt lat="45.71472" lon="4.56141">
        <ele>831</ele>
        <time>2026-08-26T09:36:38Z</time>
      </trkpt>
      <trkpt lat="45.71476" lon="4.56155">
        <ele>830.2</ele>
        <time>2026-08-26T09:36:39Z</time>
      </trkpt>
      <trkpt lat="45.71479" lon="4.5617">
        <ele>829.4</ele>
        <time>2026-08-26T09:36:40Z</time>
      </trkpt>
      <trkpt lat="45.71482" lon="4.56185">
        <ele>828.6</ele>
        <time>2026-08-26T09:36:41Z</time>
      </trkpt>
      <trkpt lat="45.71484" lon="4.562">
        <ele>827.8</ele>
        <time>2026-08-26T09:36:42Z</time>
      </trkpt>
      <trkpt lat="45.71485" lon="4.56215">
        <ele>827.2</ele>
        <time>2026-08-26T09:36:43Z</time>
      </trkpt>
      <trkpt lat="45.71486" lon="4.5623">
        <ele>826.6</ele>
        <time>2026-08-26T09:36:44Z</time>
      </trkpt>
      <trkpt lat="45.71486" lon="4.56245">
        <ele>825.8</ele>
        <time>2026-08-26T09:36:45Z</time>
      </trkpt>
      <trkpt lat="45.71485" lon="4.5626">
        <ele>825.4</ele>
        <time>2026-08-26T09:36:46Z</time>
      </trkpt>
      <trkpt lat="45.71484" lon="4.56276">
        <ele>825</ele>
        <time>2026-08-26T09:36:47Z</time>
      </trkpt>
      <trkpt lat="45.71482" lon="4.56291">
        <ele>824.8</ele>
        <time>2026-08-26T09:36:48Z</time>
      </trkpt>
      <trkpt lat="45.71479" lon="4.56306">
        <ele>824.4</ele>
        <time>2026-08-26T09:36:49Z</time>
      </trkpt>
      <trkpt lat="45.71477" lon="4.56321">
        <ele>824</ele>
        <time>2026-08-26T09:36:50Z</time>
      </trkpt>
      <trkpt lat="45.71475" lon="4.56336">
        <ele>823.4</ele>
        <time>2026-08-26T09:36:51Z</time>
      </trkpt>
      <trkpt lat="45.71472" lon="4.56351">
        <ele>822.6</ele>
        <time>2026-08-26T09:36:52Z</time>
      </trkpt>
      <trkpt lat="45.7147" lon="4.56366">
        <ele>821.8</ele>
        <time>2026-08-26T09:36:53Z</time>
      </trkpt>
      <trkpt lat="45.71468" lon="4.5638">
        <ele>821</ele>
        <time>2026-08-26T09:36:54Z</time>
      </trkpt>
      <trkpt lat="45.71466" lon="4.56395">
        <ele>820.4</ele>
        <time>2026-08-26T09:36:55Z</time>
      </trkpt>
      <trkpt lat="45.71465" lon="4.5641">
        <ele>820</ele>
        <time>2026-08-26T09:36:56Z</time>
      </trkpt>
      <trkpt lat="45.71463" lon="4.56424">
        <ele>819.4</ele>
        <time>2026-08-26T09:36:57Z</time>
      </trkpt>
      <trkpt lat="45.71463" lon="4.56439">
        <ele>818.6</ele>
        <time>2026-08-26T09:36:58Z</time>
      </trkpt>
      <trkpt lat="45.71463" lon="4.56453">
        <ele>817.8</ele>
        <time>2026-08-26T09:36:59Z</time>
      </trkpt>
      <trkpt lat="45.71463" lon="4.56467">
        <ele>816.8</ele>
        <time>2026-08-26T09:37:00Z</time>
      </trkpt>
      <trkpt lat="45.71464" lon="4.5648">
        <ele>816</ele>
        <time>2026-08-26T09:37:01Z</time>
      </trkpt>
      <trkpt lat="45.71465" lon="4.56493">
        <ele>815.6</ele>
        <time>2026-08-26T09:37:02Z</time>
      </trkpt>
      <trkpt lat="45.71466" lon="4.56507">
        <ele>815.6</ele>
        <time>2026-08-26T09:37:03Z</time>
      </trkpt>
      <trkpt lat="45.71467" lon="4.5652">
        <ele>816</ele>
        <time>2026-08-26T09:37:04Z</time>
      </trkpt>
      <trkpt lat="45.71468" lon="4.56534">
        <ele>816.4</ele>
        <time>2026-08-26T09:37:05Z</time>
      </trkpt>
      <trkpt lat="45.7147" lon="4.56547">
        <ele>816.8</ele>
        <time>2026-08-26T09:37:06Z</time>
      </trkpt>
      <trkpt lat="45.71472" lon="4.56561">
        <ele>816.6</ele>
        <time>2026-08-26T09:37:07Z</time>
      </trkpt>
      <trkpt lat="45.71474" lon="4.56575">
        <ele>816.4</ele>
        <time>2026-08-26T09:37:08Z</time>
      </trkpt>
      <trkpt lat="45.71476" lon="4.56588">
        <ele>816</ele>
        <time>2026-08-26T09:37:09Z</time>
      </trkpt>
      <trkpt lat="45.71478" lon="4.56602">
        <ele>815.4</ele>
        <time>2026-08-26T09:37:10Z</time>
      </trkpt>
      <trkpt lat="45.71481" lon="4.56616">
        <ele>815</ele>
        <time>2026-08-26T09:37:11Z</time>
      </trkpt>
      <trkpt lat="45.71483" lon="4.56631">
        <ele>814.4</ele>
        <time>2026-08-26T09:37:12Z</time>
      </trkpt>
      <trkpt lat="45.71486" lon="4.56646">
        <ele>813.6</ele>
        <time>2026-08-26T09:37:13Z</time>
      </trkpt>
      <trkpt lat="45.71488" lon="4.56661">
        <ele>813</ele>
        <time>2026-08-26T09:37:14Z</time>
      </trkpt>
      <trkpt lat="45.7149" lon="4.56676">
        <ele>812</ele>
        <time>2026-08-26T09:37:15Z</time>
      </trkpt>
      <trkpt lat="45.71491" lon="4.56692">
        <ele>811.2</ele>
        <time>2026-08-26T09:37:16Z</time>
      </trkpt>
      <trkpt lat="45.71491" lon="4.56707">
        <ele>810.4</ele>
        <time>2026-08-26T09:37:17Z</time>
      </trkpt>
      <trkpt lat="45.71491" lon="4.56723">
        <ele>809.4</ele>
        <time>2026-08-26T09:37:18Z</time>
      </trkpt>
      <trkpt lat="45.71489" lon="4.56739">
        <ele>809</ele>
        <time>2026-08-26T09:37:19Z</time>
      </trkpt>
      <trkpt lat="45.71486" lon="4.56754">
        <ele>807.6</ele>
        <time>2026-08-26T09:37:20Z</time>
      </trkpt>
      <trkpt lat="45.71482" lon="4.56768">
        <ele>806.6</ele>
        <time>2026-08-26T09:37:21Z</time>
      </trkpt>
      <trkpt lat="45.71478" lon="4.56782">
        <ele>805.4</ele>
        <time>2026-08-26T09:37:22Z</time>
      </trkpt>
      <trkpt lat="45.71474" lon="4.56795">
        <ele>804.6</ele>
        <time>2026-08-26T09:37:23Z</time>
      </trkpt>
      <trkpt lat="45.71471" lon="4.5681">
        <ele>804</ele>
        <time>2026-08-26T09:37:24Z</time>
      </trkpt>
      <trkpt lat="45.71468" lon="4.56824">
        <ele>803.4</ele>
        <time>2026-08-26T09:37:25Z</time>
      </trkpt>
      <trkpt lat="45.71466" lon="4.56839">
        <ele>803</ele>
        <time>2026-08-26T09:37:26Z</time>
      </trkpt>
      <trkpt lat="45.71465" lon="4.56854">
        <ele>802.4</ele>
        <time>2026-08-26T09:37:27Z</time>
      </trkpt>
      <trkpt lat="45.71465" lon="4.56869">
        <ele>801.8</ele>
        <time>2026-08-26T09:37:28Z</time>
      </trkpt>
      <trkpt lat="45.71464" lon="4.56884">
        <ele>801</ele>
        <time>2026-08-26T09:37:29Z</time>
      </trkpt>
      <trkpt lat="45.71464" lon="4.56898">
        <ele>800.4</ele>
        <time>2026-08-26T09:37:30Z</time>
      </trkpt>
      <trkpt lat="45.71465" lon="4.56913">
        <ele>799.8</ele>
        <time>2026-08-26T09:37:31Z</time>
      </trkpt>
      <trkpt lat="45.71468" lon="4.56927">
        <ele>799.6</ele>
        <time>2026-08-26T09:37:32Z</time>
      </trkpt>
      <trkpt lat="45.71471" lon="4.56942">
        <ele>799.4</ele>
        <time>2026-08-26T09:37:33Z</time>
      </trkpt>
      <trkpt lat="45.71476" lon="4.56956">
        <ele>799</ele>
        <time>2026-08-26T09:37:34Z</time>
      </trkpt>
      <trkpt lat="45.71481" lon="4.5697">
        <ele>798.6</ele>
        <time>2026-08-26T09:37:35Z</time>
      </trkpt>
      <trkpt lat="45.71486" lon="4.56984">
        <ele>798.2</ele>
        <time>2026-08-26T09:37:36Z</time>
      </trkpt>
      <trkpt lat="45.71492" lon="4.56998">
        <ele>797.6</ele>
        <time>2026-08-26T09:37:37Z</time>
      </trkpt>
      <trkpt lat="45.71498" lon="4.57012">
        <ele>796.8</ele>
        <time>2026-08-26T09:37:38Z</time>
      </trkpt>
      <trkpt lat="45.71503" lon="4.57026">
        <ele>796</ele>
        <time>2026-08-26T09:37:39Z</time>
      </trkpt>
      <trkpt lat="45.71509" lon="4.5704">
        <ele>795.4</ele>
        <time>2026-08-26T09:37:40Z</time>
      </trkpt>
      <trkpt lat="45.71514" lon="4.57056">
        <ele>794.8</ele>
        <time>2026-08-26T09:37:41Z</time>
      </trkpt>
      <trkpt lat="45.71518" lon="4.57071">
        <ele>794</ele>
        <time>2026-08-26T09:37:42Z</time>
      </trkpt>
      <trkpt lat="45.71521" lon="4.57087">
        <ele>793.4</ele>
        <time>2026-08-26T09:37:43Z</time>
      </trkpt>
      <trkpt lat="45.71525" lon="4.57103">
        <ele>793</ele>
        <time>2026-08-26T09:37:44Z</time>
      </trkpt>
      <trkpt lat="45.71527" lon="4.57119">
        <ele>791.8</ele>
        <time>2026-08-26T09:37:45Z</time>
      </trkpt>
      <trkpt lat="45.71529" lon="4.57135">
        <ele>791</ele>
        <time>2026-08-26T09:37:46Z</time>
      </trkpt>
      <trkpt lat="45.71532" lon="4.57151">
        <ele>789.8</ele>
        <time>2026-08-26T09:37:47Z</time>
      </trkpt>
      <trkpt lat="45.71535" lon="4.57167">
        <ele>788.8</ele>
        <time>2026-08-26T09:37:48Z</time>
      </trkpt>
      <trkpt lat="45.7154" lon="4.57182">
        <ele>788.6</ele>
        <time>2026-08-26T09:37:49Z</time>
      </trkpt>
      <trkpt lat="45.71545" lon="4.57195">
        <ele>787.8</ele>
        <time>2026-08-26T09:37:50Z</time>
      </trkpt>
      <trkpt lat="45.71551" lon="4.57207">
        <ele>787.2</ele>
        <time>2026-08-26T09:37:51Z</time>
      </trkpt>
      <trkpt lat="45.7156" lon="4.57217">
        <ele>786.8</ele>
        <time>2026-08-26T09:37:52Z</time>
      </trkpt>
      <trkpt lat="45.71569" lon="4.57223">
        <ele>786.2</ele>
        <time>2026-08-26T09:37:53Z</time>
      </trkpt>
      <trkpt lat="45.71578" lon="4.57226">
        <ele>785.4</ele>
        <time>2026-08-26T09:37:54Z</time>
      </trkpt>
      <trkpt lat="45.71588" lon="4.57229">
        <ele>785</ele>
        <time>2026-08-26T09:37:55Z</time>
      </trkpt>
      <trkpt lat="45.71601" lon="4.57221">
        <ele>784.4</ele>
        <time>2026-08-26T09:37:56Z</time>
      </trkpt>
      <trkpt lat="45.71613" lon="4.57215">
        <ele>783.6</ele>
        <time>2026-08-26T09:37:57Z</time>
      </trkpt>
      <trkpt lat="45.71626" lon="4.57209">
        <ele>782.8</ele>
        <time>2026-08-26T09:37:58Z</time>
      </trkpt>
      <trkpt lat="45.71638" lon="4.57203">
        <ele>781.8</ele>
        <time>2026-08-26T09:37:59Z</time>
      </trkpt>
      <trkpt lat="45.71651" lon="4.57196">
        <ele>780.6</ele>
        <time>2026-08-26T09:38:00Z</time>
      </trkpt>
      <trkpt lat="45.71664" lon="4.5719">
        <ele>779.4</ele>
        <time>2026-08-26T09:38:01Z</time>
      </trkpt>
      <trkpt lat="45.71677" lon="4.57183">
        <ele>778.2</ele>
        <time>2026-08-26T09:38:02Z</time>
      </trkpt>
      <trkpt lat="45.71689" lon="4.57178">
        <ele>777.2</ele>
        <time>2026-08-26T09:38:03Z</time>
      </trkpt>
      <trkpt lat="45.71702" lon="4.57172">
        <ele>776.2</ele>
        <time>2026-08-26T09:38:04Z</time>
      </trkpt>
      <trkpt lat="45.71714" lon="4.57166">
        <ele>775.4</ele>
        <time>2026-08-26T09:38:05Z</time>
      </trkpt>
      <trkpt lat="45.71726" lon="4.5716">
        <ele>774.8</ele>
        <time>2026-08-26T09:38:06Z</time>
      </trkpt>
      <trkpt lat="45.71738" lon="4.57155">
        <ele>774.4</ele>
        <time>2026-08-26T09:38:07Z</time>
      </trkpt>
      <trkpt lat="45.7175" lon="4.57148">
        <ele>774</ele>
        <time>2026-08-26T09:38:08Z</time>
      </trkpt>
      <trkpt lat="45.71761" lon="4.57142">
        <ele>773.4</ele>
        <time>2026-08-26T09:38:09Z</time>
      </trkpt>
      <trkpt lat="45.71772" lon="4.57135">
        <ele>772.8</ele>
        <time>2026-08-26T09:38:10Z</time>
      </trkpt>
      <trkpt lat="45.71782" lon="4.57125">
        <ele>772</ele>
        <time>2026-08-26T09:38:11Z</time>
      </trkpt>
      <trkpt lat="45.71791" lon="4.57115">
        <ele>771.4</ele>
        <time>2026-08-26T09:38:12Z</time>
      </trkpt>
      <trkpt lat="45.71801" lon="4.57105">
        <ele>770.6</ele>
        <time>2026-08-26T09:38:13Z</time>
      </trkpt>
      <trkpt lat="45.7181" lon="4.57094">
        <ele>770</ele>
        <time>2026-08-26T09:38:14Z</time>
      </trkpt>
      <trkpt lat="45.71819" lon="4.57084">
        <ele>769.2</ele>
        <time>2026-08-26T09:38:15Z</time>
      </trkpt>
      <trkpt lat="45.71829" lon="4.57077">
        <ele>768.6</ele>
        <time>2026-08-26T09:38:16Z</time>
      </trkpt>
      <trkpt lat="45.71841" lon="4.57075">
        <ele>768</ele>
        <time>2026-08-26T09:38:17Z</time>
      </trkpt>
      <trkpt lat="45.71853" lon="4.57077">
        <ele>767.4</ele>
        <time>2026-08-26T09:38:18Z</time>
      </trkpt>
      <trkpt lat="45.71864" lon="4.57082">
        <ele>767.2</ele>
        <time>2026-08-26T09:38:19Z</time>
      </trkpt>
      <trkpt lat="45.71872" lon="4.57091">
        <ele>766.6</ele>
        <time>2026-08-26T09:38:20Z</time>
      </trkpt>
      <trkpt lat="45.71879" lon="4.57103">
        <ele>766.2</ele>
        <time>2026-08-26T09:38:21Z</time>
      </trkpt>
      <trkpt lat="45.71882" lon="4.57117">
        <ele>766</ele>
        <time>2026-08-26T09:38:22Z</time>
      </trkpt>
      <trkpt lat="45.7188" lon="4.57131">
        <ele>765.6</ele>
        <time>2026-08-26T09:38:23Z</time>
      </trkpt>
      <trkpt lat="45.71876" lon="4.57145">
        <ele>765.4</ele>
        <time>2026-08-26T09:38:24Z</time>
      </trkpt>
      <trkpt lat="45.71871" lon="4.57158">
        <ele>765.4</ele>
        <time>2026-08-26T09:38:25Z</time>
      </trkpt>
      <trkpt lat="45.71865" lon="4.57169">
        <ele>765.4</ele>
        <time>2026-08-26T09:38:26Z</time>
      </trkpt>
      <trkpt lat="45.7186" lon="4.57181">
        <ele>765</ele>
        <time>2026-08-26T09:38:27Z</time>
      </trkpt>
      <trkpt lat="45.71855" lon="4.57193">
        <ele>764.8</ele>
        <time>2026-08-26T09:38:28Z</time>
      </trkpt>
      <trkpt lat="45.7185" lon="4.57204">
        <ele>764.2</ele>
        <time>2026-08-26T09:38:29Z</time>
      </trkpt>
      <trkpt lat="45.71845" lon="4.57215">
        <ele>763.8</ele>
        <time>2026-08-26T09:38:30Z</time>
      </trkpt>
      <trkpt lat="45.71839" lon="4.57226">
        <ele>763.4</ele>
        <time>2026-08-26T09:38:31Z</time>
      </trkpt>
      <trkpt lat="45.71834" lon="4.57237">
        <ele>763.2</ele>
        <time>2026-08-26T09:38:32Z</time>
      </trkpt>
      <trkpt lat="45.71828" lon="4.57248">
        <ele>762.8</ele>
        <time>2026-08-26T09:38:33Z</time>
      </trkpt>
      <trkpt lat="45.71822" lon="4.57257">
        <ele>762.4</ele>
        <time>2026-08-26T09:38:34Z</time>
      </trkpt>
      <trkpt lat="45.71815" lon="4.57266">
        <ele>762.2</ele>
        <time>2026-08-26T09:38:35Z</time>
      </trkpt>
      <trkpt lat="45.71807" lon="4.57273">
        <ele>762</ele>
        <time>2026-08-26T09:38:36Z</time>
      </trkpt>
      <trkpt lat="45.71799" lon="4.5728">
        <ele>762</ele>
        <time>2026-08-26T09:38:37Z</time>
      </trkpt>
      <trkpt lat="45.7179" lon="4.57287">
        <ele>761.8</ele>
        <time>2026-08-26T09:38:38Z</time>
      </trkpt>
      <trkpt lat="45.71782" lon="4.57292">
        <ele>761.6</ele>
        <time>2026-08-26T09:38:39Z</time>
      </trkpt>
      <trkpt lat="45.71773" lon="4.57296">
        <ele>761.4</ele>
        <time>2026-08-26T09:38:40Z</time>
      </trkpt>
      <trkpt lat="45.71764" lon="4.573">
        <ele>761</ele>
        <time>2026-08-26T09:38:41Z</time>
      </trkpt>
      <trkpt lat="45.71755" lon="4.57303">
        <ele>760.6</ele>
        <time>2026-08-26T09:38:42Z</time>
      </trkpt>
      <trkpt lat="45.71745" lon="4.57308">
        <ele>760.4</ele>
        <time>2026-08-26T09:38:43Z</time>
      </trkpt>
      <trkpt lat="45.71736" lon="4.57312">
        <ele>760</ele>
        <time>2026-08-26T09:38:44Z</time>
      </trkpt>
      <trkpt lat="45.71727" lon="4.57316">
        <ele>759.8</ele>
        <time>2026-08-26T09:38:45Z</time>
      </trkpt>
      <trkpt lat="45.71718" lon="4.57321">
        <ele>759.4</ele>
        <time>2026-08-26T09:38:46Z</time>
      </trkpt>
      <trkpt lat="45.7171" lon="4.57325">
        <ele>759</ele>
        <time>2026-08-26T09:38:47Z</time>
      </trkpt>
      <trkpt lat="45.71701" lon="4.57331">
        <ele>758.4</ele>
        <time>2026-08-26T09:38:48Z</time>
      </trkpt>
      <trkpt lat="45.71693" lon="4.57337">
        <ele>758</ele>
        <time>2026-08-26T09:38:49Z</time>
      </trkpt>
      <trkpt lat="45.71685" lon="4.57344">
        <ele>757.4</ele>
        <time>2026-08-26T09:38:50Z</time>
      </trkpt>
      <trkpt lat="45.71677" lon="4.57352">
        <ele>756.8</ele>
        <time>2026-08-26T09:38:51Z</time>
      </trkpt>
      <trkpt lat="45.7167" lon="4.57359">
        <ele>756.6</ele>
        <time>2026-08-26T09:38:52Z</time>
      </trkpt>
      <trkpt lat="45.71662" lon="4.57367">
        <ele>756.4</ele>
        <time>2026-08-26T09:38:53Z</time>
      </trkpt>
      <trkpt lat="45.71655" lon="4.57375">
        <ele>756.6</ele>
        <time>2026-08-26T09:38:54Z</time>
      </trkpt>
      <trkpt lat="45.71648" lon="4.57383">
        <ele>756.6</ele>
        <time>2026-08-26T09:38:55Z</time>
      </trkpt>
      <trkpt lat="45.7164" lon="4.5739">
        <ele>756.6</ele>
        <time>2026-08-26T09:38:56Z</time>
      </trkpt>
      <trkpt lat="45.71633" lon="4.57398">
        <ele>756.4</ele>
        <time>2026-08-26T09:38:57Z</time>
      </trkpt>
      <trkpt lat="45.71625" lon="4.57404">
        <ele>756.2</ele>
        <time>2026-08-26T09:38:58Z</time>
      </trkpt>
      <trkpt lat="45.71618" lon="4.57411">
        <ele>756</ele>
        <time>2026-08-26T09:38:59Z</time>
      </trkpt>
      <trkpt lat="45.71611" lon="4.57418">
        <ele>755.8</ele>
        <time>2026-08-26T09:39:00Z</time>
      </trkpt>
      <trkpt lat="45.71604" lon="4.57425">
        <ele>755.8</ele>
        <time>2026-08-26T09:39:01Z</time>
      </trkpt>
      <trkpt lat="45.71597" lon="4.57431">
        <ele>755.6</ele>
        <time>2026-08-26T09:39:02Z</time>
      </trkpt>
      <trkpt lat="45.7159" lon="4.57438">
        <ele>755.4</ele>
        <time>2026-08-26T09:39:03Z</time>
      </trkpt>
      <trkpt lat="45.71583" lon="4.57445">
        <ele>755.2</ele>
        <time>2026-08-26T09:39:04Z</time>
      </trkpt>
      <trkpt lat="45.71576" lon="4.57453">
        <ele>754.8</ele>
        <time>2026-08-26T09:39:05Z</time>
      </trkpt>
      <trkpt lat="45.71569" lon="4.5746">
        <ele>754.4</ele>
        <time>2026-08-26T09:39:06Z</time>
      </trkpt>
      <trkpt lat="45.71562" lon="4.57467">
        <ele>753.8</ele>
        <time>2026-08-26T09:39:07Z</time>
      </trkpt>
      <trkpt lat="45.71554" lon="4.57475">
        <ele>753.2</ele>
        <time>2026-08-26T09:39:08Z</time>
      </trkpt>
      <trkpt lat="45.71547" lon="4.57483">
        <ele>752.8</ele>
        <time>2026-08-26T09:39:09Z</time>
      </trkpt>
      <trkpt lat="45.71541" lon="4.5749">
        <ele>752.2</ele>
        <time>2026-08-26T09:39:10Z</time>
      </trkpt>
      <trkpt lat="45.71535" lon="4.57498">
        <ele>751.8</ele>
        <time>2026-08-26T09:39:11Z</time>
      </trkpt>
      <trkpt lat="45.71528" lon="4.57507">
        <ele>751.6</ele>
        <time>2026-08-26T09:39:12Z</time>
      </trkpt>
      <trkpt lat="45.71523" lon="4.57516">
        <ele>751.4</ele>
        <time>2026-08-26T09:39:13Z</time>
      </trkpt>
      <trkpt lat="45.71517" lon="4.57525">
        <ele>751.2</ele>
        <time>2026-08-26T09:39:14Z</time>
      </trkpt>
      <trkpt lat="45.71512" lon="4.57536">
        <ele>751.2</ele>
        <time>2026-08-26T09:39:15Z</time>
      </trkpt>
      <trkpt lat="45.71507" lon="4.57547">
        <ele>750.8</ele>
        <time>2026-08-26T09:39:16Z</time>
      </trkpt>
      <trkpt lat="45.71502" lon="4.57558">
        <ele>750.4</ele>
        <time>2026-08-26T09:39:17Z</time>
      </trkpt>
      <trkpt lat="45.71498" lon="4.57569">
        <ele>750.2</ele>
        <time>2026-08-26T09:39:18Z</time>
      </trkpt>
      <trkpt lat="45.71494" lon="4.5758">
        <ele>750</ele>
        <time>2026-08-26T09:39:19Z</time>
      </trkpt>
      <trkpt lat="45.7149" lon="4.57592">
        <ele>749.8</ele>
        <time>2026-08-26T09:39:20Z</time>
      </trkpt>
      <trkpt lat="45.71487" lon="4.57604">
        <ele>749.4</ele>
        <time>2026-08-26T09:39:21Z</time>
      </trkpt>
      <trkpt lat="45.71483" lon="4.57615">
        <ele>749.2</ele>
        <time>2026-08-26T09:39:22Z</time>
      </trkpt>
      <trkpt lat="45.7148" lon="4.57627">
        <ele>749</ele>
        <time>2026-08-26T09:39:23Z</time>
      </trkpt>
      <trkpt lat="45.71478" lon="4.57639">
        <ele>748.6</ele>
        <time>2026-08-26T09:39:24Z</time>
      </trkpt>
      <trkpt lat="45.71476" lon="4.5765">
        <ele>748.4</ele>
        <time>2026-08-26T09:39:25Z</time>
      </trkpt>
      <trkpt lat="45.71474" lon="4.57662">
        <ele>748.4</ele>
        <time>2026-08-26T09:39:26Z</time>
      </trkpt>
      <trkpt lat="45.71473" lon="4.57674">
        <ele>748.2</ele>
        <time>2026-08-26T09:39:27Z</time>
      </trkpt>
      <trkpt lat="45.71474" lon="4.57685">
        <ele>748.2</ele>
        <time>2026-08-26T09:39:28Z</time>
      </trkpt>
      <trkpt lat="45.71476" lon="4.57696">
        <ele>748</ele>
        <time>2026-08-26T09:39:29Z</time>
      </trkpt>
      <trkpt lat="45.71478" lon="4.57707">
        <ele>748</ele>
        <time>2026-08-26T09:39:30Z</time>
      </trkpt>
      <trkpt lat="45.7148" lon="4.57718">
        <ele>748</ele>
        <time>2026-08-26T09:39:31Z</time>
      </trkpt>
      <trkpt lat="45.71483" lon="4.57728">
        <ele>748.2</ele>
        <time>2026-08-26T09:39:32Z</time>
      </trkpt>
      <trkpt lat="45.71485" lon="4.57739">
        <ele>748.4</ele>
        <time>2026-08-26T09:39:33Z</time>
      </trkpt>
      <trkpt lat="45.71488" lon="4.57749">
        <ele>748.6</ele>
        <time>2026-08-26T09:39:34Z</time>
      </trkpt>
      <trkpt lat="45.7149" lon="4.57759">
        <ele>749</ele>
        <time>2026-08-26T09:39:35Z</time>
      </trkpt>
      <trkpt lat="45.71491" lon="4.5777">
        <ele>749.2</ele>
        <time>2026-08-26T09:39:36Z</time>
      </trkpt>
      <trkpt lat="45.7149" lon="4.5778">
        <ele>749.4</ele>
        <time>2026-08-26T09:39:37Z</time>
      </trkpt>
      <trkpt lat="45.71487" lon="4.5779">
        <ele>749.6</ele>
        <time>2026-08-26T09:39:38Z</time>
      </trkpt>
      <trkpt lat="45.71483" lon="4.57798">
        <ele>749.6</ele>
        <time>2026-08-26T09:39:39Z</time>
      </trkpt>
      <trkpt lat="45.71477" lon="4.57803">
        <ele>749.6</ele>
        <time>2026-08-26T09:39:40Z</time>
      </trkpt>
      <trkpt lat="45.71471" lon="4.57803">
        <ele>749.6</ele>
        <time>2026-08-26T09:39:41Z</time>
      </trkpt>
      <trkpt lat="45.71464" lon="4.578">
        <ele>749.6</ele>
        <time>2026-08-26T09:39:42Z</time>
      </trkpt>
      <trkpt lat="45.71457" lon="4.57796">
        <ele>749.8</ele>
        <time>2026-08-26T09:39:43Z</time>
      </trkpt>
      <trkpt lat="45.71451" lon="4.57791">
        <ele>749.8</ele>
        <time>2026-08-26T09:39:44Z</time>
      </trkpt>
      <trkpt lat="45.71445" lon="4.57786">
        <ele>749.8</ele>
        <time>2026-08-26T09:39:45Z</time>
      </trkpt>
      <trkpt lat="45.71439" lon="4.57781">
        <ele>750</ele>
        <time>2026-08-26T09:39:46Z</time>
      </trkpt>
      <trkpt lat="45.71433" lon="4.57775">
        <ele>750</ele>
        <time>2026-08-26T09:39:47Z</time>
      </trkpt>
      <trkpt lat="45.71427" lon="4.57769">
        <ele>750</ele>
        <time>2026-08-26T09:39:48Z</time>
      </trkpt>
      <trkpt lat="45.71422" lon="4.57763">
        <ele>749.8</ele>
        <time>2026-08-26T09:39:49Z</time>
      </trkpt>
      <trkpt lat="45.71416" lon="4.57757">
        <ele>749.8</ele>
        <time>2026-08-26T09:39:50Z</time>
      </trkpt>
      <trkpt lat="45.71411" lon="4.57751">
        <ele>749.8</ele>
        <time>2026-08-26T09:39:51Z</time>
      </trkpt>
      <trkpt lat="45.71406" lon="4.57744">
        <ele>749.6</ele>
        <time>2026-08-26T09:39:52Z</time>
      </trkpt>
      <trkpt lat="45.71401" lon="4.5774">
        <ele>749.4</ele>
        <time>2026-08-26T09:39:53Z</time>
      </trkpt>
      <trkpt lat="45.71395" lon="4.57736">
        <ele>749.4</ele>
        <time>2026-08-26T09:39:54Z</time>
      </trkpt>
      <trkpt lat="45.71388" lon="4.57734">
        <ele>749.4</ele>
        <time>2026-08-26T09:39:55Z</time>
      </trkpt>
      <trkpt lat="45.71381" lon="4.57732">
        <ele>749.2</ele>
        <time>2026-08-26T09:39:56Z</time>
      </trkpt>
      <trkpt lat="45.71374" lon="4.57731">
        <ele>749.2</ele>
        <time>2026-08-26T09:39:57Z</time>
      </trkpt>
      <trkpt lat="45.71367" lon="4.57731">
        <ele>749</ele>
        <time>2026-08-26T09:39:58Z</time>
      </trkpt>
      <trkpt lat="45.71359" lon="4.5773">
        <ele>748.6</ele>
        <time>2026-08-26T09:39:59Z</time>
      </trkpt>
      <trkpt lat="45.71351" lon="4.57731">
        <ele>748.2</ele>
        <time>2026-08-26T09:40:00Z</time>
      </trkpt>
      <trkpt lat="45.71342" lon="4.57732">
        <ele>747.8</ele>
        <time>2026-08-26T09:40:01Z</time>
      </trkpt>
      <trkpt lat="45.71334" lon="4.57733">
        <ele>747.4</ele>
        <time>2026-08-26T09:40:02Z</time>
      </trkpt>
      <trkpt lat="45.71325" lon="4.57735">
        <ele>747</ele>
        <time>2026-08-26T09:40:03Z</time>
      </trkpt>
      <trkpt lat="45.71317" lon="4.57738">
        <ele>746.4</ele>
        <time>2026-08-26T09:40:04Z</time>
      </trkpt>
      <trkpt lat="45.71308" lon="4.57742">
        <ele>745.8</ele>
        <time>2026-08-26T09:40:05Z</time>
      </trkpt>
      <trkpt lat="45.713" lon="4.57747">
        <ele>744.8</ele>
        <time>2026-08-26T09:40:06Z</time>
      </trkpt>
      <trkpt lat="45.71292" lon="4.57752">
        <ele>743.8</ele>
        <time>2026-08-26T09:40:07Z</time>
      </trkpt>
      <trkpt lat="45.71284" lon="4.57757">
        <ele>743</ele>
        <time>2026-08-26T09:40:08Z</time>
      </trkpt>
      <trkpt lat="45.71276" lon="4.57763">
        <ele>741.8</ele>
        <time>2026-08-26T09:40:09Z</time>
      </trkpt>
      <trkpt lat="45.71269" lon="4.57769">
        <ele>741</ele>
        <time>2026-08-26T09:40:10Z</time>
      </trkpt>
      <trkpt lat="45.71261" lon="4.57775">
        <ele>740.6</ele>
        <time>2026-08-26T09:40:11Z</time>
      </trkpt>
      <trkpt lat="45.71253" lon="4.57781">
        <ele>740</ele>
        <time>2026-08-26T09:40:12Z</time>
      </trkpt>
      <trkpt lat="45.71246" lon="4.57788">
        <ele>739.2</ele>
        <time>2026-08-26T09:40:13Z</time>
      </trkpt>
      <trkpt lat="45.71239" lon="4.57796">
        <ele>738.6</ele>
        <time>2026-08-26T09:40:14Z</time>
      </trkpt>
      <trkpt lat="45.71232" lon="4.57804">
        <ele>738</ele>
        <time>2026-08-26T09:40:15Z</time>
      </trkpt>
      <trkpt lat="45.71226" lon="4.57813">
        <ele>737.4</ele>
        <time>2026-08-26T09:40:16Z</time>
      </trkpt>
      <trkpt lat="45.71219" lon="4.57821">
        <ele>736.8</ele>
        <time>2026-08-26T09:40:17Z</time>
      </trkpt>
      <trkpt lat="45.71212" lon="4.5783">
        <ele>736.6</ele>
        <time>2026-08-26T09:40:18Z</time>
      </trkpt>
      <trkpt lat="45.71205" lon="4.57839">
        <ele>736.4</ele>
        <time>2026-08-26T09:40:19Z</time>
      </trkpt>
      <trkpt lat="45.71199" lon="4.57849">
        <ele>736.4</ele>
        <time>2026-08-26T09:40:20Z</time>
      </trkpt>
      <trkpt lat="45.71191" lon="4.57858">
        <ele>736.2</ele>
        <time>2026-08-26T09:40:21Z</time>
      </trkpt>
      <trkpt lat="45.71184" lon="4.57867">
        <ele>735.8</ele>
        <time>2026-08-26T09:40:22Z</time>
      </trkpt>
      <trkpt lat="45.71177" lon="4.57877">
        <ele>735.4</ele>
        <time>2026-08-26T09:40:23Z</time>
      </trkpt>
      <trkpt lat="45.71169" lon="4.57886">
        <ele>734.8</ele>
        <time>2026-08-26T09:40:24Z</time>
      </trkpt>
      <trkpt lat="45.71162" lon="4.57895">
        <ele>734.4</ele>
        <time>2026-08-26T09:40:25Z</time>
      </trkpt>
      <trkpt lat="45.71154" lon="4.57903">
        <ele>733.6</ele>
        <time>2026-08-26T09:40:26Z</time>
      </trkpt>
      <trkpt lat="45.71146" lon="4.57912">
        <ele>733</ele>
        <time>2026-08-26T09:40:27Z</time>
      </trkpt>
      <trkpt lat="45.71138" lon="4.5792">
        <ele>732.4</ele>
        <time>2026-08-26T09:40:28Z</time>
      </trkpt>
      <trkpt lat="45.7113" lon="4.57928">
        <ele>732</ele>
        <time>2026-08-26T09:40:29Z</time>
      </trkpt>
      <trkpt lat="45.71122" lon="4.57935">
        <ele>731.6</ele>
        <time>2026-08-26T09:40:30Z</time>
      </trkpt>
      <trkpt lat="45.71114" lon="4.57943">
        <ele>731.4</ele>
        <time>2026-08-26T09:40:31Z</time>
      </trkpt>
      <trkpt lat="45.71107" lon="4.57951">
        <ele>731</ele>
        <time>2026-08-26T09:40:32Z</time>
      </trkpt>
      <trkpt lat="45.71099" lon="4.57958">
        <ele>730.8</ele>
        <time>2026-08-26T09:40:33Z</time>
      </trkpt>
      <trkpt lat="45.71091" lon="4.57965">
        <ele>730.4</ele>
        <time>2026-08-26T09:40:34Z</time>
      </trkpt>
      <trkpt lat="45.71083" lon="4.57973">
        <ele>729.8</ele>
        <time>2026-08-26T09:40:35Z</time>
      </trkpt>
      <trkpt lat="45.71075" lon="4.5798">
        <ele>729.6</ele>
        <time>2026-08-26T09:40:36Z</time>
      </trkpt>
      <trkpt lat="45.71067" lon="4.57987">
        <ele>729.2</ele>
        <time>2026-08-26T09:40:37Z</time>
      </trkpt>
      <trkpt lat="45.71058" lon="4.57994">
        <ele>728.8</ele>
        <time>2026-08-26T09:40:38Z</time>
      </trkpt>
      <trkpt lat="45.7105" lon="4.58002">
        <ele>728.2</ele>
        <time>2026-08-26T09:40:39Z</time>
      </trkpt>
      <trkpt lat="45.71042" lon="4.58009">
        <ele>728</ele>
        <time>2026-08-26T09:40:40Z</time>
      </trkpt>
      <trkpt lat="45.71034" lon="4.58017">
        <ele>727.4</ele>
        <time>2026-08-26T09:40:41Z</time>
      </trkpt>
      <trkpt lat="45.71027" lon="4.58025">
        <ele>727</ele>
        <time>2026-08-26T09:40:42Z</time>
      </trkpt>
      <trkpt lat="45.71019" lon="4.58033">
        <ele>726.6</ele>
        <time>2026-08-26T09:40:43Z</time>
      </trkpt>
      <trkpt lat="45.71012" lon="4.58042">
        <ele>726</ele>
        <time>2026-08-26T09:40:44Z</time>
      </trkpt>
      <trkpt lat="45.71005" lon="4.58051">
        <ele>725.6</ele>
        <time>2026-08-26T09:40:45Z</time>
      </trkpt>
      <trkpt lat="45.70998" lon="4.5806">
        <ele>725.2</ele>
        <time>2026-08-26T09:40:46Z</time>
      </trkpt>
      <trkpt lat="45.70991" lon="4.5807">
        <ele>724.8</ele>
        <time>2026-08-26T09:40:47Z</time>
      </trkpt>
      <trkpt lat="45.70986" lon="4.58081">
        <ele>724.8</ele>
        <time>2026-08-26T09:40:48Z</time>
      </trkpt>
      <trkpt lat="45.70982" lon="4.58094">
        <ele>724.4</ele>
        <time>2026-08-26T09:40:49Z</time>
      </trkpt>
      <trkpt lat="45.70979" lon="4.58106">
        <ele>723.8</ele>
        <time>2026-08-26T09:40:50Z</time>
      </trkpt>
      <trkpt lat="45.70978" lon="4.58119">
        <ele>723.2</ele>
        <time>2026-08-26T09:40:51Z</time>
      </trkpt>
      <trkpt lat="45.70976" lon="4.58131">
        <ele>723.2</ele>
        <time>2026-08-26T09:40:52Z</time>
      </trkpt>
      <trkpt lat="45.70974" lon="4.58143">
        <ele>722.8</ele>
        <time>2026-08-26T09:40:53Z</time>
      </trkpt>
      <trkpt lat="45.70972" lon="4.58154">
        <ele>722.8</ele>
        <time>2026-08-26T09:40:54Z</time>
      </trkpt>
      <trkpt lat="45.70969" lon="4.58164">
        <ele>723</ele>
        <time>2026-08-26T09:40:55Z</time>
      </trkpt>
      <trkpt lat="45.70967" lon="4.58174">
        <ele>723.6</ele>
        <time>2026-08-26T09:40:56Z</time>
      </trkpt>
      <trkpt lat="45.70965" lon="4.58183">
        <ele>724</ele>
        <time>2026-08-26T09:40:57Z</time>
      </trkpt>
      <trkpt lat="45.70962" lon="4.58192">
        <ele>724.6</ele>
        <time>2026-08-26T09:40:58Z</time>
      </trkpt>
      <trkpt lat="45.70961" lon="4.58201">
        <ele>725.2</ele>
        <time>2026-08-26T09:40:59Z</time>
      </trkpt>
      <trkpt lat="45.7096" lon="4.58209">
        <ele>725.8</ele>
        <time>2026-08-26T09:41:00Z</time>
      </trkpt>
      <trkpt lat="45.70959" lon="4.58217">
        <ele>726.4</ele>
        <time>2026-08-26T09:41:01Z</time>
      </trkpt>
      <trkpt lat="45.70959" lon="4.58225">
        <ele>726.8</ele>
        <time>2026-08-26T09:41:02Z</time>
      </trkpt>
      <trkpt lat="45.70958" lon="4.58232">
        <ele>727.2</ele>
        <time>2026-08-26T09:41:03Z</time>
      </trkpt>
      <trkpt lat="45.70958" lon="4.58239">
        <ele>727.6</ele>
        <time>2026-08-26T09:41:04Z</time>
      </trkpt>
      <trkpt lat="45.70958" lon="4.58246">
        <ele>728</ele>
        <time>2026-08-26T09:41:05Z</time>
      </trkpt>
      <trkpt lat="45.70958" lon="4.58252">
        <ele>728.4</ele>
        <time>2026-08-26T09:41:06Z</time>
      </trkpt>
      <trkpt lat="45.70957" lon="4.58257">
        <ele>728.8</ele>
        <time>2026-08-26T09:41:07Z</time>
      </trkpt>
      <trkpt lat="45.70957" lon="4.58263">
        <ele>729.2</ele>
        <time>2026-08-26T09:41:08Z</time>
      </trkpt>
      <trkpt lat="45.70957" lon="4.58269">
        <ele>729.4</ele>
        <time>2026-08-26T09:41:09Z</time>
      </trkpt>
      <trkpt lat="45.70957" lon="4.58275">
        <ele>729.6</ele>
        <time>2026-08-26T09:41:10Z</time>
      </trkpt>
      <trkpt lat="45.70958" lon="4.58281">
        <ele>730</ele>
        <time>2026-08-26T09:41:11Z</time>
      </trkpt>
      <trkpt lat="45.70959" lon="4.58286">
        <ele>730.2</ele>
        <time>2026-08-26T09:41:12Z</time>
      </trkpt>
      <trkpt lat="45.70959" lon="4.58291">
        <ele>730.4</ele>
        <time>2026-08-26T09:41:13Z</time>
      </trkpt>
      <trkpt lat="45.7096" lon="4.58296">
        <ele>730.6</ele>
        <time>2026-08-26T09:41:14Z</time>
      </trkpt>
      <trkpt lat="45.7096" lon="4.58302">
        <ele>730.8</ele>
        <time>2026-08-26T09:41:15Z</time>
      </trkpt>
      <trkpt lat="45.70961" lon="4.58307">
        <ele>730.8</ele>
        <time>2026-08-26T09:41:16Z</time>
      </trkpt>
      <trkpt lat="45.7096" lon="4.58312">
        <ele>731</ele>
        <time>2026-08-26T09:41:17Z</time>
      </trkpt>
      <trkpt lat="45.70961" lon="4.58317">
        <ele>731.2</ele>
        <time>2026-08-26T09:41:18Z</time>
      </trkpt>
      <trkpt lat="45.70961" lon="4.58322">
        <ele>731.4</ele>
        <time>2026-08-26T09:41:19Z</time>
      </trkpt>
      <trkpt lat="45.70961" lon="4.58327">
        <ele>731.6</ele>
        <time>2026-08-26T09:41:20Z</time>
      </trkpt>
      <trkpt lat="45.70962" lon="4.58332">
        <ele>731.6</ele>
        <time>2026-08-26T09:41:21Z</time>
      </trkpt>
      <trkpt lat="45.70962" lon="4.58336">
        <ele>731.8</ele>
        <time>2026-08-26T09:41:22Z</time>
      </trkpt>
      <trkpt lat="45.70962" lon="4.58341">
        <ele>732</ele>
        <time>2026-08-26T09:41:23Z</time>
      </trkpt>
      <trkpt lat="45.70962" lon="4.58345">
        <ele>732.4</ele>
        <time>2026-08-26T09:41:24Z</time>
      </trkpt>
      <trkpt lat="45.70962" lon="4.5835">
        <ele>732.6</ele>
        <time>2026-08-26T09:41:25Z</time>
      </trkpt>
      <trkpt lat="45.70962" lon="4.58355">
        <ele>732.8</ele>
        <time>2026-08-26T09:41:26Z</time>
      </trkpt>
      <trkpt lat="45.70962" lon="4.58359">
        <ele>733</ele>
        <time>2026-08-26T09:41:27Z</time>
      </trkpt>
      <trkpt lat="45.70962" lon="4.58364">
        <ele>733.2</ele>
        <time>2026-08-26T09:41:28Z</time>
      </trkpt>
      <trkpt lat="45.70962" lon="4.58368">
        <ele>733.4</ele>
        <time>2026-08-26T09:41:29Z</time>
      </trkpt>
      <trkpt lat="45.70963" lon="4.58373">
        <ele>733.6</ele>
        <time>2026-08-26T09:41:30Z</time>
      </trkpt>
      <trkpt lat="45.70963" lon="4.58377">
        <ele>733.8</ele>
        <time>2026-08-26T09:41:31Z</time>
      </trkpt>
      <trkpt lat="45.70963" lon="4.58381">
        <ele>734</ele>
        <time>2026-08-26T09:41:32Z</time>
      </trkpt>
      <trkpt lat="45.70963" lon="4.58385">
        <ele>734.2</ele>
        <time>2026-08-26T09:41:33Z</time>
      </trkpt>
      <trkpt lat="45.70963" lon="4.58389">
        <ele>734.4</ele>
        <time>2026-08-26T09:41:34Z</time>
      </trkpt>
      <trkpt lat="45.70963" lon="4.58393">
        <ele>734.4</ele>
        <time>2026-08-26T09:41:35Z</time>
      </trkpt>
      <trkpt lat="45.70963" lon="4.58397">
        <ele>734.6</ele>
        <time>2026-08-26T09:41:36Z</time>
      </trkpt>
      <trkpt lat="45.70963" lon="4.58401">
        <ele>734.8</ele>
        <time>2026-08-26T09:41:37Z</time>
      </trkpt>
      <trkpt lat="45.70963" lon="4.58405">
        <ele>735</ele>
        <time>2026-08-26T09:41:38Z</time>
      </trkpt>
      <trkpt lat="45.70963" lon="4.58409">
        <ele>735.2</ele>
        <time>2026-08-26T09:41:39Z</time>
      </trkpt>
      <trkpt lat="45.70964" lon="4.58413">
        <ele>735.4</ele>
        <time>2026-08-26T09:41:40Z</time>
      </trkpt>
      <trkpt lat="45.70964" lon="4.58418">
        <ele>735.4</ele>
        <time>2026-08-26T09:41:41Z</time>
      </trkpt>
      <trkpt lat="45.70964" lon="4.58422">
        <ele>735.6</ele>
        <time>2026-08-26T09:41:42Z</time>
      </trkpt>
      <trkpt lat="45.70965" lon="4.58426">
        <ele>735.8</ele>
        <time>2026-08-26T09:41:43Z</time>
      </trkpt>
      <trkpt lat="45.70965" lon="4.5843">
        <ele>735.8</ele>
        <time>2026-08-26T09:41:44Z</time>
      </trkpt>
      <trkpt lat="45.70965" lon="4.58434">
        <ele>736</ele>
        <time>2026-08-26T09:41:45Z</time>
      </trkpt>
      <trkpt lat="45.70966" lon="4.58438">
        <ele>736.2</ele>
        <time>2026-08-26T09:41:46Z</time>
      </trkpt>
      <trkpt lat="45.70966" lon="4.58442">
        <ele>736.4</ele>
        <time>2026-08-26T09:41:47Z</time>
      </trkpt>
      <trkpt lat="45.70966" lon="4.58446">
        <ele>736.6</ele>
        <time>2026-08-26T09:41:48Z</time>
      </trkpt>
      <trkpt lat="45.70966" lon="4.5845">
        <ele>736.8</ele>
        <time>2026-08-26T09:41:49Z</time>
      </trkpt>
      <trkpt lat="45.70967" lon="4.58454">
        <ele>737</ele>
        <time>2026-08-26T09:41:50Z</time>
      </trkpt>
      <trkpt lat="45.70967" lon="4.58458">
        <ele>737.2</ele>
        <time>2026-08-26T09:41:51Z</time>
      </trkpt>
      <trkpt lat="45.70967" lon="4.58462">
        <ele>737.4</ele>
        <time>2026-08-26T09:41:52Z</time>
      </trkpt>
      <trkpt lat="45.70967" lon="4.58466">
        <ele>737.6</ele>
        <time>2026-08-26T09:41:53Z</time>
      </trkpt>
      <trkpt lat="45.70968" lon="4.5847">
        <ele>737.8</ele>
        <time>2026-08-26T09:41:54Z</time>
      </trkpt>
      <trkpt lat="45.70968" lon="4.58474">
        <ele>737.8</ele>
        <time>2026-08-26T09:41:55Z</time>
      </trkpt>
      <trkpt lat="45.70968" lon="4.58478">
        <ele>738</ele>
        <time>2026-08-26T09:41:56Z</time>
      </trkpt>
      <trkpt lat="45.70968" lon="4.58482">
        <ele>738.2</ele>
        <time>2026-08-26T09:41:57Z</time>
      </trkpt>
      <trkpt lat="45.70968" lon="4.58486">
        <ele>738.6</ele>
        <time>2026-08-26T09:41:58Z</time>
      </trkpt>
      <trkpt lat="45.70968" lon="4.5849">
        <ele>738.8</ele>
        <time>2026-08-26T09:41:59Z</time>
      </trkpt>
      <trkpt lat="45.70968" lon="4.58494">
        <ele>738.8</ele>
        <time>2026-08-26T09:42:00Z</time>
      </trkpt>
      <trkpt lat="45.70968" lon="4.58498">
        <ele>738.8</ele>
        <time>2026-08-26T09:42:01Z</time>
      </trkpt>
      <trkpt lat="45.70968" lon="4.58502">
        <ele>739</ele>
        <time>2026-08-26T09:42:02Z</time>
      </trkpt>
      <trkpt lat="45.70968" lon="4.58506">
        <ele>738.8</ele>
        <time>2026-08-26T09:42:03Z</time>
      </trkpt>
      <trkpt lat="45.70968" lon="4.5851">
        <ele>738.8</ele>
        <time>2026-08-26T09:42:04Z</time>
      </trkpt>
      <trkpt lat="45.70968" lon="4.58514">
        <ele>738.8</ele>
        <time>2026-08-26T09:42:05Z</time>
      </trkpt>
      <trkpt lat="45.70968" lon="4.58518">
        <ele>738.8</ele>
        <time>2026-08-26T09:42:06Z</time>
      </trkpt>
      <trkpt lat="45.70968" lon="4.58522">
        <ele>739</ele>
        <time>2026-08-26T09:42:07Z</time>
      </trkpt>
      <trkpt lat="45.70968" lon="4.58526">
        <ele>739</ele>
        <time>2026-08-26T09:42:08Z</time>
      </trkpt>
      <trkpt lat="45.70968" lon="4.5853">
        <ele>739.2</ele>
        <time>2026-08-26T09:42:09Z</time>
      </trkpt>
      <trkpt lat="45.70968" lon="4.58535">
        <ele>739.2</ele>
        <time>2026-08-26T09:42:10Z</time>
      </trkpt>
      <trkpt lat="45.70968" lon="4.58539">
        <ele>739.4</ele>
        <time>2026-08-26T09:42:11Z</time>
      </trkpt>
      <trkpt lat="45.70968" lon="4.58543">
        <ele>739.4</ele>
        <time>2026-08-26T09:42:12Z</time>
      </trkpt>
      <trkpt lat="45.70967" lon="4.58548">
        <ele>739.4</ele>
        <time>2026-08-26T09:42:13Z</time>
      </trkpt>
      <trkpt lat="45.70967" lon="4.58552">
        <ele>739.6</ele>
        <time>2026-08-26T09:42:14Z</time>
      </trkpt>
      <trkpt lat="45.70968" lon="4.58557">
        <ele>739.6</ele>
        <time>2026-08-26T09:42:15Z</time>
      </trkpt>
      <trkpt lat="45.70968" lon="4.58562">
        <ele>739.6</ele>
        <time>2026-08-26T09:42:16Z</time>
      </trkpt>
      <trkpt lat="45.70968" lon="4.58566">
        <ele>739.8</ele>
        <time>2026-08-26T09:42:17Z</time>
      </trkpt>
      <trkpt lat="45.70969" lon="4.58571">
        <ele>739.8</ele>
        <time>2026-08-26T09:42:18Z</time>
      </trkpt>
      <trkpt lat="45.70969" lon="4.58575">
        <ele>739.8</ele>
        <time>2026-08-26T09:42:19Z</time>
      </trkpt>
      <trkpt lat="45.70969" lon="4.5858">
        <ele>740</ele>
        <time>2026-08-26T09:42:20Z</time>
      </trkpt>
      <trkpt lat="45.70969" lon="4.58584">
        <ele>740.2</ele>
        <time>2026-08-26T09:42:21Z</time>
      </trkpt>
      <trkpt lat="45.7097" lon="4.58589">
        <ele>740.2</ele>
        <time>2026-08-26T09:42:22Z</time>
      </trkpt>
      <trkpt lat="45.7097" lon="4.58593">
        <ele>740.4</ele>
        <time>2026-08-26T09:42:23Z</time>
      </trkpt>
      <trkpt lat="45.70971" lon="4.58598">
        <ele>740.6</ele>
        <time>2026-08-26T09:42:24Z</time>
      </trkpt>
      <trkpt lat="45.70971" lon="4.58603">
        <ele>740.8</ele>
        <time>2026-08-26T09:42:25Z</time>
      </trkpt>
      <trkpt lat="45.70971" lon="4.58607">
        <ele>740.8</ele>
        <time>2026-08-26T09:42:26Z</time>
      </trkpt>
      <trkpt lat="45.70972" lon="4.58612">
        <ele>741</ele>
        <time>2026-08-26T09:42:27Z</time>
      </trkpt>
      <trkpt lat="45.70972" lon="4.58616">
        <ele>741.2</ele>
        <time>2026-08-26T09:42:28Z</time>
      </trkpt>
      <trkpt lat="45.70972" lon="4.5862">
        <ele>741.4</ele>
        <time>2026-08-26T09:42:29Z</time>
      </trkpt>
      <trkpt lat="45.70972" lon="4.58624">
        <ele>741.6</ele>
        <time>2026-08-26T09:42:30Z</time>
      </trkpt>
      <trkpt lat="45.70973" lon="4.58628">
        <ele>741.8</ele>
        <time>2026-08-26T09:42:31Z</time>
      </trkpt>
      <trkpt lat="45.70973" lon="4.58632">
        <ele>741.8</ele>
        <time>2026-08-26T09:42:32Z</time>
      </trkpt>
      <trkpt lat="45.70974" lon="4.58636">
        <ele>742</ele>
        <time>2026-08-26T09:42:33Z</time>
      </trkpt>
      <trkpt lat="45.70974" lon="4.5864">
        <ele>742.2</ele>
        <time>2026-08-26T09:42:34Z</time>
      </trkpt>
      <trkpt lat="45.70974" lon="4.58644">
        <ele>742.4</ele>
        <time>2026-08-26T09:42:35Z</time>
      </trkpt>
      <trkpt lat="45.70975" lon="4.58648">
        <ele>742.4</ele>
        <time>2026-08-26T09:42:36Z</time>
      </trkpt>
      <trkpt lat="45.70975" lon="4.58652">
        <ele>742.6</ele>
        <time>2026-08-26T09:42:37Z</time>
      </trkpt>
      <trkpt lat="45.70976" lon="4.58657">
        <ele>742.8</ele>
        <time>2026-08-26T09:42:38Z</time>
      </trkpt>
      <trkpt lat="45.70976" lon="4.58661">
        <ele>743</ele>
        <time>2026-08-26T09:42:39Z</time>
      </trkpt>
      <trkpt lat="45.70976" lon="4.58665">
        <ele>743.2</ele>
        <time>2026-08-26T09:42:40Z</time>
      </trkpt>
      <trkpt lat="45.70976" lon="4.58669">
        <ele>743.4</ele>
        <time>2026-08-26T09:42:41Z</time>
      </trkpt>
      <trkpt lat="45.70976" lon="4.58673">
        <ele>743.6</ele>
        <time>2026-08-26T09:42:42Z</time>
      </trkpt>
      <trkpt lat="45.70976" lon="4.58677">
        <ele>743.8</ele>
        <time>2026-08-26T09:42:43Z</time>
      </trkpt>
      <trkpt lat="45.70977" lon="4.58681">
        <ele>743.8</ele>
        <time>2026-08-26T09:42:44Z</time>
      </trkpt>
      <trkpt lat="45.70978" lon="4.58685">
        <ele>744</ele>
        <time>2026-08-26T09:42:45Z</time>
      </trkpt>
      <trkpt lat="45.70979" lon="4.58688">
        <ele>744.2</ele>
        <time>2026-08-26T09:42:46Z</time>
      </trkpt>
      <trkpt lat="45.70979" lon="4.58692">
        <ele>744.4</ele>
        <time>2026-08-26T09:42:47Z</time>
      </trkpt>
      <trkpt lat="45.7098" lon="4.58695">
        <ele>744.6</ele>
        <time>2026-08-26T09:42:48Z</time>
      </trkpt>
      <trkpt lat="45.7098" lon="4.587">
        <ele>744.8</ele>
        <time>2026-08-26T09:42:49Z</time>
      </trkpt>
      <trkpt lat="45.7098" lon="4.58704">
        <ele>745</ele>
        <time>2026-08-26T09:42:50Z</time>
      </trkpt>
      <trkpt lat="45.7098" lon="4.58708">
        <ele>745.2</ele>
        <time>2026-08-26T09:42:51Z</time>
      </trkpt>
      <trkpt lat="45.70981" lon="4.58711">
        <ele>745.2</ele>
        <time>2026-08-26T09:42:52Z</time>
      </trkpt>
      <trkpt lat="45.70981" lon="4.58715">
        <ele>745.4</ele>
        <time>2026-08-26T09:42:53Z</time>
      </trkpt>
      <trkpt lat="45.70981" lon="4.58719">
        <ele>745.4</ele>
        <time>2026-08-26T09:42:54Z</time>
      </trkpt>
      <trkpt lat="45.70982" lon="4.58722">
        <ele>745.6</ele>
        <time>2026-08-26T09:42:55Z</time>
      </trkpt>
      <trkpt lat="45.70982" lon="4.58726">
        <ele>745.6</ele>
        <time>2026-08-26T09:42:56Z</time>
      </trkpt>
      <trkpt lat="45.70982" lon="4.5873">
        <ele>745.8</ele>
        <time>2026-08-26T09:42:57Z</time>
      </trkpt>
      <trkpt lat="45.70982" lon="4.58733">
        <ele>745.8</ele>
        <time>2026-08-26T09:42:58Z</time>
      </trkpt>
      <trkpt lat="45.70982" lon="4.58737">
        <ele>746</ele>
        <time>2026-08-26T09:42:59Z</time>
      </trkpt>
      <trkpt lat="45.70982" lon="4.58741">
        <ele>746.2</ele>
        <time>2026-08-26T09:43:00Z</time>
      </trkpt>
      <trkpt lat="45.70982" lon="4.58744">
        <ele>746.4</ele>
        <time>2026-08-26T09:43:01Z</time>
      </trkpt>
      <trkpt lat="45.70982" lon="4.58748">
        <ele>746.4</ele>
        <time>2026-08-26T09:43:02Z</time>
      </trkpt>
      <trkpt lat="45.70983" lon="4.58751">
        <ele>746.6</ele>
        <time>2026-08-26T09:43:03Z</time>
      </trkpt>
      <trkpt lat="45.70983" lon="4.58755">
        <ele>746.8</ele>
        <time>2026-08-26T09:43:04Z</time>
      </trkpt>
      <trkpt lat="45.70983" lon="4.58758">
        <ele>747</ele>
        <time>2026-08-26T09:43:05Z</time>
      </trkpt>
      <trkpt lat="45.70983" lon="4.58762">
        <ele>747.2</ele>
        <time>2026-08-26T09:43:06Z</time>
      </trkpt>
      <trkpt lat="45.70984" lon="4.58765">
        <ele>747.4</ele>
        <time>2026-08-26T09:43:07Z</time>
      </trkpt>
      <trkpt lat="45.70985" lon="4.58769">
        <ele>747.6</ele>
        <time>2026-08-26T09:43:08Z</time>
      </trkpt>
      <trkpt lat="45.70985" lon="4.58772">
        <ele>747.8</ele>
        <time>2026-08-26T09:43:09Z</time>
      </trkpt>
      <trkpt lat="45.70985" lon="4.58776">
        <ele>748</ele>
        <time>2026-08-26T09:43:10Z</time>
      </trkpt>
      <trkpt lat="45.70985" lon="4.58779">
        <ele>748.2</ele>
        <time>2026-08-26T09:43:11Z</time>
      </trkpt>
      <trkpt lat="45.70986" lon="4.58783">
        <ele>748.4</ele>
        <time>2026-08-26T09:43:12Z</time>
      </trkpt>
      <trkpt lat="45.70985" lon="4.58786">
        <ele>748.6</ele>
        <time>2026-08-26T09:43:13Z</time>
      </trkpt>
      <trkpt lat="45.70985" lon="4.5879">
        <ele>748.6</ele>
        <time>2026-08-26T09:43:14Z</time>
      </trkpt>
      <trkpt lat="45.70985" lon="4.58793">
        <ele>748.8</ele>
        <time>2026-08-26T09:43:15Z</time>
      </trkpt>
      <trkpt lat="45.70986" lon="4.58797">
        <ele>749</ele>
        <time>2026-08-26T09:43:16Z</time>
      </trkpt>
      <trkpt lat="45.70987" lon="4.588">
        <ele>749.2</ele>
        <time>2026-08-26T09:43:17Z</time>
      </trkpt>
      <trkpt lat="45.70988" lon="4.58804">
        <ele>749.4</ele>
        <time>2026-08-26T09:43:18Z</time>
      </trkpt>
      <trkpt lat="45.70988" lon="4.58807">
        <ele>749.4</ele>
        <time>2026-08-26T09:43:19Z</time>
      </trkpt>
      <trkpt lat="45.70988" lon="4.58811">
        <ele>749.6</ele>
        <time>2026-08-26T09:43:20Z</time>
      </trkpt>
      <trkpt lat="45.70989" lon="4.58814">
        <ele>749.8</ele>
        <time>2026-08-26T09:43:21Z</time>
      </trkpt>
      <trkpt lat="45.7099" lon="4.58818">
        <ele>750</ele>
        <time>2026-08-26T09:43:22Z</time>
      </trkpt>
      <trkpt lat="45.7099" lon="4.58821">
        <ele>750</ele>
        <time>2026-08-26T09:43:23Z</time>
      </trkpt>
      <trkpt lat="45.70991" lon="4.58825">
        <ele>750.2</ele>
        <time>2026-08-26T09:43:24Z</time>
      </trkpt>
      <trkpt lat="45.70991" lon="4.58829">
        <ele>750.2</ele>
        <time>2026-08-26T09:43:25Z</time>
      </trkpt>
      <trkpt lat="45.70992" lon="4.58832">
        <ele>750.4</ele>
        <time>2026-08-26T09:43:26Z</time>
      </trkpt>
      <trkpt lat="45.70993" lon="4.58835">
        <ele>750.4</ele>
        <time>2026-08-26T09:43:27Z</time>
      </trkpt>
      <trkpt lat="45.70993" lon="4.58839">
        <ele>750.6</ele>
        <time>2026-08-26T09:43:28Z</time>
      </trkpt>
      <trkpt lat="45.70994" lon="4.58842">
        <ele>750.8</ele>
        <time>2026-08-26T09:43:29Z</time>
      </trkpt>
      <trkpt lat="45.70995" lon="4.58846">
        <ele>750.8</ele>
        <time>2026-08-26T09:43:30Z</time>
      </trkpt>
      <trkpt lat="45.70995" lon="4.58849">
        <ele>751</ele>
        <time>2026-08-26T09:43:31Z</time>
      </trkpt>
      <trkpt lat="45.70996" lon="4.58852">
        <ele>751.2</ele>
        <time>2026-08-26T09:43:32Z</time>
      </trkpt>
      <trkpt lat="45.70997" lon="4.58856">
        <ele>751.4</ele>
        <time>2026-08-26T09:43:33Z</time>
      </trkpt>
      <trkpt lat="45.70997" lon="4.58859">
        <ele>751.4</ele>
        <time>2026-08-26T09:43:34Z</time>
      </trkpt>
      <trkpt lat="45.70998" lon="4.58862">
        <ele>751.6</ele>
        <time>2026-08-26T09:43:35Z</time>
      </trkpt>
      <trkpt lat="45.70999" lon="4.58865">
        <ele>751.6</ele>
        <time>2026-08-26T09:43:36Z</time>
      </trkpt>
      <trkpt lat="45.71" lon="4.58869">
        <ele>751.8</ele>
        <time>2026-08-26T09:43:37Z</time>
      </trkpt>
      <trkpt lat="45.71001" lon="4.58872">
        <ele>752</ele>
        <time>2026-08-26T09:43:38Z</time>
      </trkpt>
      <trkpt lat="45.71002" lon="4.58875">
        <ele>752.2</ele>
        <time>2026-08-26T09:43:39Z</time>
      </trkpt>
      <trkpt lat="45.71003" lon="4.58878">
        <ele>752.4</ele>
        <time>2026-08-26T09:43:40Z</time>
      </trkpt>
      <trkpt lat="45.71004" lon="4.58882">
        <ele>752.6</ele>
        <time>2026-08-26T09:43:41Z</time>
      </trkpt>
      <trkpt lat="45.71006" lon="4.58885">
        <ele>752.8</ele>
        <time>2026-08-26T09:43:42Z</time>
      </trkpt>
      <trkpt lat="45.71007" lon="4.58888">
        <ele>752.8</ele>
        <time>2026-08-26T09:43:43Z</time>
      </trkpt>
      <trkpt lat="45.71009" lon="4.58891">
        <ele>753</ele>
        <time>2026-08-26T09:43:44Z</time>
      </trkpt>
      <trkpt lat="45.7101" lon="4.58895">
        <ele>753.2</ele>
        <time>2026-08-26T09:43:45Z</time>
      </trkpt>
      <trkpt lat="45.71011" lon="4.58898">
        <ele>753.2</ele>
        <time>2026-08-26T09:43:46Z</time>
      </trkpt>
      <trkpt lat="45.71013" lon="4.58901">
        <ele>753.4</ele>
        <time>2026-08-26T09:43:47Z</time>
      </trkpt>
      <trkpt lat="45.71015" lon="4.58904">
        <ele>753.4</ele>
        <time>2026-08-26T09:43:48Z</time>
      </trkpt>
      <trkpt lat="45.71016" lon="4.58907">
        <ele>753.6</ele>
        <time>2026-08-26T09:43:49Z</time>
      </trkpt>
      <trkpt lat="45.71018" lon="4.5891">
        <ele>753.6</ele>
        <time>2026-08-26T09:43:50Z</time>
      </trkpt>
      <trkpt lat="45.7102" lon="4.58913">
        <ele>753.8</ele>
        <time>2026-08-26T09:43:51Z</time>
      </trkpt>
      <trkpt lat="45.71022" lon="4.58916">
        <ele>754</ele>
        <time>2026-08-26T09:43:52Z</time>
      </trkpt>
      <trkpt lat="45.71023" lon="4.58919">
        <ele>754</ele>
        <time>2026-08-26T09:43:53Z</time>
      </trkpt>
      <trkpt lat="45.71025" lon="4.58922">
        <ele>754.2</ele>
        <time>2026-08-26T09:43:54Z</time>
      </trkpt>
      <trkpt lat="45.71027" lon="4.58925">
        <ele>754.4</ele>
        <time>2026-08-26T09:43:55Z</time>
      </trkpt>
      <trkpt lat="45.71029" lon="4.58928">
        <ele>754.4</ele>
        <time>2026-08-26T09:43:56Z</time>
      </trkpt>
      <trkpt lat="45.71031" lon="4.58931">
        <ele>754.6</ele>
        <time>2026-08-26T09:43:57Z</time>
      </trkpt>
      <trkpt lat="45.71033" lon="4.58935">
        <ele>754.8</ele>
        <time>2026-08-26T09:43:58Z</time>
      </trkpt>
      <trkpt lat="45.71035" lon="4.58938">
        <ele>754.8</ele>
        <time>2026-08-26T09:43:59Z</time>
      </trkpt>
      <trkpt lat="45.71037" lon="4.58941">
        <ele>755</ele>
        <time>2026-08-26T09:44:00Z</time>
      </trkpt>
      <trkpt lat="45.71039" lon="4.58944">
        <ele>755.2</ele>
        <time>2026-08-26T09:44:01Z</time>
      </trkpt>
      <trkpt lat="45.7104" lon="4.58947">
        <ele>755.2</ele>
        <time>2026-08-26T09:44:02Z</time>
      </trkpt>
      <trkpt lat="45.71042" lon="4.5895">
        <ele>755.4</ele>
        <time>2026-08-26T09:44:03Z</time>
      </trkpt>
      <trkpt lat="45.71044" lon="4.58953">
        <ele>755.4</ele>
        <time>2026-08-26T09:44:04Z</time>
      </trkpt>
      <trkpt lat="45.71046" lon="4.58956">
        <ele>755.6</ele>
        <time>2026-08-26T09:44:05Z</time>
      </trkpt>
      <trkpt lat="45.71047" lon="4.58959">
        <ele>755.8</ele>
        <time>2026-08-26T09:44:06Z</time>
      </trkpt>
      <trkpt lat="45.71049" lon="4.58962">
        <ele>755.8</ele>
        <time>2026-08-26T09:44:07Z</time>
      </trkpt>
      <trkpt lat="45.71051" lon="4.58965">
        <ele>756</ele>
        <time>2026-08-26T09:44:08Z</time>
      </trkpt>
      <trkpt lat="45.71053" lon="4.58968">
        <ele>756</ele>
        <time>2026-08-26T09:44:09Z</time>
      </trkpt>
      <trkpt lat="45.71055" lon="4.5897">
        <ele>756.2</ele>
        <time>2026-08-26T09:44:10Z</time>
      </trkpt>
      <trkpt lat="45.71057" lon="4.58973">
        <ele>756.2</ele>
        <time>2026-08-26T09:44:11Z</time>
      </trkpt>
      <trkpt lat="45.71058" lon="4.58976">
        <ele>756.4</ele>
        <time>2026-08-26T09:44:12Z</time>
      </trkpt>
      <trkpt lat="45.7106" lon="4.58979">
        <ele>756.4</ele>
        <time>2026-08-26T09:44:13Z</time>
      </trkpt>
      <trkpt lat="45.71062" lon="4.58982">
        <ele>756.6</ele>
        <time>2026-08-26T09:44:14Z</time>
      </trkpt>
      <trkpt lat="45.71064" lon="4.58985">
        <ele>756.8</ele>
        <time>2026-08-26T09:44:15Z</time>
      </trkpt>
      <trkpt lat="45.71066" lon="4.58988">
        <ele>756.8</ele>
        <time>2026-08-26T09:44:16Z</time>
      </trkpt>
      <trkpt lat="45.71068" lon="4.5899">
        <ele>757</ele>
        <time>2026-08-26T09:44:17Z</time>
      </trkpt>
      <trkpt lat="45.7107" lon="4.58993">
        <ele>757</ele>
        <time>2026-08-26T09:44:18Z</time>
      </trkpt>
      <trkpt lat="45.71072" lon="4.58995">
        <ele>757.2</ele>
        <time>2026-08-26T09:44:19Z</time>
      </trkpt>
      <trkpt lat="45.71074" lon="4.58998">
        <ele>757.2</ele>
        <time>2026-08-26T09:44:20Z</time>
      </trkpt>
      <trkpt lat="45.71076" lon="4.59">
        <ele>757.4</ele>
        <time>2026-08-26T09:44:21Z</time>
      </trkpt>
      <trkpt lat="45.71078" lon="4.59003">
        <ele>757.4</ele>
        <time>2026-08-26T09:44:22Z</time>
      </trkpt>
      <trkpt lat="45.7108" lon="4.59005">
        <ele>757.4</ele>
        <time>2026-08-26T09:44:23Z</time>
      </trkpt>
      <trkpt lat="45.71083" lon="4.59007">
        <ele>757.4</ele>
        <time>2026-08-26T09:44:24Z</time>
      </trkpt>
      <trkpt lat="45.71086" lon="4.59009">
        <ele>757.6</ele>
        <time>2026-08-26T09:44:25Z</time>
      </trkpt>
      <trkpt lat="45.71088" lon="4.59011">
        <ele>757.6</ele>
        <time>2026-08-26T09:44:26Z</time>
      </trkpt>
      <trkpt lat="45.71091" lon="4.59012">
        <ele>757.8</ele>
        <time>2026-08-26T09:44:27Z</time>
      </trkpt>
      <trkpt lat="45.71093" lon="4.59014">
        <ele>758</ele>
        <time>2026-08-26T09:44:28Z</time>
      </trkpt>
      <trkpt lat="45.71096" lon="4.59016">
        <ele>758</ele>
        <time>2026-08-26T09:44:29Z</time>
      </trkpt>
      <trkpt lat="45.71098" lon="4.59017">
        <ele>758.2</ele>
        <time>2026-08-26T09:44:30Z</time>
      </trkpt>
      <trkpt lat="45.711" lon="4.59018">
        <ele>758.4</ele>
        <time>2026-08-26T09:44:31Z</time>
      </trkpt>
      <trkpt lat="45.71103" lon="4.5902">
        <ele>758.6</ele>
        <time>2026-08-26T09:44:32Z</time>
      </trkpt>
      <trkpt lat="45.71105" lon="4.5902">
        <ele>758.6</ele>
        <time>2026-08-26T09:44:33Z</time>
      </trkpt>
      <trkpt lat="45.71107" lon="4.59021">
        <ele>758.8</ele>
        <time>2026-08-26T09:44:34Z</time>
      </trkpt>
      <trkpt lat="45.7111" lon="4.59022">
        <ele>759</ele>
        <time>2026-08-26T09:44:35Z</time>
      </trkpt>
      <trkpt lat="45.71112" lon="4.59022">
        <ele>759.2</ele>
        <time>2026-08-26T09:44:36Z</time>
      </trkpt>
      <trkpt lat="45.71115" lon="4.59022">
        <ele>759.4</ele>
        <time>2026-08-26T09:44:37Z</time>
      </trkpt>
      <trkpt lat="45.71118" lon="4.59022">
        <ele>759.4</ele>
        <time>2026-08-26T09:44:38Z</time>
      </trkpt>
      <trkpt lat="45.71121" lon="4.59022">
        <ele>759.6</ele>
        <time>2026-08-26T09:44:39Z</time>
      </trkpt>
      <trkpt lat="45.71123" lon="4.59023">
        <ele>759.8</ele>
        <time>2026-08-26T09:44:40Z</time>
      </trkpt>
      <trkpt lat="45.71126" lon="4.59022">
        <ele>759.8</ele>
        <time>2026-08-26T09:44:41Z</time>
      </trkpt>
      <trkpt lat="45.71129" lon="4.59021">
        <ele>760</ele>
        <time>2026-08-26T09:44:42Z</time>
      </trkpt>
      <trkpt lat="45.71132" lon="4.5902">
        <ele>760</ele>
        <time>2026-08-26T09:44:43Z</time>
      </trkpt>
      <trkpt lat="45.71135" lon="4.59019">
        <ele>760.2</ele>
        <time>2026-08-26T09:44:44Z</time>
      </trkpt>
      <trkpt lat="45.71138" lon="4.59018">
        <ele>760.2</ele>
        <time>2026-08-26T09:44:45Z</time>
      </trkpt>
      <trkpt lat="45.71141" lon="4.59017">
        <ele>760.4</ele>
        <time>2026-08-26T09:44:46Z</time>
      </trkpt>
      <trkpt lat="45.71144" lon="4.59016">
        <ele>760.6</ele>
        <time>2026-08-26T09:44:47Z</time>
      </trkpt>
      <trkpt lat="45.71146" lon="4.59015">
        <ele>760.8</ele>
        <time>2026-08-26T09:44:48Z</time>
      </trkpt>
      <trkpt lat="45.71149" lon="4.59013">
        <ele>760.8</ele>
        <time>2026-08-26T09:44:49Z</time>
      </trkpt>
      <trkpt lat="45.71152" lon="4.59011">
        <ele>761</ele>
        <time>2026-08-26T09:44:50Z</time>
      </trkpt>
      <trkpt lat="45.71154" lon="4.5901">
        <ele>761.2</ele>
        <time>2026-08-26T09:44:51Z</time>
      </trkpt>
      <trkpt lat="45.71157" lon="4.59008">
        <ele>761.2</ele>
        <time>2026-08-26T09:44:52Z</time>
      </trkpt>
      <trkpt lat="45.71159" lon="4.59006">
        <ele>761.4</ele>
        <time>2026-08-26T09:44:53Z</time>
      </trkpt>
      <trkpt lat="45.71161" lon="4.59004">
        <ele>761.6</ele>
        <time>2026-08-26T09:44:54Z</time>
      </trkpt>
      <trkpt lat="45.71164" lon="4.59002">
        <ele>761.6</ele>
        <time>2026-08-26T09:44:55Z</time>
      </trkpt>
      <trkpt lat="45.71166" lon="4.59">
        <ele>761.8</ele>
        <time>2026-08-26T09:44:56Z</time>
      </trkpt>
      <trkpt lat="45.71168" lon="4.58997">
        <ele>761.8</ele>
        <time>2026-08-26T09:44:57Z</time>
      </trkpt>
      <trkpt lat="45.71171" lon="4.58995">
        <ele>762</ele>
        <time>2026-08-26T09:44:58Z</time>
      </trkpt>
      <trkpt lat="45.71173" lon="4.58993">
        <ele>762.2</ele>
        <time>2026-08-26T09:44:59Z</time>
      </trkpt>
      <trkpt lat="45.71176" lon="4.58991">
        <ele>762.2</ele>
        <time>2026-08-26T09:45:00Z</time>
      </trkpt>
      <trkpt lat="45.71178" lon="4.58989">
        <ele>762.4</ele>
        <time>2026-08-26T09:45:01Z</time>
      </trkpt>
      <trkpt lat="45.7118" lon="4.58987">
        <ele>762.6</ele>
        <time>2026-08-26T09:45:02Z</time>
      </trkpt>
      <trkpt lat="45.71183" lon="4.58985">
        <ele>762.6</ele>
        <time>2026-08-26T09:45:03Z</time>
      </trkpt>
      <trkpt lat="45.71185" lon="4.58982">
        <ele>762.8</ele>
        <time>2026-08-26T09:45:04Z</time>
      </trkpt>
      <trkpt lat="45.71187" lon="4.5898">
        <ele>762.8</ele>
        <time>2026-08-26T09:45:05Z</time>
      </trkpt>
      <trkpt lat="45.71189" lon="4.58978">
        <ele>763</ele>
        <time>2026-08-26T09:45:06Z</time>
      </trkpt>
      <trkpt lat="45.71192" lon="4.58976">
        <ele>763.2</ele>
        <time>2026-08-26T09:45:07Z</time>
      </trkpt>
      <trkpt lat="45.71194" lon="4.58974">
        <ele>763.2</ele>
        <time>2026-08-26T09:45:08Z</time>
      </trkpt>
      <trkpt lat="45.71196" lon="4.58972">
        <ele>763.4</ele>
        <time>2026-08-26T09:45:09Z</time>
      </trkpt>
      <trkpt lat="45.71199" lon="4.5897">
        <ele>763.6</ele>
        <time>2026-08-26T09:45:10Z</time>
      </trkpt>
      <trkpt lat="45.71201" lon="4.58968">
        <ele>763.6</ele>
        <time>2026-08-26T09:45:11Z</time>
      </trkpt>
      <trkpt lat="45.71203" lon="4.58966">
        <ele>763.8</ele>
        <time>2026-08-26T09:45:12Z</time>
      </trkpt>
      <trkpt lat="45.71205" lon="4.58963">
        <ele>764</ele>
        <time>2026-08-26T09:45:13Z</time>
      </trkpt>
      <trkpt lat="45.71208" lon="4.58962">
        <ele>764</ele>
        <time>2026-08-26T09:45:14Z</time>
      </trkpt>
      <trkpt lat="45.7121" lon="4.5896">
        <ele>764.2</ele>
        <time>2026-08-26T09:45:15Z</time>
      </trkpt>
      <trkpt lat="45.71213" lon="4.58958">
        <ele>764.2</ele>
        <time>2026-08-26T09:45:16Z</time>
      </trkpt>
      <trkpt lat="45.71216" lon="4.58957">
        <ele>764.4</ele>
        <time>2026-08-26T09:45:17Z</time>
      </trkpt>
      <trkpt lat="45.71218" lon="4.58954">
        <ele>764.6</ele>
        <time>2026-08-26T09:45:18Z</time>
      </trkpt>
      <trkpt lat="45.71221" lon="4.58952">
        <ele>764.6</ele>
        <time>2026-08-26T09:45:19Z</time>
      </trkpt>
      <trkpt lat="45.71223" lon="4.5895">
        <ele>764.8</ele>
        <time>2026-08-26T09:45:20Z</time>
      </trkpt>
      <trkpt lat="45.71225" lon="4.58947">
        <ele>765</ele>
        <time>2026-08-26T09:45:21Z</time>
      </trkpt>
      <trkpt lat="45.71228" lon="4.58945">
        <ele>765</ele>
        <time>2026-08-26T09:45:22Z</time>
      </trkpt>
      <trkpt lat="45.7123" lon="4.58943">
        <ele>765.2</ele>
        <time>2026-08-26T09:45:23Z</time>
      </trkpt>
      <trkpt lat="45.71232" lon="4.5894">
        <ele>765.4</ele>
        <time>2026-08-26T09:45:24Z</time>
      </trkpt>
      <trkpt lat="45.71235" lon="4.58938">
        <ele>765.6</ele>
        <time>2026-08-26T09:45:25Z</time>
      </trkpt>
      <trkpt lat="45.71237" lon="4.58937">
        <ele>765.6</ele>
        <time>2026-08-26T09:45:26Z</time>
      </trkpt>
      <trkpt lat="45.7124" lon="4.58935">
        <ele>765.8</ele>
        <time>2026-08-26T09:45:27Z</time>
      </trkpt>
      <trkpt lat="45.71242" lon="4.58933">
        <ele>766</ele>
        <time>2026-08-26T09:45:28Z</time>
      </trkpt>
      <trkpt lat="45.71245" lon="4.58931">
        <ele>766</ele>
        <time>2026-08-26T09:45:29Z</time>
      </trkpt>
      <trkpt lat="45.71247" lon="4.58929">
        <ele>766.2</ele>
        <time>2026-08-26T09:45:30Z</time>
      </trkpt>
      <trkpt lat="45.71249" lon="4.58928">
        <ele>766.4</ele>
        <time>2026-08-26T09:45:31Z</time>
      </trkpt>
      <trkpt lat="45.71252" lon="4.58926">
        <ele>766.4</ele>
        <time>2026-08-26T09:45:32Z</time>
      </trkpt>
      <trkpt lat="45.71254" lon="4.58925">
        <ele>766.6</ele>
        <time>2026-08-26T09:45:33Z</time>
      </trkpt>
      <trkpt lat="45.71257" lon="4.58923">
        <ele>766.8</ele>
        <time>2026-08-26T09:45:34Z</time>
      </trkpt>
      <trkpt lat="45.7126" lon="4.58921">
        <ele>766.8</ele>
        <time>2026-08-26T09:45:35Z</time>
      </trkpt>
      <trkpt lat="45.71262" lon="4.5892">
        <ele>767</ele>
        <time>2026-08-26T09:45:36Z</time>
      </trkpt>
      <trkpt lat="45.71265" lon="4.58919">
        <ele>767</ele>
        <time>2026-08-26T09:45:37Z</time>
      </trkpt>
      <trkpt lat="45.71268" lon="4.58919">
        <ele>767.2</ele>
        <time>2026-08-26T09:45:38Z</time>
      </trkpt>
      <trkpt lat="45.7127" lon="4.58918">
        <ele>767.4</ele>
        <time>2026-08-26T09:45:39Z</time>
      </trkpt>
      <trkpt lat="45.71272" lon="4.58918">
        <ele>767.4</ele>
        <time>2026-08-26T09:45:40Z</time>
      </trkpt>
      <trkpt lat="45.71275" lon="4.58917">
        <ele>767.6</ele>
        <time>2026-08-26T09:45:41Z</time>
      </trkpt>
      <trkpt lat="45.71278" lon="4.58916">
        <ele>767.8</ele>
        <time>2026-08-26T09:45:42Z</time>
      </trkpt>
      <trkpt lat="45.7128" lon="4.58915">
        <ele>767.8</ele>
        <time>2026-08-26T09:45:43Z</time>
      </trkpt>
      <trkpt lat="45.71283" lon="4.58914">
        <ele>768</ele>
        <time>2026-08-26T09:45:44Z</time>
      </trkpt>
      <trkpt lat="45.71286" lon="4.58913">
        <ele>768</ele>
        <time>2026-08-26T09:45:45Z</time>
      </trkpt>
      <trkpt lat="45.71289" lon="4.58912">
        <ele>768</ele>
        <time>2026-08-26T09:45:46Z</time>
      </trkpt>
      <trkpt lat="45.71291" lon="4.58912">
        <ele>768.2</ele>
        <time>2026-08-26T09:45:47Z</time>
      </trkpt>
      <trkpt lat="45.71294" lon="4.58912">
        <ele>768.4</ele>
        <time>2026-08-26T09:45:48Z</time>
      </trkpt>
      <trkpt lat="45.71297" lon="4.5891">
        <ele>768.4</ele>
        <time>2026-08-26T09:45:49Z</time>
      </trkpt>
      <trkpt lat="45.71299" lon="4.58909">
        <ele>768.6</ele>
        <time>2026-08-26T09:45:50Z</time>
      </trkpt>
      <trkpt lat="45.71301" lon="4.58909">
        <ele>768.8</ele>
        <time>2026-08-26T09:45:51Z</time>
      </trkpt>
      <trkpt lat="45.71304" lon="4.58909">
        <ele>768.8</ele>
        <time>2026-08-26T09:45:52Z</time>
      </trkpt>
      <trkpt lat="45.71307" lon="4.58908">
        <ele>769</ele>
        <time>2026-08-26T09:45:53Z</time>
      </trkpt>
      <trkpt lat="45.7131" lon="4.58906">
        <ele>769.2</ele>
        <time>2026-08-26T09:45:54Z</time>
      </trkpt>
      <trkpt lat="45.71312" lon="4.58906">
        <ele>769.2</ele>
        <time>2026-08-26T09:45:55Z</time>
      </trkpt>
      <trkpt lat="45.71315" lon="4.58906">
        <ele>769.4</ele>
        <time>2026-08-26T09:45:56Z</time>
      </trkpt>
      <trkpt lat="45.71318" lon="4.58906">
        <ele>769.6</ele>
        <time>2026-08-26T09:45:57Z</time>
      </trkpt>
      <trkpt lat="45.71321" lon="4.58905">
        <ele>769.6</ele>
        <time>2026-08-26T09:45:58Z</time>
      </trkpt>
      <trkpt lat="45.71323" lon="4.58904">
        <ele>769.8</ele>
        <time>2026-08-26T09:45:59Z</time>
      </trkpt>
      <trkpt lat="45.71326" lon="4.58903">
        <ele>770</ele>
        <time>2026-08-26T09:46:00Z</time>
      </trkpt>
      <trkpt lat="45.71329" lon="4.58903">
        <ele>770.2</ele>
        <time>2026-08-26T09:46:01Z</time>
      </trkpt>
      <trkpt lat="45.71332" lon="4.58902">
        <ele>770.2</ele>
        <time>2026-08-26T09:46:02Z</time>
      </trkpt>
      <trkpt lat="45.71335" lon="4.58902">
        <ele>770.4</ele>
        <time>2026-08-26T09:46:03Z</time>
      </trkpt>
      <trkpt lat="45.71338" lon="4.58901">
        <ele>770.6</ele>
        <time>2026-08-26T09:46:04Z</time>
      </trkpt>
      <trkpt lat="45.71341" lon="4.589">
        <ele>770.8</ele>
        <time>2026-08-26T09:46:05Z</time>
      </trkpt>
      <trkpt lat="45.71344" lon="4.58899">
        <ele>770.8</ele>
        <time>2026-08-26T09:46:06Z</time>
      </trkpt>
      <trkpt lat="45.71347" lon="4.58899">
        <ele>771</ele>
        <time>2026-08-26T09:46:07Z</time>
      </trkpt>
      <trkpt lat="45.71351" lon="4.58897">
        <ele>771</ele>
        <time>2026-08-26T09:46:08Z</time>
      </trkpt>
      <trkpt lat="45.71355" lon="4.58895">
        <ele>771</ele>
        <time>2026-08-26T09:46:09Z</time>
      </trkpt>
      <trkpt lat="45.71359" lon="4.58893">
        <ele>771.2</ele>
        <time>2026-08-26T09:46:10Z</time>
      </trkpt>
      <trkpt lat="45.71363" lon="4.58891">
        <ele>771.2</ele>
        <time>2026-08-26T09:46:11Z</time>
      </trkpt>
      <trkpt lat="45.71366" lon="4.5889">
        <ele>771.2</ele>
        <time>2026-08-26T09:46:12Z</time>
      </trkpt>
      <trkpt lat="45.7137" lon="4.58888">
        <ele>771.4</ele>
        <time>2026-08-26T09:46:13Z</time>
      </trkpt>
      <trkpt lat="45.71375" lon="4.58886">
        <ele>771.4</ele>
        <time>2026-08-26T09:46:14Z</time>
      </trkpt>
      <trkpt lat="45.71378" lon="4.58884">
        <ele>771.6</ele>
        <time>2026-08-26T09:46:15Z</time>
      </trkpt>
      <trkpt lat="45.71382" lon="4.58882">
        <ele>771.6</ele>
        <time>2026-08-26T09:46:16Z</time>
      </trkpt>
      <trkpt lat="45.71385" lon="4.5888">
        <ele>771.8</ele>
        <time>2026-08-26T09:46:17Z</time>
      </trkpt>
      <trkpt lat="45.71389" lon="4.58878">
        <ele>771.8</ele>
        <time>2026-08-26T09:46:18Z</time>
      </trkpt>
      <trkpt lat="45.71392" lon="4.58877">
        <ele>771.8</ele>
        <time>2026-08-26T09:46:19Z</time>
      </trkpt>
      <trkpt lat="45.71395" lon="4.58876">
        <ele>771.8</ele>
        <time>2026-08-26T09:46:20Z</time>
      </trkpt>
      <trkpt lat="45.71399" lon="4.58874">
        <ele>772</ele>
        <time>2026-08-26T09:46:21Z</time>
      </trkpt>
      <trkpt lat="45.71402" lon="4.58871">
        <ele>771.8</ele>
        <time>2026-08-26T09:46:22Z</time>
      </trkpt>
      <trkpt lat="45.71406" lon="4.58869">
        <ele>772</ele>
        <time>2026-08-26T09:46:23Z</time>
      </trkpt>
      <trkpt lat="45.71409" lon="4.58867">
        <ele>772</ele>
        <time>2026-08-26T09:46:24Z</time>
      </trkpt>
      <trkpt lat="45.71413" lon="4.58864">
        <ele>772</ele>
        <time>2026-08-26T09:46:25Z</time>
      </trkpt>
      <trkpt lat="45.71417" lon="4.58862">
        <ele>772</ele>
        <time>2026-08-26T09:46:26Z</time>
      </trkpt>
      <trkpt lat="45.71421" lon="4.5886">
        <ele>772</ele>
        <time>2026-08-26T09:46:27Z</time>
      </trkpt>
      <trkpt lat="45.71425" lon="4.58858">
        <ele>772</ele>
        <time>2026-08-26T09:46:28Z</time>
      </trkpt>
      <trkpt lat="45.71429" lon="4.58856">
        <ele>771.8</ele>
        <time>2026-08-26T09:46:29Z</time>
      </trkpt>
      <trkpt lat="45.71433" lon="4.58854">
        <ele>772</ele>
        <time>2026-08-26T09:46:30Z</time>
      </trkpt>
      <trkpt lat="45.71438" lon="4.58852">
        <ele>772</ele>
        <time>2026-08-26T09:46:31Z</time>
      </trkpt>
      <trkpt lat="45.71442" lon="4.58849">
        <ele>772</ele>
        <time>2026-08-26T09:46:32Z</time>
      </trkpt>
      <trkpt lat="45.71446" lon="4.58846">
        <ele>772</ele>
        <time>2026-08-26T09:46:33Z</time>
      </trkpt>
      <trkpt lat="45.71451" lon="4.58844">
        <ele>772.2</ele>
        <time>2026-08-26T09:46:34Z</time>
      </trkpt>
      <trkpt lat="45.71455" lon="4.58841">
        <ele>772.2</ele>
        <time>2026-08-26T09:46:35Z</time>
      </trkpt>
      <trkpt lat="45.71459" lon="4.58839">
        <ele>772.4</ele>
        <time>2026-08-26T09:46:36Z</time>
      </trkpt>
      <trkpt lat="45.71463" lon="4.58837">
        <ele>772.6</ele>
        <time>2026-08-26T09:46:37Z</time>
      </trkpt>
      <trkpt lat="45.71467" lon="4.58835">
        <ele>772.6</ele>
        <time>2026-08-26T09:46:38Z</time>
      </trkpt>
      <trkpt lat="45.71471" lon="4.58833">
        <ele>772.8</ele>
        <time>2026-08-26T09:46:39Z</time>
      </trkpt>
      <trkpt lat="45.71475" lon="4.58831">
        <ele>772.8</ele>
        <time>2026-08-26T09:46:40Z</time>
      </trkpt>
      <trkpt lat="45.71479" lon="4.58828">
        <ele>772.8</ele>
        <time>2026-08-26T09:46:41Z</time>
      </trkpt>
      <trkpt lat="45.71484" lon="4.58825">
        <ele>772.8</ele>
        <time>2026-08-26T09:46:42Z</time>
      </trkpt>
      <trkpt lat="45.71488" lon="4.58822">
        <ele>773</ele>
        <time>2026-08-26T09:46:43Z</time>
      </trkpt>
      <trkpt lat="45.71492" lon="4.5882">
        <ele>773</ele>
        <time>2026-08-26T09:46:44Z</time>
      </trkpt>
      <trkpt lat="45.71496" lon="4.58818">
        <ele>773.2</ele>
        <time>2026-08-26T09:46:45Z</time>
      </trkpt>
      <trkpt lat="45.715" lon="4.58815">
        <ele>773.2</ele>
        <time>2026-08-26T09:46:46Z</time>
      </trkpt>
      <trkpt lat="45.71505" lon="4.58812">
        <ele>773.2</ele>
        <time>2026-08-26T09:46:47Z</time>
      </trkpt>
      <trkpt lat="45.71509" lon="4.5881">
        <ele>773.2</ele>
        <time>2026-08-26T09:46:48Z</time>
      </trkpt>
      <trkpt lat="45.71513" lon="4.58807">
        <ele>773.2</ele>
        <time>2026-08-26T09:46:49Z</time>
      </trkpt>
      <trkpt lat="45.71518" lon="4.58805">
        <ele>773.2</ele>
        <time>2026-08-26T09:46:50Z</time>
      </trkpt>
      <trkpt lat="45.71522" lon="4.58802">
        <ele>773.4</ele>
        <time>2026-08-26T09:46:51Z</time>
      </trkpt>
      <trkpt lat="45.71526" lon="4.588">
        <ele>773.6</ele>
        <time>2026-08-26T09:46:52Z</time>
      </trkpt>
      <trkpt lat="45.7153" lon="4.58798">
        <ele>773.6</ele>
        <time>2026-08-26T09:46:53Z</time>
      </trkpt>
      <trkpt lat="45.71534" lon="4.58795">
        <ele>773.8</ele>
        <time>2026-08-26T09:46:54Z</time>
      </trkpt>
      <trkpt lat="45.71538" lon="4.58793">
        <ele>774</ele>
        <time>2026-08-26T09:46:55Z</time>
      </trkpt>
      <trkpt lat="45.71542" lon="4.58791">
        <ele>774</ele>
        <time>2026-08-26T09:46:56Z</time>
      </trkpt>
      <trkpt lat="45.71546" lon="4.58788">
        <ele>774.2</ele>
        <time>2026-08-26T09:46:57Z</time>
      </trkpt>
      <trkpt lat="45.71551" lon="4.58786">
        <ele>774.4</ele>
        <time>2026-08-26T09:46:58Z</time>
      </trkpt>
      <trkpt lat="45.71554" lon="4.58784">
        <ele>774.4</ele>
        <time>2026-08-26T09:46:59Z</time>
      </trkpt>
      <trkpt lat="45.71558" lon="4.58783">
        <ele>774.6</ele>
        <time>2026-08-26T09:47:00Z</time>
      </trkpt>
      <trkpt lat="45.71562" lon="4.58781">
        <ele>774.6</ele>
        <time>2026-08-26T09:47:01Z</time>
      </trkpt>
      <trkpt lat="45.71566" lon="4.5878">
        <ele>774.8</ele>
        <time>2026-08-26T09:47:02Z</time>
      </trkpt>
      <trkpt lat="45.7157" lon="4.58778">
        <ele>775</ele>
        <time>2026-08-26T09:47:03Z</time>
      </trkpt>
      <trkpt lat="45.71574" lon="4.58777">
        <ele>775</ele>
        <time>2026-08-26T09:47:04Z</time>
      </trkpt>
      <trkpt lat="45.71577" lon="4.58776">
        <ele>775.2</ele>
        <time>2026-08-26T09:47:05Z</time>
      </trkpt>
      <trkpt lat="45.71581" lon="4.58774">
        <ele>775.2</ele>
        <time>2026-08-26T09:47:06Z</time>
      </trkpt>
      <trkpt lat="45.71585" lon="4.58773">
        <ele>775.4</ele>
        <time>2026-08-26T09:47:07Z</time>
      </trkpt>
      <trkpt lat="45.71588" lon="4.58772">
        <ele>775.6</ele>
        <time>2026-08-26T09:47:08Z</time>
      </trkpt>
      <trkpt lat="45.71591" lon="4.58772">
        <ele>776</ele>
        <time>2026-08-26T09:47:09Z</time>
      </trkpt>
      <trkpt lat="45.71595" lon="4.58771">
        <ele>776.2</ele>
        <time>2026-08-26T09:47:10Z</time>
      </trkpt>
      <trkpt lat="45.71598" lon="4.5877">
        <ele>776.2</ele>
        <time>2026-08-26T09:47:11Z</time>
      </trkpt>
      <trkpt lat="45.71602" lon="4.5877">
        <ele>776.6</ele>
        <time>2026-08-26T09:47:12Z</time>
      </trkpt>
      <trkpt lat="45.71605" lon="4.5877">
        <ele>776.6</ele>
        <time>2026-08-26T09:47:13Z</time>
      </trkpt>
      <trkpt lat="45.71608" lon="4.58771">
        <ele>776.8</ele>
        <time>2026-08-26T09:47:14Z</time>
      </trkpt>
      <trkpt lat="45.71611" lon="4.58771">
        <ele>777</ele>
        <time>2026-08-26T09:47:15Z</time>
      </trkpt>
      <trkpt lat="45.71615" lon="4.58772">
        <ele>777.2</ele>
        <time>2026-08-26T09:47:16Z</time>
      </trkpt>
      <trkpt lat="45.71618" lon="4.58772">
        <ele>777.4</ele>
        <time>2026-08-26T09:47:17Z</time>
      </trkpt>
      <trkpt lat="45.7162" lon="4.58773">
        <ele>777.6</ele>
        <time>2026-08-26T09:47:18Z</time>
      </trkpt>
      <trkpt lat="45.71623" lon="4.58774">
        <ele>777.8</ele>
        <time>2026-08-26T09:47:19Z</time>
      </trkpt>
      <trkpt lat="45.71626" lon="4.58775">
        <ele>778</ele>
        <time>2026-08-26T09:47:20Z</time>
      </trkpt>
      <trkpt lat="45.71629" lon="4.58776">
        <ele>778.2</ele>
        <time>2026-08-26T09:47:21Z</time>
      </trkpt>
      <trkpt lat="45.71632" lon="4.58778">
        <ele>778.4</ele>
        <time>2026-08-26T09:47:22Z</time>
      </trkpt>
      <trkpt lat="45.71635" lon="4.58779">
        <ele>778.4</ele>
        <time>2026-08-26T09:47:23Z</time>
      </trkpt>
      <trkpt lat="45.71638" lon="4.58781">
        <ele>778.6</ele>
        <time>2026-08-26T09:47:24Z</time>
      </trkpt>
      <trkpt lat="45.71641" lon="4.58783">
        <ele>778.8</ele>
        <time>2026-08-26T09:47:25Z</time>
      </trkpt>
      <trkpt lat="45.71643" lon="4.58785">
        <ele>779</ele>
        <time>2026-08-26T09:47:26Z</time>
      </trkpt>
      <trkpt lat="45.71645" lon="4.58788">
        <ele>779.2</ele>
        <time>2026-08-26T09:47:27Z</time>
      </trkpt>
      <trkpt lat="45.71647" lon="4.58791">
        <ele>779.2</ele>
        <time>2026-08-26T09:47:28Z</time>
      </trkpt>
      <trkpt lat="45.71649" lon="4.58794">
        <ele>779.4</ele>
        <time>2026-08-26T09:47:29Z</time>
      </trkpt>
      <trkpt lat="45.71652" lon="4.58796">
        <ele>779.6</ele>
        <time>2026-08-26T09:47:30Z</time>
      </trkpt>
      <trkpt lat="45.71654" lon="4.58799">
        <ele>779.6</ele>
        <time>2026-08-26T09:47:31Z</time>
      </trkpt>
      <trkpt lat="45.71656" lon="4.58802">
        <ele>779.8</ele>
        <time>2026-08-26T09:47:32Z</time>
      </trkpt>
      <trkpt lat="45.71658" lon="4.58805">
        <ele>780</ele>
        <time>2026-08-26T09:47:33Z</time>
      </trkpt>
      <trkpt lat="45.7166" lon="4.58807">
        <ele>780.2</ele>
        <time>2026-08-26T09:47:34Z</time>
      </trkpt>
      <trkpt lat="45.71662" lon="4.5881">
        <ele>780.2</ele>
        <time>2026-08-26T09:47:35Z</time>
      </trkpt>
      <trkpt lat="45.71664" lon="4.58813">
        <ele>780.4</ele>
        <time>2026-08-26T09:47:36Z</time>
      </trkpt>
      <trkpt lat="45.71665" lon="4.58816">
        <ele>780.6</ele>
        <time>2026-08-26T09:47:37Z</time>
      </trkpt>
      <trkpt lat="45.71667" lon="4.58819">
        <ele>780.6</ele>
        <time>2026-08-26T09:47:38Z</time>
      </trkpt>
      <trkpt lat="45.71668" lon="4.58821">
        <ele>780.8</ele>
        <time>2026-08-26T09:47:39Z</time>
      </trkpt>
      <trkpt lat="45.7167" lon="4.58824">
        <ele>781</ele>
        <time>2026-08-26T09:47:40Z</time>
      </trkpt>
      <trkpt lat="45.71672" lon="4.58827">
        <ele>781.2</ele>
        <time>2026-08-26T09:47:41Z</time>
      </trkpt>
      <trkpt lat="45.71674" lon="4.5883">
        <ele>781.4</ele>
        <time>2026-08-26T09:47:42Z</time>
      </trkpt>
      <trkpt lat="45.71675" lon="4.58833">
        <ele>781.6</ele>
        <time>2026-08-26T09:47:43Z</time>
      </trkpt>
      <trkpt lat="45.71676" lon="4.58836">
        <ele>781.8</ele>
        <time>2026-08-26T09:47:44Z</time>
      </trkpt>
      <trkpt lat="45.71677" lon="4.58839">
        <ele>782.2</ele>
        <time>2026-08-26T09:47:45Z</time>
      </trkpt>
      <trkpt lat="45.71678" lon="4.58843">
        <ele>782.4</ele>
        <time>2026-08-26T09:47:46Z</time>
      </trkpt>
      <trkpt lat="45.71679" lon="4.58846">
        <ele>782.6</ele>
        <time>2026-08-26T09:47:47Z</time>
      </trkpt>
      <trkpt lat="45.7168" lon="4.5885">
        <ele>782.6</ele>
        <time>2026-08-26T09:47:48Z</time>
      </trkpt>
      <trkpt lat="45.7168" lon="4.58853">
        <ele>782.8</ele>
        <time>2026-08-26T09:47:49Z</time>
      </trkpt>
      <trkpt lat="45.71682" lon="4.58857">
        <ele>783</ele>
        <time>2026-08-26T09:47:50Z</time>
      </trkpt>
      <trkpt lat="45.71682" lon="4.58861">
        <ele>783.2</ele>
        <time>2026-08-26T09:47:51Z</time>
      </trkpt>
      <trkpt lat="45.71683" lon="4.58865">
        <ele>783.2</ele>
        <time>2026-08-26T09:47:52Z</time>
      </trkpt>
      <trkpt lat="45.71683" lon="4.58869">
        <ele>783.4</ele>
        <time>2026-08-26T09:47:53Z</time>
      </trkpt>
      <trkpt lat="45.71684" lon="4.58873">
        <ele>783.6</ele>
        <time>2026-08-26T09:47:54Z</time>
      </trkpt>
      <trkpt lat="45.71685" lon="4.58877">
        <ele>783.6</ele>
        <time>2026-08-26T09:47:55Z</time>
      </trkpt>
      <trkpt lat="45.71685" lon="4.58881">
        <ele>783.8</ele>
        <time>2026-08-26T09:47:56Z</time>
      </trkpt>
      <trkpt lat="45.71685" lon="4.58885">
        <ele>784</ele>
        <time>2026-08-26T09:47:57Z</time>
      </trkpt>
      <trkpt lat="45.71686" lon="4.58889">
        <ele>784.2</ele>
        <time>2026-08-26T09:47:58Z</time>
      </trkpt>
      <trkpt lat="45.71687" lon="4.58893">
        <ele>784.2</ele>
        <time>2026-08-26T09:47:59Z</time>
      </trkpt>
      <trkpt lat="45.71687" lon="4.58898">
        <ele>784.4</ele>
        <time>2026-08-26T09:48:00Z</time>
      </trkpt>
      <trkpt lat="45.71688" lon="4.58902">
        <ele>784.6</ele>
        <time>2026-08-26T09:48:01Z</time>
      </trkpt>
      <trkpt lat="45.71688" lon="4.58906">
        <ele>784.6</ele>
        <time>2026-08-26T09:48:02Z</time>
      </trkpt>
      <trkpt lat="45.71689" lon="4.5891">
        <ele>784.6</ele>
        <time>2026-08-26T09:48:03Z</time>
      </trkpt>
      <trkpt lat="45.71689" lon="4.58915">
        <ele>784.8</ele>
        <time>2026-08-26T09:48:04Z</time>
      </trkpt>
      <trkpt lat="45.7169" lon="4.58919">
        <ele>784.8</ele>
        <time>2026-08-26T09:48:05Z</time>
      </trkpt>
      <trkpt lat="45.7169" lon="4.58923">
        <ele>784.8</ele>
        <time>2026-08-26T09:48:06Z</time>
      </trkpt>
      <trkpt lat="45.71691" lon="4.58928">
        <ele>784.8</ele>
        <time>2026-08-26T09:48:07Z</time>
      </trkpt>
      <trkpt lat="45.71691" lon="4.58932">
        <ele>785</ele>
        <time>2026-08-26T09:48:08Z</time>
      </trkpt>
      <trkpt lat="45.71692" lon="4.58935">
        <ele>785</ele>
        <time>2026-08-26T09:48:09Z</time>
      </trkpt>
      <trkpt lat="45.71692" lon="4.58939">
        <ele>785.2</ele>
        <time>2026-08-26T09:48:10Z</time>
      </trkpt>
      <trkpt lat="45.71693" lon="4.58944">
        <ele>785.4</ele>
        <time>2026-08-26T09:48:11Z</time>
      </trkpt>
      <trkpt lat="45.71694" lon="4.58948">
        <ele>785.4</ele>
        <time>2026-08-26T09:48:12Z</time>
      </trkpt>
      <trkpt lat="45.71694" lon="4.58953">
        <ele>785.6</ele>
        <time>2026-08-26T09:48:13Z</time>
      </trkpt>
      <trkpt lat="45.71695" lon="4.58957">
        <ele>785.6</ele>
        <time>2026-08-26T09:48:14Z</time>
      </trkpt>
      <trkpt lat="45.71695" lon="4.58962">
        <ele>785.6</ele>
        <time>2026-08-26T09:48:15Z</time>
      </trkpt>
      <trkpt lat="45.71695" lon="4.58967">
        <ele>785.6</ele>
        <time>2026-08-26T09:48:16Z</time>
      </trkpt>
      <trkpt lat="45.71696" lon="4.58971">
        <ele>785.8</ele>
        <time>2026-08-26T09:48:17Z</time>
      </trkpt>
      <trkpt lat="45.71696" lon="4.58976">
        <ele>785.8</ele>
        <time>2026-08-26T09:48:18Z</time>
      </trkpt>
      <trkpt lat="45.71697" lon="4.58981">
        <ele>786</ele>
        <time>2026-08-26T09:48:19Z</time>
      </trkpt>
      <trkpt lat="45.71697" lon="4.58985">
        <ele>786.2</ele>
        <time>2026-08-26T09:48:20Z</time>
      </trkpt>
      <trkpt lat="45.71698" lon="4.5899">
        <ele>786.4</ele>
        <time>2026-08-26T09:48:21Z</time>
      </trkpt>
      <trkpt lat="45.71698" lon="4.58994">
        <ele>786.6</ele>
        <time>2026-08-26T09:48:22Z</time>
      </trkpt>
      <trkpt lat="45.71698" lon="4.58999">
        <ele>786.8</ele>
        <time>2026-08-26T09:48:23Z</time>
      </trkpt>
      <trkpt lat="45.71699" lon="4.59003">
        <ele>787</ele>
        <time>2026-08-26T09:48:24Z</time>
      </trkpt>
      <trkpt lat="45.71699" lon="4.59008">
        <ele>787</ele>
        <time>2026-08-26T09:48:25Z</time>
      </trkpt>
      <trkpt lat="45.71699" lon="4.59012">
        <ele>787</ele>
        <time>2026-08-26T09:48:26Z</time>
      </trkpt>
      <trkpt lat="45.717" lon="4.59017">
        <ele>787.2</ele>
        <time>2026-08-26T09:48:27Z</time>
      </trkpt>
      <trkpt lat="45.717" lon="4.59021">
        <ele>787.2</ele>
        <time>2026-08-26T09:48:28Z</time>
      </trkpt>
      <trkpt lat="45.71701" lon="4.59026">
        <ele>787.4</ele>
        <time>2026-08-26T09:48:29Z</time>
      </trkpt>
      <trkpt lat="45.71701" lon="4.59031">
        <ele>787.6</ele>
        <time>2026-08-26T09:48:30Z</time>
      </trkpt>
      <trkpt lat="45.71702" lon="4.59036">
        <ele>787.8</ele>
        <time>2026-08-26T09:48:31Z</time>
      </trkpt>
      <trkpt lat="45.71702" lon="4.5904">
        <ele>787.8</ele>
        <time>2026-08-26T09:48:32Z</time>
      </trkpt>
      <trkpt lat="45.71702" lon="4.59044">
        <ele>788</ele>
        <time>2026-08-26T09:48:33Z</time>
      </trkpt>
      <trkpt lat="45.71703" lon="4.59048">
        <ele>788.2</ele>
        <time>2026-08-26T09:48:34Z</time>
      </trkpt>
      <trkpt lat="45.71704" lon="4.59052">
        <ele>788.2</ele>
        <time>2026-08-26T09:48:35Z</time>
      </trkpt>
      <trkpt lat="45.71704" lon="4.59056">
        <ele>788.2</ele>
        <time>2026-08-26T09:48:36Z</time>
      </trkpt>
      <trkpt lat="45.71705" lon="4.59061">
        <ele>788.2</ele>
        <time>2026-08-26T09:48:37Z</time>
      </trkpt>
      <trkpt lat="45.71706" lon="4.59065">
        <ele>788.2</ele>
        <time>2026-08-26T09:48:38Z</time>
      </trkpt>
      <trkpt lat="45.71707" lon="4.59069">
        <ele>788.4</ele>
        <time>2026-08-26T09:48:39Z</time>
      </trkpt>
      <trkpt lat="45.71708" lon="4.59073">
        <ele>788.4</ele>
        <time>2026-08-26T09:48:40Z</time>
      </trkpt>
      <trkpt lat="45.71709" lon="4.59077">
        <ele>788.6</ele>
        <time>2026-08-26T09:48:41Z</time>
      </trkpt>
      <trkpt lat="45.71709" lon="4.59081">
        <ele>788.6</ele>
        <time>2026-08-26T09:48:42Z</time>
      </trkpt>
      <trkpt lat="45.7171" lon="4.59086">
        <ele>788.8</ele>
        <time>2026-08-26T09:48:43Z</time>
      </trkpt>
      <trkpt lat="45.71711" lon="4.5909">
        <ele>789</ele>
        <time>2026-08-26T09:48:44Z</time>
      </trkpt>
      <trkpt lat="45.71712" lon="4.59094">
        <ele>789.2</ele>
        <time>2026-08-26T09:48:45Z</time>
      </trkpt>
      <trkpt lat="45.71713" lon="4.59098">
        <ele>789.4</ele>
        <time>2026-08-26T09:48:46Z</time>
      </trkpt>
      <trkpt lat="45.71715" lon="4.59103">
        <ele>789.6</ele>
        <time>2026-08-26T09:48:47Z</time>
      </trkpt>
      <trkpt lat="45.71716" lon="4.59107">
        <ele>789.8</ele>
        <time>2026-08-26T09:48:48Z</time>
      </trkpt>
      <trkpt lat="45.71717" lon="4.59111">
        <ele>790</ele>
        <time>2026-08-26T09:48:49Z</time>
      </trkpt>
      <trkpt lat="45.71717" lon="4.59115">
        <ele>790.2</ele>
        <time>2026-08-26T09:48:50Z</time>
      </trkpt>
      <trkpt lat="45.71718" lon="4.59118">
        <ele>790.4</ele>
        <time>2026-08-26T09:48:51Z</time>
      </trkpt>
      <trkpt lat="45.71718" lon="4.59121">
        <ele>790.6</ele>
        <time>2026-08-26T09:48:52Z</time>
      </trkpt>
      <trkpt lat="45.71719" lon="4.59125">
        <ele>790.8</ele>
        <time>2026-08-26T09:48:53Z</time>
      </trkpt>
      <trkpt lat="45.7172" lon="4.59128">
        <ele>791</ele>
        <time>2026-08-26T09:48:54Z</time>
      </trkpt>
      <trkpt lat="45.71721" lon="4.59131">
        <ele>791.4</ele>
        <time>2026-08-26T09:48:55Z</time>
      </trkpt>
      <trkpt lat="45.71723" lon="4.59134">
        <ele>791.4</ele>
        <time>2026-08-26T09:48:56Z</time>
      </trkpt>
      <trkpt lat="45.71725" lon="4.59137">
        <ele>791.6</ele>
        <time>2026-08-26T09:48:57Z</time>
      </trkpt>
      <trkpt lat="45.71727" lon="4.5914">
        <ele>791.8</ele>
        <time>2026-08-26T09:48:58Z</time>
      </trkpt>
      <trkpt lat="45.71729" lon="4.59143">
        <ele>792</ele>
        <time>2026-08-26T09:48:59Z</time>
      </trkpt>
      <trkpt lat="45.7173" lon="4.59146">
        <ele>792</ele>
        <time>2026-08-26T09:49:00Z</time>
      </trkpt>
      <trkpt lat="45.71732" lon="4.59149">
        <ele>792.2</ele>
        <time>2026-08-26T09:49:01Z</time>
      </trkpt>
      <trkpt lat="45.71734" lon="4.59152">
        <ele>792.4</ele>
        <time>2026-08-26T09:49:02Z</time>
      </trkpt>
      <trkpt lat="45.71737" lon="4.59154">
        <ele>792.4</ele>
        <time>2026-08-26T09:49:03Z</time>
      </trkpt>
      <trkpt lat="45.71739" lon="4.59157">
        <ele>792.6</ele>
        <time>2026-08-26T09:49:04Z</time>
      </trkpt>
      <trkpt lat="45.71742" lon="4.59159">
        <ele>792.6</ele>
        <time>2026-08-26T09:49:05Z</time>
      </trkpt>
      <trkpt lat="45.71744" lon="4.59161">
        <ele>792.8</ele>
        <time>2026-08-26T09:49:06Z</time>
      </trkpt>
      <trkpt lat="45.71747" lon="4.59163">
        <ele>792.8</ele>
        <time>2026-08-26T09:49:07Z</time>
      </trkpt>
      <trkpt lat="45.71751" lon="4.59165">
        <ele>792.8</ele>
        <time>2026-08-26T09:49:08Z</time>
      </trkpt>
      <trkpt lat="45.71754" lon="4.59166">
        <ele>792.8</ele>
        <time>2026-08-26T09:49:09Z</time>
      </trkpt>
      <trkpt lat="45.71757" lon="4.59167">
        <ele>792.8</ele>
        <time>2026-08-26T09:49:10Z</time>
      </trkpt>
      <trkpt lat="45.71761" lon="4.59168">
        <ele>792.8</ele>
        <time>2026-08-26T09:49:11Z</time>
      </trkpt>
      <trkpt lat="45.71764" lon="4.59169">
        <ele>792.8</ele>
        <time>2026-08-26T09:49:12Z</time>
      </trkpt>
      <trkpt lat="45.71768" lon="4.59168">
        <ele>793</ele>
        <time>2026-08-26T09:49:13Z</time>
      </trkpt>
      <trkpt lat="45.71771" lon="4.59167">
        <ele>793</ele>
        <time>2026-08-26T09:49:14Z</time>
      </trkpt>
      <trkpt lat="45.71775" lon="4.59166">
        <ele>793.2</ele>
        <time>2026-08-26T09:49:15Z</time>
      </trkpt>
      <trkpt lat="45.71778" lon="4.59165">
        <ele>793.2</ele>
        <time>2026-08-26T09:49:16Z</time>
      </trkpt>
      <trkpt lat="45.71781" lon="4.59164">
        <ele>793.4</ele>
        <time>2026-08-26T09:49:17Z</time>
      </trkpt>
      <trkpt lat="45.71785" lon="4.59162">
        <ele>793.4</ele>
        <time>2026-08-26T09:49:18Z</time>
      </trkpt>
      <trkpt lat="45.71788" lon="4.5916">
        <ele>793.4</ele>
        <time>2026-08-26T09:49:19Z</time>
      </trkpt>
      <trkpt lat="45.71791" lon="4.59157">
        <ele>793.6</ele>
        <time>2026-08-26T09:49:20Z</time>
      </trkpt>
      <trkpt lat="45.71794" lon="4.59155">
        <ele>793.8</ele>
        <time>2026-08-26T09:49:21Z</time>
      </trkpt>
      <trkpt lat="45.71798" lon="4.59152">
        <ele>793.8</ele>
        <time>2026-08-26T09:49:22Z</time>
      </trkpt>
      <trkpt lat="45.718" lon="4.59149">
        <ele>794</ele>
        <time>2026-08-26T09:49:23Z</time>
      </trkpt>
      <trkpt lat="45.71803" lon="4.59145">
        <ele>794.2</ele>
        <time>2026-08-26T09:49:24Z</time>
      </trkpt>
      <trkpt lat="45.71806" lon="4.59142">
        <ele>794.2</ele>
        <time>2026-08-26T09:49:25Z</time>
      </trkpt>
      <trkpt lat="45.71809" lon="4.59139">
        <ele>794.4</ele>
        <time>2026-08-26T09:49:26Z</time>
      </trkpt>
      <trkpt lat="45.71812" lon="4.59136">
        <ele>794.6</ele>
        <time>2026-08-26T09:49:27Z</time>
      </trkpt>
      <trkpt lat="45.71815" lon="4.59134">
        <ele>794.8</ele>
        <time>2026-08-26T09:49:28Z</time>
      </trkpt>
      <trkpt lat="45.71819" lon="4.59131">
        <ele>794.8</ele>
        <time>2026-08-26T09:49:29Z</time>
      </trkpt>
      <trkpt lat="45.71822" lon="4.59129">
        <ele>795</ele>
        <time>2026-08-26T09:49:30Z</time>
      </trkpt>
      <trkpt lat="45.71825" lon="4.59127">
        <ele>795.2</ele>
        <time>2026-08-26T09:49:31Z</time>
      </trkpt>
      <trkpt lat="45.71828" lon="4.59125">
        <ele>795.2</ele>
        <time>2026-08-26T09:49:32Z</time>
      </trkpt>
      <trkpt lat="45.71831" lon="4.59123">
        <ele>795.4</ele>
        <time>2026-08-26T09:49:33Z</time>
      </trkpt>
      <trkpt lat="45.71834" lon="4.59122">
        <ele>795.6</ele>
        <time>2026-08-26T09:49:34Z</time>
      </trkpt>
      <trkpt lat="45.71837" lon="4.5912">
        <ele>795.8</ele>
        <time>2026-08-26T09:49:35Z</time>
      </trkpt>
      <trkpt lat="45.7184" lon="4.59118">
        <ele>795.8</ele>
        <time>2026-08-26T09:49:36Z</time>
      </trkpt>
      <trkpt lat="45.71843" lon="4.59117">
        <ele>796</ele>
        <time>2026-08-26T09:49:37Z</time>
      </trkpt>
      <trkpt lat="45.71846" lon="4.59115">
        <ele>796.2</ele>
        <time>2026-08-26T09:49:38Z</time>
      </trkpt>
      <trkpt lat="45.71849" lon="4.59114">
        <ele>796.4</ele>
        <time>2026-08-26T09:49:39Z</time>
      </trkpt>
      <trkpt lat="45.71852" lon="4.59112">
        <ele>796.6</ele>
        <time>2026-08-26T09:49:40Z</time>
      </trkpt>
      <trkpt lat="45.71855" lon="4.59112">
        <ele>796.6</ele>
        <time>2026-08-26T09:49:41Z</time>
      </trkpt>
      <trkpt lat="45.71858" lon="4.5911">
        <ele>796.8</ele>
        <time>2026-08-26T09:49:42Z</time>
      </trkpt>
      <trkpt lat="45.7186" lon="4.59109">
        <ele>797</ele>
        <time>2026-08-26T09:49:43Z</time>
      </trkpt>
      <trkpt lat="45.71863" lon="4.59108">
        <ele>797.2</ele>
        <time>2026-08-26T09:49:44Z</time>
      </trkpt>
      <trkpt lat="45.71866" lon="4.59108">
        <ele>797.4</ele>
        <time>2026-08-26T09:49:45Z</time>
      </trkpt>
      <trkpt lat="45.71869" lon="4.59107">
        <ele>797.6</ele>
        <time>2026-08-26T09:49:46Z</time>
      </trkpt>
      <trkpt lat="45.71872" lon="4.59107">
        <ele>797.6</ele>
        <time>2026-08-26T09:49:47Z</time>
      </trkpt>
      <trkpt lat="45.71875" lon="4.59108">
        <ele>797.8</ele>
        <time>2026-08-26T09:49:48Z</time>
      </trkpt>
      <trkpt lat="45.71878" lon="4.59108">
        <ele>798</ele>
        <time>2026-08-26T09:49:49Z</time>
      </trkpt>
      <trkpt lat="45.7188" lon="4.59108">
        <ele>798.2</ele>
        <time>2026-08-26T09:49:50Z</time>
      </trkpt>
      <trkpt lat="45.71883" lon="4.59108">
        <ele>798.4</ele>
        <time>2026-08-26T09:49:51Z</time>
      </trkpt>
      <trkpt lat="45.71885" lon="4.59108">
        <ele>798.4</ele>
        <time>2026-08-26T09:49:52Z</time>
      </trkpt>
      <trkpt lat="45.71888" lon="4.59109">
        <ele>798.6</ele>
        <time>2026-08-26T09:49:53Z</time>
      </trkpt>
      <trkpt lat="45.7189" lon="4.5911">
        <ele>798.8</ele>
        <time>2026-08-26T09:49:54Z</time>
      </trkpt>
      <trkpt lat="45.71893" lon="4.5911">
        <ele>799</ele>
        <time>2026-08-26T09:49:55Z</time>
      </trkpt>
      <trkpt lat="45.71895" lon="4.5911">
        <ele>799.2</ele>
        <time>2026-08-26T09:49:56Z</time>
      </trkpt>
      <trkpt lat="45.71897" lon="4.5911">
        <ele>799.4</ele>
        <time>2026-08-26T09:49:57Z</time>
      </trkpt>
      <trkpt lat="45.719" lon="4.59111">
        <ele>799.6</ele>
        <time>2026-08-26T09:49:58Z</time>
      </trkpt>
      <trkpt lat="45.71902" lon="4.59113">
        <ele>799.6</ele>
        <time>2026-08-26T09:49:59Z</time>
      </trkpt>
      <trkpt lat="45.71904" lon="4.59113">
        <ele>799.8</ele>
        <time>2026-08-26T09:50:00Z</time>
      </trkpt>
      <trkpt lat="45.71906" lon="4.59113">
        <ele>799.8</ele>
        <time>2026-08-26T09:50:01Z</time>
      </trkpt>
      <trkpt lat="45.71908" lon="4.59114">
        <ele>800</ele>
        <time>2026-08-26T09:50:02Z</time>
      </trkpt>
      <trkpt lat="45.71911" lon="4.59115">
        <ele>800.2</ele>
        <time>2026-08-26T09:50:03Z</time>
      </trkpt>
      <trkpt lat="45.71913" lon="4.59116">
        <ele>800.4</ele>
        <time>2026-08-26T09:50:04Z</time>
      </trkpt>
      <trkpt lat="45.71915" lon="4.59117">
        <ele>800.6</ele>
        <time>2026-08-26T09:50:05Z</time>
      </trkpt>
      <trkpt lat="45.71918" lon="4.59119">
        <ele>800.8</ele>
        <time>2026-08-26T09:50:06Z</time>
      </trkpt>
      <trkpt lat="45.71921" lon="4.5912">
        <ele>800.8</ele>
        <time>2026-08-26T09:50:07Z</time>
      </trkpt>
      <trkpt lat="45.71923" lon="4.59121">
        <ele>801</ele>
        <time>2026-08-26T09:50:08Z</time>
      </trkpt>
      <trkpt lat="45.71926" lon="4.59123">
        <ele>801.2</ele>
        <time>2026-08-26T09:50:09Z</time>
      </trkpt>
      <trkpt lat="45.71928" lon="4.59125">
        <ele>801.2</ele>
        <time>2026-08-26T09:50:10Z</time>
      </trkpt>
      <trkpt lat="45.71931" lon="4.59126">
        <ele>801.2</ele>
        <time>2026-08-26T09:50:11Z</time>
      </trkpt>
      <trkpt lat="45.71934" lon="4.59128">
        <ele>801.4</ele>
        <time>2026-08-26T09:50:12Z</time>
      </trkpt>
      <trkpt lat="45.71937" lon="4.59129">
        <ele>801.4</ele>
        <time>2026-08-26T09:50:13Z</time>
      </trkpt>
      <trkpt lat="45.71939" lon="4.5913">
        <ele>801.6</ele>
        <time>2026-08-26T09:50:14Z</time>
      </trkpt>
      <trkpt lat="45.71942" lon="4.59132">
        <ele>801.6</ele>
        <time>2026-08-26T09:50:15Z</time>
      </trkpt>
      <trkpt lat="45.71945" lon="4.59133">
        <ele>801.8</ele>
        <time>2026-08-26T09:50:16Z</time>
      </trkpt>
      <trkpt lat="45.71947" lon="4.59135">
        <ele>802</ele>
        <time>2026-08-26T09:50:17Z</time>
      </trkpt>
      <trkpt lat="45.7195" lon="4.59136">
        <ele>802.2</ele>
        <time>2026-08-26T09:50:18Z</time>
      </trkpt>
      <trkpt lat="45.71952" lon="4.59138">
        <ele>802.6</ele>
        <time>2026-08-26T09:50:19Z</time>
      </trkpt>
      <trkpt lat="45.71955" lon="4.5914">
        <ele>802.8</ele>
        <time>2026-08-26T09:50:20Z</time>
      </trkpt>
      <trkpt lat="45.71957" lon="4.59141">
        <ele>803</ele>
        <time>2026-08-26T09:50:21Z</time>
      </trkpt>
      <trkpt lat="45.7196" lon="4.59143">
        <ele>803</ele>
        <time>2026-08-26T09:50:22Z</time>
      </trkpt>
      <trkpt lat="45.71962" lon="4.59144">
        <ele>803.2</ele>
        <time>2026-08-26T09:50:23Z</time>
      </trkpt>
      <trkpt lat="45.71964" lon="4.59146">
        <ele>803.4</ele>
        <time>2026-08-26T09:50:24Z</time>
      </trkpt>
      <trkpt lat="45.71967" lon="4.59148">
        <ele>803.6</ele>
        <time>2026-08-26T09:50:25Z</time>
      </trkpt>
      <trkpt lat="45.71969" lon="4.5915">
        <ele>803.8</ele>
        <time>2026-08-26T09:50:26Z</time>
      </trkpt>
      <trkpt lat="45.71972" lon="4.59151">
        <ele>804</ele>
        <time>2026-08-26T09:50:27Z</time>
      </trkpt>
      <trkpt lat="45.71974" lon="4.59152">
        <ele>804</ele>
        <time>2026-08-26T09:50:28Z</time>
      </trkpt>
      <trkpt lat="45.71977" lon="4.59153">
        <ele>804.2</ele>
        <time>2026-08-26T09:50:29Z</time>
      </trkpt>
      <trkpt lat="45.71979" lon="4.59154">
        <ele>804.4</ele>
        <time>2026-08-26T09:50:30Z</time>
      </trkpt>
      <trkpt lat="45.71982" lon="4.59155">
        <ele>804.6</ele>
        <time>2026-08-26T09:50:31Z</time>
      </trkpt>
      <trkpt lat="45.71984" lon="4.59157">
        <ele>804.6</ele>
        <time>2026-08-26T09:50:32Z</time>
      </trkpt>
      <trkpt lat="45.71986" lon="4.59158">
        <ele>804.8</ele>
        <time>2026-08-26T09:50:33Z</time>
      </trkpt>
      <trkpt lat="45.71988" lon="4.5916">
        <ele>805</ele>
        <time>2026-08-26T09:50:34Z</time>
      </trkpt>
      <trkpt lat="45.7199" lon="4.59161">
        <ele>805.2</ele>
        <time>2026-08-26T09:50:35Z</time>
      </trkpt>
      <trkpt lat="45.71993" lon="4.59163">
        <ele>805.4</ele>
        <time>2026-08-26T09:50:36Z</time>
      </trkpt>
      <trkpt lat="45.71995" lon="4.59164">
        <ele>805.6</ele>
        <time>2026-08-26T09:50:37Z</time>
      </trkpt>
      <trkpt lat="45.71998" lon="4.59165">
        <ele>805.8</ele>
        <time>2026-08-26T09:50:38Z</time>
      </trkpt>
      <trkpt lat="45.72" lon="4.59166">
        <ele>806</ele>
        <time>2026-08-26T09:50:39Z</time>
      </trkpt>
      <trkpt lat="45.72003" lon="4.59167">
        <ele>806</ele>
        <time>2026-08-26T09:50:40Z</time>
      </trkpt>
      <trkpt lat="45.72005" lon="4.59168">
        <ele>806.2</ele>
        <time>2026-08-26T09:50:41Z</time>
      </trkpt>
      <trkpt lat="45.72008" lon="4.59169">
        <ele>806.2</ele>
        <time>2026-08-26T09:50:42Z</time>
      </trkpt>
      <trkpt lat="45.7201" lon="4.59171">
        <ele>806.4</ele>
        <time>2026-08-26T09:50:43Z</time>
      </trkpt>
      <trkpt lat="45.72012" lon="4.59173">
        <ele>806.4</ele>
        <time>2026-08-26T09:50:44Z</time>
      </trkpt>
      <trkpt lat="45.72014" lon="4.59175">
        <ele>806.4</ele>
        <time>2026-08-26T09:50:45Z</time>
      </trkpt>
      <trkpt lat="45.72017" lon="4.59177">
        <ele>806.6</ele>
        <time>2026-08-26T09:50:46Z</time>
      </trkpt>
      <trkpt lat="45.72019" lon="4.59178">
        <ele>806.8</ele>
        <time>2026-08-26T09:50:47Z</time>
      </trkpt>
      <trkpt lat="45.72021" lon="4.59179">
        <ele>806.8</ele>
        <time>2026-08-26T09:50:48Z</time>
      </trkpt>
      <trkpt lat="45.72024" lon="4.5918">
        <ele>807</ele>
        <time>2026-08-26T09:50:49Z</time>
      </trkpt>
      <trkpt lat="45.72026" lon="4.59181">
        <ele>807.2</ele>
        <time>2026-08-26T09:50:50Z</time>
      </trkpt>
      <trkpt lat="45.72029" lon="4.59183">
        <ele>807.2</ele>
        <time>2026-08-26T09:50:51Z</time>
      </trkpt>
      <trkpt lat="45.72031" lon="4.59184">
        <ele>807.4</ele>
        <time>2026-08-26T09:50:52Z</time>
      </trkpt>
      <trkpt lat="45.72033" lon="4.59186">
        <ele>807.6</ele>
        <time>2026-08-26T09:50:53Z</time>
      </trkpt>
      <trkpt lat="45.72035" lon="4.59187">
        <ele>807.8</ele>
        <time>2026-08-26T09:50:54Z</time>
      </trkpt>
      <trkpt lat="45.72038" lon="4.59189">
        <ele>807.8</ele>
        <time>2026-08-26T09:50:55Z</time>
      </trkpt>
      <trkpt lat="45.7204" lon="4.5919">
        <ele>808</ele>
        <time>2026-08-26T09:50:56Z</time>
      </trkpt>
      <trkpt lat="45.72042" lon="4.59192">
        <ele>808.2</ele>
        <time>2026-08-26T09:50:57Z</time>
      </trkpt>
      <trkpt lat="45.72044" lon="4.59193">
        <ele>808.4</ele>
        <time>2026-08-26T09:50:58Z</time>
      </trkpt>
      <trkpt lat="45.72047" lon="4.59195">
        <ele>808.6</ele>
        <time>2026-08-26T09:50:59Z</time>
      </trkpt>
      <trkpt lat="45.72049" lon="4.59197">
        <ele>808.6</ele>
        <time>2026-08-26T09:51:00Z</time>
      </trkpt>
      <trkpt lat="45.72051" lon="4.59199">
        <ele>808.6</ele>
        <time>2026-08-26T09:51:01Z</time>
      </trkpt>
      <trkpt lat="45.72053" lon="4.592">
        <ele>808.8</ele>
        <time>2026-08-26T09:51:02Z</time>
      </trkpt>
      <trkpt lat="45.72055" lon="4.59202">
        <ele>809</ele>
        <time>2026-08-26T09:51:03Z</time>
      </trkpt>
      <trkpt lat="45.72058" lon="4.59203">
        <ele>809.2</ele>
        <time>2026-08-26T09:51:04Z</time>
      </trkpt>
      <trkpt lat="45.7206" lon="4.59204">
        <ele>809.4</ele>
        <time>2026-08-26T09:51:05Z</time>
      </trkpt>
      <trkpt lat="45.72062" lon="4.59207">
        <ele>809.6</ele>
        <time>2026-08-26T09:51:06Z</time>
      </trkpt>
      <trkpt lat="45.72064" lon="4.59209">
        <ele>809.8</ele>
        <time>2026-08-26T09:51:07Z</time>
      </trkpt>
      <trkpt lat="45.72066" lon="4.59211">
        <ele>809.8</ele>
        <time>2026-08-26T09:51:08Z</time>
      </trkpt>
      <trkpt lat="45.72068" lon="4.59213">
        <ele>810</ele>
        <time>2026-08-26T09:51:09Z</time>
      </trkpt>
      <trkpt lat="45.7207" lon="4.59215">
        <ele>810.2</ele>
        <time>2026-08-26T09:51:10Z</time>
      </trkpt>
      <trkpt lat="45.72072" lon="4.59217">
        <ele>810.4</ele>
        <time>2026-08-26T09:51:11Z</time>
      </trkpt>
      <trkpt lat="45.72074" lon="4.59219">
        <ele>810.4</ele>
        <time>2026-08-26T09:51:12Z</time>
      </trkpt>
      <trkpt lat="45.72076" lon="4.59221">
        <ele>810.6</ele>
        <time>2026-08-26T09:51:13Z</time>
      </trkpt>
      <trkpt lat="45.72079" lon="4.59223">
        <ele>810.6</ele>
        <time>2026-08-26T09:51:14Z</time>
      </trkpt>
      <trkpt lat="45.72081" lon="4.59225">
        <ele>810.8</ele>
        <time>2026-08-26T09:51:15Z</time>
      </trkpt>
      <trkpt lat="45.72083" lon="4.59227">
        <ele>811</ele>
        <time>2026-08-26T09:51:16Z</time>
      </trkpt>
      <trkpt lat="45.72085" lon="4.59229">
        <ele>811.2</ele>
        <time>2026-08-26T09:51:17Z</time>
      </trkpt>
      <trkpt lat="45.72087" lon="4.59231">
        <ele>811.4</ele>
        <time>2026-08-26T09:51:18Z</time>
      </trkpt>
      <trkpt lat="45.72089" lon="4.59234">
        <ele>811.4</ele>
        <time>2026-08-26T09:51:19Z</time>
      </trkpt>
      <trkpt lat="45.72091" lon="4.59236">
        <ele>811.8</ele>
        <time>2026-08-26T09:51:20Z</time>
      </trkpt>
      <trkpt lat="45.72093" lon="4.59239">
        <ele>812</ele>
        <time>2026-08-26T09:51:21Z</time>
      </trkpt>
      <trkpt lat="45.72095" lon="4.59242">
        <ele>812.2</ele>
        <time>2026-08-26T09:51:22Z</time>
      </trkpt>
      <trkpt lat="45.72097" lon="4.59245">
        <ele>812.4</ele>
        <time>2026-08-26T09:51:23Z</time>
      </trkpt>
      <trkpt lat="45.72099" lon="4.59247">
        <ele>812.6</ele>
        <time>2026-08-26T09:51:24Z</time>
      </trkpt>
      <trkpt lat="45.72101" lon="4.5925">
        <ele>812.8</ele>
        <time>2026-08-26T09:51:25Z</time>
      </trkpt>
      <trkpt lat="45.72103" lon="4.59252">
        <ele>813</ele>
        <time>2026-08-26T09:51:26Z</time>
      </trkpt>
      <trkpt lat="45.72105" lon="4.59255">
        <ele>813</ele>
        <time>2026-08-26T09:51:27Z</time>
      </trkpt>
      <trkpt lat="45.72107" lon="4.59257">
        <ele>813.2</ele>
        <time>2026-08-26T09:51:28Z</time>
      </trkpt>
      <trkpt lat="45.72109" lon="4.5926">
        <ele>813.4</ele>
        <time>2026-08-26T09:51:29Z</time>
      </trkpt>
      <trkpt lat="45.72111" lon="4.59263">
        <ele>813.4</ele>
        <time>2026-08-26T09:51:30Z</time>
      </trkpt>
      <trkpt lat="45.72113" lon="4.59266">
        <ele>813.6</ele>
        <time>2026-08-26T09:51:31Z</time>
      </trkpt>
      <trkpt lat="45.72115" lon="4.59269">
        <ele>813.6</ele>
        <time>2026-08-26T09:51:32Z</time>
      </trkpt>
      <trkpt lat="45.72117" lon="4.59272">
        <ele>813.8</ele>
        <time>2026-08-26T09:51:33Z</time>
      </trkpt>
      <trkpt lat="45.7212" lon="4.59275">
        <ele>813.8</ele>
        <time>2026-08-26T09:51:34Z</time>
      </trkpt>
      <trkpt lat="45.72122" lon="4.59278">
        <ele>813.8</ele>
        <time>2026-08-26T09:51:35Z</time>
      </trkpt>
      <trkpt lat="45.72124" lon="4.59281">
        <ele>814</ele>
        <time>2026-08-26T09:51:36Z</time>
      </trkpt>
      <trkpt lat="45.72126" lon="4.59284">
        <ele>814</ele>
        <time>2026-08-26T09:51:37Z</time>
      </trkpt>
      <trkpt lat="45.72128" lon="4.59288">
        <ele>814</ele>
        <time>2026-08-26T09:51:38Z</time>
      </trkpt>
      <trkpt lat="45.7213" lon="4.59291">
        <ele>814.2</ele>
        <time>2026-08-26T09:51:39Z</time>
      </trkpt>
      <trkpt lat="45.72132" lon="4.59293">
        <ele>814.2</ele>
        <time>2026-08-26T09:51:40Z</time>
      </trkpt>
      <trkpt lat="45.72134" lon="4.59296">
        <ele>814</ele>
        <time>2026-08-26T09:51:41Z</time>
      </trkpt>
      <trkpt lat="45.72136" lon="4.59299">
        <ele>814</ele>
        <time>2026-08-26T09:51:42Z</time>
      </trkpt>
      <trkpt lat="45.72138" lon="4.59302">
        <ele>814</ele>
        <time>2026-08-26T09:51:43Z</time>
      </trkpt>
      <trkpt lat="45.72139" lon="4.59304">
        <ele>814</ele>
        <time>2026-08-26T09:51:44Z</time>
      </trkpt>
      <trkpt lat="45.72141" lon="4.59307">
        <ele>814.2</ele>
        <time>2026-08-26T09:51:45Z</time>
      </trkpt>
      <trkpt lat="45.72143" lon="4.5931">
        <ele>814.2</ele>
        <time>2026-08-26T09:51:46Z</time>
      </trkpt>
      <trkpt lat="45.72145" lon="4.59312">
        <ele>814.2</ele>
        <time>2026-08-26T09:51:47Z</time>
      </trkpt>
      <trkpt lat="45.72148" lon="4.59315">
        <ele>814.4</ele>
        <time>2026-08-26T09:51:48Z</time>
      </trkpt>
      <trkpt lat="45.7215" lon="4.59318">
        <ele>814.4</ele>
        <time>2026-08-26T09:51:49Z</time>
      </trkpt>
      <trkpt lat="45.72152" lon="4.59321">
        <ele>814.6</ele>
        <time>2026-08-26T09:51:50Z</time>
      </trkpt>
      <trkpt lat="45.72154" lon="4.59325">
        <ele>814.6</ele>
        <time>2026-08-26T09:51:51Z</time>
      </trkpt>
      <trkpt lat="45.72156" lon="4.59328">
        <ele>814.6</ele>
        <time>2026-08-26T09:51:52Z</time>
      </trkpt>
      <trkpt lat="45.72158" lon="4.59332">
        <ele>814.8</ele>
        <time>2026-08-26T09:51:53Z</time>
      </trkpt>
      <trkpt lat="45.7216" lon="4.59336">
        <ele>814.8</ele>
        <time>2026-08-26T09:51:54Z</time>
      </trkpt>
      <trkpt lat="45.72162" lon="4.59339">
        <ele>814.8</ele>
        <time>2026-08-26T09:51:55Z</time>
      </trkpt>
      <trkpt lat="45.72164" lon="4.59342">
        <ele>815</ele>
        <time>2026-08-26T09:51:56Z</time>
      </trkpt>
      <trkpt lat="45.72167" lon="4.59346">
        <ele>815</ele>
        <time>2026-08-26T09:51:57Z</time>
      </trkpt>
      <trkpt lat="45.72169" lon="4.59349">
        <ele>815.2</ele>
        <time>2026-08-26T09:51:58Z</time>
      </trkpt>
      <trkpt lat="45.72171" lon="4.59353">
        <ele>815.2</ele>
        <time>2026-08-26T09:51:59Z</time>
      </trkpt>
      <trkpt lat="45.72173" lon="4.59357">
        <ele>815.4</ele>
        <time>2026-08-26T09:52:00Z</time>
      </trkpt>
      <trkpt lat="45.72175" lon="4.59361">
        <ele>815.4</ele>
        <time>2026-08-26T09:52:01Z</time>
      </trkpt>
      <trkpt lat="45.72178" lon="4.59365">
        <ele>815.4</ele>
        <time>2026-08-26T09:52:02Z</time>
      </trkpt>
      <trkpt lat="45.7218" lon="4.59369">
        <ele>815.4</ele>
        <time>2026-08-26T09:52:03Z</time>
      </trkpt>
      <trkpt lat="45.72182" lon="4.59373">
        <ele>815.4</ele>
        <time>2026-08-26T09:52:04Z</time>
      </trkpt>
      <trkpt lat="45.72184" lon="4.59377">
        <ele>815.4</ele>
        <time>2026-08-26T09:52:05Z</time>
      </trkpt>
      <trkpt lat="45.72186" lon="4.59381">
        <ele>815.4</ele>
        <time>2026-08-26T09:52:06Z</time>
      </trkpt>
      <trkpt lat="45.72188" lon="4.59386">
        <ele>815.4</ele>
        <time>2026-08-26T09:52:07Z</time>
      </trkpt>
      <trkpt lat="45.7219" lon="4.5939">
        <ele>815.6</ele>
        <time>2026-08-26T09:52:08Z</time>
      </trkpt>
      <trkpt lat="45.72192" lon="4.59394">
        <ele>815.6</ele>
        <time>2026-08-26T09:52:09Z</time>
      </trkpt>
      <trkpt lat="45.72194" lon="4.59397">
        <ele>815.6</ele>
        <time>2026-08-26T09:52:10Z</time>
      </trkpt>
      <trkpt lat="45.72196" lon="4.59401">
        <ele>815.8</ele>
        <time>2026-08-26T09:52:11Z</time>
      </trkpt>
      <trkpt lat="45.72198" lon="4.59405">
        <ele>816</ele>
        <time>2026-08-26T09:52:12Z</time>
      </trkpt>
      <trkpt lat="45.722" lon="4.59409">
        <ele>816</ele>
        <time>2026-08-26T09:52:13Z</time>
      </trkpt>
      <trkpt lat="45.72202" lon="4.59413">
        <ele>816.2</ele>
        <time>2026-08-26T09:52:14Z</time>
      </trkpt>
      <trkpt lat="45.72204" lon="4.59416">
        <ele>816.2</ele>
        <time>2026-08-26T09:52:15Z</time>
      </trkpt>
      <trkpt lat="45.72207" lon="4.5942">
        <ele>816.4</ele>
        <time>2026-08-26T09:52:16Z</time>
      </trkpt>
      <trkpt lat="45.72209" lon="4.59424">
        <ele>816.4</ele>
        <time>2026-08-26T09:52:17Z</time>
      </trkpt>
      <trkpt lat="45.72211" lon="4.59428">
        <ele>816.6</ele>
        <time>2026-08-26T09:52:18Z</time>
      </trkpt>
      <trkpt lat="45.72213" lon="4.59432">
        <ele>816.6</ele>
        <time>2026-08-26T09:52:19Z</time>
      </trkpt>
      <trkpt lat="45.72215" lon="4.59436">
        <ele>816.6</ele>
        <time>2026-08-26T09:52:20Z</time>
      </trkpt>
      <trkpt lat="45.72217" lon="4.5944">
        <ele>816.8</ele>
        <time>2026-08-26T09:52:21Z</time>
      </trkpt>
      <trkpt lat="45.72219" lon="4.59444">
        <ele>816.8</ele>
        <time>2026-08-26T09:52:22Z</time>
      </trkpt>
      <trkpt lat="45.72221" lon="4.59448">
        <ele>817</ele>
        <time>2026-08-26T09:52:23Z</time>
      </trkpt>
      <trkpt lat="45.72223" lon="4.59452">
        <ele>817</ele>
        <time>2026-08-26T09:52:24Z</time>
      </trkpt>
      <trkpt lat="45.72225" lon="4.59457">
        <ele>817.2</ele>
        <time>2026-08-26T09:52:25Z</time>
      </trkpt>
      <trkpt lat="45.72226" lon="4.59461">
        <ele>817.2</ele>
        <time>2026-08-26T09:52:26Z</time>
      </trkpt>
      <trkpt lat="45.72228" lon="4.59465">
        <ele>817.4</ele>
        <time>2026-08-26T09:52:27Z</time>
      </trkpt>
      <trkpt lat="45.7223" lon="4.59469">
        <ele>817.4</ele>
        <time>2026-08-26T09:52:28Z</time>
      </trkpt>
      <trkpt lat="45.72232" lon="4.59473">
        <ele>817.6</ele>
        <time>2026-08-26T09:52:29Z</time>
      </trkpt>
      <trkpt lat="45.72235" lon="4.59476">
        <ele>817.8</ele>
        <time>2026-08-26T09:52:30Z</time>
      </trkpt>
      <trkpt lat="45.72237" lon="4.5948">
        <ele>817.8</ele>
        <time>2026-08-26T09:52:31Z</time>
      </trkpt>
      <trkpt lat="45.72239" lon="4.59484">
        <ele>818</ele>
        <time>2026-08-26T09:52:32Z</time>
      </trkpt>
      <trkpt lat="45.7224" lon="4.59488">
        <ele>818</ele>
        <time>2026-08-26T09:52:33Z</time>
      </trkpt>
      <trkpt lat="45.72242" lon="4.59492">
        <ele>818</ele>
        <time>2026-08-26T09:52:34Z</time>
      </trkpt>
      <trkpt lat="45.72244" lon="4.59496">
        <ele>818</ele>
        <time>2026-08-26T09:52:35Z</time>
      </trkpt>
      <trkpt lat="45.72246" lon="4.59499">
        <ele>818</ele>
        <time>2026-08-26T09:52:36Z</time>
      </trkpt>
      <trkpt lat="45.72248" lon="4.59503">
        <ele>818.2</ele>
        <time>2026-08-26T09:52:37Z</time>
      </trkpt>
      <trkpt lat="45.7225" lon="4.59507">
        <ele>818.2</ele>
        <time>2026-08-26T09:52:38Z</time>
      </trkpt>
      <trkpt lat="45.72252" lon="4.5951">
        <ele>818.2</ele>
        <time>2026-08-26T09:52:39Z</time>
      </trkpt>
      <trkpt lat="45.72254" lon="4.59513">
        <ele>818.4</ele>
        <time>2026-08-26T09:52:40Z</time>
      </trkpt>
      <trkpt lat="45.72256" lon="4.59516">
        <ele>818.4</ele>
        <time>2026-08-26T09:52:41Z</time>
      </trkpt>
      <trkpt lat="45.72257" lon="4.59519">
        <ele>818.6</ele>
        <time>2026-08-26T09:52:42Z</time>
      </trkpt>
      <trkpt lat="45.72259" lon="4.59523">
        <ele>818.6</ele>
        <time>2026-08-26T09:52:43Z</time>
      </trkpt>
      <trkpt lat="45.72261" lon="4.59526">
        <ele>818.8</ele>
        <time>2026-08-26T09:52:44Z</time>
      </trkpt>
      <trkpt lat="45.72262" lon="4.5953">
        <ele>818.8</ele>
        <time>2026-08-26T09:52:45Z</time>
      </trkpt>
      <trkpt lat="45.72264" lon="4.59533">
        <ele>818.8</ele>
        <time>2026-08-26T09:52:46Z</time>
      </trkpt>
      <trkpt lat="45.72265" lon="4.59537">
        <ele>819</ele>
        <time>2026-08-26T09:52:47Z</time>
      </trkpt>
      <trkpt lat="45.72267" lon="4.59541">
        <ele>819</ele>
        <time>2026-08-26T09:52:48Z</time>
      </trkpt>
      <trkpt lat="45.72269" lon="4.59544">
        <ele>819.2</ele>
        <time>2026-08-26T09:52:49Z</time>
      </trkpt>
      <trkpt lat="45.72271" lon="4.59547">
        <ele>819.4</ele>
        <time>2026-08-26T09:52:50Z</time>
      </trkpt>
      <trkpt lat="45.72273" lon="4.59551">
        <ele>819.4</ele>
        <time>2026-08-26T09:52:51Z</time>
      </trkpt>
      <trkpt lat="45.72274" lon="4.59554">
        <ele>819.6</ele>
        <time>2026-08-26T09:52:52Z</time>
      </trkpt>
      <trkpt lat="45.72276" lon="4.59557">
        <ele>819.6</ele>
        <time>2026-08-26T09:52:53Z</time>
      </trkpt>
      <trkpt lat="45.72278" lon="4.5956">
        <ele>819.6</ele>
        <time>2026-08-26T09:52:54Z</time>
      </trkpt>
      <trkpt lat="45.7228" lon="4.59564">
        <ele>819.6</ele>
        <time>2026-08-26T09:52:55Z</time>
      </trkpt>
      <trkpt lat="45.72282" lon="4.59567">
        <ele>819.6</ele>
        <time>2026-08-26T09:52:56Z</time>
      </trkpt>
      <trkpt lat="45.72284" lon="4.5957">
        <ele>819.8</ele>
        <time>2026-08-26T09:52:57Z</time>
      </trkpt>
      <trkpt lat="45.72285" lon="4.59573">
        <ele>819.8</ele>
        <time>2026-08-26T09:52:58Z</time>
      </trkpt>
      <trkpt lat="45.72287" lon="4.59576">
        <ele>820</ele>
        <time>2026-08-26T09:52:59Z</time>
      </trkpt>
      <trkpt lat="45.72288" lon="4.5958">
        <ele>820.2</ele>
        <time>2026-08-26T09:53:00Z</time>
      </trkpt>
      <trkpt lat="45.7229" lon="4.59583">
        <ele>820.4</ele>
        <time>2026-08-26T09:53:01Z</time>
      </trkpt>
      <trkpt lat="45.72291" lon="4.59586">
        <ele>820.6</ele>
        <time>2026-08-26T09:53:02Z</time>
      </trkpt>
      <trkpt lat="45.72293" lon="4.59589">
        <ele>820.8</ele>
        <time>2026-08-26T09:53:03Z</time>
      </trkpt>
      <trkpt lat="45.72295" lon="4.59592">
        <ele>821</ele>
        <time>2026-08-26T09:53:04Z</time>
      </trkpt>
      <trkpt lat="45.72296" lon="4.59596">
        <ele>821</ele>
        <time>2026-08-26T09:53:05Z</time>
      </trkpt>
      <trkpt lat="45.72298" lon="4.59599">
        <ele>821.2</ele>
        <time>2026-08-26T09:53:06Z</time>
      </trkpt>
      <trkpt lat="45.723" lon="4.59602">
        <ele>821.2</ele>
        <time>2026-08-26T09:53:07Z</time>
      </trkpt>
      <trkpt lat="45.72302" lon="4.59605">
        <ele>821.4</ele>
        <time>2026-08-26T09:53:08Z</time>
      </trkpt>
      <trkpt lat="45.72303" lon="4.59608">
        <ele>821.6</ele>
        <time>2026-08-26T09:53:09Z</time>
      </trkpt>
      <trkpt lat="45.72305" lon="4.59611">
        <ele>821.8</ele>
        <time>2026-08-26T09:53:10Z</time>
      </trkpt>
      <trkpt lat="45.72307" lon="4.59615">
        <ele>821.8</ele>
        <time>2026-08-26T09:53:11Z</time>
      </trkpt>
      <trkpt lat="45.72309" lon="4.59618">
        <ele>822</ele>
        <time>2026-08-26T09:53:12Z</time>
      </trkpt>
      <trkpt lat="45.72311" lon="4.59621">
        <ele>822</ele>
        <time>2026-08-26T09:53:13Z</time>
      </trkpt>
      <trkpt lat="45.72312" lon="4.59624">
        <ele>822.2</ele>
        <time>2026-08-26T09:53:14Z</time>
      </trkpt>
      <trkpt lat="45.72313" lon="4.59628">
        <ele>822.2</ele>
        <time>2026-08-26T09:53:15Z</time>
      </trkpt>
      <trkpt lat="45.72315" lon="4.59631">
        <ele>822.4</ele>
        <time>2026-08-26T09:53:16Z</time>
      </trkpt>
      <trkpt lat="45.72317" lon="4.59635">
        <ele>822.4</ele>
        <time>2026-08-26T09:53:17Z</time>
      </trkpt>
      <trkpt lat="45.72319" lon="4.59638">
        <ele>822.4</ele>
        <time>2026-08-26T09:53:18Z</time>
      </trkpt>
      <trkpt lat="45.7232" lon="4.59641">
        <ele>822.6</ele>
        <time>2026-08-26T09:53:19Z</time>
      </trkpt>
      <trkpt lat="45.72322" lon="4.59644">
        <ele>822.8</ele>
        <time>2026-08-26T09:53:20Z</time>
      </trkpt>
      <trkpt lat="45.72324" lon="4.59648">
        <ele>823</ele>
        <time>2026-08-26T09:53:21Z</time>
      </trkpt>
      <trkpt lat="45.72325" lon="4.59651">
        <ele>823.2</ele>
        <time>2026-08-26T09:53:22Z</time>
      </trkpt>
      <trkpt lat="45.72327" lon="4.59654">
        <ele>823.4</ele>
        <time>2026-08-26T09:53:23Z</time>
      </trkpt>
      <trkpt lat="45.72328" lon="4.59658">
        <ele>823.6</ele>
        <time>2026-08-26T09:53:24Z</time>
      </trkpt>
      <trkpt lat="45.72331" lon="4.5966">
        <ele>823.6</ele>
        <time>2026-08-26T09:53:25Z</time>
      </trkpt>
      <trkpt lat="45.72333" lon="4.59663">
        <ele>823.8</ele>
        <time>2026-08-26T09:53:26Z</time>
      </trkpt>
      <trkpt lat="45.72334" lon="4.59666">
        <ele>824</ele>
        <time>2026-08-26T09:53:27Z</time>
      </trkpt>
      <trkpt lat="45.72336" lon="4.5967">
        <ele>824.2</ele>
        <time>2026-08-26T09:53:28Z</time>
      </trkpt>
      <trkpt lat="45.72337" lon="4.59673">
        <ele>824.4</ele>
        <time>2026-08-26T09:53:29Z</time>
      </trkpt>
      <trkpt lat="45.72339" lon="4.59677">
        <ele>824.6</ele>
        <time>2026-08-26T09:53:30Z</time>
      </trkpt>
      <trkpt lat="45.7234" lon="4.5968">
        <ele>824.8</ele>
        <time>2026-08-26T09:53:31Z</time>
      </trkpt>
      <trkpt lat="45.72342" lon="4.59683">
        <ele>825</ele>
        <time>2026-08-26T09:53:32Z</time>
      </trkpt>
      <trkpt lat="45.72344" lon="4.59686">
        <ele>825.2</ele>
        <time>2026-08-26T09:53:33Z</time>
      </trkpt>
      <trkpt lat="45.72345" lon="4.59689">
        <ele>825.2</ele>
        <time>2026-08-26T09:53:34Z</time>
      </trkpt>
      <trkpt lat="45.72347" lon="4.59693">
        <ele>825.4</ele>
        <time>2026-08-26T09:53:35Z</time>
      </trkpt>
      <trkpt lat="45.72349" lon="4.59696">
        <ele>825.4</ele>
        <time>2026-08-26T09:53:36Z</time>
      </trkpt>
      <trkpt lat="45.72351" lon="4.597">
        <ele>825.6</ele>
        <time>2026-08-26T09:53:37Z</time>
      </trkpt>
      <trkpt lat="45.72353" lon="4.59703">
        <ele>825.6</ele>
        <time>2026-08-26T09:53:38Z</time>
      </trkpt>
      <trkpt lat="45.72355" lon="4.59706">
        <ele>825.6</ele>
        <time>2026-08-26T09:53:39Z</time>
      </trkpt>
      <trkpt lat="45.72356" lon="4.59709">
        <ele>825.8</ele>
        <time>2026-08-26T09:53:40Z</time>
      </trkpt>
      <trkpt lat="45.72358" lon="4.59713">
        <ele>825.8</ele>
        <time>2026-08-26T09:53:41Z</time>
      </trkpt>
      <trkpt lat="45.7236" lon="4.59716">
        <ele>826</ele>
        <time>2026-08-26T09:53:42Z</time>
      </trkpt>
      <trkpt lat="45.72361" lon="4.5972">
        <ele>826</ele>
        <time>2026-08-26T09:53:43Z</time>
      </trkpt>
      <trkpt lat="45.72363" lon="4.59723">
        <ele>826.2</ele>
        <time>2026-08-26T09:53:44Z</time>
      </trkpt>
      <trkpt lat="45.72365" lon="4.59727">
        <ele>826.4</ele>
        <time>2026-08-26T09:53:45Z</time>
      </trkpt>
      <trkpt lat="45.72366" lon="4.5973">
        <ele>826.4</ele>
        <time>2026-08-26T09:53:46Z</time>
      </trkpt>
      <trkpt lat="45.72368" lon="4.59733">
        <ele>826.4</ele>
        <time>2026-08-26T09:53:47Z</time>
      </trkpt>
      <trkpt lat="45.7237" lon="4.59737">
        <ele>826.6</ele>
        <time>2026-08-26T09:53:48Z</time>
      </trkpt>
      <trkpt lat="45.72371" lon="4.5974">
        <ele>826.6</ele>
        <time>2026-08-26T09:53:49Z</time>
      </trkpt>
      <trkpt lat="45.72373" lon="4.59743">
        <ele>826.8</ele>
        <time>2026-08-26T09:53:50Z</time>
      </trkpt>
      <trkpt lat="45.72375" lon="4.59746">
        <ele>826.8</ele>
        <time>2026-08-26T09:53:51Z</time>
      </trkpt>
      <trkpt lat="45.72376" lon="4.59749">
        <ele>827</ele>
        <time>2026-08-26T09:53:52Z</time>
      </trkpt>
      <trkpt lat="45.72378" lon="4.59752">
        <ele>827.2</ele>
        <time>2026-08-26T09:53:53Z</time>
      </trkpt>
      <trkpt lat="45.72379" lon="4.59756">
        <ele>827.2</ele>
        <time>2026-08-26T09:53:54Z</time>
      </trkpt>
      <trkpt lat="45.72381" lon="4.59759">
        <ele>827.4</ele>
        <time>2026-08-26T09:53:55Z</time>
      </trkpt>
      <trkpt lat="45.72382" lon="4.59763">
        <ele>827.6</ele>
        <time>2026-08-26T09:53:56Z</time>
      </trkpt>
      <trkpt lat="45.72383" lon="4.59766">
        <ele>827.8</ele>
        <time>2026-08-26T09:53:57Z</time>
      </trkpt>
      <trkpt lat="45.72385" lon="4.5977">
        <ele>828</ele>
        <time>2026-08-26T09:53:58Z</time>
      </trkpt>
      <trkpt lat="45.72386" lon="4.59773">
        <ele>828</ele>
        <time>2026-08-26T09:53:59Z</time>
      </trkpt>
      <trkpt lat="45.72388" lon="4.59776">
        <ele>828.2</ele>
        <time>2026-08-26T09:54:00Z</time>
      </trkpt>
      <trkpt lat="45.7239" lon="4.5978">
        <ele>828.4</ele>
        <time>2026-08-26T09:54:01Z</time>
      </trkpt>
      <trkpt lat="45.72391" lon="4.59782">
        <ele>828.6</ele>
        <time>2026-08-26T09:54:02Z</time>
      </trkpt>
      <trkpt lat="45.72392" lon="4.59786">
        <ele>828.6</ele>
        <time>2026-08-26T09:54:03Z</time>
      </trkpt>
      <trkpt lat="45.72394" lon="4.59788">
        <ele>828.8</ele>
        <time>2026-08-26T09:54:04Z</time>
      </trkpt>
      <trkpt lat="45.72395" lon="4.59791">
        <ele>829</ele>
        <time>2026-08-26T09:54:05Z</time>
      </trkpt>
      <trkpt lat="45.72396" lon="4.59794">
        <ele>829</ele>
        <time>2026-08-26T09:54:06Z</time>
      </trkpt>
      <trkpt lat="45.72397" lon="4.59797">
        <ele>829.2</ele>
        <time>2026-08-26T09:54:07Z</time>
      </trkpt>
      <trkpt lat="45.72399" lon="4.59801">
        <ele>829.2</ele>
        <time>2026-08-26T09:54:08Z</time>
      </trkpt>
      <trkpt lat="45.72401" lon="4.59804">
        <ele>829.2</ele>
        <time>2026-08-26T09:54:09Z</time>
      </trkpt>
      <trkpt lat="45.72403" lon="4.59807">
        <ele>829.4</ele>
        <time>2026-08-26T09:54:10Z</time>
      </trkpt>
      <trkpt lat="45.72405" lon="4.5981">
        <ele>829.4</ele>
        <time>2026-08-26T09:54:11Z</time>
      </trkpt>
      <trkpt lat="45.72407" lon="4.59813">
        <ele>829.4</ele>
        <time>2026-08-26T09:54:12Z</time>
      </trkpt>
      <trkpt lat="45.72409" lon="4.59817">
        <ele>829.6</ele>
        <time>2026-08-26T09:54:13Z</time>
      </trkpt>
      <trkpt lat="45.72411" lon="4.5982">
        <ele>829.8</ele>
        <time>2026-08-26T09:54:14Z</time>
      </trkpt>
      <trkpt lat="45.72413" lon="4.59823">
        <ele>829.8</ele>
        <time>2026-08-26T09:54:15Z</time>
      </trkpt>
      <trkpt lat="45.72415" lon="4.59827">
        <ele>830</ele>
        <time>2026-08-26T09:54:16Z</time>
      </trkpt>
      <trkpt lat="45.72417" lon="4.5983">
        <ele>830.2</ele>
        <time>2026-08-26T09:54:17Z</time>
      </trkpt>
      <trkpt lat="45.72419" lon="4.59833">
        <ele>830.2</ele>
        <time>2026-08-26T09:54:18Z</time>
      </trkpt>
      <trkpt lat="45.72421" lon="4.59836">
        <ele>830.2</ele>
        <time>2026-08-26T09:54:19Z</time>
      </trkpt>
      <trkpt lat="45.72422" lon="4.59839">
        <ele>830.4</ele>
        <time>2026-08-26T09:54:20Z</time>
      </trkpt>
      <trkpt lat="45.72423" lon="4.59843">
        <ele>830.4</ele>
        <time>2026-08-26T09:54:21Z</time>
      </trkpt>
      <trkpt lat="45.72425" lon="4.59846">
        <ele>830.6</ele>
        <time>2026-08-26T09:54:22Z</time>
      </trkpt>
      <trkpt lat="45.72427" lon="4.59849">
        <ele>830.6</ele>
        <time>2026-08-26T09:54:23Z</time>
      </trkpt>
      <trkpt lat="45.72428" lon="4.59852">
        <ele>830.8</ele>
        <time>2026-08-26T09:54:24Z</time>
      </trkpt>
      <trkpt lat="45.72429" lon="4.59856">
        <ele>831</ele>
        <time>2026-08-26T09:54:25Z</time>
      </trkpt>
      <trkpt lat="45.72431" lon="4.59858">
        <ele>831.2</ele>
        <time>2026-08-26T09:54:26Z</time>
      </trkpt>
      <trkpt lat="45.72433" lon="4.59861">
        <ele>831.4</ele>
        <time>2026-08-26T09:54:27Z</time>
      </trkpt>
      <trkpt lat="45.72435" lon="4.59864">
        <ele>831.6</ele>
        <time>2026-08-26T09:54:28Z</time>
      </trkpt>
      <trkpt lat="45.72437" lon="4.59866">
        <ele>831.8</ele>
        <time>2026-08-26T09:54:29Z</time>
      </trkpt>
      <trkpt lat="45.72439" lon="4.59869">
        <ele>832</ele>
        <time>2026-08-26T09:54:30Z</time>
      </trkpt>
      <trkpt lat="45.7244" lon="4.59872">
        <ele>832</ele>
        <time>2026-08-26T09:54:31Z</time>
      </trkpt>
      <trkpt lat="45.72442" lon="4.59875">
        <ele>832.2</ele>
        <time>2026-08-26T09:54:32Z</time>
      </trkpt>
      <trkpt lat="45.72444" lon="4.59877">
        <ele>832.4</ele>
        <time>2026-08-26T09:54:33Z</time>
      </trkpt>
      <trkpt lat="45.72446" lon="4.5988">
        <ele>832.4</ele>
        <time>2026-08-26T09:54:34Z</time>
      </trkpt>
      <trkpt lat="45.72448" lon="4.59882">
        <ele>832.6</ele>
        <time>2026-08-26T09:54:35Z</time>
      </trkpt>
      <trkpt lat="45.7245" lon="4.59885">
        <ele>832.6</ele>
        <time>2026-08-26T09:54:36Z</time>
      </trkpt>
      <trkpt lat="45.72452" lon="4.59887">
        <ele>832.8</ele>
        <time>2026-08-26T09:54:37Z</time>
      </trkpt>
      <trkpt lat="45.72454" lon="4.5989">
        <ele>832.8</ele>
        <time>2026-08-26T09:54:38Z</time>
      </trkpt>
      <trkpt lat="45.72456" lon="4.59893">
        <ele>832.8</ele>
        <time>2026-08-26T09:54:39Z</time>
      </trkpt>
      <trkpt lat="45.72458" lon="4.59896">
        <ele>833</ele>
        <time>2026-08-26T09:54:40Z</time>
      </trkpt>
      <trkpt lat="45.7246" lon="4.59899">
        <ele>833.2</ele>
        <time>2026-08-26T09:54:41Z</time>
      </trkpt>
      <trkpt lat="45.72462" lon="4.59901">
        <ele>833.2</ele>
        <time>2026-08-26T09:54:42Z</time>
      </trkpt>
      <trkpt lat="45.72465" lon="4.59903">
        <ele>833.4</ele>
        <time>2026-08-26T09:54:43Z</time>
      </trkpt>
      <trkpt lat="45.72467" lon="4.59906">
        <ele>833.4</ele>
        <time>2026-08-26T09:54:44Z</time>
      </trkpt>
      <trkpt lat="45.72469" lon="4.59908">
        <ele>833.6</ele>
        <time>2026-08-26T09:54:45Z</time>
      </trkpt>
      <trkpt lat="45.72471" lon="4.59911">
        <ele>833.6</ele>
        <time>2026-08-26T09:54:46Z</time>
      </trkpt>
      <trkpt lat="45.72473" lon="4.59914">
        <ele>833.6</ele>
        <time>2026-08-26T09:54:47Z</time>
      </trkpt>
      <trkpt lat="45.72475" lon="4.59917">
        <ele>833.8</ele>
        <time>2026-08-26T09:54:48Z</time>
      </trkpt>
      <trkpt lat="45.72477" lon="4.59919">
        <ele>833.8</ele>
        <time>2026-08-26T09:54:49Z</time>
      </trkpt>
      <trkpt lat="45.72479" lon="4.59922">
        <ele>834</ele>
        <time>2026-08-26T09:54:50Z</time>
      </trkpt>
      <trkpt lat="45.72482" lon="4.59924">
        <ele>834</ele>
        <time>2026-08-26T09:54:51Z</time>
      </trkpt>
      <trkpt lat="45.72485" lon="4.59926">
        <ele>834</ele>
        <time>2026-08-26T09:54:52Z</time>
      </trkpt>
      <trkpt lat="45.72487" lon="4.59928">
        <ele>834.2</ele>
        <time>2026-08-26T09:54:53Z</time>
      </trkpt>
      <trkpt lat="45.7249" lon="4.59931">
        <ele>834.2</ele>
        <time>2026-08-26T09:54:54Z</time>
      </trkpt>
      <trkpt lat="45.72492" lon="4.59933">
        <ele>834.4</ele>
        <time>2026-08-26T09:54:55Z</time>
      </trkpt>
      <trkpt lat="45.72495" lon="4.59935">
        <ele>834.4</ele>
        <time>2026-08-26T09:54:56Z</time>
      </trkpt>
      <trkpt lat="45.72498" lon="4.59937">
        <ele>834.4</ele>
        <time>2026-08-26T09:54:57Z</time>
      </trkpt>
      <trkpt lat="45.725" lon="4.5994">
        <ele>834.6</ele>
        <time>2026-08-26T09:54:58Z</time>
      </trkpt>
      <trkpt lat="45.72503" lon="4.59943">
        <ele>834.6</ele>
        <time>2026-08-26T09:54:59Z</time>
      </trkpt>
      <trkpt lat="45.72505" lon="4.59946">
        <ele>834.6</ele>
        <time>2026-08-26T09:55:00Z</time>
      </trkpt>
      <trkpt lat="45.72508" lon="4.59948">
        <ele>834.8</ele>
        <time>2026-08-26T09:55:01Z</time>
      </trkpt>
      <trkpt lat="45.72511" lon="4.5995">
        <ele>834.8</ele>
        <time>2026-08-26T09:55:02Z</time>
      </trkpt>
      <trkpt lat="45.72514" lon="4.59952">
        <ele>834.8</ele>
        <time>2026-08-26T09:55:03Z</time>
      </trkpt>
      <trkpt lat="45.72517" lon="4.59954">
        <ele>835</ele>
        <time>2026-08-26T09:55:04Z</time>
      </trkpt>
      <trkpt lat="45.72519" lon="4.59956">
        <ele>835</ele>
        <time>2026-08-26T09:55:05Z</time>
      </trkpt>
      <trkpt lat="45.72522" lon="4.59959">
        <ele>835.2</ele>
        <time>2026-08-26T09:55:06Z</time>
      </trkpt>
      <trkpt lat="45.72525" lon="4.59961">
        <ele>835.2</ele>
        <time>2026-08-26T09:55:07Z</time>
      </trkpt>
      <trkpt lat="45.72528" lon="4.59962">
        <ele>835.4</ele>
        <time>2026-08-26T09:55:08Z</time>
      </trkpt>
      <trkpt lat="45.72531" lon="4.59964">
        <ele>835.4</ele>
        <time>2026-08-26T09:55:09Z</time>
      </trkpt>
      <trkpt lat="45.72534" lon="4.59967">
        <ele>835.4</ele>
        <time>2026-08-26T09:55:10Z</time>
      </trkpt>
      <trkpt lat="45.72537" lon="4.59969">
        <ele>835.4</ele>
        <time>2026-08-26T09:55:11Z</time>
      </trkpt>
      <trkpt lat="45.7254" lon="4.59971">
        <ele>835.6</ele>
        <time>2026-08-26T09:55:12Z</time>
      </trkpt>
      <trkpt lat="45.72543" lon="4.59973">
        <ele>835.6</ele>
        <time>2026-08-26T09:55:13Z</time>
      </trkpt>
      <trkpt lat="45.72546" lon="4.59975">
        <ele>835.8</ele>
        <time>2026-08-26T09:55:14Z</time>
      </trkpt>
      <trkpt lat="45.72549" lon="4.59976">
        <ele>835.8</ele>
        <time>2026-08-26T09:55:15Z</time>
      </trkpt>
      <trkpt lat="45.72552" lon="4.59977">
        <ele>835.8</ele>
        <time>2026-08-26T09:55:16Z</time>
      </trkpt>
      <trkpt lat="45.72555" lon="4.59979">
        <ele>835.8</ele>
        <time>2026-08-26T09:55:17Z</time>
      </trkpt>
      <trkpt lat="45.72558" lon="4.59981">
        <ele>836</ele>
        <time>2026-08-26T09:55:18Z</time>
      </trkpt>
      <trkpt lat="45.72562" lon="4.59982">
        <ele>836</ele>
        <time>2026-08-26T09:55:19Z</time>
      </trkpt>
      <trkpt lat="45.72565" lon="4.59984">
        <ele>836</ele>
        <time>2026-08-26T09:55:20Z</time>
      </trkpt>
      <trkpt lat="45.72568" lon="4.59985">
        <ele>836</ele>
        <time>2026-08-26T09:55:21Z</time>
      </trkpt>
      <trkpt lat="45.72571" lon="4.59987">
        <ele>836.2</ele>
        <time>2026-08-26T09:55:22Z</time>
      </trkpt>
      <trkpt lat="45.72574" lon="4.59988">
        <ele>836.2</ele>
        <time>2026-08-26T09:55:23Z</time>
      </trkpt>
      <trkpt lat="45.72577" lon="4.59989">
        <ele>836.4</ele>
        <time>2026-08-26T09:55:24Z</time>
      </trkpt>
      <trkpt lat="45.72581" lon="4.5999">
        <ele>836.4</ele>
        <time>2026-08-26T09:55:25Z</time>
      </trkpt>
      <trkpt lat="45.72584" lon="4.59992">
        <ele>836.6</ele>
        <time>2026-08-26T09:55:26Z</time>
      </trkpt>
      <trkpt lat="45.72588" lon="4.59992">
        <ele>836.6</ele>
        <time>2026-08-26T09:55:27Z</time>
      </trkpt>
      <trkpt lat="45.72591" lon="4.59993">
        <ele>836.8</ele>
        <time>2026-08-26T09:55:28Z</time>
      </trkpt>
      <trkpt lat="45.72595" lon="4.59994">
        <ele>836.8</ele>
        <time>2026-08-26T09:55:29Z</time>
      </trkpt>
      <trkpt lat="45.72599" lon="4.59995">
        <ele>836.8</ele>
        <time>2026-08-26T09:55:30Z</time>
      </trkpt>
      <trkpt lat="45.72602" lon="4.59996">
        <ele>836.8</ele>
        <time>2026-08-26T09:55:31Z</time>
      </trkpt>
      <trkpt lat="45.72606" lon="4.59997">
        <ele>836.8</ele>
        <time>2026-08-26T09:55:32Z</time>
      </trkpt>
      <trkpt lat="45.7261" lon="4.59997">
        <ele>837</ele>
        <time>2026-08-26T09:55:33Z</time>
      </trkpt>
      <trkpt lat="45.72614" lon="4.59998">
        <ele>837</ele>
        <time>2026-08-26T09:55:34Z</time>
      </trkpt>
      <trkpt lat="45.72618" lon="4.59999">
        <ele>837</ele>
        <time>2026-08-26T09:55:35Z</time>
      </trkpt>
      <trkpt lat="45.72622" lon="4.59999">
        <ele>837</ele>
        <time>2026-08-26T09:55:36Z</time>
      </trkpt>
      <trkpt lat="45.72626" lon="4.6">
        <ele>837</ele>
        <time>2026-08-26T09:55:37Z</time>
      </trkpt>
      <trkpt lat="45.7263" lon="4.60001">
        <ele>837</ele>
        <time>2026-08-26T09:55:38Z</time>
      </trkpt>
      <trkpt lat="45.72634" lon="4.60003">
        <ele>837</ele>
        <time>2026-08-26T09:55:39Z</time>
      </trkpt>
      <trkpt lat="45.72638" lon="4.60004">
        <ele>837</ele>
        <time>2026-08-26T09:55:40Z</time>
      </trkpt>
      <trkpt lat="45.72642" lon="4.60005">
        <ele>837</ele>
        <time>2026-08-26T09:55:41Z</time>
      </trkpt>
      <trkpt lat="45.72646" lon="4.60006">
        <ele>836.8</ele>
        <time>2026-08-26T09:55:42Z</time>
      </trkpt>
      <trkpt lat="45.72651" lon="4.60008">
        <ele>836.8</ele>
        <time>2026-08-26T09:55:43Z</time>
      </trkpt>
      <trkpt lat="45.72655" lon="4.60009">
        <ele>836.8</ele>
        <time>2026-08-26T09:55:44Z</time>
      </trkpt>
      <trkpt lat="45.72659" lon="4.6001">
        <ele>836.8</ele>
        <time>2026-08-26T09:55:45Z</time>
      </trkpt>
      <trkpt lat="45.72664" lon="4.60011">
        <ele>836.8</ele>
        <time>2026-08-26T09:55:46Z</time>
      </trkpt>
      <trkpt lat="45.72669" lon="4.60012">
        <ele>836.6</ele>
        <time>2026-08-26T09:55:47Z</time>
      </trkpt>
      <trkpt lat="45.72674" lon="4.60012">
        <ele>836.6</ele>
        <time>2026-08-26T09:55:48Z</time>
      </trkpt>
      <trkpt lat="45.72679" lon="4.60013">
        <ele>836.4</ele>
        <time>2026-08-26T09:55:49Z</time>
      </trkpt>
      <trkpt lat="45.72684" lon="4.60014">
        <ele>836.2</ele>
        <time>2026-08-26T09:55:50Z</time>
      </trkpt>
      <trkpt lat="45.7269" lon="4.60016">
        <ele>836</ele>
        <time>2026-08-26T09:55:51Z</time>
      </trkpt>
      <trkpt lat="45.72696" lon="4.60017">
        <ele>835.8</ele>
        <time>2026-08-26T09:55:52Z</time>
      </trkpt>
      <trkpt lat="45.72701" lon="4.60018">
        <ele>835.6</ele>
        <time>2026-08-26T09:55:53Z</time>
      </trkpt>
      <trkpt lat="45.72707" lon="4.6002">
        <ele>835.4</ele>
        <time>2026-08-26T09:55:54Z</time>
      </trkpt>
      <trkpt lat="45.72713" lon="4.60021">
        <ele>835.2</ele>
        <time>2026-08-26T09:55:55Z</time>
      </trkpt>
      <trkpt lat="45.72719" lon="4.60022">
        <ele>835</ele>
        <time>2026-08-26T09:55:56Z</time>
      </trkpt>
      <trkpt lat="45.72725" lon="4.60023">
        <ele>834.8</ele>
        <time>2026-08-26T09:55:57Z</time>
      </trkpt>
      <trkpt lat="45.72732" lon="4.60024">
        <ele>834.4</ele>
        <time>2026-08-26T09:55:58Z</time>
      </trkpt>
      <trkpt lat="45.72738" lon="4.60026">
        <ele>834.2</ele>
        <time>2026-08-26T09:55:59Z</time>
      </trkpt>
      <trkpt lat="45.72744" lon="4.60027">
        <ele>834</ele>
        <time>2026-08-26T09:56:00Z</time>
      </trkpt>
      <trkpt lat="45.72751" lon="4.60029">
        <ele>833.8</ele>
        <time>2026-08-26T09:56:01Z</time>
      </trkpt>
      <trkpt lat="45.72758" lon="4.6003">
        <ele>833.8</ele>
        <time>2026-08-26T09:56:02Z</time>
      </trkpt>
      <trkpt lat="45.72764" lon="4.60031">
        <ele>833.6</ele>
        <time>2026-08-26T09:56:03Z</time>
      </trkpt>
      <trkpt lat="45.72771" lon="4.60032">
        <ele>833.4</ele>
        <time>2026-08-26T09:56:04Z</time>
      </trkpt>
      <trkpt lat="45.72777" lon="4.60033">
        <ele>833.2</ele>
        <time>2026-08-26T09:56:05Z</time>
      </trkpt>
      <trkpt lat="45.72784" lon="4.60034">
        <ele>833</ele>
        <time>2026-08-26T09:56:06Z</time>
      </trkpt>
      <trkpt lat="45.7279" lon="4.60035">
        <ele>832.8</ele>
        <time>2026-08-26T09:56:07Z</time>
      </trkpt>
      <trkpt lat="45.72797" lon="4.60035">
        <ele>832.6</ele>
        <time>2026-08-26T09:56:08Z</time>
      </trkpt>
      <trkpt lat="45.72804" lon="4.60035">
        <ele>832.6</ele>
        <time>2026-08-26T09:56:09Z</time>
      </trkpt>
      <trkpt lat="45.7281" lon="4.60035">
        <ele>832.2</ele>
        <time>2026-08-26T09:56:10Z</time>
      </trkpt>
      <trkpt lat="45.72817" lon="4.60036">
        <ele>832.2</ele>
        <time>2026-08-26T09:56:11Z</time>
      </trkpt>
      <trkpt lat="45.72825" lon="4.60035">
        <ele>832</ele>
        <time>2026-08-26T09:56:12Z</time>
      </trkpt>
      <trkpt lat="45.72832" lon="4.60035">
        <ele>831.8</ele>
        <time>2026-08-26T09:56:13Z</time>
      </trkpt>
      <trkpt lat="45.72839" lon="4.60033">
        <ele>831.6</ele>
        <time>2026-08-26T09:56:14Z</time>
      </trkpt>
      <trkpt lat="45.72847" lon="4.60032">
        <ele>831.4</ele>
        <time>2026-08-26T09:56:15Z</time>
      </trkpt>
      <trkpt lat="45.72854" lon="4.60031">
        <ele>831.2</ele>
        <time>2026-08-26T09:56:16Z</time>
      </trkpt>
      <trkpt lat="45.72862" lon="4.60029">
        <ele>831</ele>
        <time>2026-08-26T09:56:17Z</time>
      </trkpt>
      <trkpt lat="45.72869" lon="4.60027">
        <ele>831</ele>
        <time>2026-08-26T09:56:18Z</time>
      </trkpt>
      <trkpt lat="45.72876" lon="4.60025">
        <ele>831</ele>
        <time>2026-08-26T09:56:19Z</time>
      </trkpt>
      <trkpt lat="45.72883" lon="4.60022">
        <ele>830.8</ele>
        <time>2026-08-26T09:56:20Z</time>
      </trkpt>
      <trkpt lat="45.7289" lon="4.6002">
        <ele>831</ele>
        <time>2026-08-26T09:56:21Z</time>
      </trkpt>
      <trkpt lat="45.72897" lon="4.60018">
        <ele>831</ele>
        <time>2026-08-26T09:56:22Z</time>
      </trkpt>
      <trkpt lat="45.72903" lon="4.60015">
        <ele>831</ele>
        <time>2026-08-26T09:56:23Z</time>
      </trkpt>
      <trkpt lat="45.7291" lon="4.60012">
        <ele>831</ele>
        <time>2026-08-26T09:56:24Z</time>
      </trkpt>
      <trkpt lat="45.72917" lon="4.60009">
        <ele>831</ele>
        <time>2026-08-26T09:56:25Z</time>
      </trkpt>
      <trkpt lat="45.72923" lon="4.60007">
        <ele>831.2</ele>
        <time>2026-08-26T09:56:26Z</time>
      </trkpt>
      <trkpt lat="45.72929" lon="4.60005">
        <ele>831.2</ele>
        <time>2026-08-26T09:56:27Z</time>
      </trkpt>
      <trkpt lat="45.72936" lon="4.60002">
        <ele>831.4</ele>
        <time>2026-08-26T09:56:28Z</time>
      </trkpt>
      <trkpt lat="45.72942" lon="4.59999">
        <ele>831.6</ele>
        <time>2026-08-26T09:56:29Z</time>
      </trkpt>
      <trkpt lat="45.72948" lon="4.59997">
        <ele>831.8</ele>
        <time>2026-08-26T09:56:30Z</time>
      </trkpt>
      <trkpt lat="45.72954" lon="4.59995">
        <ele>832</ele>
        <time>2026-08-26T09:56:31Z</time>
      </trkpt>
      <trkpt lat="45.7296" lon="4.59992">
        <ele>832.2</ele>
        <time>2026-08-26T09:56:32Z</time>
      </trkpt>
      <trkpt lat="45.72966" lon="4.59989">
        <ele>832.2</ele>
        <time>2026-08-26T09:56:33Z</time>
      </trkpt>
      <trkpt lat="45.72973" lon="4.59986">
        <ele>832.4</ele>
        <time>2026-08-26T09:56:34Z</time>
      </trkpt>
      <trkpt lat="45.72979" lon="4.59983">
        <ele>832.4</ele>
        <time>2026-08-26T09:56:35Z</time>
      </trkpt>
      <trkpt lat="45.72985" lon="4.5998">
        <ele>832.4</ele>
        <time>2026-08-26T09:56:36Z</time>
      </trkpt>
      <trkpt lat="45.72991" lon="4.59977">
        <ele>832.4</ele>
        <time>2026-08-26T09:56:37Z</time>
      </trkpt>
      <trkpt lat="45.72997" lon="4.59974">
        <ele>832.4</ele>
        <time>2026-08-26T09:56:38Z</time>
      </trkpt>
      <trkpt lat="45.73004" lon="4.59971">
        <ele>832.2</ele>
        <time>2026-08-26T09:56:39Z</time>
      </trkpt>
      <trkpt lat="45.7301" lon="4.59969">
        <ele>832.4</ele>
        <time>2026-08-26T09:56:40Z</time>
      </trkpt>
      <trkpt lat="45.73016" lon="4.59966">
        <ele>832.4</ele>
        <time>2026-08-26T09:56:41Z</time>
      </trkpt>
      <trkpt lat="45.73022" lon="4.59963">
        <ele>832.4</ele>
        <time>2026-08-26T09:56:42Z</time>
      </trkpt>
      <trkpt lat="45.73027" lon="4.5996">
        <ele>832.8</ele>
        <time>2026-08-26T09:56:43Z</time>
      </trkpt>
      <trkpt lat="45.73033" lon="4.59957">
        <ele>833</ele>
        <time>2026-08-26T09:56:44Z</time>
      </trkpt>
      <trkpt lat="45.73039" lon="4.59953">
        <ele>833</ele>
        <time>2026-08-26T09:56:45Z</time>
      </trkpt>
      <trkpt lat="45.73045" lon="4.5995">
        <ele>833.2</ele>
        <time>2026-08-26T09:56:46Z</time>
      </trkpt>
      <trkpt lat="45.73051" lon="4.59947">
        <ele>833.2</ele>
        <time>2026-08-26T09:56:47Z</time>
      </trkpt>
      <trkpt lat="45.73058" lon="4.59944">
        <ele>833.2</ele>
        <time>2026-08-26T09:56:48Z</time>
      </trkpt>
      <trkpt lat="45.73064" lon="4.59941">
        <ele>833.2</ele>
        <time>2026-08-26T09:56:49Z</time>
      </trkpt>
      <trkpt lat="45.7307" lon="4.59938">
        <ele>833.2</ele>
        <time>2026-08-26T09:56:50Z</time>
      </trkpt>
      <trkpt lat="45.73076" lon="4.59935">
        <ele>833.4</ele>
        <time>2026-08-26T09:56:51Z</time>
      </trkpt>
      <trkpt lat="45.73082" lon="4.59932">
        <ele>833.4</ele>
        <time>2026-08-26T09:56:52Z</time>
      </trkpt>
      <trkpt lat="45.73088" lon="4.59929">
        <ele>833.4</ele>
        <time>2026-08-26T09:56:53Z</time>
      </trkpt>
      <trkpt lat="45.73094" lon="4.59926">
        <ele>833.6</ele>
        <time>2026-08-26T09:56:54Z</time>
      </trkpt>
      <trkpt lat="45.731" lon="4.59923">
        <ele>833.6</ele>
        <time>2026-08-26T09:56:55Z</time>
      </trkpt>
      <trkpt lat="45.73106" lon="4.59921">
        <ele>833.6</ele>
        <time>2026-08-26T09:56:56Z</time>
      </trkpt>
      <trkpt lat="45.73111" lon="4.59918">
        <ele>833.8</ele>
        <time>2026-08-26T09:56:57Z</time>
      </trkpt>
      <trkpt lat="45.73116" lon="4.59915">
        <ele>834</ele>
        <time>2026-08-26T09:56:58Z</time>
      </trkpt>
      <trkpt lat="45.73122" lon="4.59912">
        <ele>834.2</ele>
        <time>2026-08-26T09:56:59Z</time>
      </trkpt>
      <trkpt lat="45.73127" lon="4.5991">
        <ele>834.4</ele>
        <time>2026-08-26T09:57:00Z</time>
      </trkpt>
      <trkpt lat="45.73131" lon="4.59907">
        <ele>834.8</ele>
        <time>2026-08-26T09:57:01Z</time>
      </trkpt>
      <trkpt lat="45.73135" lon="4.59905">
        <ele>835</ele>
        <time>2026-08-26T09:57:02Z</time>
      </trkpt>
      <trkpt lat="45.7314" lon="4.59904">
        <ele>835.2</ele>
        <time>2026-08-26T09:57:03Z</time>
      </trkpt>
      <trkpt lat="45.73144" lon="4.59903">
        <ele>835.2</ele>
        <time>2026-08-26T09:57:04Z</time>
      </trkpt>
      <trkpt lat="45.73148" lon="4.59902">
        <ele>835.6</ele>
        <time>2026-08-26T09:57:05Z</time>
      </trkpt>
      <trkpt lat="45.73152" lon="4.599">
        <ele>835.8</ele>
        <time>2026-08-26T09:57:06Z</time>
      </trkpt>
      <trkpt lat="45.73156" lon="4.59899">
        <ele>836</ele>
        <time>2026-08-26T09:57:07Z</time>
      </trkpt>
      <trkpt lat="45.7316" lon="4.59898">
        <ele>836.2</ele>
        <time>2026-08-26T09:57:08Z</time>
      </trkpt>
      <trkpt lat="45.73164" lon="4.59897">
        <ele>836.2</ele>
        <time>2026-08-26T09:57:09Z</time>
      </trkpt>
      <trkpt lat="45.73169" lon="4.59897">
        <ele>836.4</ele>
        <time>2026-08-26T09:57:10Z</time>
      </trkpt>
      <trkpt lat="45.73173" lon="4.59896">
        <ele>836.6</ele>
        <time>2026-08-26T09:57:11Z</time>
      </trkpt>
      <trkpt lat="45.73178" lon="4.59895">
        <ele>836.8</ele>
        <time>2026-08-26T09:57:12Z</time>
      </trkpt>
      <trkpt lat="45.73182" lon="4.59895">
        <ele>836.8</ele>
        <time>2026-08-26T09:57:13Z</time>
      </trkpt>
      <trkpt lat="45.73187" lon="4.59895">
        <ele>836.8</ele>
        <time>2026-08-26T09:57:14Z</time>
      </trkpt>
      <trkpt lat="45.73192" lon="4.59894">
        <ele>837</ele>
        <time>2026-08-26T09:57:15Z</time>
      </trkpt>
      <trkpt lat="45.73196" lon="4.59893">
        <ele>837</ele>
        <time>2026-08-26T09:57:16Z</time>
      </trkpt>
      <trkpt lat="45.73201" lon="4.59892">
        <ele>837</ele>
        <time>2026-08-26T09:57:17Z</time>
      </trkpt>
      <trkpt lat="45.73206" lon="4.59891">
        <ele>837</ele>
        <time>2026-08-26T09:57:18Z</time>
      </trkpt>
      <trkpt lat="45.73211" lon="4.5989">
        <ele>836.8</ele>
        <time>2026-08-26T09:57:19Z</time>
      </trkpt>
      <trkpt lat="45.73216" lon="4.59889">
        <ele>836.8</ele>
        <time>2026-08-26T09:57:20Z</time>
      </trkpt>
      <trkpt lat="45.73221" lon="4.59888">
        <ele>836.6</ele>
        <time>2026-08-26T09:57:21Z</time>
      </trkpt>
      <trkpt lat="45.73225" lon="4.59887">
        <ele>836.6</ele>
        <time>2026-08-26T09:57:22Z</time>
      </trkpt>
      <trkpt lat="45.7323" lon="4.59886">
        <ele>836.4</ele>
        <time>2026-08-26T09:57:23Z</time>
      </trkpt>
      <trkpt lat="45.73235" lon="4.59885">
        <ele>836.4</ele>
        <time>2026-08-26T09:57:24Z</time>
      </trkpt>
      <trkpt lat="45.73239" lon="4.59883">
        <ele>836.4</ele>
        <time>2026-08-26T09:57:25Z</time>
      </trkpt>
      <trkpt lat="45.73244" lon="4.59882">
        <ele>836.4</ele>
        <time>2026-08-26T09:57:26Z</time>
      </trkpt>
      <trkpt lat="45.73249" lon="4.5988">
        <ele>836.4</ele>
        <time>2026-08-26T09:57:27Z</time>
      </trkpt>
      <trkpt lat="45.73253" lon="4.59877">
        <ele>836.4</ele>
        <time>2026-08-26T09:57:28Z</time>
      </trkpt>
      <trkpt lat="45.73258" lon="4.59875">
        <ele>836.4</ele>
        <time>2026-08-26T09:57:29Z</time>
      </trkpt>
      <trkpt lat="45.73262" lon="4.59871">
        <ele>836.6</ele>
        <time>2026-08-26T09:57:30Z</time>
      </trkpt>
      <trkpt lat="45.73266" lon="4.59868">
        <ele>836.8</ele>
        <time>2026-08-26T09:57:31Z</time>
      </trkpt>
      <trkpt lat="45.7327" lon="4.59864">
        <ele>836.6</ele>
        <time>2026-08-26T09:57:32Z</time>
      </trkpt>
      <trkpt lat="45.73274" lon="4.5986">
        <ele>836.6</ele>
        <time>2026-08-26T09:57:33Z</time>
      </trkpt>
      <trkpt lat="45.73278" lon="4.59856">
        <ele>836.8</ele>
        <time>2026-08-26T09:57:34Z</time>
      </trkpt>
      <trkpt lat="45.73282" lon="4.59852">
        <ele>836.8</ele>
        <time>2026-08-26T09:57:35Z</time>
      </trkpt>
      <trkpt lat="45.73285" lon="4.59848">
        <ele>836.8</ele>
        <time>2026-08-26T09:57:36Z</time>
      </trkpt>
      <trkpt lat="45.73289" lon="4.59844">
        <ele>836.8</ele>
        <time>2026-08-26T09:57:37Z</time>
      </trkpt>
      <trkpt lat="45.73293" lon="4.5984">
        <ele>836.8</ele>
        <time>2026-08-26T09:57:38Z</time>
      </trkpt>
      <trkpt lat="45.73297" lon="4.59836">
        <ele>836.8</ele>
        <time>2026-08-26T09:57:39Z</time>
      </trkpt>
      <trkpt lat="45.73301" lon="4.59833">
        <ele>836.8</ele>
        <time>2026-08-26T09:57:40Z</time>
      </trkpt>
      <trkpt lat="45.73305" lon="4.59829">
        <ele>836.6</ele>
        <time>2026-08-26T09:57:41Z</time>
      </trkpt>
      <trkpt lat="45.7331" lon="4.59826">
        <ele>836.6</ele>
        <time>2026-08-26T09:57:42Z</time>
      </trkpt>
      <trkpt lat="45.73314" lon="4.59823">
        <ele>836.6</ele>
        <time>2026-08-26T09:57:43Z</time>
      </trkpt>
      <trkpt lat="45.73319" lon="4.5982">
        <ele>836.4</ele>
        <time>2026-08-26T09:57:44Z</time>
      </trkpt>
      <trkpt lat="45.73324" lon="4.59817">
        <ele>836.4</ele>
        <time>2026-08-26T09:57:45Z</time>
      </trkpt>
      <trkpt lat="45.73329" lon="4.59814">
        <ele>836.4</ele>
        <time>2026-08-26T09:57:46Z</time>
      </trkpt>
      <trkpt lat="45.73334" lon="4.59812">
        <ele>836.4</ele>
        <time>2026-08-26T09:57:47Z</time>
      </trkpt>
      <trkpt lat="45.7334" lon="4.59811">
        <ele>836.4</ele>
        <time>2026-08-26T09:57:48Z</time>
      </trkpt>
      <trkpt lat="45.73347" lon="4.59811">
        <ele>836.2</ele>
        <time>2026-08-26T09:57:49Z</time>
      </trkpt>
      <trkpt lat="45.73353" lon="4.59811">
        <ele>836</ele>
        <time>2026-08-26T09:57:50Z</time>
      </trkpt>
      <trkpt lat="45.7336" lon="4.59812">
        <ele>835.6</ele>
        <time>2026-08-26T09:57:51Z</time>
      </trkpt>
      <trkpt lat="45.73367" lon="4.59814">
        <ele>835.2</ele>
        <time>2026-08-26T09:57:52Z</time>
      </trkpt>
      <trkpt lat="45.73374" lon="4.59816">
        <ele>834.8</ele>
        <time>2026-08-26T09:57:53Z</time>
      </trkpt>
      <trkpt lat="45.73381" lon="4.5982">
        <ele>834.2</ele>
        <time>2026-08-26T09:57:54Z</time>
      </trkpt>
      <trkpt lat="45.73389" lon="4.59824">
        <ele>833.6</ele>
        <time>2026-08-26T09:57:55Z</time>
      </trkpt>
      <trkpt lat="45.73396" lon="4.5983">
        <ele>833</ele>
        <time>2026-08-26T09:57:56Z</time>
      </trkpt>
      <trkpt lat="45.73403" lon="4.59836">
        <ele>832.2</ele>
        <time>2026-08-26T09:57:57Z</time>
      </trkpt>
      <trkpt lat="45.7341" lon="4.59843">
        <ele>831.4</ele>
        <time>2026-08-26T09:57:58Z</time>
      </trkpt>
      <trkpt lat="45.73417" lon="4.5985">
        <ele>830.6</ele>
        <time>2026-08-26T09:57:59Z</time>
      </trkpt>
      <trkpt lat="45.73424" lon="4.59856">
        <ele>830</ele>
        <time>2026-08-26T09:58:00Z</time>
      </trkpt>
      <trkpt lat="45.73431" lon="4.59863">
        <ele>829.4</ele>
        <time>2026-08-26T09:58:01Z</time>
      </trkpt>
      <trkpt lat="45.73438" lon="4.5987">
        <ele>829</ele>
        <time>2026-08-26T09:58:02Z</time>
      </trkpt>
      <trkpt lat="45.73445" lon="4.59878">
        <ele>828.8</ele>
        <time>2026-08-26T09:58:03Z</time>
      </trkpt>
      <trkpt lat="45.73452" lon="4.59885">
        <ele>828.4</ele>
        <time>2026-08-26T09:58:04Z</time>
      </trkpt>
      <trkpt lat="45.73459" lon="4.59893">
        <ele>828.4</ele>
        <time>2026-08-26T09:58:05Z</time>
      </trkpt>
      <trkpt lat="45.73466" lon="4.599">
        <ele>828.2</ele>
        <time>2026-08-26T09:58:06Z</time>
      </trkpt>
      <trkpt lat="45.73473" lon="4.59907">
        <ele>827.6</ele>
        <time>2026-08-26T09:58:07Z</time>
      </trkpt>
      <trkpt lat="45.73481" lon="4.59914">
        <ele>827.2</ele>
        <time>2026-08-26T09:58:08Z</time>
      </trkpt>
      <trkpt lat="45.73488" lon="4.59921">
        <ele>826.6</ele>
        <time>2026-08-26T09:58:09Z</time>
      </trkpt>
      <trkpt lat="45.73495" lon="4.59929">
        <ele>826</ele>
        <time>2026-08-26T09:58:10Z</time>
      </trkpt>
      <trkpt lat="45.73502" lon="4.59936">
        <ele>825.6</ele>
        <time>2026-08-26T09:58:11Z</time>
      </trkpt>
      <trkpt lat="45.73509" lon="4.59944">
        <ele>825.2</ele>
        <time>2026-08-26T09:58:12Z</time>
      </trkpt>
      <trkpt lat="45.73515" lon="4.59952">
        <ele>824.8</ele>
        <time>2026-08-26T09:58:13Z</time>
      </trkpt>
      <trkpt lat="45.73522" lon="4.59959">
        <ele>824.8</ele>
        <time>2026-08-26T09:58:14Z</time>
      </trkpt>
      <trkpt lat="45.73529" lon="4.59966">
        <ele>824.6</ele>
        <time>2026-08-26T09:58:15Z</time>
      </trkpt>
      <trkpt lat="45.73536" lon="4.59972">
        <ele>824.4</ele>
        <time>2026-08-26T09:58:16Z</time>
      </trkpt>
      <trkpt lat="45.73543" lon="4.59979">
        <ele>824.2</ele>
        <time>2026-08-26T09:58:17Z</time>
      </trkpt>
      <trkpt lat="45.7355" lon="4.59987">
        <ele>824</ele>
        <time>2026-08-26T09:58:18Z</time>
      </trkpt>
      <trkpt lat="45.73557" lon="4.59994">
        <ele>823.4</ele>
        <time>2026-08-26T09:58:19Z</time>
      </trkpt>
      <trkpt lat="45.73564" lon="4.6">
        <ele>823</ele>
        <time>2026-08-26T09:58:20Z</time>
      </trkpt>
      <trkpt lat="45.73571" lon="4.60006">
        <ele>822.8</ele>
        <time>2026-08-26T09:58:21Z</time>
      </trkpt>
      <trkpt lat="45.73579" lon="4.60013">
        <ele>822.6</ele>
        <time>2026-08-26T09:58:22Z</time>
      </trkpt>
      <trkpt lat="45.73586" lon="4.6002">
        <ele>822.4</ele>
        <time>2026-08-26T09:58:23Z</time>
      </trkpt>
      <trkpt lat="45.73594" lon="4.60026">
        <ele>822.2</ele>
        <time>2026-08-26T09:58:24Z</time>
      </trkpt>
      <trkpt lat="45.73603" lon="4.60032">
        <ele>822</ele>
        <time>2026-08-26T09:58:25Z</time>
      </trkpt>
      <trkpt lat="45.73611" lon="4.60038">
        <ele>821.4</ele>
        <time>2026-08-26T09:58:26Z</time>
      </trkpt>
      <trkpt lat="45.73619" lon="4.60044">
        <ele>821.2</ele>
        <time>2026-08-26T09:58:27Z</time>
      </trkpt>
      <trkpt lat="45.73627" lon="4.6005">
        <ele>820.6</ele>
        <time>2026-08-26T09:58:28Z</time>
      </trkpt>
      <trkpt lat="45.73635" lon="4.60056">
        <ele>820</ele>
        <time>2026-08-26T09:58:29Z</time>
      </trkpt>
      <trkpt lat="45.73644" lon="4.60062">
        <ele>819.6</ele>
        <time>2026-08-26T09:58:30Z</time>
      </trkpt>
      <trkpt lat="45.73652" lon="4.60068">
        <ele>819.2</ele>
        <time>2026-08-26T09:58:31Z</time>
      </trkpt>
      <trkpt lat="45.73661" lon="4.60073">
        <ele>818.8</ele>
        <time>2026-08-26T09:58:32Z</time>
      </trkpt>
      <trkpt lat="45.7367" lon="4.60079">
        <ele>818.4</ele>
        <time>2026-08-26T09:58:33Z</time>
      </trkpt>
      <trkpt lat="45.73678" lon="4.60086">
        <ele>818</ele>
        <time>2026-08-26T09:58:34Z</time>
      </trkpt>
      <trkpt lat="45.73686" lon="4.60093">
        <ele>817.8</ele>
        <time>2026-08-26T09:58:35Z</time>
      </trkpt>
      <trkpt lat="45.73695" lon="4.601">
        <ele>817.4</ele>
        <time>2026-08-26T09:58:36Z</time>
      </trkpt>
      <trkpt lat="45.73702" lon="4.60108">
        <ele>817.4</ele>
        <time>2026-08-26T09:58:37Z</time>
      </trkpt>
      <trkpt lat="45.7371" lon="4.60116">
        <ele>817.2</ele>
        <time>2026-08-26T09:58:38Z</time>
      </trkpt>
      <trkpt lat="45.73717" lon="4.60124">
        <ele>817.2</ele>
        <time>2026-08-26T09:58:39Z</time>
      </trkpt>
      <trkpt lat="45.73724" lon="4.60132">
        <ele>817</ele>
        <time>2026-08-26T09:58:40Z</time>
      </trkpt>
      <trkpt lat="45.73731" lon="4.60139">
        <ele>817.2</ele>
        <time>2026-08-26T09:58:41Z</time>
      </trkpt>
      <trkpt lat="45.73738" lon="4.60147">
        <ele>817.2</ele>
        <time>2026-08-26T09:58:42Z</time>
      </trkpt>
      <trkpt lat="45.73744" lon="4.60155">
        <ele>817.2</ele>
        <time>2026-08-26T09:58:43Z</time>
      </trkpt>
      <trkpt lat="45.73751" lon="4.60162">
        <ele>817.2</ele>
        <time>2026-08-26T09:58:44Z</time>
      </trkpt>
      <trkpt lat="45.73757" lon="4.6017">
        <ele>817.2</ele>
        <time>2026-08-26T09:58:45Z</time>
      </trkpt>
      <trkpt lat="45.73764" lon="4.60176">
        <ele>817.4</ele>
        <time>2026-08-26T09:58:46Z</time>
      </trkpt>
      <trkpt lat="45.7377" lon="4.60183">
        <ele>817.4</ele>
        <time>2026-08-26T09:58:47Z</time>
      </trkpt>
      <trkpt lat="45.73776" lon="4.6019">
        <ele>817.6</ele>
        <time>2026-08-26T09:58:48Z</time>
      </trkpt>
      <trkpt lat="45.73782" lon="4.60197">
        <ele>817.8</ele>
        <time>2026-08-26T09:58:49Z</time>
      </trkpt>
      <trkpt lat="45.73788" lon="4.60203">
        <ele>817.8</ele>
        <time>2026-08-26T09:58:50Z</time>
      </trkpt>
      <trkpt lat="45.73794" lon="4.60209">
        <ele>817.6</ele>
        <time>2026-08-26T09:58:51Z</time>
      </trkpt>
      <trkpt lat="45.73799" lon="4.60215">
        <ele>817.6</ele>
        <time>2026-08-26T09:58:52Z</time>
      </trkpt>
      <trkpt lat="45.73804" lon="4.60221">
        <ele>817.6</ele>
        <time>2026-08-26T09:58:53Z</time>
      </trkpt>
      <trkpt lat="45.73809" lon="4.60227">
        <ele>817.6</ele>
        <time>2026-08-26T09:58:54Z</time>
      </trkpt>
      <trkpt lat="45.73814" lon="4.60233">
        <ele>817.6</ele>
        <time>2026-08-26T09:58:55Z</time>
      </trkpt>
      <trkpt lat="45.73818" lon="4.60239">
        <ele>817.6</ele>
        <time>2026-08-26T09:58:56Z</time>
      </trkpt>
      <trkpt lat="45.73823" lon="4.60245">
        <ele>817.8</ele>
        <time>2026-08-26T09:58:57Z</time>
      </trkpt>
      <trkpt lat="45.73828" lon="4.6025">
        <ele>818.2</ele>
        <time>2026-08-26T09:58:58Z</time>
      </trkpt>
      <trkpt lat="45.73832" lon="4.60255">
        <ele>818.4</ele>
        <time>2026-08-26T09:58:59Z</time>
      </trkpt>
      <trkpt lat="45.73837" lon="4.6026">
        <ele>818.8</ele>
        <time>2026-08-26T09:59:00Z</time>
      </trkpt>
      <trkpt lat="45.73841" lon="4.60265">
        <ele>819</ele>
        <time>2026-08-26T09:59:01Z</time>
      </trkpt>
      <trkpt lat="45.73844" lon="4.60269">
        <ele>819.4</ele>
        <time>2026-08-26T09:59:02Z</time>
      </trkpt>
      <trkpt lat="45.73848" lon="4.60274">
        <ele>819.6</ele>
        <time>2026-08-26T09:59:03Z</time>
      </trkpt>
      <trkpt lat="45.73852" lon="4.60278">
        <ele>819.8</ele>
        <time>2026-08-26T09:59:04Z</time>
      </trkpt>
      <trkpt lat="45.73856" lon="4.60282">
        <ele>820.2</ele>
        <time>2026-08-26T09:59:05Z</time>
      </trkpt>
      <trkpt lat="45.73859" lon="4.60285">
        <ele>820.6</ele>
        <time>2026-08-26T09:59:06Z</time>
      </trkpt>
      <trkpt lat="45.73862" lon="4.60288">
        <ele>821</ele>
        <time>2026-08-26T09:59:07Z</time>
      </trkpt>
      <trkpt lat="45.73865" lon="4.60292">
        <ele>821.4</ele>
        <time>2026-08-26T09:59:08Z</time>
      </trkpt>
      <trkpt lat="45.73868" lon="4.60296">
        <ele>821.6</ele>
        <time>2026-08-26T09:59:09Z</time>
      </trkpt>
      <trkpt lat="45.73872" lon="4.60299">
        <ele>821.8</ele>
        <time>2026-08-26T09:59:10Z</time>
      </trkpt>
      <trkpt lat="45.73875" lon="4.60303">
        <ele>822.2</ele>
        <time>2026-08-26T09:59:11Z</time>
      </trkpt>
      <trkpt lat="45.73878" lon="4.60306">
        <ele>822.4</ele>
        <time>2026-08-26T09:59:12Z</time>
      </trkpt>
      <trkpt lat="45.73881" lon="4.6031">
        <ele>822.6</ele>
        <time>2026-08-26T09:59:13Z</time>
      </trkpt>
      <trkpt lat="45.73884" lon="4.60314">
        <ele>822.8</ele>
        <time>2026-08-26T09:59:14Z</time>
      </trkpt>
      <trkpt lat="45.73887" lon="4.60318">
        <ele>823.2</ele>
        <time>2026-08-26T09:59:15Z</time>
      </trkpt>
      <trkpt lat="45.7389" lon="4.60322">
        <ele>823.4</ele>
        <time>2026-08-26T09:59:16Z</time>
      </trkpt>
      <trkpt lat="45.73893" lon="4.60325">
        <ele>823.6</ele>
        <time>2026-08-26T09:59:17Z</time>
      </trkpt>
      <trkpt lat="45.73896" lon="4.60329">
        <ele>823.8</ele>
        <time>2026-08-26T09:59:18Z</time>
      </trkpt>
      <trkpt lat="45.73899" lon="4.60334">
        <ele>824</ele>
        <time>2026-08-26T09:59:19Z</time>
      </trkpt>
      <trkpt lat="45.73901" lon="4.60337">
        <ele>824.2</ele>
        <time>2026-08-26T09:59:20Z</time>
      </trkpt>
      <trkpt lat="45.73904" lon="4.6034">
        <ele>824.4</ele>
        <time>2026-08-26T09:59:21Z</time>
      </trkpt>
      <trkpt lat="45.73907" lon="4.60344">
        <ele>824.6</ele>
        <time>2026-08-26T09:59:22Z</time>
      </trkpt>
      <trkpt lat="45.73909" lon="4.60348">
        <ele>824.8</ele>
        <time>2026-08-26T09:59:23Z</time>
      </trkpt>
      <trkpt lat="45.73911" lon="4.60352">
        <ele>825</ele>
        <time>2026-08-26T09:59:24Z</time>
      </trkpt>
      <trkpt lat="45.73913" lon="4.60356">
        <ele>825.2</ele>
        <time>2026-08-26T09:59:25Z</time>
      </trkpt>
      <trkpt lat="45.73915" lon="4.6036">
        <ele>825.2</ele>
        <time>2026-08-26T09:59:26Z</time>
      </trkpt>
      <trkpt lat="45.73917" lon="4.60365">
        <ele>825.4</ele>
        <time>2026-08-26T09:59:27Z</time>
      </trkpt>
      <trkpt lat="45.73919" lon="4.60369">
        <ele>825.8</ele>
        <time>2026-08-26T09:59:28Z</time>
      </trkpt>
      <trkpt lat="45.73921" lon="4.60373">
        <ele>825.8</ele>
        <time>2026-08-26T09:59:29Z</time>
      </trkpt>
      <trkpt lat="45.73922" lon="4.60377">
        <ele>826</ele>
        <time>2026-08-26T09:59:30Z</time>
      </trkpt>
      <trkpt lat="45.73924" lon="4.6038">
        <ele>826.2</ele>
        <time>2026-08-26T09:59:31Z</time>
      </trkpt>
      <trkpt lat="45.73925" lon="4.60384">
        <ele>826.4</ele>
        <time>2026-08-26T09:59:32Z</time>
      </trkpt>
      <trkpt lat="45.73926" lon="4.60389">
        <ele>826.6</ele>
        <time>2026-08-26T09:59:33Z</time>
      </trkpt>
      <trkpt lat="45.73927" lon="4.60393">
        <ele>826.8</ele>
        <time>2026-08-26T09:59:34Z</time>
      </trkpt>
      <trkpt lat="45.73928" lon="4.60398">
        <ele>827</ele>
        <time>2026-08-26T09:59:35Z</time>
      </trkpt>
      <trkpt lat="45.73929" lon="4.60402">
        <ele>827.2</ele>
        <time>2026-08-26T09:59:36Z</time>
      </trkpt>
      <trkpt lat="45.73929" lon="4.60407">
        <ele>827.4</ele>
        <time>2026-08-26T09:59:37Z</time>
      </trkpt>
      <trkpt lat="45.7393" lon="4.60411">
        <ele>827.4</ele>
        <time>2026-08-26T09:59:38Z</time>
      </trkpt>
      <trkpt lat="45.73931" lon="4.60416">
        <ele>827.6</ele>
        <time>2026-08-26T09:59:39Z</time>
      </trkpt>
      <trkpt lat="45.73931" lon="4.6042">
        <ele>827.8</ele>
        <time>2026-08-26T09:59:40Z</time>
      </trkpt>
      <trkpt lat="45.73931" lon="4.60425">
        <ele>827.8</ele>
        <time>2026-08-26T09:59:41Z</time>
      </trkpt>
      <trkpt lat="45.73931" lon="4.60429">
        <ele>828</ele>
        <time>2026-08-26T09:59:42Z</time>
      </trkpt>
      <trkpt lat="45.73931" lon="4.60433">
        <ele>828.2</ele>
        <time>2026-08-26T09:59:43Z</time>
      </trkpt>
      <trkpt lat="45.73931" lon="4.60437">
        <ele>828.4</ele>
        <time>2026-08-26T09:59:44Z</time>
      </trkpt>
      <trkpt lat="45.73931" lon="4.60441">
        <ele>828.4</ele>
        <time>2026-08-26T09:59:45Z</time>
      </trkpt>
      <trkpt lat="45.7393" lon="4.60445">
        <ele>828.6</ele>
        <time>2026-08-26T09:59:46Z</time>
      </trkpt>
      <trkpt lat="45.7393" lon="4.60449">
        <ele>828.8</ele>
        <time>2026-08-26T09:59:47Z</time>
      </trkpt>
      <trkpt lat="45.73929" lon="4.60452">
        <ele>829</ele>
        <time>2026-08-26T09:59:48Z</time>
      </trkpt>
      <trkpt lat="45.73929" lon="4.60456">
        <ele>829.2</ele>
        <time>2026-08-26T09:59:49Z</time>
      </trkpt>
      <trkpt lat="45.73928" lon="4.60459">
        <ele>829.4</ele>
        <time>2026-08-26T09:59:50Z</time>
      </trkpt>
      <trkpt lat="45.73927" lon="4.60463">
        <ele>829.6</ele>
        <time>2026-08-26T09:59:51Z</time>
      </trkpt>
      <trkpt lat="45.73926" lon="4.60467">
        <ele>829.8</ele>
        <time>2026-08-26T09:59:52Z</time>
      </trkpt>
      <trkpt lat="45.73925" lon="4.60471">
        <ele>830.2</ele>
        <time>2026-08-26T09:59:53Z</time>
      </trkpt>
      <trkpt lat="45.73924" lon="4.60475">
        <ele>830.2</ele>
        <time>2026-08-26T09:59:54Z</time>
      </trkpt>
      <trkpt lat="45.73922" lon="4.60479">
        <ele>830.4</ele>
        <time>2026-08-26T09:59:55Z</time>
      </trkpt>
      <trkpt lat="45.73921" lon="4.60483">
        <ele>830.6</ele>
        <time>2026-08-26T09:59:56Z</time>
      </trkpt>
      <trkpt lat="45.73919" lon="4.60487">
        <ele>830.6</ele>
        <time>2026-08-26T09:59:57Z</time>
      </trkpt>
      <trkpt lat="45.73918" lon="4.60491">
        <ele>830.6</ele>
        <time>2026-08-26T09:59:58Z</time>
      </trkpt>
      <trkpt lat="45.73917" lon="4.60494">
        <ele>830.8</ele>
        <time>2026-08-26T09:59:59Z</time>
      </trkpt>
      <trkpt lat="45.73917" lon="4.60498">
        <ele>830.8</ele>
        <time>2026-08-26T10:00:00Z</time>
      </trkpt>
      <trkpt lat="45.73915" lon="4.60501">
        <ele>831</ele>
        <time>2026-08-26T10:00:01Z</time>
      </trkpt>
      <trkpt lat="45.73913" lon="4.60505">
        <ele>831</ele>
        <time>2026-08-26T10:00:02Z</time>
      </trkpt>
      <trkpt lat="45.73911" lon="4.60509">
        <ele>831.2</ele>
        <time>2026-08-26T10:00:03Z</time>
      </trkpt>
      <trkpt lat="45.7391" lon="4.60512">
        <ele>831.4</ele>
        <time>2026-08-26T10:00:04Z</time>
      </trkpt>
      <trkpt lat="45.73909" lon="4.60516">
        <ele>831.6</ele>
        <time>2026-08-26T10:00:05Z</time>
      </trkpt>
      <trkpt lat="45.73908" lon="4.60519">
        <ele>831.6</ele>
        <time>2026-08-26T10:00:06Z</time>
      </trkpt>
      <trkpt lat="45.73908" lon="4.60522">
        <ele>831.6</ele>
        <time>2026-08-26T10:00:07Z</time>
      </trkpt>
      <trkpt lat="45.73906" lon="4.60526">
        <ele>831.6</ele>
        <time>2026-08-26T10:00:08Z</time>
      </trkpt>
      <trkpt lat="45.73904" lon="4.60531">
        <ele>831.8</ele>
        <time>2026-08-26T10:00:09Z</time>
      </trkpt>
      <trkpt lat="45.73902" lon="4.60535">
        <ele>831.8</ele>
        <time>2026-08-26T10:00:10Z</time>
      </trkpt>
      <trkpt lat="45.73901" lon="4.60539">
        <ele>831.6</ele>
        <time>2026-08-26T10:00:11Z</time>
      </trkpt>
      <trkpt lat="45.73899" lon="4.60542">
        <ele>831.6</ele>
        <time>2026-08-26T10:00:12Z</time>
      </trkpt>
      <trkpt lat="45.73897" lon="4.60546">
        <ele>831.6</ele>
        <time>2026-08-26T10:00:13Z</time>
      </trkpt>
      <trkpt lat="45.73895" lon="4.6055">
        <ele>831.6</ele>
        <time>2026-08-26T10:00:14Z</time>
      </trkpt>
      <trkpt lat="45.73893" lon="4.60553">
        <ele>831.8</ele>
        <time>2026-08-26T10:00:15Z</time>
      </trkpt>
      <trkpt lat="45.73891" lon="4.60556">
        <ele>832</ele>
        <time>2026-08-26T10:00:16Z</time>
      </trkpt>
      <trkpt lat="45.7389" lon="4.6056">
        <ele>832.2</ele>
        <time>2026-08-26T10:00:17Z</time>
      </trkpt>
      <trkpt lat="45.73889" lon="4.60564">
        <ele>832.2</ele>
        <time>2026-08-26T10:00:18Z</time>
      </trkpt>
      <trkpt lat="45.73888" lon="4.60567">
        <ele>832.4</ele>
        <time>2026-08-26T10:00:19Z</time>
      </trkpt>
      <trkpt lat="45.73886" lon="4.60571">
        <ele>832.6</ele>
        <time>2026-08-26T10:00:20Z</time>
      </trkpt>
      <trkpt lat="45.73884" lon="4.60574">
        <ele>832.6</ele>
        <time>2026-08-26T10:00:21Z</time>
      </trkpt>
      <trkpt lat="45.73882" lon="4.60577">
        <ele>832.6</ele>
        <time>2026-08-26T10:00:22Z</time>
      </trkpt>
      <trkpt lat="45.7388" lon="4.60582">
        <ele>832.6</ele>
        <time>2026-08-26T10:00:23Z</time>
      </trkpt>
      <trkpt lat="45.73878" lon="4.60587">
        <ele>832.6</ele>
        <time>2026-08-26T10:00:24Z</time>
      </trkpt>
      <trkpt lat="45.73875" lon="4.60591">
        <ele>832.4</ele>
        <time>2026-08-26T10:00:25Z</time>
      </trkpt>
      <trkpt lat="45.73873" lon="4.60595">
        <ele>832.2</ele>
        <time>2026-08-26T10:00:26Z</time>
      </trkpt>
      <trkpt lat="45.7387" lon="4.606">
        <ele>832</ele>
        <time>2026-08-26T10:00:27Z</time>
      </trkpt>
      <trkpt lat="45.73867" lon="4.60605">
        <ele>831.8</ele>
        <time>2026-08-26T10:00:28Z</time>
      </trkpt>
      <trkpt lat="45.73864" lon="4.6061">
        <ele>831.6</ele>
        <time>2026-08-26T10:00:29Z</time>
      </trkpt>
      <trkpt lat="45.73861" lon="4.60615">
        <ele>831.6</ele>
        <time>2026-08-26T10:00:30Z</time>
      </trkpt>
      <trkpt lat="45.73858" lon="4.60621">
        <ele>831.4</ele>
        <time>2026-08-26T10:00:31Z</time>
      </trkpt>
      <trkpt lat="45.73855" lon="4.60626">
        <ele>831.4</ele>
        <time>2026-08-26T10:00:32Z</time>
      </trkpt>
      <trkpt lat="45.73851" lon="4.60633">
        <ele>831</ele>
        <time>2026-08-26T10:00:33Z</time>
      </trkpt>
      <trkpt lat="45.73848" lon="4.60639">
        <ele>830.8</ele>
        <time>2026-08-26T10:00:34Z</time>
      </trkpt>
      <trkpt lat="45.73845" lon="4.60646">
        <ele>830.4</ele>
        <time>2026-08-26T10:00:35Z</time>
      </trkpt>
      <trkpt lat="45.73842" lon="4.60653">
        <ele>830</ele>
        <time>2026-08-26T10:00:36Z</time>
      </trkpt>
      <trkpt lat="45.73838" lon="4.60661">
        <ele>829.8</ele>
        <time>2026-08-26T10:00:37Z</time>
      </trkpt>
      <trkpt lat="45.73835" lon="4.60669">
        <ele>829.6</ele>
        <time>2026-08-26T10:00:38Z</time>
      </trkpt>
      <trkpt lat="45.73832" lon="4.60677">
        <ele>829.2</ele>
        <time>2026-08-26T10:00:39Z</time>
      </trkpt>
      <trkpt lat="45.73828" lon="4.60685">
        <ele>828.8</ele>
        <time>2026-08-26T10:00:40Z</time>
      </trkpt>
      <trkpt lat="45.73826" lon="4.60694">
        <ele>828.4</ele>
        <time>2026-08-26T10:00:41Z</time>
      </trkpt>
      <trkpt lat="45.73823" lon="4.60704">
        <ele>827.8</ele>
        <time>2026-08-26T10:00:42Z</time>
      </trkpt>
      <trkpt lat="45.7382" lon="4.60714">
        <ele>827</ele>
        <time>2026-08-26T10:00:43Z</time>
      </trkpt>
      <trkpt lat="45.73817" lon="4.60724">
        <ele>826.4</ele>
        <time>2026-08-26T10:00:44Z</time>
      </trkpt>
      <trkpt lat="45.73814" lon="4.60735">
        <ele>826</ele>
        <time>2026-08-26T10:00:45Z</time>
      </trkpt>
      <trkpt lat="45.7381" lon="4.60745">
        <ele>825.4</ele>
        <time>2026-08-26T10:00:46Z</time>
      </trkpt>
      <trkpt lat="45.73806" lon="4.60757">
        <ele>824.8</ele>
        <time>2026-08-26T10:00:47Z</time>
      </trkpt>
      <trkpt lat="45.73801" lon="4.60768">
        <ele>824.2</ele>
        <time>2026-08-26T10:00:48Z</time>
      </trkpt>
      <trkpt lat="45.73798" lon="4.60781">
        <ele>823.6</ele>
        <time>2026-08-26T10:00:49Z</time>
      </trkpt>
      <trkpt lat="45.73794" lon="4.60793">
        <ele>823.2</ele>
        <time>2026-08-26T10:00:50Z</time>
      </trkpt>
      <trkpt lat="45.73791" lon="4.60806">
        <ele>822.6</ele>
        <time>2026-08-26T10:00:51Z</time>
      </trkpt>
      <trkpt lat="45.73789" lon="4.6082">
        <ele>822.2</ele>
        <time>2026-08-26T10:00:52Z</time>
      </trkpt>
      <trkpt lat="45.73787" lon="4.60834">
        <ele>821.6</ele>
        <time>2026-08-26T10:00:53Z</time>
      </trkpt>
      <trkpt lat="45.73785" lon="4.60848">
        <ele>820.8</ele>
        <time>2026-08-26T10:00:54Z</time>
      </trkpt>
      <trkpt lat="45.73783" lon="4.60863">
        <ele>820.2</ele>
        <time>2026-08-26T10:00:55Z</time>
      </trkpt>
      <trkpt lat="45.73781" lon="4.60877">
        <ele>819.4</ele>
        <time>2026-08-26T10:00:56Z</time>
      </trkpt>
      <trkpt lat="45.73778" lon="4.60892">
        <ele>818.4</ele>
        <time>2026-08-26T10:00:57Z</time>
      </trkpt>
      <trkpt lat="45.73776" lon="4.60907">
        <ele>817.4</ele>
        <time>2026-08-26T10:00:58Z</time>
      </trkpt>
      <trkpt lat="45.73774" lon="4.60922">
        <ele>816.6</ele>
        <time>2026-08-26T10:00:59Z</time>
      </trkpt>
      <trkpt lat="45.73772" lon="4.60936">
        <ele>815.8</ele>
        <time>2026-08-26T10:01:00Z</time>
      </trkpt>
      <trkpt lat="45.7377" lon="4.60951">
        <ele>815</ele>
        <time>2026-08-26T10:01:01Z</time>
      </trkpt>
      <trkpt lat="45.73768" lon="4.60967">
        <ele>814.4</ele>
        <time>2026-08-26T10:01:02Z</time>
      </trkpt>
      <trkpt lat="45.73768" lon="4.60981">
        <ele>813.8</ele>
        <time>2026-08-26T10:01:03Z</time>
      </trkpt>
      <trkpt lat="45.73766" lon="4.60996">
        <ele>813.2</ele>
        <time>2026-08-26T10:01:04Z</time>
      </trkpt>
      <trkpt lat="45.73765" lon="4.61012">
        <ele>812.4</ele>
        <time>2026-08-26T10:01:05Z</time>
      </trkpt>
      <trkpt lat="45.73765" lon="4.61027">
        <ele>812</ele>
        <time>2026-08-26T10:01:06Z</time>
      </trkpt>
      <trkpt lat="45.73764" lon="4.61041">
        <ele>811.4</ele>
        <time>2026-08-26T10:01:07Z</time>
      </trkpt>
      <trkpt lat="45.73762" lon="4.61056">
        <ele>810.8</ele>
        <time>2026-08-26T10:01:08Z</time>
      </trkpt>
      <trkpt lat="45.7376" lon="4.61071">
        <ele>810</ele>
        <time>2026-08-26T10:01:09Z</time>
      </trkpt>
      <trkpt lat="45.73759" lon="4.61086">
        <ele>809.4</ele>
        <time>2026-08-26T10:01:10Z</time>
      </trkpt>
      <trkpt lat="45.73759" lon="4.611">
        <ele>808.8</ele>
        <time>2026-08-26T10:01:11Z</time>
      </trkpt>
      <trkpt lat="45.73758" lon="4.61116">
        <ele>808.4</ele>
        <time>2026-08-26T10:01:12Z</time>
      </trkpt>
      <trkpt lat="45.73758" lon="4.61131">
        <ele>807.8</ele>
        <time>2026-08-26T10:01:13Z</time>
      </trkpt>
      <trkpt lat="45.73758" lon="4.61146">
        <ele>807.4</ele>
        <time>2026-08-26T10:01:14Z</time>
      </trkpt>
      <trkpt lat="45.73759" lon="4.61161">
        <ele>806.8</ele>
        <time>2026-08-26T10:01:15Z</time>
      </trkpt>
      <trkpt lat="45.73761" lon="4.61176">
        <ele>806.4</ele>
        <time>2026-08-26T10:01:16Z</time>
      </trkpt>
      <trkpt lat="45.73764" lon="4.6119">
        <ele>806</ele>
        <time>2026-08-26T10:01:17Z</time>
      </trkpt>
      <trkpt lat="45.73767" lon="4.61204">
        <ele>805.4</ele>
        <time>2026-08-26T10:01:18Z</time>
      </trkpt>
      <trkpt lat="45.73771" lon="4.61217">
        <ele>805</ele>
        <time>2026-08-26T10:01:19Z</time>
      </trkpt>
      <trkpt lat="45.73776" lon="4.61231">
        <ele>804.4</ele>
        <time>2026-08-26T10:01:20Z</time>
      </trkpt>
      <trkpt lat="45.73782" lon="4.61244">
        <ele>803.6</ele>
        <time>2026-08-26T10:01:21Z</time>
      </trkpt>
      <trkpt lat="45.73787" lon="4.61256">
        <ele>803</ele>
        <time>2026-08-26T10:01:22Z</time>
      </trkpt>
      <trkpt lat="45.73794" lon="4.61269">
        <ele>802.4</ele>
        <time>2026-08-26T10:01:23Z</time>
      </trkpt>
      <trkpt lat="45.73801" lon="4.6128">
        <ele>801.6</ele>
        <time>2026-08-26T10:01:24Z</time>
      </trkpt>
      <trkpt lat="45.73809" lon="4.6129">
        <ele>801</ele>
        <time>2026-08-26T10:01:25Z</time>
      </trkpt>
      <trkpt lat="45.73818" lon="4.61299">
        <ele>800.4</ele>
        <time>2026-08-26T10:01:26Z</time>
      </trkpt>
      <trkpt lat="45.73828" lon="4.61306">
        <ele>799.6</ele>
        <time>2026-08-26T10:01:27Z</time>
      </trkpt>
      <trkpt lat="45.73838" lon="4.61311">
        <ele>798.8</ele>
        <time>2026-08-26T10:01:28Z</time>
      </trkpt>
      <trkpt lat="45.73849" lon="4.61314">
        <ele>798</ele>
        <time>2026-08-26T10:01:29Z</time>
      </trkpt>
      <trkpt lat="45.73861" lon="4.61317">
        <ele>797.2</ele>
        <time>2026-08-26T10:01:30Z</time>
      </trkpt>
      <trkpt lat="45.73872" lon="4.61317">
        <ele>796.6</ele>
        <time>2026-08-26T10:01:31Z</time>
      </trkpt>
      <trkpt lat="45.73883" lon="4.61316">
        <ele>796</ele>
        <time>2026-08-26T10:01:32Z</time>
      </trkpt>
      <trkpt lat="45.73894" lon="4.61314">
        <ele>795.2</ele>
        <time>2026-08-26T10:01:33Z</time>
      </trkpt>
      <trkpt lat="45.73905" lon="4.61313">
        <ele>794.6</ele>
        <time>2026-08-26T10:01:34Z</time>
      </trkpt>
      <trkpt lat="45.73916" lon="4.61312">
        <ele>793.8</ele>
        <time>2026-08-26T10:01:35Z</time>
      </trkpt>
      <trkpt lat="45.73927" lon="4.6131">
        <ele>793.2</ele>
        <time>2026-08-26T10:01:36Z</time>
      </trkpt>
      <trkpt lat="45.73938" lon="4.61309">
        <ele>792.4</ele>
        <time>2026-08-26T10:01:37Z</time>
      </trkpt>
      <trkpt lat="45.73951" lon="4.6131">
        <ele>791.8</ele>
        <time>2026-08-26T10:01:38Z</time>
      </trkpt>
      <trkpt lat="45.73963" lon="4.61313">
        <ele>791</ele>
        <time>2026-08-26T10:01:39Z</time>
      </trkpt>
      <trkpt lat="45.73974" lon="4.61318">
        <ele>790.2</ele>
        <time>2026-08-26T10:01:40Z</time>
      </trkpt>
      <trkpt lat="45.73985" lon="4.61323">
        <ele>789.2</ele>
        <time>2026-08-26T10:01:41Z</time>
      </trkpt>
      <trkpt lat="45.73996" lon="4.61326">
        <ele>788.4</ele>
        <time>2026-08-26T10:01:42Z</time>
      </trkpt>
      <trkpt lat="45.74007" lon="4.61325">
        <ele>787.6</ele>
        <time>2026-08-26T10:01:43Z</time>
      </trkpt>
      <trkpt lat="45.74017" lon="4.61323">
        <ele>787</ele>
        <time>2026-08-26T10:01:44Z</time>
      </trkpt>
      <trkpt lat="45.74028" lon="4.6132">
        <ele>786.2</ele>
        <time>2026-08-26T10:01:45Z</time>
      </trkpt>
      <trkpt lat="45.74038" lon="4.61316">
        <ele>786</ele>
        <time>2026-08-26T10:01:46Z</time>
      </trkpt>
      <trkpt lat="45.74049" lon="4.61311">
        <ele>785.8</ele>
        <time>2026-08-26T10:01:47Z</time>
      </trkpt>
      <trkpt lat="45.7406" lon="4.61306">
        <ele>785.4</ele>
        <time>2026-08-26T10:01:48Z</time>
      </trkpt>
      <trkpt lat="45.74071" lon="4.613">
        <ele>785</ele>
        <time>2026-08-26T10:01:49Z</time>
      </trkpt>
      <trkpt lat="45.74082" lon="4.61294">
        <ele>784.4</ele>
        <time>2026-08-26T10:01:50Z</time>
      </trkpt>
      <trkpt lat="45.74094" lon="4.61287">
        <ele>783.4</ele>
        <time>2026-08-26T10:01:51Z</time>
      </trkpt>
      <trkpt lat="45.74106" lon="4.61281">
        <ele>782.4</ele>
        <time>2026-08-26T10:01:52Z</time>
      </trkpt>
      <trkpt lat="45.74117" lon="4.61276">
        <ele>781.6</ele>
        <time>2026-08-26T10:01:53Z</time>
      </trkpt>
      <trkpt lat="45.74129" lon="4.61271">
        <ele>780.6</ele>
        <time>2026-08-26T10:01:54Z</time>
      </trkpt>
      <trkpt lat="45.74141" lon="4.61267">
        <ele>779.8</ele>
        <time>2026-08-26T10:01:55Z</time>
      </trkpt>
      <trkpt lat="45.74152" lon="4.61262">
        <ele>779.4</ele>
        <time>2026-08-26T10:01:56Z</time>
      </trkpt>
      <trkpt lat="45.74164" lon="4.61257">
        <ele>778.8</ele>
        <time>2026-08-26T10:01:57Z</time>
      </trkpt>
      <trkpt lat="45.74176" lon="4.61253">
        <ele>778</ele>
        <time>2026-08-26T10:01:58Z</time>
      </trkpt>
      <trkpt lat="45.74187" lon="4.61249">
        <ele>777.4</ele>
        <time>2026-08-26T10:01:59Z</time>
      </trkpt>
      <trkpt lat="45.74199" lon="4.61246">
        <ele>776.6</ele>
        <time>2026-08-26T10:02:00Z</time>
      </trkpt>
      <trkpt lat="45.74211" lon="4.61243">
        <ele>776</ele>
        <time>2026-08-26T10:02:01Z</time>
      </trkpt>
      <trkpt lat="45.74223" lon="4.6124">
        <ele>775.2</ele>
        <time>2026-08-26T10:02:02Z</time>
      </trkpt>
      <trkpt lat="45.74234" lon="4.61237">
        <ele>774.6</ele>
        <time>2026-08-26T10:02:03Z</time>
      </trkpt>
      <trkpt lat="45.74246" lon="4.61237">
        <ele>774</ele>
        <time>2026-08-26T10:02:04Z</time>
      </trkpt>
      <trkpt lat="45.74258" lon="4.61238">
        <ele>773.2</ele>
        <time>2026-08-26T10:02:05Z</time>
      </trkpt>
      <trkpt lat="45.7427" lon="4.61239">
        <ele>772.6</ele>
        <time>2026-08-26T10:02:06Z</time>
      </trkpt>
      <trkpt lat="45.74282" lon="4.61241">
        <ele>771.8</ele>
        <time>2026-08-26T10:02:07Z</time>
      </trkpt>
      <trkpt lat="45.74294" lon="4.61243">
        <ele>771.2</ele>
        <time>2026-08-26T10:02:08Z</time>
      </trkpt>
      <trkpt lat="45.74306" lon="4.61246">
        <ele>770.4</ele>
        <time>2026-08-26T10:02:09Z</time>
      </trkpt>
      <trkpt lat="45.74318" lon="4.61248">
        <ele>769.4</ele>
        <time>2026-08-26T10:02:10Z</time>
      </trkpt>
      <trkpt lat="45.7433" lon="4.61251">
        <ele>768.4</ele>
        <time>2026-08-26T10:02:11Z</time>
      </trkpt>
      <trkpt lat="45.74342" lon="4.61255">
        <ele>767.6</ele>
        <time>2026-08-26T10:02:12Z</time>
      </trkpt>
      <trkpt lat="45.74354" lon="4.6126">
        <ele>766.8</ele>
        <time>2026-08-26T10:02:13Z</time>
      </trkpt>
      <trkpt lat="45.74366" lon="4.61269">
        <ele>766</ele>
        <time>2026-08-26T10:02:14Z</time>
      </trkpt>
      <trkpt lat="45.74375" lon="4.6128">
        <ele>765.2</ele>
        <time>2026-08-26T10:02:15Z</time>
      </trkpt>
      <trkpt lat="45.74383" lon="4.61293">
        <ele>764.4</ele>
        <time>2026-08-26T10:02:16Z</time>
      </trkpt>
      <trkpt lat="45.7439" lon="4.61306">
        <ele>763.6</ele>
        <time>2026-08-26T10:02:17Z</time>
      </trkpt>
      <trkpt lat="45.74398" lon="4.61318">
        <ele>762.6</ele>
        <time>2026-08-26T10:02:18Z</time>
      </trkpt>
      <trkpt lat="45.74406" lon="4.61329">
        <ele>761.8</ele>
        <time>2026-08-26T10:02:19Z</time>
      </trkpt>
      <trkpt lat="45.74415" lon="4.61338">
        <ele>761</ele>
        <time>2026-08-26T10:02:20Z</time>
      </trkpt>
      <trkpt lat="45.74424" lon="4.61345">
        <ele>760.2</ele>
        <time>2026-08-26T10:02:21Z</time>
      </trkpt>
      <trkpt lat="45.74434" lon="4.61348">
        <ele>759.4</ele>
        <time>2026-08-26T10:02:22Z</time>
      </trkpt>
      <trkpt lat="45.74445" lon="4.6135">
        <ele>758.8</ele>
        <time>2026-08-26T10:02:23Z</time>
      </trkpt>
      <trkpt lat="45.74456" lon="4.6135">
        <ele>758.2</ele>
        <time>2026-08-26T10:02:24Z</time>
      </trkpt>
      <trkpt lat="45.74466" lon="4.61348">
        <ele>757.8</ele>
        <time>2026-08-26T10:02:25Z</time>
      </trkpt>
      <trkpt lat="45.74477" lon="4.61345">
        <ele>757.4</ele>
        <time>2026-08-26T10:02:26Z</time>
      </trkpt>
      <trkpt lat="45.74488" lon="4.61342">
        <ele>757</ele>
        <time>2026-08-26T10:02:27Z</time>
      </trkpt>
      <trkpt lat="45.74499" lon="4.61339">
        <ele>756.2</ele>
        <time>2026-08-26T10:02:28Z</time>
      </trkpt>
      <trkpt lat="45.74511" lon="4.61337">
        <ele>755.6</ele>
        <time>2026-08-26T10:02:29Z</time>
      </trkpt>
      <trkpt lat="45.74522" lon="4.61335">
        <ele>754.8</ele>
        <time>2026-08-26T10:02:30Z</time>
      </trkpt>
      <trkpt lat="45.74535" lon="4.61334">
        <ele>754</ele>
        <time>2026-08-26T10:02:31Z</time>
      </trkpt>
      <trkpt lat="45.74547" lon="4.61333">
        <ele>753</ele>
        <time>2026-08-26T10:02:32Z</time>
      </trkpt>
      <trkpt lat="45.74559" lon="4.61331">
        <ele>752.2</ele>
        <time>2026-08-26T10:02:33Z</time>
      </trkpt>
      <trkpt lat="45.74572" lon="4.6133">
        <ele>751.2</ele>
        <time>2026-08-26T10:02:34Z</time>
      </trkpt>
      <trkpt lat="45.74585" lon="4.61329">
        <ele>750.4</ele>
        <time>2026-08-26T10:02:35Z</time>
      </trkpt>
      <trkpt lat="45.74598" lon="4.61328">
        <ele>749.6</ele>
        <time>2026-08-26T10:02:36Z</time>
      </trkpt>
      <trkpt lat="45.74611" lon="4.61327">
        <ele>748.6</ele>
        <time>2026-08-26T10:02:37Z</time>
      </trkpt>
      <trkpt lat="45.74623" lon="4.61326">
        <ele>747.8</ele>
        <time>2026-08-26T10:02:38Z</time>
      </trkpt>
      <trkpt lat="45.74636" lon="4.61324">
        <ele>747</ele>
        <time>2026-08-26T10:02:39Z</time>
      </trkpt>
      <trkpt lat="45.74648" lon="4.61321">
        <ele>746.2</ele>
        <time>2026-08-26T10:02:40Z</time>
      </trkpt>
      <trkpt lat="45.7466" lon="4.61318">
        <ele>745.6</ele>
        <time>2026-08-26T10:02:41Z</time>
      </trkpt>
      <trkpt lat="45.74672" lon="4.61312">
        <ele>745</ele>
        <time>2026-08-26T10:02:42Z</time>
      </trkpt>
      <trkpt lat="45.74683" lon="4.61305">
        <ele>744.4</ele>
        <time>2026-08-26T10:02:43Z</time>
      </trkpt>
      <trkpt lat="45.74694" lon="4.61297">
        <ele>743.6</ele>
        <time>2026-08-26T10:02:44Z</time>
      </trkpt>
      <trkpt lat="45.74704" lon="4.61288">
        <ele>743</ele>
        <time>2026-08-26T10:02:45Z</time>
      </trkpt>
      <trkpt lat="45.74713" lon="4.61277">
        <ele>742.2</ele>
        <time>2026-08-26T10:02:46Z</time>
      </trkpt>
      <trkpt lat="45.74723" lon="4.61265">
        <ele>741.6</ele>
        <time>2026-08-26T10:02:47Z</time>
      </trkpt>
      <trkpt lat="45.74732" lon="4.61254">
        <ele>741</ele>
        <time>2026-08-26T10:02:48Z</time>
      </trkpt>
      <trkpt lat="45.74742" lon="4.61243">
        <ele>740.4</ele>
        <time>2026-08-26T10:02:49Z</time>
      </trkpt>
      <trkpt lat="45.74751" lon="4.61231">
        <ele>740</ele>
        <time>2026-08-26T10:02:50Z</time>
      </trkpt>
      <trkpt lat="45.74759" lon="4.6122">
        <ele>739.6</ele>
        <time>2026-08-26T10:02:51Z</time>
      </trkpt>
      <trkpt lat="45.74767" lon="4.6121">
        <ele>739.2</ele>
        <time>2026-08-26T10:02:52Z</time>
      </trkpt>
      <trkpt lat="45.74774" lon="4.61201">
        <ele>739.2</ele>
        <time>2026-08-26T10:02:53Z</time>
      </trkpt>
      <trkpt lat="45.7478" lon="4.61194">
        <ele>739.2</ele>
        <time>2026-08-26T10:02:54Z</time>
      </trkpt>
      <trkpt lat="45.74786" lon="4.61191">
        <ele>739.2</ele>
        <time>2026-08-26T10:02:55Z</time>
      </trkpt>
      <trkpt lat="45.74791" lon="4.61191">
        <ele>739.4</ele>
        <time>2026-08-26T10:02:56Z</time>
      </trkpt>
      <trkpt lat="45.74795" lon="4.61194">
        <ele>739.6</ele>
        <time>2026-08-26T10:02:57Z</time>
      </trkpt>
      <trkpt lat="45.74797" lon="4.61195">
        <ele>739.8</ele>
        <time>2026-08-26T10:02:58Z</time>
      </trkpt>
      <trkpt lat="45.74798" lon="4.61196">
        <ele>740.2</ele>
        <time>2026-08-26T10:02:59Z</time>
      </trkpt>
      <trkpt lat="45.74798" lon="4.61196">
        <ele>740.4</ele>
        <time>2026-08-26T10:03:00Z</time>
      </trkpt>
      <trkpt lat="45.74798" lon="4.61196">
        <ele>740.8</ele>
        <time>2026-08-26T10:03:01Z</time>
      </trkpt>
      <trkpt lat="45.74802" lon="4.61197">
        <ele>740.6</ele>
        <time>2026-08-26T10:03:20Z</time>
      </trkpt>
      <trkpt lat="45.74805" lon="4.61197">
        <ele>740.6</ele>
        <time>2026-08-26T10:03:21Z</time>
      </trkpt>
      <trkpt lat="45.74808" lon="4.61198">
        <ele>740.2</ele>
        <time>2026-08-26T10:03:22Z</time>
      </trkpt>
      <trkpt lat="45.74811" lon="4.612">
        <ele>740</ele>
        <time>2026-08-26T10:03:23Z</time>
      </trkpt>
      <trkpt lat="45.74815" lon="4.61202">
        <ele>739.6</ele>
        <time>2026-08-26T10:03:24Z</time>
      </trkpt>
      <trkpt lat="45.74819" lon="4.61204">
        <ele>739.2</ele>
        <time>2026-08-26T10:03:25Z</time>
      </trkpt>
      <trkpt lat="45.74823" lon="4.61205">
        <ele>738.8</ele>
        <time>2026-08-26T10:03:26Z</time>
      </trkpt>
      <trkpt lat="45.74827" lon="4.61206">
        <ele>738.4</ele>
        <time>2026-08-26T10:03:27Z</time>
      </trkpt>
      <trkpt lat="45.74832" lon="4.61208">
        <ele>737.8</ele>
        <time>2026-08-26T10:03:28Z</time>
      </trkpt>
      <trkpt lat="45.74837" lon="4.61209">
        <ele>737.4</ele>
        <time>2026-08-26T10:03:29Z</time>
      </trkpt>
      <trkpt lat="45.74843" lon="4.61209">
        <ele>737</ele>
        <time>2026-08-26T10:03:30Z</time>
      </trkpt>
      <trkpt lat="45.7485" lon="4.61209">
        <ele>736.2</ele>
        <time>2026-08-26T10:03:31Z</time>
      </trkpt>
      <trkpt lat="45.74856" lon="4.6121">
        <ele>735.6</ele>
        <time>2026-08-26T10:03:32Z</time>
      </trkpt>
      <trkpt lat="45.74864" lon="4.61209">
        <ele>735</ele>
        <time>2026-08-26T10:03:33Z</time>
      </trkpt>
      <trkpt lat="45.74872" lon="4.61207">
        <ele>734.6</ele>
        <time>2026-08-26T10:03:34Z</time>
      </trkpt>
      <trkpt lat="45.7488" lon="4.61205">
        <ele>734</ele>
        <time>2026-08-26T10:03:35Z</time>
      </trkpt>
      <trkpt lat="45.74888" lon="4.61202">
        <ele>733.4</ele>
        <time>2026-08-26T10:03:36Z</time>
      </trkpt>
      <trkpt lat="45.74896" lon="4.61199">
        <ele>732.8</ele>
        <time>2026-08-26T10:03:37Z</time>
      </trkpt>
      <trkpt lat="45.74905" lon="4.61195">
        <ele>732</ele>
        <time>2026-08-26T10:03:38Z</time>
      </trkpt>
      <trkpt lat="45.74913" lon="4.61191">
        <ele>731.2</ele>
        <time>2026-08-26T10:03:39Z</time>
      </trkpt>
      <trkpt lat="45.74922" lon="4.61187">
        <ele>730.6</ele>
        <time>2026-08-26T10:03:40Z</time>
      </trkpt>
      <trkpt lat="45.74932" lon="4.61184">
        <ele>730</ele>
        <time>2026-08-26T10:03:41Z</time>
      </trkpt>
      <trkpt lat="45.74942" lon="4.61182">
        <ele>729.4</ele>
        <time>2026-08-26T10:03:42Z</time>
      </trkpt>
      <trkpt lat="45.74952" lon="4.6118">
        <ele>728.6</ele>
        <time>2026-08-26T10:03:43Z</time>
      </trkpt>
      <trkpt lat="45.74963" lon="4.61179">
        <ele>727.8</ele>
        <time>2026-08-26T10:03:44Z</time>
      </trkpt>
      <trkpt lat="45.74973" lon="4.61179">
        <ele>727.2</ele>
        <time>2026-08-26T10:03:45Z</time>
      </trkpt>
      <trkpt lat="45.74985" lon="4.61181">
        <ele>726.4</ele>
        <time>2026-08-26T10:03:46Z</time>
      </trkpt>
      <trkpt lat="45.74996" lon="4.61185">
        <ele>725.6</ele>
        <time>2026-08-26T10:03:47Z</time>
      </trkpt>
      <trkpt lat="45.75007" lon="4.61191">
        <ele>724.6</ele>
        <time>2026-08-26T10:03:48Z</time>
      </trkpt>
      <trkpt lat="45.75017" lon="4.612">
        <ele>723.6</ele>
        <time>2026-08-26T10:03:49Z</time>
      </trkpt>
      <trkpt lat="45.75027" lon="4.61208">
        <ele>722.8</ele>
        <time>2026-08-26T10:03:50Z</time>
      </trkpt>
      <trkpt lat="45.75036" lon="4.61217">
        <ele>722</ele>
        <time>2026-08-26T10:03:51Z</time>
      </trkpt>
      <trkpt lat="45.75046" lon="4.61226">
        <ele>721.2</ele>
        <time>2026-08-26T10:03:52Z</time>
      </trkpt>
      <trkpt lat="45.75055" lon="4.61235">
        <ele>720.4</ele>
        <time>2026-08-26T10:03:53Z</time>
      </trkpt>
      <trkpt lat="45.75064" lon="4.61244">
        <ele>719.8</ele>
        <time>2026-08-26T10:03:54Z</time>
      </trkpt>
      <trkpt lat="45.75074" lon="4.61254">
        <ele>718.8</ele>
        <time>2026-08-26T10:03:55Z</time>
      </trkpt>
      <trkpt lat="45.75084" lon="4.61265">
        <ele>718</ele>
        <time>2026-08-26T10:03:56Z</time>
      </trkpt>
      <trkpt lat="45.75092" lon="4.61277">
        <ele>717.2</ele>
        <time>2026-08-26T10:03:57Z</time>
      </trkpt>
      <trkpt lat="45.75098" lon="4.61292">
        <ele>716.4</ele>
        <time>2026-08-26T10:03:58Z</time>
      </trkpt>
      <trkpt lat="45.75101" lon="4.61308">
        <ele>715.6</ele>
        <time>2026-08-26T10:03:59Z</time>
      </trkpt>
      <trkpt lat="45.75102" lon="4.61326">
        <ele>714.8</ele>
        <time>2026-08-26T10:04:00Z</time>
      </trkpt>
      <trkpt lat="45.75101" lon="4.61344">
        <ele>713.8</ele>
        <time>2026-08-26T10:04:01Z</time>
      </trkpt>
      <trkpt lat="45.751" lon="4.61362">
        <ele>713</ele>
        <time>2026-08-26T10:04:02Z</time>
      </trkpt>
      <trkpt lat="45.75098" lon="4.61379">
        <ele>712.2</ele>
        <time>2026-08-26T10:04:03Z</time>
      </trkpt>
      <trkpt lat="45.75095" lon="4.61397">
        <ele>711.6</ele>
        <time>2026-08-26T10:04:04Z</time>
      </trkpt>
      <trkpt lat="45.75092" lon="4.61414">
        <ele>710.8</ele>
        <time>2026-08-26T10:04:05Z</time>
      </trkpt>
      <trkpt lat="45.75089" lon="4.61431">
        <ele>710.2</ele>
        <time>2026-08-26T10:04:06Z</time>
      </trkpt>
      <trkpt lat="45.75086" lon="4.61449">
        <ele>709.2</ele>
        <time>2026-08-26T10:04:07Z</time>
      </trkpt>
      <trkpt lat="45.75084" lon="4.61466">
        <ele>708.4</ele>
        <time>2026-08-26T10:04:08Z</time>
      </trkpt>
      <trkpt lat="45.75081" lon="4.61483">
        <ele>707.6</ele>
        <time>2026-08-26T10:04:09Z</time>
      </trkpt>
      <trkpt lat="45.75077" lon="4.615">
        <ele>706.8</ele>
        <time>2026-08-26T10:04:10Z</time>
      </trkpt>
      <trkpt lat="45.75071" lon="4.61518">
        <ele>706</ele>
        <time>2026-08-26T10:04:11Z</time>
      </trkpt>
      <trkpt lat="45.75065" lon="4.61535">
        <ele>705.2</ele>
        <time>2026-08-26T10:04:12Z</time>
      </trkpt>
      <trkpt lat="45.75058" lon="4.6155">
        <ele>704.8</ele>
        <time>2026-08-26T10:04:13Z</time>
      </trkpt>
      <trkpt lat="45.75051" lon="4.61564">
        <ele>703.6</ele>
        <time>2026-08-26T10:04:14Z</time>
      </trkpt>
      <trkpt lat="45.75044" lon="4.6158">
        <ele>702.4</ele>
        <time>2026-08-26T10:04:15Z</time>
      </trkpt>
      <trkpt lat="45.75038" lon="4.61596">
        <ele>701.6</ele>
        <time>2026-08-26T10:04:16Z</time>
      </trkpt>
      <trkpt lat="45.75032" lon="4.61611">
        <ele>700.6</ele>
        <time>2026-08-26T10:04:17Z</time>
      </trkpt>
      <trkpt lat="45.75026" lon="4.61627">
        <ele>700.2</ele>
        <time>2026-08-26T10:04:18Z</time>
      </trkpt>
      <trkpt lat="45.75021" lon="4.61641">
        <ele>699.8</ele>
        <time>2026-08-26T10:04:19Z</time>
      </trkpt>
      <trkpt lat="45.75016" lon="4.61657">
        <ele>699.2</ele>
        <time>2026-08-26T10:04:20Z</time>
      </trkpt>
      <trkpt lat="45.75012" lon="4.61673">
        <ele>698.4</ele>
        <time>2026-08-26T10:04:21Z</time>
      </trkpt>
      <trkpt lat="45.75008" lon="4.61689">
        <ele>697.8</ele>
        <time>2026-08-26T10:04:22Z</time>
      </trkpt>
      <trkpt lat="45.75004" lon="4.61705">
        <ele>697.2</ele>
        <time>2026-08-26T10:04:23Z</time>
      </trkpt>
      <trkpt lat="45.75" lon="4.61722">
        <ele>696.4</ele>
        <time>2026-08-26T10:04:24Z</time>
      </trkpt>
      <trkpt lat="45.74996" lon="4.61738">
        <ele>695.6</ele>
        <time>2026-08-26T10:04:25Z</time>
      </trkpt>
      <trkpt lat="45.74992" lon="4.61755">
        <ele>694.6</ele>
        <time>2026-08-26T10:04:26Z</time>
      </trkpt>
      <trkpt lat="45.74988" lon="4.61771">
        <ele>693.8</ele>
        <time>2026-08-26T10:04:27Z</time>
      </trkpt>
      <trkpt lat="45.74984" lon="4.61788">
        <ele>693.2</ele>
        <time>2026-08-26T10:04:28Z</time>
      </trkpt>
      <trkpt lat="45.7498" lon="4.61804">
        <ele>692.4</ele>
        <time>2026-08-26T10:04:29Z</time>
      </trkpt>
      <trkpt lat="45.74977" lon="4.61821">
        <ele>691.4</ele>
        <time>2026-08-26T10:04:30Z</time>
      </trkpt>
      <trkpt lat="45.74973" lon="4.61837">
        <ele>690.6</ele>
        <time>2026-08-26T10:04:31Z</time>
      </trkpt>
      <trkpt lat="45.74968" lon="4.61854">
        <ele>690</ele>
        <time>2026-08-26T10:04:32Z</time>
      </trkpt>
      <trkpt lat="45.74964" lon="4.6187">
        <ele>689.2</ele>
        <time>2026-08-26T10:04:33Z</time>
      </trkpt>
      <trkpt lat="45.7496" lon="4.61886">
        <ele>688.2</ele>
        <time>2026-08-26T10:04:34Z</time>
      </trkpt>
      <trkpt lat="45.74956" lon="4.61903">
        <ele>687.6</ele>
        <time>2026-08-26T10:04:35Z</time>
      </trkpt>
      <trkpt lat="45.74952" lon="4.61919">
        <ele>686.8</ele>
        <time>2026-08-26T10:04:36Z</time>
      </trkpt>
      <trkpt lat="45.74947" lon="4.61934">
        <ele>686</ele>
        <time>2026-08-26T10:04:37Z</time>
      </trkpt>
      <trkpt lat="45.74942" lon="4.61949">
        <ele>685.4</ele>
        <time>2026-08-26T10:04:38Z</time>
      </trkpt>
      <trkpt lat="45.74936" lon="4.61964">
        <ele>684.6</ele>
        <time>2026-08-26T10:04:39Z</time>
      </trkpt>
      <trkpt lat="45.74931" lon="4.61979">
        <ele>684</ele>
        <time>2026-08-26T10:04:40Z</time>
      </trkpt>
      <trkpt lat="45.74925" lon="4.61994">
        <ele>683.2</ele>
        <time>2026-08-26T10:04:41Z</time>
      </trkpt>
      <trkpt lat="45.74919" lon="4.62009">
        <ele>682.6</ele>
        <time>2026-08-26T10:04:42Z</time>
      </trkpt>
      <trkpt lat="45.74913" lon="4.62024">
        <ele>682.2</ele>
        <time>2026-08-26T10:04:43Z</time>
      </trkpt>
      <trkpt lat="45.74907" lon="4.6204">
        <ele>681.2</ele>
        <time>2026-08-26T10:04:44Z</time>
      </trkpt>
      <trkpt lat="45.749" lon="4.62054">
        <ele>680.6</ele>
        <time>2026-08-26T10:04:45Z</time>
      </trkpt>
      <trkpt lat="45.74893" lon="4.62069">
        <ele>679.8</ele>
        <time>2026-08-26T10:04:46Z</time>
      </trkpt>
      <trkpt lat="45.74885" lon="4.62082">
        <ele>679</ele>
        <time>2026-08-26T10:04:47Z</time>
      </trkpt>
      <trkpt lat="45.74877" lon="4.62095">
        <ele>678</ele>
        <time>2026-08-26T10:04:48Z</time>
      </trkpt>
      <trkpt lat="45.7487" lon="4.62109">
        <ele>677.2</ele>
        <time>2026-08-26T10:04:49Z</time>
      </trkpt>
      <trkpt lat="45.74864" lon="4.62123">
        <ele>676.4</ele>
        <time>2026-08-26T10:04:50Z</time>
      </trkpt>
      <trkpt lat="45.74859" lon="4.62138">
        <ele>675.6</ele>
        <time>2026-08-26T10:04:51Z</time>
      </trkpt>
      <trkpt lat="45.74854" lon="4.62154">
        <ele>674.6</ele>
        <time>2026-08-26T10:04:52Z</time>
      </trkpt>
      <trkpt lat="45.74849" lon="4.6217">
        <ele>674</ele>
        <time>2026-08-26T10:04:53Z</time>
      </trkpt>
      <trkpt lat="45.74846" lon="4.62186">
        <ele>673.4</ele>
        <time>2026-08-26T10:04:54Z</time>
      </trkpt>
      <trkpt lat="45.74842" lon="4.62202">
        <ele>672.8</ele>
        <time>2026-08-26T10:04:55Z</time>
      </trkpt>
      <trkpt lat="45.74838" lon="4.62219">
        <ele>672</ele>
        <time>2026-08-26T10:04:56Z</time>
      </trkpt>
      <trkpt lat="45.74833" lon="4.62235">
        <ele>671.4</ele>
        <time>2026-08-26T10:04:57Z</time>
      </trkpt>
      <trkpt lat="45.74829" lon="4.6225">
        <ele>670.8</ele>
        <time>2026-08-26T10:04:58Z</time>
      </trkpt>
      <trkpt lat="45.74824" lon="4.62266">
        <ele>670</ele>
        <time>2026-08-26T10:04:59Z</time>
      </trkpt>
      <trkpt lat="45.7482" lon="4.62282">
        <ele>669.2</ele>
        <time>2026-08-26T10:05:00Z</time>
      </trkpt>
      <trkpt lat="45.74817" lon="4.62298">
        <ele>668.6</ele>
        <time>2026-08-26T10:05:01Z</time>
      </trkpt>
      <trkpt lat="45.74814" lon="4.62315">
        <ele>668</ele>
        <time>2026-08-26T10:05:02Z</time>
      </trkpt>
      <trkpt lat="45.74813" lon="4.62332">
        <ele>667.2</ele>
        <time>2026-08-26T10:05:03Z</time>
      </trkpt>
      <trkpt lat="45.74811" lon="4.62348">
        <ele>666.6</ele>
        <time>2026-08-26T10:05:04Z</time>
      </trkpt>
      <trkpt lat="45.74811" lon="4.62365">
        <ele>666.2</ele>
        <time>2026-08-26T10:05:05Z</time>
      </trkpt>
      <trkpt lat="45.74811" lon="4.62382">
        <ele>665.6</ele>
        <time>2026-08-26T10:05:06Z</time>
      </trkpt>
      <trkpt lat="45.74812" lon="4.62399">
        <ele>664.8</ele>
        <time>2026-08-26T10:05:07Z</time>
      </trkpt>
      <trkpt lat="45.74812" lon="4.62416">
        <ele>664</ele>
        <time>2026-08-26T10:05:08Z</time>
      </trkpt>
      <trkpt lat="45.74813" lon="4.62433">
        <ele>663.2</ele>
        <time>2026-08-26T10:05:09Z</time>
      </trkpt>
      <trkpt lat="45.74813" lon="4.62449">
        <ele>662.2</ele>
        <time>2026-08-26T10:05:10Z</time>
      </trkpt>
      <trkpt lat="45.74814" lon="4.62466">
        <ele>661.6</ele>
        <time>2026-08-26T10:05:11Z</time>
      </trkpt>
      <trkpt lat="45.74814" lon="4.62483">
        <ele>660.8</ele>
        <time>2026-08-26T10:05:12Z</time>
      </trkpt>
      <trkpt lat="45.74814" lon="4.625">
        <ele>660</ele>
        <time>2026-08-26T10:05:13Z</time>
      </trkpt>
      <trkpt lat="45.74814" lon="4.62517">
        <ele>659.2</ele>
        <time>2026-08-26T10:05:14Z</time>
      </trkpt>
      <trkpt lat="45.74816" lon="4.62534">
        <ele>658.4</ele>
        <time>2026-08-26T10:05:15Z</time>
      </trkpt>
      <trkpt lat="45.74818" lon="4.6255">
        <ele>657.6</ele>
        <time>2026-08-26T10:05:16Z</time>
      </trkpt>
      <trkpt lat="45.74822" lon="4.62566">
        <ele>656.8</ele>
        <time>2026-08-26T10:05:17Z</time>
      </trkpt>
      <trkpt lat="45.74827" lon="4.62582">
        <ele>656.2</ele>
        <time>2026-08-26T10:05:18Z</time>
      </trkpt>
      <trkpt lat="45.74833" lon="4.62596">
        <ele>655.4</ele>
        <time>2026-08-26T10:05:19Z</time>
      </trkpt>
      <trkpt lat="45.74841" lon="4.62607">
        <ele>655</ele>
        <time>2026-08-26T10:05:20Z</time>
      </trkpt>
      <trkpt lat="45.7485" lon="4.62616">
        <ele>654.2</ele>
        <time>2026-08-26T10:05:21Z</time>
      </trkpt>
      <trkpt lat="45.74861" lon="4.62621">
        <ele>653.6</ele>
        <time>2026-08-26T10:05:22Z</time>
      </trkpt>
      <trkpt lat="45.74872" lon="4.62624">
        <ele>653</ele>
        <time>2026-08-26T10:05:23Z</time>
      </trkpt>
      <trkpt lat="45.74883" lon="4.62623">
        <ele>652.4</ele>
        <time>2026-08-26T10:05:24Z</time>
      </trkpt>
      <trkpt lat="45.74895" lon="4.62622">
        <ele>651.6</ele>
        <time>2026-08-26T10:05:25Z</time>
      </trkpt>
      <trkpt lat="45.74906" lon="4.6262">
        <ele>651</ele>
        <time>2026-08-26T10:05:26Z</time>
      </trkpt>
      <trkpt lat="45.74918" lon="4.62617">
        <ele>650.2</ele>
        <time>2026-08-26T10:05:27Z</time>
      </trkpt>
      <trkpt lat="45.74929" lon="4.62614">
        <ele>649.4</ele>
        <time>2026-08-26T10:05:28Z</time>
      </trkpt>
      <trkpt lat="45.74941" lon="4.6261">
        <ele>648.8</ele>
        <time>2026-08-26T10:05:29Z</time>
      </trkpt>
      <trkpt lat="45.74953" lon="4.62606">
        <ele>647.8</ele>
        <time>2026-08-26T10:05:30Z</time>
      </trkpt>
      <trkpt lat="45.74965" lon="4.62601">
        <ele>646.8</ele>
        <time>2026-08-26T10:05:31Z</time>
      </trkpt>
      <trkpt lat="45.74976" lon="4.62597">
        <ele>646</ele>
        <time>2026-08-26T10:05:32Z</time>
      </trkpt>
      <trkpt lat="45.74988" lon="4.62593">
        <ele>645</ele>
        <time>2026-08-26T10:05:33Z</time>
      </trkpt>
      <trkpt lat="45.75" lon="4.62589">
        <ele>644.2</ele>
        <time>2026-08-26T10:05:34Z</time>
      </trkpt>
      <trkpt lat="45.75011" lon="4.62584">
        <ele>643.4</ele>
        <time>2026-08-26T10:05:35Z</time>
      </trkpt>
      <trkpt lat="45.75022" lon="4.62579">
        <ele>642.6</ele>
        <time>2026-08-26T10:05:36Z</time>
      </trkpt>
      <trkpt lat="45.75034" lon="4.62574">
        <ele>641.8</ele>
        <time>2026-08-26T10:05:37Z</time>
      </trkpt>
      <trkpt lat="45.75045" lon="4.62567">
        <ele>641</ele>
        <time>2026-08-26T10:05:38Z</time>
      </trkpt>
      <trkpt lat="45.75055" lon="4.62559">
        <ele>640.2</ele>
        <time>2026-08-26T10:05:39Z</time>
      </trkpt>
      <trkpt lat="45.75065" lon="4.62552">
        <ele>639.4</ele>
        <time>2026-08-26T10:05:40Z</time>
      </trkpt>
      <trkpt lat="45.75076" lon="4.62543">
        <ele>638.8</ele>
        <time>2026-08-26T10:05:41Z</time>
      </trkpt>
      <trkpt lat="45.75085" lon="4.62532">
        <ele>638</ele>
        <time>2026-08-26T10:05:42Z</time>
      </trkpt>
      <trkpt lat="45.75094" lon="4.62521">
        <ele>637.4</ele>
        <time>2026-08-26T10:05:43Z</time>
      </trkpt>
      <trkpt lat="45.75102" lon="4.62509">
        <ele>636.8</ele>
        <time>2026-08-26T10:05:44Z</time>
      </trkpt>
      <trkpt lat="45.7511" lon="4.62496">
        <ele>636</ele>
        <time>2026-08-26T10:05:45Z</time>
      </trkpt>
      <trkpt lat="45.75117" lon="4.62484">
        <ele>635.4</ele>
        <time>2026-08-26T10:05:46Z</time>
      </trkpt>
      <trkpt lat="45.75125" lon="4.62471">
        <ele>634.6</ele>
        <time>2026-08-26T10:05:47Z</time>
      </trkpt>
      <trkpt lat="45.75131" lon="4.62458">
        <ele>633.6</ele>
        <time>2026-08-26T10:05:48Z</time>
      </trkpt>
      <trkpt lat="45.75138" lon="4.62446">
        <ele>633.2</ele>
        <time>2026-08-26T10:05:49Z</time>
      </trkpt>
      <trkpt lat="45.75145" lon="4.62435">
        <ele>632.6</ele>
        <time>2026-08-26T10:05:50Z</time>
      </trkpt>
      <trkpt lat="45.75151" lon="4.62428">
        <ele>632.4</ele>
        <time>2026-08-26T10:05:51Z</time>
      </trkpt>
      <trkpt lat="45.7516" lon="4.62424">
        <ele>632</ele>
        <time>2026-08-26T10:05:52Z</time>
      </trkpt>
      <trkpt lat="45.75168" lon="4.62427">
        <ele>631.4</ele>
        <time>2026-08-26T10:05:53Z</time>
      </trkpt>
      <trkpt lat="45.75176" lon="4.62436">
        <ele>630.8</ele>
        <time>2026-08-26T10:05:54Z</time>
      </trkpt>
      <trkpt lat="45.75181" lon="4.62447">
        <ele>630.4</ele>
        <time>2026-08-26T10:05:55Z</time>
      </trkpt>
      <trkpt lat="45.75182" lon="4.62459">
        <ele>629.6</ele>
        <time>2026-08-26T10:05:56Z</time>
      </trkpt>
      <trkpt lat="45.7518" lon="4.62473">
        <ele>629</ele>
        <time>2026-08-26T10:05:57Z</time>
      </trkpt>
      <trkpt lat="45.75178" lon="4.62487">
        <ele>628.6</ele>
        <time>2026-08-26T10:05:58Z</time>
      </trkpt>
      <trkpt lat="45.75174" lon="4.62501">
        <ele>628.2</ele>
        <time>2026-08-26T10:05:59Z</time>
      </trkpt>
      <trkpt lat="45.75171" lon="4.62515">
        <ele>627.4</ele>
        <time>2026-08-26T10:06:00Z</time>
      </trkpt>
      <trkpt lat="45.75168" lon="4.6253">
        <ele>626.8</ele>
        <time>2026-08-26T10:06:01Z</time>
      </trkpt>
      <trkpt lat="45.75166" lon="4.62544">
        <ele>626.2</ele>
        <time>2026-08-26T10:06:02Z</time>
      </trkpt>
      <trkpt lat="45.75164" lon="4.62559">
        <ele>625.6</ele>
        <time>2026-08-26T10:06:03Z</time>
      </trkpt>
      <trkpt lat="45.75162" lon="4.62573">
        <ele>625</ele>
        <time>2026-08-26T10:06:04Z</time>
      </trkpt>
      <trkpt lat="45.7516" lon="4.62587">
        <ele>624.4</ele>
        <time>2026-08-26T10:06:05Z</time>
      </trkpt>
      <trkpt lat="45.75157" lon="4.62601">
        <ele>624</ele>
        <time>2026-08-26T10:06:06Z</time>
      </trkpt>
      <trkpt lat="45.75155" lon="4.62615">
        <ele>623.6</ele>
        <time>2026-08-26T10:06:07Z</time>
      </trkpt>
      <trkpt lat="45.75151" lon="4.62629">
        <ele>622.8</ele>
        <time>2026-08-26T10:06:08Z</time>
      </trkpt>
      <trkpt lat="45.75146" lon="4.62641">
        <ele>622.2</ele>
        <time>2026-08-26T10:06:09Z</time>
      </trkpt>
      <trkpt lat="45.7514" lon="4.62653">
        <ele>621.6</ele>
        <time>2026-08-26T10:06:10Z</time>
      </trkpt>
      <trkpt lat="45.75134" lon="4.62664">
        <ele>621.2</ele>
        <time>2026-08-26T10:06:11Z</time>
      </trkpt>
      <trkpt lat="45.75127" lon="4.62674">
        <ele>620.6</ele>
        <time>2026-08-26T10:06:12Z</time>
      </trkpt>
      <trkpt lat="45.7512" lon="4.62684">
        <ele>620</ele>
        <time>2026-08-26T10:06:13Z</time>
      </trkpt>
      <trkpt lat="45.75114" lon="4.62695">
        <ele>619.4</ele>
        <time>2026-08-26T10:06:14Z</time>
      </trkpt>
      <trkpt lat="45.75107" lon="4.62705">
        <ele>618.8</ele>
        <time>2026-08-26T10:06:15Z</time>
      </trkpt>
      <trkpt lat="45.751" lon="4.62715">
        <ele>618.2</ele>
        <time>2026-08-26T10:06:16Z</time>
      </trkpt>
      <trkpt lat="45.75094" lon="4.62725">
        <ele>617.8</ele>
        <time>2026-08-26T10:06:17Z</time>
      </trkpt>
      <trkpt lat="45.75088" lon="4.62735">
        <ele>617.6</ele>
        <time>2026-08-26T10:06:18Z</time>
      </trkpt>
      <trkpt lat="45.75083" lon="4.62746">
        <ele>617.4</ele>
        <time>2026-08-26T10:06:19Z</time>
      </trkpt>
      <trkpt lat="45.75078" lon="4.62758">
        <ele>617</ele>
        <time>2026-08-26T10:06:20Z</time>
      </trkpt>
      <trkpt lat="45.75072" lon="4.62769">
        <ele>616.8</ele>
        <time>2026-08-26T10:06:21Z</time>
      </trkpt>
      <trkpt lat="45.75068" lon="4.62782">
        <ele>616.4</ele>
        <time>2026-08-26T10:06:22Z</time>
      </trkpt>
      <trkpt lat="45.75064" lon="4.62796">
        <ele>616</ele>
        <time>2026-08-26T10:06:23Z</time>
      </trkpt>
      <trkpt lat="45.75062" lon="4.6281">
        <ele>615.4</ele>
        <time>2026-08-26T10:06:24Z</time>
      </trkpt>
      <trkpt lat="45.75061" lon="4.62824">
        <ele>614.6</ele>
        <time>2026-08-26T10:06:25Z</time>
      </trkpt>
      <trkpt lat="45.75059" lon="4.62839">
        <ele>614.2</ele>
        <time>2026-08-26T10:06:26Z</time>
      </trkpt>
      <trkpt lat="45.75058" lon="4.62854">
        <ele>613.4</ele>
        <time>2026-08-26T10:06:27Z</time>
      </trkpt>
      <trkpt lat="45.75057" lon="4.62869">
        <ele>612.6</ele>
        <time>2026-08-26T10:06:28Z</time>
      </trkpt>
      <trkpt lat="45.75056" lon="4.62884">
        <ele>611.6</ele>
        <time>2026-08-26T10:06:29Z</time>
      </trkpt>
      <trkpt lat="45.75054" lon="4.629">
        <ele>611</ele>
        <time>2026-08-26T10:06:30Z</time>
      </trkpt>
      <trkpt lat="45.75052" lon="4.62916">
        <ele>610.6</ele>
        <time>2026-08-26T10:06:31Z</time>
      </trkpt>
      <trkpt lat="45.75049" lon="4.62931">
        <ele>610</ele>
        <time>2026-08-26T10:06:32Z</time>
      </trkpt>
      <trkpt lat="45.75045" lon="4.62947">
        <ele>609.4</ele>
        <time>2026-08-26T10:06:33Z</time>
      </trkpt>
      <trkpt lat="45.75039" lon="4.62961">
        <ele>608.8</ele>
        <time>2026-08-26T10:06:34Z</time>
      </trkpt>
      <trkpt lat="45.75032" lon="4.62974">
        <ele>608</ele>
        <time>2026-08-26T10:06:35Z</time>
      </trkpt>
      <trkpt lat="45.75024" lon="4.62986">
        <ele>607.4</ele>
        <time>2026-08-26T10:06:36Z</time>
      </trkpt>
      <trkpt lat="45.75015" lon="4.62999">
        <ele>606.4</ele>
        <time>2026-08-26T10:06:37Z</time>
      </trkpt>
      <trkpt lat="45.75006" lon="4.63011">
        <ele>605.6</ele>
        <time>2026-08-26T10:06:38Z</time>
      </trkpt>
      <trkpt lat="45.74997" lon="4.63023">
        <ele>604.6</ele>
        <time>2026-08-26T10:06:39Z</time>
      </trkpt>
      <trkpt lat="45.74988" lon="4.63036">
        <ele>603.6</ele>
        <time>2026-08-26T10:06:40Z</time>
      </trkpt>
      <trkpt lat="45.7498" lon="4.63049">
        <ele>602.8</ele>
        <time>2026-08-26T10:06:41Z</time>
      </trkpt>
      <trkpt lat="45.74972" lon="4.63063">
        <ele>602</ele>
        <time>2026-08-26T10:06:42Z</time>
      </trkpt>
      <trkpt lat="45.74965" lon="4.63078">
        <ele>601.2</ele>
        <time>2026-08-26T10:06:43Z</time>
      </trkpt>
      <trkpt lat="45.74958" lon="4.63093">
        <ele>600.4</ele>
        <time>2026-08-26T10:06:44Z</time>
      </trkpt>
      <trkpt lat="45.74952" lon="4.63109">
        <ele>599.6</ele>
        <time>2026-08-26T10:06:45Z</time>
      </trkpt>
      <trkpt lat="45.74947" lon="4.63126">
        <ele>599</ele>
        <time>2026-08-26T10:06:46Z</time>
      </trkpt>
      <trkpt lat="45.74942" lon="4.63143">
        <ele>598.2</ele>
        <time>2026-08-26T10:06:47Z</time>
      </trkpt>
      <trkpt lat="45.74938" lon="4.6316">
        <ele>597.4</ele>
        <time>2026-08-26T10:06:48Z</time>
      </trkpt>
      <trkpt lat="45.74935" lon="4.63178">
        <ele>596.8</ele>
        <time>2026-08-26T10:06:49Z</time>
      </trkpt>
      <trkpt lat="45.74934" lon="4.63196">
        <ele>595.8</ele>
        <time>2026-08-26T10:06:50Z</time>
      </trkpt>
      <trkpt lat="45.74934" lon="4.63214">
        <ele>595.4</ele>
        <time>2026-08-26T10:06:51Z</time>
      </trkpt>
      <trkpt lat="45.74935" lon="4.63232">
        <ele>593.6</ele>
        <time>2026-08-26T10:06:52Z</time>
      </trkpt>
      <trkpt lat="45.74938" lon="4.6325">
        <ele>592.6</ele>
        <time>2026-08-26T10:06:53Z</time>
      </trkpt>
      <trkpt lat="45.74941" lon="4.63268">
        <ele>591.4</ele>
        <time>2026-08-26T10:06:54Z</time>
      </trkpt>
      <trkpt lat="45.74945" lon="4.63286">
        <ele>590.6</ele>
        <time>2026-08-26T10:06:55Z</time>
      </trkpt>
      <trkpt lat="45.74949" lon="4.63303">
        <ele>589.8</ele>
        <time>2026-08-26T10:06:56Z</time>
      </trkpt>
      <trkpt lat="45.74952" lon="4.63321">
        <ele>589.2</ele>
        <time>2026-08-26T10:06:57Z</time>
      </trkpt>
      <trkpt lat="45.74956" lon="4.63338">
        <ele>588.6</ele>
        <time>2026-08-26T10:06:58Z</time>
      </trkpt>
      <trkpt lat="45.7496" lon="4.63356">
        <ele>588</ele>
        <time>2026-08-26T10:06:59Z</time>
      </trkpt>
      <trkpt lat="45.74963" lon="4.63373">
        <ele>587.2</ele>
        <time>2026-08-26T10:07:00Z</time>
      </trkpt>
      <trkpt lat="45.74963" lon="4.63389">
        <ele>586.4</ele>
        <time>2026-08-26T10:07:01Z</time>
      </trkpt>
      <trkpt lat="45.74961" lon="4.63405">
        <ele>585.6</ele>
        <time>2026-08-26T10:07:02Z</time>
      </trkpt>
      <trkpt lat="45.74956" lon="4.63419">
        <ele>585</ele>
        <time>2026-08-26T10:07:03Z</time>
      </trkpt>
      <trkpt lat="45.7495" lon="4.63434">
        <ele>584</ele>
        <time>2026-08-26T10:07:04Z</time>
      </trkpt>
      <trkpt lat="45.74943" lon="4.63443">
        <ele>583.4</ele>
        <time>2026-08-26T10:07:05Z</time>
      </trkpt>
      <trkpt lat="45.74934" lon="4.63451">
        <ele>582.8</ele>
        <time>2026-08-26T10:07:06Z</time>
      </trkpt>
      <trkpt lat="45.7492" lon="4.63453">
        <ele>581.8</ele>
        <time>2026-08-26T10:07:07Z</time>
      </trkpt>
      <trkpt lat="45.74908" lon="4.63455">
        <ele>581.2</ele>
        <time>2026-08-26T10:07:08Z</time>
      </trkpt>
      <trkpt lat="45.74895" lon="4.63459">
        <ele>580.8</ele>
        <time>2026-08-26T10:07:09Z</time>
      </trkpt>
      <trkpt lat="45.74883" lon="4.63463">
        <ele>579.8</ele>
        <time>2026-08-26T10:07:10Z</time>
      </trkpt>
      <trkpt lat="45.74872" lon="4.63468">
        <ele>579</ele>
        <time>2026-08-26T10:07:11Z</time>
      </trkpt>
      <trkpt lat="45.7486" lon="4.63474">
        <ele>578.2</ele>
        <time>2026-08-26T10:07:12Z</time>
      </trkpt>
      <trkpt lat="45.74849" lon="4.63481">
        <ele>577.4</ele>
        <time>2026-08-26T10:07:13Z</time>
      </trkpt>
      <trkpt lat="45.74837" lon="4.63489">
        <ele>576.6</ele>
        <time>2026-08-26T10:07:14Z</time>
      </trkpt>
      <trkpt lat="45.74826" lon="4.63497">
        <ele>575.6</ele>
        <time>2026-08-26T10:07:15Z</time>
      </trkpt>
      <trkpt lat="45.74816" lon="4.63505">
        <ele>575</ele>
        <time>2026-08-26T10:07:16Z</time>
      </trkpt>
      <trkpt lat="45.74806" lon="4.63514">
        <ele>574.2</ele>
        <time>2026-08-26T10:07:17Z</time>
      </trkpt>
      <trkpt lat="45.74794" lon="4.63521">
        <ele>573.4</ele>
        <time>2026-08-26T10:07:18Z</time>
      </trkpt>
      <trkpt lat="45.74782" lon="4.63526">
        <ele>572.6</ele>
        <time>2026-08-26T10:07:19Z</time>
      </trkpt>
      <trkpt lat="45.7477" lon="4.63529">
        <ele>572</ele>
        <time>2026-08-26T10:07:20Z</time>
      </trkpt>
      <trkpt lat="45.74757" lon="4.63528">
        <ele>571.2</ele>
        <time>2026-08-26T10:07:21Z</time>
      </trkpt>
      <trkpt lat="45.74744" lon="4.63526">
        <ele>570.2</ele>
        <time>2026-08-26T10:07:22Z</time>
      </trkpt>
      <trkpt lat="45.74732" lon="4.63523">
        <ele>569.2</ele>
        <time>2026-08-26T10:07:23Z</time>
      </trkpt>
      <trkpt lat="45.7472" lon="4.63521">
        <ele>568.2</ele>
        <time>2026-08-26T10:07:24Z</time>
      </trkpt>
      <trkpt lat="45.74707" lon="4.63519">
        <ele>567.4</ele>
        <time>2026-08-26T10:07:25Z</time>
      </trkpt>
      <trkpt lat="45.74695" lon="4.63517">
        <ele>566.4</ele>
        <time>2026-08-26T10:07:26Z</time>
      </trkpt>
      <trkpt lat="45.74683" lon="4.63519">
        <ele>565.8</ele>
        <time>2026-08-26T10:07:27Z</time>
      </trkpt>
      <trkpt lat="45.74671" lon="4.63524">
        <ele>565</ele>
        <time>2026-08-26T10:07:28Z</time>
      </trkpt>
      <trkpt lat="45.7466" lon="4.63531">
        <ele>564.4</ele>
        <time>2026-08-26T10:07:29Z</time>
      </trkpt>
      <trkpt lat="45.74651" lon="4.63541">
        <ele>563.8</ele>
        <time>2026-08-26T10:07:30Z</time>
      </trkpt>
      <trkpt lat="45.74642" lon="4.63553">
        <ele>563</ele>
        <time>2026-08-26T10:07:31Z</time>
      </trkpt>
      <trkpt lat="45.74636" lon="4.63568">
        <ele>562.4</ele>
        <time>2026-08-26T10:07:32Z</time>
      </trkpt>
      <trkpt lat="45.74633" lon="4.63585">
        <ele>561.6</ele>
        <time>2026-08-26T10:07:33Z</time>
      </trkpt>
      <trkpt lat="45.74632" lon="4.63602">
        <ele>561</ele>
        <time>2026-08-26T10:07:34Z</time>
      </trkpt>
      <trkpt lat="45.74632" lon="4.6362">
        <ele>560</ele>
        <time>2026-08-26T10:07:35Z</time>
      </trkpt>
      <trkpt lat="45.74631" lon="4.63637">
        <ele>559.4</ele>
        <time>2026-08-26T10:07:36Z</time>
      </trkpt>
      <trkpt lat="45.74627" lon="4.63653">
        <ele>558.6</ele>
        <time>2026-08-26T10:07:37Z</time>
      </trkpt>
      <trkpt lat="45.74623" lon="4.63669">
        <ele>557.8</ele>
        <time>2026-08-26T10:07:38Z</time>
      </trkpt>
      <trkpt lat="45.74615" lon="4.63679">
        <ele>557</ele>
        <time>2026-08-26T10:07:39Z</time>
      </trkpt>
      <trkpt lat="45.74605" lon="4.63686">
        <ele>556.4</ele>
        <time>2026-08-26T10:07:40Z</time>
      </trkpt>
      <trkpt lat="45.74594" lon="4.63689">
        <ele>555.4</ele>
        <time>2026-08-26T10:07:41Z</time>
      </trkpt>
      <trkpt lat="45.74582" lon="4.63689">
        <ele>554.2</ele>
        <time>2026-08-26T10:07:42Z</time>
      </trkpt>
      <trkpt lat="45.7457" lon="4.63691">
        <ele>553.4</ele>
        <time>2026-08-26T10:07:43Z</time>
      </trkpt>
      <trkpt lat="45.74558" lon="4.63694">
        <ele>552.2</ele>
        <time>2026-08-26T10:07:44Z</time>
      </trkpt>
      <trkpt lat="45.74546" lon="4.63697">
        <ele>551</ele>
        <time>2026-08-26T10:07:45Z</time>
      </trkpt>
      <trkpt lat="45.74535" lon="4.63702">
        <ele>550</ele>
        <time>2026-08-26T10:07:46Z</time>
      </trkpt>
      <trkpt lat="45.74523" lon="4.63707">
        <ele>549.4</ele>
        <time>2026-08-26T10:07:47Z</time>
      </trkpt>
      <trkpt lat="45.74512" lon="4.63712">
        <ele>549</ele>
        <time>2026-08-26T10:07:48Z</time>
      </trkpt>
      <trkpt lat="45.74501" lon="4.63718">
        <ele>548.4</ele>
        <time>2026-08-26T10:07:49Z</time>
      </trkpt>
      <trkpt lat="45.74489" lon="4.63723">
        <ele>547.8</ele>
        <time>2026-08-26T10:07:50Z</time>
      </trkpt>
      <trkpt lat="45.74478" lon="4.63727">
        <ele>547.2</ele>
        <time>2026-08-26T10:07:51Z</time>
      </trkpt>
      <trkpt lat="45.74466" lon="4.6373">
        <ele>546.4</ele>
        <time>2026-08-26T10:07:52Z</time>
      </trkpt>
      <trkpt lat="45.74455" lon="4.63731">
        <ele>545.6</ele>
        <time>2026-08-26T10:07:53Z</time>
      </trkpt>
      <trkpt lat="45.74443" lon="4.63731">
        <ele>544.8</ele>
        <time>2026-08-26T10:07:54Z</time>
      </trkpt>
      <trkpt lat="45.74431" lon="4.63731">
        <ele>544.4</ele>
        <time>2026-08-26T10:07:55Z</time>
      </trkpt>
      <trkpt lat="45.74419" lon="4.63731">
        <ele>543.8</ele>
        <time>2026-08-26T10:07:56Z</time>
      </trkpt>
      <trkpt lat="45.74408" lon="4.6373">
        <ele>543.2</ele>
        <time>2026-08-26T10:07:57Z</time>
      </trkpt>
      <trkpt lat="45.74397" lon="4.63729">
        <ele>542.8</ele>
        <time>2026-08-26T10:07:58Z</time>
      </trkpt>
      <trkpt lat="45.74385" lon="4.6373">
        <ele>542.2</ele>
        <time>2026-08-26T10:07:59Z</time>
      </trkpt>
      <trkpt lat="45.74374" lon="4.63731">
        <ele>541.4</ele>
        <time>2026-08-26T10:08:00Z</time>
      </trkpt>
      <trkpt lat="45.74363" lon="4.63735">
        <ele>540.8</ele>
        <time>2026-08-26T10:08:01Z</time>
      </trkpt>
      <trkpt lat="45.74353" lon="4.6374">
        <ele>540</ele>
        <time>2026-08-26T10:08:02Z</time>
      </trkpt>
      <trkpt lat="45.74343" lon="4.63747">
        <ele>539.4</ele>
        <time>2026-08-26T10:08:03Z</time>
      </trkpt>
      <trkpt lat="45.74333" lon="4.63755">
        <ele>538.8</ele>
        <time>2026-08-26T10:08:04Z</time>
      </trkpt>
      <trkpt lat="45.74324" lon="4.63763">
        <ele>538.2</ele>
        <time>2026-08-26T10:08:05Z</time>
      </trkpt>
      <trkpt lat="45.74315" lon="4.63773">
        <ele>537.6</ele>
        <time>2026-08-26T10:08:06Z</time>
      </trkpt>
      <trkpt lat="45.74307" lon="4.63785">
        <ele>536.8</ele>
        <time>2026-08-26T10:08:07Z</time>
      </trkpt>
      <trkpt lat="45.743" lon="4.63799">
        <ele>536.2</ele>
        <time>2026-08-26T10:08:08Z</time>
      </trkpt>
      <trkpt lat="45.74295" lon="4.63814">
        <ele>535.2</ele>
        <time>2026-08-26T10:08:09Z</time>
      </trkpt>
      <trkpt lat="45.74292" lon="4.6383">
        <ele>534.6</ele>
        <time>2026-08-26T10:08:10Z</time>
      </trkpt>
      <trkpt lat="45.7429" lon="4.63847">
        <ele>533.4</ele>
        <time>2026-08-26T10:08:11Z</time>
      </trkpt>
      <trkpt lat="45.74288" lon="4.63863">
        <ele>532.6</ele>
        <time>2026-08-26T10:08:12Z</time>
      </trkpt>
      <trkpt lat="45.74286" lon="4.6388">
        <ele>531.8</ele>
        <time>2026-08-26T10:08:13Z</time>
      </trkpt>
      <trkpt lat="45.74284" lon="4.63897">
        <ele>531.2</ele>
        <time>2026-08-26T10:08:14Z</time>
      </trkpt>
      <trkpt lat="45.74282" lon="4.63913">
        <ele>530.6</ele>
        <time>2026-08-26T10:08:15Z</time>
      </trkpt>
      <trkpt lat="45.74281" lon="4.6393">
        <ele>530.2</ele>
        <time>2026-08-26T10:08:16Z</time>
      </trkpt>
      <trkpt lat="45.74281" lon="4.63947">
        <ele>529.6</ele>
        <time>2026-08-26T10:08:17Z</time>
      </trkpt>
      <trkpt lat="45.74283" lon="4.63963">
        <ele>529</ele>
        <time>2026-08-26T10:08:18Z</time>
      </trkpt>
      <trkpt lat="45.74286" lon="4.6398">
        <ele>528.6</ele>
        <time>2026-08-26T10:08:19Z</time>
      </trkpt>
      <trkpt lat="45.7429" lon="4.63996">
        <ele>528</ele>
        <time>2026-08-26T10:08:20Z</time>
      </trkpt>
      <trkpt lat="45.74294" lon="4.64012">
        <ele>527</ele>
        <time>2026-08-26T10:08:21Z</time>
      </trkpt>
      <trkpt lat="45.74299" lon="4.64028">
        <ele>526</ele>
        <time>2026-08-26T10:08:22Z</time>
      </trkpt>
      <trkpt lat="45.74304" lon="4.64043">
        <ele>525.4</ele>
        <time>2026-08-26T10:08:23Z</time>
      </trkpt>
      <trkpt lat="45.74309" lon="4.64059">
        <ele>524.4</ele>
        <time>2026-08-26T10:08:24Z</time>
      </trkpt>
      <trkpt lat="45.74315" lon="4.64075">
        <ele>523.6</ele>
        <time>2026-08-26T10:08:25Z</time>
      </trkpt>
      <trkpt lat="45.7432" lon="4.64091">
        <ele>522.8</ele>
        <time>2026-08-26T10:08:26Z</time>
      </trkpt>
      <trkpt lat="45.74326" lon="4.64106">
        <ele>522</ele>
        <time>2026-08-26T10:08:27Z</time>
      </trkpt>
      <trkpt lat="45.74331" lon="4.64121">
        <ele>521.2</ele>
        <time>2026-08-26T10:08:28Z</time>
      </trkpt>
      <trkpt lat="45.74336" lon="4.64137">
        <ele>520.6</ele>
        <time>2026-08-26T10:08:29Z</time>
      </trkpt>
      <trkpt lat="45.74339" lon="4.64155">
        <ele>519.8</ele>
        <time>2026-08-26T10:08:30Z</time>
      </trkpt>
      <trkpt lat="45.74339" lon="4.64172">
        <ele>519</ele>
        <time>2026-08-26T10:08:31Z</time>
      </trkpt>
      <trkpt lat="45.74336" lon="4.64189">
        <ele>518</ele>
        <time>2026-08-26T10:08:32Z</time>
      </trkpt>
      <trkpt lat="45.7433" lon="4.64204">
        <ele>517.2</ele>
        <time>2026-08-26T10:08:33Z</time>
      </trkpt>
      <trkpt lat="45.74321" lon="4.64217">
        <ele>516.2</ele>
        <time>2026-08-26T10:08:34Z</time>
      </trkpt>
      <trkpt lat="45.7431" lon="4.64227">
        <ele>515.4</ele>
        <time>2026-08-26T10:08:35Z</time>
      </trkpt>
      <trkpt lat="45.74299" lon="4.64235">
        <ele>514.8</ele>
        <time>2026-08-26T10:08:36Z</time>
      </trkpt>
      <trkpt lat="45.74288" lon="4.64242">
        <ele>514</ele>
        <time>2026-08-26T10:08:37Z</time>
      </trkpt>
      <trkpt lat="45.74276" lon="4.64248">
        <ele>513</ele>
        <time>2026-08-26T10:08:38Z</time>
      </trkpt>
      <trkpt lat="45.74265" lon="4.64255">
        <ele>512</ele>
        <time>2026-08-26T10:08:39Z</time>
      </trkpt>
      <trkpt lat="45.74254" lon="4.64265">
        <ele>510.8</ele>
        <time>2026-08-26T10:08:40Z</time>
      </trkpt>
      <trkpt lat="45.74245" lon="4.64276">
        <ele>509.8</ele>
        <time>2026-08-26T10:08:41Z</time>
      </trkpt>
      <trkpt lat="45.74238" lon="4.64289">
        <ele>508.8</ele>
        <time>2026-08-26T10:08:42Z</time>
      </trkpt>
      <trkpt lat="45.74232" lon="4.64304">
        <ele>508</ele>
        <time>2026-08-26T10:08:43Z</time>
      </trkpt>
      <trkpt lat="45.74226" lon="4.64319">
        <ele>507.6</ele>
        <time>2026-08-26T10:08:44Z</time>
      </trkpt>
      <trkpt lat="45.74222" lon="4.64335">
        <ele>507</ele>
        <time>2026-08-26T10:08:45Z</time>
      </trkpt>
      <trkpt lat="45.74217" lon="4.64352">
        <ele>506.2</ele>
        <time>2026-08-26T10:08:46Z</time>
      </trkpt>
      <trkpt lat="45.74213" lon="4.64368">
        <ele>505.6</ele>
        <time>2026-08-26T10:08:47Z</time>
      </trkpt>
      <trkpt lat="45.74209" lon="4.64384">
        <ele>504.8</ele>
        <time>2026-08-26T10:08:48Z</time>
      </trkpt>
      <trkpt lat="45.74206" lon="4.64401">
        <ele>504.2</ele>
        <time>2026-08-26T10:08:49Z</time>
      </trkpt>
      <trkpt lat="45.74204" lon="4.64418">
        <ele>503.4</ele>
        <time>2026-08-26T10:08:50Z</time>
      </trkpt>
      <trkpt lat="45.74203" lon="4.64434">
        <ele>502.6</ele>
        <time>2026-08-26T10:08:51Z</time>
      </trkpt>
      <trkpt lat="45.74205" lon="4.64451">
        <ele>502</ele>
        <time>2026-08-26T10:08:52Z</time>
      </trkpt>
      <trkpt lat="45.7421" lon="4.64467">
        <ele>501.2</ele>
        <time>2026-08-26T10:08:53Z</time>
      </trkpt>
      <trkpt lat="45.74216" lon="4.64481">
        <ele>500.6</ele>
        <time>2026-08-26T10:08:54Z</time>
      </trkpt>
      <trkpt lat="45.74225" lon="4.64494">
        <ele>499.8</ele>
        <time>2026-08-26T10:08:55Z</time>
      </trkpt>
      <trkpt lat="45.74234" lon="4.64505">
        <ele>499</ele>
        <time>2026-08-26T10:08:56Z</time>
      </trkpt>
      <trkpt lat="45.74243" lon="4.64516">
        <ele>498.2</ele>
        <time>2026-08-26T10:08:57Z</time>
      </trkpt>
      <trkpt lat="45.74251" lon="4.64527">
        <ele>497.6</ele>
        <time>2026-08-26T10:08:58Z</time>
      </trkpt>
      <trkpt lat="45.74258" lon="4.64539">
        <ele>497</ele>
        <time>2026-08-26T10:08:59Z</time>
      </trkpt>
      <trkpt lat="45.74261" lon="4.64553">
        <ele>496.4</ele>
        <time>2026-08-26T10:09:00Z</time>
      </trkpt>
      <trkpt lat="45.7426" lon="4.64566">
        <ele>495.8</ele>
        <time>2026-08-26T10:09:01Z</time>
      </trkpt>
      <trkpt lat="45.74255" lon="4.64578">
        <ele>495</ele>
        <time>2026-08-26T10:09:02Z</time>
      </trkpt>
      <trkpt lat="45.74245" lon="4.64587">
        <ele>494.4</ele>
        <time>2026-08-26T10:09:03Z</time>
      </trkpt>
      <trkpt lat="45.74234" lon="4.6459">
        <ele>493.4</ele>
        <time>2026-08-26T10:09:04Z</time>
      </trkpt>
      <trkpt lat="45.74223" lon="4.64595">
        <ele>492.6</ele>
        <time>2026-08-26T10:09:05Z</time>
      </trkpt>
      <trkpt lat="45.74213" lon="4.64599">
        <ele>491.8</ele>
        <time>2026-08-26T10:09:06Z</time>
      </trkpt>
      <trkpt lat="45.74202" lon="4.64604">
        <ele>490.8</ele>
        <time>2026-08-26T10:09:07Z</time>
      </trkpt>
      <trkpt lat="45.74191" lon="4.64609">
        <ele>489.6</ele>
        <time>2026-08-26T10:09:08Z</time>
      </trkpt>
      <trkpt lat="45.74181" lon="4.64614">
        <ele>488.6</ele>
        <time>2026-08-26T10:09:09Z</time>
      </trkpt>
      <trkpt lat="45.7417" lon="4.6462">
        <ele>487.4</ele>
        <time>2026-08-26T10:09:10Z</time>
      </trkpt>
      <trkpt lat="45.74159" lon="4.64625">
        <ele>486.6</ele>
        <time>2026-08-26T10:09:11Z</time>
      </trkpt>
      <trkpt lat="45.74148" lon="4.64631">
        <ele>485.6</ele>
        <time>2026-08-26T10:09:12Z</time>
      </trkpt>
      <trkpt lat="45.74138" lon="4.64637">
        <ele>485</ele>
        <time>2026-08-26T10:09:13Z</time>
      </trkpt>
      <trkpt lat="45.74129" lon="4.64644">
        <ele>484.2</ele>
        <time>2026-08-26T10:09:14Z</time>
      </trkpt>
      <trkpt lat="45.7412" lon="4.64652">
        <ele>483.8</ele>
        <time>2026-08-26T10:09:15Z</time>
      </trkpt>
      <trkpt lat="45.74112" lon="4.64662">
        <ele>483</ele>
        <time>2026-08-26T10:09:16Z</time>
      </trkpt>
      <trkpt lat="45.74107" lon="4.64674">
        <ele>482.8</ele>
        <time>2026-08-26T10:09:17Z</time>
      </trkpt>
      <trkpt lat="45.74104" lon="4.64688">
        <ele>482.2</ele>
        <time>2026-08-26T10:09:18Z</time>
      </trkpt>
      <trkpt lat="45.74102" lon="4.64703">
        <ele>481.8</ele>
        <time>2026-08-26T10:09:19Z</time>
      </trkpt>
      <trkpt lat="45.741" lon="4.64718">
        <ele>481.2</ele>
        <time>2026-08-26T10:09:20Z</time>
      </trkpt>
      <trkpt lat="45.74099" lon="4.64734">
        <ele>480.8</ele>
        <time>2026-08-26T10:09:21Z</time>
      </trkpt>
      <trkpt lat="45.74097" lon="4.64749">
        <ele>480.2</ele>
        <time>2026-08-26T10:09:22Z</time>
      </trkpt>
      <trkpt lat="45.74095" lon="4.64765">
        <ele>479.8</ele>
        <time>2026-08-26T10:09:23Z</time>
      </trkpt>
      <trkpt lat="45.74093" lon="4.64781">
        <ele>479</ele>
        <time>2026-08-26T10:09:24Z</time>
      </trkpt>
      <trkpt lat="45.74091" lon="4.64797">
        <ele>478.2</ele>
        <time>2026-08-26T10:09:25Z</time>
      </trkpt>
      <trkpt lat="45.74089" lon="4.64812">
        <ele>477.4</ele>
        <time>2026-08-26T10:09:26Z</time>
      </trkpt>
      <trkpt lat="45.74087" lon="4.64828">
        <ele>476.6</ele>
        <time>2026-08-26T10:09:27Z</time>
      </trkpt>
      <trkpt lat="45.74083" lon="4.64844">
        <ele>475.8</ele>
        <time>2026-08-26T10:09:28Z</time>
      </trkpt>
      <trkpt lat="45.7408" lon="4.6486">
        <ele>475.2</ele>
        <time>2026-08-26T10:09:29Z</time>
      </trkpt>
      <trkpt lat="45.74077" lon="4.64873">
        <ele>474.4</ele>
        <time>2026-08-26T10:09:30Z</time>
      </trkpt>
      <trkpt lat="45.74074" lon="4.64892">
        <ele>473.6</ele>
        <time>2026-08-26T10:09:31Z</time>
      </trkpt>
      <trkpt lat="45.74074" lon="4.64908">
        <ele>472.8</ele>
        <time>2026-08-26T10:09:32Z</time>
      </trkpt>
      <trkpt lat="45.74075" lon="4.64924">
        <ele>472</ele>
        <time>2026-08-26T10:09:33Z</time>
      </trkpt>
      <trkpt lat="45.74078" lon="4.6494">
        <ele>471</ele>
        <time>2026-08-26T10:09:34Z</time>
      </trkpt>
      <trkpt lat="45.74083" lon="4.64955">
        <ele>470.2</ele>
        <time>2026-08-26T10:09:35Z</time>
      </trkpt>
      <trkpt lat="45.74089" lon="4.64969">
        <ele>469.4</ele>
        <time>2026-08-26T10:09:36Z</time>
      </trkpt>
      <trkpt lat="45.74096" lon="4.64982">
        <ele>468.8</ele>
        <time>2026-08-26T10:09:37Z</time>
      </trkpt>
      <trkpt lat="45.74104" lon="4.64995">
        <ele>468.2</ele>
        <time>2026-08-26T10:09:38Z</time>
      </trkpt>
      <trkpt lat="45.74113" lon="4.65006">
        <ele>467.6</ele>
        <time>2026-08-26T10:09:39Z</time>
      </trkpt>
      <trkpt lat="45.74123" lon="4.65017">
        <ele>467</ele>
        <time>2026-08-26T10:09:40Z</time>
      </trkpt>
      <trkpt lat="45.74133" lon="4.65026">
        <ele>466.4</ele>
        <time>2026-08-26T10:09:41Z</time>
      </trkpt>
      <trkpt lat="45.74144" lon="4.65033">
        <ele>465.8</ele>
        <time>2026-08-26T10:09:42Z</time>
      </trkpt>
      <trkpt lat="45.74156" lon="4.65038">
        <ele>465</ele>
        <time>2026-08-26T10:09:43Z</time>
      </trkpt>
      <trkpt lat="45.74168" lon="4.65041">
        <ele>464.4</ele>
        <time>2026-08-26T10:09:44Z</time>
      </trkpt>
      <trkpt lat="45.7418" lon="4.65043">
        <ele>463.6</ele>
        <time>2026-08-26T10:09:45Z</time>
      </trkpt>
      <trkpt lat="45.74192" lon="4.65048">
        <ele>462.8</ele>
        <time>2026-08-26T10:09:46Z</time>
      </trkpt>
      <trkpt lat="45.74204" lon="4.65056">
        <ele>461.8</ele>
        <time>2026-08-26T10:09:47Z</time>
      </trkpt>
      <trkpt lat="45.74213" lon="4.65067">
        <ele>460.6</ele>
        <time>2026-08-26T10:09:48Z</time>
      </trkpt>
      <trkpt lat="45.74223" lon="4.6508">
        <ele>459.6</ele>
        <time>2026-08-26T10:09:49Z</time>
      </trkpt>
      <trkpt lat="45.74232" lon="4.65092">
        <ele>458.6</ele>
        <time>2026-08-26T10:09:50Z</time>
      </trkpt>
      <trkpt lat="45.74241" lon="4.65104">
        <ele>457.6</ele>
        <time>2026-08-26T10:09:51Z</time>
      </trkpt>
      <trkpt lat="45.7425" lon="4.65116">
        <ele>457</ele>
        <time>2026-08-26T10:09:52Z</time>
      </trkpt>
      <trkpt lat="45.74257" lon="4.6513">
        <ele>456</ele>
        <time>2026-08-26T10:09:53Z</time>
      </trkpt>
      <trkpt lat="45.74261" lon="4.65144">
        <ele>455.2</ele>
        <time>2026-08-26T10:09:54Z</time>
      </trkpt>
      <trkpt lat="45.74262" lon="4.6516">
        <ele>454.2</ele>
        <time>2026-08-26T10:09:55Z</time>
      </trkpt>
      <trkpt lat="45.74262" lon="4.65175">
        <ele>453.6</ele>
        <time>2026-08-26T10:09:56Z</time>
      </trkpt>
      <trkpt lat="45.74255" lon="4.6519">
        <ele>452.8</ele>
        <time>2026-08-26T10:09:57Z</time>
      </trkpt>
      <trkpt lat="45.74247" lon="4.65202">
        <ele>452.2</ele>
        <time>2026-08-26T10:09:58Z</time>
      </trkpt>
      <trkpt lat="45.74237" lon="4.65212">
        <ele>451.4</ele>
        <time>2026-08-26T10:09:59Z</time>
      </trkpt>
      <trkpt lat="45.74227" lon="4.6522">
        <ele>450.8</ele>
        <time>2026-08-26T10:10:00Z</time>
      </trkpt>
      <trkpt lat="45.74217" lon="4.65229">
        <ele>450</ele>
        <time>2026-08-26T10:10:01Z</time>
      </trkpt>
      <trkpt lat="45.74207" lon="4.65237">
        <ele>449.2</ele>
        <time>2026-08-26T10:10:02Z</time>
      </trkpt>
      <trkpt lat="45.74196" lon="4.65246">
        <ele>448.4</ele>
        <time>2026-08-26T10:10:03Z</time>
      </trkpt>
      <trkpt lat="45.74186" lon="4.65254">
        <ele>447.6</ele>
        <time>2026-08-26T10:10:04Z</time>
      </trkpt>
      <trkpt lat="45.74175" lon="4.65263">
        <ele>446.8</ele>
        <time>2026-08-26T10:10:05Z</time>
      </trkpt>
      <trkpt lat="45.74165" lon="4.65272">
        <ele>446</ele>
        <time>2026-08-26T10:10:06Z</time>
      </trkpt>
      <trkpt lat="45.74154" lon="4.65281">
        <ele>445.2</ele>
        <time>2026-08-26T10:10:07Z</time>
      </trkpt>
      <trkpt lat="45.74144" lon="4.65291">
        <ele>444.4</ele>
        <time>2026-08-26T10:10:08Z</time>
      </trkpt>
      <trkpt lat="45.74133" lon="4.653">
        <ele>443.6</ele>
        <time>2026-08-26T10:10:09Z</time>
      </trkpt>
      <trkpt lat="45.74122" lon="4.65309">
        <ele>442.6</ele>
        <time>2026-08-26T10:10:10Z</time>
      </trkpt>
      <trkpt lat="45.7411" lon="4.65317">
        <ele>441.8</ele>
        <time>2026-08-26T10:10:11Z</time>
      </trkpt>
      <trkpt lat="45.74099" lon="4.65323">
        <ele>441</ele>
        <time>2026-08-26T10:10:12Z</time>
      </trkpt>
      <trkpt lat="45.74086" lon="4.65327">
        <ele>440</ele>
        <time>2026-08-26T10:10:13Z</time>
      </trkpt>
      <trkpt lat="45.74074" lon="4.65331">
        <ele>439</ele>
        <time>2026-08-26T10:10:14Z</time>
      </trkpt>
      <trkpt lat="45.74062" lon="4.65334">
        <ele>438</ele>
        <time>2026-08-26T10:10:15Z</time>
      </trkpt>
      <trkpt lat="45.7405" lon="4.65336">
        <ele>437</ele>
        <time>2026-08-26T10:10:16Z</time>
      </trkpt>
      <trkpt lat="45.74037" lon="4.65337">
        <ele>435.8</ele>
        <time>2026-08-26T10:10:17Z</time>
      </trkpt>
      <trkpt lat="45.74024" lon="4.65338">
        <ele>435</ele>
        <time>2026-08-26T10:10:18Z</time>
      </trkpt>
      <trkpt lat="45.74012" lon="4.65339">
        <ele>434.2</ele>
        <time>2026-08-26T10:10:19Z</time>
      </trkpt>
      <trkpt lat="45.74" lon="4.6534">
        <ele>433.4</ele>
        <time>2026-08-26T10:10:20Z</time>
      </trkpt>
      <trkpt lat="45.73987" lon="4.6534">
        <ele>432.6</ele>
        <time>2026-08-26T10:10:21Z</time>
      </trkpt>
      <trkpt lat="45.73975" lon="4.65341">
        <ele>432</ele>
        <time>2026-08-26T10:10:22Z</time>
      </trkpt>
      <trkpt lat="45.73963" lon="4.65342">
        <ele>431.4</ele>
        <time>2026-08-26T10:10:23Z</time>
      </trkpt>
      <trkpt lat="45.73952" lon="4.65344">
        <ele>430.8</ele>
        <time>2026-08-26T10:10:24Z</time>
      </trkpt>
      <trkpt lat="45.7394" lon="4.65345">
        <ele>430.2</ele>
        <time>2026-08-26T10:10:25Z</time>
      </trkpt>
      <trkpt lat="45.73928" lon="4.65347">
        <ele>429.6</ele>
        <time>2026-08-26T10:10:26Z</time>
      </trkpt>
      <trkpt lat="45.73917" lon="4.6535">
        <ele>429.2</ele>
        <time>2026-08-26T10:10:27Z</time>
      </trkpt>
      <trkpt lat="45.73905" lon="4.65352">
        <ele>428.4</ele>
        <time>2026-08-26T10:10:28Z</time>
      </trkpt>
      <trkpt lat="45.73894" lon="4.65355">
        <ele>428.2</ele>
        <time>2026-08-26T10:10:29Z</time>
      </trkpt>
      <trkpt lat="45.73882" lon="4.65358">
        <ele>427.2</ele>
        <time>2026-08-26T10:10:30Z</time>
      </trkpt>
      <trkpt lat="45.73871" lon="4.65362">
        <ele>426.4</ele>
        <time>2026-08-26T10:10:31Z</time>
      </trkpt>
      <trkpt lat="45.7386" lon="4.65367">
        <ele>425.8</ele>
        <time>2026-08-26T10:10:32Z</time>
      </trkpt>
      <trkpt lat="45.7385" lon="4.65376">
        <ele>425.4</ele>
        <time>2026-08-26T10:10:33Z</time>
      </trkpt>
      <trkpt lat="45.73843" lon="4.65386">
        <ele>425.2</ele>
        <time>2026-08-26T10:10:34Z</time>
      </trkpt>
      <trkpt lat="45.73837" lon="4.65399">
        <ele>424.8</ele>
        <time>2026-08-26T10:10:35Z</time>
      </trkpt>
      <trkpt lat="45.73832" lon="4.65412">
        <ele>424.4</ele>
        <time>2026-08-26T10:10:36Z</time>
      </trkpt>
      <trkpt lat="45.73828" lon="4.65426">
        <ele>424.2</ele>
        <time>2026-08-26T10:10:37Z</time>
      </trkpt>
      <trkpt lat="45.73826" lon="4.6544">
        <ele>424</ele>
        <time>2026-08-26T10:10:38Z</time>
      </trkpt>
      <trkpt lat="45.73824" lon="4.65453">
        <ele>424</ele>
        <time>2026-08-26T10:10:39Z</time>
      </trkpt>
      <trkpt lat="45.73823" lon="4.65466">
        <ele>424</ele>
        <time>2026-08-26T10:10:40Z</time>
      </trkpt>
      <trkpt lat="45.73822" lon="4.65478">
        <ele>424.2</ele>
        <time>2026-08-26T10:10:41Z</time>
      </trkpt>
      <trkpt lat="45.73823" lon="4.6549">
        <ele>424.2</ele>
        <time>2026-08-26T10:10:42Z</time>
      </trkpt>
      <trkpt lat="45.73824" lon="4.65502">
        <ele>424.2</ele>
        <time>2026-08-26T10:10:43Z</time>
      </trkpt>
      <trkpt lat="45.73825" lon="4.65513">
        <ele>424.4</ele>
        <time>2026-08-26T10:10:44Z</time>
      </trkpt>
      <trkpt lat="45.73827" lon="4.65524">
        <ele>424.4</ele>
        <time>2026-08-26T10:10:45Z</time>
      </trkpt>
      <trkpt lat="45.73829" lon="4.65535">
        <ele>424.2</ele>
        <time>2026-08-26T10:10:46Z</time>
      </trkpt>
      <trkpt lat="45.73829" lon="4.65546">
        <ele>424.4</ele>
        <time>2026-08-26T10:10:47Z</time>
      </trkpt>
      <trkpt lat="45.7383" lon="4.65557">
        <ele>424.4</ele>
        <time>2026-08-26T10:10:48Z</time>
      </trkpt>
      <trkpt lat="45.73829" lon="4.65567">
        <ele>424.4</ele>
        <time>2026-08-26T10:10:49Z</time>
      </trkpt>
      <trkpt lat="45.73828" lon="4.65578">
        <ele>424.4</ele>
        <time>2026-08-26T10:10:50Z</time>
      </trkpt>
      <trkpt lat="45.73826" lon="4.65588">
        <ele>424.6</ele>
        <time>2026-08-26T10:10:51Z</time>
      </trkpt>
      <trkpt lat="45.73823" lon="4.65597">
        <ele>424.6</ele>
        <time>2026-08-26T10:10:52Z</time>
      </trkpt>
      <trkpt lat="45.73821" lon="4.65606">
        <ele>424.6</ele>
        <time>2026-08-26T10:10:53Z</time>
      </trkpt>
      <trkpt lat="45.73817" lon="4.65615">
        <ele>424.6</ele>
        <time>2026-08-26T10:10:54Z</time>
      </trkpt>
      <trkpt lat="45.73814" lon="4.65623">
        <ele>424.8</ele>
        <time>2026-08-26T10:10:55Z</time>
      </trkpt>
      <trkpt lat="45.73811" lon="4.65631">
        <ele>425</ele>
        <time>2026-08-26T10:10:56Z</time>
      </trkpt>
      <trkpt lat="45.73808" lon="4.65638">
        <ele>425.2</ele>
        <time>2026-08-26T10:10:57Z</time>
      </trkpt>
      <trkpt lat="45.73805" lon="4.65645">
        <ele>425.6</ele>
        <time>2026-08-26T10:10:58Z</time>
      </trkpt>
      <trkpt lat="45.73803" lon="4.65653">
        <ele>425.8</ele>
        <time>2026-08-26T10:10:59Z</time>
      </trkpt>
      <trkpt lat="45.73801" lon="4.65659">
        <ele>426.2</ele>
        <time>2026-08-26T10:11:00Z</time>
      </trkpt>
      <trkpt lat="45.738" lon="4.65666">
        <ele>426.6</ele>
        <time>2026-08-26T10:11:01Z</time>
      </trkpt>
      <trkpt lat="45.738" lon="4.65671">
        <ele>427</ele>
        <time>2026-08-26T10:11:02Z</time>
      </trkpt>
      <trkpt lat="45.73799" lon="4.65675">
        <ele>427.4</ele>
        <time>2026-08-26T10:11:03Z</time>
      </trkpt>
      <trkpt lat="45.73799" lon="4.65679">
        <ele>427.8</ele>
        <time>2026-08-26T10:11:04Z</time>
      </trkpt>
      <trkpt lat="45.73799" lon="4.6568">
        <ele>428.2</ele>
        <time>2026-08-26T10:11:05Z</time>
      </trkpt>
      <trkpt lat="45.73799" lon="4.6568">
        <ele>428.4</ele>
        <time>2026-08-26T10:11:06Z</time>
      </trkpt>
      <trkpt lat="45.73799" lon="4.6568">
        <ele>428.6</ele>
        <time>2026-08-26T10:11:07Z</time>
      </trkpt>
      <trkpt lat="45.73802" lon="4.65685">
        <ele>428.4</ele>
        <time>2026-08-26T10:11:20Z</time>
      </trkpt>
      <trkpt lat="45.73802" lon="4.65688">
        <ele>428.4</ele>
        <time>2026-08-26T10:11:21Z</time>
      </trkpt>
      <trkpt lat="45.73803" lon="4.65691">
        <ele>428.2</ele>
        <time>2026-08-26T10:11:22Z</time>
      </trkpt>
      <trkpt lat="45.73803" lon="4.65694">
        <ele>428.2</ele>
        <time>2026-08-26T10:11:23Z</time>
      </trkpt>
      <trkpt lat="45.73803" lon="4.65697">
        <ele>428.2</ele>
        <time>2026-08-26T10:11:24Z</time>
      </trkpt>
      <trkpt lat="45.73803" lon="4.657">
        <ele>428.2</ele>
        <time>2026-08-26T10:11:25Z</time>
      </trkpt>
      <trkpt lat="45.73803" lon="4.65703">
        <ele>428</ele>
        <time>2026-08-26T10:11:26Z</time>
      </trkpt>
      <trkpt lat="45.73803" lon="4.65707">
        <ele>428</ele>
        <time>2026-08-26T10:11:27Z</time>
      </trkpt>
      <trkpt lat="45.73803" lon="4.65711">
        <ele>428</ele>
        <time>2026-08-26T10:11:28Z</time>
      </trkpt>
      <trkpt lat="45.73802" lon="4.65715">
        <ele>427.8</ele>
        <time>2026-08-26T10:11:29Z</time>
      </trkpt>
      <trkpt lat="45.73802" lon="4.6572">
        <ele>427.8</ele>
        <time>2026-08-26T10:11:30Z</time>
      </trkpt>
      <trkpt lat="45.73801" lon="4.65725">
        <ele>427.8</ele>
        <time>2026-08-26T10:11:31Z</time>
      </trkpt>
      <trkpt lat="45.73801" lon="4.6573">
        <ele>427.6</ele>
        <time>2026-08-26T10:11:32Z</time>
      </trkpt>
      <trkpt lat="45.738" lon="4.65736">
        <ele>427.2</ele>
        <time>2026-08-26T10:11:33Z</time>
      </trkpt>
      <trkpt lat="45.738" lon="4.65742">
        <ele>427</ele>
        <time>2026-08-26T10:11:34Z</time>
      </trkpt>
      <trkpt lat="45.738" lon="4.65748">
        <ele>426.6</ele>
        <time>2026-08-26T10:11:35Z</time>
      </trkpt>
      <trkpt lat="45.738" lon="4.65755">
        <ele>426.4</ele>
        <time>2026-08-26T10:11:36Z</time>
      </trkpt>
      <trkpt lat="45.738" lon="4.65762">
        <ele>426</ele>
        <time>2026-08-26T10:11:37Z</time>
      </trkpt>
      <trkpt lat="45.73799" lon="4.6577">
        <ele>425.8</ele>
        <time>2026-08-26T10:11:38Z</time>
      </trkpt>
      <trkpt lat="45.738" lon="4.65778">
        <ele>425.8</ele>
        <time>2026-08-26T10:11:39Z</time>
      </trkpt>
      <trkpt lat="45.73799" lon="4.65785">
        <ele>425.6</ele>
        <time>2026-08-26T10:11:40Z</time>
      </trkpt>
      <trkpt lat="45.73798" lon="4.65793">
        <ele>425.4</ele>
        <time>2026-08-26T10:11:41Z</time>
      </trkpt>
      <trkpt lat="45.73798" lon="4.658">
        <ele>425.6</ele>
        <time>2026-08-26T10:11:42Z</time>
      </trkpt>
      <trkpt lat="45.73797" lon="4.65807">
        <ele>425.4</ele>
        <time>2026-08-26T10:11:43Z</time>
      </trkpt>
      <trkpt lat="45.73796" lon="4.65814">
        <ele>425.4</ele>
        <time>2026-08-26T10:11:44Z</time>
      </trkpt>
      <trkpt lat="45.73794" lon="4.65821">
        <ele>425.4</ele>
        <time>2026-08-26T10:11:45Z</time>
      </trkpt>
      <trkpt lat="45.7379" lon="4.65828">
        <ele>425.4</ele>
        <time>2026-08-26T10:11:46Z</time>
      </trkpt>
      <trkpt lat="45.73787" lon="4.65833">
        <ele>425.2</ele>
        <time>2026-08-26T10:11:47Z</time>
      </trkpt>
      <trkpt lat="45.73782" lon="4.65838">
        <ele>425</ele>
        <time>2026-08-26T10:11:48Z</time>
      </trkpt>
      <trkpt lat="45.73777" lon="4.65843">
        <ele>424.6</ele>
        <time>2026-08-26T10:11:49Z</time>
      </trkpt>
      <trkpt lat="45.73771" lon="4.65847">
        <ele>424.4</ele>
        <time>2026-08-26T10:11:50Z</time>
      </trkpt>
      <trkpt lat="45.73766" lon="4.65852">
        <ele>424</ele>
        <time>2026-08-26T10:11:51Z</time>
      </trkpt>
      <trkpt lat="45.73761" lon="4.65856">
        <ele>423.6</ele>
        <time>2026-08-26T10:11:52Z</time>
      </trkpt>
      <trkpt lat="45.73755" lon="4.65861">
        <ele>423.4</ele>
        <time>2026-08-26T10:11:53Z</time>
      </trkpt>
      <trkpt lat="45.73749" lon="4.65866">
        <ele>423.2</ele>
        <time>2026-08-26T10:11:54Z</time>
      </trkpt>
      <trkpt lat="45.73743" lon="4.65871">
        <ele>422.8</ele>
        <time>2026-08-26T10:11:55Z</time>
      </trkpt>
      <trkpt lat="45.73737" lon="4.65877">
        <ele>422.6</ele>
        <time>2026-08-26T10:11:56Z</time>
      </trkpt>
      <trkpt lat="45.73732" lon="4.65884">
        <ele>422.4</ele>
        <time>2026-08-26T10:11:57Z</time>
      </trkpt>
      <trkpt lat="45.73727" lon="4.65891">
        <ele>422</ele>
        <time>2026-08-26T10:11:58Z</time>
      </trkpt>
      <trkpt lat="45.73722" lon="4.65899">
        <ele>421.8</ele>
        <time>2026-08-26T10:11:59Z</time>
      </trkpt>
      <trkpt lat="45.73718" lon="4.65906">
        <ele>421.4</ele>
        <time>2026-08-26T10:12:00Z</time>
      </trkpt>
      <trkpt lat="45.73714" lon="4.65914">
        <ele>421.2</ele>
        <time>2026-08-26T10:12:01Z</time>
      </trkpt>
      <trkpt lat="45.73709" lon="4.65922">
        <ele>421.2</ele>
        <time>2026-08-26T10:12:02Z</time>
      </trkpt>
      <trkpt lat="45.73706" lon="4.6593">
        <ele>421.2</ele>
        <time>2026-08-26T10:12:03Z</time>
      </trkpt>
      <trkpt lat="45.73701" lon="4.65939">
        <ele>421.2</ele>
        <time>2026-08-26T10:12:04Z</time>
      </trkpt>
      <trkpt lat="45.73696" lon="4.65947">
        <ele>421</ele>
        <time>2026-08-26T10:12:05Z</time>
      </trkpt>
      <trkpt lat="45.73692" lon="4.65956">
        <ele>421</ele>
        <time>2026-08-26T10:12:06Z</time>
      </trkpt>
      <trkpt lat="45.73688" lon="4.65964">
        <ele>421</ele>
        <time>2026-08-26T10:12:07Z</time>
      </trkpt>
      <trkpt lat="45.73683" lon="4.65973">
        <ele>420.8</ele>
        <time>2026-08-26T10:12:08Z</time>
      </trkpt>
      <trkpt lat="45.73679" lon="4.65981">
        <ele>420.8</ele>
        <time>2026-08-26T10:12:09Z</time>
      </trkpt>
      <trkpt lat="45.73675" lon="4.65989">
        <ele>420.8</ele>
        <time>2026-08-26T10:12:10Z</time>
      </trkpt>
      <trkpt lat="45.7367" lon="4.65997">
        <ele>420.8</ele>
        <time>2026-08-26T10:12:11Z</time>
      </trkpt>
      <trkpt lat="45.73666" lon="4.66005">
        <ele>421</ele>
        <time>2026-08-26T10:12:12Z</time>
      </trkpt>
      <trkpt lat="45.73662" lon="4.66011">
        <ele>421</ele>
        <time>2026-08-26T10:12:13Z</time>
      </trkpt>
      <trkpt lat="45.73657" lon="4.66017">
        <ele>421.2</ele>
        <time>2026-08-26T10:12:14Z</time>
      </trkpt>
      <trkpt lat="45.73652" lon="4.66023">
        <ele>421.4</ele>
        <time>2026-08-26T10:12:15Z</time>
      </trkpt>
      <trkpt lat="45.73648" lon="4.66029">
        <ele>421.6</ele>
        <time>2026-08-26T10:12:16Z</time>
      </trkpt>
      <trkpt lat="45.73643" lon="4.66034">
        <ele>421.8</ele>
        <time>2026-08-26T10:12:17Z</time>
      </trkpt>
      <trkpt lat="45.73638" lon="4.6604">
        <ele>422</ele>
        <time>2026-08-26T10:12:18Z</time>
      </trkpt>
      <trkpt lat="45.73634" lon="4.66045">
        <ele>422.4</ele>
        <time>2026-08-26T10:12:19Z</time>
      </trkpt>
      <trkpt lat="45.7363" lon="4.6605">
        <ele>422.6</ele>
        <time>2026-08-26T10:12:20Z</time>
      </trkpt>
      <trkpt lat="45.73625" lon="4.66055">
        <ele>422.8</ele>
        <time>2026-08-26T10:12:21Z</time>
      </trkpt>
      <trkpt lat="45.73621" lon="4.6606">
        <ele>423.2</ele>
        <time>2026-08-26T10:12:22Z</time>
      </trkpt>
      <trkpt lat="45.73617" lon="4.66065">
        <ele>423.4</ele>
        <time>2026-08-26T10:12:23Z</time>
      </trkpt>
      <trkpt lat="45.73613" lon="4.6607">
        <ele>423.6</ele>
        <time>2026-08-26T10:12:24Z</time>
      </trkpt>
      <trkpt lat="45.73608" lon="4.66076">
        <ele>423.6</ele>
        <time>2026-08-26T10:12:25Z</time>
      </trkpt>
      <trkpt lat="45.73604" lon="4.66081">
        <ele>423.6</ele>
        <time>2026-08-26T10:12:26Z</time>
      </trkpt>
      <trkpt lat="45.736" lon="4.66086">
        <ele>423.6</ele>
        <time>2026-08-26T10:12:27Z</time>
      </trkpt>
      <trkpt lat="45.73596" lon="4.66091">
        <ele>423.6</ele>
        <time>2026-08-26T10:12:28Z</time>
      </trkpt>
      <trkpt lat="45.73591" lon="4.66096">
        <ele>423.4</ele>
        <time>2026-08-26T10:12:29Z</time>
      </trkpt>
      <trkpt lat="45.73587" lon="4.66102">
        <ele>423.4</ele>
        <time>2026-08-26T10:12:30Z</time>
      </trkpt>
      <trkpt lat="45.73583" lon="4.66107">
        <ele>423.4</ele>
        <time>2026-08-26T10:12:31Z</time>
      </trkpt>
      <trkpt lat="45.73579" lon="4.66113">
        <ele>423.4</ele>
        <time>2026-08-26T10:12:32Z</time>
      </trkpt>
      <trkpt lat="45.73576" lon="4.66118">
        <ele>423.2</ele>
        <time>2026-08-26T10:12:33Z</time>
      </trkpt>
      <trkpt lat="45.73572" lon="4.66123">
        <ele>423.2</ele>
        <time>2026-08-26T10:12:34Z</time>
      </trkpt>
      <trkpt lat="45.73568" lon="4.66128">
        <ele>423</ele>
        <time>2026-08-26T10:12:35Z</time>
      </trkpt>
      <trkpt lat="45.73564" lon="4.66133">
        <ele>423</ele>
        <time>2026-08-26T10:12:36Z</time>
      </trkpt>
      <trkpt lat="45.7356" lon="4.66138">
        <ele>422.8</ele>
        <time>2026-08-26T10:12:37Z</time>
      </trkpt>
      <trkpt lat="45.73556" lon="4.66143">
        <ele>422.8</ele>
        <time>2026-08-26T10:12:38Z</time>
      </trkpt>
      <trkpt lat="45.73552" lon="4.66149">
        <ele>422.6</ele>
        <time>2026-08-26T10:12:39Z</time>
      </trkpt>
      <trkpt lat="45.73547" lon="4.66155">
        <ele>422.6</ele>
        <time>2026-08-26T10:12:40Z</time>
      </trkpt>
      <trkpt lat="45.73543" lon="4.66162">
        <ele>422.4</ele>
        <time>2026-08-26T10:12:41Z</time>
      </trkpt>
      <trkpt lat="45.73539" lon="4.66168">
        <ele>422</ele>
        <time>2026-08-26T10:12:42Z</time>
      </trkpt>
      <trkpt lat="45.73534" lon="4.66175">
        <ele>421.6</ele>
        <time>2026-08-26T10:12:43Z</time>
      </trkpt>
      <trkpt lat="45.73529" lon="4.66182">
        <ele>421</ele>
        <time>2026-08-26T10:12:44Z</time>
      </trkpt>
      <trkpt lat="45.73525" lon="4.66191">
        <ele>420.4</ele>
        <time>2026-08-26T10:12:45Z</time>
      </trkpt>
      <trkpt lat="45.7352" lon="4.662">
        <ele>419.8</ele>
        <time>2026-08-26T10:12:46Z</time>
      </trkpt>
      <trkpt lat="45.73516" lon="4.66209">
        <ele>419</ele>
        <time>2026-08-26T10:12:47Z</time>
      </trkpt>
      <trkpt lat="45.73512" lon="4.6622">
        <ele>418.8</ele>
        <time>2026-08-26T10:12:48Z</time>
      </trkpt>
      <trkpt lat="45.73508" lon="4.66231">
        <ele>417.8</ele>
        <time>2026-08-26T10:12:49Z</time>
      </trkpt>
      <trkpt lat="45.73504" lon="4.66242">
        <ele>417</ele>
        <time>2026-08-26T10:12:50Z</time>
      </trkpt>
      <trkpt lat="45.73501" lon="4.66254">
        <ele>416.2</ele>
        <time>2026-08-26T10:12:51Z</time>
      </trkpt>
      <trkpt lat="45.73498" lon="4.66265">
        <ele>415.6</ele>
        <time>2026-08-26T10:12:52Z</time>
      </trkpt>
      <trkpt lat="45.73496" lon="4.66277">
        <ele>415.4</ele>
        <time>2026-08-26T10:12:53Z</time>
      </trkpt>
      <trkpt lat="45.73494" lon="4.66289">
        <ele>415</ele>
        <time>2026-08-26T10:12:54Z</time>
      </trkpt>
      <trkpt lat="45.73492" lon="4.66301">
        <ele>414.8</ele>
        <time>2026-08-26T10:12:55Z</time>
      </trkpt>
      <trkpt lat="45.73489" lon="4.66313">
        <ele>414.6</ele>
        <time>2026-08-26T10:12:56Z</time>
      </trkpt>
      <trkpt lat="45.73486" lon="4.66324">
        <ele>414.4</ele>
        <time>2026-08-26T10:12:57Z</time>
      </trkpt>
      <trkpt lat="45.73483" lon="4.66336">
        <ele>414.2</ele>
        <time>2026-08-26T10:12:58Z</time>
      </trkpt>
      <trkpt lat="45.7348" lon="4.66347">
        <ele>414.2</ele>
        <time>2026-08-26T10:12:59Z</time>
      </trkpt>
      <trkpt lat="45.73477" lon="4.66359">
        <ele>414.2</ele>
        <time>2026-08-26T10:13:00Z</time>
      </trkpt>
      <trkpt lat="45.73474" lon="4.6637">
        <ele>414.2</ele>
        <time>2026-08-26T10:13:01Z</time>
      </trkpt>
      <trkpt lat="45.7347" lon="4.66381">
        <ele>414.2</ele>
        <time>2026-08-26T10:13:02Z</time>
      </trkpt>
      <trkpt lat="45.73466" lon="4.66391">
        <ele>414.2</ele>
        <time>2026-08-26T10:13:03Z</time>
      </trkpt>
      <trkpt lat="45.73462" lon="4.664">
        <ele>414.2</ele>
        <time>2026-08-26T10:13:04Z</time>
      </trkpt>
      <trkpt lat="45.73457" lon="4.6641">
        <ele>414</ele>
        <time>2026-08-26T10:13:05Z</time>
      </trkpt>
      <trkpt lat="45.73453" lon="4.66419">
        <ele>414</ele>
        <time>2026-08-26T10:13:06Z</time>
      </trkpt>
      <trkpt lat="45.73448" lon="4.66428">
        <ele>413.8</ele>
        <time>2026-08-26T10:13:07Z</time>
      </trkpt>
      <trkpt lat="45.73442" lon="4.66437">
        <ele>413.6</ele>
        <time>2026-08-26T10:13:08Z</time>
      </trkpt>
      <trkpt lat="45.73436" lon="4.66445">
        <ele>413.4</ele>
        <time>2026-08-26T10:13:09Z</time>
      </trkpt>
      <trkpt lat="45.7343" lon="4.66453">
        <ele>413</ele>
        <time>2026-08-26T10:13:10Z</time>
      </trkpt>
      <trkpt lat="45.73424" lon="4.6646">
        <ele>412.6</ele>
        <time>2026-08-26T10:13:11Z</time>
      </trkpt>
      <trkpt lat="45.73417" lon="4.66468">
        <ele>412.2</ele>
        <time>2026-08-26T10:13:12Z</time>
      </trkpt>
      <trkpt lat="45.73411" lon="4.66476">
        <ele>411.8</ele>
        <time>2026-08-26T10:13:13Z</time>
      </trkpt>
      <trkpt lat="45.73405" lon="4.66484">
        <ele>411.6</ele>
        <time>2026-08-26T10:13:14Z</time>
      </trkpt>
      <trkpt lat="45.73398" lon="4.66492">
        <ele>411.2</ele>
        <time>2026-08-26T10:13:15Z</time>
      </trkpt>
      <trkpt lat="45.73392" lon="4.665">
        <ele>410.8</ele>
        <time>2026-08-26T10:13:16Z</time>
      </trkpt>
      <trkpt lat="45.73387" lon="4.6651">
        <ele>410.4</ele>
        <time>2026-08-26T10:13:17Z</time>
      </trkpt>
      <trkpt lat="45.73382" lon="4.66521">
        <ele>410</ele>
        <time>2026-08-26T10:13:18Z</time>
      </trkpt>
      <trkpt lat="45.73378" lon="4.66533">
        <ele>409.4</ele>
        <time>2026-08-26T10:13:19Z</time>
      </trkpt>
      <trkpt lat="45.73375" lon="4.66546">
        <ele>408.8</ele>
        <time>2026-08-26T10:13:20Z</time>
      </trkpt>
      <trkpt lat="45.73374" lon="4.66559">
        <ele>408.4</ele>
        <time>2026-08-26T10:13:21Z</time>
      </trkpt>
      <trkpt lat="45.73374" lon="4.66574">
        <ele>408</ele>
        <time>2026-08-26T10:13:22Z</time>
      </trkpt>
      <trkpt lat="45.73375" lon="4.66588">
        <ele>407.4</ele>
        <time>2026-08-26T10:13:23Z</time>
      </trkpt>
      <trkpt lat="45.73376" lon="4.66602">
        <ele>406.8</ele>
        <time>2026-08-26T10:13:24Z</time>
      </trkpt>
      <trkpt lat="45.73379" lon="4.66616">
        <ele>406.2</ele>
        <time>2026-08-26T10:13:25Z</time>
      </trkpt>
      <trkpt lat="45.73384" lon="4.6663">
        <ele>405.4</ele>
        <time>2026-08-26T10:13:26Z</time>
      </trkpt>
      <trkpt lat="45.73388" lon="4.66643">
        <ele>404.8</ele>
        <time>2026-08-26T10:13:27Z</time>
      </trkpt>
      <trkpt lat="45.73394" lon="4.66655">
        <ele>404.2</ele>
        <time>2026-08-26T10:13:28Z</time>
      </trkpt>
      <trkpt lat="45.73401" lon="4.66666">
        <ele>403.6</ele>
        <time>2026-08-26T10:13:29Z</time>
      </trkpt>
      <trkpt lat="45.73408" lon="4.66677">
        <ele>403.6</ele>
        <time>2026-08-26T10:13:30Z</time>
      </trkpt>
      <trkpt lat="45.73416" lon="4.66687">
        <ele>402.6</ele>
        <time>2026-08-26T10:13:31Z</time>
      </trkpt>
      <trkpt lat="45.73424" lon="4.66697">
        <ele>401.8</ele>
        <time>2026-08-26T10:13:32Z</time>
      </trkpt>
      <trkpt lat="45.73432" lon="4.66707">
        <ele>400.8</ele>
        <time>2026-08-26T10:13:33Z</time>
      </trkpt>
      <trkpt lat="45.73439" lon="4.66717">
        <ele>400</ele>
        <time>2026-08-26T10:13:34Z</time>
      </trkpt>
      <trkpt lat="45.73447" lon="4.66728">
        <ele>399.4</ele>
        <time>2026-08-26T10:13:35Z</time>
      </trkpt>
      <trkpt lat="45.73455" lon="4.66738">
        <ele>399</ele>
        <time>2026-08-26T10:13:36Z</time>
      </trkpt>
      <trkpt lat="45.73463" lon="4.66748">
        <ele>398.4</ele>
        <time>2026-08-26T10:13:37Z</time>
      </trkpt>
      <trkpt lat="45.73472" lon="4.66757">
        <ele>397.8</ele>
        <time>2026-08-26T10:13:38Z</time>
      </trkpt>
      <trkpt lat="45.73481" lon="4.66764">
        <ele>397.4</ele>
        <time>2026-08-26T10:13:39Z</time>
      </trkpt>
      <trkpt lat="45.73491" lon="4.66771">
        <ele>397</ele>
        <time>2026-08-26T10:13:40Z</time>
      </trkpt>
      <trkpt lat="45.73501" lon="4.66778">
        <ele>396.4</ele>
        <time>2026-08-26T10:13:41Z</time>
      </trkpt>
      <trkpt lat="45.73512" lon="4.66783">
        <ele>395.6</ele>
        <time>2026-08-26T10:13:42Z</time>
      </trkpt>
      <trkpt lat="45.73522" lon="4.6679">
        <ele>395</ele>
        <time>2026-08-26T10:13:43Z</time>
      </trkpt>
      <trkpt lat="45.73531" lon="4.66798">
        <ele>394</ele>
        <time>2026-08-26T10:13:44Z</time>
      </trkpt>
      <trkpt lat="45.73539" lon="4.66809">
        <ele>393.2</ele>
        <time>2026-08-26T10:13:45Z</time>
      </trkpt>
      <trkpt lat="45.73545" lon="4.66823">
        <ele>392.6</ele>
        <time>2026-08-26T10:13:46Z</time>
      </trkpt>
      <trkpt lat="45.73548" lon="4.66839">
        <ele>391.8</ele>
        <time>2026-08-26T10:13:47Z</time>
      </trkpt>
      <trkpt lat="45.73549" lon="4.66855">
        <ele>391</ele>
        <time>2026-08-26T10:13:48Z</time>
      </trkpt>
      <trkpt lat="45.73548" lon="4.66871">
        <ele>390.6</ele>
        <time>2026-08-26T10:13:49Z</time>
      </trkpt>
      <trkpt lat="45.73546" lon="4.66886">
        <ele>390</ele>
        <time>2026-08-26T10:13:50Z</time>
      </trkpt>
      <trkpt lat="45.73544" lon="4.66901">
        <ele>389.4</ele>
        <time>2026-08-26T10:13:51Z</time>
      </trkpt>
      <trkpt lat="45.73541" lon="4.66916">
        <ele>389.2</ele>
        <time>2026-08-26T10:13:52Z</time>
      </trkpt>
      <trkpt lat="45.73536" lon="4.6693">
        <ele>388.6</ele>
        <time>2026-08-26T10:13:53Z</time>
      </trkpt>
      <trkpt lat="45.73531" lon="4.66944">
        <ele>387.8</ele>
        <time>2026-08-26T10:13:54Z</time>
      </trkpt>
      <trkpt lat="45.73524" lon="4.66956">
        <ele>387.4</ele>
        <time>2026-08-26T10:13:55Z</time>
      </trkpt>
      <trkpt lat="45.73516" lon="4.66967">
        <ele>386.6</ele>
        <time>2026-08-26T10:13:56Z</time>
      </trkpt>
      <trkpt lat="45.73509" lon="4.66977">
        <ele>386</ele>
        <time>2026-08-26T10:13:57Z</time>
      </trkpt>
      <trkpt lat="45.735" lon="4.66987">
        <ele>385.4</ele>
        <time>2026-08-26T10:13:58Z</time>
      </trkpt>
      <trkpt lat="45.73491" lon="4.66997">
        <ele>385</ele>
        <time>2026-08-26T10:13:59Z</time>
      </trkpt>
      <trkpt lat="45.73482" lon="4.67006">
        <ele>384.6</ele>
        <time>2026-08-26T10:14:00Z</time>
      </trkpt>
      <trkpt lat="45.73473" lon="4.67014">
        <ele>384.2</ele>
        <time>2026-08-26T10:14:01Z</time>
      </trkpt>
      <trkpt lat="45.73464" lon="4.67024">
        <ele>383.8</ele>
        <time>2026-08-26T10:14:02Z</time>
      </trkpt>
      <trkpt lat="45.73456" lon="4.67033">
        <ele>383.4</ele>
        <time>2026-08-26T10:14:03Z</time>
      </trkpt>
      <trkpt lat="45.73447" lon="4.67042">
        <ele>382.8</ele>
        <time>2026-08-26T10:14:04Z</time>
      </trkpt>
      <trkpt lat="45.73439" lon="4.67051">
        <ele>382.4</ele>
        <time>2026-08-26T10:14:05Z</time>
      </trkpt>
      <trkpt lat="45.7343" lon="4.6706">
        <ele>382</ele>
        <time>2026-08-26T10:14:06Z</time>
      </trkpt>
      <trkpt lat="45.73422" lon="4.67069">
        <ele>381.4</ele>
        <time>2026-08-26T10:14:07Z</time>
      </trkpt>
      <trkpt lat="45.73413" lon="4.67078">
        <ele>381</ele>
        <time>2026-08-26T10:14:08Z</time>
      </trkpt>
      <trkpt lat="45.73404" lon="4.67087">
        <ele>380.6</ele>
        <time>2026-08-26T10:14:09Z</time>
      </trkpt>
      <trkpt lat="45.73396" lon="4.67096">
        <ele>379.8</ele>
        <time>2026-08-26T10:14:10Z</time>
      </trkpt>
      <trkpt lat="45.73388" lon="4.67105">
        <ele>379.2</ele>
        <time>2026-08-26T10:14:11Z</time>
      </trkpt>
      <trkpt lat="45.7338" lon="4.67114">
        <ele>378.4</ele>
        <time>2026-08-26T10:14:12Z</time>
      </trkpt>
      <trkpt lat="45.73372" lon="4.67123">
        <ele>377.4</ele>
        <time>2026-08-26T10:14:13Z</time>
      </trkpt>
      <trkpt lat="45.73363" lon="4.67132">
        <ele>376.8</ele>
        <time>2026-08-26T10:14:14Z</time>
      </trkpt>
      <trkpt lat="45.73355" lon="4.6714">
        <ele>376.4</ele>
        <time>2026-08-26T10:14:15Z</time>
      </trkpt>
      <trkpt lat="45.73347" lon="4.67149">
        <ele>375.8</ele>
        <time>2026-08-26T10:14:16Z</time>
      </trkpt>
      <trkpt lat="45.73339" lon="4.67158">
        <ele>375.4</ele>
        <time>2026-08-26T10:14:17Z</time>
      </trkpt>
      <trkpt lat="45.73331" lon="4.67166">
        <ele>375</ele>
        <time>2026-08-26T10:14:18Z</time>
      </trkpt>
      <trkpt lat="45.73323" lon="4.67174">
        <ele>374.8</ele>
        <time>2026-08-26T10:14:19Z</time>
      </trkpt>
      <trkpt lat="45.73317" lon="4.6718">
        <ele>374.6</ele>
        <time>2026-08-26T10:14:20Z</time>
      </trkpt>
      <trkpt lat="45.73312" lon="4.67186">
        <ele>374.6</ele>
        <time>2026-08-26T10:14:21Z</time>
      </trkpt>
      <trkpt lat="45.73307" lon="4.67191">
        <ele>374.6</ele>
        <time>2026-08-26T10:14:22Z</time>
      </trkpt>
      <trkpt lat="45.73302" lon="4.67196">
        <ele>374.8</ele>
        <time>2026-08-26T10:14:23Z</time>
      </trkpt>
      <trkpt lat="45.73297" lon="4.67201">
        <ele>374.8</ele>
        <time>2026-08-26T10:14:24Z</time>
      </trkpt>
      <trkpt lat="45.73294" lon="4.67205">
        <ele>374.8</ele>
        <time>2026-08-26T10:14:25Z</time>
      </trkpt>
      <trkpt lat="45.73292" lon="4.67208">
        <ele>374.8</ele>
        <time>2026-08-26T10:14:26Z</time>
      </trkpt>
      <trkpt lat="45.73289" lon="4.67211">
        <ele>374.8</ele>
        <time>2026-08-26T10:14:27Z</time>
      </trkpt>
      <trkpt lat="45.73286" lon="4.67215">
        <ele>374.6</ele>
        <time>2026-08-26T10:14:28Z</time>
      </trkpt>
      <trkpt lat="45.73283" lon="4.67218">
        <ele>374.6</ele>
        <time>2026-08-26T10:14:29Z</time>
      </trkpt>
      <trkpt lat="45.73279" lon="4.67221">
        <ele>374.4</ele>
        <time>2026-08-26T10:14:30Z</time>
      </trkpt>
      <trkpt lat="45.73276" lon="4.67221">
        <ele>374.2</ele>
        <time>2026-08-26T10:14:31Z</time>
      </trkpt>
      <trkpt lat="45.73272" lon="4.67222">
        <ele>374</ele>
        <time>2026-08-26T10:14:32Z</time>
      </trkpt>
      <trkpt lat="45.73269" lon="4.67223">
        <ele>373.8</ele>
        <time>2026-08-26T10:14:33Z</time>
      </trkpt>
      <trkpt lat="45.73266" lon="4.67227">
        <ele>373.6</ele>
        <time>2026-08-26T10:14:34Z</time>
      </trkpt>
      <trkpt lat="45.73265" lon="4.67231">
        <ele>373.6</ele>
        <time>2026-08-26T10:14:35Z</time>
      </trkpt>
      <trkpt lat="45.73265" lon="4.67235">
        <ele>373.4</ele>
        <time>2026-08-26T10:14:36Z</time>
      </trkpt>
      <trkpt lat="45.73266" lon="4.67238">
        <ele>373.4</ele>
        <time>2026-08-26T10:14:37Z</time>
      </trkpt>
      <trkpt lat="45.73266" lon="4.67241">
        <ele>373.4</ele>
        <time>2026-08-26T10:14:38Z</time>
      </trkpt>
      <trkpt lat="45.73266" lon="4.67243">
        <ele>373.4</ele>
        <time>2026-08-26T10:14:39Z</time>
      </trkpt>
      <trkpt lat="45.73266" lon="4.67246">
        <ele>373.4</ele>
        <time>2026-08-26T10:14:40Z</time>
      </trkpt>
      <trkpt lat="45.73266" lon="4.6725">
        <ele>373.4</ele>
        <time>2026-08-26T10:14:41Z</time>
      </trkpt>
      <trkpt lat="45.73265" lon="4.67253">
        <ele>373.4</ele>
        <time>2026-08-26T10:14:42Z</time>
      </trkpt>
      <trkpt lat="45.73264" lon="4.67256">
        <ele>373.4</ele>
        <time>2026-08-26T10:14:43Z</time>
      </trkpt>
      <trkpt lat="45.73262" lon="4.67259">
        <ele>373.2</ele>
        <time>2026-08-26T10:14:44Z</time>
      </trkpt>
      <trkpt lat="45.7326" lon="4.67262">
        <ele>373</ele>
        <time>2026-08-26T10:14:45Z</time>
      </trkpt>
      <trkpt lat="45.73257" lon="4.67266">
        <ele>373</ele>
        <time>2026-08-26T10:14:46Z</time>
      </trkpt>
      <trkpt lat="45.73254" lon="4.67269">
        <ele>372.6</ele>
        <time>2026-08-26T10:14:47Z</time>
      </trkpt>
      <trkpt lat="45.73249" lon="4.67272">
        <ele>372.4</ele>
        <time>2026-08-26T10:14:48Z</time>
      </trkpt>
      <trkpt lat="45.73244" lon="4.67273">
        <ele>372</ele>
        <time>2026-08-26T10:14:49Z</time>
      </trkpt>
      <trkpt lat="45.73237" lon="4.67274">
        <ele>371.4</ele>
        <time>2026-08-26T10:14:50Z</time>
      </trkpt>
      <trkpt lat="45.7323" lon="4.67275">
        <ele>370.8</ele>
        <time>2026-08-26T10:14:51Z</time>
      </trkpt>
      <trkpt lat="45.73223" lon="4.67276">
        <ele>370</ele>
        <time>2026-08-26T10:14:52Z</time>
      </trkpt>
      <trkpt lat="45.73215" lon="4.67277">
        <ele>369.4</ele>
        <time>2026-08-26T10:14:53Z</time>
      </trkpt>
      <trkpt lat="45.73207" lon="4.67278">
        <ele>368.6</ele>
        <time>2026-08-26T10:14:54Z</time>
      </trkpt>
      <trkpt lat="45.73198" lon="4.67279">
        <ele>368</ele>
        <time>2026-08-26T10:14:55Z</time>
      </trkpt>
      <trkpt lat="45.73189" lon="4.67279">
        <ele>367.2</ele>
        <time>2026-08-26T10:14:56Z</time>
      </trkpt>
      <trkpt lat="45.73179" lon="4.6728">
        <ele>366.6</ele>
        <time>2026-08-26T10:14:57Z</time>
      </trkpt>
      <trkpt lat="45.7317" lon="4.67281">
        <ele>365.2</ele>
        <time>2026-08-26T10:14:58Z</time>
      </trkpt>
      <trkpt lat="45.7316" lon="4.67282">
        <ele>363.6</ele>
        <time>2026-08-26T10:14:59Z</time>
      </trkpt>
      <trkpt lat="45.7315" lon="4.67283">
        <ele>362.8</ele>
        <time>2026-08-26T10:15:00Z</time>
      </trkpt>
      <trkpt lat="45.73141" lon="4.67284">
        <ele>362.4</ele>
        <time>2026-08-26T10:15:01Z</time>
      </trkpt>
      <trkpt lat="45.73131" lon="4.67285">
        <ele>362</ele>
        <time>2026-08-26T10:15:02Z</time>
      </trkpt>
      <trkpt lat="45.73121" lon="4.67286">
        <ele>361.4</ele>
        <time>2026-08-26T10:15:03Z</time>
      </trkpt>
      <trkpt lat="45.73111" lon="4.67287">
        <ele>361.4</ele>
        <time>2026-08-26T10:15:04Z</time>
      </trkpt>
      <trkpt lat="45.73101" lon="4.67288">
        <ele>360.8</ele>
        <time>2026-08-26T10:15:05Z</time>
      </trkpt>
      <trkpt lat="45.73091" lon="4.67289">
        <ele>360.2</ele>
        <time>2026-08-26T10:15:06Z</time>
      </trkpt>
      <trkpt lat="45.73082" lon="4.67292">
        <ele>359.6</ele>
        <time>2026-08-26T10:15:07Z</time>
      </trkpt>
      <trkpt lat="45.73072" lon="4.67298">
        <ele>358.8</ele>
        <time>2026-08-26T10:15:08Z</time>
      </trkpt>
      <trkpt lat="45.73064" lon="4.67306">
        <ele>358</ele>
        <time>2026-08-26T10:15:09Z</time>
      </trkpt>
      <trkpt lat="45.73056" lon="4.67317">
        <ele>357.2</ele>
        <time>2026-08-26T10:15:10Z</time>
      </trkpt>
      <trkpt lat="45.73049" lon="4.67328">
        <ele>356.4</ele>
        <time>2026-08-26T10:15:11Z</time>
      </trkpt>
      <trkpt lat="45.73042" lon="4.67339">
        <ele>355.6</ele>
        <time>2026-08-26T10:15:12Z</time>
      </trkpt>
      <trkpt lat="45.73035" lon="4.6735">
        <ele>354.8</ele>
        <time>2026-08-26T10:15:13Z</time>
      </trkpt>
      <trkpt lat="45.73026" lon="4.6736">
        <ele>354.2</ele>
        <time>2026-08-26T10:15:14Z</time>
      </trkpt>
      <trkpt lat="45.73017" lon="4.67369">
        <ele>353.6</ele>
        <time>2026-08-26T10:15:15Z</time>
      </trkpt>
      <trkpt lat="45.73007" lon="4.67377">
        <ele>353</ele>
        <time>2026-08-26T10:15:16Z</time>
      </trkpt>
      <trkpt lat="45.72997" lon="4.67384">
        <ele>352.2</ele>
        <time>2026-08-26T10:15:17Z</time>
      </trkpt>
      <trkpt lat="45.72987" lon="4.6739">
        <ele>351.4</ele>
        <time>2026-08-26T10:15:18Z</time>
      </trkpt>
      <trkpt lat="45.72977" lon="4.67397">
        <ele>351</ele>
        <time>2026-08-26T10:15:19Z</time>
      </trkpt>
      <trkpt lat="45.72966" lon="4.67403">
        <ele>350.2</ele>
        <time>2026-08-26T10:15:20Z</time>
      </trkpt>
      <trkpt lat="45.72956" lon="4.67409">
        <ele>349.6</ele>
        <time>2026-08-26T10:15:21Z</time>
      </trkpt>
      <trkpt lat="45.72946" lon="4.67416">
        <ele>349.4</ele>
        <time>2026-08-26T10:15:22Z</time>
      </trkpt>
      <trkpt lat="45.72936" lon="4.67422">
        <ele>348.8</ele>
        <time>2026-08-26T10:15:23Z</time>
      </trkpt>
      <trkpt lat="45.72926" lon="4.67429">
        <ele>348.6</ele>
        <time>2026-08-26T10:15:24Z</time>
      </trkpt>
      <trkpt lat="45.72916" lon="4.67436">
        <ele>347.6</ele>
        <time>2026-08-26T10:15:25Z</time>
      </trkpt>
      <trkpt lat="45.72907" lon="4.67444">
        <ele>347</ele>
        <time>2026-08-26T10:15:26Z</time>
      </trkpt>
      <trkpt lat="45.72897" lon="4.67453">
        <ele>346.2</ele>
        <time>2026-08-26T10:15:27Z</time>
      </trkpt>
      <trkpt lat="45.72889" lon="4.67461">
        <ele>345.4</ele>
        <time>2026-08-26T10:15:28Z</time>
      </trkpt>
      <trkpt lat="45.7288" lon="4.67468">
        <ele>345</ele>
        <time>2026-08-26T10:15:29Z</time>
      </trkpt>
      <trkpt lat="45.72871" lon="4.67474">
        <ele>344.4</ele>
        <time>2026-08-26T10:15:30Z</time>
      </trkpt>
      <trkpt lat="45.72862" lon="4.6748">
        <ele>343.8</ele>
        <time>2026-08-26T10:15:31Z</time>
      </trkpt>
      <trkpt lat="45.72853" lon="4.67485">
        <ele>343.2</ele>
        <time>2026-08-26T10:15:32Z</time>
      </trkpt>
      <trkpt lat="45.72844" lon="4.67488">
        <ele>342.6</ele>
        <time>2026-08-26T10:15:33Z</time>
      </trkpt>
      <trkpt lat="45.72835" lon="4.67489">
        <ele>342.2</ele>
        <time>2026-08-26T10:15:34Z</time>
      </trkpt>
      <trkpt lat="45.72826" lon="4.67487">
        <ele>341.8</ele>
        <time>2026-08-26T10:15:35Z</time>
      </trkpt>
      <trkpt lat="45.72817" lon="4.67483">
        <ele>341.4</ele>
        <time>2026-08-26T10:15:36Z</time>
      </trkpt>
      <trkpt lat="45.7281" lon="4.67478">
        <ele>341.4</ele>
        <time>2026-08-26T10:15:37Z</time>
      </trkpt>
      <trkpt lat="45.72803" lon="4.67471">
        <ele>341.4</ele>
        <time>2026-08-26T10:15:38Z</time>
      </trkpt>
      <trkpt lat="45.72797" lon="4.67462">
        <ele>341.2</ele>
        <time>2026-08-26T10:15:39Z</time>
      </trkpt>
      <trkpt lat="45.72792" lon="4.67452">
        <ele>341</ele>
        <time>2026-08-26T10:15:40Z</time>
      </trkpt>
      <trkpt lat="45.72788" lon="4.67441">
        <ele>340.8</ele>
        <time>2026-08-26T10:15:41Z</time>
      </trkpt>
      <trkpt lat="45.72784" lon="4.67429">
        <ele>340.4</ele>
        <time>2026-08-26T10:15:42Z</time>
      </trkpt>
      <trkpt lat="45.72779" lon="4.67417">
        <ele>340</ele>
        <time>2026-08-26T10:15:43Z</time>
      </trkpt>
      <trkpt lat="45.72775" lon="4.67405">
        <ele>339.6</ele>
        <time>2026-08-26T10:15:44Z</time>
      </trkpt>
      <trkpt lat="45.72771" lon="4.67393">
        <ele>339.2</ele>
        <time>2026-08-26T10:15:45Z</time>
      </trkpt>
      <trkpt lat="45.72767" lon="4.67381">
        <ele>338.6</ele>
        <time>2026-08-26T10:15:46Z</time>
      </trkpt>
      <trkpt lat="45.72762" lon="4.67369">
        <ele>338</ele>
        <time>2026-08-26T10:15:47Z</time>
      </trkpt>
      <trkpt lat="45.72758" lon="4.67358">
        <ele>337.2</ele>
        <time>2026-08-26T10:15:48Z</time>
      </trkpt>
      <trkpt lat="45.72752" lon="4.67348">
        <ele>336.6</ele>
        <time>2026-08-26T10:15:49Z</time>
      </trkpt>
      <trkpt lat="45.72746" lon="4.67337">
        <ele>335.8</ele>
        <time>2026-08-26T10:15:50Z</time>
      </trkpt>
      <trkpt lat="45.72739" lon="4.67328">
        <ele>335.2</ele>
        <time>2026-08-26T10:15:51Z</time>
      </trkpt>
      <trkpt lat="45.72731" lon="4.6732">
        <ele>334.4</ele>
        <time>2026-08-26T10:15:52Z</time>
      </trkpt>
      <trkpt lat="45.72723" lon="4.67312">
        <ele>333.6</ele>
        <time>2026-08-26T10:15:53Z</time>
      </trkpt>
      <trkpt lat="45.72715" lon="4.67305">
        <ele>332.6</ele>
        <time>2026-08-26T10:15:54Z</time>
      </trkpt>
      <trkpt lat="45.72707" lon="4.67298">
        <ele>331.8</ele>
        <time>2026-08-26T10:15:55Z</time>
      </trkpt>
      <trkpt lat="45.72699" lon="4.67292">
        <ele>331</ele>
        <time>2026-08-26T10:15:56Z</time>
      </trkpt>
      <trkpt lat="45.72691" lon="4.67286">
        <ele>330.6</ele>
        <time>2026-08-26T10:15:57Z</time>
      </trkpt>
      <trkpt lat="45.72684" lon="4.67281">
        <ele>330.2</ele>
        <time>2026-08-26T10:15:58Z</time>
      </trkpt>
      <trkpt lat="45.72677" lon="4.67275">
        <ele>329.8</ele>
        <time>2026-08-26T10:15:59Z</time>
      </trkpt>
      <trkpt lat="45.72669" lon="4.67269">
        <ele>329.4</ele>
        <time>2026-08-26T10:16:00Z</time>
      </trkpt>
      <trkpt lat="45.72662" lon="4.67264">
        <ele>329</ele>
        <time>2026-08-26T10:16:01Z</time>
      </trkpt>
      <trkpt lat="45.72655" lon="4.67259">
        <ele>328.2</ele>
        <time>2026-08-26T10:16:02Z</time>
      </trkpt>
      <trkpt lat="45.72649" lon="4.67254">
        <ele>327.6</ele>
        <time>2026-08-26T10:16:03Z</time>
      </trkpt>
      <trkpt lat="45.72643" lon="4.6725">
        <ele>327</ele>
        <time>2026-08-26T10:16:04Z</time>
      </trkpt>
      <trkpt lat="45.72637" lon="4.67245">
        <ele>326.4</ele>
        <time>2026-08-26T10:16:05Z</time>
      </trkpt>
      <trkpt lat="45.7263" lon="4.6724">
        <ele>325.8</ele>
        <time>2026-08-26T10:16:06Z</time>
      </trkpt>
      <trkpt lat="45.72623" lon="4.67235">
        <ele>325.2</ele>
        <time>2026-08-26T10:16:07Z</time>
      </trkpt>
      <trkpt lat="45.72615" lon="4.6723">
        <ele>324.4</ele>
        <time>2026-08-26T10:16:08Z</time>
      </trkpt>
      <trkpt lat="45.72607" lon="4.67225">
        <ele>324</ele>
        <time>2026-08-26T10:16:09Z</time>
      </trkpt>
      <trkpt lat="45.72599" lon="4.67219">
        <ele>323.4</ele>
        <time>2026-08-26T10:16:10Z</time>
      </trkpt>
      <trkpt lat="45.72591" lon="4.67212">
        <ele>322.8</ele>
        <time>2026-08-26T10:16:11Z</time>
      </trkpt>
      <trkpt lat="45.72583" lon="4.67206">
        <ele>322.4</ele>
        <time>2026-08-26T10:16:12Z</time>
      </trkpt>
      <trkpt lat="45.72575" lon="4.672">
        <ele>322</ele>
        <time>2026-08-26T10:16:13Z</time>
      </trkpt>
      <trkpt lat="45.72567" lon="4.67194">
        <ele>321.6</ele>
        <time>2026-08-26T10:16:14Z</time>
      </trkpt>
      <trkpt lat="45.72558" lon="4.67188">
        <ele>321.2</ele>
        <time>2026-08-26T10:16:15Z</time>
      </trkpt>
      <trkpt lat="45.72549" lon="4.67183">
        <ele>320.8</ele>
        <time>2026-08-26T10:16:16Z</time>
      </trkpt>
      <trkpt lat="45.7254" lon="4.67178">
        <ele>320.4</ele>
        <time>2026-08-26T10:16:17Z</time>
      </trkpt>
      <trkpt lat="45.72531" lon="4.67174">
        <ele>319.8</ele>
        <time>2026-08-26T10:16:18Z</time>
      </trkpt>
      <trkpt lat="45.72521" lon="4.6717">
        <ele>319.2</ele>
        <time>2026-08-26T10:16:19Z</time>
      </trkpt>
      <trkpt lat="45.72512" lon="4.67168">
        <ele>319</ele>
        <time>2026-08-26T10:16:20Z</time>
      </trkpt>
      <trkpt lat="45.72503" lon="4.67167">
        <ele>318.8</ele>
        <time>2026-08-26T10:16:21Z</time>
      </trkpt>
      <trkpt lat="45.72494" lon="4.67165">
        <ele>318.4</ele>
        <time>2026-08-26T10:16:22Z</time>
      </trkpt>
      <trkpt lat="45.72485" lon="4.67165">
        <ele>318.4</ele>
        <time>2026-08-26T10:16:23Z</time>
      </trkpt>
      <trkpt lat="45.72475" lon="4.67166">
        <ele>318.2</ele>
        <time>2026-08-26T10:16:24Z</time>
      </trkpt>
      <trkpt lat="45.72467" lon="4.67168">
        <ele>318</ele>
        <time>2026-08-26T10:16:25Z</time>
      </trkpt>
      <trkpt lat="45.72459" lon="4.67171">
        <ele>317.8</ele>
        <time>2026-08-26T10:16:26Z</time>
      </trkpt>
      <trkpt lat="45.72451" lon="4.67176">
        <ele>318</ele>
        <time>2026-08-26T10:16:27Z</time>
      </trkpt>
      <trkpt lat="45.72443" lon="4.67181">
        <ele>318</ele>
        <time>2026-08-26T10:16:28Z</time>
      </trkpt>
      <trkpt lat="45.72436" lon="4.67187">
        <ele>318.4</ele>
        <time>2026-08-26T10:16:29Z</time>
      </trkpt>
      <trkpt lat="45.7243" lon="4.67194">
        <ele>318.8</ele>
        <time>2026-08-26T10:16:30Z</time>
      </trkpt>
      <trkpt lat="45.72424" lon="4.672">
        <ele>319</ele>
        <time>2026-08-26T10:16:31Z</time>
      </trkpt>
      <trkpt lat="45.72418" lon="4.67205">
        <ele>319.2</ele>
        <time>2026-08-26T10:16:32Z</time>
      </trkpt>
      <trkpt lat="45.72413" lon="4.67211">
        <ele>319.6</ele>
        <time>2026-08-26T10:16:33Z</time>
      </trkpt>
      <trkpt lat="45.72408" lon="4.67216">
        <ele>319.8</ele>
        <time>2026-08-26T10:16:34Z</time>
      </trkpt>
      <trkpt lat="45.72403" lon="4.67221">
        <ele>320.2</ele>
        <time>2026-08-26T10:16:35Z</time>
      </trkpt>
      <trkpt lat="45.72399" lon="4.67226">
        <ele>320.4</ele>
        <time>2026-08-26T10:16:36Z</time>
      </trkpt>
      <trkpt lat="45.72394" lon="4.6723">
        <ele>320.8</ele>
        <time>2026-08-26T10:16:37Z</time>
      </trkpt>
      <trkpt lat="45.7239" lon="4.67235">
        <ele>321.4</ele>
        <time>2026-08-26T10:16:38Z</time>
      </trkpt>
      <trkpt lat="45.72386" lon="4.6724">
        <ele>321.8</ele>
        <time>2026-08-26T10:16:39Z</time>
      </trkpt>
      <trkpt lat="45.72382" lon="4.67244">
        <ele>322.2</ele>
        <time>2026-08-26T10:16:40Z</time>
      </trkpt>
      <trkpt lat="45.7238" lon="4.6725">
        <ele>322.6</ele>
        <time>2026-08-26T10:16:41Z</time>
      </trkpt>
      <trkpt lat="45.72377" lon="4.67255">
        <ele>322.8</ele>
        <time>2026-08-26T10:16:42Z</time>
      </trkpt>
      <trkpt lat="45.72374" lon="4.6726">
        <ele>323</ele>
        <time>2026-08-26T10:16:43Z</time>
      </trkpt>
      <trkpt lat="45.72372" lon="4.67265">
        <ele>323.4</ele>
        <time>2026-08-26T10:16:44Z</time>
      </trkpt>
      <trkpt lat="45.72369" lon="4.67271">
        <ele>323.6</ele>
        <time>2026-08-26T10:16:45Z</time>
      </trkpt>
      <trkpt lat="45.72367" lon="4.67275">
        <ele>324</ele>
        <time>2026-08-26T10:16:46Z</time>
      </trkpt>
      <trkpt lat="45.72364" lon="4.6728">
        <ele>324.2</ele>
        <time>2026-08-26T10:16:47Z</time>
      </trkpt>
      <trkpt lat="45.72362" lon="4.67285">
        <ele>324.2</ele>
        <time>2026-08-26T10:16:48Z</time>
      </trkpt>
      <trkpt lat="45.7236" lon="4.6729">
        <ele>324.2</ele>
        <time>2026-08-26T10:16:49Z</time>
      </trkpt>
      <trkpt lat="45.72357" lon="4.67295">
        <ele>324.2</ele>
        <time>2026-08-26T10:16:50Z</time>
      </trkpt>
      <trkpt lat="45.72355" lon="4.67299">
        <ele>324.2</ele>
        <time>2026-08-26T10:16:51Z</time>
      </trkpt>
      <trkpt lat="45.72353" lon="4.67304">
        <ele>324.4</ele>
        <time>2026-08-26T10:16:52Z</time>
      </trkpt>
      <trkpt lat="45.7235" lon="4.67309">
        <ele>324.4</ele>
        <time>2026-08-26T10:16:53Z</time>
      </trkpt>
      <trkpt lat="45.72347" lon="4.67314">
        <ele>324.6</ele>
        <time>2026-08-26T10:16:54Z</time>
      </trkpt>
      <trkpt lat="45.72345" lon="4.67319">
        <ele>324.6</ele>
        <time>2026-08-26T10:16:55Z</time>
      </trkpt>
      <trkpt lat="45.72343" lon="4.67324">
        <ele>324.8</ele>
        <time>2026-08-26T10:16:56Z</time>
      </trkpt>
      <trkpt lat="45.72341" lon="4.67329">
        <ele>325</ele>
        <time>2026-08-26T10:16:57Z</time>
      </trkpt>
      <trkpt lat="45.72338" lon="4.67334">
        <ele>325</ele>
        <time>2026-08-26T10:16:58Z</time>
      </trkpt>
      <trkpt lat="45.72336" lon="4.67339">
        <ele>325.2</ele>
        <time>2026-08-26T10:16:59Z</time>
      </trkpt>
      <trkpt lat="45.72333" lon="4.67344">
        <ele>325.2</ele>
        <time>2026-08-26T10:17:00Z</time>
      </trkpt>
      <trkpt lat="45.72331" lon="4.67349">
        <ele>325.2</ele>
        <time>2026-08-26T10:17:01Z</time>
      </trkpt>
      <trkpt lat="45.72328" lon="4.67354">
        <ele>325.4</ele>
        <time>2026-08-26T10:17:02Z</time>
      </trkpt>
      <trkpt lat="45.72326" lon="4.67359">
        <ele>325.4</ele>
        <time>2026-08-26T10:17:03Z</time>
      </trkpt>
      <trkpt lat="45.72323" lon="4.67364">
        <ele>325.4</ele>
        <time>2026-08-26T10:17:04Z</time>
      </trkpt>
      <trkpt lat="45.72321" lon="4.6737">
        <ele>325.6</ele>
        <time>2026-08-26T10:17:05Z</time>
      </trkpt>
      <trkpt lat="45.72319" lon="4.67374">
        <ele>325.6</ele>
        <time>2026-08-26T10:17:06Z</time>
      </trkpt>
      <trkpt lat="45.72316" lon="4.67379">
        <ele>325.8</ele>
        <time>2026-08-26T10:17:07Z</time>
      </trkpt>
      <trkpt lat="45.72314" lon="4.67384">
        <ele>325.8</ele>
        <time>2026-08-26T10:17:08Z</time>
      </trkpt>
      <trkpt lat="45.72312" lon="4.67389">
        <ele>326</ele>
        <time>2026-08-26T10:17:09Z</time>
      </trkpt>
      <trkpt lat="45.72309" lon="4.67395">
        <ele>326</ele>
        <time>2026-08-26T10:17:10Z</time>
      </trkpt>
      <trkpt lat="45.72307" lon="4.674">
        <ele>326.2</ele>
        <time>2026-08-26T10:17:11Z</time>
      </trkpt>
      <trkpt lat="45.72305" lon="4.67405">
        <ele>326.2</ele>
        <time>2026-08-26T10:17:12Z</time>
      </trkpt>
      <trkpt lat="45.72303" lon="4.6741">
        <ele>326.4</ele>
        <time>2026-08-26T10:17:13Z</time>
      </trkpt>
      <trkpt lat="45.723" lon="4.67415">
        <ele>326.6</ele>
        <time>2026-08-26T10:17:14Z</time>
      </trkpt>
      <trkpt lat="45.72298" lon="4.6742">
        <ele>326.6</ele>
        <time>2026-08-26T10:17:15Z</time>
      </trkpt>
      <trkpt lat="45.72296" lon="4.67424">
        <ele>326.8</ele>
        <time>2026-08-26T10:17:16Z</time>
      </trkpt>
      <trkpt lat="45.72294" lon="4.67429">
        <ele>327</ele>
        <time>2026-08-26T10:17:17Z</time>
      </trkpt>
      <trkpt lat="45.72292" lon="4.67433">
        <ele>327.2</ele>
        <time>2026-08-26T10:17:18Z</time>
      </trkpt>
      <trkpt lat="45.7229" lon="4.67437">
        <ele>327.4</ele>
        <time>2026-08-26T10:17:19Z</time>
      </trkpt>
      <trkpt lat="45.72288" lon="4.67442">
        <ele>327.6</ele>
        <time>2026-08-26T10:17:20Z</time>
      </trkpt>
      <trkpt lat="45.72286" lon="4.67446">
        <ele>327.6</ele>
        <time>2026-08-26T10:17:21Z</time>
      </trkpt>
      <trkpt lat="45.72284" lon="4.67451">
        <ele>327.8</ele>
        <time>2026-08-26T10:17:22Z</time>
      </trkpt>
      <trkpt lat="45.72282" lon="4.67455">
        <ele>328</ele>
        <time>2026-08-26T10:17:23Z</time>
      </trkpt>
      <trkpt lat="45.7228" lon="4.67459">
        <ele>328</ele>
        <time>2026-08-26T10:17:24Z</time>
      </trkpt>
      <trkpt lat="45.72278" lon="4.67463">
        <ele>328</ele>
        <time>2026-08-26T10:17:25Z</time>
      </trkpt>
      <trkpt lat="45.72276" lon="4.67468">
        <ele>328.2</ele>
        <time>2026-08-26T10:17:26Z</time>
      </trkpt>
      <trkpt lat="45.72274" lon="4.67472">
        <ele>328.2</ele>
        <time>2026-08-26T10:17:27Z</time>
      </trkpt>
      <trkpt lat="45.72272" lon="4.67476">
        <ele>328.4</ele>
        <time>2026-08-26T10:17:28Z</time>
      </trkpt>
      <trkpt lat="45.7227" lon="4.6748">
        <ele>328.4</ele>
        <time>2026-08-26T10:17:29Z</time>
      </trkpt>
      <trkpt lat="45.72268" lon="4.67484">
        <ele>328.4</ele>
        <time>2026-08-26T10:17:30Z</time>
      </trkpt>
      <trkpt lat="45.72266" lon="4.67488">
        <ele>328.6</ele>
        <time>2026-08-26T10:17:31Z</time>
      </trkpt>
      <trkpt lat="45.72264" lon="4.67492">
        <ele>328.6</ele>
        <time>2026-08-26T10:17:32Z</time>
      </trkpt>
      <trkpt lat="45.72262" lon="4.67496">
        <ele>328.8</ele>
        <time>2026-08-26T10:17:33Z</time>
      </trkpt>
      <trkpt lat="45.7226" lon="4.675">
        <ele>328.8</ele>
        <time>2026-08-26T10:17:34Z</time>
      </trkpt>
      <trkpt lat="45.72258" lon="4.67504">
        <ele>329</ele>
        <time>2026-08-26T10:17:35Z</time>
      </trkpt>
      <trkpt lat="45.72257" lon="4.67508">
        <ele>329.2</ele>
        <time>2026-08-26T10:17:36Z</time>
      </trkpt>
      <trkpt lat="45.72255" lon="4.67512">
        <ele>329.4</ele>
        <time>2026-08-26T10:17:37Z</time>
      </trkpt>
      <trkpt lat="45.72254" lon="4.67515">
        <ele>329.6</ele>
        <time>2026-08-26T10:17:38Z</time>
      </trkpt>
      <trkpt lat="45.72252" lon="4.67519">
        <ele>329.6</ele>
        <time>2026-08-26T10:17:39Z</time>
      </trkpt>
      <trkpt lat="45.72251" lon="4.67522">
        <ele>329.8</ele>
        <time>2026-08-26T10:17:40Z</time>
      </trkpt>
      <trkpt lat="45.72249" lon="4.67525">
        <ele>330</ele>
        <time>2026-08-26T10:17:41Z</time>
      </trkpt>
      <trkpt lat="45.72247" lon="4.67529">
        <ele>330</ele>
        <time>2026-08-26T10:17:42Z</time>
      </trkpt>
      <trkpt lat="45.72245" lon="4.67533">
        <ele>330.2</ele>
        <time>2026-08-26T10:17:43Z</time>
      </trkpt>
      <trkpt lat="45.72243" lon="4.67537">
        <ele>330.4</ele>
        <time>2026-08-26T10:17:44Z</time>
      </trkpt>
      <trkpt lat="45.72242" lon="4.6754">
        <ele>330.6</ele>
        <time>2026-08-26T10:17:45Z</time>
      </trkpt>
      <trkpt lat="45.7224" lon="4.67544">
        <ele>330.8</ele>
        <time>2026-08-26T10:17:46Z</time>
      </trkpt>
      <trkpt lat="45.72239" lon="4.67548">
        <ele>331</ele>
        <time>2026-08-26T10:17:47Z</time>
      </trkpt>
      <trkpt lat="45.72237" lon="4.67553">
        <ele>331.2</ele>
        <time>2026-08-26T10:17:48Z</time>
      </trkpt>
      <trkpt lat="45.72236" lon="4.67557">
        <ele>331.2</ele>
        <time>2026-08-26T10:17:49Z</time>
      </trkpt>
      <trkpt lat="45.72234" lon="4.67561">
        <ele>331.4</ele>
        <time>2026-08-26T10:17:50Z</time>
      </trkpt>
      <trkpt lat="45.72232" lon="4.67565">
        <ele>331.6</ele>
        <time>2026-08-26T10:17:51Z</time>
      </trkpt>
      <trkpt lat="45.7223" lon="4.6757">
        <ele>331.8</ele>
        <time>2026-08-26T10:17:52Z</time>
      </trkpt>
      <trkpt lat="45.72229" lon="4.67574">
        <ele>331.8</ele>
        <time>2026-08-26T10:17:53Z</time>
      </trkpt>
      <trkpt lat="45.72227" lon="4.67579">
        <ele>331.8</ele>
        <time>2026-08-26T10:17:54Z</time>
      </trkpt>
      <trkpt lat="45.72225" lon="4.67583">
        <ele>332</ele>
        <time>2026-08-26T10:17:55Z</time>
      </trkpt>
      <trkpt lat="45.72224" lon="4.67588">
        <ele>332.2</ele>
        <time>2026-08-26T10:17:56Z</time>
      </trkpt>
      <trkpt lat="45.72222" lon="4.67592">
        <ele>332.2</ele>
        <time>2026-08-26T10:17:57Z</time>
      </trkpt>
      <trkpt lat="45.72221" lon="4.67597">
        <ele>332.4</ele>
        <time>2026-08-26T10:17:58Z</time>
      </trkpt>
      <trkpt lat="45.72219" lon="4.67602">
        <ele>332.4</ele>
        <time>2026-08-26T10:17:59Z</time>
      </trkpt>
      <trkpt lat="45.72217" lon="4.67607">
        <ele>332.6</ele>
        <time>2026-08-26T10:18:00Z</time>
      </trkpt>
      <trkpt lat="45.72216" lon="4.67612">
        <ele>332.6</ele>
        <time>2026-08-26T10:18:01Z</time>
      </trkpt>
      <trkpt lat="45.72214" lon="4.67617">
        <ele>332.6</ele>
        <time>2026-08-26T10:18:02Z</time>
      </trkpt>
      <trkpt lat="45.72212" lon="4.67622">
        <ele>332.4</ele>
        <time>2026-08-26T10:18:03Z</time>
      </trkpt>
      <trkpt lat="45.72211" lon="4.67627">
        <ele>332.4</ele>
        <time>2026-08-26T10:18:04Z</time>
      </trkpt>
      <trkpt lat="45.72209" lon="4.67632">
        <ele>332.2</ele>
        <time>2026-08-26T10:18:05Z</time>
      </trkpt>
      <trkpt lat="45.72207" lon="4.67638">
        <ele>332.2</ele>
        <time>2026-08-26T10:18:06Z</time>
      </trkpt>
      <trkpt lat="45.72204" lon="4.67643">
        <ele>332.2</ele>
        <time>2026-08-26T10:18:07Z</time>
      </trkpt>
      <trkpt lat="45.72202" lon="4.67648">
        <ele>332.4</ele>
        <time>2026-08-26T10:18:08Z</time>
      </trkpt>
      <trkpt lat="45.722" lon="4.67653">
        <ele>332.4</ele>
        <time>2026-08-26T10:18:09Z</time>
      </trkpt>
      <trkpt lat="45.72198" lon="4.67659">
        <ele>332.4</ele>
        <time>2026-08-26T10:18:10Z</time>
      </trkpt>
      <trkpt lat="45.72196" lon="4.67664">
        <ele>332.4</ele>
        <time>2026-08-26T10:18:11Z</time>
      </trkpt>
      <trkpt lat="45.72194" lon="4.6767">
        <ele>332.4</ele>
        <time>2026-08-26T10:18:12Z</time>
      </trkpt>
      <trkpt lat="45.72192" lon="4.67676">
        <ele>332.4</ele>
        <time>2026-08-26T10:18:13Z</time>
      </trkpt>
      <trkpt lat="45.7219" lon="4.67681">
        <ele>332.4</ele>
        <time>2026-08-26T10:18:14Z</time>
      </trkpt>
      <trkpt lat="45.72187" lon="4.67687">
        <ele>332.4</ele>
        <time>2026-08-26T10:18:15Z</time>
      </trkpt>
      <trkpt lat="45.72185" lon="4.67693">
        <ele>332.4</ele>
        <time>2026-08-26T10:18:16Z</time>
      </trkpt>
      <trkpt lat="45.72183" lon="4.67698">
        <ele>332.6</ele>
        <time>2026-08-26T10:18:17Z</time>
      </trkpt>
      <trkpt lat="45.72181" lon="4.67703">
        <ele>332.6</ele>
        <time>2026-08-26T10:18:18Z</time>
      </trkpt>
      <trkpt lat="45.72179" lon="4.67708">
        <ele>332.6</ele>
        <time>2026-08-26T10:18:19Z</time>
      </trkpt>
      <trkpt lat="45.72176" lon="4.67713">
        <ele>332.8</ele>
        <time>2026-08-26T10:18:20Z</time>
      </trkpt>
      <trkpt lat="45.72174" lon="4.67718">
        <ele>332.8</ele>
        <time>2026-08-26T10:18:21Z</time>
      </trkpt>
      <trkpt lat="45.72172" lon="4.67723">
        <ele>333</ele>
        <time>2026-08-26T10:18:22Z</time>
      </trkpt>
      <trkpt lat="45.7217" lon="4.67727">
        <ele>333.2</ele>
        <time>2026-08-26T10:18:23Z</time>
      </trkpt>
      <trkpt lat="45.72167" lon="4.67732">
        <ele>333.2</ele>
        <time>2026-08-26T10:18:24Z</time>
      </trkpt>
      <trkpt lat="45.72165" lon="4.67736">
        <ele>333.4</ele>
        <time>2026-08-26T10:18:25Z</time>
      </trkpt>
      <trkpt lat="45.72163" lon="4.67739">
        <ele>333.6</ele>
        <time>2026-08-26T10:18:26Z</time>
      </trkpt>
      <trkpt lat="45.72161" lon="4.67743">
        <ele>333.8</ele>
        <time>2026-08-26T10:18:27Z</time>
      </trkpt>
      <trkpt lat="45.72158" lon="4.67747">
        <ele>334</ele>
        <time>2026-08-26T10:18:28Z</time>
      </trkpt>
      <trkpt lat="45.72156" lon="4.6775">
        <ele>334.2</ele>
        <time>2026-08-26T10:18:29Z</time>
      </trkpt>
      <trkpt lat="45.72154" lon="4.67753">
        <ele>334.4</ele>
        <time>2026-08-26T10:18:30Z</time>
      </trkpt>
      <trkpt lat="45.72152" lon="4.67757">
        <ele>334.6</ele>
        <time>2026-08-26T10:18:31Z</time>
      </trkpt>
      <trkpt lat="45.7215" lon="4.67761">
        <ele>334.8</ele>
        <time>2026-08-26T10:18:32Z</time>
      </trkpt>
      <trkpt lat="45.72148" lon="4.67765">
        <ele>334.8</ele>
        <time>2026-08-26T10:18:33Z</time>
      </trkpt>
      <trkpt lat="45.72146" lon="4.67769">
        <ele>335</ele>
        <time>2026-08-26T10:18:34Z</time>
      </trkpt>
      <trkpt lat="45.72144" lon="4.67773">
        <ele>335.2</ele>
        <time>2026-08-26T10:18:35Z</time>
      </trkpt>
      <trkpt lat="45.72142" lon="4.67777">
        <ele>335.2</ele>
        <time>2026-08-26T10:18:36Z</time>
      </trkpt>
      <trkpt lat="45.7214" lon="4.6778">
        <ele>335.4</ele>
        <time>2026-08-26T10:18:37Z</time>
      </trkpt>
      <trkpt lat="45.72137" lon="4.67783">
        <ele>335.4</ele>
        <time>2026-08-26T10:18:38Z</time>
      </trkpt>
      <trkpt lat="45.72135" lon="4.67787">
        <ele>335.6</ele>
        <time>2026-08-26T10:18:39Z</time>
      </trkpt>
      <trkpt lat="45.72132" lon="4.6779">
        <ele>335.6</ele>
        <time>2026-08-26T10:18:40Z</time>
      </trkpt>
      <trkpt lat="45.7213" lon="4.67794">
        <ele>335.8</ele>
        <time>2026-08-26T10:18:41Z</time>
      </trkpt>
      <trkpt lat="45.72128" lon="4.67798">
        <ele>336</ele>
        <time>2026-08-26T10:18:42Z</time>
      </trkpt>
      <trkpt lat="45.72125" lon="4.67802">
        <ele>336</ele>
        <time>2026-08-26T10:18:43Z</time>
      </trkpt>
      <trkpt lat="45.72123" lon="4.67805">
        <ele>336.2</ele>
        <time>2026-08-26T10:18:44Z</time>
      </trkpt>
      <trkpt lat="45.72121" lon="4.67809">
        <ele>336.2</ele>
        <time>2026-08-26T10:18:45Z</time>
      </trkpt>
      <trkpt lat="45.72119" lon="4.67813">
        <ele>336.4</ele>
        <time>2026-08-26T10:18:46Z</time>
      </trkpt>
      <trkpt lat="45.72117" lon="4.67816">
        <ele>336.6</ele>
        <time>2026-08-26T10:18:47Z</time>
      </trkpt>
      <trkpt lat="45.72115" lon="4.6782">
        <ele>336.6</ele>
        <time>2026-08-26T10:18:48Z</time>
      </trkpt>
      <trkpt lat="45.72113" lon="4.67824">
        <ele>336.8</ele>
        <time>2026-08-26T10:18:49Z</time>
      </trkpt>
      <trkpt lat="45.72111" lon="4.67828">
        <ele>336.8</ele>
        <time>2026-08-26T10:18:50Z</time>
      </trkpt>
      <trkpt lat="45.72109" lon="4.67831">
        <ele>336.8</ele>
        <time>2026-08-26T10:18:51Z</time>
      </trkpt>
      <trkpt lat="45.72107" lon="4.67835">
        <ele>336.8</ele>
        <time>2026-08-26T10:18:52Z</time>
      </trkpt>
      <trkpt lat="45.72105" lon="4.67839">
        <ele>337</ele>
        <time>2026-08-26T10:18:53Z</time>
      </trkpt>
      <trkpt lat="45.72103" lon="4.67843">
        <ele>337</ele>
        <time>2026-08-26T10:18:54Z</time>
      </trkpt>
      <trkpt lat="45.72101" lon="4.67847">
        <ele>337.2</ele>
        <time>2026-08-26T10:18:55Z</time>
      </trkpt>
      <trkpt lat="45.721" lon="4.67851">
        <ele>337.4</ele>
        <time>2026-08-26T10:18:56Z</time>
      </trkpt>
      <trkpt lat="45.72098" lon="4.67856">
        <ele>337.6</ele>
        <time>2026-08-26T10:18:57Z</time>
      </trkpt>
      <trkpt lat="45.72096" lon="4.6786">
        <ele>337.8</ele>
        <time>2026-08-26T10:18:58Z</time>
      </trkpt>
      <trkpt lat="45.72094" lon="4.67864">
        <ele>338</ele>
        <time>2026-08-26T10:18:59Z</time>
      </trkpt>
      <trkpt lat="45.72092" lon="4.67868">
        <ele>338.2</ele>
        <time>2026-08-26T10:19:00Z</time>
      </trkpt>
      <trkpt lat="45.7209" lon="4.67872">
        <ele>338.2</ele>
        <time>2026-08-26T10:19:01Z</time>
      </trkpt>
      <trkpt lat="45.72088" lon="4.67877">
        <ele>338.4</ele>
        <time>2026-08-26T10:19:02Z</time>
      </trkpt>
      <trkpt lat="45.72087" lon="4.67881">
        <ele>338.4</ele>
        <time>2026-08-26T10:19:03Z</time>
      </trkpt>
      <trkpt lat="45.72085" lon="4.67886">
        <ele>338.6</ele>
        <time>2026-08-26T10:19:04Z</time>
      </trkpt>
      <trkpt lat="45.72083" lon="4.6789">
        <ele>338.6</ele>
        <time>2026-08-26T10:19:05Z</time>
      </trkpt>
      <trkpt lat="45.72081" lon="4.67894">
        <ele>338.6</ele>
        <time>2026-08-26T10:19:06Z</time>
      </trkpt>
      <trkpt lat="45.72079" lon="4.67899">
        <ele>338.8</ele>
        <time>2026-08-26T10:19:07Z</time>
      </trkpt>
      <trkpt lat="45.72077" lon="4.67903">
        <ele>338.8</ele>
        <time>2026-08-26T10:19:08Z</time>
      </trkpt>
      <trkpt lat="45.72076" lon="4.67908">
        <ele>339</ele>
        <time>2026-08-26T10:19:09Z</time>
      </trkpt>
      <trkpt lat="45.72074" lon="4.67912">
        <ele>339</ele>
        <time>2026-08-26T10:19:10Z</time>
      </trkpt>
      <trkpt lat="45.72072" lon="4.67917">
        <ele>339.2</ele>
        <time>2026-08-26T10:19:11Z</time>
      </trkpt>
      <trkpt lat="45.7207" lon="4.67922">
        <ele>339.2</ele>
        <time>2026-08-26T10:19:12Z</time>
      </trkpt>
      <trkpt lat="45.72069" lon="4.67926">
        <ele>339.4</ele>
        <time>2026-08-26T10:19:13Z</time>
      </trkpt>
      <trkpt lat="45.72067" lon="4.67931">
        <ele>339.4</ele>
        <time>2026-08-26T10:19:14Z</time>
      </trkpt>
      <trkpt lat="45.72065" lon="4.67936">
        <ele>339.6</ele>
        <time>2026-08-26T10:19:15Z</time>
      </trkpt>
      <trkpt lat="45.72063" lon="4.6794">
        <ele>339.6</ele>
        <time>2026-08-26T10:19:16Z</time>
      </trkpt>
      <trkpt lat="45.72061" lon="4.67945">
        <ele>339.8</ele>
        <time>2026-08-26T10:19:17Z</time>
      </trkpt>
      <trkpt lat="45.72059" lon="4.6795">
        <ele>339.8</ele>
        <time>2026-08-26T10:19:18Z</time>
      </trkpt>
      <trkpt lat="45.72058" lon="4.67955">
        <ele>339.8</ele>
        <time>2026-08-26T10:19:19Z</time>
      </trkpt>
      <trkpt lat="45.72055" lon="4.67961">
        <ele>340</ele>
        <time>2026-08-26T10:19:20Z</time>
      </trkpt>
      <trkpt lat="45.72054" lon="4.67966">
        <ele>340</ele>
        <time>2026-08-26T10:19:21Z</time>
      </trkpt>
      <trkpt lat="45.72052" lon="4.67971">
        <ele>340</ele>
        <time>2026-08-26T10:19:22Z</time>
      </trkpt>
      <trkpt lat="45.7205" lon="4.67977">
        <ele>340</ele>
        <time>2026-08-26T10:19:23Z</time>
      </trkpt>
      <trkpt lat="45.72048" lon="4.67983">
        <ele>340</ele>
        <time>2026-08-26T10:19:24Z</time>
      </trkpt>
      <trkpt lat="45.72046" lon="4.6799">
        <ele>340</ele>
        <time>2026-08-26T10:19:25Z</time>
      </trkpt>
      <trkpt lat="45.72044" lon="4.67996">
        <ele>339.8</ele>
        <time>2026-08-26T10:19:26Z</time>
      </trkpt>
      <trkpt lat="45.72042" lon="4.68004">
        <ele>339.8</ele>
        <time>2026-08-26T10:19:27Z</time>
      </trkpt>
      <trkpt lat="45.7204" lon="4.68012">
        <ele>339.6</ele>
        <time>2026-08-26T10:19:28Z</time>
      </trkpt>
      <trkpt lat="45.72038" lon="4.6802">
        <ele>339.4</ele>
        <time>2026-08-26T10:19:29Z</time>
      </trkpt>
      <trkpt lat="45.72036" lon="4.68029">
        <ele>339.2</ele>
        <time>2026-08-26T10:19:30Z</time>
      </trkpt>
      <trkpt lat="45.72034" lon="4.68037">
        <ele>339</ele>
        <time>2026-08-26T10:19:31Z</time>
      </trkpt>
      <trkpt lat="45.72032" lon="4.68046">
        <ele>338.8</ele>
        <time>2026-08-26T10:19:32Z</time>
      </trkpt>
      <trkpt lat="45.72029" lon="4.68056">
        <ele>338.6</ele>
        <time>2026-08-26T10:19:33Z</time>
      </trkpt>
      <trkpt lat="45.72027" lon="4.68065">
        <ele>338.4</ele>
        <time>2026-08-26T10:19:34Z</time>
      </trkpt>
      <trkpt lat="45.72024" lon="4.68075">
        <ele>338.2</ele>
        <time>2026-08-26T10:19:35Z</time>
      </trkpt>
      <trkpt lat="45.72022" lon="4.68084">
        <ele>338</ele>
        <time>2026-08-26T10:19:36Z</time>
      </trkpt>
      <trkpt lat="45.72019" lon="4.68094">
        <ele>337.8</ele>
        <time>2026-08-26T10:19:37Z</time>
      </trkpt>
      <trkpt lat="45.72017" lon="4.68103">
        <ele>337.6</ele>
        <time>2026-08-26T10:19:38Z</time>
      </trkpt>
      <trkpt lat="45.72015" lon="4.68113">
        <ele>337.4</ele>
        <time>2026-08-26T10:19:39Z</time>
      </trkpt>
      <trkpt lat="45.72013" lon="4.68123">
        <ele>337.2</ele>
        <time>2026-08-26T10:19:40Z</time>
      </trkpt>
      <trkpt lat="45.7201" lon="4.68132">
        <ele>337</ele>
        <time>2026-08-26T10:19:41Z</time>
      </trkpt>
      <trkpt lat="45.72008" lon="4.68142">
        <ele>336.8</ele>
        <time>2026-08-26T10:19:42Z</time>
      </trkpt>
      <trkpt lat="45.72005" lon="4.68152">
        <ele>336.6</ele>
        <time>2026-08-26T10:19:43Z</time>
      </trkpt>
      <trkpt lat="45.72003" lon="4.68162">
        <ele>336.4</ele>
        <time>2026-08-26T10:19:44Z</time>
      </trkpt>
      <trkpt lat="45.72" lon="4.68172">
        <ele>336</ele>
        <time>2026-08-26T10:19:45Z</time>
      </trkpt>
      <trkpt lat="45.71997" lon="4.68182">
        <ele>335.8</ele>
        <time>2026-08-26T10:19:46Z</time>
      </trkpt>
      <trkpt lat="45.71994" lon="4.68191">
        <ele>335.4</ele>
        <time>2026-08-26T10:19:47Z</time>
      </trkpt>
      <trkpt lat="45.71991" lon="4.68201">
        <ele>335.2</ele>
        <time>2026-08-26T10:19:48Z</time>
      </trkpt>
      <trkpt lat="45.71988" lon="4.68211">
        <ele>335</ele>
        <time>2026-08-26T10:19:49Z</time>
      </trkpt>
      <trkpt lat="45.71985" lon="4.68221">
        <ele>334.8</ele>
        <time>2026-08-26T10:19:50Z</time>
      </trkpt>
      <trkpt lat="45.71983" lon="4.6823">
        <ele>334.6</ele>
        <time>2026-08-26T10:19:51Z</time>
      </trkpt>
      <trkpt lat="45.7198" lon="4.68239">
        <ele>334.4</ele>
        <time>2026-08-26T10:19:52Z</time>
      </trkpt>
      <trkpt lat="45.71977" lon="4.68248">
        <ele>334.2</ele>
        <time>2026-08-26T10:19:53Z</time>
      </trkpt>
      <trkpt lat="45.71974" lon="4.68257">
        <ele>334.2</ele>
        <time>2026-08-26T10:19:54Z</time>
      </trkpt>
      <trkpt lat="45.71971" lon="4.68266">
        <ele>334.2</ele>
        <time>2026-08-26T10:19:55Z</time>
      </trkpt>
      <trkpt lat="45.71968" lon="4.68275">
        <ele>334.2</ele>
        <time>2026-08-26T10:19:56Z</time>
      </trkpt>
      <trkpt lat="45.71965" lon="4.68284">
        <ele>334.2</ele>
        <time>2026-08-26T10:19:57Z</time>
      </trkpt>
      <trkpt lat="45.71962" lon="4.68293">
        <ele>334.2</ele>
        <time>2026-08-26T10:19:58Z</time>
      </trkpt>
      <trkpt lat="45.71959" lon="4.68302">
        <ele>334.2</ele>
        <time>2026-08-26T10:19:59Z</time>
      </trkpt>
      <trkpt lat="45.71957" lon="4.6831">
        <ele>334</ele>
        <time>2026-08-26T10:20:00Z</time>
      </trkpt>
      <trkpt lat="45.71954" lon="4.68318">
        <ele>334</ele>
        <time>2026-08-26T10:20:01Z</time>
      </trkpt>
      <trkpt lat="45.71951" lon="4.68326">
        <ele>334</ele>
        <time>2026-08-26T10:20:02Z</time>
      </trkpt>
      <trkpt lat="45.71949" lon="4.68334">
        <ele>333.8</ele>
        <time>2026-08-26T10:20:03Z</time>
      </trkpt>
      <trkpt lat="45.71946" lon="4.68342">
        <ele>333.8</ele>
        <time>2026-08-26T10:20:04Z</time>
      </trkpt>
      <trkpt lat="45.71943" lon="4.6835">
        <ele>333.8</ele>
        <time>2026-08-26T10:20:05Z</time>
      </trkpt>
      <trkpt lat="45.7194" lon="4.68358">
        <ele>333.8</ele>
        <time>2026-08-26T10:20:06Z</time>
      </trkpt>
      <trkpt lat="45.71938" lon="4.68366">
        <ele>333.8</ele>
        <time>2026-08-26T10:20:07Z</time>
      </trkpt>
      <trkpt lat="45.71935" lon="4.68374">
        <ele>333.6</ele>
        <time>2026-08-26T10:20:08Z</time>
      </trkpt>
      <trkpt lat="45.71932" lon="4.68383">
        <ele>333.6</ele>
        <time>2026-08-26T10:20:09Z</time>
      </trkpt>
      <trkpt lat="45.71928" lon="4.68391">
        <ele>333.6</ele>
        <time>2026-08-26T10:20:10Z</time>
      </trkpt>
      <trkpt lat="45.71925" lon="4.684">
        <ele>333.2</ele>
        <time>2026-08-26T10:20:11Z</time>
      </trkpt>
      <trkpt lat="45.71922" lon="4.68409">
        <ele>333</ele>
        <time>2026-08-26T10:20:12Z</time>
      </trkpt>
      <trkpt lat="45.71919" lon="4.68418">
        <ele>332.6</ele>
        <time>2026-08-26T10:20:13Z</time>
      </trkpt>
      <trkpt lat="45.71916" lon="4.68427">
        <ele>332.2</ele>
        <time>2026-08-26T10:20:14Z</time>
      </trkpt>
      <trkpt lat="45.71913" lon="4.68435">
        <ele>331.8</ele>
        <time>2026-08-26T10:20:15Z</time>
      </trkpt>
      <trkpt lat="45.7191" lon="4.68444">
        <ele>331.6</ele>
        <time>2026-08-26T10:20:16Z</time>
      </trkpt>
      <trkpt lat="45.71907" lon="4.68453">
        <ele>331.2</ele>
        <time>2026-08-26T10:20:17Z</time>
      </trkpt>
      <trkpt lat="45.71904" lon="4.68462">
        <ele>331</ele>
        <time>2026-08-26T10:20:18Z</time>
      </trkpt>
      <trkpt lat="45.719" lon="4.6847">
        <ele>330.8</ele>
        <time>2026-08-26T10:20:19Z</time>
      </trkpt>
      <trkpt lat="45.71896" lon="4.68478">
        <ele>330.6</ele>
        <time>2026-08-26T10:20:20Z</time>
      </trkpt>
      <trkpt lat="45.71893" lon="4.68486">
        <ele>330.4</ele>
        <time>2026-08-26T10:20:21Z</time>
      </trkpt>
      <trkpt lat="45.71889" lon="4.68493">
        <ele>330.4</ele>
        <time>2026-08-26T10:20:22Z</time>
      </trkpt>
      <trkpt lat="45.71885" lon="4.68501">
        <ele>330.2</ele>
        <time>2026-08-26T10:20:23Z</time>
      </trkpt>
      <trkpt lat="45.71881" lon="4.68508">
        <ele>330.2</ele>
        <time>2026-08-26T10:20:24Z</time>
      </trkpt>
      <trkpt lat="45.71878" lon="4.68516">
        <ele>330.2</ele>
        <time>2026-08-26T10:20:25Z</time>
      </trkpt>
      <trkpt lat="45.71874" lon="4.68523">
        <ele>330.2</ele>
        <time>2026-08-26T10:20:26Z</time>
      </trkpt>
      <trkpt lat="45.7187" lon="4.6853">
        <ele>330.2</ele>
        <time>2026-08-26T10:20:27Z</time>
      </trkpt>
      <trkpt lat="45.71866" lon="4.68537">
        <ele>330.2</ele>
        <time>2026-08-26T10:20:28Z</time>
      </trkpt>
      <trkpt lat="45.71862" lon="4.68544">
        <ele>330.2</ele>
        <time>2026-08-26T10:20:29Z</time>
      </trkpt>
      <trkpt lat="45.71859" lon="4.68551">
        <ele>330.4</ele>
        <time>2026-08-26T10:20:30Z</time>
      </trkpt>
      <trkpt lat="45.71856" lon="4.68558">
        <ele>330.4</ele>
        <time>2026-08-26T10:20:31Z</time>
      </trkpt>
      <trkpt lat="45.71852" lon="4.68564">
        <ele>330.4</ele>
        <time>2026-08-26T10:20:32Z</time>
      </trkpt>
      <trkpt lat="45.71849" lon="4.68571">
        <ele>330.4</ele>
        <time>2026-08-26T10:20:33Z</time>
      </trkpt>
      <trkpt lat="45.71845" lon="4.68578">
        <ele>330.4</ele>
        <time>2026-08-26T10:20:34Z</time>
      </trkpt>
      <trkpt lat="45.71841" lon="4.68585">
        <ele>330.4</ele>
        <time>2026-08-26T10:20:35Z</time>
      </trkpt>
      <trkpt lat="45.71837" lon="4.68592">
        <ele>330.4</ele>
        <time>2026-08-26T10:20:36Z</time>
      </trkpt>
      <trkpt lat="45.71834" lon="4.68599">
        <ele>330.2</ele>
        <time>2026-08-26T10:20:37Z</time>
      </trkpt>
      <trkpt lat="45.71831" lon="4.68607">
        <ele>330.2</ele>
        <time>2026-08-26T10:20:38Z</time>
      </trkpt>
      <trkpt lat="45.71827" lon="4.68614">
        <ele>330</ele>
        <time>2026-08-26T10:20:39Z</time>
      </trkpt>
      <trkpt lat="45.71824" lon="4.68622">
        <ele>330</ele>
        <time>2026-08-26T10:20:40Z</time>
      </trkpt>
      <trkpt lat="45.7182" lon="4.68629">
        <ele>329.8</ele>
        <time>2026-08-26T10:20:41Z</time>
      </trkpt>
      <trkpt lat="45.71817" lon="4.68637">
        <ele>329.8</ele>
        <time>2026-08-26T10:20:42Z</time>
      </trkpt>
      <trkpt lat="45.71814" lon="4.68645">
        <ele>329.6</ele>
        <time>2026-08-26T10:20:43Z</time>
      </trkpt>
      <trkpt lat="45.71812" lon="4.68652">
        <ele>329.6</ele>
        <time>2026-08-26T10:20:44Z</time>
      </trkpt>
      <trkpt lat="45.71809" lon="4.6866">
        <ele>329.6</ele>
        <time>2026-08-26T10:20:45Z</time>
      </trkpt>
      <trkpt lat="45.71807" lon="4.68667">
        <ele>329.6</ele>
        <time>2026-08-26T10:20:46Z</time>
      </trkpt>
      <trkpt lat="45.71805" lon="4.68674">
        <ele>329.6</ele>
        <time>2026-08-26T10:20:47Z</time>
      </trkpt>
      <trkpt lat="45.71803" lon="4.68681">
        <ele>329.6</ele>
        <time>2026-08-26T10:20:48Z</time>
      </trkpt>
      <trkpt lat="45.71801" lon="4.68689">
        <ele>329.8</ele>
        <time>2026-08-26T10:20:49Z</time>
      </trkpt>
      <trkpt lat="45.718" lon="4.68696">
        <ele>330</ele>
        <time>2026-08-26T10:20:50Z</time>
      </trkpt>
      <trkpt lat="45.71799" lon="4.68702">
        <ele>330.2</ele>
        <time>2026-08-26T10:20:51Z</time>
      </trkpt>
      <trkpt lat="45.71797" lon="4.68708">
        <ele>330.4</ele>
        <time>2026-08-26T10:20:52Z</time>
      </trkpt>
      <trkpt lat="45.71794" lon="4.68712">
        <ele>330.6</ele>
        <time>2026-08-26T10:20:53Z</time>
      </trkpt>
      <trkpt lat="45.7179" lon="4.68716">
        <ele>330.6</ele>
        <time>2026-08-26T10:20:54Z</time>
      </trkpt>
      <trkpt lat="45.71786" lon="4.68721">
        <ele>330.4</ele>
        <time>2026-08-26T10:20:55Z</time>
      </trkpt>
      <trkpt lat="45.71783" lon="4.68728">
        <ele>330.2</ele>
        <time>2026-08-26T10:20:56Z</time>
      </trkpt>
      <trkpt lat="45.71779" lon="4.68735">
        <ele>329.8</ele>
        <time>2026-08-26T10:20:57Z</time>
      </trkpt>
      <trkpt lat="45.71775" lon="4.68744">
        <ele>329</ele>
        <time>2026-08-26T10:20:58Z</time>
      </trkpt>
      <trkpt lat="45.71771" lon="4.68752">
        <ele>328.4</ele>
        <time>2026-08-26T10:20:59Z</time>
      </trkpt>
      <trkpt lat="45.71766" lon="4.68761">
        <ele>327.6</ele>
        <time>2026-08-26T10:21:00Z</time>
      </trkpt>
      <trkpt lat="45.71761" lon="4.6877">
        <ele>326.8</ele>
        <time>2026-08-26T10:21:01Z</time>
      </trkpt>
      <trkpt lat="45.71757" lon="4.68779">
        <ele>326</ele>
        <time>2026-08-26T10:21:02Z</time>
      </trkpt>
      <trkpt lat="45.71752" lon="4.68788">
        <ele>325.4</ele>
        <time>2026-08-26T10:21:03Z</time>
      </trkpt>
      <trkpt lat="45.71748" lon="4.68797">
        <ele>325.6</ele>
        <time>2026-08-26T10:21:04Z</time>
      </trkpt>
      <trkpt lat="45.71744" lon="4.68806">
        <ele>325</ele>
        <time>2026-08-26T10:21:05Z</time>
      </trkpt>
      <trkpt lat="45.7174" lon="4.68814">
        <ele>325</ele>
        <time>2026-08-26T10:21:06Z</time>
      </trkpt>
      <trkpt lat="45.71735" lon="4.68822">
        <ele>324.8</ele>
        <time>2026-08-26T10:21:07Z</time>
      </trkpt>
      <trkpt lat="45.7173" lon="4.6883">
        <ele>324.6</ele>
        <time>2026-08-26T10:21:08Z</time>
      </trkpt>
      <trkpt lat="45.71726" lon="4.68837">
        <ele>324</ele>
        <time>2026-08-26T10:21:09Z</time>
      </trkpt>
      <trkpt lat="45.71722" lon="4.68845">
        <ele>323.8</ele>
        <time>2026-08-26T10:21:10Z</time>
      </trkpt>
      <trkpt lat="45.71717" lon="4.68852">
        <ele>323.8</ele>
        <time>2026-08-26T10:21:11Z</time>
      </trkpt>
      <trkpt lat="45.71713" lon="4.68859">
        <ele>323.8</ele>
        <time>2026-08-26T10:21:12Z</time>
      </trkpt>
      <trkpt lat="45.71708" lon="4.68867">
        <ele>324</ele>
        <time>2026-08-26T10:21:13Z</time>
      </trkpt>
      <trkpt lat="45.71705" lon="4.68874">
        <ele>324.2</ele>
        <time>2026-08-26T10:21:14Z</time>
      </trkpt>
      <trkpt lat="45.71701" lon="4.68881">
        <ele>324.2</ele>
        <time>2026-08-26T10:21:15Z</time>
      </trkpt>
      <trkpt lat="45.71697" lon="4.68888">
        <ele>324.2</ele>
        <time>2026-08-26T10:21:16Z</time>
      </trkpt>
      <trkpt lat="45.71693" lon="4.68894">
        <ele>324.4</ele>
        <time>2026-08-26T10:21:17Z</time>
      </trkpt>
      <trkpt lat="45.71689" lon="4.689">
        <ele>324.4</ele>
        <time>2026-08-26T10:21:18Z</time>
      </trkpt>
      <trkpt lat="45.71685" lon="4.68907">
        <ele>324.4</ele>
        <time>2026-08-26T10:21:19Z</time>
      </trkpt>
      <trkpt lat="45.71682" lon="4.68913">
        <ele>324.8</ele>
        <time>2026-08-26T10:21:20Z</time>
      </trkpt>
      <trkpt lat="45.71679" lon="4.68919">
        <ele>325</ele>
        <time>2026-08-26T10:21:21Z</time>
      </trkpt>
      <trkpt lat="45.71676" lon="4.68926">
        <ele>325.2</ele>
        <time>2026-08-26T10:21:22Z</time>
      </trkpt>
      <trkpt lat="45.71673" lon="4.68932">
        <ele>325.4</ele>
        <time>2026-08-26T10:21:23Z</time>
      </trkpt>
      <trkpt lat="45.7167" lon="4.68938">
        <ele>325.6</ele>
        <time>2026-08-26T10:21:24Z</time>
      </trkpt>
      <trkpt lat="45.71667" lon="4.68944">
        <ele>326</ele>
        <time>2026-08-26T10:21:25Z</time>
      </trkpt>
      <trkpt lat="45.71665" lon="4.68949">
        <ele>326.2</ele>
        <time>2026-08-26T10:21:26Z</time>
      </trkpt>
      <trkpt lat="45.71663" lon="4.68955">
        <ele>326.4</ele>
        <time>2026-08-26T10:21:27Z</time>
      </trkpt>
      <trkpt lat="45.7166" lon="4.68961">
        <ele>326.6</ele>
        <time>2026-08-26T10:21:28Z</time>
      </trkpt>
      <trkpt lat="45.71658" lon="4.68967">
        <ele>327</ele>
        <time>2026-08-26T10:21:29Z</time>
      </trkpt>
      <trkpt lat="45.71655" lon="4.68972">
        <ele>327</ele>
        <time>2026-08-26T10:21:30Z</time>
      </trkpt>
      <trkpt lat="45.71652" lon="4.68977">
        <ele>327</ele>
        <time>2026-08-26T10:21:31Z</time>
      </trkpt>
      <trkpt lat="45.7165" lon="4.68983">
        <ele>327</ele>
        <time>2026-08-26T10:21:32Z</time>
      </trkpt>
      <trkpt lat="45.71647" lon="4.68989">
        <ele>327</ele>
        <time>2026-08-26T10:21:33Z</time>
      </trkpt>
      <trkpt lat="45.71644" lon="4.68995">
        <ele>327</ele>
        <time>2026-08-26T10:21:34Z</time>
      </trkpt>
      <trkpt lat="45.71642" lon="4.69001">
        <ele>327</ele>
        <time>2026-08-26T10:21:35Z</time>
      </trkpt>
      <trkpt lat="45.71639" lon="4.69007">
        <ele>326.8</ele>
        <time>2026-08-26T10:21:36Z</time>
      </trkpt>
      <trkpt lat="45.71636" lon="4.69012">
        <ele>326.8</ele>
        <time>2026-08-26T10:21:37Z</time>
      </trkpt>
      <trkpt lat="45.71633" lon="4.69017">
        <ele>326.8</ele>
        <time>2026-08-26T10:21:38Z</time>
      </trkpt>
      <trkpt lat="45.7163" lon="4.69022">
        <ele>326.8</ele>
        <time>2026-08-26T10:21:39Z</time>
      </trkpt>
      <trkpt lat="45.71627" lon="4.69028">
        <ele>326.8</ele>
        <time>2026-08-26T10:21:40Z</time>
      </trkpt>
      <trkpt lat="45.71624" lon="4.69034">
        <ele>326.8</ele>
        <time>2026-08-26T10:21:41Z</time>
      </trkpt>
      <trkpt lat="45.71621" lon="4.6904">
        <ele>326.6</ele>
        <time>2026-08-26T10:21:42Z</time>
      </trkpt>
      <trkpt lat="45.71618" lon="4.69046">
        <ele>326.4</ele>
        <time>2026-08-26T10:21:43Z</time>
      </trkpt>
      <trkpt lat="45.71615" lon="4.69052">
        <ele>326.4</ele>
        <time>2026-08-26T10:21:44Z</time>
      </trkpt>
      <trkpt lat="45.71613" lon="4.69058">
        <ele>326.4</ele>
        <time>2026-08-26T10:21:45Z</time>
      </trkpt>
      <trkpt lat="45.7161" lon="4.69064">
        <ele>326.2</ele>
        <time>2026-08-26T10:21:46Z</time>
      </trkpt>
      <trkpt lat="45.71607" lon="4.6907">
        <ele>326.2</ele>
        <time>2026-08-26T10:21:47Z</time>
      </trkpt>
      <trkpt lat="45.71604" lon="4.69076">
        <ele>326.2</ele>
        <time>2026-08-26T10:21:48Z</time>
      </trkpt>
      <trkpt lat="45.71602" lon="4.69081">
        <ele>326</ele>
        <time>2026-08-26T10:21:49Z</time>
      </trkpt>
      <trkpt lat="45.716" lon="4.69087">
        <ele>326.2</ele>
        <time>2026-08-26T10:21:50Z</time>
      </trkpt>
      <trkpt lat="45.71598" lon="4.69092">
        <ele>326.2</ele>
        <time>2026-08-26T10:21:51Z</time>
      </trkpt>
      <trkpt lat="45.71596" lon="4.69098">
        <ele>326.2</ele>
        <time>2026-08-26T10:21:52Z</time>
      </trkpt>
      <trkpt lat="45.71595" lon="4.69102">
        <ele>326.2</ele>
        <time>2026-08-26T10:21:53Z</time>
      </trkpt>
      <trkpt lat="45.71593" lon="4.69107">
        <ele>326.4</ele>
        <time>2026-08-26T10:21:54Z</time>
      </trkpt>
      <trkpt lat="45.71592" lon="4.69112">
        <ele>326.2</ele>
        <time>2026-08-26T10:21:55Z</time>
      </trkpt>
      <trkpt lat="45.71589" lon="4.69118">
        <ele>326.2</ele>
        <time>2026-08-26T10:21:56Z</time>
      </trkpt>
      <trkpt lat="45.71586" lon="4.69124">
        <ele>326</ele>
        <time>2026-08-26T10:21:57Z</time>
      </trkpt>
      <trkpt lat="45.71583" lon="4.6913">
        <ele>325.8</ele>
        <time>2026-08-26T10:21:58Z</time>
      </trkpt>
      <trkpt lat="45.71579" lon="4.69136">
        <ele>325.4</ele>
        <time>2026-08-26T10:21:59Z</time>
      </trkpt>
      <trkpt lat="45.71575" lon="4.69143">
        <ele>325</ele>
        <time>2026-08-26T10:22:00Z</time>
      </trkpt>
      <trkpt lat="45.71572" lon="4.6915">
        <ele>324.8</ele>
        <time>2026-08-26T10:22:01Z</time>
      </trkpt>
      <trkpt lat="45.71568" lon="4.69157">
        <ele>324.4</ele>
        <time>2026-08-26T10:22:02Z</time>
      </trkpt>
      <trkpt lat="45.71564" lon="4.69165">
        <ele>324.2</ele>
        <time>2026-08-26T10:22:03Z</time>
      </trkpt>
      <trkpt lat="45.7156" lon="4.69172">
        <ele>324.2</ele>
        <time>2026-08-26T10:22:04Z</time>
      </trkpt>
      <trkpt lat="45.71557" lon="4.69179">
        <ele>323.8</ele>
        <time>2026-08-26T10:22:05Z</time>
      </trkpt>
      <trkpt lat="45.71553" lon="4.69186">
        <ele>323.8</ele>
        <time>2026-08-26T10:22:06Z</time>
      </trkpt>
      <trkpt lat="45.7155" lon="4.69193">
        <ele>323.6</ele>
        <time>2026-08-26T10:22:07Z</time>
      </trkpt>
      <trkpt lat="45.71547" lon="4.69199">
        <ele>323.6</ele>
        <time>2026-08-26T10:22:08Z</time>
      </trkpt>
      <trkpt lat="45.71543" lon="4.69206">
        <ele>323.6</ele>
        <time>2026-08-26T10:22:09Z</time>
      </trkpt>
      <trkpt lat="45.7154" lon="4.69212">
        <ele>323.6</ele>
        <time>2026-08-26T10:22:10Z</time>
      </trkpt>
      <trkpt lat="45.71537" lon="4.69219">
        <ele>323.4</ele>
        <time>2026-08-26T10:22:11Z</time>
      </trkpt>
      <trkpt lat="45.71533" lon="4.69225">
        <ele>323.4</ele>
        <time>2026-08-26T10:22:12Z</time>
      </trkpt>
      <trkpt lat="45.7153" lon="4.69232">
        <ele>323.2</ele>
        <time>2026-08-26T10:22:13Z</time>
      </trkpt>
      <trkpt lat="45.71526" lon="4.69239">
        <ele>323</ele>
        <time>2026-08-26T10:22:14Z</time>
      </trkpt>
      <trkpt lat="45.71523" lon="4.69246">
        <ele>322.8</ele>
        <time>2026-08-26T10:22:15Z</time>
      </trkpt>
      <trkpt lat="45.71519" lon="4.69254">
        <ele>322.6</ele>
        <time>2026-08-26T10:22:16Z</time>
      </trkpt>
      <trkpt lat="45.71516" lon="4.69261">
        <ele>322.6</ele>
        <time>2026-08-26T10:22:17Z</time>
      </trkpt>
      <trkpt lat="45.71512" lon="4.69267">
        <ele>322.4</ele>
        <time>2026-08-26T10:22:18Z</time>
      </trkpt>
      <trkpt lat="45.71509" lon="4.69274">
        <ele>322.4</ele>
        <time>2026-08-26T10:22:19Z</time>
      </trkpt>
      <trkpt lat="45.71505" lon="4.69281">
        <ele>322.2</ele>
        <time>2026-08-26T10:22:20Z</time>
      </trkpt>
      <trkpt lat="45.71502" lon="4.69287">
        <ele>322.2</ele>
        <time>2026-08-26T10:22:21Z</time>
      </trkpt>
      <trkpt lat="45.71499" lon="4.69293">
        <ele>322</ele>
        <time>2026-08-26T10:22:22Z</time>
      </trkpt>
      <trkpt lat="45.71496" lon="4.69299">
        <ele>321.8</ele>
        <time>2026-08-26T10:22:23Z</time>
      </trkpt>
      <trkpt lat="45.71493" lon="4.69304">
        <ele>321.6</ele>
        <time>2026-08-26T10:22:24Z</time>
      </trkpt>
      <trkpt lat="45.71491" lon="4.69309">
        <ele>321.6</ele>
        <time>2026-08-26T10:22:25Z</time>
      </trkpt>
      <trkpt lat="45.71489" lon="4.69312">
        <ele>321.8</ele>
        <time>2026-08-26T10:22:26Z</time>
      </trkpt>
      <trkpt lat="45.71487" lon="4.69315">
        <ele>321.8</ele>
        <time>2026-08-26T10:22:27Z</time>
      </trkpt>
      <trkpt lat="45.71486" lon="4.69317">
        <ele>322</ele>
        <time>2026-08-26T10:22:28Z</time>
      </trkpt>
      <trkpt lat="45.71484" lon="4.6932">
        <ele>322.2</ele>
        <time>2026-08-26T10:22:29Z</time>
      </trkpt>
      <trkpt lat="45.71482" lon="4.69324">
        <ele>322.4</ele>
        <time>2026-08-26T10:22:30Z</time>
      </trkpt>
      <trkpt lat="45.7148" lon="4.69329">
        <ele>322.2</ele>
        <time>2026-08-26T10:22:31Z</time>
      </trkpt>
      <trkpt lat="45.71478" lon="4.69333">
        <ele>322.2</ele>
        <time>2026-08-26T10:22:32Z</time>
      </trkpt>
      <trkpt lat="45.71475" lon="4.69338">
        <ele>322</ele>
        <time>2026-08-26T10:22:33Z</time>
      </trkpt>
      <trkpt lat="45.71472" lon="4.69344">
        <ele>322</ele>
        <time>2026-08-26T10:22:34Z</time>
      </trkpt>
      <trkpt lat="45.71469" lon="4.69349">
        <ele>321.8</ele>
        <time>2026-08-26T10:22:35Z</time>
      </trkpt>
      <trkpt lat="45.71466" lon="4.69353">
        <ele>321.8</ele>
        <time>2026-08-26T10:22:36Z</time>
      </trkpt>
      <trkpt lat="45.71463" lon="4.69358">
        <ele>321.8</ele>
        <time>2026-08-26T10:22:37Z</time>
      </trkpt>
      <trkpt lat="45.7146" lon="4.69363">
        <ele>321.8</ele>
        <time>2026-08-26T10:22:38Z</time>
      </trkpt>
      <trkpt lat="45.71456" lon="4.69368">
        <ele>322</ele>
        <time>2026-08-26T10:22:39Z</time>
      </trkpt>
      <trkpt lat="45.71453" lon="4.69373">
        <ele>322</ele>
        <time>2026-08-26T10:22:40Z</time>
      </trkpt>
      <trkpt lat="45.7145" lon="4.69378">
        <ele>322.2</ele>
        <time>2026-08-26T10:22:41Z</time>
      </trkpt>
      <trkpt lat="45.71446" lon="4.69384">
        <ele>322.2</ele>
        <time>2026-08-26T10:22:42Z</time>
      </trkpt>
      <trkpt lat="45.71443" lon="4.69389">
        <ele>322</ele>
        <time>2026-08-26T10:22:43Z</time>
      </trkpt>
      <trkpt lat="45.71439" lon="4.69394">
        <ele>322</ele>
        <time>2026-08-26T10:22:44Z</time>
      </trkpt>
      <trkpt lat="45.71436" lon="4.694">
        <ele>321.8</ele>
        <time>2026-08-26T10:22:45Z</time>
      </trkpt>
      <trkpt lat="45.71432" lon="4.69406">
        <ele>321.8</ele>
        <time>2026-08-26T10:22:46Z</time>
      </trkpt>
      <trkpt lat="45.71428" lon="4.69411">
        <ele>321.8</ele>
        <time>2026-08-26T10:22:47Z</time>
      </trkpt>
      <trkpt lat="45.71425" lon="4.69418">
        <ele>321.8</ele>
        <time>2026-08-26T10:22:48Z</time>
      </trkpt>
      <trkpt lat="45.71421" lon="4.69424">
        <ele>321.6</ele>
        <time>2026-08-26T10:22:49Z</time>
      </trkpt>
      <trkpt lat="45.71417" lon="4.6943">
        <ele>321.6</ele>
        <time>2026-08-26T10:22:50Z</time>
      </trkpt>
      <trkpt lat="45.71414" lon="4.69436">
        <ele>321.4</ele>
        <time>2026-08-26T10:22:51Z</time>
      </trkpt>
      <trkpt lat="45.7141" lon="4.69442">
        <ele>321.2</ele>
        <time>2026-08-26T10:22:52Z</time>
      </trkpt>
      <trkpt lat="45.71406" lon="4.69449">
        <ele>321</ele>
        <time>2026-08-26T10:22:53Z</time>
      </trkpt>
      <trkpt lat="45.71403" lon="4.69455">
        <ele>321</ele>
        <time>2026-08-26T10:22:54Z</time>
      </trkpt>
      <trkpt lat="45.714" lon="4.69462">
        <ele>320.8</ele>
        <time>2026-08-26T10:22:55Z</time>
      </trkpt>
      <trkpt lat="45.71397" lon="4.69468">
        <ele>320.8</ele>
        <time>2026-08-26T10:22:56Z</time>
      </trkpt>
      <trkpt lat="45.71393" lon="4.69475">
        <ele>320.8</ele>
        <time>2026-08-26T10:22:57Z</time>
      </trkpt>
      <trkpt lat="45.7139" lon="4.69482">
        <ele>320.8</ele>
        <time>2026-08-26T10:22:58Z</time>
      </trkpt>
      <trkpt lat="45.71387" lon="4.69488">
        <ele>320.6</ele>
        <time>2026-08-26T10:22:59Z</time>
      </trkpt>
      <trkpt lat="45.71384" lon="4.69495">
        <ele>320.6</ele>
        <time>2026-08-26T10:23:00Z</time>
      </trkpt>
      <trkpt lat="45.71381" lon="4.69502">
        <ele>320.4</ele>
        <time>2026-08-26T10:23:01Z</time>
      </trkpt>
      <trkpt lat="45.71378" lon="4.69508">
        <ele>320.4</ele>
        <time>2026-08-26T10:23:02Z</time>
      </trkpt>
      <trkpt lat="45.71374" lon="4.69515">
        <ele>320.4</ele>
        <time>2026-08-26T10:23:03Z</time>
      </trkpt>
      <trkpt lat="45.71371" lon="4.69522">
        <ele>320.2</ele>
        <time>2026-08-26T10:23:04Z</time>
      </trkpt>
      <trkpt lat="45.71368" lon="4.69529">
        <ele>320</ele>
        <time>2026-08-26T10:23:05Z</time>
      </trkpt>
      <trkpt lat="45.71364" lon="4.69537">
        <ele>320</ele>
        <time>2026-08-26T10:23:06Z</time>
      </trkpt>
      <trkpt lat="45.71361" lon="4.69544">
        <ele>319.8</ele>
        <time>2026-08-26T10:23:07Z</time>
      </trkpt>
      <trkpt lat="45.71357" lon="4.69551">
        <ele>319.6</ele>
        <time>2026-08-26T10:23:08Z</time>
      </trkpt>
      <trkpt lat="45.71353" lon="4.69559">
        <ele>319.4</ele>
        <time>2026-08-26T10:23:09Z</time>
      </trkpt>
      <trkpt lat="45.7135" lon="4.69567">
        <ele>319.4</ele>
        <time>2026-08-26T10:23:10Z</time>
      </trkpt>
      <trkpt lat="45.71346" lon="4.69574">
        <ele>319.2</ele>
        <time>2026-08-26T10:23:11Z</time>
      </trkpt>
      <trkpt lat="45.71343" lon="4.69582">
        <ele>319.2</ele>
        <time>2026-08-26T10:23:12Z</time>
      </trkpt>
      <trkpt lat="45.7134" lon="4.6959">
        <ele>319</ele>
        <time>2026-08-26T10:23:13Z</time>
      </trkpt>
      <trkpt lat="45.71336" lon="4.69598">
        <ele>318.8</ele>
        <time>2026-08-26T10:23:14Z</time>
      </trkpt>
      <trkpt lat="45.71333" lon="4.69605">
        <ele>318.8</ele>
        <time>2026-08-26T10:23:15Z</time>
      </trkpt>
      <trkpt lat="45.71329" lon="4.69612">
        <ele>318.6</ele>
        <time>2026-08-26T10:23:16Z</time>
      </trkpt>
      <trkpt lat="45.71326" lon="4.69619">
        <ele>318.4</ele>
        <time>2026-08-26T10:23:17Z</time>
      </trkpt>
      <trkpt lat="45.71322" lon="4.69626">
        <ele>318.6</ele>
        <time>2026-08-26T10:23:18Z</time>
      </trkpt>
      <trkpt lat="45.71319" lon="4.69633">
        <ele>318.6</ele>
        <time>2026-08-26T10:23:19Z</time>
      </trkpt>
      <trkpt lat="45.71316" lon="4.6964">
        <ele>318.6</ele>
        <time>2026-08-26T10:23:20Z</time>
      </trkpt>
      <trkpt lat="45.71313" lon="4.69647">
        <ele>318.6</ele>
        <time>2026-08-26T10:23:21Z</time>
      </trkpt>
      <trkpt lat="45.7131" lon="4.69654">
        <ele>318.4</ele>
        <time>2026-08-26T10:23:22Z</time>
      </trkpt>
      <trkpt lat="45.71307" lon="4.69661">
        <ele>318.4</ele>
        <time>2026-08-26T10:23:23Z</time>
      </trkpt>
      <trkpt lat="45.71304" lon="4.69668">
        <ele>318.2</ele>
        <time>2026-08-26T10:23:24Z</time>
      </trkpt>
      <trkpt lat="45.713" lon="4.69675">
        <ele>318.2</ele>
        <time>2026-08-26T10:23:25Z</time>
      </trkpt>
      <trkpt lat="45.71297" lon="4.69681">
        <ele>318</ele>
        <time>2026-08-26T10:23:26Z</time>
      </trkpt>
      <trkpt lat="45.71293" lon="4.69688">
        <ele>318</ele>
        <time>2026-08-26T10:23:27Z</time>
      </trkpt>
      <trkpt lat="45.7129" lon="4.69695">
        <ele>317.8</ele>
        <time>2026-08-26T10:23:28Z</time>
      </trkpt>
      <trkpt lat="45.71286" lon="4.69701">
        <ele>317.8</ele>
        <time>2026-08-26T10:23:29Z</time>
      </trkpt>
      <trkpt lat="45.71283" lon="4.69708">
        <ele>317.8</ele>
        <time>2026-08-26T10:23:30Z</time>
      </trkpt>
      <trkpt lat="45.7128" lon="4.69715">
        <ele>317.8</ele>
        <time>2026-08-26T10:23:31Z</time>
      </trkpt>
      <trkpt lat="45.71276" lon="4.69722">
        <ele>317.8</ele>
        <time>2026-08-26T10:23:32Z</time>
      </trkpt>
      <trkpt lat="45.71273" lon="4.69729">
        <ele>317.8</ele>
        <time>2026-08-26T10:23:33Z</time>
      </trkpt>
      <trkpt lat="45.7127" lon="4.69737">
        <ele>318</ele>
        <time>2026-08-26T10:23:34Z</time>
      </trkpt>
      <trkpt lat="45.71266" lon="4.69744">
        <ele>317.8</ele>
        <time>2026-08-26T10:23:35Z</time>
      </trkpt>
      <trkpt lat="45.71263" lon="4.69751">
        <ele>317.8</ele>
        <time>2026-08-26T10:23:36Z</time>
      </trkpt>
      <trkpt lat="45.71259" lon="4.69758">
        <ele>317.8</ele>
        <time>2026-08-26T10:23:37Z</time>
      </trkpt>
      <trkpt lat="45.71256" lon="4.69766">
        <ele>317.6</ele>
        <time>2026-08-26T10:23:38Z</time>
      </trkpt>
      <trkpt lat="45.71252" lon="4.69773">
        <ele>317.4</ele>
        <time>2026-08-26T10:23:39Z</time>
      </trkpt>
      <trkpt lat="45.71249" lon="4.6978">
        <ele>317.6</ele>
        <time>2026-08-26T10:23:40Z</time>
      </trkpt>
      <trkpt lat="45.71246" lon="4.69788">
        <ele>317.4</ele>
        <time>2026-08-26T10:23:41Z</time>
      </trkpt>
      <trkpt lat="45.71242" lon="4.69795">
        <ele>317.4</ele>
        <time>2026-08-26T10:23:42Z</time>
      </trkpt>
      <trkpt lat="45.71239" lon="4.69802">
        <ele>317.4</ele>
        <time>2026-08-26T10:23:43Z</time>
      </trkpt>
      <trkpt lat="45.71235" lon="4.69809">
        <ele>317.6</ele>
        <time>2026-08-26T10:23:44Z</time>
      </trkpt>
      <trkpt lat="45.71232" lon="4.69816">
        <ele>317.6</ele>
        <time>2026-08-26T10:23:45Z</time>
      </trkpt>
      <trkpt lat="45.71228" lon="4.69824">
        <ele>317.4</ele>
        <time>2026-08-26T10:23:46Z</time>
      </trkpt>
      <trkpt lat="45.71225" lon="4.6983">
        <ele>317.4</ele>
        <time>2026-08-26T10:23:47Z</time>
      </trkpt>
      <trkpt lat="45.71221" lon="4.69837">
        <ele>317.4</ele>
        <time>2026-08-26T10:23:48Z</time>
      </trkpt>
      <trkpt lat="45.71218" lon="4.69844">
        <ele>317.2</ele>
        <time>2026-08-26T10:23:49Z</time>
      </trkpt>
      <trkpt lat="45.71215" lon="4.69851">
        <ele>317</ele>
        <time>2026-08-26T10:23:50Z</time>
      </trkpt>
      <trkpt lat="45.71211" lon="4.69858">
        <ele>316.8</ele>
        <time>2026-08-26T10:23:51Z</time>
      </trkpt>
      <trkpt lat="45.71208" lon="4.69865">
        <ele>316.8</ele>
        <time>2026-08-26T10:23:52Z</time>
      </trkpt>
      <trkpt lat="45.71205" lon="4.69872">
        <ele>316.8</ele>
        <time>2026-08-26T10:23:53Z</time>
      </trkpt>
      <trkpt lat="45.71201" lon="4.69879">
        <ele>316.8</ele>
        <time>2026-08-26T10:23:54Z</time>
      </trkpt>
      <trkpt lat="45.71198" lon="4.69885">
        <ele>316.8</ele>
        <time>2026-08-26T10:23:55Z</time>
      </trkpt>
      <trkpt lat="45.71194" lon="4.69891">
        <ele>316.8</ele>
        <time>2026-08-26T10:23:56Z</time>
      </trkpt>
      <trkpt lat="45.7119" lon="4.69897">
        <ele>316.6</ele>
        <time>2026-08-26T10:23:57Z</time>
      </trkpt>
      <trkpt lat="45.71186" lon="4.69903">
        <ele>316.6</ele>
        <time>2026-08-26T10:23:58Z</time>
      </trkpt>
      <trkpt lat="45.71182" lon="4.69909">
        <ele>316.4</ele>
        <time>2026-08-26T10:23:59Z</time>
      </trkpt>
      <trkpt lat="45.71177" lon="4.69915">
        <ele>316.4</ele>
        <time>2026-08-26T10:24:00Z</time>
      </trkpt>
      <trkpt lat="45.71174" lon="4.69921">
        <ele>316.2</ele>
        <time>2026-08-26T10:24:01Z</time>
      </trkpt>
      <trkpt lat="45.7117" lon="4.69928">
        <ele>316.2</ele>
        <time>2026-08-26T10:24:02Z</time>
      </trkpt>
      <trkpt lat="45.71165" lon="4.69934">
        <ele>316</ele>
        <time>2026-08-26T10:24:03Z</time>
      </trkpt>
      <trkpt lat="45.71161" lon="4.69941">
        <ele>316</ele>
        <time>2026-08-26T10:24:04Z</time>
      </trkpt>
      <trkpt lat="45.71157" lon="4.69947">
        <ele>316</ele>
        <time>2026-08-26T10:24:05Z</time>
      </trkpt>
      <trkpt lat="45.71152" lon="4.69953">
        <ele>316</ele>
        <time>2026-08-26T10:24:06Z</time>
      </trkpt>
      <trkpt lat="45.71148" lon="4.69959">
        <ele>315.8</ele>
        <time>2026-08-26T10:24:07Z</time>
      </trkpt>
      <trkpt lat="45.71145" lon="4.69966">
        <ele>315.6</ele>
        <time>2026-08-26T10:24:08Z</time>
      </trkpt>
      <trkpt lat="45.7114" lon="4.69972">
        <ele>315.6</ele>
        <time>2026-08-26T10:24:09Z</time>
      </trkpt>
      <trkpt lat="45.71136" lon="4.69978">
        <ele>315.4</ele>
        <time>2026-08-26T10:24:10Z</time>
      </trkpt>
      <trkpt lat="45.71132" lon="4.69985">
        <ele>315.4</ele>
        <time>2026-08-26T10:24:11Z</time>
      </trkpt>
      <trkpt lat="45.71128" lon="4.69991">
        <ele>315.2</ele>
        <time>2026-08-26T10:24:12Z</time>
      </trkpt>
      <trkpt lat="45.71124" lon="4.69998">
        <ele>315.2</ele>
        <time>2026-08-26T10:24:13Z</time>
      </trkpt>
      <trkpt lat="45.7112" lon="4.70004">
        <ele>315.2</ele>
        <time>2026-08-26T10:24:14Z</time>
      </trkpt>
      <trkpt lat="45.71116" lon="4.7001">
        <ele>315.2</ele>
        <time>2026-08-26T10:24:15Z</time>
      </trkpt>
      <trkpt lat="45.71112" lon="4.70017">
        <ele>315</ele>
        <time>2026-08-26T10:24:16Z</time>
      </trkpt>
      <trkpt lat="45.71108" lon="4.70023">
        <ele>315</ele>
        <time>2026-08-26T10:24:17Z</time>
      </trkpt>
      <trkpt lat="45.71103" lon="4.70029">
        <ele>315</ele>
        <time>2026-08-26T10:24:18Z</time>
      </trkpt>
      <trkpt lat="45.711" lon="4.70035">
        <ele>314.8</ele>
        <time>2026-08-26T10:24:19Z</time>
      </trkpt>
      <trkpt lat="45.71096" lon="4.70042">
        <ele>314.8</ele>
        <time>2026-08-26T10:24:20Z</time>
      </trkpt>
      <trkpt lat="45.71092" lon="4.70048">
        <ele>314.8</ele>
        <time>2026-08-26T10:24:21Z</time>
      </trkpt>
      <trkpt lat="45.71088" lon="4.70054">
        <ele>314.6</ele>
        <time>2026-08-26T10:24:22Z</time>
      </trkpt>
      <trkpt lat="45.71084" lon="4.7006">
        <ele>314.6</ele>
        <time>2026-08-26T10:24:23Z</time>
      </trkpt>
      <trkpt lat="45.7108" lon="4.70066">
        <ele>314.6</ele>
        <time>2026-08-26T10:24:24Z</time>
      </trkpt>
      <trkpt lat="45.71077" lon="4.70073">
        <ele>314.6</ele>
        <time>2026-08-26T10:24:25Z</time>
      </trkpt>
      <trkpt lat="45.71073" lon="4.70079">
        <ele>314.8</ele>
        <time>2026-08-26T10:24:26Z</time>
      </trkpt>
      <trkpt lat="45.7107" lon="4.70085">
        <ele>315</ele>
        <time>2026-08-26T10:24:27Z</time>
      </trkpt>
      <trkpt lat="45.71066" lon="4.70091">
        <ele>315</ele>
        <time>2026-08-26T10:24:28Z</time>
      </trkpt>
      <trkpt lat="45.71063" lon="4.70098">
        <ele>315</ele>
        <time>2026-08-26T10:24:29Z</time>
      </trkpt>
      <trkpt lat="45.71059" lon="4.70104">
        <ele>315</ele>
        <time>2026-08-26T10:24:30Z</time>
      </trkpt>
      <trkpt lat="45.71056" lon="4.70111">
        <ele>314.8</ele>
        <time>2026-08-26T10:24:31Z</time>
      </trkpt>
      <trkpt lat="45.71053" lon="4.70117">
        <ele>314.8</ele>
        <time>2026-08-26T10:24:32Z</time>
      </trkpt>
      <trkpt lat="45.71049" lon="4.70124">
        <ele>315</ele>
        <time>2026-08-26T10:24:33Z</time>
      </trkpt>
      <trkpt lat="45.71046" lon="4.7013">
        <ele>315</ele>
        <time>2026-08-26T10:24:34Z</time>
      </trkpt>
      <trkpt lat="45.71043" lon="4.70137">
        <ele>315.2</ele>
        <time>2026-08-26T10:24:35Z</time>
      </trkpt>
      <trkpt lat="45.7104" lon="4.70143">
        <ele>315.2</ele>
        <time>2026-08-26T10:24:36Z</time>
      </trkpt>
      <trkpt lat="45.71037" lon="4.70149">
        <ele>315.4</ele>
        <time>2026-08-26T10:24:37Z</time>
      </trkpt>
      <trkpt lat="45.71034" lon="4.70156">
        <ele>315.2</ele>
        <time>2026-08-26T10:24:38Z</time>
      </trkpt>
      <trkpt lat="45.7103" lon="4.70162">
        <ele>315.2</ele>
        <time>2026-08-26T10:24:39Z</time>
      </trkpt>
      <trkpt lat="45.71027" lon="4.70169">
        <ele>315.2</ele>
        <time>2026-08-26T10:24:40Z</time>
      </trkpt>
      <trkpt lat="45.71024" lon="4.70175">
        <ele>315.4</ele>
        <time>2026-08-26T10:24:41Z</time>
      </trkpt>
      <trkpt lat="45.71021" lon="4.70182">
        <ele>315.2</ele>
        <time>2026-08-26T10:24:42Z</time>
      </trkpt>
      <trkpt lat="45.71018" lon="4.70188">
        <ele>315.2</ele>
        <time>2026-08-26T10:24:43Z</time>
      </trkpt>
      <trkpt lat="45.71015" lon="4.70194">
        <ele>315.2</ele>
        <time>2026-08-26T10:24:44Z</time>
      </trkpt>
      <trkpt lat="45.71012" lon="4.70201">
        <ele>315.2</ele>
        <time>2026-08-26T10:24:45Z</time>
      </trkpt>
      <trkpt lat="45.71009" lon="4.70207">
        <ele>315</ele>
        <time>2026-08-26T10:24:46Z</time>
      </trkpt>
      <trkpt lat="45.71006" lon="4.70213">
        <ele>315</ele>
        <time>2026-08-26T10:24:47Z</time>
      </trkpt>
      <trkpt lat="45.71003" lon="4.70219">
        <ele>315</ele>
        <time>2026-08-26T10:24:48Z</time>
      </trkpt>
      <trkpt lat="45.71" lon="4.70225">
        <ele>315.2</ele>
        <time>2026-08-26T10:24:49Z</time>
      </trkpt>
      <trkpt lat="45.70998" lon="4.70231">
        <ele>315.2</ele>
        <time>2026-08-26T10:24:50Z</time>
      </trkpt>
      <trkpt lat="45.70994" lon="4.70238">
        <ele>315.4</ele>
        <time>2026-08-26T10:24:51Z</time>
      </trkpt>
      <trkpt lat="45.70992" lon="4.70244">
        <ele>315.4</ele>
        <time>2026-08-26T10:24:52Z</time>
      </trkpt>
      <trkpt lat="45.70989" lon="4.7025">
        <ele>315.6</ele>
        <time>2026-08-26T10:24:53Z</time>
      </trkpt>
      <trkpt lat="45.70986" lon="4.70256">
        <ele>315.6</ele>
        <time>2026-08-26T10:24:54Z</time>
      </trkpt>
      <trkpt lat="45.70983" lon="4.70262">
        <ele>315.8</ele>
        <time>2026-08-26T10:24:55Z</time>
      </trkpt>
      <trkpt lat="45.7098" lon="4.70268">
        <ele>316</ele>
        <time>2026-08-26T10:24:56Z</time>
      </trkpt>
      <trkpt lat="45.70978" lon="4.70274">
        <ele>316</ele>
        <time>2026-08-26T10:24:57Z</time>
      </trkpt>
      <trkpt lat="45.70975" lon="4.7028">
        <ele>316</ele>
        <time>2026-08-26T10:24:58Z</time>
      </trkpt>
      <trkpt lat="45.70972" lon="4.70286">
        <ele>316.2</ele>
        <time>2026-08-26T10:24:59Z</time>
      </trkpt>
      <trkpt lat="45.70969" lon="4.70292">
        <ele>316</ele>
        <time>2026-08-26T10:25:00Z</time>
      </trkpt>
      <trkpt lat="45.70966" lon="4.70297">
        <ele>316.2</ele>
        <time>2026-08-26T10:25:01Z</time>
      </trkpt>
      <trkpt lat="45.70963" lon="4.70303">
        <ele>316.2</ele>
        <time>2026-08-26T10:25:02Z</time>
      </trkpt>
      <trkpt lat="45.70961" lon="4.70309">
        <ele>316.2</ele>
        <time>2026-08-26T10:25:03Z</time>
      </trkpt>
      <trkpt lat="45.70958" lon="4.70314">
        <ele>316.2</ele>
        <time>2026-08-26T10:25:04Z</time>
      </trkpt>
      <trkpt lat="45.70955" lon="4.7032">
        <ele>316.4</ele>
        <time>2026-08-26T10:25:05Z</time>
      </trkpt>
      <trkpt lat="45.70953" lon="4.70325">
        <ele>316.4</ele>
        <time>2026-08-26T10:25:06Z</time>
      </trkpt>
      <trkpt lat="45.7095" lon="4.70331">
        <ele>316.6</ele>
        <time>2026-08-26T10:25:07Z</time>
      </trkpt>
      <trkpt lat="45.70947" lon="4.70336">
        <ele>316.8</ele>
        <time>2026-08-26T10:25:08Z</time>
      </trkpt>
      <trkpt lat="45.70945" lon="4.70342">
        <ele>316.8</ele>
        <time>2026-08-26T10:25:09Z</time>
      </trkpt>
      <trkpt lat="45.70942" lon="4.70347">
        <ele>316.8</ele>
        <time>2026-08-26T10:25:10Z</time>
      </trkpt>
      <trkpt lat="45.7094" lon="4.70352">
        <ele>317</ele>
        <time>2026-08-26T10:25:11Z</time>
      </trkpt>
      <trkpt lat="45.70937" lon="4.70357">
        <ele>317.2</ele>
        <time>2026-08-26T10:25:12Z</time>
      </trkpt>
      <trkpt lat="45.70935" lon="4.70362">
        <ele>317.2</ele>
        <time>2026-08-26T10:25:13Z</time>
      </trkpt>
      <trkpt lat="45.70933" lon="4.70367">
        <ele>317.2</ele>
        <time>2026-08-26T10:25:14Z</time>
      </trkpt>
      <trkpt lat="45.70931" lon="4.70372">
        <ele>317.4</ele>
        <time>2026-08-26T10:25:15Z</time>
      </trkpt>
      <trkpt lat="45.70928" lon="4.70376">
        <ele>317.4</ele>
        <time>2026-08-26T10:25:16Z</time>
      </trkpt>
      <trkpt lat="45.70926" lon="4.7038">
        <ele>317.6</ele>
        <time>2026-08-26T10:25:17Z</time>
      </trkpt>
      <trkpt lat="45.70923" lon="4.70384">
        <ele>317.6</ele>
        <time>2026-08-26T10:25:18Z</time>
      </trkpt>
      <trkpt lat="45.7092" lon="4.70386">
        <ele>317.8</ele>
        <time>2026-08-26T10:25:19Z</time>
      </trkpt>
      <trkpt lat="45.70917" lon="4.70388">
        <ele>318</ele>
        <time>2026-08-26T10:25:20Z</time>
      </trkpt>
      <trkpt lat="45.70915" lon="4.7039">
        <ele>318.2</ele>
        <time>2026-08-26T10:25:21Z</time>
      </trkpt>
      <trkpt lat="45.70914" lon="4.70394">
        <ele>318.4</ele>
        <time>2026-08-26T10:25:22Z</time>
      </trkpt>
      <trkpt lat="45.70914" lon="4.70398">
        <ele>318.6</ele>
        <time>2026-08-26T10:25:23Z</time>
      </trkpt>
      <trkpt lat="45.70915" lon="4.70403">
        <ele>318.6</ele>
        <time>2026-08-26T10:25:24Z</time>
      </trkpt>
      <trkpt lat="45.70915" lon="4.70408">
        <ele>318.8</ele>
        <time>2026-08-26T10:25:25Z</time>
      </trkpt>
      <trkpt lat="45.70915" lon="4.70413">
        <ele>318.8</ele>
        <time>2026-08-26T10:25:26Z</time>
      </trkpt>
      <trkpt lat="45.70915" lon="4.70419">
        <ele>318.6</ele>
        <time>2026-08-26T10:25:27Z</time>
      </trkpt>
      <trkpt lat="45.70914" lon="4.70424">
        <ele>318.6</ele>
        <time>2026-08-26T10:25:28Z</time>
      </trkpt>
      <trkpt lat="45.70912" lon="4.70429">
        <ele>318.6</ele>
        <time>2026-08-26T10:25:29Z</time>
      </trkpt>
      <trkpt lat="45.70909" lon="4.70434">
        <ele>318.4</ele>
        <time>2026-08-26T10:25:30Z</time>
      </trkpt>
      <trkpt lat="45.70907" lon="4.70438">
        <ele>318.6</ele>
        <time>2026-08-26T10:25:31Z</time>
      </trkpt>
      <trkpt lat="45.70904" lon="4.70443">
        <ele>318.6</ele>
        <time>2026-08-26T10:25:32Z</time>
      </trkpt>
      <trkpt lat="45.70902" lon="4.70447">
        <ele>318.6</ele>
        <time>2026-08-26T10:25:33Z</time>
      </trkpt>
      <trkpt lat="45.70899" lon="4.70451">
        <ele>318.6</ele>
        <time>2026-08-26T10:25:34Z</time>
      </trkpt>
      <trkpt lat="45.70897" lon="4.70456">
        <ele>318.8</ele>
        <time>2026-08-26T10:25:35Z</time>
      </trkpt>
      <trkpt lat="45.70895" lon="4.7046">
        <ele>318.8</ele>
        <time>2026-08-26T10:25:36Z</time>
      </trkpt>
      <trkpt lat="45.70892" lon="4.70464">
        <ele>318.8</ele>
        <time>2026-08-26T10:25:37Z</time>
      </trkpt>
      <trkpt lat="45.70889" lon="4.70468">
        <ele>318.8</ele>
        <time>2026-08-26T10:25:38Z</time>
      </trkpt>
      <trkpt lat="45.70885" lon="4.7047">
        <ele>318.8</ele>
        <time>2026-08-26T10:25:39Z</time>
      </trkpt>
      <trkpt lat="45.70881" lon="4.70471">
        <ele>318.8</ele>
        <time>2026-08-26T10:25:40Z</time>
      </trkpt>
      <trkpt lat="45.70876" lon="4.7047">
        <ele>318.8</ele>
        <time>2026-08-26T10:25:41Z</time>
      </trkpt>
      <trkpt lat="45.70873" lon="4.70467">
        <ele>319</ele>
        <time>2026-08-26T10:25:42Z</time>
      </trkpt>
      <trkpt lat="45.70869" lon="4.70464">
        <ele>319</ele>
        <time>2026-08-26T10:25:43Z</time>
      </trkpt>
      <trkpt lat="45.70866" lon="4.70461">
        <ele>319.2</ele>
        <time>2026-08-26T10:25:44Z</time>
      </trkpt>
      <trkpt lat="45.70862" lon="4.70457">
        <ele>319.2</ele>
        <time>2026-08-26T10:25:45Z</time>
      </trkpt>
      <trkpt lat="45.70859" lon="4.70453">
        <ele>319.2</ele>
        <time>2026-08-26T10:25:46Z</time>
      </trkpt>
      <trkpt lat="45.70855" lon="4.70449">
        <ele>319.2</ele>
        <time>2026-08-26T10:25:47Z</time>
      </trkpt>
      <trkpt lat="45.70851" lon="4.70445">
        <ele>319.2</ele>
        <time>2026-08-26T10:25:48Z</time>
      </trkpt>
      <trkpt lat="45.70848" lon="4.70441">
        <ele>319.2</ele>
        <time>2026-08-26T10:25:49Z</time>
      </trkpt>
      <trkpt lat="45.70844" lon="4.70437">
        <ele>319.2</ele>
        <time>2026-08-26T10:25:50Z</time>
      </trkpt>
      <trkpt lat="45.7084" lon="4.70433">
        <ele>319.2</ele>
        <time>2026-08-26T10:25:51Z</time>
      </trkpt>
      <trkpt lat="45.70837" lon="4.70429">
        <ele>319.2</ele>
        <time>2026-08-26T10:25:52Z</time>
      </trkpt>
      <trkpt lat="45.70833" lon="4.70425">
        <ele>319.4</ele>
        <time>2026-08-26T10:25:53Z</time>
      </trkpt>
      <trkpt lat="45.7083" lon="4.70421">
        <ele>319.4</ele>
        <time>2026-08-26T10:25:54Z</time>
      </trkpt>
      <trkpt lat="45.70826" lon="4.70417">
        <ele>319.2</ele>
        <time>2026-08-26T10:25:55Z</time>
      </trkpt>
      <trkpt lat="45.70822" lon="4.70414">
        <ele>319.2</ele>
        <time>2026-08-26T10:25:56Z</time>
      </trkpt>
      <trkpt lat="45.70818" lon="4.70412">
        <ele>319.4</ele>
        <time>2026-08-26T10:25:57Z</time>
      </trkpt>
      <trkpt lat="45.70814" lon="4.70413">
        <ele>319.4</ele>
        <time>2026-08-26T10:25:58Z</time>
      </trkpt>
      <trkpt lat="45.70811" lon="4.70415">
        <ele>319.6</ele>
        <time>2026-08-26T10:25:59Z</time>
      </trkpt>
      <trkpt lat="45.70809" lon="4.70419">
        <ele>319.8</ele>
        <time>2026-08-26T10:26:00Z</time>
      </trkpt>
      <trkpt lat="45.70808" lon="4.70424">
        <ele>320</ele>
        <time>2026-08-26T10:26:01Z</time>
      </trkpt>
      <trkpt lat="45.70806" lon="4.70429">
        <ele>320.2</ele>
        <time>2026-08-26T10:26:02Z</time>
      </trkpt>
      <trkpt lat="45.70805" lon="4.70435">
        <ele>320.4</ele>
        <time>2026-08-26T10:26:03Z</time>
      </trkpt>
      <trkpt lat="45.70804" lon="4.70441">
        <ele>320.4</ele>
        <time>2026-08-26T10:26:04Z</time>
      </trkpt>
      <trkpt lat="45.70804" lon="4.70448">
        <ele>320.4</ele>
        <time>2026-08-26T10:26:05Z</time>
      </trkpt>
      <trkpt lat="45.70803" lon="4.70454">
        <ele>320.4</ele>
        <time>2026-08-26T10:26:06Z</time>
      </trkpt>
      <trkpt lat="45.70802" lon="4.7046">
        <ele>320.4</ele>
        <time>2026-08-26T10:26:07Z</time>
      </trkpt>
      <trkpt lat="45.70801" lon="4.70467">
        <ele>320.4</ele>
        <time>2026-08-26T10:26:08Z</time>
      </trkpt>
      <trkpt lat="45.70799" lon="4.70473">
        <ele>320.4</ele>
        <time>2026-08-26T10:26:09Z</time>
      </trkpt>
      <trkpt lat="45.70798" lon="4.7048">
        <ele>320.6</ele>
        <time>2026-08-26T10:26:10Z</time>
      </trkpt>
      <trkpt lat="45.70797" lon="4.70486">
        <ele>320.6</ele>
        <time>2026-08-26T10:26:11Z</time>
      </trkpt>
      <trkpt lat="45.70796" lon="4.70493">
        <ele>320.8</ele>
        <time>2026-08-26T10:26:12Z</time>
      </trkpt>
      <trkpt lat="45.70794" lon="4.70499">
        <ele>320.8</ele>
        <time>2026-08-26T10:26:13Z</time>
      </trkpt>
      <trkpt lat="45.70793" lon="4.70505">
        <ele>320.8</ele>
        <time>2026-08-26T10:26:14Z</time>
      </trkpt>
      <trkpt lat="45.70791" lon="4.70511">
        <ele>320.8</ele>
        <time>2026-08-26T10:26:15Z</time>
      </trkpt>
      <trkpt lat="45.70789" lon="4.70518">
        <ele>320.8</ele>
        <time>2026-08-26T10:26:16Z</time>
      </trkpt>
      <trkpt lat="45.70788" lon="4.70524">
        <ele>320.6</ele>
        <time>2026-08-26T10:26:17Z</time>
      </trkpt>
      <trkpt lat="45.70786" lon="4.7053">
        <ele>320.6</ele>
        <time>2026-08-26T10:26:18Z</time>
      </trkpt>
      <trkpt lat="45.70785" lon="4.70537">
        <ele>320.4</ele>
        <time>2026-08-26T10:26:19Z</time>
      </trkpt>
      <trkpt lat="45.70783" lon="4.70543">
        <ele>320.4</ele>
        <time>2026-08-26T10:26:20Z</time>
      </trkpt>
      <trkpt lat="45.70781" lon="4.70548">
        <ele>320.4</ele>
        <time>2026-08-26T10:26:21Z</time>
      </trkpt>
      <trkpt lat="45.70778" lon="4.70554">
        <ele>320.4</ele>
        <time>2026-08-26T10:26:22Z</time>
      </trkpt>
      <trkpt lat="45.70776" lon="4.7056">
        <ele>320.2</ele>
        <time>2026-08-26T10:26:23Z</time>
      </trkpt>
      <trkpt lat="45.70773" lon="4.70566">
        <ele>320.2</ele>
        <time>2026-08-26T10:26:24Z</time>
      </trkpt>
      <trkpt lat="45.70769" lon="4.70573">
        <ele>320</ele>
        <time>2026-08-26T10:26:25Z</time>
      </trkpt>
      <trkpt lat="45.70766" lon="4.70579">
        <ele>320</ele>
        <time>2026-08-26T10:26:26Z</time>
      </trkpt>
      <trkpt lat="45.70764" lon="4.70585">
        <ele>319.8</ele>
        <time>2026-08-26T10:26:27Z</time>
      </trkpt>
      <trkpt lat="45.7076" lon="4.70591">
        <ele>319.8</ele>
        <time>2026-08-26T10:26:28Z</time>
      </trkpt>
      <trkpt lat="45.70756" lon="4.70597">
        <ele>319.6</ele>
        <time>2026-08-26T10:26:29Z</time>
      </trkpt>
      <trkpt lat="45.70752" lon="4.70603">
        <ele>319.4</ele>
        <time>2026-08-26T10:26:30Z</time>
      </trkpt>
      <trkpt lat="45.70748" lon="4.70609">
        <ele>319.4</ele>
        <time>2026-08-26T10:26:31Z</time>
      </trkpt>
      <trkpt lat="45.70745" lon="4.70616">
        <ele>319.2</ele>
        <time>2026-08-26T10:26:32Z</time>
      </trkpt>
      <trkpt lat="45.70741" lon="4.70622">
        <ele>319</ele>
        <time>2026-08-26T10:26:33Z</time>
      </trkpt>
      <trkpt lat="45.70738" lon="4.70628">
        <ele>318.8</ele>
        <time>2026-08-26T10:26:34Z</time>
      </trkpt>
      <trkpt lat="45.70734" lon="4.70635">
        <ele>318.6</ele>
        <time>2026-08-26T10:26:35Z</time>
      </trkpt>
      <trkpt lat="45.7073" lon="4.70641">
        <ele>318.4</ele>
        <time>2026-08-26T10:26:36Z</time>
      </trkpt>
      <trkpt lat="45.70726" lon="4.70648">
        <ele>318</ele>
        <time>2026-08-26T10:26:37Z</time>
      </trkpt>
      <trkpt lat="45.70722" lon="4.70655">
        <ele>317.6</ele>
        <time>2026-08-26T10:26:38Z</time>
      </trkpt>
      <trkpt lat="45.70718" lon="4.70663">
        <ele>317.2</ele>
        <time>2026-08-26T10:26:39Z</time>
      </trkpt>
      <trkpt lat="45.70714" lon="4.70671">
        <ele>316.8</ele>
        <time>2026-08-26T10:26:40Z</time>
      </trkpt>
      <trkpt lat="45.7071" lon="4.70679">
        <ele>316.2</ele>
        <time>2026-08-26T10:26:41Z</time>
      </trkpt>
      <trkpt lat="45.70705" lon="4.70688">
        <ele>315.6</ele>
        <time>2026-08-26T10:26:42Z</time>
      </trkpt>
      <trkpt lat="45.70699" lon="4.70696">
        <ele>315.2</ele>
        <time>2026-08-26T10:26:43Z</time>
      </trkpt>
      <trkpt lat="45.70693" lon="4.70704">
        <ele>314.6</ele>
        <time>2026-08-26T10:26:44Z</time>
      </trkpt>
      <trkpt lat="45.70687" lon="4.70712">
        <ele>314</ele>
        <time>2026-08-26T10:26:45Z</time>
      </trkpt>
      <trkpt lat="45.70681" lon="4.7072">
        <ele>313.4</ele>
        <time>2026-08-26T10:26:46Z</time>
      </trkpt>
      <trkpt lat="45.70675" lon="4.70727">
        <ele>312.8</ele>
        <time>2026-08-26T10:26:47Z</time>
      </trkpt>
      <trkpt lat="45.7067" lon="4.70734">
        <ele>312.2</ele>
        <time>2026-08-26T10:26:48Z</time>
      </trkpt>
      <trkpt lat="45.70664" lon="4.70742">
        <ele>312</ele>
        <time>2026-08-26T10:26:49Z</time>
      </trkpt>
      <trkpt lat="45.70659" lon="4.7075">
        <ele>311.6</ele>
        <time>2026-08-26T10:26:50Z</time>
      </trkpt>
      <trkpt lat="45.70653" lon="4.70758">
        <ele>311.4</ele>
        <time>2026-08-26T10:26:51Z</time>
      </trkpt>
      <trkpt lat="45.70647" lon="4.70766">
        <ele>311</ele>
        <time>2026-08-26T10:26:52Z</time>
      </trkpt>
      <trkpt lat="45.70641" lon="4.70774">
        <ele>310.8</ele>
        <time>2026-08-26T10:26:53Z</time>
      </trkpt>
      <trkpt lat="45.70636" lon="4.70782">
        <ele>310.6</ele>
        <time>2026-08-26T10:26:54Z</time>
      </trkpt>
      <trkpt lat="45.7063" lon="4.70791">
        <ele>310.4</ele>
        <time>2026-08-26T10:26:55Z</time>
      </trkpt>
      <trkpt lat="45.70624" lon="4.70799">
        <ele>310.2</ele>
        <time>2026-08-26T10:26:56Z</time>
      </trkpt>
      <trkpt lat="45.70619" lon="4.70807">
        <ele>310</ele>
        <time>2026-08-26T10:26:57Z</time>
      </trkpt>
      <trkpt lat="45.70613" lon="4.70815">
        <ele>309.8</ele>
        <time>2026-08-26T10:26:58Z</time>
      </trkpt>
      <trkpt lat="45.70608" lon="4.70823">
        <ele>309.8</ele>
        <time>2026-08-26T10:26:59Z</time>
      </trkpt>
      <trkpt lat="45.70602" lon="4.70831">
        <ele>309.8</ele>
        <time>2026-08-26T10:27:00Z</time>
      </trkpt>
      <trkpt lat="45.70597" lon="4.70838">
        <ele>309.8</ele>
        <time>2026-08-26T10:27:01Z</time>
      </trkpt>
      <trkpt lat="45.70592" lon="4.70846">
        <ele>309.8</ele>
        <time>2026-08-26T10:27:02Z</time>
      </trkpt>
      <trkpt lat="45.70587" lon="4.70853">
        <ele>309.8</ele>
        <time>2026-08-26T10:27:03Z</time>
      </trkpt>
      <trkpt lat="45.70582" lon="4.7086">
        <ele>309.8</ele>
        <time>2026-08-26T10:27:04Z</time>
      </trkpt>
      <trkpt lat="45.70577" lon="4.70867">
        <ele>309.8</ele>
        <time>2026-08-26T10:27:05Z</time>
      </trkpt>
      <trkpt lat="45.70573" lon="4.70874">
        <ele>309.8</ele>
        <time>2026-08-26T10:27:06Z</time>
      </trkpt>
      <trkpt lat="45.70568" lon="4.70881">
        <ele>309.6</ele>
        <time>2026-08-26T10:27:07Z</time>
      </trkpt>
      <trkpt lat="45.70564" lon="4.70888">
        <ele>309.6</ele>
        <time>2026-08-26T10:27:08Z</time>
      </trkpt>
      <trkpt lat="45.7056" lon="4.70895">
        <ele>309.8</ele>
        <time>2026-08-26T10:27:09Z</time>
      </trkpt>
      <trkpt lat="45.70556" lon="4.70902">
        <ele>309.8</ele>
        <time>2026-08-26T10:27:10Z</time>
      </trkpt>
      <trkpt lat="45.70553" lon="4.70911">
        <ele>309.6</ele>
        <time>2026-08-26T10:27:11Z</time>
      </trkpt>
      <trkpt lat="45.70551" lon="4.70919">
        <ele>309.8</ele>
        <time>2026-08-26T10:27:12Z</time>
      </trkpt>
      <trkpt lat="45.70549" lon="4.70929">
        <ele>309.8</ele>
        <time>2026-08-26T10:27:13Z</time>
      </trkpt>
      <trkpt lat="45.70547" lon="4.70938">
        <ele>309.8</ele>
        <time>2026-08-26T10:27:14Z</time>
      </trkpt>
      <trkpt lat="45.70546" lon="4.70948">
        <ele>310</ele>
        <time>2026-08-26T10:27:15Z</time>
      </trkpt>
      <trkpt lat="45.70545" lon="4.70957">
        <ele>310</ele>
        <time>2026-08-26T10:27:16Z</time>
      </trkpt>
      <trkpt lat="45.70544" lon="4.70966">
        <ele>310</ele>
        <time>2026-08-26T10:27:17Z</time>
      </trkpt>
      <trkpt lat="45.70543" lon="4.70976">
        <ele>310</ele>
        <time>2026-08-26T10:27:18Z</time>
      </trkpt>
      <trkpt lat="45.70542" lon="4.70985">
        <ele>310</ele>
        <time>2026-08-26T10:27:19Z</time>
      </trkpt>
      <trkpt lat="45.70541" lon="4.70994">
        <ele>309.8</ele>
        <time>2026-08-26T10:27:20Z</time>
      </trkpt>
      <trkpt lat="45.7054" lon="4.71004">
        <ele>309.8</ele>
        <time>2026-08-26T10:27:21Z</time>
      </trkpt>
      <trkpt lat="45.70539" lon="4.71013">
        <ele>309.8</ele>
        <time>2026-08-26T10:27:22Z</time>
      </trkpt>
      <trkpt lat="45.70538" lon="4.71022">
        <ele>309.6</ele>
        <time>2026-08-26T10:27:23Z</time>
      </trkpt>
      <trkpt lat="45.70538" lon="4.71031">
        <ele>309.6</ele>
        <time>2026-08-26T10:27:24Z</time>
      </trkpt>
      <trkpt lat="45.70538" lon="4.71041">
        <ele>309.6</ele>
        <time>2026-08-26T10:27:25Z</time>
      </trkpt>
      <trkpt lat="45.70539" lon="4.71049">
        <ele>309.6</ele>
        <time>2026-08-26T10:27:26Z</time>
      </trkpt>
      <trkpt lat="45.7054" lon="4.71058">
        <ele>309.8</ele>
        <time>2026-08-26T10:27:27Z</time>
      </trkpt>
      <trkpt lat="45.70541" lon="4.71067">
        <ele>309.8</ele>
        <time>2026-08-26T10:27:28Z</time>
      </trkpt>
      <trkpt lat="45.70542" lon="4.71075">
        <ele>309.8</ele>
        <time>2026-08-26T10:27:29Z</time>
      </trkpt>
      <trkpt lat="45.70544" lon="4.71084">
        <ele>310</ele>
        <time>2026-08-26T10:27:30Z</time>
      </trkpt>
      <trkpt lat="45.70545" lon="4.71092">
        <ele>310</ele>
        <time>2026-08-26T10:27:31Z</time>
      </trkpt>
      <trkpt lat="45.70546" lon="4.71101">
        <ele>310</ele>
        <time>2026-08-26T10:27:32Z</time>
      </trkpt>
      <trkpt lat="45.70546" lon="4.7111">
        <ele>310.4</ele>
        <time>2026-08-26T10:27:33Z</time>
      </trkpt>
      <trkpt lat="45.70547" lon="4.71118">
        <ele>310.4</ele>
        <time>2026-08-26T10:27:34Z</time>
      </trkpt>
      <trkpt lat="45.70547" lon="4.71126">
        <ele>310.4</ele>
        <time>2026-08-26T10:27:35Z</time>
      </trkpt>
      <trkpt lat="45.70547" lon="4.71134">
        <ele>310.6</ele>
        <time>2026-08-26T10:27:36Z</time>
      </trkpt>
      <trkpt lat="45.70546" lon="4.71142">
        <ele>310.6</ele>
        <time>2026-08-26T10:27:37Z</time>
      </trkpt>
      <trkpt lat="45.70545" lon="4.7115">
        <ele>310.8</ele>
        <time>2026-08-26T10:27:38Z</time>
      </trkpt>
      <trkpt lat="45.70544" lon="4.71157">
        <ele>310.8</ele>
        <time>2026-08-26T10:27:39Z</time>
      </trkpt>
      <trkpt lat="45.70543" lon="4.71164">
        <ele>311.2</ele>
        <time>2026-08-26T10:27:40Z</time>
      </trkpt>
      <trkpt lat="45.70542" lon="4.71171">
        <ele>311.2</ele>
        <time>2026-08-26T10:27:41Z</time>
      </trkpt>
      <trkpt lat="45.70541" lon="4.71179">
        <ele>311.6</ele>
        <time>2026-08-26T10:27:42Z</time>
      </trkpt>
      <trkpt lat="45.7054" lon="4.71186">
        <ele>311.8</ele>
        <time>2026-08-26T10:27:43Z</time>
      </trkpt>
      <trkpt lat="45.70538" lon="4.71193">
        <ele>311.8</ele>
        <time>2026-08-26T10:27:44Z</time>
      </trkpt>
      <trkpt lat="45.70537" lon="4.71199">
        <ele>312</ele>
        <time>2026-08-26T10:27:45Z</time>
      </trkpt>
      <trkpt lat="45.70536" lon="4.71206">
        <ele>312</ele>
        <time>2026-08-26T10:27:46Z</time>
      </trkpt>
      <trkpt lat="45.70534" lon="4.71212">
        <ele>312.2</ele>
        <time>2026-08-26T10:27:47Z</time>
      </trkpt>
      <trkpt lat="45.70533" lon="4.71218">
        <ele>312.2</ele>
        <time>2026-08-26T10:27:48Z</time>
      </trkpt>
      <trkpt lat="45.70531" lon="4.71224">
        <ele>312.4</ele>
        <time>2026-08-26T10:27:49Z</time>
      </trkpt>
      <trkpt lat="45.7053" lon="4.7123">
        <ele>312.4</ele>
        <time>2026-08-26T10:27:50Z</time>
      </trkpt>
      <trkpt lat="45.70528" lon="4.71235">
        <ele>312.6</ele>
        <time>2026-08-26T10:27:51Z</time>
      </trkpt>
      <trkpt lat="45.70527" lon="4.7124">
        <ele>312.8</ele>
        <time>2026-08-26T10:27:52Z</time>
      </trkpt>
      <trkpt lat="45.70526" lon="4.71246">
        <ele>313</ele>
        <time>2026-08-26T10:27:53Z</time>
      </trkpt>
      <trkpt lat="45.70524" lon="4.71251">
        <ele>313.2</ele>
        <time>2026-08-26T10:27:54Z</time>
      </trkpt>
      <trkpt lat="45.70523" lon="4.71256">
        <ele>313.2</ele>
        <time>2026-08-26T10:27:55Z</time>
      </trkpt>
      <trkpt lat="45.70521" lon="4.71262">
        <ele>313.4</ele>
        <time>2026-08-26T10:27:56Z</time>
      </trkpt>
      <trkpt lat="45.7052" lon="4.71267">
        <ele>313.6</ele>
        <time>2026-08-26T10:27:57Z</time>
      </trkpt>
      <trkpt lat="45.70518" lon="4.71272">
        <ele>313.6</ele>
        <time>2026-08-26T10:27:58Z</time>
      </trkpt>
      <trkpt lat="45.70517" lon="4.71277">
        <ele>313.8</ele>
        <time>2026-08-26T10:27:59Z</time>
      </trkpt>
      <trkpt lat="45.70515" lon="4.71282">
        <ele>313.8</ele>
        <time>2026-08-26T10:28:00Z</time>
      </trkpt>
      <trkpt lat="45.70514" lon="4.71286">
        <ele>314</ele>
        <time>2026-08-26T10:28:01Z</time>
      </trkpt>
      <trkpt lat="45.70512" lon="4.71291">
        <ele>314.2</ele>
        <time>2026-08-26T10:28:02Z</time>
      </trkpt>
      <trkpt lat="45.70511" lon="4.71296">
        <ele>314.2</ele>
        <time>2026-08-26T10:28:03Z</time>
      </trkpt>
      <trkpt lat="45.7051" lon="4.713">
        <ele>314.4</ele>
        <time>2026-08-26T10:28:04Z</time>
      </trkpt>
      <trkpt lat="45.70509" lon="4.71305">
        <ele>314.6</ele>
        <time>2026-08-26T10:28:05Z</time>
      </trkpt>
      <trkpt lat="45.70507" lon="4.71309">
        <ele>314.8</ele>
        <time>2026-08-26T10:28:06Z</time>
      </trkpt>
      <trkpt lat="45.70506" lon="4.71313">
        <ele>315</ele>
        <time>2026-08-26T10:28:07Z</time>
      </trkpt>
      <trkpt lat="45.70505" lon="4.71318">
        <ele>315.2</ele>
        <time>2026-08-26T10:28:08Z</time>
      </trkpt>
      <trkpt lat="45.70503" lon="4.71322">
        <ele>315.2</ele>
        <time>2026-08-26T10:28:09Z</time>
      </trkpt>
      <trkpt lat="45.70502" lon="4.71326">
        <ele>315.4</ele>
        <time>2026-08-26T10:28:10Z</time>
      </trkpt>
      <trkpt lat="45.70501" lon="4.7133">
        <ele>315.4</ele>
        <time>2026-08-26T10:28:11Z</time>
      </trkpt>
      <trkpt lat="45.705" lon="4.71334">
        <ele>315.6</ele>
        <time>2026-08-26T10:28:12Z</time>
      </trkpt>
      <trkpt lat="45.70498" lon="4.71338">
        <ele>315.6</ele>
        <time>2026-08-26T10:28:13Z</time>
      </trkpt>
      <trkpt lat="45.70497" lon="4.71341">
        <ele>315.8</ele>
        <time>2026-08-26T10:28:14Z</time>
      </trkpt>
      <trkpt lat="45.70495" lon="4.71345">
        <ele>316.2</ele>
        <time>2026-08-26T10:28:15Z</time>
      </trkpt>
      <trkpt lat="45.70494" lon="4.71348">
        <ele>316.4</ele>
        <time>2026-08-26T10:28:16Z</time>
      </trkpt>
      <trkpt lat="45.70492" lon="4.71352">
        <ele>316.6</ele>
        <time>2026-08-26T10:28:17Z</time>
      </trkpt>
      <trkpt lat="45.70491" lon="4.71356">
        <ele>316.8</ele>
        <time>2026-08-26T10:28:18Z</time>
      </trkpt>
      <trkpt lat="45.7049" lon="4.7136">
        <ele>317</ele>
        <time>2026-08-26T10:28:19Z</time>
      </trkpt>
      <trkpt lat="45.70488" lon="4.71363">
        <ele>317</ele>
        <time>2026-08-26T10:28:20Z</time>
      </trkpt>
      <trkpt lat="45.70486" lon="4.71367">
        <ele>317.2</ele>
        <time>2026-08-26T10:28:21Z</time>
      </trkpt>
      <trkpt lat="45.70484" lon="4.7137">
        <ele>317.4</ele>
        <time>2026-08-26T10:28:22Z</time>
      </trkpt>
      <trkpt lat="45.70483" lon="4.71373">
        <ele>317.6</ele>
        <time>2026-08-26T10:28:23Z</time>
      </trkpt>
      <trkpt lat="45.70482" lon="4.71377">
        <ele>317.6</ele>
        <time>2026-08-26T10:28:24Z</time>
      </trkpt>
      <trkpt lat="45.70481" lon="4.71381">
        <ele>317.8</ele>
        <time>2026-08-26T10:28:25Z</time>
      </trkpt>
      <trkpt lat="45.70479" lon="4.71385">
        <ele>318.2</ele>
        <time>2026-08-26T10:28:26Z</time>
      </trkpt>
      <trkpt lat="45.70478" lon="4.71388">
        <ele>318.4</ele>
        <time>2026-08-26T10:28:27Z</time>
      </trkpt>
      <trkpt lat="45.70476" lon="4.71392">
        <ele>318.6</ele>
        <time>2026-08-26T10:28:28Z</time>
      </trkpt>
      <trkpt lat="45.70475" lon="4.71396">
        <ele>318.8</ele>
        <time>2026-08-26T10:28:29Z</time>
      </trkpt>
      <trkpt lat="45.70474" lon="4.71399">
        <ele>319</ele>
        <time>2026-08-26T10:28:30Z</time>
      </trkpt>
      <trkpt lat="45.70473" lon="4.71403">
        <ele>319.2</ele>
        <time>2026-08-26T10:28:31Z</time>
      </trkpt>
      <trkpt lat="45.70472" lon="4.71407">
        <ele>319.2</ele>
        <time>2026-08-26T10:28:32Z</time>
      </trkpt>
      <trkpt lat="45.70471" lon="4.71411">
        <ele>319.4</ele>
        <time>2026-08-26T10:28:33Z</time>
      </trkpt>
      <trkpt lat="45.70469" lon="4.71415">
        <ele>319.6</ele>
        <time>2026-08-26T10:28:34Z</time>
      </trkpt>
      <trkpt lat="45.70468" lon="4.71419">
        <ele>319.6</ele>
        <time>2026-08-26T10:28:35Z</time>
      </trkpt>
      <trkpt lat="45.70468" lon="4.71423">
        <ele>319.8</ele>
        <time>2026-08-26T10:28:36Z</time>
      </trkpt>
      <trkpt lat="45.70467" lon="4.71428">
        <ele>320</ele>
        <time>2026-08-26T10:28:37Z</time>
      </trkpt>
      <trkpt lat="45.70465" lon="4.71432">
        <ele>320</ele>
        <time>2026-08-26T10:28:38Z</time>
      </trkpt>
      <trkpt lat="45.70464" lon="4.71437">
        <ele>320</ele>
        <time>2026-08-26T10:28:39Z</time>
      </trkpt>
      <trkpt lat="45.70463" lon="4.71441">
        <ele>320</ele>
        <time>2026-08-26T10:28:40Z</time>
      </trkpt>
      <trkpt lat="45.70462" lon="4.71445">
        <ele>320</ele>
        <time>2026-08-26T10:28:41Z</time>
      </trkpt>
      <trkpt lat="45.7046" lon="4.71449">
        <ele>320</ele>
        <time>2026-08-26T10:28:42Z</time>
      </trkpt>
      <trkpt lat="45.70459" lon="4.71453">
        <ele>320.2</ele>
        <time>2026-08-26T10:28:43Z</time>
      </trkpt>
      <trkpt lat="45.70457" lon="4.71458">
        <ele>320.2</ele>
        <time>2026-08-26T10:28:44Z</time>
      </trkpt>
      <trkpt lat="45.70456" lon="4.71462">
        <ele>320.4</ele>
        <time>2026-08-26T10:28:45Z</time>
      </trkpt>
      <trkpt lat="45.70454" lon="4.71466">
        <ele>320.4</ele>
        <time>2026-08-26T10:28:46Z</time>
      </trkpt>
      <trkpt lat="45.70453" lon="4.71471">
        <ele>320.4</ele>
        <time>2026-08-26T10:28:47Z</time>
      </trkpt>
      <trkpt lat="45.70452" lon="4.71475">
        <ele>320.6</ele>
        <time>2026-08-26T10:28:48Z</time>
      </trkpt>
      <trkpt lat="45.70451" lon="4.71479">
        <ele>320.6</ele>
        <time>2026-08-26T10:28:49Z</time>
      </trkpt>
      <trkpt lat="45.70451" lon="4.71484">
        <ele>320.8</ele>
        <time>2026-08-26T10:28:50Z</time>
      </trkpt>
      <trkpt lat="45.7045" lon="4.71488">
        <ele>320.8</ele>
        <time>2026-08-26T10:28:51Z</time>
      </trkpt>
      <trkpt lat="45.70448" lon="4.71492">
        <ele>321</ele>
        <time>2026-08-26T10:28:52Z</time>
      </trkpt>
      <trkpt lat="45.70447" lon="4.71496">
        <ele>321.2</ele>
        <time>2026-08-26T10:28:53Z</time>
      </trkpt>
      <trkpt lat="45.70446" lon="4.71501">
        <ele>321.4</ele>
        <time>2026-08-26T10:28:54Z</time>
      </trkpt>
      <trkpt lat="45.70445" lon="4.71505">
        <ele>321.4</ele>
        <time>2026-08-26T10:28:55Z</time>
      </trkpt>
      <trkpt lat="45.70444" lon="4.7151">
        <ele>321.6</ele>
        <time>2026-08-26T10:28:56Z</time>
      </trkpt>
      <trkpt lat="45.70443" lon="4.71514">
        <ele>321.8</ele>
        <time>2026-08-26T10:28:57Z</time>
      </trkpt>
      <trkpt lat="45.70442" lon="4.71519">
        <ele>322</ele>
        <time>2026-08-26T10:28:58Z</time>
      </trkpt>
      <trkpt lat="45.70441" lon="4.71523">
        <ele>322</ele>
        <time>2026-08-26T10:28:59Z</time>
      </trkpt>
      <trkpt lat="45.7044" lon="4.71528">
        <ele>322.2</ele>
        <time>2026-08-26T10:29:00Z</time>
      </trkpt>
      <trkpt lat="45.70439" lon="4.71532">
        <ele>322.2</ele>
        <time>2026-08-26T10:29:01Z</time>
      </trkpt>
      <trkpt lat="45.70438" lon="4.71536">
        <ele>322.4</ele>
        <time>2026-08-26T10:29:02Z</time>
      </trkpt>
      <trkpt lat="45.70437" lon="4.71541">
        <ele>322.4</ele>
        <time>2026-08-26T10:29:03Z</time>
      </trkpt>
      <trkpt lat="45.70436" lon="4.71545">
        <ele>322.6</ele>
        <time>2026-08-26T10:29:04Z</time>
      </trkpt>
      <trkpt lat="45.70434" lon="4.71549">
        <ele>322.6</ele>
        <time>2026-08-26T10:29:05Z</time>
      </trkpt>
      <trkpt lat="45.70433" lon="4.71554">
        <ele>322.6</ele>
        <time>2026-08-26T10:29:06Z</time>
      </trkpt>
      <trkpt lat="45.70432" lon="4.71558">
        <ele>322.8</ele>
        <time>2026-08-26T10:29:07Z</time>
      </trkpt>
      <trkpt lat="45.7043" lon="4.71563">
        <ele>322.8</ele>
        <time>2026-08-26T10:29:08Z</time>
      </trkpt>
      <trkpt lat="45.70429" lon="4.71567">
        <ele>322.8</ele>
        <time>2026-08-26T10:29:09Z</time>
      </trkpt>
      <trkpt lat="45.70428" lon="4.71572">
        <ele>323</ele>
        <time>2026-08-26T10:29:10Z</time>
      </trkpt>
      <trkpt lat="45.70427" lon="4.71577">
        <ele>323</ele>
        <time>2026-08-26T10:29:11Z</time>
      </trkpt>
      <trkpt lat="45.70426" lon="4.71581">
        <ele>323.2</ele>
        <time>2026-08-26T10:29:12Z</time>
      </trkpt>
      <trkpt lat="45.70425" lon="4.71586">
        <ele>323.4</ele>
        <time>2026-08-26T10:29:13Z</time>
      </trkpt>
      <trkpt lat="45.70424" lon="4.71591">
        <ele>323.4</ele>
        <time>2026-08-26T10:29:14Z</time>
      </trkpt>
      <trkpt lat="45.70423" lon="4.71596">
        <ele>323.6</ele>
        <time>2026-08-26T10:29:15Z</time>
      </trkpt>
      <trkpt lat="45.70423" lon="4.71601">
        <ele>323.8</ele>
        <time>2026-08-26T10:29:16Z</time>
      </trkpt>
      <trkpt lat="45.70422" lon="4.71606">
        <ele>323.8</ele>
        <time>2026-08-26T10:29:17Z</time>
      </trkpt>
      <trkpt lat="45.70422" lon="4.71611">
        <ele>323.8</ele>
        <time>2026-08-26T10:29:18Z</time>
      </trkpt>
      <trkpt lat="45.70422" lon="4.71617">
        <ele>323.8</ele>
        <time>2026-08-26T10:29:19Z</time>
      </trkpt>
      <trkpt lat="45.70421" lon="4.71623">
        <ele>323.8</ele>
        <time>2026-08-26T10:29:20Z</time>
      </trkpt>
      <trkpt lat="45.70421" lon="4.71628">
        <ele>323.8</ele>
        <time>2026-08-26T10:29:21Z</time>
      </trkpt>
      <trkpt lat="45.70421" lon="4.71634">
        <ele>323.8</ele>
        <time>2026-08-26T10:29:22Z</time>
      </trkpt>
      <trkpt lat="45.7042" lon="4.7164">
        <ele>323.8</ele>
        <time>2026-08-26T10:29:23Z</time>
      </trkpt>
      <trkpt lat="45.7042" lon="4.71646">
        <ele>323.8</ele>
        <time>2026-08-26T10:29:24Z</time>
      </trkpt>
      <trkpt lat="45.70419" lon="4.71651">
        <ele>323.8</ele>
        <time>2026-08-26T10:29:25Z</time>
      </trkpt>
      <trkpt lat="45.70418" lon="4.71657">
        <ele>323.8</ele>
        <time>2026-08-26T10:29:26Z</time>
      </trkpt>
      <trkpt lat="45.70417" lon="4.71663">
        <ele>324</ele>
        <time>2026-08-26T10:29:27Z</time>
      </trkpt>
      <trkpt lat="45.70417" lon="4.71669">
        <ele>324</ele>
        <time>2026-08-26T10:29:28Z</time>
      </trkpt>
      <trkpt lat="45.70416" lon="4.71676">
        <ele>324</ele>
        <time>2026-08-26T10:29:29Z</time>
      </trkpt>
      <trkpt lat="45.70415" lon="4.71682">
        <ele>324</ele>
        <time>2026-08-26T10:29:30Z</time>
      </trkpt>
      <trkpt lat="45.70415" lon="4.71688">
        <ele>324</ele>
        <time>2026-08-26T10:29:31Z</time>
      </trkpt>
      <trkpt lat="45.70414" lon="4.71695">
        <ele>324</ele>
        <time>2026-08-26T10:29:32Z</time>
      </trkpt>
      <trkpt lat="45.70414" lon="4.71702">
        <ele>323.8</ele>
        <time>2026-08-26T10:29:33Z</time>
      </trkpt>
      <trkpt lat="45.70413" lon="4.71708">
        <ele>323.8</ele>
        <time>2026-08-26T10:29:34Z</time>
      </trkpt>
      <trkpt lat="45.70413" lon="4.71714">
        <ele>323.6</ele>
        <time>2026-08-26T10:29:35Z</time>
      </trkpt>
      <trkpt lat="45.70412" lon="4.71721">
        <ele>323.6</ele>
        <time>2026-08-26T10:29:36Z</time>
      </trkpt>
      <trkpt lat="45.70412" lon="4.71728">
        <ele>323.6</ele>
        <time>2026-08-26T10:29:37Z</time>
      </trkpt>
      <trkpt lat="45.70411" lon="4.71734">
        <ele>323.6</ele>
        <time>2026-08-26T10:29:38Z</time>
      </trkpt>
      <trkpt lat="45.7041" lon="4.71741">
        <ele>323.6</ele>
        <time>2026-08-26T10:29:39Z</time>
      </trkpt>
      <trkpt lat="45.70409" lon="4.71748">
        <ele>323.4</ele>
        <time>2026-08-26T10:29:40Z</time>
      </trkpt>
      <trkpt lat="45.70409" lon="4.71756">
        <ele>323.4</ele>
        <time>2026-08-26T10:29:41Z</time>
      </trkpt>
      <trkpt lat="45.70409" lon="4.71763">
        <ele>323.2</ele>
        <time>2026-08-26T10:29:42Z</time>
      </trkpt>
      <trkpt lat="45.70408" lon="4.71771">
        <ele>323</ele>
        <time>2026-08-26T10:29:43Z</time>
      </trkpt>
      <trkpt lat="45.70408" lon="4.71779">
        <ele>322.8</ele>
        <time>2026-08-26T10:29:44Z</time>
      </trkpt>
      <trkpt lat="45.70407" lon="4.71787">
        <ele>322.4</ele>
        <time>2026-08-26T10:29:45Z</time>
      </trkpt>
      <trkpt lat="45.70406" lon="4.71796">
        <ele>322</ele>
        <time>2026-08-26T10:29:46Z</time>
      </trkpt>
      <trkpt lat="45.70405" lon="4.71805">
        <ele>321.6</ele>
        <time>2026-08-26T10:29:47Z</time>
      </trkpt>
      <trkpt lat="45.70404" lon="4.71814">
        <ele>321.2</ele>
        <time>2026-08-26T10:29:48Z</time>
      </trkpt>
      <trkpt lat="45.70404" lon="4.71824">
        <ele>320.8</ele>
        <time>2026-08-26T10:29:49Z</time>
      </trkpt>
      <trkpt lat="45.70404" lon="4.71833">
        <ele>320.2</ele>
        <time>2026-08-26T10:29:50Z</time>
      </trkpt>
      <trkpt lat="45.70404" lon="4.71843">
        <ele>320</ele>
        <time>2026-08-26T10:29:51Z</time>
      </trkpt>
      <trkpt lat="45.70403" lon="4.71853">
        <ele>319.6</ele>
        <time>2026-08-26T10:29:52Z</time>
      </trkpt>
      <trkpt lat="45.70403" lon="4.71862">
        <ele>319.4</ele>
        <time>2026-08-26T10:29:53Z</time>
      </trkpt>
      <trkpt lat="45.70401" lon="4.71873">
        <ele>319.2</ele>
        <time>2026-08-26T10:29:54Z</time>
      </trkpt>
      <trkpt lat="45.70401" lon="4.71883">
        <ele>319</ele>
        <time>2026-08-26T10:29:55Z</time>
      </trkpt>
      <trkpt lat="45.704" lon="4.71894">
        <ele>318.6</ele>
        <time>2026-08-26T10:29:56Z</time>
      </trkpt>
      <trkpt lat="45.70399" lon="4.71904">
        <ele>318.4</ele>
        <time>2026-08-26T10:29:57Z</time>
      </trkpt>
      <trkpt lat="45.70399" lon="4.71915">
        <ele>318.2</ele>
        <time>2026-08-26T10:29:58Z</time>
      </trkpt>
      <trkpt lat="45.70398" lon="4.71925">
        <ele>318</ele>
        <time>2026-08-26T10:29:59Z</time>
      </trkpt>
      <trkpt lat="45.70397" lon="4.71936">
        <ele>317.8</ele>
        <time>2026-08-26T10:30:00Z</time>
      </trkpt>
      <trkpt lat="45.70396" lon="4.71946">
        <ele>317.6</ele>
        <time>2026-08-26T10:30:01Z</time>
      </trkpt>
      <trkpt lat="45.70395" lon="4.71957">
        <ele>317.4</ele>
        <time>2026-08-26T10:30:02Z</time>
      </trkpt>
      <trkpt lat="45.70393" lon="4.71967">
        <ele>317.2</ele>
        <time>2026-08-26T10:30:03Z</time>
      </trkpt>
      <trkpt lat="45.70391" lon="4.71978">
        <ele>317</ele>
        <time>2026-08-26T10:30:04Z</time>
      </trkpt>
      <trkpt lat="45.70389" lon="4.71988">
        <ele>316.6</ele>
        <time>2026-08-26T10:30:05Z</time>
      </trkpt>
      <trkpt lat="45.70386" lon="4.71998">
        <ele>316.2</ele>
        <time>2026-08-26T10:30:06Z</time>
      </trkpt>
      <trkpt lat="45.70384" lon="4.72008">
        <ele>316</ele>
        <time>2026-08-26T10:30:07Z</time>
      </trkpt>
      <trkpt lat="45.70381" lon="4.72018">
        <ele>315.8</ele>
        <time>2026-08-26T10:30:08Z</time>
      </trkpt>
      <trkpt lat="45.70379" lon="4.72028">
        <ele>315.8</ele>
        <time>2026-08-26T10:30:09Z</time>
      </trkpt>
      <trkpt lat="45.70377" lon="4.72039">
        <ele>315.8</ele>
        <time>2026-08-26T10:30:10Z</time>
      </trkpt>
      <trkpt lat="45.70375" lon="4.72049">
        <ele>315.8</ele>
        <time>2026-08-26T10:30:11Z</time>
      </trkpt>
      <trkpt lat="45.70374" lon="4.7206">
        <ele>315.8</ele>
        <time>2026-08-26T10:30:12Z</time>
      </trkpt>
      <trkpt lat="45.70373" lon="4.72071">
        <ele>315.8</ele>
        <time>2026-08-26T10:30:13Z</time>
      </trkpt>
      <trkpt lat="45.70373" lon="4.72082">
        <ele>315.6</ele>
        <time>2026-08-26T10:30:14Z</time>
      </trkpt>
      <trkpt lat="45.70372" lon="4.72092">
        <ele>315.4</ele>
        <time>2026-08-26T10:30:15Z</time>
      </trkpt>
      <trkpt lat="45.70372" lon="4.72103">
        <ele>315.2</ele>
        <time>2026-08-26T10:30:16Z</time>
      </trkpt>
      <trkpt lat="45.70371" lon="4.72113">
        <ele>315.2</ele>
        <time>2026-08-26T10:30:17Z</time>
      </trkpt>
      <trkpt lat="45.70371" lon="4.72123">
        <ele>315</ele>
        <time>2026-08-26T10:30:18Z</time>
      </trkpt>
      <trkpt lat="45.70371" lon="4.72134">
        <ele>315</ele>
        <time>2026-08-26T10:30:19Z</time>
      </trkpt>
      <trkpt lat="45.70371" lon="4.72144">
        <ele>315</ele>
        <time>2026-08-26T10:30:20Z</time>
      </trkpt>
      <trkpt lat="45.70371" lon="4.72153">
        <ele>315</ele>
        <time>2026-08-26T10:30:21Z</time>
      </trkpt>
      <trkpt lat="45.70371" lon="4.72163">
        <ele>315</ele>
        <time>2026-08-26T10:30:22Z</time>
      </trkpt>
      <trkpt lat="45.70371" lon="4.72172">
        <ele>315</ele>
        <time>2026-08-26T10:30:23Z</time>
      </trkpt>
      <trkpt lat="45.7037" lon="4.72182">
        <ele>315</ele>
        <time>2026-08-26T10:30:24Z</time>
      </trkpt>
      <trkpt lat="45.7037" lon="4.72191">
        <ele>315</ele>
        <time>2026-08-26T10:30:25Z</time>
      </trkpt>
      <trkpt lat="45.7037" lon="4.72201">
        <ele>315</ele>
        <time>2026-08-26T10:30:26Z</time>
      </trkpt>
      <trkpt lat="45.7037" lon="4.7221">
        <ele>315</ele>
        <time>2026-08-26T10:30:27Z</time>
      </trkpt>
      <trkpt lat="45.7037" lon="4.72219">
        <ele>315</ele>
        <time>2026-08-26T10:30:28Z</time>
      </trkpt>
      <trkpt lat="45.70371" lon="4.72228">
        <ele>315</ele>
        <time>2026-08-26T10:30:29Z</time>
      </trkpt>
      <trkpt lat="45.70371" lon="4.72237">
        <ele>314.8</ele>
        <time>2026-08-26T10:30:30Z</time>
      </trkpt>
      <trkpt lat="45.70371" lon="4.72247">
        <ele>314.8</ele>
        <time>2026-08-26T10:30:31Z</time>
      </trkpt>
      <trkpt lat="45.70371" lon="4.72256">
        <ele>314.8</ele>
        <time>2026-08-26T10:30:32Z</time>
      </trkpt>
      <trkpt lat="45.70371" lon="4.72265">
        <ele>314.6</ele>
        <time>2026-08-26T10:30:33Z</time>
      </trkpt>
      <trkpt lat="45.70371" lon="4.72274">
        <ele>314.6</ele>
        <time>2026-08-26T10:30:34Z</time>
      </trkpt>
      <trkpt lat="45.70372" lon="4.72284">
        <ele>314.6</ele>
        <time>2026-08-26T10:30:35Z</time>
      </trkpt>
      <trkpt lat="45.70372" lon="4.72293">
        <ele>314.6</ele>
        <time>2026-08-26T10:30:36Z</time>
      </trkpt>
      <trkpt lat="45.70372" lon="4.72302">
        <ele>314.4</ele>
        <time>2026-08-26T10:30:37Z</time>
      </trkpt>
      <trkpt lat="45.70372" lon="4.72311">
        <ele>314.6</ele>
        <time>2026-08-26T10:30:38Z</time>
      </trkpt>
      <trkpt lat="45.70372" lon="4.72319">
        <ele>314.6</ele>
        <time>2026-08-26T10:30:39Z</time>
      </trkpt>
      <trkpt lat="45.70373" lon="4.72329">
        <ele>314.4</ele>
        <time>2026-08-26T10:30:40Z</time>
      </trkpt>
      <trkpt lat="45.70373" lon="4.72338">
        <ele>314.2</ele>
        <time>2026-08-26T10:30:41Z</time>
      </trkpt>
      <trkpt lat="45.70374" lon="4.72346">
        <ele>314.4</ele>
        <time>2026-08-26T10:30:42Z</time>
      </trkpt>
      <trkpt lat="45.70375" lon="4.72355">
        <ele>314.4</ele>
        <time>2026-08-26T10:30:43Z</time>
      </trkpt>
      <trkpt lat="45.70376" lon="4.72363">
        <ele>314.4</ele>
        <time>2026-08-26T10:30:44Z</time>
      </trkpt>
      <trkpt lat="45.70377" lon="4.72372">
        <ele>314.4</ele>
        <time>2026-08-26T10:30:45Z</time>
      </trkpt>
      <trkpt lat="45.70377" lon="4.7238">
        <ele>314.6</ele>
        <time>2026-08-26T10:30:46Z</time>
      </trkpt>
      <trkpt lat="45.70378" lon="4.72389">
        <ele>314.6</ele>
        <time>2026-08-26T10:30:47Z</time>
      </trkpt>
      <trkpt lat="45.7038" lon="4.72397">
        <ele>314.6</ele>
        <time>2026-08-26T10:30:48Z</time>
      </trkpt>
      <trkpt lat="45.70381" lon="4.72406">
        <ele>314.8</ele>
        <time>2026-08-26T10:30:49Z</time>
      </trkpt>
      <trkpt lat="45.70382" lon="4.72414">
        <ele>314.8</ele>
        <time>2026-08-26T10:30:50Z</time>
      </trkpt>
      <trkpt lat="45.70383" lon="4.72423">
        <ele>314.8</ele>
        <time>2026-08-26T10:30:51Z</time>
      </trkpt>
      <trkpt lat="45.70385" lon="4.72432">
        <ele>314.6</ele>
        <time>2026-08-26T10:30:52Z</time>
      </trkpt>
      <trkpt lat="45.70386" lon="4.72441">
        <ele>314.6</ele>
        <time>2026-08-26T10:30:53Z</time>
      </trkpt>
      <trkpt lat="45.70387" lon="4.7245">
        <ele>314.4</ele>
        <time>2026-08-26T10:30:54Z</time>
      </trkpt>
      <trkpt lat="45.70388" lon="4.72459">
        <ele>314.2</ele>
        <time>2026-08-26T10:30:55Z</time>
      </trkpt>
      <trkpt lat="45.7039" lon="4.72468">
        <ele>314</ele>
        <time>2026-08-26T10:30:56Z</time>
      </trkpt>
      <trkpt lat="45.7039" lon="4.72477">
        <ele>313.8</ele>
        <time>2026-08-26T10:30:57Z</time>
      </trkpt>
      <trkpt lat="45.70392" lon="4.72486">
        <ele>313.6</ele>
        <time>2026-08-26T10:30:58Z</time>
      </trkpt>
      <trkpt lat="45.70393" lon="4.72495">
        <ele>313.6</ele>
        <time>2026-08-26T10:30:59Z</time>
      </trkpt>
      <trkpt lat="45.70395" lon="4.72504">
        <ele>313.6</ele>
        <time>2026-08-26T10:31:00Z</time>
      </trkpt>
      <trkpt lat="45.70396" lon="4.72513">
        <ele>313.6</ele>
        <time>2026-08-26T10:31:01Z</time>
      </trkpt>
      <trkpt lat="45.70398" lon="4.72522">
        <ele>313.4</ele>
        <time>2026-08-26T10:31:02Z</time>
      </trkpt>
      <trkpt lat="45.704" lon="4.72531">
        <ele>313.6</ele>
        <time>2026-08-26T10:31:03Z</time>
      </trkpt>
      <trkpt lat="45.70401" lon="4.7254">
        <ele>313.6</ele>
        <time>2026-08-26T10:31:04Z</time>
      </trkpt>
      <trkpt lat="45.70403" lon="4.7255">
        <ele>313.2</ele>
        <time>2026-08-26T10:31:05Z</time>
      </trkpt>
      <trkpt lat="45.70404" lon="4.72559">
        <ele>313.2</ele>
        <time>2026-08-26T10:31:06Z</time>
      </trkpt>
      <trkpt lat="45.70406" lon="4.72569">
        <ele>313.2</ele>
        <time>2026-08-26T10:31:07Z</time>
      </trkpt>
      <trkpt lat="45.70407" lon="4.72578">
        <ele>313</ele>
        <time>2026-08-26T10:31:08Z</time>
      </trkpt>
      <trkpt lat="45.70409" lon="4.72588">
        <ele>312.8</ele>
        <time>2026-08-26T10:31:09Z</time>
      </trkpt>
      <trkpt lat="45.7041" lon="4.72598">
        <ele>312.8</ele>
        <time>2026-08-26T10:31:10Z</time>
      </trkpt>
      <trkpt lat="45.70412" lon="4.72607">
        <ele>312.6</ele>
        <time>2026-08-26T10:31:11Z</time>
      </trkpt>
      <trkpt lat="45.70413" lon="4.72617">
        <ele>312.6</ele>
        <time>2026-08-26T10:31:12Z</time>
      </trkpt>
      <trkpt lat="45.70415" lon="4.72627">
        <ele>312.6</ele>
        <time>2026-08-26T10:31:13Z</time>
      </trkpt>
      <trkpt lat="45.70416" lon="4.72637">
        <ele>312.6</ele>
        <time>2026-08-26T10:31:14Z</time>
      </trkpt>
      <trkpt lat="45.70418" lon="4.72647">
        <ele>312.6</ele>
        <time>2026-08-26T10:31:15Z</time>
      </trkpt>
      <trkpt lat="45.70419" lon="4.72657">
        <ele>312.4</ele>
        <time>2026-08-26T10:31:16Z</time>
      </trkpt>
      <trkpt lat="45.70421" lon="4.72667">
        <ele>312.2</ele>
        <time>2026-08-26T10:31:17Z</time>
      </trkpt>
      <trkpt lat="45.70422" lon="4.72676">
        <ele>312</ele>
        <time>2026-08-26T10:31:18Z</time>
      </trkpt>
      <trkpt lat="45.70424" lon="4.72686">
        <ele>311.8</ele>
        <time>2026-08-26T10:31:19Z</time>
      </trkpt>
      <trkpt lat="45.70425" lon="4.72696">
        <ele>311.6</ele>
        <time>2026-08-26T10:31:20Z</time>
      </trkpt>
      <trkpt lat="45.70426" lon="4.72706">
        <ele>311.4</ele>
        <time>2026-08-26T10:31:21Z</time>
      </trkpt>
      <trkpt lat="45.70428" lon="4.72716">
        <ele>311.4</ele>
        <time>2026-08-26T10:31:22Z</time>
      </trkpt>
      <trkpt lat="45.7043" lon="4.72726">
        <ele>311.2</ele>
        <time>2026-08-26T10:31:23Z</time>
      </trkpt>
      <trkpt lat="45.70431" lon="4.72736">
        <ele>311.2</ele>
        <time>2026-08-26T10:31:24Z</time>
      </trkpt>
      <trkpt lat="45.70433" lon="4.72746">
        <ele>311.2</ele>
        <time>2026-08-26T10:31:25Z</time>
      </trkpt>
      <trkpt lat="45.70435" lon="4.72756">
        <ele>310.8</ele>
        <time>2026-08-26T10:31:26Z</time>
      </trkpt>
      <trkpt lat="45.70436" lon="4.72766">
        <ele>310.6</ele>
        <time>2026-08-26T10:31:27Z</time>
      </trkpt>
      <trkpt lat="45.70438" lon="4.72776">
        <ele>310.6</ele>
        <time>2026-08-26T10:31:28Z</time>
      </trkpt>
      <trkpt lat="45.70439" lon="4.72785">
        <ele>310.4</ele>
        <time>2026-08-26T10:31:29Z</time>
      </trkpt>
      <trkpt lat="45.70439" lon="4.72795">
        <ele>310.2</ele>
        <time>2026-08-26T10:31:30Z</time>
      </trkpt>
      <trkpt lat="45.70439" lon="4.72805">
        <ele>310.2</ele>
        <time>2026-08-26T10:31:31Z</time>
      </trkpt>
      <trkpt lat="45.70437" lon="4.72814">
        <ele>310</ele>
        <time>2026-08-26T10:31:32Z</time>
      </trkpt>
      <trkpt lat="45.70434" lon="4.72822">
        <ele>310</ele>
        <time>2026-08-26T10:31:33Z</time>
      </trkpt>
      <trkpt lat="45.70431" lon="4.7283">
        <ele>310</ele>
        <time>2026-08-26T10:31:34Z</time>
      </trkpt>
      <trkpt lat="45.70429" lon="4.72838">
        <ele>309.8</ele>
        <time>2026-08-26T10:31:35Z</time>
      </trkpt>
      <trkpt lat="45.70425" lon="4.72846">
        <ele>309.8</ele>
        <time>2026-08-26T10:31:36Z</time>
      </trkpt>
      <trkpt lat="45.70422" lon="4.72854">
        <ele>309.8</ele>
        <time>2026-08-26T10:31:37Z</time>
      </trkpt>
      <trkpt lat="45.70418" lon="4.72861">
        <ele>309.6</ele>
        <time>2026-08-26T10:31:38Z</time>
      </trkpt>
      <trkpt lat="45.70414" lon="4.72868">
        <ele>309.8</ele>
        <time>2026-08-26T10:31:39Z</time>
      </trkpt>
      <trkpt lat="45.70411" lon="4.72875">
        <ele>309.8</ele>
        <time>2026-08-26T10:31:40Z</time>
      </trkpt>
      <trkpt lat="45.70407" lon="4.72883">
        <ele>309.8</ele>
        <time>2026-08-26T10:31:41Z</time>
      </trkpt>
      <trkpt lat="45.70403" lon="4.7289">
        <ele>310</ele>
        <time>2026-08-26T10:31:42Z</time>
      </trkpt>
      <trkpt lat="45.70399" lon="4.72898">
        <ele>310</ele>
        <time>2026-08-26T10:31:43Z</time>
      </trkpt>
      <trkpt lat="45.70396" lon="4.72905">
        <ele>310.2</ele>
        <time>2026-08-26T10:31:44Z</time>
      </trkpt>
      <trkpt lat="45.70392" lon="4.72913">
        <ele>310.4</ele>
        <time>2026-08-26T10:31:45Z</time>
      </trkpt>
      <trkpt lat="45.70388" lon="4.7292">
        <ele>310.4</ele>
        <time>2026-08-26T10:31:46Z</time>
      </trkpt>
      <trkpt lat="45.70384" lon="4.72928">
        <ele>310.2</ele>
        <time>2026-08-26T10:31:47Z</time>
      </trkpt>
      <trkpt lat="45.70381" lon="4.72935">
        <ele>310.2</ele>
        <time>2026-08-26T10:31:48Z</time>
      </trkpt>
      <trkpt lat="45.70378" lon="4.72943">
        <ele>310</ele>
        <time>2026-08-26T10:31:49Z</time>
      </trkpt>
      <trkpt lat="45.70374" lon="4.7295">
        <ele>309.8</ele>
        <time>2026-08-26T10:31:50Z</time>
      </trkpt>
      <trkpt lat="45.70371" lon="4.72958">
        <ele>309.8</ele>
        <time>2026-08-26T10:31:51Z</time>
      </trkpt>
      <trkpt lat="45.70368" lon="4.72965">
        <ele>309.8</ele>
        <time>2026-08-26T10:31:52Z</time>
      </trkpt>
      <trkpt lat="45.70365" lon="4.72973">
        <ele>309.8</ele>
        <time>2026-08-26T10:31:53Z</time>
      </trkpt>
      <trkpt lat="45.70362" lon="4.7298">
        <ele>309.8</ele>
        <time>2026-08-26T10:31:54Z</time>
      </trkpt>
      <trkpt lat="45.70359" lon="4.72987">
        <ele>309.8</ele>
        <time>2026-08-26T10:31:55Z</time>
      </trkpt>
      <trkpt lat="45.70355" lon="4.72994">
        <ele>309.8</ele>
        <time>2026-08-26T10:31:56Z</time>
      </trkpt>
      <trkpt lat="45.70352" lon="4.73002">
        <ele>309.8</ele>
        <time>2026-08-26T10:31:57Z</time>
      </trkpt>
      <trkpt lat="45.7035" lon="4.73009">
        <ele>309.8</ele>
        <time>2026-08-26T10:31:58Z</time>
      </trkpt>
      <trkpt lat="45.70347" lon="4.73016">
        <ele>309.8</ele>
        <time>2026-08-26T10:31:59Z</time>
      </trkpt>
      <trkpt lat="45.70344" lon="4.73023">
        <ele>309.8</ele>
        <time>2026-08-26T10:32:00Z</time>
      </trkpt>
      <trkpt lat="45.70341" lon="4.7303">
        <ele>310</ele>
        <time>2026-08-26T10:32:01Z</time>
      </trkpt>
      <trkpt lat="45.70338" lon="4.73037">
        <ele>310</ele>
        <time>2026-08-26T10:32:02Z</time>
      </trkpt>
      <trkpt lat="45.70336" lon="4.73044">
        <ele>310.2</ele>
        <time>2026-08-26T10:32:03Z</time>
      </trkpt>
      <trkpt lat="45.70334" lon="4.7305">
        <ele>310.4</ele>
        <time>2026-08-26T10:32:04Z</time>
      </trkpt>
      <trkpt lat="45.70332" lon="4.73057">
        <ele>310.2</ele>
        <time>2026-08-26T10:32:05Z</time>
      </trkpt>
      <trkpt lat="45.7033" lon="4.73063">
        <ele>310.4</ele>
        <time>2026-08-26T10:32:06Z</time>
      </trkpt>
      <trkpt lat="45.70328" lon="4.73069">
        <ele>310.4</ele>
        <time>2026-08-26T10:32:07Z</time>
      </trkpt>
      <trkpt lat="45.70327" lon="4.73075">
        <ele>310.4</ele>
        <time>2026-08-26T10:32:08Z</time>
      </trkpt>
      <trkpt lat="45.70325" lon="4.73081">
        <ele>310.2</ele>
        <time>2026-08-26T10:32:09Z</time>
      </trkpt>
      <trkpt lat="45.70326" lon="4.73087">
        <ele>310.2</ele>
        <time>2026-08-26T10:32:10Z</time>
      </trkpt>
      <trkpt lat="45.70327" lon="4.73093">
        <ele>310.2</ele>
        <time>2026-08-26T10:32:11Z</time>
      </trkpt>
      <trkpt lat="45.7033" lon="4.73099">
        <ele>310.2</ele>
        <time>2026-08-26T10:32:12Z</time>
      </trkpt>
      <trkpt lat="45.70333" lon="4.73104">
        <ele>310.2</ele>
        <time>2026-08-26T10:32:13Z</time>
      </trkpt>
      <trkpt lat="45.70337" lon="4.73109">
        <ele>310.2</ele>
        <time>2026-08-26T10:32:14Z</time>
      </trkpt>
      <trkpt lat="45.7034" lon="4.73114">
        <ele>310.2</ele>
        <time>2026-08-26T10:32:15Z</time>
      </trkpt>
      <trkpt lat="45.70344" lon="4.73119">
        <ele>310</ele>
        <time>2026-08-26T10:32:16Z</time>
      </trkpt>
      <trkpt lat="45.70348" lon="4.73124">
        <ele>310</ele>
        <time>2026-08-26T10:32:17Z</time>
      </trkpt>
      <trkpt lat="45.70352" lon="4.73128">
        <ele>310</ele>
        <time>2026-08-26T10:32:18Z</time>
      </trkpt>
      <trkpt lat="45.70356" lon="4.73133">
        <ele>310.2</ele>
        <time>2026-08-26T10:32:19Z</time>
      </trkpt>
      <trkpt lat="45.7036" lon="4.73138">
        <ele>310.2</ele>
        <time>2026-08-26T10:32:20Z</time>
      </trkpt>
      <trkpt lat="45.70365" lon="4.73143">
        <ele>310</ele>
        <time>2026-08-26T10:32:21Z</time>
      </trkpt>
      <trkpt lat="45.70369" lon="4.73148">
        <ele>310.2</ele>
        <time>2026-08-26T10:32:22Z</time>
      </trkpt>
      <trkpt lat="45.70374" lon="4.73153">
        <ele>310.2</ele>
        <time>2026-08-26T10:32:23Z</time>
      </trkpt>
      <trkpt lat="45.70379" lon="4.73157">
        <ele>310</ele>
        <time>2026-08-26T10:32:24Z</time>
      </trkpt>
      <trkpt lat="45.70383" lon="4.73162">
        <ele>310</ele>
        <time>2026-08-26T10:32:25Z</time>
      </trkpt>
      <trkpt lat="45.70388" lon="4.73166">
        <ele>310</ele>
        <time>2026-08-26T10:32:26Z</time>
      </trkpt>
      <trkpt lat="45.70393" lon="4.73169">
        <ele>310</ele>
        <time>2026-08-26T10:32:27Z</time>
      </trkpt>
      <trkpt lat="45.70398" lon="4.73173">
        <ele>309.8</ele>
        <time>2026-08-26T10:32:28Z</time>
      </trkpt>
      <trkpt lat="45.70403" lon="4.73176">
        <ele>309.8</ele>
        <time>2026-08-26T10:32:29Z</time>
      </trkpt>
      <trkpt lat="45.70409" lon="4.7318">
        <ele>309.8</ele>
        <time>2026-08-26T10:32:30Z</time>
      </trkpt>
      <trkpt lat="45.70414" lon="4.73183">
        <ele>309.8</ele>
        <time>2026-08-26T10:32:31Z</time>
      </trkpt>
      <trkpt lat="45.70419" lon="4.73187">
        <ele>309.8</ele>
        <time>2026-08-26T10:32:32Z</time>
      </trkpt>
      <trkpt lat="45.70423" lon="4.7319">
        <ele>310</ele>
        <time>2026-08-26T10:32:33Z</time>
      </trkpt>
      <trkpt lat="45.70429" lon="4.73194">
        <ele>310</ele>
        <time>2026-08-26T10:32:34Z</time>
      </trkpt>
      <trkpt lat="45.70434" lon="4.73197">
        <ele>310</ele>
        <time>2026-08-26T10:32:35Z</time>
      </trkpt>
      <trkpt lat="45.70439" lon="4.73201">
        <ele>310.2</ele>
        <time>2026-08-26T10:32:36Z</time>
      </trkpt>
      <trkpt lat="45.70444" lon="4.73205">
        <ele>310.4</ele>
        <time>2026-08-26T10:32:37Z</time>
      </trkpt>
      <trkpt lat="45.70449" lon="4.73208">
        <ele>310.4</ele>
        <time>2026-08-26T10:32:38Z</time>
      </trkpt>
      <trkpt lat="45.70454" lon="4.73211">
        <ele>310.4</ele>
        <time>2026-08-26T10:32:39Z</time>
      </trkpt>
      <trkpt lat="45.70458" lon="4.73214">
        <ele>310.4</ele>
        <time>2026-08-26T10:32:40Z</time>
      </trkpt>
      <trkpt lat="45.70463" lon="4.73217">
        <ele>310.2</ele>
        <time>2026-08-26T10:32:41Z</time>
      </trkpt>
      <trkpt lat="45.70468" lon="4.7322">
        <ele>310.2</ele>
        <time>2026-08-26T10:32:42Z</time>
      </trkpt>
      <trkpt lat="45.70473" lon="4.73223">
        <ele>310.2</ele>
        <time>2026-08-26T10:32:43Z</time>
      </trkpt>
      <trkpt lat="45.70477" lon="4.73227">
        <ele>310.2</ele>
        <time>2026-08-26T10:32:44Z</time>
      </trkpt>
      <trkpt lat="45.70482" lon="4.7323">
        <ele>310.2</ele>
        <time>2026-08-26T10:32:45Z</time>
      </trkpt>
      <trkpt lat="45.70487" lon="4.73234">
        <ele>310</ele>
        <time>2026-08-26T10:32:46Z</time>
      </trkpt>
      <trkpt lat="45.70492" lon="4.73237">
        <ele>310</ele>
        <time>2026-08-26T10:32:47Z</time>
      </trkpt>
      <trkpt lat="45.70498" lon="4.73241">
        <ele>309.8</ele>
        <time>2026-08-26T10:32:48Z</time>
      </trkpt>
      <trkpt lat="45.70503" lon="4.73245">
        <ele>309.6</ele>
        <time>2026-08-26T10:32:49Z</time>
      </trkpt>
      <trkpt lat="45.70508" lon="4.73248">
        <ele>309.4</ele>
        <time>2026-08-26T10:32:50Z</time>
      </trkpt>
      <trkpt lat="45.70514" lon="4.73252">
        <ele>309.4</ele>
        <time>2026-08-26T10:32:51Z</time>
      </trkpt>
      <trkpt lat="45.70519" lon="4.73255">
        <ele>309.2</ele>
        <time>2026-08-26T10:32:52Z</time>
      </trkpt>
      <trkpt lat="45.70525" lon="4.73259">
        <ele>309.4</ele>
        <time>2026-08-26T10:32:53Z</time>
      </trkpt>
      <trkpt lat="45.7053" lon="4.73263">
        <ele>309.4</ele>
        <time>2026-08-26T10:32:54Z</time>
      </trkpt>
      <trkpt lat="45.70535" lon="4.73267">
        <ele>309.4</ele>
        <time>2026-08-26T10:32:55Z</time>
      </trkpt>
      <trkpt lat="45.7054" lon="4.73271">
        <ele>309.2</ele>
        <time>2026-08-26T10:32:56Z</time>
      </trkpt>
      <trkpt lat="45.70545" lon="4.73275">
        <ele>309.4</ele>
        <time>2026-08-26T10:32:57Z</time>
      </trkpt>
      <trkpt lat="45.70551" lon="4.73279">
        <ele>309.2</ele>
        <time>2026-08-26T10:32:58Z</time>
      </trkpt>
      <trkpt lat="45.70556" lon="4.73283">
        <ele>309.2</ele>
        <time>2026-08-26T10:32:59Z</time>
      </trkpt>
      <trkpt lat="45.70561" lon="4.73288">
        <ele>309.2</ele>
        <time>2026-08-26T10:33:00Z</time>
      </trkpt>
      <trkpt lat="45.70566" lon="4.73293">
        <ele>309.2</ele>
        <time>2026-08-26T10:33:01Z</time>
      </trkpt>
      <trkpt lat="45.70571" lon="4.73298">
        <ele>309</ele>
        <time>2026-08-26T10:33:02Z</time>
      </trkpt>
      <trkpt lat="45.70576" lon="4.73304">
        <ele>309.2</ele>
        <time>2026-08-26T10:33:03Z</time>
      </trkpt>
      <trkpt lat="45.7058" lon="4.73309">
        <ele>309.4</ele>
        <time>2026-08-26T10:33:04Z</time>
      </trkpt>
      <trkpt lat="45.70585" lon="4.73314">
        <ele>309.4</ele>
        <time>2026-08-26T10:33:05Z</time>
      </trkpt>
      <trkpt lat="45.70589" lon="4.7332">
        <ele>309.4</ele>
        <time>2026-08-26T10:33:06Z</time>
      </trkpt>
      <trkpt lat="45.70593" lon="4.73327">
        <ele>309.8</ele>
        <time>2026-08-26T10:33:07Z</time>
      </trkpt>
      <trkpt lat="45.70597" lon="4.73333">
        <ele>309.8</ele>
        <time>2026-08-26T10:33:08Z</time>
      </trkpt>
      <trkpt lat="45.70601" lon="4.73338">
        <ele>309.6</ele>
        <time>2026-08-26T10:33:09Z</time>
      </trkpt>
      <trkpt lat="45.70605" lon="4.73345">
        <ele>309.6</ele>
        <time>2026-08-26T10:33:10Z</time>
      </trkpt>
      <trkpt lat="45.70608" lon="4.73351">
        <ele>309.6</ele>
        <time>2026-08-26T10:33:11Z</time>
      </trkpt>
      <trkpt lat="45.70612" lon="4.73356">
        <ele>309.4</ele>
        <time>2026-08-26T10:33:12Z</time>
      </trkpt>
      <trkpt lat="45.70615" lon="4.73362">
        <ele>309.6</ele>
        <time>2026-08-26T10:33:13Z</time>
      </trkpt>
      <trkpt lat="45.70619" lon="4.73368">
        <ele>309.8</ele>
        <time>2026-08-26T10:33:14Z</time>
      </trkpt>
      <trkpt lat="45.70623" lon="4.73374">
        <ele>310</ele>
        <time>2026-08-26T10:33:15Z</time>
      </trkpt>
      <trkpt lat="45.70626" lon="4.73379">
        <ele>310.2</ele>
        <time>2026-08-26T10:33:16Z</time>
      </trkpt>
      <trkpt lat="45.7063" lon="4.73384">
        <ele>310.2</ele>
        <time>2026-08-26T10:33:17Z</time>
      </trkpt>
      <trkpt lat="45.70633" lon="4.73389">
        <ele>310.2</ele>
        <time>2026-08-26T10:33:18Z</time>
      </trkpt>
      <trkpt lat="45.70637" lon="4.73394">
        <ele>310.2</ele>
        <time>2026-08-26T10:33:19Z</time>
      </trkpt>
      <trkpt lat="45.7064" lon="4.73399">
        <ele>310.2</ele>
        <time>2026-08-26T10:33:20Z</time>
      </trkpt>
      <trkpt lat="45.70644" lon="4.73404">
        <ele>310.2</ele>
        <time>2026-08-26T10:33:21Z</time>
      </trkpt>
      <trkpt lat="45.70647" lon="4.73408">
        <ele>310.4</ele>
        <time>2026-08-26T10:33:22Z</time>
      </trkpt>
      <trkpt lat="45.7065" lon="4.73412">
        <ele>310.6</ele>
        <time>2026-08-26T10:33:23Z</time>
      </trkpt>
      <trkpt lat="45.70653" lon="4.73417">
        <ele>310.8</ele>
        <time>2026-08-26T10:33:24Z</time>
      </trkpt>
      <trkpt lat="45.70656" lon="4.73421">
        <ele>311</ele>
        <time>2026-08-26T10:33:25Z</time>
      </trkpt>
      <trkpt lat="45.70659" lon="4.73425">
        <ele>311</ele>
        <time>2026-08-26T10:33:26Z</time>
      </trkpt>
      <trkpt lat="45.70663" lon="4.7343">
        <ele>311.2</ele>
        <time>2026-08-26T10:33:27Z</time>
      </trkpt>
      <trkpt lat="45.70665" lon="4.73434">
        <ele>311.2</ele>
        <time>2026-08-26T10:33:28Z</time>
      </trkpt>
      <trkpt lat="45.70668" lon="4.73439">
        <ele>311.2</ele>
        <time>2026-08-26T10:33:29Z</time>
      </trkpt>
      <trkpt lat="45.70671" lon="4.73443">
        <ele>311.4</ele>
        <time>2026-08-26T10:33:30Z</time>
      </trkpt>
      <trkpt lat="45.70674" lon="4.73448">
        <ele>311.4</ele>
        <time>2026-08-26T10:33:31Z</time>
      </trkpt>
      <trkpt lat="45.70678" lon="4.73452">
        <ele>311.8</ele>
        <time>2026-08-26T10:33:32Z</time>
      </trkpt>
      <trkpt lat="45.70681" lon="4.73456">
        <ele>312</ele>
        <time>2026-08-26T10:33:33Z</time>
      </trkpt>
      <trkpt lat="45.70685" lon="4.73459">
        <ele>312.2</ele>
        <time>2026-08-26T10:33:34Z</time>
      </trkpt>
      <trkpt lat="45.70688" lon="4.73463">
        <ele>312.2</ele>
        <time>2026-08-26T10:33:35Z</time>
      </trkpt>
      <trkpt lat="45.70691" lon="4.73467">
        <ele>312.2</ele>
        <time>2026-08-26T10:33:36Z</time>
      </trkpt>
      <trkpt lat="45.70695" lon="4.73471">
        <ele>312.2</ele>
        <time>2026-08-26T10:33:37Z</time>
      </trkpt>
      <trkpt lat="45.70698" lon="4.73474">
        <ele>312.2</ele>
        <time>2026-08-26T10:33:38Z</time>
      </trkpt>
      <trkpt lat="45.70702" lon="4.73478">
        <ele>312.4</ele>
        <time>2026-08-26T10:33:39Z</time>
      </trkpt>
      <trkpt lat="45.70705" lon="4.73481">
        <ele>312.4</ele>
        <time>2026-08-26T10:33:40Z</time>
      </trkpt>
      <trkpt lat="45.70709" lon="4.73485">
        <ele>312.4</ele>
        <time>2026-08-26T10:33:41Z</time>
      </trkpt>
      <trkpt lat="45.70712" lon="4.73489">
        <ele>312.6</ele>
        <time>2026-08-26T10:33:42Z</time>
      </trkpt>
      <trkpt lat="45.70715" lon="4.73492">
        <ele>312.6</ele>
        <time>2026-08-26T10:33:43Z</time>
      </trkpt>
      <trkpt lat="45.70719" lon="4.73495">
        <ele>312.6</ele>
        <time>2026-08-26T10:33:44Z</time>
      </trkpt>
      <trkpt lat="45.70722" lon="4.73499">
        <ele>312.8</ele>
        <time>2026-08-26T10:33:45Z</time>
      </trkpt>
      <trkpt lat="45.70726" lon="4.73503">
        <ele>313</ele>
        <time>2026-08-26T10:33:46Z</time>
      </trkpt>
      <trkpt lat="45.70729" lon="4.73507">
        <ele>313</ele>
        <time>2026-08-26T10:33:47Z</time>
      </trkpt>
      <trkpt lat="45.70733" lon="4.73511">
        <ele>313.2</ele>
        <time>2026-08-26T10:33:48Z</time>
      </trkpt>
      <trkpt lat="45.70736" lon="4.73515">
        <ele>313.2</ele>
        <time>2026-08-26T10:33:49Z</time>
      </trkpt>
      <trkpt lat="45.7074" lon="4.73519">
        <ele>313.2</ele>
        <time>2026-08-26T10:33:50Z</time>
      </trkpt>
      <trkpt lat="45.70744" lon="4.73522">
        <ele>313.2</ele>
        <time>2026-08-26T10:33:51Z</time>
      </trkpt>
      <trkpt lat="45.70747" lon="4.73526">
        <ele>313.2</ele>
        <time>2026-08-26T10:33:52Z</time>
      </trkpt>
      <trkpt lat="45.70751" lon="4.7353">
        <ele>313.2</ele>
        <time>2026-08-26T10:33:53Z</time>
      </trkpt>
      <trkpt lat="45.70755" lon="4.73533">
        <ele>313.2</ele>
        <time>2026-08-26T10:33:54Z</time>
      </trkpt>
      <trkpt lat="45.70759" lon="4.73538">
        <ele>313.2</ele>
        <time>2026-08-26T10:33:55Z</time>
      </trkpt>
      <trkpt lat="45.70762" lon="4.73541">
        <ele>313.2</ele>
        <time>2026-08-26T10:33:56Z</time>
      </trkpt>
      <trkpt lat="45.70766" lon="4.73545">
        <ele>313.4</ele>
        <time>2026-08-26T10:33:57Z</time>
      </trkpt>
      <trkpt lat="45.7077" lon="4.73548">
        <ele>313.4</ele>
        <time>2026-08-26T10:33:58Z</time>
      </trkpt>
      <trkpt lat="45.70774" lon="4.73551">
        <ele>313.4</ele>
        <time>2026-08-26T10:33:59Z</time>
      </trkpt>
      <trkpt lat="45.70778" lon="4.73554">
        <ele>313.6</ele>
        <time>2026-08-26T10:34:00Z</time>
      </trkpt>
      <trkpt lat="45.70782" lon="4.73557">
        <ele>313.6</ele>
        <time>2026-08-26T10:34:01Z</time>
      </trkpt>
      <trkpt lat="45.70786" lon="4.73561">
        <ele>313.6</ele>
        <time>2026-08-26T10:34:02Z</time>
      </trkpt>
      <trkpt lat="45.7079" lon="4.73564">
        <ele>313.6</ele>
        <time>2026-08-26T10:34:03Z</time>
      </trkpt>
      <trkpt lat="45.70794" lon="4.73568">
        <ele>313.8</ele>
        <time>2026-08-26T10:34:04Z</time>
      </trkpt>
      <trkpt lat="45.70797" lon="4.73571">
        <ele>314</ele>
        <time>2026-08-26T10:34:05Z</time>
      </trkpt>
      <trkpt lat="45.70801" lon="4.73575">
        <ele>314</ele>
        <time>2026-08-26T10:34:06Z</time>
      </trkpt>
      <trkpt lat="45.70805" lon="4.73578">
        <ele>314</ele>
        <time>2026-08-26T10:34:07Z</time>
      </trkpt>
      <trkpt lat="45.70809" lon="4.73582">
        <ele>314</ele>
        <time>2026-08-26T10:34:08Z</time>
      </trkpt>
      <trkpt lat="45.70813" lon="4.73586">
        <ele>313.8</ele>
        <time>2026-08-26T10:34:09Z</time>
      </trkpt>
      <trkpt lat="45.70817" lon="4.7359">
        <ele>313.8</ele>
        <time>2026-08-26T10:34:10Z</time>
      </trkpt>
      <trkpt lat="45.70821" lon="4.73594">
        <ele>313.8</ele>
        <time>2026-08-26T10:34:11Z</time>
      </trkpt>
      <trkpt lat="45.70825" lon="4.73598">
        <ele>314</ele>
        <time>2026-08-26T10:34:12Z</time>
      </trkpt>
      <trkpt lat="45.70828" lon="4.73602">
        <ele>314.2</ele>
        <time>2026-08-26T10:34:13Z</time>
      </trkpt>
      <trkpt lat="45.70832" lon="4.73606">
        <ele>314.2</ele>
        <time>2026-08-26T10:34:14Z</time>
      </trkpt>
      <trkpt lat="45.70836" lon="4.7361">
        <ele>314</ele>
        <time>2026-08-26T10:34:15Z</time>
      </trkpt>
      <trkpt lat="45.70839" lon="4.73615">
        <ele>314</ele>
        <time>2026-08-26T10:34:16Z</time>
      </trkpt>
      <trkpt lat="45.70843" lon="4.7362">
        <ele>314</ele>
        <time>2026-08-26T10:34:17Z</time>
      </trkpt>
      <trkpt lat="45.70847" lon="4.73624">
        <ele>313.8</ele>
        <time>2026-08-26T10:34:18Z</time>
      </trkpt>
      <trkpt lat="45.7085" lon="4.73628">
        <ele>313.8</ele>
        <time>2026-08-26T10:34:19Z</time>
      </trkpt>
      <trkpt lat="45.70854" lon="4.73633">
        <ele>313.8</ele>
        <time>2026-08-26T10:34:20Z</time>
      </trkpt>
      <trkpt lat="45.70858" lon="4.73636">
        <ele>314</ele>
        <time>2026-08-26T10:34:21Z</time>
      </trkpt>
      <trkpt lat="45.70863" lon="4.7364">
        <ele>313.8</ele>
        <time>2026-08-26T10:34:22Z</time>
      </trkpt>
      <trkpt lat="45.70867" lon="4.73644">
        <ele>313.8</ele>
        <time>2026-08-26T10:34:23Z</time>
      </trkpt>
      <trkpt lat="45.70871" lon="4.73648">
        <ele>314</ele>
        <time>2026-08-26T10:34:24Z</time>
      </trkpt>
      <trkpt lat="45.70876" lon="4.73653">
        <ele>313.8</ele>
        <time>2026-08-26T10:34:25Z</time>
      </trkpt>
      <trkpt lat="45.70879" lon="4.73658">
        <ele>313.8</ele>
        <time>2026-08-26T10:34:26Z</time>
      </trkpt>
      <trkpt lat="45.70883" lon="4.73664">
        <ele>313.6</ele>
        <time>2026-08-26T10:34:27Z</time>
      </trkpt>
      <trkpt lat="45.70887" lon="4.73669">
        <ele>313.4</ele>
        <time>2026-08-26T10:34:28Z</time>
      </trkpt>
      <trkpt lat="45.70891" lon="4.73674">
        <ele>313.2</ele>
        <time>2026-08-26T10:34:29Z</time>
      </trkpt>
      <trkpt lat="45.70895" lon="4.73678">
        <ele>313.2</ele>
        <time>2026-08-26T10:34:30Z</time>
      </trkpt>
      <trkpt lat="45.70899" lon="4.73681">
        <ele>313.2</ele>
        <time>2026-08-26T10:34:31Z</time>
      </trkpt>
      <trkpt lat="45.70904" lon="4.73684">
        <ele>313.2</ele>
        <time>2026-08-26T10:34:32Z</time>
      </trkpt>
      <trkpt lat="45.70908" lon="4.73688">
        <ele>313.2</ele>
        <time>2026-08-26T10:34:33Z</time>
      </trkpt>
      <trkpt lat="45.70912" lon="4.73692">
        <ele>313.4</ele>
        <time>2026-08-26T10:34:34Z</time>
      </trkpt>
      <trkpt lat="45.70916" lon="4.73696">
        <ele>313.6</ele>
        <time>2026-08-26T10:34:35Z</time>
      </trkpt>
      <trkpt lat="45.7092" lon="4.737">
        <ele>313.8</ele>
        <time>2026-08-26T10:34:36Z</time>
      </trkpt>
      <trkpt lat="45.70923" lon="4.73704">
        <ele>314</ele>
        <time>2026-08-26T10:34:37Z</time>
      </trkpt>
      <trkpt lat="45.70927" lon="4.73709">
        <ele>314</ele>
        <time>2026-08-26T10:34:38Z</time>
      </trkpt>
      <trkpt lat="45.70931" lon="4.73714">
        <ele>314.2</ele>
        <time>2026-08-26T10:34:39Z</time>
      </trkpt>
      <trkpt lat="45.70934" lon="4.73719">
        <ele>314.2</ele>
        <time>2026-08-26T10:34:40Z</time>
      </trkpt>
      <trkpt lat="45.70937" lon="4.73724">
        <ele>314.4</ele>
        <time>2026-08-26T10:34:41Z</time>
      </trkpt>
      <trkpt lat="45.70941" lon="4.73728">
        <ele>314.4</ele>
        <time>2026-08-26T10:34:42Z</time>
      </trkpt>
      <trkpt lat="45.70944" lon="4.73732">
        <ele>314.6</ele>
        <time>2026-08-26T10:34:43Z</time>
      </trkpt>
      <trkpt lat="45.70948" lon="4.73737">
        <ele>314.6</ele>
        <time>2026-08-26T10:34:44Z</time>
      </trkpt>
      <trkpt lat="45.70952" lon="4.73741">
        <ele>314.8</ele>
        <time>2026-08-26T10:34:45Z</time>
      </trkpt>
      <trkpt lat="45.70955" lon="4.73746">
        <ele>314.8</ele>
        <time>2026-08-26T10:34:46Z</time>
      </trkpt>
      <trkpt lat="45.70959" lon="4.7375">
        <ele>315</ele>
        <time>2026-08-26T10:34:47Z</time>
      </trkpt>
      <trkpt lat="45.70962" lon="4.73755">
        <ele>315</ele>
        <time>2026-08-26T10:34:48Z</time>
      </trkpt>
      <trkpt lat="45.70966" lon="4.73759">
        <ele>315</ele>
        <time>2026-08-26T10:34:49Z</time>
      </trkpt>
      <trkpt lat="45.7097" lon="4.73763">
        <ele>315.2</ele>
        <time>2026-08-26T10:34:50Z</time>
      </trkpt>
      <trkpt lat="45.70973" lon="4.73768">
        <ele>315.4</ele>
        <time>2026-08-26T10:34:51Z</time>
      </trkpt>
      <trkpt lat="45.70977" lon="4.73772">
        <ele>315.4</ele>
        <time>2026-08-26T10:34:52Z</time>
      </trkpt>
      <trkpt lat="45.7098" lon="4.73777">
        <ele>315.4</ele>
        <time>2026-08-26T10:34:53Z</time>
      </trkpt>
      <trkpt lat="45.70983" lon="4.73781">
        <ele>315.4</ele>
        <time>2026-08-26T10:34:54Z</time>
      </trkpt>
      <trkpt lat="45.70986" lon="4.73785">
        <ele>315.6</ele>
        <time>2026-08-26T10:34:55Z</time>
      </trkpt>
      <trkpt lat="45.7099" lon="4.73788">
        <ele>315.6</ele>
        <time>2026-08-26T10:34:56Z</time>
      </trkpt>
      <trkpt lat="45.70993" lon="4.73792">
        <ele>315.6</ele>
        <time>2026-08-26T10:34:57Z</time>
      </trkpt>
      <trkpt lat="45.70997" lon="4.73796">
        <ele>315.8</ele>
        <time>2026-08-26T10:34:58Z</time>
      </trkpt>
      <trkpt lat="45.71" lon="4.738">
        <ele>315.8</ele>
        <time>2026-08-26T10:34:59Z</time>
      </trkpt>
      <trkpt lat="45.71003" lon="4.73803">
        <ele>316</ele>
        <time>2026-08-26T10:35:00Z</time>
      </trkpt>
      <trkpt lat="45.71006" lon="4.73806">
        <ele>316.2</ele>
        <time>2026-08-26T10:35:01Z</time>
      </trkpt>
      <trkpt lat="45.71009" lon="4.7381">
        <ele>316.4</ele>
        <time>2026-08-26T10:35:02Z</time>
      </trkpt>
      <trkpt lat="45.71013" lon="4.73813">
        <ele>316.4</ele>
        <time>2026-08-26T10:35:03Z</time>
      </trkpt>
      <trkpt lat="45.71016" lon="4.73817">
        <ele>316.6</ele>
        <time>2026-08-26T10:35:04Z</time>
      </trkpt>
      <trkpt lat="45.7102" lon="4.7382">
        <ele>316.6</ele>
        <time>2026-08-26T10:35:05Z</time>
      </trkpt>
      <trkpt lat="45.71023" lon="4.73824">
        <ele>316.8</ele>
        <time>2026-08-26T10:35:06Z</time>
      </trkpt>
      <trkpt lat="45.71026" lon="4.73828">
        <ele>316.8</ele>
        <time>2026-08-26T10:35:07Z</time>
      </trkpt>
      <trkpt lat="45.7103" lon="4.73831">
        <ele>317</ele>
        <time>2026-08-26T10:35:08Z</time>
      </trkpt>
      <trkpt lat="45.71033" lon="4.73835">
        <ele>317.2</ele>
        <time>2026-08-26T10:35:09Z</time>
      </trkpt>
      <trkpt lat="45.71036" lon="4.73838">
        <ele>317.2</ele>
        <time>2026-08-26T10:35:10Z</time>
      </trkpt>
      <trkpt lat="45.71039" lon="4.73841">
        <ele>317.2</ele>
        <time>2026-08-26T10:35:11Z</time>
      </trkpt>
      <trkpt lat="45.71041" lon="4.73844">
        <ele>317.2</ele>
        <time>2026-08-26T10:35:12Z</time>
      </trkpt>
      <trkpt lat="45.71044" lon="4.73846">
        <ele>317.4</ele>
        <time>2026-08-26T10:35:13Z</time>
      </trkpt>
      <trkpt lat="45.71047" lon="4.73849">
        <ele>317.4</ele>
        <time>2026-08-26T10:35:14Z</time>
      </trkpt>
      <trkpt lat="45.7105" lon="4.73851">
        <ele>317.4</ele>
        <time>2026-08-26T10:35:15Z</time>
      </trkpt>
      <trkpt lat="45.71053" lon="4.73854">
        <ele>317.6</ele>
        <time>2026-08-26T10:35:16Z</time>
      </trkpt>
      <trkpt lat="45.71056" lon="4.73857">
        <ele>317.6</ele>
        <time>2026-08-26T10:35:17Z</time>
      </trkpt>
      <trkpt lat="45.71059" lon="4.73859">
        <ele>317.6</ele>
        <time>2026-08-26T10:35:18Z</time>
      </trkpt>
      <trkpt lat="45.71062" lon="4.73862">
        <ele>317.6</ele>
        <time>2026-08-26T10:35:19Z</time>
      </trkpt>
      <trkpt lat="45.71065" lon="4.73865">
        <ele>317.8</ele>
        <time>2026-08-26T10:35:20Z</time>
      </trkpt>
      <trkpt lat="45.71068" lon="4.73868">
        <ele>317.8</ele>
        <time>2026-08-26T10:35:21Z</time>
      </trkpt>
      <trkpt lat="45.71071" lon="4.73872">
        <ele>318</ele>
        <time>2026-08-26T10:35:22Z</time>
      </trkpt>
      <trkpt lat="45.71074" lon="4.73875">
        <ele>318</ele>
        <time>2026-08-26T10:35:23Z</time>
      </trkpt>
      <trkpt lat="45.71077" lon="4.73879">
        <ele>318.2</ele>
        <time>2026-08-26T10:35:24Z</time>
      </trkpt>
      <trkpt lat="45.71079" lon="4.73882">
        <ele>318.2</ele>
        <time>2026-08-26T10:35:25Z</time>
      </trkpt>
      <trkpt lat="45.71082" lon="4.73886">
        <ele>318.4</ele>
        <time>2026-08-26T10:35:26Z</time>
      </trkpt>
      <trkpt lat="45.71085" lon="4.7389">
        <ele>318.6</ele>
        <time>2026-08-26T10:35:27Z</time>
      </trkpt>
      <trkpt lat="45.71087" lon="4.73894">
        <ele>318.6</ele>
        <time>2026-08-26T10:35:28Z</time>
      </trkpt>
      <trkpt lat="45.71089" lon="4.73898">
        <ele>318.6</ele>
        <time>2026-08-26T10:35:29Z</time>
      </trkpt>
      <trkpt lat="45.71091" lon="4.73903">
        <ele>318.6</ele>
        <time>2026-08-26T10:35:30Z</time>
      </trkpt>
      <trkpt lat="45.71093" lon="4.73908">
        <ele>318.6</ele>
        <time>2026-08-26T10:35:31Z</time>
      </trkpt>
      <trkpt lat="45.71095" lon="4.73912">
        <ele>318.6</ele>
        <time>2026-08-26T10:35:32Z</time>
      </trkpt>
      <trkpt lat="45.71099" lon="4.73914">
        <ele>318.8</ele>
        <time>2026-08-26T10:35:33Z</time>
      </trkpt>
      <trkpt lat="45.71102" lon="4.73915">
        <ele>319</ele>
        <time>2026-08-26T10:35:34Z</time>
      </trkpt>
      <trkpt lat="45.71106" lon="4.73914">
        <ele>319</ele>
        <time>2026-08-26T10:35:35Z</time>
      </trkpt>
      <trkpt lat="45.7111" lon="4.73914">
        <ele>319</ele>
        <time>2026-08-26T10:35:36Z</time>
      </trkpt>
      <trkpt lat="45.71114" lon="4.73914">
        <ele>319.2</ele>
        <time>2026-08-26T10:35:37Z</time>
      </trkpt>
      <trkpt lat="45.71118" lon="4.73915">
        <ele>319.2</ele>
        <time>2026-08-26T10:35:38Z</time>
      </trkpt>
      <trkpt lat="45.71121" lon="4.73917">
        <ele>319.2</ele>
        <time>2026-08-26T10:35:39Z</time>
      </trkpt>
      <trkpt lat="45.71125" lon="4.73919">
        <ele>319.4</ele>
        <time>2026-08-26T10:35:40Z</time>
      </trkpt>
      <trkpt lat="45.71128" lon="4.73922">
        <ele>319.6</ele>
        <time>2026-08-26T10:35:41Z</time>
      </trkpt>
      <trkpt lat="45.71131" lon="4.73925">
        <ele>319.6</ele>
        <time>2026-08-26T10:35:42Z</time>
      </trkpt>
      <trkpt lat="45.71134" lon="4.73929">
        <ele>319.6</ele>
        <time>2026-08-26T10:35:43Z</time>
      </trkpt>
      <trkpt lat="45.71138" lon="4.73932">
        <ele>319.6</ele>
        <time>2026-08-26T10:35:44Z</time>
      </trkpt>
      <trkpt lat="45.71141" lon="4.73935">
        <ele>319.8</ele>
        <time>2026-08-26T10:35:45Z</time>
      </trkpt>
      <trkpt lat="45.71144" lon="4.73938">
        <ele>319.8</ele>
        <time>2026-08-26T10:35:46Z</time>
      </trkpt>
      <trkpt lat="45.71147" lon="4.73941">
        <ele>320</ele>
        <time>2026-08-26T10:35:47Z</time>
      </trkpt>
      <trkpt lat="45.71151" lon="4.73944">
        <ele>320</ele>
        <time>2026-08-26T10:35:48Z</time>
      </trkpt>
      <trkpt lat="45.71154" lon="4.73947">
        <ele>320</ele>
        <time>2026-08-26T10:35:49Z</time>
      </trkpt>
      <trkpt lat="45.71157" lon="4.73951">
        <ele>320</ele>
        <time>2026-08-26T10:35:50Z</time>
      </trkpt>
      <trkpt lat="45.71161" lon="4.73953">
        <ele>320.2</ele>
        <time>2026-08-26T10:35:51Z</time>
      </trkpt>
      <trkpt lat="45.71164" lon="4.73956">
        <ele>320.2</ele>
        <time>2026-08-26T10:35:52Z</time>
      </trkpt>
      <trkpt lat="45.71167" lon="4.73959">
        <ele>320.2</ele>
        <time>2026-08-26T10:35:53Z</time>
      </trkpt>
      <trkpt lat="45.7117" lon="4.73962">
        <ele>320.4</ele>
        <time>2026-08-26T10:35:54Z</time>
      </trkpt>
      <trkpt lat="45.71173" lon="4.73965">
        <ele>320.6</ele>
        <time>2026-08-26T10:35:55Z</time>
      </trkpt>
      <trkpt lat="45.71177" lon="4.73969">
        <ele>320.6</ele>
        <time>2026-08-26T10:35:56Z</time>
      </trkpt>
      <trkpt lat="45.7118" lon="4.73971">
        <ele>320.8</ele>
        <time>2026-08-26T10:35:57Z</time>
      </trkpt>
      <trkpt lat="45.71183" lon="4.73974">
        <ele>321</ele>
        <time>2026-08-26T10:35:58Z</time>
      </trkpt>
      <trkpt lat="45.71186" lon="4.73977">
        <ele>321</ele>
        <time>2026-08-26T10:35:59Z</time>
      </trkpt>
      <trkpt lat="45.71189" lon="4.7398">
        <ele>321.2</ele>
        <time>2026-08-26T10:36:00Z</time>
      </trkpt>
      <trkpt lat="45.71193" lon="4.73982">
        <ele>321.2</ele>
        <time>2026-08-26T10:36:01Z</time>
      </trkpt>
      <trkpt lat="45.71196" lon="4.73985">
        <ele>321.2</ele>
        <time>2026-08-26T10:36:02Z</time>
      </trkpt>
      <trkpt lat="45.712" lon="4.73987">
        <ele>321.2</ele>
        <time>2026-08-26T10:36:03Z</time>
      </trkpt>
      <trkpt lat="45.71203" lon="4.7399">
        <ele>321.4</ele>
        <time>2026-08-26T10:36:04Z</time>
      </trkpt>
      <trkpt lat="45.71207" lon="4.73992">
        <ele>321.4</ele>
        <time>2026-08-26T10:36:05Z</time>
      </trkpt>
      <trkpt lat="45.7121" lon="4.73995">
        <ele>321.6</ele>
        <time>2026-08-26T10:36:06Z</time>
      </trkpt>
      <trkpt lat="45.71214" lon="4.73998">
        <ele>321.6</ele>
        <time>2026-08-26T10:36:07Z</time>
      </trkpt>
      <trkpt lat="45.71217" lon="4.74">
        <ele>321.6</ele>
        <time>2026-08-26T10:36:08Z</time>
      </trkpt>
      <trkpt lat="45.71221" lon="4.74003">
        <ele>321.8</ele>
        <time>2026-08-26T10:36:09Z</time>
      </trkpt>
      <trkpt lat="45.71224" lon="4.74006">
        <ele>321.8</ele>
        <time>2026-08-26T10:36:10Z</time>
      </trkpt>
      <trkpt lat="45.71228" lon="4.74009">
        <ele>321.8</ele>
        <time>2026-08-26T10:36:11Z</time>
      </trkpt>
      <trkpt lat="45.71231" lon="4.74013">
        <ele>321.8</ele>
        <time>2026-08-26T10:36:12Z</time>
      </trkpt>
      <trkpt lat="45.71234" lon="4.74015">
        <ele>321.8</ele>
        <time>2026-08-26T10:36:13Z</time>
      </trkpt>
      <trkpt lat="45.71237" lon="4.74018">
        <ele>321.8</ele>
        <time>2026-08-26T10:36:14Z</time>
      </trkpt>
      <trkpt lat="45.7124" lon="4.74021">
        <ele>322</ele>
        <time>2026-08-26T10:36:15Z</time>
      </trkpt>
      <trkpt lat="45.71243" lon="4.74024">
        <ele>322.2</ele>
        <time>2026-08-26T10:36:16Z</time>
      </trkpt>
      <trkpt lat="45.71245" lon="4.74027">
        <ele>322.2</ele>
        <time>2026-08-26T10:36:17Z</time>
      </trkpt>
      <trkpt lat="45.71248" lon="4.7403">
        <ele>322.2</ele>
        <time>2026-08-26T10:36:18Z</time>
      </trkpt>
      <trkpt lat="45.7125" lon="4.74033">
        <ele>322.4</ele>
        <time>2026-08-26T10:36:19Z</time>
      </trkpt>
      <trkpt lat="45.71253" lon="4.74036">
        <ele>322.4</ele>
        <time>2026-08-26T10:36:20Z</time>
      </trkpt>
      <trkpt lat="45.71256" lon="4.74038">
        <ele>322.6</ele>
        <time>2026-08-26T10:36:21Z</time>
      </trkpt>
      <trkpt lat="45.71259" lon="4.7404">
        <ele>322.8</ele>
        <time>2026-08-26T10:36:22Z</time>
      </trkpt>
      <trkpt lat="45.71261" lon="4.74042">
        <ele>322.8</ele>
        <time>2026-08-26T10:36:23Z</time>
      </trkpt>
      <trkpt lat="45.71264" lon="4.74045">
        <ele>323</ele>
        <time>2026-08-26T10:36:24Z</time>
      </trkpt>
      <trkpt lat="45.71266" lon="4.74048">
        <ele>323.2</ele>
        <time>2026-08-26T10:36:25Z</time>
      </trkpt>
      <trkpt lat="45.71269" lon="4.7405">
        <ele>323.2</ele>
        <time>2026-08-26T10:36:26Z</time>
      </trkpt>
      <trkpt lat="45.71272" lon="4.74053">
        <ele>323.2</ele>
        <time>2026-08-26T10:36:27Z</time>
      </trkpt>
      <trkpt lat="45.71275" lon="4.74055">
        <ele>323.4</ele>
        <time>2026-08-26T10:36:28Z</time>
      </trkpt>
      <trkpt lat="45.71277" lon="4.74058">
        <ele>323.4</ele>
        <time>2026-08-26T10:36:29Z</time>
      </trkpt>
      <trkpt lat="45.7128" lon="4.7406">
        <ele>323.6</ele>
        <time>2026-08-26T10:36:30Z</time>
      </trkpt>
      <trkpt lat="45.71282" lon="4.74062">
        <ele>323.8</ele>
        <time>2026-08-26T10:36:31Z</time>
      </trkpt>
      <trkpt lat="45.71284" lon="4.74064">
        <ele>323.8</ele>
        <time>2026-08-26T10:36:32Z</time>
      </trkpt>
      <trkpt lat="45.71287" lon="4.74066">
        <ele>324</ele>
        <time>2026-08-26T10:36:33Z</time>
      </trkpt>
      <trkpt lat="45.7129" lon="4.74069">
        <ele>324</ele>
        <time>2026-08-26T10:36:34Z</time>
      </trkpt>
      <trkpt lat="45.71293" lon="4.74071">
        <ele>324</ele>
        <time>2026-08-26T10:36:35Z</time>
      </trkpt>
      <trkpt lat="45.71296" lon="4.74074">
        <ele>324</ele>
        <time>2026-08-26T10:36:36Z</time>
      </trkpt>
      <trkpt lat="45.71299" lon="4.74077">
        <ele>324</ele>
        <time>2026-08-26T10:36:37Z</time>
      </trkpt>
      <trkpt lat="45.71302" lon="4.7408">
        <ele>324</ele>
        <time>2026-08-26T10:36:38Z</time>
      </trkpt>
      <trkpt lat="45.71306" lon="4.74083">
        <ele>324</ele>
        <time>2026-08-26T10:36:39Z</time>
      </trkpt>
      <trkpt lat="45.71309" lon="4.74086">
        <ele>324</ele>
        <time>2026-08-26T10:36:40Z</time>
      </trkpt>
      <trkpt lat="45.71312" lon="4.7409">
        <ele>324</ele>
        <time>2026-08-26T10:36:41Z</time>
      </trkpt>
      <trkpt lat="45.71316" lon="4.74093">
        <ele>324</ele>
        <time>2026-08-26T10:36:42Z</time>
      </trkpt>
      <trkpt lat="45.71319" lon="4.74096">
        <ele>324.2</ele>
        <time>2026-08-26T10:36:43Z</time>
      </trkpt>
      <trkpt lat="45.71323" lon="4.74098">
        <ele>324.2</ele>
        <time>2026-08-26T10:36:44Z</time>
      </trkpt>
      <trkpt lat="45.71326" lon="4.74102">
        <ele>324.4</ele>
        <time>2026-08-26T10:36:45Z</time>
      </trkpt>
      <trkpt lat="45.7133" lon="4.74105">
        <ele>324.4</ele>
        <time>2026-08-26T10:36:46Z</time>
      </trkpt>
      <trkpt lat="45.71333" lon="4.74108">
        <ele>324.6</ele>
        <time>2026-08-26T10:36:47Z</time>
      </trkpt>
      <trkpt lat="45.71337" lon="4.74111">
        <ele>324.6</ele>
        <time>2026-08-26T10:36:48Z</time>
      </trkpt>
      <trkpt lat="45.7134" lon="4.74114">
        <ele>324.8</ele>
        <time>2026-08-26T10:36:49Z</time>
      </trkpt>
      <trkpt lat="45.71344" lon="4.74118">
        <ele>324.8</ele>
        <time>2026-08-26T10:36:50Z</time>
      </trkpt>
      <trkpt lat="45.71347" lon="4.74121">
        <ele>324.8</ele>
        <time>2026-08-26T10:36:51Z</time>
      </trkpt>
      <trkpt lat="45.7135" lon="4.74124">
        <ele>324.8</ele>
        <time>2026-08-26T10:36:52Z</time>
      </trkpt>
      <trkpt lat="45.71354" lon="4.74128">
        <ele>325</ele>
        <time>2026-08-26T10:36:53Z</time>
      </trkpt>
      <trkpt lat="45.71358" lon="4.74131">
        <ele>325</ele>
        <time>2026-08-26T10:36:54Z</time>
      </trkpt>
      <trkpt lat="45.71361" lon="4.74135">
        <ele>325.2</ele>
        <time>2026-08-26T10:36:55Z</time>
      </trkpt>
      <trkpt lat="45.71365" lon="4.74138">
        <ele>325.2</ele>
        <time>2026-08-26T10:36:56Z</time>
      </trkpt>
      <trkpt lat="45.71368" lon="4.74142">
        <ele>325.2</ele>
        <time>2026-08-26T10:36:57Z</time>
      </trkpt>
      <trkpt lat="45.71372" lon="4.74145">
        <ele>325.2</ele>
        <time>2026-08-26T10:36:58Z</time>
      </trkpt>
      <trkpt lat="45.71375" lon="4.74148">
        <ele>325.2</ele>
        <time>2026-08-26T10:36:59Z</time>
      </trkpt>
      <trkpt lat="45.71378" lon="4.74151">
        <ele>325.2</ele>
        <time>2026-08-26T10:37:00Z</time>
      </trkpt>
      <trkpt lat="45.71382" lon="4.74154">
        <ele>325.2</ele>
        <time>2026-08-26T10:37:01Z</time>
      </trkpt>
      <trkpt lat="45.71385" lon="4.74158">
        <ele>325.2</ele>
        <time>2026-08-26T10:37:02Z</time>
      </trkpt>
      <trkpt lat="45.71389" lon="4.74161">
        <ele>325.2</ele>
        <time>2026-08-26T10:37:03Z</time>
      </trkpt>
      <trkpt lat="45.71392" lon="4.74164">
        <ele>325.2</ele>
        <time>2026-08-26T10:37:04Z</time>
      </trkpt>
      <trkpt lat="45.71396" lon="4.74168">
        <ele>325.4</ele>
        <time>2026-08-26T10:37:05Z</time>
      </trkpt>
      <trkpt lat="45.71399" lon="4.74171">
        <ele>325.4</ele>
        <time>2026-08-26T10:37:06Z</time>
      </trkpt>
      <trkpt lat="45.71403" lon="4.74175">
        <ele>325.6</ele>
        <time>2026-08-26T10:37:07Z</time>
      </trkpt>
      <trkpt lat="45.71406" lon="4.7418">
        <ele>325.8</ele>
        <time>2026-08-26T10:37:08Z</time>
      </trkpt>
      <trkpt lat="45.71409" lon="4.74185">
        <ele>326</ele>
        <time>2026-08-26T10:37:09Z</time>
      </trkpt>
      <trkpt lat="45.71412" lon="4.7419">
        <ele>326</ele>
        <time>2026-08-26T10:37:10Z</time>
      </trkpt>
      <trkpt lat="45.71415" lon="4.74195">
        <ele>326.2</ele>
        <time>2026-08-26T10:37:11Z</time>
      </trkpt>
      <trkpt lat="45.71417" lon="4.74201">
        <ele>326.2</ele>
        <time>2026-08-26T10:37:12Z</time>
      </trkpt>
      <trkpt lat="45.7142" lon="4.74207">
        <ele>326.2</ele>
        <time>2026-08-26T10:37:13Z</time>
      </trkpt>
      <trkpt lat="45.71422" lon="4.74212">
        <ele>326.2</ele>
        <time>2026-08-26T10:37:14Z</time>
      </trkpt>
      <trkpt lat="45.71424" lon="4.74219">
        <ele>326.2</ele>
        <time>2026-08-26T10:37:15Z</time>
      </trkpt>
      <trkpt lat="45.71427" lon="4.74225">
        <ele>326.2</ele>
        <time>2026-08-26T10:37:16Z</time>
      </trkpt>
      <trkpt lat="45.71429" lon="4.74231">
        <ele>326.2</ele>
        <time>2026-08-26T10:37:17Z</time>
      </trkpt>
      <trkpt lat="45.71431" lon="4.74237">
        <ele>326.2</ele>
        <time>2026-08-26T10:37:18Z</time>
      </trkpt>
      <trkpt lat="45.71433" lon="4.74244">
        <ele>326</ele>
        <time>2026-08-26T10:37:19Z</time>
      </trkpt>
      <trkpt lat="45.71435" lon="4.7425">
        <ele>326</ele>
        <time>2026-08-26T10:37:20Z</time>
      </trkpt>
      <trkpt lat="45.71438" lon="4.74256">
        <ele>326.2</ele>
        <time>2026-08-26T10:37:21Z</time>
      </trkpt>
      <trkpt lat="45.7144" lon="4.74262">
        <ele>326.2</ele>
        <time>2026-08-26T10:37:22Z</time>
      </trkpt>
      <trkpt lat="45.71442" lon="4.74267">
        <ele>326.2</ele>
        <time>2026-08-26T10:37:23Z</time>
      </trkpt>
      <trkpt lat="45.71445" lon="4.74273">
        <ele>326.4</ele>
        <time>2026-08-26T10:37:24Z</time>
      </trkpt>
      <trkpt lat="45.71447" lon="4.74279">
        <ele>326.4</ele>
        <time>2026-08-26T10:37:25Z</time>
      </trkpt>
      <trkpt lat="45.71449" lon="4.74284">
        <ele>326.6</ele>
        <time>2026-08-26T10:37:26Z</time>
      </trkpt>
      <trkpt lat="45.71451" lon="4.74291">
        <ele>326.6</ele>
        <time>2026-08-26T10:37:27Z</time>
      </trkpt>
      <trkpt lat="45.71453" lon="4.74297">
        <ele>326.6</ele>
        <time>2026-08-26T10:37:28Z</time>
      </trkpt>
      <trkpt lat="45.71455" lon="4.74303">
        <ele>326.8</ele>
        <time>2026-08-26T10:37:29Z</time>
      </trkpt>
      <trkpt lat="45.71457" lon="4.74309">
        <ele>326.8</ele>
        <time>2026-08-26T10:37:30Z</time>
      </trkpt>
      <trkpt lat="45.71459" lon="4.74315">
        <ele>326.8</ele>
        <time>2026-08-26T10:37:31Z</time>
      </trkpt>
      <trkpt lat="45.71461" lon="4.74321">
        <ele>327</ele>
        <time>2026-08-26T10:37:32Z</time>
      </trkpt>
      <trkpt lat="45.71463" lon="4.74327">
        <ele>327</ele>
        <time>2026-08-26T10:37:33Z</time>
      </trkpt>
      <trkpt lat="45.71464" lon="4.74333">
        <ele>327.2</ele>
        <time>2026-08-26T10:37:34Z</time>
      </trkpt>
      <trkpt lat="45.71465" lon="4.74339">
        <ele>327.4</ele>
        <time>2026-08-26T10:37:35Z</time>
      </trkpt>
      <trkpt lat="45.71466" lon="4.74345">
        <ele>327.4</ele>
        <time>2026-08-26T10:37:36Z</time>
      </trkpt>
      <trkpt lat="45.71467" lon="4.74351">
        <ele>327.6</ele>
        <time>2026-08-26T10:37:37Z</time>
      </trkpt>
      <trkpt lat="45.71469" lon="4.74358">
        <ele>327.8</ele>
        <time>2026-08-26T10:37:38Z</time>
      </trkpt>
      <trkpt lat="45.7147" lon="4.74364">
        <ele>327.8</ele>
        <time>2026-08-26T10:37:39Z</time>
      </trkpt>
      <trkpt lat="45.7147" lon="4.7437">
        <ele>328</ele>
        <time>2026-08-26T10:37:40Z</time>
      </trkpt>
      <trkpt lat="45.71471" lon="4.74376">
        <ele>328</ele>
        <time>2026-08-26T10:37:41Z</time>
      </trkpt>
      <trkpt lat="45.71472" lon="4.74383">
        <ele>328</ele>
        <time>2026-08-26T10:37:42Z</time>
      </trkpt>
      <trkpt lat="45.71473" lon="4.74389">
        <ele>328</ele>
        <time>2026-08-26T10:37:43Z</time>
      </trkpt>
      <trkpt lat="45.71474" lon="4.74396">
        <ele>328</ele>
        <time>2026-08-26T10:37:44Z</time>
      </trkpt>
      <trkpt lat="45.71474" lon="4.74402">
        <ele>328</ele>
        <time>2026-08-26T10:37:45Z</time>
      </trkpt>
      <trkpt lat="45.71475" lon="4.74409">
        <ele>328</ele>
        <time>2026-08-26T10:37:46Z</time>
      </trkpt>
      <trkpt lat="45.71476" lon="4.74415">
        <ele>328.2</ele>
        <time>2026-08-26T10:37:47Z</time>
      </trkpt>
      <trkpt lat="45.71477" lon="4.74421">
        <ele>328.2</ele>
        <time>2026-08-26T10:37:48Z</time>
      </trkpt>
      <trkpt lat="45.71477" lon="4.74427">
        <ele>328.4</ele>
        <time>2026-08-26T10:37:49Z</time>
      </trkpt>
      <trkpt lat="45.71478" lon="4.74433">
        <ele>328.6</ele>
        <time>2026-08-26T10:37:50Z</time>
      </trkpt>
      <trkpt lat="45.71478" lon="4.74439">
        <ele>328.6</ele>
        <time>2026-08-26T10:37:51Z</time>
      </trkpt>
      <trkpt lat="45.71478" lon="4.74445">
        <ele>328.8</ele>
        <time>2026-08-26T10:37:52Z</time>
      </trkpt>
      <trkpt lat="45.71479" lon="4.74451">
        <ele>329</ele>
        <time>2026-08-26T10:37:53Z</time>
      </trkpt>
      <trkpt lat="45.71479" lon="4.74458">
        <ele>329</ele>
        <time>2026-08-26T10:37:54Z</time>
      </trkpt>
      <trkpt lat="45.71479" lon="4.74464">
        <ele>329</ele>
        <time>2026-08-26T10:37:55Z</time>
      </trkpt>
      <trkpt lat="45.71479" lon="4.74471">
        <ele>329</ele>
        <time>2026-08-26T10:37:56Z</time>
      </trkpt>
      <trkpt lat="45.7148" lon="4.74477">
        <ele>329</ele>
        <time>2026-08-26T10:37:57Z</time>
      </trkpt>
      <trkpt lat="45.71481" lon="4.74482">
        <ele>329.2</ele>
        <time>2026-08-26T10:37:58Z</time>
      </trkpt>
      <trkpt lat="45.71483" lon="4.74488">
        <ele>329.2</ele>
        <time>2026-08-26T10:37:59Z</time>
      </trkpt>
      <trkpt lat="45.71484" lon="4.74493">
        <ele>329.4</ele>
        <time>2026-08-26T10:38:00Z</time>
      </trkpt>
      <trkpt lat="45.71485" lon="4.74499">
        <ele>329.4</ele>
        <time>2026-08-26T10:38:01Z</time>
      </trkpt>
      <trkpt lat="45.71487" lon="4.74504">
        <ele>329.6</ele>
        <time>2026-08-26T10:38:02Z</time>
      </trkpt>
      <trkpt lat="45.71489" lon="4.74508">
        <ele>329.8</ele>
        <time>2026-08-26T10:38:03Z</time>
      </trkpt>
      <trkpt lat="45.71491" lon="4.74512">
        <ele>329.8</ele>
        <time>2026-08-26T10:38:04Z</time>
      </trkpt>
      <trkpt lat="45.71493" lon="4.74517">
        <ele>330</ele>
        <time>2026-08-26T10:38:05Z</time>
      </trkpt>
      <trkpt lat="45.71494" lon="4.74522">
        <ele>330.2</ele>
        <time>2026-08-26T10:38:06Z</time>
      </trkpt>
      <trkpt lat="45.71496" lon="4.74527">
        <ele>330.2</ele>
        <time>2026-08-26T10:38:07Z</time>
      </trkpt>
      <trkpt lat="45.71498" lon="4.74533">
        <ele>330.4</ele>
        <time>2026-08-26T10:38:08Z</time>
      </trkpt>
      <trkpt lat="45.715" lon="4.74538">
        <ele>330.6</ele>
        <time>2026-08-26T10:38:09Z</time>
      </trkpt>
      <trkpt lat="45.71502" lon="4.74544">
        <ele>330.8</ele>
        <time>2026-08-26T10:38:10Z</time>
      </trkpt>
      <trkpt lat="45.71504" lon="4.7455">
        <ele>330.8</ele>
        <time>2026-08-26T10:38:11Z</time>
      </trkpt>
      <trkpt lat="45.71505" lon="4.74555">
        <ele>331</ele>
        <time>2026-08-26T10:38:12Z</time>
      </trkpt>
      <trkpt lat="45.71507" lon="4.7456">
        <ele>331.2</ele>
        <time>2026-08-26T10:38:13Z</time>
      </trkpt>
      <trkpt lat="45.71509" lon="4.74565">
        <ele>331.4</ele>
        <time>2026-08-26T10:38:14Z</time>
      </trkpt>
      <trkpt lat="45.71511" lon="4.74571">
        <ele>331.4</ele>
        <time>2026-08-26T10:38:15Z</time>
      </trkpt>
      <trkpt lat="45.71513" lon="4.74576">
        <ele>331.6</ele>
        <time>2026-08-26T10:38:16Z</time>
      </trkpt>
      <trkpt lat="45.71515" lon="4.74581">
        <ele>331.6</ele>
        <time>2026-08-26T10:38:17Z</time>
      </trkpt>
      <trkpt lat="45.71518" lon="4.74586">
        <ele>331.6</ele>
        <time>2026-08-26T10:38:18Z</time>
      </trkpt>
      <trkpt lat="45.7152" lon="4.74592">
        <ele>331.8</ele>
        <time>2026-08-26T10:38:19Z</time>
      </trkpt>
      <trkpt lat="45.71522" lon="4.74598">
        <ele>331.8</ele>
        <time>2026-08-26T10:38:20Z</time>
      </trkpt>
      <trkpt lat="45.71525" lon="4.74603">
        <ele>331.6</ele>
        <time>2026-08-26T10:38:21Z</time>
      </trkpt>
      <trkpt lat="45.71527" lon="4.74608">
        <ele>331.6</ele>
        <time>2026-08-26T10:38:22Z</time>
      </trkpt>
      <trkpt lat="45.7153" lon="4.74612">
        <ele>331.6</ele>
        <time>2026-08-26T10:38:23Z</time>
      </trkpt>
      <trkpt lat="45.71533" lon="4.74617">
        <ele>331.6</ele>
        <time>2026-08-26T10:38:24Z</time>
      </trkpt>
      <trkpt lat="45.71536" lon="4.74622">
        <ele>331.6</ele>
        <time>2026-08-26T10:38:25Z</time>
      </trkpt>
      <trkpt lat="45.71539" lon="4.74627">
        <ele>331.4</ele>
        <time>2026-08-26T10:38:26Z</time>
      </trkpt>
      <trkpt lat="45.71542" lon="4.74633">
        <ele>331.2</ele>
        <time>2026-08-26T10:38:27Z</time>
      </trkpt>
      <trkpt lat="45.71545" lon="4.74639">
        <ele>331</ele>
        <time>2026-08-26T10:38:28Z</time>
      </trkpt>
      <trkpt lat="45.71548" lon="4.74645">
        <ele>330.8</ele>
        <time>2026-08-26T10:38:29Z</time>
      </trkpt>
      <trkpt lat="45.71551" lon="4.74651">
        <ele>330.6</ele>
        <time>2026-08-26T10:38:30Z</time>
      </trkpt>
      <trkpt lat="45.71554" lon="4.74658">
        <ele>330.4</ele>
        <time>2026-08-26T10:38:31Z</time>
      </trkpt>
      <trkpt lat="45.71558" lon="4.74664">
        <ele>330.2</ele>
        <time>2026-08-26T10:38:32Z</time>
      </trkpt>
      <trkpt lat="45.71561" lon="4.7467">
        <ele>330</ele>
        <time>2026-08-26T10:38:33Z</time>
      </trkpt>
      <trkpt lat="45.71565" lon="4.74677">
        <ele>330</ele>
        <time>2026-08-26T10:38:34Z</time>
      </trkpt>
      <trkpt lat="45.71568" lon="4.74684">
        <ele>329.8</ele>
        <time>2026-08-26T10:38:35Z</time>
      </trkpt>
      <trkpt lat="45.71571" lon="4.7469">
        <ele>329.6</ele>
        <time>2026-08-26T10:38:36Z</time>
      </trkpt>
      <trkpt lat="45.71575" lon="4.74698">
        <ele>329.4</ele>
        <time>2026-08-26T10:38:37Z</time>
      </trkpt>
      <trkpt lat="45.71578" lon="4.74706">
        <ele>329.2</ele>
        <time>2026-08-26T10:38:38Z</time>
      </trkpt>
      <trkpt lat="45.71581" lon="4.74714">
        <ele>329</ele>
        <time>2026-08-26T10:38:39Z</time>
      </trkpt>
      <trkpt lat="45.71583" lon="4.74723">
        <ele>328.8</ele>
        <time>2026-08-26T10:38:40Z</time>
      </trkpt>
      <trkpt lat="45.71585" lon="4.74732">
        <ele>328.4</ele>
        <time>2026-08-26T10:38:41Z</time>
      </trkpt>
      <trkpt lat="45.71588" lon="4.74741">
        <ele>328.2</ele>
        <time>2026-08-26T10:38:42Z</time>
      </trkpt>
      <trkpt lat="45.71591" lon="4.7475">
        <ele>327.8</ele>
        <time>2026-08-26T10:38:43Z</time>
      </trkpt>
      <trkpt lat="45.71593" lon="4.74759">
        <ele>327.4</ele>
        <time>2026-08-26T10:38:44Z</time>
      </trkpt>
      <trkpt lat="45.71595" lon="4.74769">
        <ele>326.8</ele>
        <time>2026-08-26T10:38:45Z</time>
      </trkpt>
      <trkpt lat="45.71597" lon="4.74777">
        <ele>326.4</ele>
        <time>2026-08-26T10:38:46Z</time>
      </trkpt>
      <trkpt lat="45.71599" lon="4.74787">
        <ele>326.2</ele>
        <time>2026-08-26T10:38:47Z</time>
      </trkpt>
      <trkpt lat="45.71601" lon="4.74796">
        <ele>326</ele>
        <time>2026-08-26T10:38:48Z</time>
      </trkpt>
      <trkpt lat="45.71603" lon="4.74806">
        <ele>325.8</ele>
        <time>2026-08-26T10:38:49Z</time>
      </trkpt>
      <trkpt lat="45.71605" lon="4.74815">
        <ele>325.6</ele>
        <time>2026-08-26T10:38:50Z</time>
      </trkpt>
      <trkpt lat="45.71606" lon="4.74825">
        <ele>325.4</ele>
        <time>2026-08-26T10:38:51Z</time>
      </trkpt>
      <trkpt lat="45.71608" lon="4.74835">
        <ele>325.2</ele>
        <time>2026-08-26T10:38:52Z</time>
      </trkpt>
      <trkpt lat="45.7161" lon="4.74845">
        <ele>325</ele>
        <time>2026-08-26T10:38:53Z</time>
      </trkpt>
      <trkpt lat="45.71612" lon="4.74854">
        <ele>324.8</ele>
        <time>2026-08-26T10:38:54Z</time>
      </trkpt>
      <trkpt lat="45.71613" lon="4.74863">
        <ele>324.8</ele>
        <time>2026-08-26T10:38:55Z</time>
      </trkpt>
      <trkpt lat="45.71613" lon="4.74873">
        <ele>324.6</ele>
        <time>2026-08-26T10:38:56Z</time>
      </trkpt>
      <trkpt lat="45.7161" lon="4.74882">
        <ele>324.6</ele>
        <time>2026-08-26T10:38:57Z</time>
      </trkpt>
      <trkpt lat="45.71607" lon="4.74891">
        <ele>324.4</ele>
        <time>2026-08-26T10:38:58Z</time>
      </trkpt>
      <trkpt lat="45.71603" lon="4.74898">
        <ele>324.2</ele>
        <time>2026-08-26T10:38:59Z</time>
      </trkpt>
      <trkpt lat="45.71599" lon="4.74907">
        <ele>324.2</ele>
        <time>2026-08-26T10:39:00Z</time>
      </trkpt>
      <trkpt lat="45.71596" lon="4.74915">
        <ele>324.2</ele>
        <time>2026-08-26T10:39:01Z</time>
      </trkpt>
      <trkpt lat="45.71592" lon="4.74923">
        <ele>324</ele>
        <time>2026-08-26T10:39:02Z</time>
      </trkpt>
      <trkpt lat="45.71589" lon="4.74932">
        <ele>324</ele>
        <time>2026-08-26T10:39:03Z</time>
      </trkpt>
      <trkpt lat="45.71585" lon="4.7494">
        <ele>323.8</ele>
        <time>2026-08-26T10:39:04Z</time>
      </trkpt>
      <trkpt lat="45.71581" lon="4.74948">
        <ele>323.8</ele>
        <time>2026-08-26T10:39:05Z</time>
      </trkpt>
      <trkpt lat="45.71577" lon="4.74957">
        <ele>323.6</ele>
        <time>2026-08-26T10:39:06Z</time>
      </trkpt>
      <trkpt lat="45.71572" lon="4.74965">
        <ele>323.4</ele>
        <time>2026-08-26T10:39:07Z</time>
      </trkpt>
      <trkpt lat="45.71568" lon="4.74973">
        <ele>323.2</ele>
        <time>2026-08-26T10:39:08Z</time>
      </trkpt>
      <trkpt lat="45.71564" lon="4.74981">
        <ele>322.8</ele>
        <time>2026-08-26T10:39:09Z</time>
      </trkpt>
      <trkpt lat="45.71559" lon="4.74989">
        <ele>322.6</ele>
        <time>2026-08-26T10:39:10Z</time>
      </trkpt>
      <trkpt lat="45.71554" lon="4.74997">
        <ele>322.6</ele>
        <time>2026-08-26T10:39:11Z</time>
      </trkpt>
      <trkpt lat="45.7155" lon="4.75004">
        <ele>322.4</ele>
        <time>2026-08-26T10:39:12Z</time>
      </trkpt>
      <trkpt lat="45.71544" lon="4.75011">
        <ele>322.4</ele>
        <time>2026-08-26T10:39:13Z</time>
      </trkpt>
      <trkpt lat="45.71539" lon="4.75017">
        <ele>322.4</ele>
        <time>2026-08-26T10:39:14Z</time>
      </trkpt>
      <trkpt lat="45.71533" lon="4.75021">
        <ele>322.2</ele>
        <time>2026-08-26T10:39:15Z</time>
      </trkpt>
      <trkpt lat="45.71527" lon="4.75025">
        <ele>322.2</ele>
        <time>2026-08-26T10:39:16Z</time>
      </trkpt>
      <trkpt lat="45.71521" lon="4.75028">
        <ele>322</ele>
        <time>2026-08-26T10:39:17Z</time>
      </trkpt>
      <trkpt lat="45.71517" lon="4.7503">
        <ele>322</ele>
        <time>2026-08-26T10:39:18Z</time>
      </trkpt>
      <trkpt lat="45.71513" lon="4.75032">
        <ele>322</ele>
        <time>2026-08-26T10:39:19Z</time>
      </trkpt>
      <trkpt lat="45.71511" lon="4.75033">
        <ele>322</ele>
        <time>2026-08-26T10:39:20Z</time>
      </trkpt>
      <trkpt lat="45.71508" lon="4.75035">
        <ele>322.2</ele>
        <time>2026-08-26T10:39:21Z</time>
      </trkpt>
      <trkpt lat="45.71506" lon="4.75038">
        <ele>322.4</ele>
        <time>2026-08-26T10:39:22Z</time>
      </trkpt>
      <trkpt lat="45.71504" lon="4.75041">
        <ele>322.4</ele>
        <time>2026-08-26T10:39:23Z</time>
      </trkpt>
      <trkpt lat="45.71502" lon="4.75046">
        <ele>322.4</ele>
        <time>2026-08-26T10:39:24Z</time>
      </trkpt>
      <trkpt lat="45.71501" lon="4.75051">
        <ele>322.2</ele>
        <time>2026-08-26T10:39:25Z</time>
      </trkpt>
      <trkpt lat="45.715" lon="4.75057">
        <ele>322</ele>
        <time>2026-08-26T10:39:26Z</time>
      </trkpt>
      <trkpt lat="45.71499" lon="4.75063">
        <ele>321.8</ele>
        <time>2026-08-26T10:39:27Z</time>
      </trkpt>
      <trkpt lat="45.71498" lon="4.7507">
        <ele>321.6</ele>
        <time>2026-08-26T10:39:28Z</time>
      </trkpt>
      <trkpt lat="45.71497" lon="4.75078">
        <ele>321.4</ele>
        <time>2026-08-26T10:39:29Z</time>
      </trkpt>
      <trkpt lat="45.71496" lon="4.75085">
        <ele>321.2</ele>
        <time>2026-08-26T10:39:30Z</time>
      </trkpt>
      <trkpt lat="45.71495" lon="4.75093">
        <ele>321</ele>
        <time>2026-08-26T10:39:31Z</time>
      </trkpt>
      <trkpt lat="45.71494" lon="4.75101">
        <ele>321</ele>
        <time>2026-08-26T10:39:32Z</time>
      </trkpt>
      <trkpt lat="45.71494" lon="4.75109">
        <ele>321</ele>
        <time>2026-08-26T10:39:33Z</time>
      </trkpt>
      <trkpt lat="45.71493" lon="4.75118">
        <ele>320.8</ele>
        <time>2026-08-26T10:39:34Z</time>
      </trkpt>
      <trkpt lat="45.71493" lon="4.75126">
        <ele>320.8</ele>
        <time>2026-08-26T10:39:35Z</time>
      </trkpt>
      <trkpt lat="45.71493" lon="4.75135">
        <ele>320.8</ele>
        <time>2026-08-26T10:39:36Z</time>
      </trkpt>
      <trkpt lat="45.71492" lon="4.75144">
        <ele>320.6</ele>
        <time>2026-08-26T10:39:37Z</time>
      </trkpt>
      <trkpt lat="45.71492" lon="4.75152">
        <ele>320.6</ele>
        <time>2026-08-26T10:39:38Z</time>
      </trkpt>
      <trkpt lat="45.7149" lon="4.75161">
        <ele>320.4</ele>
        <time>2026-08-26T10:39:39Z</time>
      </trkpt>
      <trkpt lat="45.71489" lon="4.75169">
        <ele>320.4</ele>
        <time>2026-08-26T10:39:40Z</time>
      </trkpt>
      <trkpt lat="45.71487" lon="4.75177">
        <ele>320.4</ele>
        <time>2026-08-26T10:39:41Z</time>
      </trkpt>
      <trkpt lat="45.71485" lon="4.75185">
        <ele>320.4</ele>
        <time>2026-08-26T10:39:42Z</time>
      </trkpt>
      <trkpt lat="45.71484" lon="4.75193">
        <ele>320.6</ele>
        <time>2026-08-26T10:39:43Z</time>
      </trkpt>
      <trkpt lat="45.71482" lon="4.75201">
        <ele>320.6</ele>
        <time>2026-08-26T10:39:44Z</time>
      </trkpt>
      <trkpt lat="45.71481" lon="4.75209">
        <ele>320.8</ele>
        <time>2026-08-26T10:39:45Z</time>
      </trkpt>
      <trkpt lat="45.71479" lon="4.75216">
        <ele>320.8</ele>
        <time>2026-08-26T10:39:46Z</time>
      </trkpt>
      <trkpt lat="45.71477" lon="4.75224">
        <ele>320.8</ele>
        <time>2026-08-26T10:39:47Z</time>
      </trkpt>
      <trkpt lat="45.71476" lon="4.75231">
        <ele>321</ele>
        <time>2026-08-26T10:39:48Z</time>
      </trkpt>
      <trkpt lat="45.71475" lon="4.75239">
        <ele>321</ele>
        <time>2026-08-26T10:39:49Z</time>
      </trkpt>
      <trkpt lat="45.71474" lon="4.75246">
        <ele>321.2</ele>
        <time>2026-08-26T10:39:50Z</time>
      </trkpt>
      <trkpt lat="45.71473" lon="4.75254">
        <ele>321.4</ele>
        <time>2026-08-26T10:39:51Z</time>
      </trkpt>
      <trkpt lat="45.71472" lon="4.75261">
        <ele>321.6</ele>
        <time>2026-08-26T10:39:52Z</time>
      </trkpt>
      <trkpt lat="45.7147" lon="4.75269">
        <ele>321.8</ele>
        <time>2026-08-26T10:39:53Z</time>
      </trkpt>
      <trkpt lat="45.71469" lon="4.75276">
        <ele>321.8</ele>
        <time>2026-08-26T10:39:54Z</time>
      </trkpt>
      <trkpt lat="45.71467" lon="4.75282">
        <ele>322</ele>
        <time>2026-08-26T10:39:55Z</time>
      </trkpt>
      <trkpt lat="45.71465" lon="4.75289">
        <ele>322</ele>
        <time>2026-08-26T10:39:56Z</time>
      </trkpt>
      <trkpt lat="45.71463" lon="4.75295">
        <ele>322.2</ele>
        <time>2026-08-26T10:39:57Z</time>
      </trkpt>
      <trkpt lat="45.71461" lon="4.75301">
        <ele>322.4</ele>
        <time>2026-08-26T10:39:58Z</time>
      </trkpt>
      <trkpt lat="45.71459" lon="4.75307">
        <ele>322.4</ele>
        <time>2026-08-26T10:39:59Z</time>
      </trkpt>
      <trkpt lat="45.71457" lon="4.75313">
        <ele>322.6</ele>
        <time>2026-08-26T10:40:00Z</time>
      </trkpt>
      <trkpt lat="45.71456" lon="4.75319">
        <ele>322.8</ele>
        <time>2026-08-26T10:40:01Z</time>
      </trkpt>
      <trkpt lat="45.71454" lon="4.75325">
        <ele>322.8</ele>
        <time>2026-08-26T10:40:02Z</time>
      </trkpt>
      <trkpt lat="45.71453" lon="4.75331">
        <ele>323</ele>
        <time>2026-08-26T10:40:03Z</time>
      </trkpt>
      <trkpt lat="45.71452" lon="4.75337">
        <ele>323</ele>
        <time>2026-08-26T10:40:04Z</time>
      </trkpt>
      <trkpt lat="45.71451" lon="4.75342">
        <ele>323.2</ele>
        <time>2026-08-26T10:40:05Z</time>
      </trkpt>
      <trkpt lat="45.7145" lon="4.75348">
        <ele>323.4</ele>
        <time>2026-08-26T10:40:06Z</time>
      </trkpt>
      <trkpt lat="45.71449" lon="4.75353">
        <ele>323.6</ele>
        <time>2026-08-26T10:40:07Z</time>
      </trkpt>
      <trkpt lat="45.71448" lon="4.75358">
        <ele>323.8</ele>
        <time>2026-08-26T10:40:08Z</time>
      </trkpt>
      <trkpt lat="45.71447" lon="4.75363">
        <ele>324</ele>
        <time>2026-08-26T10:40:09Z</time>
      </trkpt>
      <trkpt lat="45.71446" lon="4.75369">
        <ele>324.4</ele>
        <time>2026-08-26T10:40:10Z</time>
      </trkpt>
      <trkpt lat="45.71445" lon="4.75373">
        <ele>324.6</ele>
        <time>2026-08-26T10:40:11Z</time>
      </trkpt>
      <trkpt lat="45.71443" lon="4.75378">
        <ele>324.8</ele>
        <time>2026-08-26T10:40:12Z</time>
      </trkpt>
      <trkpt lat="45.71442" lon="4.75383">
        <ele>325</ele>
        <time>2026-08-26T10:40:13Z</time>
      </trkpt>
      <trkpt lat="45.71441" lon="4.75388">
        <ele>325.2</ele>
        <time>2026-08-26T10:40:14Z</time>
      </trkpt>
      <trkpt lat="45.7144" lon="4.75393">
        <ele>325.2</ele>
        <time>2026-08-26T10:40:15Z</time>
      </trkpt>
      <trkpt lat="45.71438" lon="4.75397">
        <ele>325.4</ele>
        <time>2026-08-26T10:40:16Z</time>
      </trkpt>
      <trkpt lat="45.71437" lon="4.75401">
        <ele>325.6</ele>
        <time>2026-08-26T10:40:17Z</time>
      </trkpt>
      <trkpt lat="45.71434" lon="4.75405">
        <ele>325.8</ele>
        <time>2026-08-26T10:40:18Z</time>
      </trkpt>
      <trkpt lat="45.71433" lon="4.75409">
        <ele>326</ele>
        <time>2026-08-26T10:40:19Z</time>
      </trkpt>
      <trkpt lat="45.71431" lon="4.75412">
        <ele>326.2</ele>
        <time>2026-08-26T10:40:20Z</time>
      </trkpt>
      <trkpt lat="45.71429" lon="4.75415">
        <ele>326.4</ele>
        <time>2026-08-26T10:40:21Z</time>
      </trkpt>
      <trkpt lat="45.71426" lon="4.75418">
        <ele>326.6</ele>
        <time>2026-08-26T10:40:22Z</time>
      </trkpt>
      <trkpt lat="45.71424" lon="4.75421">
        <ele>326.8</ele>
        <time>2026-08-26T10:40:23Z</time>
      </trkpt>
      <trkpt lat="45.71422" lon="4.75424">
        <ele>326.8</ele>
        <time>2026-08-26T10:40:24Z</time>
      </trkpt>
      <trkpt lat="45.71419" lon="4.75427">
        <ele>326.8</ele>
        <time>2026-08-26T10:40:25Z</time>
      </trkpt>
      <trkpt lat="45.71417" lon="4.7543">
        <ele>327</ele>
        <time>2026-08-26T10:40:26Z</time>
      </trkpt>
      <trkpt lat="45.71414" lon="4.75432">
        <ele>327</ele>
        <time>2026-08-26T10:40:27Z</time>
      </trkpt>
      <trkpt lat="45.71411" lon="4.75434">
        <ele>327</ele>
        <time>2026-08-26T10:40:28Z</time>
      </trkpt>
      <trkpt lat="45.71407" lon="4.75436">
        <ele>327</ele>
        <time>2026-08-26T10:40:29Z</time>
      </trkpt>
      <trkpt lat="45.71403" lon="4.75437">
        <ele>327</ele>
        <time>2026-08-26T10:40:30Z</time>
      </trkpt>
      <trkpt lat="45.714" lon="4.75439">
        <ele>326.8</ele>
        <time>2026-08-26T10:40:31Z</time>
      </trkpt>
      <trkpt lat="45.71396" lon="4.75441">
        <ele>326.8</ele>
        <time>2026-08-26T10:40:32Z</time>
      </trkpt>
      <trkpt lat="45.71391" lon="4.75443">
        <ele>326.6</ele>
        <time>2026-08-26T10:40:33Z</time>
      </trkpt>
      <trkpt lat="45.71387" lon="4.75445">
        <ele>326.6</ele>
        <time>2026-08-26T10:40:34Z</time>
      </trkpt>
      <trkpt lat="45.71383" lon="4.75447">
        <ele>326.6</ele>
        <time>2026-08-26T10:40:35Z</time>
      </trkpt>
      <trkpt lat="45.71379" lon="4.75451">
        <ele>326.4</ele>
        <time>2026-08-26T10:40:36Z</time>
      </trkpt>
      <trkpt lat="45.71375" lon="4.75454">
        <ele>326.4</ele>
        <time>2026-08-26T10:40:37Z</time>
      </trkpt>
      <trkpt lat="45.71371" lon="4.75459">
        <ele>326.2</ele>
        <time>2026-08-26T10:40:38Z</time>
      </trkpt>
      <trkpt lat="45.71367" lon="4.75463">
        <ele>326.2</ele>
        <time>2026-08-26T10:40:39Z</time>
      </trkpt>
      <trkpt lat="45.71363" lon="4.75468">
        <ele>326.2</ele>
        <time>2026-08-26T10:40:40Z</time>
      </trkpt>
      <trkpt lat="45.7136" lon="4.75473">
        <ele>326.2</ele>
        <time>2026-08-26T10:40:41Z</time>
      </trkpt>
      <trkpt lat="45.71357" lon="4.75478">
        <ele>326.2</ele>
        <time>2026-08-26T10:40:42Z</time>
      </trkpt>
      <trkpt lat="45.71354" lon="4.75484">
        <ele>326.2</ele>
        <time>2026-08-26T10:40:43Z</time>
      </trkpt>
      <trkpt lat="45.71352" lon="4.7549">
        <ele>326.2</ele>
        <time>2026-08-26T10:40:44Z</time>
      </trkpt>
      <trkpt lat="45.7135" lon="4.75496">
        <ele>326.4</ele>
        <time>2026-08-26T10:40:45Z</time>
      </trkpt>
      <trkpt lat="45.71347" lon="4.75502">
        <ele>326.4</ele>
        <time>2026-08-26T10:40:46Z</time>
      </trkpt>
      <trkpt lat="45.71345" lon="4.75508">
        <ele>326.4</ele>
        <time>2026-08-26T10:40:47Z</time>
      </trkpt>
      <trkpt lat="45.71344" lon="4.75515">
        <ele>326.4</ele>
        <time>2026-08-26T10:40:48Z</time>
      </trkpt>
      <trkpt lat="45.71342" lon="4.75521">
        <ele>326.4</ele>
        <time>2026-08-26T10:40:49Z</time>
      </trkpt>
      <trkpt lat="45.71341" lon="4.75527">
        <ele>326.4</ele>
        <time>2026-08-26T10:40:50Z</time>
      </trkpt>
      <trkpt lat="45.71339" lon="4.75533">
        <ele>326.4</ele>
        <time>2026-08-26T10:40:51Z</time>
      </trkpt>
      <trkpt lat="45.71338" lon="4.75539">
        <ele>326.2</ele>
        <time>2026-08-26T10:40:52Z</time>
      </trkpt>
      <trkpt lat="45.71336" lon="4.75545">
        <ele>326.4</ele>
        <time>2026-08-26T10:40:53Z</time>
      </trkpt>
      <trkpt lat="45.71334" lon="4.75551">
        <ele>326.4</ele>
        <time>2026-08-26T10:40:54Z</time>
      </trkpt>
      <trkpt lat="45.71333" lon="4.75557">
        <ele>326.4</ele>
        <time>2026-08-26T10:40:55Z</time>
      </trkpt>
      <trkpt lat="45.71332" lon="4.75563">
        <ele>326.6</ele>
        <time>2026-08-26T10:40:56Z</time>
      </trkpt>
      <trkpt lat="45.7133" lon="4.75568">
        <ele>326.6</ele>
        <time>2026-08-26T10:40:57Z</time>
      </trkpt>
      <trkpt lat="45.71328" lon="4.75574">
        <ele>326.8</ele>
        <time>2026-08-26T10:40:58Z</time>
      </trkpt>
      <trkpt lat="45.71327" lon="4.75578">
        <ele>326.8</ele>
        <time>2026-08-26T10:40:59Z</time>
      </trkpt>
      <trkpt lat="45.71327" lon="4.75583">
        <ele>326.8</ele>
        <time>2026-08-26T10:41:00Z</time>
      </trkpt>
      <trkpt lat="45.71326" lon="4.75588">
        <ele>326.8</ele>
        <time>2026-08-26T10:41:01Z</time>
      </trkpt>
      <trkpt lat="45.71324" lon="4.75592">
        <ele>326.8</ele>
        <time>2026-08-26T10:41:02Z</time>
      </trkpt>
      <trkpt lat="45.71322" lon="4.75596">
        <ele>327</ele>
        <time>2026-08-26T10:41:03Z</time>
      </trkpt>
      <trkpt lat="45.71321" lon="4.75599">
        <ele>327</ele>
        <time>2026-08-26T10:41:04Z</time>
      </trkpt>
      <trkpt lat="45.7132" lon="4.75601">
        <ele>327.2</ele>
        <time>2026-08-26T10:41:05Z</time>
      </trkpt>
      <trkpt lat="45.7132" lon="4.75602">
        <ele>327.2</ele>
        <time>2026-08-26T10:41:06Z</time>
      </trkpt>
      <trkpt lat="45.7132" lon="4.75602">
        <ele>327.4</ele>
        <time>2026-08-26T10:41:07Z</time>
      </trkpt>
      <trkpt lat="45.7132" lon="4.75602">
        <ele>327.4</ele>
        <time>2026-08-26T10:41:08Z</time>
      </trkpt>
      <trkpt lat="45.71314" lon="4.75609">
        <ele>326.8</ele>
        <time>2026-08-26T10:42:02Z</time>
      </trkpt>
      <trkpt lat="45.71314" lon="4.75611">
        <ele>326.8</ele>
        <time>2026-08-26T10:42:03Z</time>
      </trkpt>
      <trkpt lat="45.71313" lon="4.75613">
        <ele>327</ele>
        <time>2026-08-26T10:42:04Z</time>
      </trkpt>
      <trkpt lat="45.71313" lon="4.75614">
        <ele>327</ele>
        <time>2026-08-26T10:42:05Z</time>
      </trkpt>
      <trkpt lat="45.71313" lon="4.75616">
        <ele>327</ele>
        <time>2026-08-26T10:42:06Z</time>
      </trkpt>
      <trkpt lat="45.71312" lon="4.75617">
        <ele>327</ele>
        <time>2026-08-26T10:42:07Z</time>
      </trkpt>
      <trkpt lat="45.71311" lon="4.75617">
        <ele>327.2</ele>
        <time>2026-08-26T10:42:08Z</time>
      </trkpt>
      <trkpt lat="45.7131" lon="4.75618">
        <ele>327.2</ele>
        <time>2026-08-26T10:42:09Z</time>
      </trkpt>
      <trkpt lat="45.71309" lon="4.75619">
        <ele>327.2</ele>
        <time>2026-08-26T10:42:10Z</time>
      </trkpt>
      <trkpt lat="45.71309" lon="4.7562">
        <ele>327.2</ele>
        <time>2026-08-26T10:42:11Z</time>
      </trkpt>
      <trkpt lat="45.71308" lon="4.75621">
        <ele>327.2</ele>
        <time>2026-08-26T10:42:12Z</time>
      </trkpt>
      <trkpt lat="45.71307" lon="4.75622">
        <ele>327.2</ele>
        <time>2026-08-26T10:42:13Z</time>
      </trkpt>
      <trkpt lat="45.71306" lon="4.75622">
        <ele>327.2</ele>
        <time>2026-08-26T10:42:14Z</time>
      </trkpt>
      <trkpt lat="45.71305" lon="4.7562">
        <ele>327.2</ele>
        <time>2026-08-26T10:42:15Z</time>
      </trkpt>
      <trkpt lat="45.71305" lon="4.75619">
        <ele>327.2</ele>
        <time>2026-08-26T10:42:16Z</time>
      </trkpt>
      <trkpt lat="45.71303" lon="4.75618">
        <ele>327.2</ele>
        <time>2026-08-26T10:42:17Z</time>
      </trkpt>
      <trkpt lat="45.71301" lon="4.75618">
        <ele>327.2</ele>
        <time>2026-08-26T10:42:18Z</time>
      </trkpt>
      <trkpt lat="45.71299" lon="4.75619">
        <ele>327</ele>
        <time>2026-08-26T10:42:19Z</time>
      </trkpt>
      <trkpt lat="45.71296" lon="4.7562">
        <ele>327</ele>
        <time>2026-08-26T10:42:20Z</time>
      </trkpt>
      <trkpt lat="45.71294" lon="4.75619">
        <ele>327</ele>
        <time>2026-08-26T10:42:21Z</time>
      </trkpt>
      <trkpt lat="45.71291" lon="4.75619">
        <ele>326.8</ele>
        <time>2026-08-26T10:42:22Z</time>
      </trkpt>
      <trkpt lat="45.71287" lon="4.75619">
        <ele>326.8</ele>
        <time>2026-08-26T10:42:23Z</time>
      </trkpt>
      <trkpt lat="45.71284" lon="4.7562">
        <ele>326.8</ele>
        <time>2026-08-26T10:42:24Z</time>
      </trkpt>
      <trkpt lat="45.7128" lon="4.75621">
        <ele>326.8</ele>
        <time>2026-08-26T10:42:25Z</time>
      </trkpt>
      <trkpt lat="45.71276" lon="4.75621">
        <ele>326.6</ele>
        <time>2026-08-26T10:42:26Z</time>
      </trkpt>
      <trkpt lat="45.71272" lon="4.75621">
        <ele>326.6</ele>
        <time>2026-08-26T10:42:27Z</time>
      </trkpt>
      <trkpt lat="45.71268" lon="4.75621">
        <ele>326.6</ele>
        <time>2026-08-26T10:42:28Z</time>
      </trkpt>
      <trkpt lat="45.71264" lon="4.75621">
        <ele>326.6</ele>
        <time>2026-08-26T10:42:29Z</time>
      </trkpt>
      <trkpt lat="45.7126" lon="4.7562">
        <ele>326.4</ele>
        <time>2026-08-26T10:42:30Z</time>
      </trkpt>
      <trkpt lat="45.71256" lon="4.75618">
        <ele>326.4</ele>
        <time>2026-08-26T10:42:31Z</time>
      </trkpt>
      <trkpt lat="45.71252" lon="4.75613">
        <ele>326.4</ele>
        <time>2026-08-26T10:42:32Z</time>
      </trkpt>
      <trkpt lat="45.7125" lon="4.75607">
        <ele>326.2</ele>
        <time>2026-08-26T10:42:33Z</time>
      </trkpt>
      <trkpt lat="45.71249" lon="4.756">
        <ele>326</ele>
        <time>2026-08-26T10:42:34Z</time>
      </trkpt>
      <trkpt lat="45.71247" lon="4.75592">
        <ele>325.8</ele>
        <time>2026-08-26T10:42:35Z</time>
      </trkpt>
      <trkpt lat="45.71246" lon="4.75584">
        <ele>325.4</ele>
        <time>2026-08-26T10:42:36Z</time>
      </trkpt>
      <trkpt lat="45.71244" lon="4.75576">
        <ele>325</ele>
        <time>2026-08-26T10:42:37Z</time>
      </trkpt>
      <trkpt lat="45.71242" lon="4.75567">
        <ele>324.8</ele>
        <time>2026-08-26T10:42:38Z</time>
      </trkpt>
      <trkpt lat="45.7124" lon="4.75558">
        <ele>324.4</ele>
        <time>2026-08-26T10:42:39Z</time>
      </trkpt>
      <trkpt lat="45.71238" lon="4.75549">
        <ele>324</ele>
        <time>2026-08-26T10:42:40Z</time>
      </trkpt>
      <trkpt lat="45.71236" lon="4.75539">
        <ele>323.6</ele>
        <time>2026-08-26T10:42:41Z</time>
      </trkpt>
      <trkpt lat="45.71234" lon="4.7553">
        <ele>323.4</ele>
        <time>2026-08-26T10:42:42Z</time>
      </trkpt>
      <trkpt lat="45.71233" lon="4.75519">
        <ele>323</ele>
        <time>2026-08-26T10:42:43Z</time>
      </trkpt>
      <trkpt lat="45.71233" lon="4.75509">
        <ele>322.6</ele>
        <time>2026-08-26T10:42:44Z</time>
      </trkpt>
      <trkpt lat="45.71232" lon="4.75498">
        <ele>322.4</ele>
        <time>2026-08-26T10:42:45Z</time>
      </trkpt>
      <trkpt lat="45.71231" lon="4.75489">
        <ele>322.2</ele>
        <time>2026-08-26T10:42:46Z</time>
      </trkpt>
      <trkpt lat="45.7123" lon="4.75479">
        <ele>321.8</ele>
        <time>2026-08-26T10:42:47Z</time>
      </trkpt>
      <trkpt lat="45.71231" lon="4.75468">
        <ele>321.6</ele>
        <time>2026-08-26T10:42:48Z</time>
      </trkpt>
      <trkpt lat="45.71231" lon="4.75458">
        <ele>321.2</ele>
        <time>2026-08-26T10:42:49Z</time>
      </trkpt>
      <trkpt lat="45.71229" lon="4.75447">
        <ele>321</ele>
        <time>2026-08-26T10:42:50Z</time>
      </trkpt>
      <trkpt lat="45.71227" lon="4.75438">
        <ele>320.6</ele>
        <time>2026-08-26T10:42:51Z</time>
      </trkpt>
      <trkpt lat="45.71223" lon="4.7543">
        <ele>320.4</ele>
        <time>2026-08-26T10:42:52Z</time>
      </trkpt>
      <trkpt lat="45.71218" lon="4.75425">
        <ele>320</ele>
        <time>2026-08-26T10:42:53Z</time>
      </trkpt>
      <trkpt lat="45.71212" lon="4.75423">
        <ele>319.6</ele>
        <time>2026-08-26T10:42:54Z</time>
      </trkpt>
      <trkpt lat="45.71205" lon="4.75425">
        <ele>319</ele>
        <time>2026-08-26T10:42:55Z</time>
      </trkpt>
      <trkpt lat="45.71196" lon="4.75431">
        <ele>318.6</ele>
        <time>2026-08-26T10:42:56Z</time>
      </trkpt>
      <trkpt lat="45.71188" lon="4.75435">
        <ele>318.4</ele>
        <time>2026-08-26T10:42:57Z</time>
      </trkpt>
      <trkpt lat="45.71181" lon="4.7544">
        <ele>318.2</ele>
        <time>2026-08-26T10:42:58Z</time>
      </trkpt>
      <trkpt lat="45.71173" lon="4.75443">
        <ele>318.2</ele>
        <time>2026-08-26T10:42:59Z</time>
      </trkpt>
      <trkpt lat="45.71166" lon="4.75446">
        <ele>318</ele>
        <time>2026-08-26T10:43:00Z</time>
      </trkpt>
      <trkpt lat="45.71159" lon="4.75449">
        <ele>318</ele>
        <time>2026-08-26T10:43:01Z</time>
      </trkpt>
      <trkpt lat="45.71151" lon="4.75451">
        <ele>317.8</ele>
        <time>2026-08-26T10:43:02Z</time>
      </trkpt>
      <trkpt lat="45.71144" lon="4.75452">
        <ele>317.6</ele>
        <time>2026-08-26T10:43:03Z</time>
      </trkpt>
      <trkpt lat="45.71137" lon="4.75449">
        <ele>317.4</ele>
        <time>2026-08-26T10:43:04Z</time>
      </trkpt>
      <trkpt lat="45.71129" lon="4.75444">
        <ele>317.2</ele>
        <time>2026-08-26T10:43:05Z</time>
      </trkpt>
      <trkpt lat="45.71123" lon="4.75437">
        <ele>317</ele>
        <time>2026-08-26T10:43:06Z</time>
      </trkpt>
      <trkpt lat="45.71117" lon="4.75432">
        <ele>316.8</ele>
        <time>2026-08-26T10:43:07Z</time>
      </trkpt>
      <trkpt lat="45.7111" lon="4.75428">
        <ele>316.2</ele>
        <time>2026-08-26T10:43:08Z</time>
      </trkpt>
      <trkpt lat="45.71102" lon="4.75425">
        <ele>316</ele>
        <time>2026-08-26T10:43:09Z</time>
      </trkpt>
      <trkpt lat="45.71094" lon="4.75424">
        <ele>315.4</ele>
        <time>2026-08-26T10:43:10Z</time>
      </trkpt>
      <trkpt lat="45.71087" lon="4.75423">
        <ele>314.8</ele>
        <time>2026-08-26T10:43:11Z</time>
      </trkpt>
      <trkpt lat="45.71079" lon="4.75422">
        <ele>314.4</ele>
        <time>2026-08-26T10:43:12Z</time>
      </trkpt>
      <trkpt lat="45.71072" lon="4.75422">
        <ele>314.2</ele>
        <time>2026-08-26T10:43:13Z</time>
      </trkpt>
      <trkpt lat="45.71065" lon="4.75422">
        <ele>314</ele>
        <time>2026-08-26T10:43:14Z</time>
      </trkpt>
      <trkpt lat="45.7106" lon="4.75424">
        <ele>313.8</ele>
        <time>2026-08-26T10:43:15Z</time>
      </trkpt>
      <trkpt lat="45.71056" lon="4.75428">
        <ele>313.8</ele>
        <time>2026-08-26T10:43:16Z</time>
      </trkpt>
      <trkpt lat="45.71053" lon="4.75434">
        <ele>313.8</ele>
        <time>2026-08-26T10:43:17Z</time>
      </trkpt>
      <trkpt lat="45.71052" lon="4.75441">
        <ele>313.6</ele>
        <time>2026-08-26T10:43:18Z</time>
      </trkpt>
      <trkpt lat="45.71052" lon="4.75449">
        <ele>313.4</ele>
        <time>2026-08-26T10:43:19Z</time>
      </trkpt>
      <trkpt lat="45.71051" lon="4.75458">
        <ele>313.2</ele>
        <time>2026-08-26T10:43:20Z</time>
      </trkpt>
      <trkpt lat="45.71051" lon="4.75466">
        <ele>313</ele>
        <time>2026-08-26T10:43:21Z</time>
      </trkpt>
      <trkpt lat="45.71051" lon="4.75475">
        <ele>312.6</ele>
        <time>2026-08-26T10:43:22Z</time>
      </trkpt>
      <trkpt lat="45.71051" lon="4.75483">
        <ele>312.4</ele>
        <time>2026-08-26T10:43:23Z</time>
      </trkpt>
      <trkpt lat="45.71051" lon="4.75492">
        <ele>312.4</ele>
        <time>2026-08-26T10:43:24Z</time>
      </trkpt>
      <trkpt lat="45.71052" lon="4.75501">
        <ele>312.4</ele>
        <time>2026-08-26T10:43:25Z</time>
      </trkpt>
      <trkpt lat="45.71051" lon="4.75509">
        <ele>312.2</ele>
        <time>2026-08-26T10:43:26Z</time>
      </trkpt>
      <trkpt lat="45.71052" lon="4.75517">
        <ele>312.4</ele>
        <time>2026-08-26T10:43:27Z</time>
      </trkpt>
      <trkpt lat="45.71052" lon="4.75526">
        <ele>312.4</ele>
        <time>2026-08-26T10:43:28Z</time>
      </trkpt>
      <trkpt lat="45.71053" lon="4.75533">
        <ele>312.4</ele>
        <time>2026-08-26T10:43:29Z</time>
      </trkpt>
      <trkpt lat="45.71055" lon="4.7554">
        <ele>312.6</ele>
        <time>2026-08-26T10:43:30Z</time>
      </trkpt>
      <trkpt lat="45.71057" lon="4.75545">
        <ele>312.8</ele>
        <time>2026-08-26T10:43:31Z</time>
      </trkpt>
      <trkpt lat="45.71061" lon="4.75545">
        <ele>313.2</ele>
        <time>2026-08-26T10:43:32Z</time>
      </trkpt>
      <trkpt lat="45.71065" lon="4.75544">
        <ele>313.6</ele>
        <time>2026-08-26T10:43:33Z</time>
      </trkpt>
      <trkpt lat="45.71069" lon="4.75544">
        <ele>314.2</ele>
        <time>2026-08-26T10:43:34Z</time>
      </trkpt>
      <trkpt lat="45.71072" lon="4.75544">
        <ele>314.4</ele>
        <time>2026-08-26T10:43:35Z</time>
      </trkpt>
      <trkpt lat="45.71074" lon="4.75543">
        <ele>314.8</ele>
        <time>2026-08-26T10:43:36Z</time>
      </trkpt>
      <trkpt lat="45.71076" lon="4.75543">
        <ele>315</ele>
        <time>2026-08-26T10:43:37Z</time>
      </trkpt>
      <trkpt lat="45.71077" lon="4.75543">
        <ele>315.2</ele>
        <time>2026-08-26T10:43:38Z</time>
      </trkpt>
      <trkpt lat="45.71077" lon="4.75543">
        <ele>315.4</ele>
        <time>2026-08-26T10:43:39Z</time>
      </trkpt>
      <trkpt lat="45.71078" lon="4.75544">
        <ele>315.6</ele>
        <time>2026-08-26T10:43:40Z</time>
      </trkpt>
      <trkpt lat="45.71081" lon="4.75551">
        <ele>315.6</ele>
        <time>2026-08-26T11:25:05Z</time>
      </trkpt>
      <trkpt lat="45.71081" lon="4.75551">
        <ele>315.6</ele>
        <time>2026-08-26T11:25:06Z</time>
      </trkpt>
      <trkpt lat="45.71081" lon="4.7555">
        <ele>315.6</ele>
        <time>2026-08-26T11:25:07Z</time>
      </trkpt>
      <trkpt lat="45.71081" lon="4.75549">
        <ele>315.6</ele>
        <time>2026-08-26T11:25:08Z</time>
      </trkpt>
      <trkpt lat="45.71081" lon="4.75549">
        <ele>315.6</ele>
        <time>2026-08-26T11:25:09Z</time>
      </trkpt>
      <trkpt lat="45.71083" lon="4.75546">
        <ele>315.4</ele>
        <time>2026-08-26T11:25:19Z</time>
      </trkpt>
      <trkpt lat="45.71083" lon="4.75546">
        <ele>315.4</ele>
        <time>2026-08-26T11:25:20Z</time>
      </trkpt>
      <trkpt lat="45.71083" lon="4.75545">
        <ele>315.4</ele>
        <time>2026-08-26T11:25:21Z</time>
      </trkpt>
      <trkpt lat="45.71083" lon="4.75545">
        <ele>315.4</ele>
        <time>2026-08-26T11:25:22Z</time>
      </trkpt>
      <trkpt lat="45.71083" lon="4.75545">
        <ele>315.4</ele>
        <time>2026-08-26T11:25:23Z</time>
      </trkpt>
      <trkpt lat="45.71083" lon="4.75545">
        <ele>315.4</ele>
        <time>2026-08-26T11:25:24Z</time>
      </trkpt>
      <trkpt lat="45.71083" lon="4.75546">
        <ele>315.4</ele>
        <time>2026-08-26T11:25:25Z</time>
      </trkpt>
      <trkpt lat="45.71082" lon="4.75547">
        <ele>315.4</ele>
        <time>2026-08-26T11:25:26Z</time>
      </trkpt>
      <trkpt lat="45.71081" lon="4.75547">
        <ele>315.4</ele>
        <time>2026-08-26T11:25:27Z</time>
      </trkpt>
      <trkpt lat="45.71081" lon="4.75547">
        <ele>315.4</ele>
        <time>2026-08-26T11:25:28Z</time>
      </trkpt>
      <trkpt lat="45.71082" lon="4.75547">
        <ele>315.4</ele>
        <time>2026-08-26T11:25:29Z</time>
      </trkpt>
      <trkpt lat="45.71082" lon="4.75547">
        <ele>315.4</ele>
        <time>2026-08-26T11:25:30Z</time>
      </trkpt>
      <trkpt lat="45.71081" lon="4.75547">
        <ele>315.4</ele>
        <time>2026-08-26T11:25:31Z</time>
      </trkpt>
      <trkpt lat="45.71077" lon="4.75551">
        <ele>314.2</ele>
        <time>2026-08-26T11:27:56Z</time>
      </trkpt>
      <trkpt lat="45.71077" lon="4.75551">
        <ele>314.2</ele>
        <time>2026-08-26T11:27:57Z</time>
      </trkpt>
      <trkpt lat="45.71077" lon="4.75551">
        <ele>314.2</ele>
        <time>2026-08-26T11:27:58Z</time>
      </trkpt>
      <trkpt lat="45.71082" lon="4.75558">
        <ele>313.2</ele>
        <time>2026-08-26T11:32:14Z</time>
      </trkpt>
      <trkpt lat="45.71082" lon="4.75558">
        <ele>313.2</ele>
        <time>2026-08-26T11:32:15Z</time>
      </trkpt>
      <trkpt lat="45.71082" lon="4.75558">
        <ele>313.2</ele>
        <time>2026-08-26T11:32:16Z</time>
      </trkpt>
    </trkseg>
  </trk>
</gpx>